<?xml version="1.0" encoding="UTF-8" standalone="no" ?>
<gpx xmlns="http://www.topografix.com/GPX/1/1" xmlns:xsi="http://www.w3.org/2001/XMLSchema-instance" xsi:schemaLocation="http://www.topografix.com/GPX/1/1 http://www.topografix.com/GPX/1/1/gpx.xsd" version="1.1" creator="VisuGPX - https://www.visugpx.com">
  <metadata>
    <name>MOUSSOULENS le 09.06.2019 - ACFC</name>
    <desc><![CDATA[Cette sortie vous permettra de visiter également une partie du beau village de MONTOLIEU. Peut se faire en randonnée. Petites côtes très raides en fin de parcours ]]></desc>
  </metadata>
  <trk>
    <name><![CDATA[TrailRunning]]></name>
    <trkseg>
      <trkpt lat="43.27922" lon="2.23152">
        <ele>168.8</ele>
        <time>2019-06-09T06:02:02.000Z</time>
      </trkpt>
      <trkpt lat="43.27922" lon="2.23152">
        <ele>168.8</ele>
        <time>2019-06-09T06:02:03.000Z</time>
      </trkpt>
      <trkpt lat="43.27922" lon="2.23151">
        <ele>168.8</ele>
        <time>2019-06-09T06:02:04.000Z</time>
      </trkpt>
      <trkpt lat="43.27921" lon="2.2315">
        <ele>168.8</ele>
        <time>2019-06-09T06:02:05.000Z</time>
      </trkpt>
      <trkpt lat="43.27921" lon="2.23149">
        <ele>168.8</ele>
        <time>2019-06-09T06:02:06.000Z</time>
      </trkpt>
      <trkpt lat="43.27921" lon="2.23148">
        <ele>168.8</ele>
        <time>2019-06-09T06:02:07.000Z</time>
      </trkpt>
      <trkpt lat="43.2792" lon="2.23146">
        <ele>168.8</ele>
        <time>2019-06-09T06:02:08.000Z</time>
      </trkpt>
      <trkpt lat="43.27919" lon="2.23144">
        <ele>168.8</ele>
        <time>2019-06-09T06:02:09.000Z</time>
      </trkpt>
      <trkpt lat="43.27919" lon="2.23142">
        <ele>168.8</ele>
        <time>2019-06-09T06:02:10.000Z</time>
      </trkpt>
      <trkpt lat="43.27918" lon="2.2314">
        <ele>168.8</ele>
        <time>2019-06-09T06:02:11.000Z</time>
      </trkpt>
      <trkpt lat="43.27918" lon="2.23137">
        <ele>168.8</ele>
        <time>2019-06-09T06:02:12.000Z</time>
      </trkpt>
      <trkpt lat="43.27917" lon="2.23134">
        <ele>168.8</ele>
        <time>2019-06-09T06:02:13.000Z</time>
      </trkpt>
      <trkpt lat="43.27916" lon="2.23132">
        <ele>168.8</ele>
        <time>2019-06-09T06:02:14.000Z</time>
      </trkpt>
      <trkpt lat="43.27916" lon="2.23129">
        <ele>168.9</ele>
        <time>2019-06-09T06:02:15.000Z</time>
      </trkpt>
      <trkpt lat="43.27916" lon="2.23126">
        <ele>168.9</ele>
        <time>2019-06-09T06:02:16.000Z</time>
      </trkpt>
      <trkpt lat="43.27915" lon="2.23123">
        <ele>169</ele>
        <time>2019-06-09T06:02:17.000Z</time>
      </trkpt>
      <trkpt lat="43.27915" lon="2.2312">
        <ele>169</ele>
        <time>2019-06-09T06:02:18.000Z</time>
      </trkpt>
      <trkpt lat="43.27915" lon="2.23117">
        <ele>169.1</ele>
        <time>2019-06-09T06:02:19.000Z</time>
      </trkpt>
      <trkpt lat="43.27915" lon="2.23114">
        <ele>169.1</ele>
        <time>2019-06-09T06:02:20.000Z</time>
      </trkpt>
      <trkpt lat="43.27915" lon="2.23112">
        <ele>169.2</ele>
        <time>2019-06-09T06:02:21.000Z</time>
      </trkpt>
      <trkpt lat="43.27915" lon="2.23109">
        <ele>169.3</ele>
        <time>2019-06-09T06:02:22.000Z</time>
      </trkpt>
      <trkpt lat="43.27916" lon="2.23107">
        <ele>169.4</ele>
        <time>2019-06-09T06:02:23.000Z</time>
      </trkpt>
      <trkpt lat="43.27917" lon="2.23105">
        <ele>169.5</ele>
        <time>2019-06-09T06:02:24.000Z</time>
      </trkpt>
      <trkpt lat="43.27918" lon="2.23103">
        <ele>169.6</ele>
        <time>2019-06-09T06:02:25.000Z</time>
      </trkpt>
      <trkpt lat="43.27919" lon="2.23101">
        <ele>169.7</ele>
        <time>2019-06-09T06:02:26.000Z</time>
      </trkpt>
      <trkpt lat="43.2792" lon="2.231">
        <ele>169.9</ele>
        <time>2019-06-09T06:02:27.000Z</time>
      </trkpt>
      <trkpt lat="43.27922" lon="2.23099">
        <ele>170</ele>
        <time>2019-06-09T06:02:28.000Z</time>
      </trkpt>
      <trkpt lat="43.27924" lon="2.23098">
        <ele>170.1</ele>
        <time>2019-06-09T06:02:29.000Z</time>
      </trkpt>
      <trkpt lat="43.27926" lon="2.23097">
        <ele>170.3</ele>
        <time>2019-06-09T06:02:30.000Z</time>
      </trkpt>
      <trkpt lat="43.27928" lon="2.23095">
        <ele>170.4</ele>
        <time>2019-06-09T06:02:31.000Z</time>
      </trkpt>
      <trkpt lat="43.27929" lon="2.23094">
        <ele>170.6</ele>
        <time>2019-06-09T06:02:32.000Z</time>
      </trkpt>
      <trkpt lat="43.27931" lon="2.23093">
        <ele>170.7</ele>
        <time>2019-06-09T06:02:33.000Z</time>
      </trkpt>
      <trkpt lat="43.27932" lon="2.23091">
        <ele>170.8</ele>
        <time>2019-06-09T06:02:34.000Z</time>
      </trkpt>
      <trkpt lat="43.27933" lon="2.23089">
        <ele>170.9</ele>
        <time>2019-06-09T06:02:35.000Z</time>
      </trkpt>
      <trkpt lat="43.27934" lon="2.23087">
        <ele>171</ele>
        <time>2019-06-09T06:02:36.000Z</time>
      </trkpt>
      <trkpt lat="43.27935" lon="2.23085">
        <ele>171</ele>
        <time>2019-06-09T06:02:37.000Z</time>
      </trkpt>
      <trkpt lat="43.27935" lon="2.23082">
        <ele>171.1</ele>
        <time>2019-06-09T06:02:38.000Z</time>
      </trkpt>
      <trkpt lat="43.27935" lon="2.2308">
        <ele>171.1</ele>
        <time>2019-06-09T06:02:39.000Z</time>
      </trkpt>
      <trkpt lat="43.27935" lon="2.23077">
        <ele>171</ele>
        <time>2019-06-09T06:02:40.000Z</time>
      </trkpt>
      <trkpt lat="43.27935" lon="2.23074">
        <ele>171</ele>
        <time>2019-06-09T06:02:41.000Z</time>
      </trkpt>
      <trkpt lat="43.27935" lon="2.23071">
        <ele>171</ele>
        <time>2019-06-09T06:02:42.000Z</time>
      </trkpt>
      <trkpt lat="43.27935" lon="2.23069">
        <ele>170.9</ele>
        <time>2019-06-09T06:02:43.000Z</time>
      </trkpt>
      <trkpt lat="43.27934" lon="2.23066">
        <ele>170.9</ele>
        <time>2019-06-09T06:02:44.000Z</time>
      </trkpt>
      <trkpt lat="43.27934" lon="2.23064">
        <ele>170.8</ele>
        <time>2019-06-09T06:02:45.000Z</time>
      </trkpt>
      <trkpt lat="43.27933" lon="2.23061">
        <ele>170.7</ele>
        <time>2019-06-09T06:02:46.000Z</time>
      </trkpt>
      <trkpt lat="43.27933" lon="2.23058">
        <ele>170.7</ele>
        <time>2019-06-09T06:02:47.000Z</time>
      </trkpt>
      <trkpt lat="43.27932" lon="2.23056">
        <ele>170.6</ele>
        <time>2019-06-09T06:02:48.000Z</time>
      </trkpt>
      <trkpt lat="43.27932" lon="2.23053">
        <ele>170.6</ele>
        <time>2019-06-09T06:02:49.000Z</time>
      </trkpt>
      <trkpt lat="43.27932" lon="2.23051">
        <ele>170.5</ele>
        <time>2019-06-09T06:02:50.000Z</time>
      </trkpt>
      <trkpt lat="43.27932" lon="2.23049">
        <ele>170.5</ele>
        <time>2019-06-09T06:02:51.000Z</time>
      </trkpt>
      <trkpt lat="43.27932" lon="2.23047">
        <ele>170.5</ele>
        <time>2019-06-09T06:02:52.000Z</time>
      </trkpt>
      <trkpt lat="43.27932" lon="2.23045">
        <ele>170.5</ele>
        <time>2019-06-09T06:02:53.000Z</time>
      </trkpt>
      <trkpt lat="43.27933" lon="2.23043">
        <ele>170.5</ele>
        <time>2019-06-09T06:02:54.000Z</time>
      </trkpt>
      <trkpt lat="43.27935" lon="2.23042">
        <ele>170.6</ele>
        <time>2019-06-09T06:02:55.000Z</time>
      </trkpt>
      <trkpt lat="43.27937" lon="2.23041">
        <ele>170.7</ele>
        <time>2019-06-09T06:02:56.000Z</time>
      </trkpt>
      <trkpt lat="43.27938" lon="2.23041">
        <ele>170.8</ele>
        <time>2019-06-09T06:02:57.000Z</time>
      </trkpt>
      <trkpt lat="43.2794" lon="2.2304">
        <ele>170.9</ele>
        <time>2019-06-09T06:02:58.000Z</time>
      </trkpt>
      <trkpt lat="43.27941" lon="2.23039">
        <ele>171</ele>
        <time>2019-06-09T06:02:59.000Z</time>
      </trkpt>
      <trkpt lat="43.27943" lon="2.23038">
        <ele>171</ele>
        <time>2019-06-09T06:03:00.000Z</time>
      </trkpt>
      <trkpt lat="43.27944" lon="2.23038">
        <ele>171.1</ele>
        <time>2019-06-09T06:03:01.000Z</time>
      </trkpt>
      <trkpt lat="43.27946" lon="2.23037">
        <ele>171.2</ele>
        <time>2019-06-09T06:03:02.000Z</time>
      </trkpt>
      <trkpt lat="43.27948" lon="2.23036">
        <ele>171.3</ele>
        <time>2019-06-09T06:03:03.000Z</time>
      </trkpt>
      <trkpt lat="43.27949" lon="2.23036">
        <ele>171.4</ele>
        <time>2019-06-09T06:03:04.000Z</time>
      </trkpt>
      <trkpt lat="43.27951" lon="2.23035">
        <ele>171.5</ele>
        <time>2019-06-09T06:03:05.000Z</time>
      </trkpt>
      <trkpt lat="43.27953" lon="2.23035">
        <ele>171.6</ele>
        <time>2019-06-09T06:03:06.000Z</time>
      </trkpt>
      <trkpt lat="43.27955" lon="2.23034">
        <ele>171.7</ele>
        <time>2019-06-09T06:03:07.000Z</time>
      </trkpt>
      <trkpt lat="43.27956" lon="2.23034">
        <ele>171.8</ele>
        <time>2019-06-09T06:03:08.000Z</time>
      </trkpt>
      <trkpt lat="43.27958" lon="2.23034">
        <ele>171.9</ele>
        <time>2019-06-09T06:03:09.000Z</time>
      </trkpt>
      <trkpt lat="43.2796" lon="2.23034">
        <ele>172</ele>
        <time>2019-06-09T06:03:10.000Z</time>
      </trkpt>
      <trkpt lat="43.27961" lon="2.23034">
        <ele>172.1</ele>
        <time>2019-06-09T06:03:11.000Z</time>
      </trkpt>
      <trkpt lat="43.27963" lon="2.23033">
        <ele>172.1</ele>
        <time>2019-06-09T06:03:12.000Z</time>
      </trkpt>
      <trkpt lat="43.27964" lon="2.23031">
        <ele>172.2</ele>
        <time>2019-06-09T06:03:13.000Z</time>
      </trkpt>
      <trkpt lat="43.27964" lon="2.23029">
        <ele>172.2</ele>
        <time>2019-06-09T06:03:14.000Z</time>
      </trkpt>
      <trkpt lat="43.27965" lon="2.23026">
        <ele>172.2</ele>
        <time>2019-06-09T06:03:15.000Z</time>
      </trkpt>
      <trkpt lat="43.27965" lon="2.23024">
        <ele>172.2</ele>
        <time>2019-06-09T06:03:16.000Z</time>
      </trkpt>
      <trkpt lat="43.27964" lon="2.23021">
        <ele>172.1</ele>
        <time>2019-06-09T06:03:17.000Z</time>
      </trkpt>
      <trkpt lat="43.27964" lon="2.23018">
        <ele>172.1</ele>
        <time>2019-06-09T06:03:18.000Z</time>
      </trkpt>
      <trkpt lat="43.27963" lon="2.23015">
        <ele>172</ele>
        <time>2019-06-09T06:03:19.000Z</time>
      </trkpt>
      <trkpt lat="43.27963" lon="2.23012">
        <ele>171.9</ele>
        <time>2019-06-09T06:03:20.000Z</time>
      </trkpt>
      <trkpt lat="43.27962" lon="2.23009">
        <ele>171.8</ele>
        <time>2019-06-09T06:03:21.000Z</time>
      </trkpt>
      <trkpt lat="43.27962" lon="2.23006">
        <ele>171.8</ele>
        <time>2019-06-09T06:03:22.000Z</time>
      </trkpt>
      <trkpt lat="43.27962" lon="2.23003">
        <ele>171.7</ele>
        <time>2019-06-09T06:03:23.000Z</time>
      </trkpt>
      <trkpt lat="43.27961" lon="2.22999">
        <ele>171.7</ele>
        <time>2019-06-09T06:03:24.000Z</time>
      </trkpt>
      <trkpt lat="43.27961" lon="2.22996">
        <ele>171.6</ele>
        <time>2019-06-09T06:03:25.000Z</time>
      </trkpt>
      <trkpt lat="43.27961" lon="2.22993">
        <ele>171.5</ele>
        <time>2019-06-09T06:03:26.000Z</time>
      </trkpt>
      <trkpt lat="43.2796" lon="2.2299">
        <ele>171.4</ele>
        <time>2019-06-09T06:03:27.000Z</time>
      </trkpt>
      <trkpt lat="43.2796" lon="2.22987">
        <ele>171.3</ele>
        <time>2019-06-09T06:03:28.000Z</time>
      </trkpt>
      <trkpt lat="43.2796" lon="2.22984">
        <ele>171.2</ele>
        <time>2019-06-09T06:03:29.000Z</time>
      </trkpt>
      <trkpt lat="43.27959" lon="2.22981">
        <ele>171.1</ele>
        <time>2019-06-09T06:03:30.000Z</time>
      </trkpt>
      <trkpt lat="43.27959" lon="2.22979">
        <ele>171</ele>
        <time>2019-06-09T06:03:31.000Z</time>
      </trkpt>
      <trkpt lat="43.27959" lon="2.22976">
        <ele>170.9</ele>
        <time>2019-06-09T06:03:32.000Z</time>
      </trkpt>
      <trkpt lat="43.27958" lon="2.22973">
        <ele>170.8</ele>
        <time>2019-06-09T06:03:33.000Z</time>
      </trkpt>
      <trkpt lat="43.27958" lon="2.22971">
        <ele>170.8</ele>
        <time>2019-06-09T06:03:34.000Z</time>
      </trkpt>
      <trkpt lat="43.27957" lon="2.22968">
        <ele>170.7</ele>
        <time>2019-06-09T06:03:35.000Z</time>
      </trkpt>
      <trkpt lat="43.27957" lon="2.22965">
        <ele>170.6</ele>
        <time>2019-06-09T06:03:36.000Z</time>
      </trkpt>
      <trkpt lat="43.27956" lon="2.22962">
        <ele>170.5</ele>
        <time>2019-06-09T06:03:37.000Z</time>
      </trkpt>
      <trkpt lat="43.27956" lon="2.22959">
        <ele>170.4</ele>
        <time>2019-06-09T06:03:38.000Z</time>
      </trkpt>
      <trkpt lat="43.27956" lon="2.22956">
        <ele>170.3</ele>
        <time>2019-06-09T06:03:39.000Z</time>
      </trkpt>
      <trkpt lat="43.27955" lon="2.22953">
        <ele>170.2</ele>
        <time>2019-06-09T06:03:40.000Z</time>
      </trkpt>
      <trkpt lat="43.27955" lon="2.2295">
        <ele>170.1</ele>
        <time>2019-06-09T06:03:41.000Z</time>
      </trkpt>
      <trkpt lat="43.27955" lon="2.22947">
        <ele>170.1</ele>
        <time>2019-06-09T06:03:42.000Z</time>
      </trkpt>
      <trkpt lat="43.27954" lon="2.22944">
        <ele>170</ele>
        <time>2019-06-09T06:03:43.000Z</time>
      </trkpt>
      <trkpt lat="43.27954" lon="2.22941">
        <ele>169.9</ele>
        <time>2019-06-09T06:03:44.000Z</time>
      </trkpt>
      <trkpt lat="43.27954" lon="2.22939">
        <ele>169.8</ele>
        <time>2019-06-09T06:03:45.000Z</time>
      </trkpt>
      <trkpt lat="43.27954" lon="2.22936">
        <ele>169.8</ele>
        <time>2019-06-09T06:03:46.000Z</time>
      </trkpt>
      <trkpt lat="43.27953" lon="2.22934">
        <ele>169.7</ele>
        <time>2019-06-09T06:03:47.000Z</time>
      </trkpt>
      <trkpt lat="43.27953" lon="2.22931">
        <ele>169.6</ele>
        <time>2019-06-09T06:03:48.000Z</time>
      </trkpt>
      <trkpt lat="43.27953" lon="2.22929">
        <ele>169.6</ele>
        <time>2019-06-09T06:03:49.000Z</time>
      </trkpt>
      <trkpt lat="43.27952" lon="2.22926">
        <ele>169.5</ele>
        <time>2019-06-09T06:03:50.000Z</time>
      </trkpt>
      <trkpt lat="43.27952" lon="2.22923">
        <ele>169.4</ele>
        <time>2019-06-09T06:03:51.000Z</time>
      </trkpt>
      <trkpt lat="43.27952" lon="2.22921">
        <ele>169.3</ele>
        <time>2019-06-09T06:03:52.000Z</time>
      </trkpt>
      <trkpt lat="43.27952" lon="2.22918">
        <ele>169.3</ele>
        <time>2019-06-09T06:03:53.000Z</time>
      </trkpt>
      <trkpt lat="43.27952" lon="2.22915">
        <ele>169.3</ele>
        <time>2019-06-09T06:03:54.000Z</time>
      </trkpt>
      <trkpt lat="43.27952" lon="2.22912">
        <ele>169.3</ele>
        <time>2019-06-09T06:03:55.000Z</time>
      </trkpt>
      <trkpt lat="43.27952" lon="2.2291">
        <ele>169.4</ele>
        <time>2019-06-09T06:03:56.000Z</time>
      </trkpt>
      <trkpt lat="43.27952" lon="2.22908">
        <ele>169.4</ele>
        <time>2019-06-09T06:03:57.000Z</time>
      </trkpt>
      <trkpt lat="43.27953" lon="2.22906">
        <ele>169.5</ele>
        <time>2019-06-09T06:03:58.000Z</time>
      </trkpt>
      <trkpt lat="43.27955" lon="2.22905">
        <ele>169.6</ele>
        <time>2019-06-09T06:03:59.000Z</time>
      </trkpt>
      <trkpt lat="43.27956" lon="2.22905">
        <ele>169.6</ele>
        <time>2019-06-09T06:04:00.000Z</time>
      </trkpt>
      <trkpt lat="43.27958" lon="2.22904">
        <ele>169.7</ele>
        <time>2019-06-09T06:04:01.000Z</time>
      </trkpt>
      <trkpt lat="43.2796" lon="2.22904">
        <ele>169.8</ele>
        <time>2019-06-09T06:04:02.000Z</time>
      </trkpt>
      <trkpt lat="43.27962" lon="2.22905">
        <ele>169.9</ele>
        <time>2019-06-09T06:04:03.000Z</time>
      </trkpt>
      <trkpt lat="43.27964" lon="2.22905">
        <ele>169.9</ele>
        <time>2019-06-09T06:04:04.000Z</time>
      </trkpt>
      <trkpt lat="43.27967" lon="2.22905">
        <ele>170</ele>
        <time>2019-06-09T06:04:05.000Z</time>
      </trkpt>
      <trkpt lat="43.27968" lon="2.22906">
        <ele>170.1</ele>
        <time>2019-06-09T06:04:06.000Z</time>
      </trkpt>
      <trkpt lat="43.2797" lon="2.22906">
        <ele>170.1</ele>
        <time>2019-06-09T06:04:07.000Z</time>
      </trkpt>
      <trkpt lat="43.27972" lon="2.22907">
        <ele>170.2</ele>
        <time>2019-06-09T06:04:08.000Z</time>
      </trkpt>
      <trkpt lat="43.27974" lon="2.22907">
        <ele>170.2</ele>
        <time>2019-06-09T06:04:09.000Z</time>
      </trkpt>
      <trkpt lat="43.27976" lon="2.22908">
        <ele>170.3</ele>
        <time>2019-06-09T06:04:10.000Z</time>
      </trkpt>
      <trkpt lat="43.27977" lon="2.22909">
        <ele>170.4</ele>
        <time>2019-06-09T06:04:11.000Z</time>
      </trkpt>
      <trkpt lat="43.27979" lon="2.22909">
        <ele>170.4</ele>
        <time>2019-06-09T06:04:12.000Z</time>
      </trkpt>
      <trkpt lat="43.27981" lon="2.2291">
        <ele>170.5</ele>
        <time>2019-06-09T06:04:13.000Z</time>
      </trkpt>
      <trkpt lat="43.27983" lon="2.22911">
        <ele>170.5</ele>
        <time>2019-06-09T06:04:14.000Z</time>
      </trkpt>
      <trkpt lat="43.27985" lon="2.22911">
        <ele>170.6</ele>
        <time>2019-06-09T06:04:15.000Z</time>
      </trkpt>
      <trkpt lat="43.27988" lon="2.22912">
        <ele>170.7</ele>
        <time>2019-06-09T06:04:16.000Z</time>
      </trkpt>
      <trkpt lat="43.2799" lon="2.22913">
        <ele>170.7</ele>
        <time>2019-06-09T06:04:17.000Z</time>
      </trkpt>
      <trkpt lat="43.27992" lon="2.22913">
        <ele>170.8</ele>
        <time>2019-06-09T06:04:18.000Z</time>
      </trkpt>
      <trkpt lat="43.27995" lon="2.22913">
        <ele>170.9</ele>
        <time>2019-06-09T06:04:19.000Z</time>
      </trkpt>
      <trkpt lat="43.27997" lon="2.22914">
        <ele>171</ele>
        <time>2019-06-09T06:04:20.000Z</time>
      </trkpt>
      <trkpt lat="43.28" lon="2.22914">
        <ele>171.1</ele>
        <time>2019-06-09T06:04:21.000Z</time>
      </trkpt>
      <trkpt lat="43.28002" lon="2.22913">
        <ele>171.1</ele>
        <time>2019-06-09T06:04:22.000Z</time>
      </trkpt>
      <trkpt lat="43.28004" lon="2.22913">
        <ele>171.1</ele>
        <time>2019-06-09T06:04:23.000Z</time>
      </trkpt>
      <trkpt lat="43.28007" lon="2.22912">
        <ele>171.1</ele>
        <time>2019-06-09T06:04:24.000Z</time>
      </trkpt>
      <trkpt lat="43.28009" lon="2.22911">
        <ele>171.1</ele>
        <time>2019-06-09T06:04:25.000Z</time>
      </trkpt>
      <trkpt lat="43.28011" lon="2.2291">
        <ele>171.1</ele>
        <time>2019-06-09T06:04:26.000Z</time>
      </trkpt>
      <trkpt lat="43.28013" lon="2.22908">
        <ele>171.1</ele>
        <time>2019-06-09T06:04:27.000Z</time>
      </trkpt>
      <trkpt lat="43.28016" lon="2.22906">
        <ele>171.1</ele>
        <time>2019-06-09T06:04:28.000Z</time>
      </trkpt>
      <trkpt lat="43.28018" lon="2.22905">
        <ele>171.1</ele>
        <time>2019-06-09T06:04:29.000Z</time>
      </trkpt>
      <trkpt lat="43.28019" lon="2.22902">
        <ele>171.1</ele>
        <time>2019-06-09T06:04:30.000Z</time>
      </trkpt>
      <trkpt lat="43.28021" lon="2.229">
        <ele>171.1</ele>
        <time>2019-06-09T06:04:31.000Z</time>
      </trkpt>
      <trkpt lat="43.28023" lon="2.22898">
        <ele>171.1</ele>
        <time>2019-06-09T06:04:32.000Z</time>
      </trkpt>
      <trkpt lat="43.28025" lon="2.22896">
        <ele>171.1</ele>
        <time>2019-06-09T06:04:33.000Z</time>
      </trkpt>
      <trkpt lat="43.28026" lon="2.22893">
        <ele>171.1</ele>
        <time>2019-06-09T06:04:34.000Z</time>
      </trkpt>
      <trkpt lat="43.28028" lon="2.22891">
        <ele>171.1</ele>
        <time>2019-06-09T06:04:35.000Z</time>
      </trkpt>
      <trkpt lat="43.2803" lon="2.22888">
        <ele>171.1</ele>
        <time>2019-06-09T06:04:36.000Z</time>
      </trkpt>
      <trkpt lat="43.28031" lon="2.22886">
        <ele>171</ele>
        <time>2019-06-09T06:04:37.000Z</time>
      </trkpt>
      <trkpt lat="43.28033" lon="2.22883">
        <ele>171</ele>
        <time>2019-06-09T06:04:38.000Z</time>
      </trkpt>
      <trkpt lat="43.28035" lon="2.22881">
        <ele>171</ele>
        <time>2019-06-09T06:04:39.000Z</time>
      </trkpt>
      <trkpt lat="43.28036" lon="2.22879">
        <ele>170.9</ele>
        <time>2019-06-09T06:04:40.000Z</time>
      </trkpt>
      <trkpt lat="43.28038" lon="2.22876">
        <ele>170.9</ele>
        <time>2019-06-09T06:04:41.000Z</time>
      </trkpt>
      <trkpt lat="43.28039" lon="2.22874">
        <ele>170.8</ele>
        <time>2019-06-09T06:04:42.000Z</time>
      </trkpt>
      <trkpt lat="43.28041" lon="2.22871">
        <ele>170.8</ele>
        <time>2019-06-09T06:04:43.000Z</time>
      </trkpt>
      <trkpt lat="43.28042" lon="2.22869">
        <ele>170.7</ele>
        <time>2019-06-09T06:04:44.000Z</time>
      </trkpt>
      <trkpt lat="43.28044" lon="2.22867">
        <ele>170.6</ele>
        <time>2019-06-09T06:04:45.000Z</time>
      </trkpt>
      <trkpt lat="43.28045" lon="2.22864">
        <ele>170.6</ele>
        <time>2019-06-09T06:04:46.000Z</time>
      </trkpt>
      <trkpt lat="43.28047" lon="2.22862">
        <ele>170.5</ele>
        <time>2019-06-09T06:04:47.000Z</time>
      </trkpt>
      <trkpt lat="43.28048" lon="2.22859">
        <ele>170.4</ele>
        <time>2019-06-09T06:04:48.000Z</time>
      </trkpt>
      <trkpt lat="43.2805" lon="2.22857">
        <ele>170.3</ele>
        <time>2019-06-09T06:04:49.000Z</time>
      </trkpt>
      <trkpt lat="43.28051" lon="2.22854">
        <ele>170.2</ele>
        <time>2019-06-09T06:04:50.000Z</time>
      </trkpt>
      <trkpt lat="43.28052" lon="2.22852">
        <ele>170.1</ele>
        <time>2019-06-09T06:04:51.000Z</time>
      </trkpt>
      <trkpt lat="43.28054" lon="2.22849">
        <ele>170</ele>
        <time>2019-06-09T06:04:52.000Z</time>
      </trkpt>
      <trkpt lat="43.28055" lon="2.22846">
        <ele>169.9</ele>
        <time>2019-06-09T06:04:53.000Z</time>
      </trkpt>
      <trkpt lat="43.28056" lon="2.22843">
        <ele>169.8</ele>
        <time>2019-06-09T06:04:54.000Z</time>
      </trkpt>
      <trkpt lat="43.28057" lon="2.22841">
        <ele>169.7</ele>
        <time>2019-06-09T06:04:55.000Z</time>
      </trkpt>
      <trkpt lat="43.28058" lon="2.22838">
        <ele>169.6</ele>
        <time>2019-06-09T06:04:56.000Z</time>
      </trkpt>
      <trkpt lat="43.28059" lon="2.22835">
        <ele>169.5</ele>
        <time>2019-06-09T06:04:57.000Z</time>
      </trkpt>
      <trkpt lat="43.2806" lon="2.22832">
        <ele>169.3</ele>
        <time>2019-06-09T06:04:58.000Z</time>
      </trkpt>
      <trkpt lat="43.2806" lon="2.22829">
        <ele>169.1</ele>
        <time>2019-06-09T06:04:59.000Z</time>
      </trkpt>
      <trkpt lat="43.28061" lon="2.22827">
        <ele>168.8</ele>
        <time>2019-06-09T06:05:00.000Z</time>
      </trkpt>
      <trkpt lat="43.28061" lon="2.22824">
        <ele>168.6</ele>
        <time>2019-06-09T06:05:01.000Z</time>
      </trkpt>
      <trkpt lat="43.28061" lon="2.22821">
        <ele>168.3</ele>
        <time>2019-06-09T06:05:02.000Z</time>
      </trkpt>
      <trkpt lat="43.28062" lon="2.22818">
        <ele>168.1</ele>
        <time>2019-06-09T06:05:03.000Z</time>
      </trkpt>
      <trkpt lat="43.28062" lon="2.22816">
        <ele>167.8</ele>
        <time>2019-06-09T06:05:04.000Z</time>
      </trkpt>
      <trkpt lat="43.28062" lon="2.22813">
        <ele>167.6</ele>
        <time>2019-06-09T06:05:05.000Z</time>
      </trkpt>
      <trkpt lat="43.28062" lon="2.2281">
        <ele>167.4</ele>
        <time>2019-06-09T06:05:06.000Z</time>
      </trkpt>
      <trkpt lat="43.28062" lon="2.22807">
        <ele>167.1</ele>
        <time>2019-06-09T06:05:07.000Z</time>
      </trkpt>
      <trkpt lat="43.28062" lon="2.22804">
        <ele>166.9</ele>
        <time>2019-06-09T06:05:08.000Z</time>
      </trkpt>
      <trkpt lat="43.28062" lon="2.22801">
        <ele>166.6</ele>
        <time>2019-06-09T06:05:09.000Z</time>
      </trkpt>
      <trkpt lat="43.28062" lon="2.22798">
        <ele>166.4</ele>
        <time>2019-06-09T06:05:10.000Z</time>
      </trkpt>
      <trkpt lat="43.28063" lon="2.22795">
        <ele>166.2</ele>
        <time>2019-06-09T06:05:11.000Z</time>
      </trkpt>
      <trkpt lat="43.28062" lon="2.22792">
        <ele>165.9</ele>
        <time>2019-06-09T06:05:12.000Z</time>
      </trkpt>
      <trkpt lat="43.28062" lon="2.22789">
        <ele>165.7</ele>
        <time>2019-06-09T06:05:13.000Z</time>
      </trkpt>
      <trkpt lat="43.28062" lon="2.22786">
        <ele>165.5</ele>
        <time>2019-06-09T06:05:14.000Z</time>
      </trkpt>
      <trkpt lat="43.28061" lon="2.22783">
        <ele>165.2</ele>
        <time>2019-06-09T06:05:15.000Z</time>
      </trkpt>
      <trkpt lat="43.28061" lon="2.2278">
        <ele>165</ele>
        <time>2019-06-09T06:05:16.000Z</time>
      </trkpt>
      <trkpt lat="43.2806" lon="2.22778">
        <ele>164.8</ele>
        <time>2019-06-09T06:05:17.000Z</time>
      </trkpt>
      <trkpt lat="43.28059" lon="2.22775">
        <ele>164.6</ele>
        <time>2019-06-09T06:05:18.000Z</time>
      </trkpt>
      <trkpt lat="43.28058" lon="2.22772">
        <ele>164.4</ele>
        <time>2019-06-09T06:05:19.000Z</time>
      </trkpt>
      <trkpt lat="43.28057" lon="2.22769">
        <ele>164.2</ele>
        <time>2019-06-09T06:05:20.000Z</time>
      </trkpt>
      <trkpt lat="43.28056" lon="2.22766">
        <ele>164</ele>
        <time>2019-06-09T06:05:21.000Z</time>
      </trkpt>
      <trkpt lat="43.28055" lon="2.22763">
        <ele>163.8</ele>
        <time>2019-06-09T06:05:22.000Z</time>
      </trkpt>
      <trkpt lat="43.28054" lon="2.22761">
        <ele>163.6</ele>
        <time>2019-06-09T06:05:23.000Z</time>
      </trkpt>
      <trkpt lat="43.28052" lon="2.22758">
        <ele>163.4</ele>
        <time>2019-06-09T06:05:24.000Z</time>
      </trkpt>
      <trkpt lat="43.28051" lon="2.22756">
        <ele>163.2</ele>
        <time>2019-06-09T06:05:25.000Z</time>
      </trkpt>
      <trkpt lat="43.2805" lon="2.22753">
        <ele>163</ele>
        <time>2019-06-09T06:05:26.000Z</time>
      </trkpt>
      <trkpt lat="43.28049" lon="2.2275">
        <ele>162.8</ele>
        <time>2019-06-09T06:05:27.000Z</time>
      </trkpt>
      <trkpt lat="43.28048" lon="2.22748">
        <ele>162.5</ele>
        <time>2019-06-09T06:05:28.000Z</time>
      </trkpt>
      <trkpt lat="43.28047" lon="2.22745">
        <ele>162.1</ele>
        <time>2019-06-09T06:05:29.000Z</time>
      </trkpt>
      <trkpt lat="43.28046" lon="2.22742">
        <ele>161.6</ele>
        <time>2019-06-09T06:05:30.000Z</time>
      </trkpt>
      <trkpt lat="43.28046" lon="2.22739">
        <ele>161.1</ele>
        <time>2019-06-09T06:05:31.000Z</time>
      </trkpt>
      <trkpt lat="43.28045" lon="2.22735">
        <ele>160.6</ele>
        <time>2019-06-09T06:05:32.000Z</time>
      </trkpt>
      <trkpt lat="43.28044" lon="2.22732">
        <ele>160.1</ele>
        <time>2019-06-09T06:05:33.000Z</time>
      </trkpt>
      <trkpt lat="43.28044" lon="2.22729">
        <ele>159.6</ele>
        <time>2019-06-09T06:05:34.000Z</time>
      </trkpt>
      <trkpt lat="43.28044" lon="2.22725">
        <ele>159</ele>
        <time>2019-06-09T06:05:35.000Z</time>
      </trkpt>
      <trkpt lat="43.28043" lon="2.22722">
        <ele>158.4</ele>
        <time>2019-06-09T06:05:36.000Z</time>
      </trkpt>
      <trkpt lat="43.28043" lon="2.22718">
        <ele>157.9</ele>
        <time>2019-06-09T06:05:37.000Z</time>
      </trkpt>
      <trkpt lat="43.28043" lon="2.22715">
        <ele>157.3</ele>
        <time>2019-06-09T06:05:38.000Z</time>
      </trkpt>
      <trkpt lat="43.28043" lon="2.22711">
        <ele>156.8</ele>
        <time>2019-06-09T06:05:39.000Z</time>
      </trkpt>
      <trkpt lat="43.28043" lon="2.22708">
        <ele>156.2</ele>
        <time>2019-06-09T06:05:40.000Z</time>
      </trkpt>
      <trkpt lat="43.28044" lon="2.22704">
        <ele>155.7</ele>
        <time>2019-06-09T06:05:41.000Z</time>
      </trkpt>
      <trkpt lat="43.28044" lon="2.22701">
        <ele>155.2</ele>
        <time>2019-06-09T06:05:42.000Z</time>
      </trkpt>
      <trkpt lat="43.28044" lon="2.22698">
        <ele>154.7</ele>
        <time>2019-06-09T06:05:43.000Z</time>
      </trkpt>
      <trkpt lat="43.28044" lon="2.22694">
        <ele>154.2</ele>
        <time>2019-06-09T06:05:44.000Z</time>
      </trkpt>
      <trkpt lat="43.28045" lon="2.22691">
        <ele>153.7</ele>
        <time>2019-06-09T06:05:45.000Z</time>
      </trkpt>
      <trkpt lat="43.28045" lon="2.22687">
        <ele>153.2</ele>
        <time>2019-06-09T06:05:46.000Z</time>
      </trkpt>
      <trkpt lat="43.28045" lon="2.22684">
        <ele>152.7</ele>
        <time>2019-06-09T06:05:47.000Z</time>
      </trkpt>
      <trkpt lat="43.28046" lon="2.22681">
        <ele>152.2</ele>
        <time>2019-06-09T06:05:48.000Z</time>
      </trkpt>
      <trkpt lat="43.28046" lon="2.22677">
        <ele>151.7</ele>
        <time>2019-06-09T06:05:49.000Z</time>
      </trkpt>
      <trkpt lat="43.28046" lon="2.22674">
        <ele>151.2</ele>
        <time>2019-06-09T06:05:50.000Z</time>
      </trkpt>
      <trkpt lat="43.28047" lon="2.2267">
        <ele>150.7</ele>
        <time>2019-06-09T06:05:51.000Z</time>
      </trkpt>
      <trkpt lat="43.28047" lon="2.22667">
        <ele>150.2</ele>
        <time>2019-06-09T06:05:52.000Z</time>
      </trkpt>
      <trkpt lat="43.28047" lon="2.22664">
        <ele>149.8</ele>
        <time>2019-06-09T06:05:53.000Z</time>
      </trkpt>
      <trkpt lat="43.28047" lon="2.2266">
        <ele>149.4</ele>
        <time>2019-06-09T06:05:54.000Z</time>
      </trkpt>
      <trkpt lat="43.28047" lon="2.22657">
        <ele>148.9</ele>
        <time>2019-06-09T06:05:55.000Z</time>
      </trkpt>
      <trkpt lat="43.28048" lon="2.22653">
        <ele>148.5</ele>
        <time>2019-06-09T06:05:56.000Z</time>
      </trkpt>
      <trkpt lat="43.28048" lon="2.2265">
        <ele>148.1</ele>
        <time>2019-06-09T06:05:57.000Z</time>
      </trkpt>
      <trkpt lat="43.28048" lon="2.22646">
        <ele>147.7</ele>
        <time>2019-06-09T06:05:58.000Z</time>
      </trkpt>
      <trkpt lat="43.28048" lon="2.22643">
        <ele>147.3</ele>
        <time>2019-06-09T06:05:59.000Z</time>
      </trkpt>
      <trkpt lat="43.28049" lon="2.22639">
        <ele>146.9</ele>
        <time>2019-06-09T06:06:00.000Z</time>
      </trkpt>
      <trkpt lat="43.2805" lon="2.22636">
        <ele>146.6</ele>
        <time>2019-06-09T06:06:01.000Z</time>
      </trkpt>
      <trkpt lat="43.2805" lon="2.22633">
        <ele>146.2</ele>
        <time>2019-06-09T06:06:02.000Z</time>
      </trkpt>
      <trkpt lat="43.28051" lon="2.2263">
        <ele>145.9</ele>
        <time>2019-06-09T06:06:03.000Z</time>
      </trkpt>
      <trkpt lat="43.28052" lon="2.22626">
        <ele>145.6</ele>
        <time>2019-06-09T06:06:04.000Z</time>
      </trkpt>
      <trkpt lat="43.28053" lon="2.22623">
        <ele>145.3</ele>
        <time>2019-06-09T06:06:05.000Z</time>
      </trkpt>
      <trkpt lat="43.28054" lon="2.2262">
        <ele>145.1</ele>
        <time>2019-06-09T06:06:06.000Z</time>
      </trkpt>
      <trkpt lat="43.28055" lon="2.22617">
        <ele>144.8</ele>
        <time>2019-06-09T06:06:07.000Z</time>
      </trkpt>
      <trkpt lat="43.28056" lon="2.22614">
        <ele>144.6</ele>
        <time>2019-06-09T06:06:08.000Z</time>
      </trkpt>
      <trkpt lat="43.28057" lon="2.22611">
        <ele>144.4</ele>
        <time>2019-06-09T06:06:09.000Z</time>
      </trkpt>
      <trkpt lat="43.28059" lon="2.22608">
        <ele>144.2</ele>
        <time>2019-06-09T06:06:10.000Z</time>
      </trkpt>
      <trkpt lat="43.2806" lon="2.22605">
        <ele>144</ele>
        <time>2019-06-09T06:06:11.000Z</time>
      </trkpt>
      <trkpt lat="43.28061" lon="2.22602">
        <ele>143.8</ele>
        <time>2019-06-09T06:06:12.000Z</time>
      </trkpt>
      <trkpt lat="43.28062" lon="2.22599">
        <ele>143.7</ele>
        <time>2019-06-09T06:06:13.000Z</time>
      </trkpt>
      <trkpt lat="43.28064" lon="2.22596">
        <ele>143.5</ele>
        <time>2019-06-09T06:06:14.000Z</time>
      </trkpt>
      <trkpt lat="43.28065" lon="2.22594">
        <ele>143.4</ele>
        <time>2019-06-09T06:06:15.000Z</time>
      </trkpt>
      <trkpt lat="43.28066" lon="2.22591">
        <ele>143.3</ele>
        <time>2019-06-09T06:06:16.000Z</time>
      </trkpt>
      <trkpt lat="43.28068" lon="2.22589">
        <ele>143.3</ele>
        <time>2019-06-09T06:06:17.000Z</time>
      </trkpt>
      <trkpt lat="43.28069" lon="2.22587">
        <ele>143.2</ele>
        <time>2019-06-09T06:06:18.000Z</time>
      </trkpt>
      <trkpt lat="43.2807" lon="2.22585">
        <ele>143.1</ele>
        <time>2019-06-09T06:06:19.000Z</time>
      </trkpt>
      <trkpt lat="43.28072" lon="2.22582">
        <ele>143.1</ele>
        <time>2019-06-09T06:06:20.000Z</time>
      </trkpt>
      <trkpt lat="43.28073" lon="2.2258">
        <ele>143.1</ele>
        <time>2019-06-09T06:06:21.000Z</time>
      </trkpt>
      <trkpt lat="43.28074" lon="2.22578">
        <ele>143.1</ele>
        <time>2019-06-09T06:06:22.000Z</time>
      </trkpt>
      <trkpt lat="43.28075" lon="2.22575">
        <ele>143.1</ele>
        <time>2019-06-09T06:06:23.000Z</time>
      </trkpt>
      <trkpt lat="43.28076" lon="2.22573">
        <ele>143.1</ele>
        <time>2019-06-09T06:06:24.000Z</time>
      </trkpt>
      <trkpt lat="43.28077" lon="2.2257">
        <ele>143</ele>
        <time>2019-06-09T06:06:25.000Z</time>
      </trkpt>
      <trkpt lat="43.28078" lon="2.22567">
        <ele>143</ele>
        <time>2019-06-09T06:06:26.000Z</time>
      </trkpt>
      <trkpt lat="43.28079" lon="2.22565">
        <ele>142.9</ele>
        <time>2019-06-09T06:06:27.000Z</time>
      </trkpt>
      <trkpt lat="43.2808" lon="2.22562">
        <ele>142.7</ele>
        <time>2019-06-09T06:06:28.000Z</time>
      </trkpt>
      <trkpt lat="43.28081" lon="2.22558">
        <ele>142.6</ele>
        <time>2019-06-09T06:06:29.000Z</time>
      </trkpt>
      <trkpt lat="43.28082" lon="2.22555">
        <ele>142.4</ele>
        <time>2019-06-09T06:06:30.000Z</time>
      </trkpt>
      <trkpt lat="43.28082" lon="2.22552">
        <ele>142.2</ele>
        <time>2019-06-09T06:06:31.000Z</time>
      </trkpt>
      <trkpt lat="43.28083" lon="2.22549">
        <ele>142</ele>
        <time>2019-06-09T06:06:32.000Z</time>
      </trkpt>
      <trkpt lat="43.28083" lon="2.22546">
        <ele>141.8</ele>
        <time>2019-06-09T06:06:33.000Z</time>
      </trkpt>
      <trkpt lat="43.28084" lon="2.22543">
        <ele>141.7</ele>
        <time>2019-06-09T06:06:34.000Z</time>
      </trkpt>
      <trkpt lat="43.28084" lon="2.22539">
        <ele>141.5</ele>
        <time>2019-06-09T06:06:35.000Z</time>
      </trkpt>
      <trkpt lat="43.28085" lon="2.22536">
        <ele>141.4</ele>
        <time>2019-06-09T06:06:36.000Z</time>
      </trkpt>
      <trkpt lat="43.28086" lon="2.22533">
        <ele>141.2</ele>
        <time>2019-06-09T06:06:37.000Z</time>
      </trkpt>
      <trkpt lat="43.28086" lon="2.22529">
        <ele>141.1</ele>
        <time>2019-06-09T06:06:38.000Z</time>
      </trkpt>
      <trkpt lat="43.28087" lon="2.22526">
        <ele>141.1</ele>
        <time>2019-06-09T06:06:39.000Z</time>
      </trkpt>
      <trkpt lat="43.28088" lon="2.22523">
        <ele>141</ele>
        <time>2019-06-09T06:06:40.000Z</time>
      </trkpt>
      <trkpt lat="43.28089" lon="2.2252">
        <ele>141</ele>
        <time>2019-06-09T06:06:41.000Z</time>
      </trkpt>
      <trkpt lat="43.2809" lon="2.22517">
        <ele>140.9</ele>
        <time>2019-06-09T06:06:42.000Z</time>
      </trkpt>
      <trkpt lat="43.28091" lon="2.22513">
        <ele>140.8</ele>
        <time>2019-06-09T06:06:43.000Z</time>
      </trkpt>
      <trkpt lat="43.28092" lon="2.2251">
        <ele>140.7</ele>
        <time>2019-06-09T06:06:44.000Z</time>
      </trkpt>
      <trkpt lat="43.28093" lon="2.22506">
        <ele>140.6</ele>
        <time>2019-06-09T06:06:45.000Z</time>
      </trkpt>
      <trkpt lat="43.28094" lon="2.22503">
        <ele>140.4</ele>
        <time>2019-06-09T06:06:46.000Z</time>
      </trkpt>
      <trkpt lat="43.28094" lon="2.22499">
        <ele>140.2</ele>
        <time>2019-06-09T06:06:47.000Z</time>
      </trkpt>
      <trkpt lat="43.28094" lon="2.22496">
        <ele>140</ele>
        <time>2019-06-09T06:06:48.000Z</time>
      </trkpt>
      <trkpt lat="43.28094" lon="2.22492">
        <ele>139.8</ele>
        <time>2019-06-09T06:06:49.000Z</time>
      </trkpt>
      <trkpt lat="43.28094" lon="2.22488">
        <ele>139.6</ele>
        <time>2019-06-09T06:06:50.000Z</time>
      </trkpt>
      <trkpt lat="43.28094" lon="2.22484">
        <ele>139.4</ele>
        <time>2019-06-09T06:06:51.000Z</time>
      </trkpt>
      <trkpt lat="43.28094" lon="2.22481">
        <ele>139.1</ele>
        <time>2019-06-09T06:06:52.000Z</time>
      </trkpt>
      <trkpt lat="43.28093" lon="2.22477">
        <ele>138.9</ele>
        <time>2019-06-09T06:06:53.000Z</time>
      </trkpt>
      <trkpt lat="43.28093" lon="2.22473">
        <ele>138.7</ele>
        <time>2019-06-09T06:06:54.000Z</time>
      </trkpt>
      <trkpt lat="43.28093" lon="2.2247">
        <ele>138.5</ele>
        <time>2019-06-09T06:06:55.000Z</time>
      </trkpt>
      <trkpt lat="43.28092" lon="2.22466">
        <ele>138.3</ele>
        <time>2019-06-09T06:06:56.000Z</time>
      </trkpt>
      <trkpt lat="43.28092" lon="2.22463">
        <ele>138.1</ele>
        <time>2019-06-09T06:06:57.000Z</time>
      </trkpt>
      <trkpt lat="43.28092" lon="2.2246">
        <ele>137.9</ele>
        <time>2019-06-09T06:06:58.000Z</time>
      </trkpt>
      <trkpt lat="43.28092" lon="2.22457">
        <ele>137.7</ele>
        <time>2019-06-09T06:06:59.000Z</time>
      </trkpt>
      <trkpt lat="43.28092" lon="2.22453">
        <ele>137.5</ele>
        <time>2019-06-09T06:07:00.000Z</time>
      </trkpt>
      <trkpt lat="43.28091" lon="2.2245">
        <ele>137.3</ele>
        <time>2019-06-09T06:07:01.000Z</time>
      </trkpt>
      <trkpt lat="43.28091" lon="2.22446">
        <ele>137.1</ele>
        <time>2019-06-09T06:07:02.000Z</time>
      </trkpt>
      <trkpt lat="43.2809" lon="2.22443">
        <ele>136.9</ele>
        <time>2019-06-09T06:07:03.000Z</time>
      </trkpt>
      <trkpt lat="43.2809" lon="2.22439">
        <ele>136.7</ele>
        <time>2019-06-09T06:07:04.000Z</time>
      </trkpt>
      <trkpt lat="43.28089" lon="2.22436">
        <ele>136.5</ele>
        <time>2019-06-09T06:07:05.000Z</time>
      </trkpt>
      <trkpt lat="43.28089" lon="2.22432">
        <ele>136.2</ele>
        <time>2019-06-09T06:07:06.000Z</time>
      </trkpt>
      <trkpt lat="43.28088" lon="2.22428">
        <ele>136</ele>
        <time>2019-06-09T06:07:07.000Z</time>
      </trkpt>
      <trkpt lat="43.28088" lon="2.22424">
        <ele>135.8</ele>
        <time>2019-06-09T06:07:08.000Z</time>
      </trkpt>
      <trkpt lat="43.28087" lon="2.22421">
        <ele>135.6</ele>
        <time>2019-06-09T06:07:09.000Z</time>
      </trkpt>
      <trkpt lat="43.28087" lon="2.22417">
        <ele>135.4</ele>
        <time>2019-06-09T06:07:10.000Z</time>
      </trkpt>
      <trkpt lat="43.28086" lon="2.22413">
        <ele>135.3</ele>
        <time>2019-06-09T06:07:11.000Z</time>
      </trkpt>
      <trkpt lat="43.28086" lon="2.2241">
        <ele>135.3</ele>
        <time>2019-06-09T06:07:12.000Z</time>
      </trkpt>
      <trkpt lat="43.28085" lon="2.22407">
        <ele>135.3</ele>
        <time>2019-06-09T06:07:13.000Z</time>
      </trkpt>
      <trkpt lat="43.28084" lon="2.22403">
        <ele>135.3</ele>
        <time>2019-06-09T06:07:14.000Z</time>
      </trkpt>
      <trkpt lat="43.28084" lon="2.224">
        <ele>135.2</ele>
        <time>2019-06-09T06:07:15.000Z</time>
      </trkpt>
      <trkpt lat="43.28083" lon="2.22397">
        <ele>135.2</ele>
        <time>2019-06-09T06:07:16.000Z</time>
      </trkpt>
      <trkpt lat="43.28082" lon="2.22394">
        <ele>135.3</ele>
        <time>2019-06-09T06:07:17.000Z</time>
      </trkpt>
      <trkpt lat="43.28082" lon="2.22391">
        <ele>135.4</ele>
        <time>2019-06-09T06:07:18.000Z</time>
      </trkpt>
      <trkpt lat="43.28081" lon="2.22388">
        <ele>135.5</ele>
        <time>2019-06-09T06:07:19.000Z</time>
      </trkpt>
      <trkpt lat="43.2808" lon="2.22385">
        <ele>135.6</ele>
        <time>2019-06-09T06:07:20.000Z</time>
      </trkpt>
      <trkpt lat="43.28079" lon="2.22382">
        <ele>135.6</ele>
        <time>2019-06-09T06:07:21.000Z</time>
      </trkpt>
      <trkpt lat="43.28078" lon="2.22379">
        <ele>135.7</ele>
        <time>2019-06-09T06:07:22.000Z</time>
      </trkpt>
      <trkpt lat="43.28076" lon="2.22376">
        <ele>135.9</ele>
        <time>2019-06-09T06:07:23.000Z</time>
      </trkpt>
      <trkpt lat="43.28075" lon="2.22374">
        <ele>136</ele>
        <time>2019-06-09T06:07:24.000Z</time>
      </trkpt>
      <trkpt lat="43.28074" lon="2.22371">
        <ele>136.1</ele>
        <time>2019-06-09T06:07:25.000Z</time>
      </trkpt>
      <trkpt lat="43.28073" lon="2.22368">
        <ele>136.2</ele>
        <time>2019-06-09T06:07:26.000Z</time>
      </trkpt>
      <trkpt lat="43.28072" lon="2.22365">
        <ele>136.3</ele>
        <time>2019-06-09T06:07:27.000Z</time>
      </trkpt>
      <trkpt lat="43.28071" lon="2.22361">
        <ele>136.5</ele>
        <time>2019-06-09T06:07:28.000Z</time>
      </trkpt>
      <trkpt lat="43.2807" lon="2.22358">
        <ele>136.6</ele>
        <time>2019-06-09T06:07:29.000Z</time>
      </trkpt>
      <trkpt lat="43.28068" lon="2.22355">
        <ele>136.8</ele>
        <time>2019-06-09T06:07:30.000Z</time>
      </trkpt>
      <trkpt lat="43.28067" lon="2.22352">
        <ele>136.9</ele>
        <time>2019-06-09T06:07:31.000Z</time>
      </trkpt>
      <trkpt lat="43.28066" lon="2.22349">
        <ele>137.1</ele>
        <time>2019-06-09T06:07:32.000Z</time>
      </trkpt>
      <trkpt lat="43.28065" lon="2.22345">
        <ele>137.2</ele>
        <time>2019-06-09T06:07:33.000Z</time>
      </trkpt>
      <trkpt lat="43.28064" lon="2.22342">
        <ele>137.4</ele>
        <time>2019-06-09T06:07:34.000Z</time>
      </trkpt>
      <trkpt lat="43.28063" lon="2.22339">
        <ele>137.6</ele>
        <time>2019-06-09T06:07:35.000Z</time>
      </trkpt>
      <trkpt lat="43.28062" lon="2.22336">
        <ele>137.7</ele>
        <time>2019-06-09T06:07:36.000Z</time>
      </trkpt>
      <trkpt lat="43.28061" lon="2.22333">
        <ele>137.9</ele>
        <time>2019-06-09T06:07:37.000Z</time>
      </trkpt>
      <trkpt lat="43.2806" lon="2.2233">
        <ele>138</ele>
        <time>2019-06-09T06:07:38.000Z</time>
      </trkpt>
      <trkpt lat="43.28059" lon="2.22328">
        <ele>138.1</ele>
        <time>2019-06-09T06:07:39.000Z</time>
      </trkpt>
      <trkpt lat="43.28058" lon="2.22325">
        <ele>138.1</ele>
        <time>2019-06-09T06:07:40.000Z</time>
      </trkpt>
      <trkpt lat="43.28057" lon="2.22323">
        <ele>138.2</ele>
        <time>2019-06-09T06:07:41.000Z</time>
      </trkpt>
      <trkpt lat="43.28057" lon="2.22321">
        <ele>138.3</ele>
        <time>2019-06-09T06:07:42.000Z</time>
      </trkpt>
      <trkpt lat="43.28056" lon="2.22319">
        <ele>138.3</ele>
        <time>2019-06-09T06:07:43.000Z</time>
      </trkpt>
      <trkpt lat="43.28055" lon="2.22318">
        <ele>138.4</ele>
        <time>2019-06-09T06:07:44.000Z</time>
      </trkpt>
      <trkpt lat="43.28055" lon="2.22316">
        <ele>138.5</ele>
        <time>2019-06-09T06:07:45.000Z</time>
      </trkpt>
      <trkpt lat="43.28055" lon="2.22315">
        <ele>138.5</ele>
        <time>2019-06-09T06:07:46.000Z</time>
      </trkpt>
      <trkpt lat="43.28054" lon="2.22313">
        <ele>138.6</ele>
        <time>2019-06-09T06:07:47.000Z</time>
      </trkpt>
      <trkpt lat="43.28054" lon="2.22312">
        <ele>138.6</ele>
        <time>2019-06-09T06:07:48.000Z</time>
      </trkpt>
      <trkpt lat="43.28053" lon="2.22311">
        <ele>138.6</ele>
        <time>2019-06-09T06:07:49.000Z</time>
      </trkpt>
      <trkpt lat="43.28053" lon="2.2231">
        <ele>138.7</ele>
        <time>2019-06-09T06:07:50.000Z</time>
      </trkpt>
      <trkpt lat="43.28053" lon="2.22308">
        <ele>138.7</ele>
        <time>2019-06-09T06:07:51.000Z</time>
      </trkpt>
      <trkpt lat="43.28052" lon="2.22307">
        <ele>138.8</ele>
        <time>2019-06-09T06:07:52.000Z</time>
      </trkpt>
      <trkpt lat="43.28052" lon="2.22306">
        <ele>138.8</ele>
        <time>2019-06-09T06:07:53.000Z</time>
      </trkpt>
      <trkpt lat="43.28052" lon="2.22305">
        <ele>138.8</ele>
        <time>2019-06-09T06:07:54.000Z</time>
      </trkpt>
      <trkpt lat="43.28052" lon="2.22304">
        <ele>138.9</ele>
        <time>2019-06-09T06:07:55.000Z</time>
      </trkpt>
      <trkpt lat="43.28052" lon="2.22302">
        <ele>138.9</ele>
        <time>2019-06-09T06:07:56.000Z</time>
      </trkpt>
      <trkpt lat="43.28051" lon="2.22301">
        <ele>138.9</ele>
        <time>2019-06-09T06:07:57.000Z</time>
      </trkpt>
      <trkpt lat="43.28051" lon="2.223">
        <ele>138.9</ele>
        <time>2019-06-09T06:07:58.000Z</time>
      </trkpt>
      <trkpt lat="43.28051" lon="2.22298">
        <ele>138.9</ele>
        <time>2019-06-09T06:07:59.000Z</time>
      </trkpt>
      <trkpt lat="43.28051" lon="2.22297">
        <ele>139</ele>
        <time>2019-06-09T06:08:00.000Z</time>
      </trkpt>
      <trkpt lat="43.28051" lon="2.22295">
        <ele>139</ele>
        <time>2019-06-09T06:08:01.000Z</time>
      </trkpt>
      <trkpt lat="43.28051" lon="2.22294">
        <ele>139</ele>
        <time>2019-06-09T06:08:02.000Z</time>
      </trkpt>
      <trkpt lat="43.28051" lon="2.22292">
        <ele>139</ele>
        <time>2019-06-09T06:08:03.000Z</time>
      </trkpt>
      <trkpt lat="43.28051" lon="2.22291">
        <ele>139.1</ele>
        <time>2019-06-09T06:08:04.000Z</time>
      </trkpt>
      <trkpt lat="43.2805" lon="2.22289">
        <ele>139.1</ele>
        <time>2019-06-09T06:08:05.000Z</time>
      </trkpt>
      <trkpt lat="43.2805" lon="2.22288">
        <ele>139.1</ele>
        <time>2019-06-09T06:08:06.000Z</time>
      </trkpt>
      <trkpt lat="43.2805" lon="2.22286">
        <ele>139.2</ele>
        <time>2019-06-09T06:08:07.000Z</time>
      </trkpt>
      <trkpt lat="43.28049" lon="2.22284">
        <ele>139.2</ele>
        <time>2019-06-09T06:08:08.000Z</time>
      </trkpt>
      <trkpt lat="43.28049" lon="2.22283">
        <ele>139.3</ele>
        <time>2019-06-09T06:08:09.000Z</time>
      </trkpt>
      <trkpt lat="43.28048" lon="2.22281">
        <ele>139.4</ele>
        <time>2019-06-09T06:08:10.000Z</time>
      </trkpt>
      <trkpt lat="43.28048" lon="2.22279">
        <ele>139.4</ele>
        <time>2019-06-09T06:08:11.000Z</time>
      </trkpt>
      <trkpt lat="43.28047" lon="2.22278">
        <ele>139.5</ele>
        <time>2019-06-09T06:08:12.000Z</time>
      </trkpt>
      <trkpt lat="43.28046" lon="2.22276">
        <ele>139.6</ele>
        <time>2019-06-09T06:08:13.000Z</time>
      </trkpt>
      <trkpt lat="43.28046" lon="2.22274">
        <ele>139.7</ele>
        <time>2019-06-09T06:08:14.000Z</time>
      </trkpt>
      <trkpt lat="43.28045" lon="2.22273">
        <ele>139.9</ele>
        <time>2019-06-09T06:08:15.000Z</time>
      </trkpt>
      <trkpt lat="43.28044" lon="2.22271">
        <ele>140</ele>
        <time>2019-06-09T06:08:16.000Z</time>
      </trkpt>
      <trkpt lat="43.28043" lon="2.2227">
        <ele>140.1</ele>
        <time>2019-06-09T06:08:17.000Z</time>
      </trkpt>
      <trkpt lat="43.28042" lon="2.22268">
        <ele>140.2</ele>
        <time>2019-06-09T06:08:18.000Z</time>
      </trkpt>
      <trkpt lat="43.28041" lon="2.22267">
        <ele>140.4</ele>
        <time>2019-06-09T06:08:19.000Z</time>
      </trkpt>
      <trkpt lat="43.2804" lon="2.22266">
        <ele>140.5</ele>
        <time>2019-06-09T06:08:20.000Z</time>
      </trkpt>
      <trkpt lat="43.28039" lon="2.22265">
        <ele>140.7</ele>
        <time>2019-06-09T06:08:21.000Z</time>
      </trkpt>
      <trkpt lat="43.28038" lon="2.22264">
        <ele>140.8</ele>
        <time>2019-06-09T06:08:22.000Z</time>
      </trkpt>
      <trkpt lat="43.28036" lon="2.22262">
        <ele>141</ele>
        <time>2019-06-09T06:08:23.000Z</time>
      </trkpt>
      <trkpt lat="43.28035" lon="2.22261">
        <ele>141.3</ele>
        <time>2019-06-09T06:08:24.000Z</time>
      </trkpt>
      <trkpt lat="43.28033" lon="2.22259">
        <ele>141.5</ele>
        <time>2019-06-09T06:08:25.000Z</time>
      </trkpt>
      <trkpt lat="43.28032" lon="2.22257">
        <ele>141.7</ele>
        <time>2019-06-09T06:08:26.000Z</time>
      </trkpt>
      <trkpt lat="43.2803" lon="2.22256">
        <ele>141.9</ele>
        <time>2019-06-09T06:08:27.000Z</time>
      </trkpt>
      <trkpt lat="43.28028" lon="2.22254">
        <ele>142.2</ele>
        <time>2019-06-09T06:08:28.000Z</time>
      </trkpt>
      <trkpt lat="43.28027" lon="2.22253">
        <ele>142.4</ele>
        <time>2019-06-09T06:08:29.000Z</time>
      </trkpt>
      <trkpt lat="43.28025" lon="2.22251">
        <ele>142.7</ele>
        <time>2019-06-09T06:08:30.000Z</time>
      </trkpt>
      <trkpt lat="43.28023" lon="2.2225">
        <ele>142.9</ele>
        <time>2019-06-09T06:08:31.000Z</time>
      </trkpt>
      <trkpt lat="43.28022" lon="2.22249">
        <ele>143.2</ele>
        <time>2019-06-09T06:08:32.000Z</time>
      </trkpt>
      <trkpt lat="43.2802" lon="2.22248">
        <ele>143.5</ele>
        <time>2019-06-09T06:08:33.000Z</time>
      </trkpt>
      <trkpt lat="43.28019" lon="2.22247">
        <ele>143.8</ele>
        <time>2019-06-09T06:08:34.000Z</time>
      </trkpt>
      <trkpt lat="43.28017" lon="2.22245">
        <ele>144.2</ele>
        <time>2019-06-09T06:08:35.000Z</time>
      </trkpt>
      <trkpt lat="43.28016" lon="2.22243">
        <ele>144.5</ele>
        <time>2019-06-09T06:08:36.000Z</time>
      </trkpt>
      <trkpt lat="43.28014" lon="2.22242">
        <ele>144.9</ele>
        <time>2019-06-09T06:08:37.000Z</time>
      </trkpt>
      <trkpt lat="43.28013" lon="2.2224">
        <ele>145.3</ele>
        <time>2019-06-09T06:08:38.000Z</time>
      </trkpt>
      <trkpt lat="43.28011" lon="2.22239">
        <ele>145.7</ele>
        <time>2019-06-09T06:08:39.000Z</time>
      </trkpt>
      <trkpt lat="43.28009" lon="2.22238">
        <ele>146.1</ele>
        <time>2019-06-09T06:08:40.000Z</time>
      </trkpt>
      <trkpt lat="43.28008" lon="2.22237">
        <ele>146.4</ele>
        <time>2019-06-09T06:08:41.000Z</time>
      </trkpt>
      <trkpt lat="43.28006" lon="2.22236">
        <ele>146.7</ele>
        <time>2019-06-09T06:08:42.000Z</time>
      </trkpt>
      <trkpt lat="43.28005" lon="2.22235">
        <ele>147</ele>
        <time>2019-06-09T06:08:43.000Z</time>
      </trkpt>
      <trkpt lat="43.28003" lon="2.22235">
        <ele>147.3</ele>
        <time>2019-06-09T06:08:44.000Z</time>
      </trkpt>
      <trkpt lat="43.28002" lon="2.22234">
        <ele>147.5</ele>
        <time>2019-06-09T06:08:45.000Z</time>
      </trkpt>
      <trkpt lat="43.28001" lon="2.22234">
        <ele>147.7</ele>
        <time>2019-06-09T06:08:46.000Z</time>
      </trkpt>
      <trkpt lat="43.28" lon="2.22234">
        <ele>147.8</ele>
        <time>2019-06-09T06:08:47.000Z</time>
      </trkpt>
      <trkpt lat="43.28" lon="2.22234">
        <ele>148</ele>
        <time>2019-06-09T06:08:48.000Z</time>
      </trkpt>
      <trkpt lat="43.27999" lon="2.22234">
        <ele>148.2</ele>
        <time>2019-06-09T06:08:49.000Z</time>
      </trkpt>
      <trkpt lat="43.27998" lon="2.22235">
        <ele>148.3</ele>
        <time>2019-06-09T06:08:50.000Z</time>
      </trkpt>
      <trkpt lat="43.27998" lon="2.22235">
        <ele>148.4</ele>
        <time>2019-06-09T06:08:51.000Z</time>
      </trkpt>
      <trkpt lat="43.27998" lon="2.22236">
        <ele>148.4</ele>
        <time>2019-06-09T06:08:52.000Z</time>
      </trkpt>
      <trkpt lat="43.27997" lon="2.22236">
        <ele>148.4</ele>
        <time>2019-06-09T06:08:53.000Z</time>
      </trkpt>
      <trkpt lat="43.27997" lon="2.22237">
        <ele>148.4</ele>
        <time>2019-06-09T06:08:54.000Z</time>
      </trkpt>
      <trkpt lat="43.27997" lon="2.22238">
        <ele>148.4</ele>
        <time>2019-06-09T06:08:55.000Z</time>
      </trkpt>
      <trkpt lat="43.27997" lon="2.22239">
        <ele>148.3</ele>
        <time>2019-06-09T06:08:56.000Z</time>
      </trkpt>
      <trkpt lat="43.27996" lon="2.2224">
        <ele>148.2</ele>
        <time>2019-06-09T06:08:57.000Z</time>
      </trkpt>
      <trkpt lat="43.27996" lon="2.22241">
        <ele>148.1</ele>
        <time>2019-06-09T06:08:58.000Z</time>
      </trkpt>
      <trkpt lat="43.27996" lon="2.22243">
        <ele>148</ele>
        <time>2019-06-09T06:08:59.000Z</time>
      </trkpt>
      <trkpt lat="43.27996" lon="2.22244">
        <ele>147.9</ele>
        <time>2019-06-09T06:09:00.000Z</time>
      </trkpt>
      <trkpt lat="43.27996" lon="2.22245">
        <ele>147.7</ele>
        <time>2019-06-09T06:09:01.000Z</time>
      </trkpt>
      <trkpt lat="43.27996" lon="2.22247">
        <ele>147.6</ele>
        <time>2019-06-09T06:09:02.000Z</time>
      </trkpt>
      <trkpt lat="43.27996" lon="2.22248">
        <ele>147.5</ele>
        <time>2019-06-09T06:09:03.000Z</time>
      </trkpt>
      <trkpt lat="43.27996" lon="2.22249">
        <ele>147.3</ele>
        <time>2019-06-09T06:09:04.000Z</time>
      </trkpt>
      <trkpt lat="43.27996" lon="2.2225">
        <ele>147.2</ele>
        <time>2019-06-09T06:09:05.000Z</time>
      </trkpt>
      <trkpt lat="43.27996" lon="2.22251">
        <ele>147.2</ele>
        <time>2019-06-09T06:09:06.000Z</time>
      </trkpt>
      <trkpt lat="43.27996" lon="2.22253">
        <ele>147.2</ele>
        <time>2019-06-09T06:09:07.000Z</time>
      </trkpt>
      <trkpt lat="43.27996" lon="2.22254">
        <ele>147.1</ele>
        <time>2019-06-09T06:09:08.000Z</time>
      </trkpt>
      <trkpt lat="43.27996" lon="2.22255">
        <ele>147.1</ele>
        <time>2019-06-09T06:09:09.000Z</time>
      </trkpt>
      <trkpt lat="43.27996" lon="2.22256">
        <ele>147.1</ele>
        <time>2019-06-09T06:09:10.000Z</time>
      </trkpt>
      <trkpt lat="43.27996" lon="2.22257">
        <ele>147.1</ele>
        <time>2019-06-09T06:09:11.000Z</time>
      </trkpt>
      <trkpt lat="43.27995" lon="2.22258">
        <ele>147.1</ele>
        <time>2019-06-09T06:09:12.000Z</time>
      </trkpt>
      <trkpt lat="43.27995" lon="2.2226">
        <ele>147.1</ele>
        <time>2019-06-09T06:09:13.000Z</time>
      </trkpt>
      <trkpt lat="43.27995" lon="2.22261">
        <ele>147.2</ele>
        <time>2019-06-09T06:09:14.000Z</time>
      </trkpt>
      <trkpt lat="43.27995" lon="2.22262">
        <ele>147.2</ele>
        <time>2019-06-09T06:09:15.000Z</time>
      </trkpt>
      <trkpt lat="43.27994" lon="2.22264">
        <ele>147.2</ele>
        <time>2019-06-09T06:09:16.000Z</time>
      </trkpt>
      <trkpt lat="43.27994" lon="2.22265">
        <ele>147.3</ele>
        <time>2019-06-09T06:09:17.000Z</time>
      </trkpt>
      <trkpt lat="43.27994" lon="2.22266">
        <ele>147.3</ele>
        <time>2019-06-09T06:09:18.000Z</time>
      </trkpt>
      <trkpt lat="43.27993" lon="2.22267">
        <ele>147.4</ele>
        <time>2019-06-09T06:09:19.000Z</time>
      </trkpt>
      <trkpt lat="43.27993" lon="2.22268">
        <ele>147.4</ele>
        <time>2019-06-09T06:09:20.000Z</time>
      </trkpt>
      <trkpt lat="43.27993" lon="2.22269">
        <ele>147.4</ele>
        <time>2019-06-09T06:09:21.000Z</time>
      </trkpt>
      <trkpt lat="43.27993" lon="2.2227">
        <ele>147.5</ele>
        <time>2019-06-09T06:09:22.000Z</time>
      </trkpt>
      <trkpt lat="43.27993" lon="2.22271">
        <ele>147.5</ele>
        <time>2019-06-09T06:09:23.000Z</time>
      </trkpt>
      <trkpt lat="43.27992" lon="2.22271">
        <ele>147.5</ele>
        <time>2019-06-09T06:09:24.000Z</time>
      </trkpt>
      <trkpt lat="43.27992" lon="2.22272">
        <ele>147.5</ele>
        <time>2019-06-09T06:09:25.000Z</time>
      </trkpt>
      <trkpt lat="43.27992" lon="2.22272">
        <ele>147.5</ele>
        <time>2019-06-09T06:09:26.000Z</time>
      </trkpt>
      <trkpt lat="43.27992" lon="2.22272">
        <ele>147.5</ele>
        <time>2019-06-09T06:09:27.000Z</time>
      </trkpt>
      <trkpt lat="43.27992" lon="2.22272">
        <ele>147.5</ele>
        <time>2019-06-09T06:09:28.000Z</time>
      </trkpt>
      <trkpt lat="43.27992" lon="2.22272">
        <ele>147.5</ele>
        <time>2019-06-09T06:09:29.000Z</time>
      </trkpt>
      <trkpt lat="43.27992" lon="2.22272">
        <ele>147.5</ele>
        <time>2019-06-09T06:09:30.000Z</time>
      </trkpt>
      <trkpt lat="43.27992" lon="2.22272">
        <ele>147.5</ele>
        <time>2019-06-09T06:09:31.000Z</time>
      </trkpt>
      <trkpt lat="43.27992" lon="2.22272">
        <ele>147.5</ele>
        <time>2019-06-09T06:09:32.000Z</time>
      </trkpt>
      <trkpt lat="43.27992" lon="2.22272">
        <ele>147.6</ele>
        <time>2019-06-09T06:09:33.000Z</time>
      </trkpt>
      <trkpt lat="43.27992" lon="2.22271">
        <ele>147.7</ele>
        <time>2019-06-09T06:09:34.000Z</time>
      </trkpt>
      <trkpt lat="43.27991" lon="2.2227">
        <ele>147.9</ele>
        <time>2019-06-09T06:09:35.000Z</time>
      </trkpt>
      <trkpt lat="43.27991" lon="2.22269">
        <ele>148</ele>
        <time>2019-06-09T06:09:36.000Z</time>
      </trkpt>
      <trkpt lat="43.27991" lon="2.22269">
        <ele>148.1</ele>
        <time>2019-06-09T06:09:37.000Z</time>
      </trkpt>
      <trkpt lat="43.27991" lon="2.22268">
        <ele>148.2</ele>
        <time>2019-06-09T06:09:38.000Z</time>
      </trkpt>
      <trkpt lat="43.27991" lon="2.22267">
        <ele>148.2</ele>
        <time>2019-06-09T06:09:39.000Z</time>
      </trkpt>
      <trkpt lat="43.27991" lon="2.22266">
        <ele>148.2</ele>
        <time>2019-06-09T06:09:40.000Z</time>
      </trkpt>
      <trkpt lat="43.27991" lon="2.22266">
        <ele>148.2</ele>
        <time>2019-06-09T06:09:41.000Z</time>
      </trkpt>
      <trkpt lat="43.27991" lon="2.22265">
        <ele>148.1</ele>
        <time>2019-06-09T06:09:42.000Z</time>
      </trkpt>
      <trkpt lat="43.27991" lon="2.22264">
        <ele>148.1</ele>
        <time>2019-06-09T06:09:43.000Z</time>
      </trkpt>
      <trkpt lat="43.27991" lon="2.22263">
        <ele>148.2</ele>
        <time>2019-06-09T06:09:44.000Z</time>
      </trkpt>
      <trkpt lat="43.27991" lon="2.22261">
        <ele>148.2</ele>
        <time>2019-06-09T06:09:45.000Z</time>
      </trkpt>
      <trkpt lat="43.27992" lon="2.2226">
        <ele>148.2</ele>
        <time>2019-06-09T06:09:46.000Z</time>
      </trkpt>
      <trkpt lat="43.27992" lon="2.22258">
        <ele>148.2</ele>
        <time>2019-06-09T06:09:47.000Z</time>
      </trkpt>
      <trkpt lat="43.27992" lon="2.22256">
        <ele>148.3</ele>
        <time>2019-06-09T06:09:48.000Z</time>
      </trkpt>
      <trkpt lat="43.27992" lon="2.22254">
        <ele>148.3</ele>
        <time>2019-06-09T06:09:49.000Z</time>
      </trkpt>
      <trkpt lat="43.27992" lon="2.22253">
        <ele>148.3</ele>
        <time>2019-06-09T06:09:50.000Z</time>
      </trkpt>
      <trkpt lat="43.27992" lon="2.22251">
        <ele>148.3</ele>
        <time>2019-06-09T06:09:51.000Z</time>
      </trkpt>
      <trkpt lat="43.27992" lon="2.22249">
        <ele>148.5</ele>
        <time>2019-06-09T06:09:52.000Z</time>
      </trkpt>
      <trkpt lat="43.27992" lon="2.22247">
        <ele>148.7</ele>
        <time>2019-06-09T06:09:53.000Z</time>
      </trkpt>
      <trkpt lat="43.27993" lon="2.22245">
        <ele>148.8</ele>
        <time>2019-06-09T06:09:54.000Z</time>
      </trkpt>
      <trkpt lat="43.27993" lon="2.22243">
        <ele>149</ele>
        <time>2019-06-09T06:09:55.000Z</time>
      </trkpt>
      <trkpt lat="43.27993" lon="2.22241">
        <ele>149.1</ele>
        <time>2019-06-09T06:09:56.000Z</time>
      </trkpt>
      <trkpt lat="43.27993" lon="2.22239">
        <ele>149.3</ele>
        <time>2019-06-09T06:09:57.000Z</time>
      </trkpt>
      <trkpt lat="43.27994" lon="2.22237">
        <ele>149.4</ele>
        <time>2019-06-09T06:09:58.000Z</time>
      </trkpt>
      <trkpt lat="43.27994" lon="2.22236">
        <ele>149.5</ele>
        <time>2019-06-09T06:09:59.000Z</time>
      </trkpt>
      <trkpt lat="43.27994" lon="2.22234">
        <ele>149.6</ele>
        <time>2019-06-09T06:10:00.000Z</time>
      </trkpt>
      <trkpt lat="43.27995" lon="2.22232">
        <ele>149.7</ele>
        <time>2019-06-09T06:10:01.000Z</time>
      </trkpt>
      <trkpt lat="43.27995" lon="2.2223">
        <ele>149.8</ele>
        <time>2019-06-09T06:10:02.000Z</time>
      </trkpt>
      <trkpt lat="43.27995" lon="2.22228">
        <ele>149.9</ele>
        <time>2019-06-09T06:10:03.000Z</time>
      </trkpt>
      <trkpt lat="43.27995" lon="2.22226">
        <ele>150.1</ele>
        <time>2019-06-09T06:10:04.000Z</time>
      </trkpt>
      <trkpt lat="43.27996" lon="2.22224">
        <ele>150.3</ele>
        <time>2019-06-09T06:10:05.000Z</time>
      </trkpt>
      <trkpt lat="43.27996" lon="2.22222">
        <ele>150.5</ele>
        <time>2019-06-09T06:10:06.000Z</time>
      </trkpt>
      <trkpt lat="43.27996" lon="2.2222">
        <ele>150.7</ele>
        <time>2019-06-09T06:10:07.000Z</time>
      </trkpt>
      <trkpt lat="43.27996" lon="2.22217">
        <ele>150.9</ele>
        <time>2019-06-09T06:10:08.000Z</time>
      </trkpt>
      <trkpt lat="43.27996" lon="2.22215">
        <ele>151.2</ele>
        <time>2019-06-09T06:10:09.000Z</time>
      </trkpt>
      <trkpt lat="43.27997" lon="2.22212">
        <ele>151.4</ele>
        <time>2019-06-09T06:10:10.000Z</time>
      </trkpt>
      <trkpt lat="43.27997" lon="2.22209">
        <ele>151.6</ele>
        <time>2019-06-09T06:10:11.000Z</time>
      </trkpt>
      <trkpt lat="43.27998" lon="2.22207">
        <ele>151.8</ele>
        <time>2019-06-09T06:10:12.000Z</time>
      </trkpt>
      <trkpt lat="43.27998" lon="2.22205">
        <ele>151.9</ele>
        <time>2019-06-09T06:10:13.000Z</time>
      </trkpt>
      <trkpt lat="43.27999" lon="2.22202">
        <ele>152.1</ele>
        <time>2019-06-09T06:10:14.000Z</time>
      </trkpt>
      <trkpt lat="43.28" lon="2.222">
        <ele>152.1</ele>
        <time>2019-06-09T06:10:15.000Z</time>
      </trkpt>
      <trkpt lat="43.28" lon="2.22198">
        <ele>152.2</ele>
        <time>2019-06-09T06:10:16.000Z</time>
      </trkpt>
      <trkpt lat="43.28001" lon="2.22195">
        <ele>152.2</ele>
        <time>2019-06-09T06:10:17.000Z</time>
      </trkpt>
      <trkpt lat="43.28002" lon="2.22193">
        <ele>152.2</ele>
        <time>2019-06-09T06:10:18.000Z</time>
      </trkpt>
      <trkpt lat="43.28003" lon="2.22191">
        <ele>152.2</ele>
        <time>2019-06-09T06:10:19.000Z</time>
      </trkpt>
      <trkpt lat="43.28005" lon="2.22189">
        <ele>152.2</ele>
        <time>2019-06-09T06:10:20.000Z</time>
      </trkpt>
      <trkpt lat="43.28006" lon="2.22187">
        <ele>152.1</ele>
        <time>2019-06-09T06:10:21.000Z</time>
      </trkpt>
      <trkpt lat="43.28007" lon="2.22185">
        <ele>152</ele>
        <time>2019-06-09T06:10:22.000Z</time>
      </trkpt>
      <trkpt lat="43.28008" lon="2.22184">
        <ele>151.9</ele>
        <time>2019-06-09T06:10:23.000Z</time>
      </trkpt>
      <trkpt lat="43.28009" lon="2.22182">
        <ele>151.8</ele>
        <time>2019-06-09T06:10:24.000Z</time>
      </trkpt>
      <trkpt lat="43.2801" lon="2.2218">
        <ele>151.7</ele>
        <time>2019-06-09T06:10:25.000Z</time>
      </trkpt>
      <trkpt lat="43.28011" lon="2.22179">
        <ele>151.6</ele>
        <time>2019-06-09T06:10:26.000Z</time>
      </trkpt>
      <trkpt lat="43.28012" lon="2.22177">
        <ele>151.5</ele>
        <time>2019-06-09T06:10:27.000Z</time>
      </trkpt>
      <trkpt lat="43.28013" lon="2.22175">
        <ele>151.4</ele>
        <time>2019-06-09T06:10:28.000Z</time>
      </trkpt>
      <trkpt lat="43.28013" lon="2.22174">
        <ele>151.4</ele>
        <time>2019-06-09T06:10:29.000Z</time>
      </trkpt>
      <trkpt lat="43.28014" lon="2.22172">
        <ele>151.3</ele>
        <time>2019-06-09T06:10:30.000Z</time>
      </trkpt>
      <trkpt lat="43.28015" lon="2.22171">
        <ele>151.3</ele>
        <time>2019-06-09T06:10:31.000Z</time>
      </trkpt>
      <trkpt lat="43.28015" lon="2.22169">
        <ele>151.2</ele>
        <time>2019-06-09T06:10:32.000Z</time>
      </trkpt>
      <trkpt lat="43.28016" lon="2.22168">
        <ele>151.1</ele>
        <time>2019-06-09T06:10:33.000Z</time>
      </trkpt>
      <trkpt lat="43.28017" lon="2.22166">
        <ele>151.1</ele>
        <time>2019-06-09T06:10:34.000Z</time>
      </trkpt>
      <trkpt lat="43.28018" lon="2.22165">
        <ele>151.1</ele>
        <time>2019-06-09T06:10:35.000Z</time>
      </trkpt>
      <trkpt lat="43.28019" lon="2.22163">
        <ele>151.1</ele>
        <time>2019-06-09T06:10:36.000Z</time>
      </trkpt>
      <trkpt lat="43.2802" lon="2.22162">
        <ele>151</ele>
        <time>2019-06-09T06:10:37.000Z</time>
      </trkpt>
      <trkpt lat="43.28022" lon="2.2216">
        <ele>150.9</ele>
        <time>2019-06-09T06:10:38.000Z</time>
      </trkpt>
      <trkpt lat="43.28023" lon="2.22158">
        <ele>150.7</ele>
        <time>2019-06-09T06:10:39.000Z</time>
      </trkpt>
      <trkpt lat="43.28025" lon="2.22156">
        <ele>150.5</ele>
        <time>2019-06-09T06:10:40.000Z</time>
      </trkpt>
      <trkpt lat="43.28027" lon="2.22154">
        <ele>150.4</ele>
        <time>2019-06-09T06:10:41.000Z</time>
      </trkpt>
      <trkpt lat="43.28029" lon="2.22152">
        <ele>150.2</ele>
        <time>2019-06-09T06:10:42.000Z</time>
      </trkpt>
      <trkpt lat="43.28031" lon="2.22151">
        <ele>150</ele>
        <time>2019-06-09T06:10:43.000Z</time>
      </trkpt>
      <trkpt lat="43.28033" lon="2.22149">
        <ele>149.9</ele>
        <time>2019-06-09T06:10:44.000Z</time>
      </trkpt>
      <trkpt lat="43.28034" lon="2.22147">
        <ele>149.7</ele>
        <time>2019-06-09T06:10:45.000Z</time>
      </trkpt>
      <trkpt lat="43.28036" lon="2.22145">
        <ele>149.6</ele>
        <time>2019-06-09T06:10:46.000Z</time>
      </trkpt>
      <trkpt lat="43.28038" lon="2.22143">
        <ele>149.5</ele>
        <time>2019-06-09T06:10:47.000Z</time>
      </trkpt>
      <trkpt lat="43.28039" lon="2.22141">
        <ele>149.4</ele>
        <time>2019-06-09T06:10:48.000Z</time>
      </trkpt>
      <trkpt lat="43.28041" lon="2.22139">
        <ele>149.3</ele>
        <time>2019-06-09T06:10:49.000Z</time>
      </trkpt>
      <trkpt lat="43.28043" lon="2.22137">
        <ele>149.2</ele>
        <time>2019-06-09T06:10:50.000Z</time>
      </trkpt>
      <trkpt lat="43.28044" lon="2.22136">
        <ele>149.1</ele>
        <time>2019-06-09T06:10:51.000Z</time>
      </trkpt>
      <trkpt lat="43.28046" lon="2.22134">
        <ele>149</ele>
        <time>2019-06-09T06:10:52.000Z</time>
      </trkpt>
      <trkpt lat="43.28048" lon="2.22132">
        <ele>148.9</ele>
        <time>2019-06-09T06:10:53.000Z</time>
      </trkpt>
      <trkpt lat="43.28049" lon="2.2213">
        <ele>148.7</ele>
        <time>2019-06-09T06:10:54.000Z</time>
      </trkpt>
      <trkpt lat="43.28051" lon="2.22128">
        <ele>148.6</ele>
        <time>2019-06-09T06:10:55.000Z</time>
      </trkpt>
      <trkpt lat="43.28053" lon="2.22127">
        <ele>148.4</ele>
        <time>2019-06-09T06:10:56.000Z</time>
      </trkpt>
      <trkpt lat="43.28055" lon="2.22125">
        <ele>148.3</ele>
        <time>2019-06-09T06:10:57.000Z</time>
      </trkpt>
      <trkpt lat="43.28057" lon="2.22123">
        <ele>148</ele>
        <time>2019-06-09T06:10:58.000Z</time>
      </trkpt>
      <trkpt lat="43.28059" lon="2.22122">
        <ele>147.8</ele>
        <time>2019-06-09T06:10:59.000Z</time>
      </trkpt>
      <trkpt lat="43.28061" lon="2.2212">
        <ele>147.6</ele>
        <time>2019-06-09T06:11:00.000Z</time>
      </trkpt>
      <trkpt lat="43.28063" lon="2.22118">
        <ele>147.3</ele>
        <time>2019-06-09T06:11:01.000Z</time>
      </trkpt>
      <trkpt lat="43.28065" lon="2.22117">
        <ele>147</ele>
        <time>2019-06-09T06:11:02.000Z</time>
      </trkpt>
      <trkpt lat="43.28067" lon="2.22115">
        <ele>146.7</ele>
        <time>2019-06-09T06:11:03.000Z</time>
      </trkpt>
      <trkpt lat="43.2807" lon="2.22114">
        <ele>146.4</ele>
        <time>2019-06-09T06:11:04.000Z</time>
      </trkpt>
      <trkpt lat="43.28072" lon="2.22112">
        <ele>146.1</ele>
        <time>2019-06-09T06:11:05.000Z</time>
      </trkpt>
      <trkpt lat="43.28074" lon="2.22111">
        <ele>145.9</ele>
        <time>2019-06-09T06:11:06.000Z</time>
      </trkpt>
      <trkpt lat="43.28075" lon="2.22109">
        <ele>145.6</ele>
        <time>2019-06-09T06:11:07.000Z</time>
      </trkpt>
      <trkpt lat="43.28077" lon="2.22108">
        <ele>145.5</ele>
        <time>2019-06-09T06:11:08.000Z</time>
      </trkpt>
      <trkpt lat="43.28078" lon="2.22107">
        <ele>145.3</ele>
        <time>2019-06-09T06:11:09.000Z</time>
      </trkpt>
      <trkpt lat="43.2808" lon="2.22105">
        <ele>145.2</ele>
        <time>2019-06-09T06:11:10.000Z</time>
      </trkpt>
      <trkpt lat="43.28081" lon="2.22104">
        <ele>145.2</ele>
        <time>2019-06-09T06:11:11.000Z</time>
      </trkpt>
      <trkpt lat="43.28082" lon="2.22103">
        <ele>145.1</ele>
        <time>2019-06-09T06:11:12.000Z</time>
      </trkpt>
      <trkpt lat="43.28084" lon="2.22101">
        <ele>145.1</ele>
        <time>2019-06-09T06:11:13.000Z</time>
      </trkpt>
      <trkpt lat="43.28085" lon="2.221">
        <ele>145.2</ele>
        <time>2019-06-09T06:11:14.000Z</time>
      </trkpt>
      <trkpt lat="43.28086" lon="2.22098">
        <ele>145.3</ele>
        <time>2019-06-09T06:11:15.000Z</time>
      </trkpt>
      <trkpt lat="43.28088" lon="2.22097">
        <ele>145.4</ele>
        <time>2019-06-09T06:11:16.000Z</time>
      </trkpt>
      <trkpt lat="43.28089" lon="2.22095">
        <ele>145.4</ele>
        <time>2019-06-09T06:11:17.000Z</time>
      </trkpt>
      <trkpt lat="43.28091" lon="2.22093">
        <ele>145.5</ele>
        <time>2019-06-09T06:11:18.000Z</time>
      </trkpt>
      <trkpt lat="43.28093" lon="2.22092">
        <ele>145.6</ele>
        <time>2019-06-09T06:11:19.000Z</time>
      </trkpt>
      <trkpt lat="43.28094" lon="2.2209">
        <ele>145.6</ele>
        <time>2019-06-09T06:11:20.000Z</time>
      </trkpt>
      <trkpt lat="43.28096" lon="2.22088">
        <ele>145.6</ele>
        <time>2019-06-09T06:11:21.000Z</time>
      </trkpt>
      <trkpt lat="43.28098" lon="2.22086">
        <ele>145.6</ele>
        <time>2019-06-09T06:11:22.000Z</time>
      </trkpt>
      <trkpt lat="43.281" lon="2.22085">
        <ele>145.6</ele>
        <time>2019-06-09T06:11:23.000Z</time>
      </trkpt>
      <trkpt lat="43.28102" lon="2.22083">
        <ele>145.6</ele>
        <time>2019-06-09T06:11:24.000Z</time>
      </trkpt>
      <trkpt lat="43.28104" lon="2.22081">
        <ele>145.8</ele>
        <time>2019-06-09T06:11:25.000Z</time>
      </trkpt>
      <trkpt lat="43.28106" lon="2.22079">
        <ele>145.9</ele>
        <time>2019-06-09T06:11:26.000Z</time>
      </trkpt>
      <trkpt lat="43.28108" lon="2.22078">
        <ele>146</ele>
        <time>2019-06-09T06:11:27.000Z</time>
      </trkpt>
      <trkpt lat="43.2811" lon="2.22076">
        <ele>146</ele>
        <time>2019-06-09T06:11:28.000Z</time>
      </trkpt>
      <trkpt lat="43.28112" lon="2.22074">
        <ele>146.1</ele>
        <time>2019-06-09T06:11:29.000Z</time>
      </trkpt>
      <trkpt lat="43.28114" lon="2.22073">
        <ele>146.1</ele>
        <time>2019-06-09T06:11:30.000Z</time>
      </trkpt>
      <trkpt lat="43.28116" lon="2.22071">
        <ele>146.1</ele>
        <time>2019-06-09T06:11:31.000Z</time>
      </trkpt>
      <trkpt lat="43.28118" lon="2.2207">
        <ele>146.1</ele>
        <time>2019-06-09T06:11:32.000Z</time>
      </trkpt>
      <trkpt lat="43.2812" lon="2.22068">
        <ele>146</ele>
        <time>2019-06-09T06:11:33.000Z</time>
      </trkpt>
      <trkpt lat="43.28122" lon="2.22067">
        <ele>146</ele>
        <time>2019-06-09T06:11:34.000Z</time>
      </trkpt>
      <trkpt lat="43.28124" lon="2.22065">
        <ele>145.9</ele>
        <time>2019-06-09T06:11:35.000Z</time>
      </trkpt>
      <trkpt lat="43.28126" lon="2.22064">
        <ele>145.8</ele>
        <time>2019-06-09T06:11:36.000Z</time>
      </trkpt>
      <trkpt lat="43.28128" lon="2.22062">
        <ele>145.8</ele>
        <time>2019-06-09T06:11:37.000Z</time>
      </trkpt>
      <trkpt lat="43.2813" lon="2.22061">
        <ele>145.7</ele>
        <time>2019-06-09T06:11:38.000Z</time>
      </trkpt>
      <trkpt lat="43.28132" lon="2.2206">
        <ele>145.7</ele>
        <time>2019-06-09T06:11:39.000Z</time>
      </trkpt>
      <trkpt lat="43.28134" lon="2.22058">
        <ele>145.6</ele>
        <time>2019-06-09T06:11:40.000Z</time>
      </trkpt>
      <trkpt lat="43.28136" lon="2.22057">
        <ele>145.5</ele>
        <time>2019-06-09T06:11:41.000Z</time>
      </trkpt>
      <trkpt lat="43.28137" lon="2.22055">
        <ele>145.5</ele>
        <time>2019-06-09T06:11:42.000Z</time>
      </trkpt>
      <trkpt lat="43.28139" lon="2.22054">
        <ele>145.5</ele>
        <time>2019-06-09T06:11:43.000Z</time>
      </trkpt>
      <trkpt lat="43.28141" lon="2.22052">
        <ele>145.5</ele>
        <time>2019-06-09T06:11:44.000Z</time>
      </trkpt>
      <trkpt lat="43.28142" lon="2.22051">
        <ele>145.6</ele>
        <time>2019-06-09T06:11:45.000Z</time>
      </trkpt>
      <trkpt lat="43.28144" lon="2.22049">
        <ele>145.6</ele>
        <time>2019-06-09T06:11:46.000Z</time>
      </trkpt>
      <trkpt lat="43.28145" lon="2.22047">
        <ele>145.7</ele>
        <time>2019-06-09T06:11:47.000Z</time>
      </trkpt>
      <trkpt lat="43.28147" lon="2.22045">
        <ele>145.8</ele>
        <time>2019-06-09T06:11:48.000Z</time>
      </trkpt>
      <trkpt lat="43.28148" lon="2.22044">
        <ele>145.9</ele>
        <time>2019-06-09T06:11:49.000Z</time>
      </trkpt>
      <trkpt lat="43.28149" lon="2.22042">
        <ele>146.1</ele>
        <time>2019-06-09T06:11:50.000Z</time>
      </trkpt>
      <trkpt lat="43.28151" lon="2.2204">
        <ele>146.1</ele>
        <time>2019-06-09T06:11:51.000Z</time>
      </trkpt>
      <trkpt lat="43.28152" lon="2.22038">
        <ele>146.3</ele>
        <time>2019-06-09T06:11:52.000Z</time>
      </trkpt>
      <trkpt lat="43.28154" lon="2.22036">
        <ele>146.3</ele>
        <time>2019-06-09T06:11:53.000Z</time>
      </trkpt>
      <trkpt lat="43.28156" lon="2.22034">
        <ele>146.4</ele>
        <time>2019-06-09T06:11:54.000Z</time>
      </trkpt>
      <trkpt lat="43.28157" lon="2.22032">
        <ele>146.4</ele>
        <time>2019-06-09T06:11:55.000Z</time>
      </trkpt>
      <trkpt lat="43.28159" lon="2.2203">
        <ele>146.4</ele>
        <time>2019-06-09T06:11:56.000Z</time>
      </trkpt>
      <trkpt lat="43.28161" lon="2.22028">
        <ele>146.4</ele>
        <time>2019-06-09T06:11:57.000Z</time>
      </trkpt>
      <trkpt lat="43.28162" lon="2.22027">
        <ele>146.4</ele>
        <time>2019-06-09T06:11:58.000Z</time>
      </trkpt>
      <trkpt lat="43.28164" lon="2.22025">
        <ele>146.4</ele>
        <time>2019-06-09T06:11:59.000Z</time>
      </trkpt>
      <trkpt lat="43.28165" lon="2.22023">
        <ele>146.5</ele>
        <time>2019-06-09T06:12:00.000Z</time>
      </trkpt>
      <trkpt lat="43.28166" lon="2.22021">
        <ele>146.6</ele>
        <time>2019-06-09T06:12:01.000Z</time>
      </trkpt>
      <trkpt lat="43.28167" lon="2.22019">
        <ele>146.8</ele>
        <time>2019-06-09T06:12:02.000Z</time>
      </trkpt>
      <trkpt lat="43.28168" lon="2.22017">
        <ele>147.1</ele>
        <time>2019-06-09T06:12:03.000Z</time>
      </trkpt>
      <trkpt lat="43.28169" lon="2.22015">
        <ele>147.4</ele>
        <time>2019-06-09T06:12:04.000Z</time>
      </trkpt>
      <trkpt lat="43.2817" lon="2.22013">
        <ele>147.8</ele>
        <time>2019-06-09T06:12:05.000Z</time>
      </trkpt>
      <trkpt lat="43.28171" lon="2.22011">
        <ele>148.1</ele>
        <time>2019-06-09T06:12:06.000Z</time>
      </trkpt>
      <trkpt lat="43.28172" lon="2.22009">
        <ele>148.5</ele>
        <time>2019-06-09T06:12:07.000Z</time>
      </trkpt>
      <trkpt lat="43.28173" lon="2.22007">
        <ele>148.8</ele>
        <time>2019-06-09T06:12:08.000Z</time>
      </trkpt>
      <trkpt lat="43.28174" lon="2.22004">
        <ele>149.2</ele>
        <time>2019-06-09T06:12:09.000Z</time>
      </trkpt>
      <trkpt lat="43.28176" lon="2.22002">
        <ele>149.6</ele>
        <time>2019-06-09T06:12:10.000Z</time>
      </trkpt>
      <trkpt lat="43.28177" lon="2.21999">
        <ele>150</ele>
        <time>2019-06-09T06:12:11.000Z</time>
      </trkpt>
      <trkpt lat="43.28178" lon="2.21996">
        <ele>150.3</ele>
        <time>2019-06-09T06:12:12.000Z</time>
      </trkpt>
      <trkpt lat="43.28179" lon="2.21993">
        <ele>150.6</ele>
        <time>2019-06-09T06:12:13.000Z</time>
      </trkpt>
      <trkpt lat="43.28181" lon="2.21991">
        <ele>150.9</ele>
        <time>2019-06-09T06:12:14.000Z</time>
      </trkpt>
      <trkpt lat="43.28182" lon="2.21988">
        <ele>151.2</ele>
        <time>2019-06-09T06:12:15.000Z</time>
      </trkpt>
      <trkpt lat="43.28183" lon="2.21985">
        <ele>151.5</ele>
        <time>2019-06-09T06:12:16.000Z</time>
      </trkpt>
      <trkpt lat="43.28184" lon="2.21982">
        <ele>151.8</ele>
        <time>2019-06-09T06:12:17.000Z</time>
      </trkpt>
      <trkpt lat="43.28185" lon="2.21979">
        <ele>152.1</ele>
        <time>2019-06-09T06:12:18.000Z</time>
      </trkpt>
      <trkpt lat="43.28185" lon="2.21977">
        <ele>152.5</ele>
        <time>2019-06-09T06:12:19.000Z</time>
      </trkpt>
      <trkpt lat="43.28186" lon="2.21974">
        <ele>152.8</ele>
        <time>2019-06-09T06:12:20.000Z</time>
      </trkpt>
      <trkpt lat="43.28187" lon="2.21971">
        <ele>153.1</ele>
        <time>2019-06-09T06:12:21.000Z</time>
      </trkpt>
      <trkpt lat="43.28187" lon="2.21968">
        <ele>153.4</ele>
        <time>2019-06-09T06:12:22.000Z</time>
      </trkpt>
      <trkpt lat="43.28188" lon="2.21966">
        <ele>153.7</ele>
        <time>2019-06-09T06:12:23.000Z</time>
      </trkpt>
      <trkpt lat="43.28188" lon="2.21963">
        <ele>154</ele>
        <time>2019-06-09T06:12:24.000Z</time>
      </trkpt>
      <trkpt lat="43.28189" lon="2.21961">
        <ele>154.3</ele>
        <time>2019-06-09T06:12:25.000Z</time>
      </trkpt>
      <trkpt lat="43.28189" lon="2.21958">
        <ele>154.6</ele>
        <time>2019-06-09T06:12:26.000Z</time>
      </trkpt>
      <trkpt lat="43.2819" lon="2.21955">
        <ele>154.9</ele>
        <time>2019-06-09T06:12:27.000Z</time>
      </trkpt>
      <trkpt lat="43.2819" lon="2.21953">
        <ele>155.1</ele>
        <time>2019-06-09T06:12:28.000Z</time>
      </trkpt>
      <trkpt lat="43.28191" lon="2.2195">
        <ele>155.4</ele>
        <time>2019-06-09T06:12:29.000Z</time>
      </trkpt>
      <trkpt lat="43.28191" lon="2.21948">
        <ele>155.7</ele>
        <time>2019-06-09T06:12:30.000Z</time>
      </trkpt>
      <trkpt lat="43.28192" lon="2.21945">
        <ele>155.9</ele>
        <time>2019-06-09T06:12:31.000Z</time>
      </trkpt>
      <trkpt lat="43.28193" lon="2.21943">
        <ele>156.1</ele>
        <time>2019-06-09T06:12:32.000Z</time>
      </trkpt>
      <trkpt lat="43.28193" lon="2.2194">
        <ele>156.3</ele>
        <time>2019-06-09T06:12:33.000Z</time>
      </trkpt>
      <trkpt lat="43.28194" lon="2.21938">
        <ele>156.5</ele>
        <time>2019-06-09T06:12:34.000Z</time>
      </trkpt>
      <trkpt lat="43.28195" lon="2.21935">
        <ele>156.7</ele>
        <time>2019-06-09T06:12:35.000Z</time>
      </trkpt>
      <trkpt lat="43.28195" lon="2.21933">
        <ele>156.9</ele>
        <time>2019-06-09T06:12:36.000Z</time>
      </trkpt>
      <trkpt lat="43.28196" lon="2.21931">
        <ele>157</ele>
        <time>2019-06-09T06:12:37.000Z</time>
      </trkpt>
      <trkpt lat="43.28197" lon="2.21928">
        <ele>157.1</ele>
        <time>2019-06-09T06:12:38.000Z</time>
      </trkpt>
      <trkpt lat="43.28198" lon="2.21926">
        <ele>157.2</ele>
        <time>2019-06-09T06:12:39.000Z</time>
      </trkpt>
      <trkpt lat="43.28199" lon="2.21923">
        <ele>157.3</ele>
        <time>2019-06-09T06:12:40.000Z</time>
      </trkpt>
      <trkpt lat="43.282" lon="2.21921">
        <ele>157.4</ele>
        <time>2019-06-09T06:12:41.000Z</time>
      </trkpt>
      <trkpt lat="43.28201" lon="2.21918">
        <ele>157.5</ele>
        <time>2019-06-09T06:12:42.000Z</time>
      </trkpt>
      <trkpt lat="43.28202" lon="2.21915">
        <ele>157.5</ele>
        <time>2019-06-09T06:12:43.000Z</time>
      </trkpt>
      <trkpt lat="43.28203" lon="2.21913">
        <ele>157.6</ele>
        <time>2019-06-09T06:12:44.000Z</time>
      </trkpt>
      <trkpt lat="43.28204" lon="2.2191">
        <ele>157.6</ele>
        <time>2019-06-09T06:12:45.000Z</time>
      </trkpt>
      <trkpt lat="43.28205" lon="2.21908">
        <ele>157.7</ele>
        <time>2019-06-09T06:12:46.000Z</time>
      </trkpt>
      <trkpt lat="43.28206" lon="2.21905">
        <ele>157.7</ele>
        <time>2019-06-09T06:12:47.000Z</time>
      </trkpt>
      <trkpt lat="43.28207" lon="2.21902">
        <ele>157.7</ele>
        <time>2019-06-09T06:12:48.000Z</time>
      </trkpt>
      <trkpt lat="43.28208" lon="2.21899">
        <ele>157.8</ele>
        <time>2019-06-09T06:12:49.000Z</time>
      </trkpt>
      <trkpt lat="43.28209" lon="2.21897">
        <ele>157.8</ele>
        <time>2019-06-09T06:12:50.000Z</time>
      </trkpt>
      <trkpt lat="43.2821" lon="2.21894">
        <ele>157.8</ele>
        <time>2019-06-09T06:12:51.000Z</time>
      </trkpt>
      <trkpt lat="43.28212" lon="2.21891">
        <ele>157.8</ele>
        <time>2019-06-09T06:12:52.000Z</time>
      </trkpt>
      <trkpt lat="43.28213" lon="2.21889">
        <ele>157.8</ele>
        <time>2019-06-09T06:12:53.000Z</time>
      </trkpt>
      <trkpt lat="43.28214" lon="2.21886">
        <ele>157.8</ele>
        <time>2019-06-09T06:12:54.000Z</time>
      </trkpt>
      <trkpt lat="43.28215" lon="2.21884">
        <ele>157.8</ele>
        <time>2019-06-09T06:12:55.000Z</time>
      </trkpt>
      <trkpt lat="43.28216" lon="2.21881">
        <ele>157.8</ele>
        <time>2019-06-09T06:12:56.000Z</time>
      </trkpt>
      <trkpt lat="43.28217" lon="2.21879">
        <ele>157.7</ele>
        <time>2019-06-09T06:12:57.000Z</time>
      </trkpt>
      <trkpt lat="43.28218" lon="2.21877">
        <ele>157.7</ele>
        <time>2019-06-09T06:12:58.000Z</time>
      </trkpt>
      <trkpt lat="43.28219" lon="2.21875">
        <ele>157.7</ele>
        <time>2019-06-09T06:12:59.000Z</time>
      </trkpt>
      <trkpt lat="43.2822" lon="2.21873">
        <ele>157.6</ele>
        <time>2019-06-09T06:13:00.000Z</time>
      </trkpt>
      <trkpt lat="43.28221" lon="2.21871">
        <ele>157.5</ele>
        <time>2019-06-09T06:13:01.000Z</time>
      </trkpt>
      <trkpt lat="43.28222" lon="2.21868">
        <ele>157.5</ele>
        <time>2019-06-09T06:13:02.000Z</time>
      </trkpt>
      <trkpt lat="43.28223" lon="2.21866">
        <ele>157.4</ele>
        <time>2019-06-09T06:13:03.000Z</time>
      </trkpt>
      <trkpt lat="43.28224" lon="2.21864">
        <ele>157.2</ele>
        <time>2019-06-09T06:13:04.000Z</time>
      </trkpt>
      <trkpt lat="43.28225" lon="2.21862">
        <ele>157.1</ele>
        <time>2019-06-09T06:13:05.000Z</time>
      </trkpt>
      <trkpt lat="43.28226" lon="2.21859">
        <ele>157</ele>
        <time>2019-06-09T06:13:06.000Z</time>
      </trkpt>
      <trkpt lat="43.28228" lon="2.21857">
        <ele>156.9</ele>
        <time>2019-06-09T06:13:07.000Z</time>
      </trkpt>
      <trkpt lat="43.28229" lon="2.21855">
        <ele>156.7</ele>
        <time>2019-06-09T06:13:08.000Z</time>
      </trkpt>
      <trkpt lat="43.2823" lon="2.21852">
        <ele>156.6</ele>
        <time>2019-06-09T06:13:09.000Z</time>
      </trkpt>
      <trkpt lat="43.28231" lon="2.2185">
        <ele>156.4</ele>
        <time>2019-06-09T06:13:10.000Z</time>
      </trkpt>
      <trkpt lat="43.28233" lon="2.21848">
        <ele>156.3</ele>
        <time>2019-06-09T06:13:11.000Z</time>
      </trkpt>
      <trkpt lat="43.28234" lon="2.21845">
        <ele>156.1</ele>
        <time>2019-06-09T06:13:12.000Z</time>
      </trkpt>
      <trkpt lat="43.28235" lon="2.21843">
        <ele>155.9</ele>
        <time>2019-06-09T06:13:13.000Z</time>
      </trkpt>
      <trkpt lat="43.28237" lon="2.2184">
        <ele>155.7</ele>
        <time>2019-06-09T06:13:14.000Z</time>
      </trkpt>
      <trkpt lat="43.28238" lon="2.21838">
        <ele>155.5</ele>
        <time>2019-06-09T06:13:15.000Z</time>
      </trkpt>
      <trkpt lat="43.2824" lon="2.21836">
        <ele>155.3</ele>
        <time>2019-06-09T06:13:16.000Z</time>
      </trkpt>
      <trkpt lat="43.28241" lon="2.21833">
        <ele>155.1</ele>
        <time>2019-06-09T06:13:17.000Z</time>
      </trkpt>
      <trkpt lat="43.28242" lon="2.21831">
        <ele>155.1</ele>
        <time>2019-06-09T06:13:18.000Z</time>
      </trkpt>
      <trkpt lat="43.28244" lon="2.21828">
        <ele>155.1</ele>
        <time>2019-06-09T06:13:19.000Z</time>
      </trkpt>
      <trkpt lat="43.28245" lon="2.21826">
        <ele>155.1</ele>
        <time>2019-06-09T06:13:20.000Z</time>
      </trkpt>
      <trkpt lat="43.28246" lon="2.21823">
        <ele>155.1</ele>
        <time>2019-06-09T06:13:21.000Z</time>
      </trkpt>
      <trkpt lat="43.28248" lon="2.21821">
        <ele>155.1</ele>
        <time>2019-06-09T06:13:22.000Z</time>
      </trkpt>
      <trkpt lat="43.28249" lon="2.21819">
        <ele>155.1</ele>
        <time>2019-06-09T06:13:23.000Z</time>
      </trkpt>
      <trkpt lat="43.2825" lon="2.21816">
        <ele>155.3</ele>
        <time>2019-06-09T06:13:24.000Z</time>
      </trkpt>
      <trkpt lat="43.28252" lon="2.21814">
        <ele>155.6</ele>
        <time>2019-06-09T06:13:25.000Z</time>
      </trkpt>
      <trkpt lat="43.28253" lon="2.21812">
        <ele>156</ele>
        <time>2019-06-09T06:13:26.000Z</time>
      </trkpt>
      <trkpt lat="43.28254" lon="2.21809">
        <ele>156.4</ele>
        <time>2019-06-09T06:13:27.000Z</time>
      </trkpt>
      <trkpt lat="43.28256" lon="2.21807">
        <ele>156.7</ele>
        <time>2019-06-09T06:13:28.000Z</time>
      </trkpt>
      <trkpt lat="43.28257" lon="2.21805">
        <ele>157</ele>
        <time>2019-06-09T06:13:29.000Z</time>
      </trkpt>
      <trkpt lat="43.28258" lon="2.21803">
        <ele>157.3</ele>
        <time>2019-06-09T06:13:30.000Z</time>
      </trkpt>
      <trkpt lat="43.28259" lon="2.21801">
        <ele>157.5</ele>
        <time>2019-06-09T06:13:31.000Z</time>
      </trkpt>
      <trkpt lat="43.28261" lon="2.21799">
        <ele>157.8</ele>
        <time>2019-06-09T06:13:32.000Z</time>
      </trkpt>
      <trkpt lat="43.28262" lon="2.21797">
        <ele>158</ele>
        <time>2019-06-09T06:13:33.000Z</time>
      </trkpt>
      <trkpt lat="43.28263" lon="2.21795">
        <ele>158.2</ele>
        <time>2019-06-09T06:13:34.000Z</time>
      </trkpt>
      <trkpt lat="43.28264" lon="2.21793">
        <ele>158.4</ele>
        <time>2019-06-09T06:13:35.000Z</time>
      </trkpt>
      <trkpt lat="43.28265" lon="2.21791">
        <ele>158.5</ele>
        <time>2019-06-09T06:13:36.000Z</time>
      </trkpt>
      <trkpt lat="43.28267" lon="2.21789">
        <ele>158.7</ele>
        <time>2019-06-09T06:13:37.000Z</time>
      </trkpt>
      <trkpt lat="43.28268" lon="2.21787">
        <ele>158.8</ele>
        <time>2019-06-09T06:13:38.000Z</time>
      </trkpt>
      <trkpt lat="43.28269" lon="2.21786">
        <ele>158.9</ele>
        <time>2019-06-09T06:13:39.000Z</time>
      </trkpt>
      <trkpt lat="43.2827" lon="2.21784">
        <ele>159</ele>
        <time>2019-06-09T06:13:40.000Z</time>
      </trkpt>
      <trkpt lat="43.28271" lon="2.21782">
        <ele>159.1</ele>
        <time>2019-06-09T06:13:41.000Z</time>
      </trkpt>
      <trkpt lat="43.28272" lon="2.21781">
        <ele>159.2</ele>
        <time>2019-06-09T06:13:42.000Z</time>
      </trkpt>
      <trkpt lat="43.28274" lon="2.21779">
        <ele>159.2</ele>
        <time>2019-06-09T06:13:43.000Z</time>
      </trkpt>
      <trkpt lat="43.28275" lon="2.21777">
        <ele>159.2</ele>
        <time>2019-06-09T06:13:44.000Z</time>
      </trkpt>
      <trkpt lat="43.28276" lon="2.21776">
        <ele>159.3</ele>
        <time>2019-06-09T06:13:45.000Z</time>
      </trkpt>
      <trkpt lat="43.28277" lon="2.21774">
        <ele>159.3</ele>
        <time>2019-06-09T06:13:46.000Z</time>
      </trkpt>
      <trkpt lat="43.28279" lon="2.21773">
        <ele>159.2</ele>
        <time>2019-06-09T06:13:47.000Z</time>
      </trkpt>
      <trkpt lat="43.2828" lon="2.21771">
        <ele>159.2</ele>
        <time>2019-06-09T06:13:48.000Z</time>
      </trkpt>
      <trkpt lat="43.28281" lon="2.2177">
        <ele>159.2</ele>
        <time>2019-06-09T06:13:49.000Z</time>
      </trkpt>
      <trkpt lat="43.28283" lon="2.21768">
        <ele>159.1</ele>
        <time>2019-06-09T06:13:50.000Z</time>
      </trkpt>
      <trkpt lat="43.28284" lon="2.21767">
        <ele>159</ele>
        <time>2019-06-09T06:13:51.000Z</time>
      </trkpt>
      <trkpt lat="43.28286" lon="2.21765">
        <ele>158.9</ele>
        <time>2019-06-09T06:13:52.000Z</time>
      </trkpt>
      <trkpt lat="43.28287" lon="2.21763">
        <ele>158.8</ele>
        <time>2019-06-09T06:13:53.000Z</time>
      </trkpt>
      <trkpt lat="43.28289" lon="2.21761">
        <ele>158.7</ele>
        <time>2019-06-09T06:13:54.000Z</time>
      </trkpt>
      <trkpt lat="43.2829" lon="2.21759">
        <ele>158.6</ele>
        <time>2019-06-09T06:13:55.000Z</time>
      </trkpt>
      <trkpt lat="43.28292" lon="2.21757">
        <ele>158.5</ele>
        <time>2019-06-09T06:13:56.000Z</time>
      </trkpt>
      <trkpt lat="43.28293" lon="2.21755">
        <ele>158.3</ele>
        <time>2019-06-09T06:13:57.000Z</time>
      </trkpt>
      <trkpt lat="43.28295" lon="2.21753">
        <ele>158.1</ele>
        <time>2019-06-09T06:13:58.000Z</time>
      </trkpt>
      <trkpt lat="43.28296" lon="2.2175">
        <ele>158</ele>
        <time>2019-06-09T06:13:59.000Z</time>
      </trkpt>
      <trkpt lat="43.28298" lon="2.21748">
        <ele>158.1</ele>
        <time>2019-06-09T06:14:00.000Z</time>
      </trkpt>
      <trkpt lat="43.283" lon="2.21745">
        <ele>158.2</ele>
        <time>2019-06-09T06:14:01.000Z</time>
      </trkpt>
      <trkpt lat="43.28301" lon="2.21743">
        <ele>158.3</ele>
        <time>2019-06-09T06:14:02.000Z</time>
      </trkpt>
      <trkpt lat="43.28303" lon="2.21741">
        <ele>158.4</ele>
        <time>2019-06-09T06:14:03.000Z</time>
      </trkpt>
      <trkpt lat="43.28305" lon="2.21738">
        <ele>158.4</ele>
        <time>2019-06-09T06:14:04.000Z</time>
      </trkpt>
      <trkpt lat="43.28306" lon="2.21736">
        <ele>158.5</ele>
        <time>2019-06-09T06:14:05.000Z</time>
      </trkpt>
      <trkpt lat="43.28308" lon="2.21734">
        <ele>158.5</ele>
        <time>2019-06-09T06:14:06.000Z</time>
      </trkpt>
      <trkpt lat="43.2831" lon="2.21732">
        <ele>158.5</ele>
        <time>2019-06-09T06:14:07.000Z</time>
      </trkpt>
      <trkpt lat="43.28311" lon="2.2173">
        <ele>158.5</ele>
        <time>2019-06-09T06:14:08.000Z</time>
      </trkpt>
      <trkpt lat="43.28313" lon="2.21729">
        <ele>158.5</ele>
        <time>2019-06-09T06:14:09.000Z</time>
      </trkpt>
      <trkpt lat="43.28314" lon="2.21727">
        <ele>158.5</ele>
        <time>2019-06-09T06:14:10.000Z</time>
      </trkpt>
      <trkpt lat="43.28316" lon="2.21725">
        <ele>158.6</ele>
        <time>2019-06-09T06:14:11.000Z</time>
      </trkpt>
      <trkpt lat="43.28317" lon="2.21723">
        <ele>158.6</ele>
        <time>2019-06-09T06:14:12.000Z</time>
      </trkpt>
      <trkpt lat="43.28319" lon="2.21721">
        <ele>158.6</ele>
        <time>2019-06-09T06:14:13.000Z</time>
      </trkpt>
      <trkpt lat="43.2832" lon="2.21719">
        <ele>158.6</ele>
        <time>2019-06-09T06:14:14.000Z</time>
      </trkpt>
      <trkpt lat="43.28321" lon="2.21718">
        <ele>158.6</ele>
        <time>2019-06-09T06:14:15.000Z</time>
      </trkpt>
      <trkpt lat="43.28323" lon="2.21716">
        <ele>158.6</ele>
        <time>2019-06-09T06:14:16.000Z</time>
      </trkpt>
      <trkpt lat="43.28324" lon="2.21714">
        <ele>158.7</ele>
        <time>2019-06-09T06:14:17.000Z</time>
      </trkpt>
      <trkpt lat="43.28325" lon="2.21712">
        <ele>158.7</ele>
        <time>2019-06-09T06:14:18.000Z</time>
      </trkpt>
      <trkpt lat="43.28326" lon="2.2171">
        <ele>158.8</ele>
        <time>2019-06-09T06:14:19.000Z</time>
      </trkpt>
      <trkpt lat="43.28328" lon="2.21708">
        <ele>158.9</ele>
        <time>2019-06-09T06:14:20.000Z</time>
      </trkpt>
      <trkpt lat="43.28329" lon="2.21706">
        <ele>159</ele>
        <time>2019-06-09T06:14:21.000Z</time>
      </trkpt>
      <trkpt lat="43.2833" lon="2.21704">
        <ele>159.1</ele>
        <time>2019-06-09T06:14:22.000Z</time>
      </trkpt>
      <trkpt lat="43.28331" lon="2.21702">
        <ele>159.2</ele>
        <time>2019-06-09T06:14:23.000Z</time>
      </trkpt>
      <trkpt lat="43.28332" lon="2.217">
        <ele>159.3</ele>
        <time>2019-06-09T06:14:24.000Z</time>
      </trkpt>
      <trkpt lat="43.28333" lon="2.21698">
        <ele>159.4</ele>
        <time>2019-06-09T06:14:25.000Z</time>
      </trkpt>
      <trkpt lat="43.28334" lon="2.21696">
        <ele>159.7</ele>
        <time>2019-06-09T06:14:26.000Z</time>
      </trkpt>
      <trkpt lat="43.28335" lon="2.21694">
        <ele>160.1</ele>
        <time>2019-06-09T06:14:27.000Z</time>
      </trkpt>
      <trkpt lat="43.28336" lon="2.21691">
        <ele>160.4</ele>
        <time>2019-06-09T06:14:28.000Z</time>
      </trkpt>
      <trkpt lat="43.28338" lon="2.21689">
        <ele>160.7</ele>
        <time>2019-06-09T06:14:29.000Z</time>
      </trkpt>
      <trkpt lat="43.28339" lon="2.21687">
        <ele>160.9</ele>
        <time>2019-06-09T06:14:30.000Z</time>
      </trkpt>
      <trkpt lat="43.2834" lon="2.21685">
        <ele>161.2</ele>
        <time>2019-06-09T06:14:31.000Z</time>
      </trkpt>
      <trkpt lat="43.28341" lon="2.21682">
        <ele>161.5</ele>
        <time>2019-06-09T06:14:32.000Z</time>
      </trkpt>
      <trkpt lat="43.28342" lon="2.2168">
        <ele>161.7</ele>
        <time>2019-06-09T06:14:33.000Z</time>
      </trkpt>
      <trkpt lat="43.28344" lon="2.21678">
        <ele>161.9</ele>
        <time>2019-06-09T06:14:34.000Z</time>
      </trkpt>
      <trkpt lat="43.28345" lon="2.21675">
        <ele>162.1</ele>
        <time>2019-06-09T06:14:35.000Z</time>
      </trkpt>
      <trkpt lat="43.28346" lon="2.21673">
        <ele>162.3</ele>
        <time>2019-06-09T06:14:36.000Z</time>
      </trkpt>
      <trkpt lat="43.28348" lon="2.21671">
        <ele>162.4</ele>
        <time>2019-06-09T06:14:37.000Z</time>
      </trkpt>
      <trkpt lat="43.28349" lon="2.21668">
        <ele>162.5</ele>
        <time>2019-06-09T06:14:38.000Z</time>
      </trkpt>
      <trkpt lat="43.28351" lon="2.21666">
        <ele>162.7</ele>
        <time>2019-06-09T06:14:39.000Z</time>
      </trkpt>
      <trkpt lat="43.28352" lon="2.21663">
        <ele>162.9</ele>
        <time>2019-06-09T06:14:40.000Z</time>
      </trkpt>
      <trkpt lat="43.28353" lon="2.21661">
        <ele>163.1</ele>
        <time>2019-06-09T06:14:41.000Z</time>
      </trkpt>
      <trkpt lat="43.28355" lon="2.21659">
        <ele>163.3</ele>
        <time>2019-06-09T06:14:42.000Z</time>
      </trkpt>
      <trkpt lat="43.28356" lon="2.21657">
        <ele>163.5</ele>
        <time>2019-06-09T06:14:43.000Z</time>
      </trkpt>
      <trkpt lat="43.28357" lon="2.21654">
        <ele>163.7</ele>
        <time>2019-06-09T06:14:44.000Z</time>
      </trkpt>
      <trkpt lat="43.28358" lon="2.21652">
        <ele>163.9</ele>
        <time>2019-06-09T06:14:45.000Z</time>
      </trkpt>
      <trkpt lat="43.28359" lon="2.2165">
        <ele>164</ele>
        <time>2019-06-09T06:14:46.000Z</time>
      </trkpt>
      <trkpt lat="43.2836" lon="2.21648">
        <ele>164.2</ele>
        <time>2019-06-09T06:14:47.000Z</time>
      </trkpt>
      <trkpt lat="43.28362" lon="2.21646">
        <ele>164.3</ele>
        <time>2019-06-09T06:14:48.000Z</time>
      </trkpt>
      <trkpt lat="43.28363" lon="2.21644">
        <ele>164.4</ele>
        <time>2019-06-09T06:14:49.000Z</time>
      </trkpt>
      <trkpt lat="43.28364" lon="2.21643">
        <ele>164.5</ele>
        <time>2019-06-09T06:14:50.000Z</time>
      </trkpt>
      <trkpt lat="43.28365" lon="2.21641">
        <ele>164.5</ele>
        <time>2019-06-09T06:14:51.000Z</time>
      </trkpt>
      <trkpt lat="43.28366" lon="2.21639">
        <ele>164.6</ele>
        <time>2019-06-09T06:14:52.000Z</time>
      </trkpt>
      <trkpt lat="43.28367" lon="2.21637">
        <ele>164.7</ele>
        <time>2019-06-09T06:14:53.000Z</time>
      </trkpt>
      <trkpt lat="43.28368" lon="2.21635">
        <ele>164.8</ele>
        <time>2019-06-09T06:14:54.000Z</time>
      </trkpt>
      <trkpt lat="43.28369" lon="2.21633">
        <ele>164.8</ele>
        <time>2019-06-09T06:14:55.000Z</time>
      </trkpt>
      <trkpt lat="43.28371" lon="2.21631">
        <ele>164.9</ele>
        <time>2019-06-09T06:14:56.000Z</time>
      </trkpt>
      <trkpt lat="43.28372" lon="2.21628">
        <ele>165</ele>
        <time>2019-06-09T06:14:57.000Z</time>
      </trkpt>
      <trkpt lat="43.28373" lon="2.21626">
        <ele>165.1</ele>
        <time>2019-06-09T06:14:58.000Z</time>
      </trkpt>
      <trkpt lat="43.28374" lon="2.21623">
        <ele>165.2</ele>
        <time>2019-06-09T06:14:59.000Z</time>
      </trkpt>
      <trkpt lat="43.28375" lon="2.2162">
        <ele>165.3</ele>
        <time>2019-06-09T06:15:00.000Z</time>
      </trkpt>
      <trkpt lat="43.28377" lon="2.21618">
        <ele>165.4</ele>
        <time>2019-06-09T06:15:01.000Z</time>
      </trkpt>
      <trkpt lat="43.28378" lon="2.21615">
        <ele>165.4</ele>
        <time>2019-06-09T06:15:02.000Z</time>
      </trkpt>
      <trkpt lat="43.28379" lon="2.21612">
        <ele>165.5</ele>
        <time>2019-06-09T06:15:03.000Z</time>
      </trkpt>
      <trkpt lat="43.28381" lon="2.21609">
        <ele>165.5</ele>
        <time>2019-06-09T06:15:04.000Z</time>
      </trkpt>
      <trkpt lat="43.28382" lon="2.21607">
        <ele>165.5</ele>
        <time>2019-06-09T06:15:05.000Z</time>
      </trkpt>
      <trkpt lat="43.28383" lon="2.21605">
        <ele>165.5</ele>
        <time>2019-06-09T06:15:06.000Z</time>
      </trkpt>
      <trkpt lat="43.28384" lon="2.21602">
        <ele>165.4</ele>
        <time>2019-06-09T06:15:07.000Z</time>
      </trkpt>
      <trkpt lat="43.28386" lon="2.216">
        <ele>165.3</ele>
        <time>2019-06-09T06:15:08.000Z</time>
      </trkpt>
      <trkpt lat="43.28387" lon="2.21598">
        <ele>165.2</ele>
        <time>2019-06-09T06:15:09.000Z</time>
      </trkpt>
      <trkpt lat="43.28388" lon="2.21596">
        <ele>165.1</ele>
        <time>2019-06-09T06:15:10.000Z</time>
      </trkpt>
      <trkpt lat="43.2839" lon="2.21594">
        <ele>164.9</ele>
        <time>2019-06-09T06:15:11.000Z</time>
      </trkpt>
      <trkpt lat="43.28391" lon="2.21592">
        <ele>164.8</ele>
        <time>2019-06-09T06:15:12.000Z</time>
      </trkpt>
      <trkpt lat="43.28393" lon="2.2159">
        <ele>164.6</ele>
        <time>2019-06-09T06:15:13.000Z</time>
      </trkpt>
      <trkpt lat="43.28394" lon="2.21588">
        <ele>164.3</ele>
        <time>2019-06-09T06:15:14.000Z</time>
      </trkpt>
      <trkpt lat="43.28395" lon="2.21586">
        <ele>164.1</ele>
        <time>2019-06-09T06:15:15.000Z</time>
      </trkpt>
      <trkpt lat="43.28397" lon="2.21584">
        <ele>163.9</ele>
        <time>2019-06-09T06:15:16.000Z</time>
      </trkpt>
      <trkpt lat="43.28399" lon="2.21582">
        <ele>163.6</ele>
        <time>2019-06-09T06:15:17.000Z</time>
      </trkpt>
      <trkpt lat="43.284" lon="2.2158">
        <ele>163.3</ele>
        <time>2019-06-09T06:15:18.000Z</time>
      </trkpt>
      <trkpt lat="43.28402" lon="2.21577">
        <ele>163</ele>
        <time>2019-06-09T06:15:19.000Z</time>
      </trkpt>
      <trkpt lat="43.28403" lon="2.21575">
        <ele>162.7</ele>
        <time>2019-06-09T06:15:20.000Z</time>
      </trkpt>
      <trkpt lat="43.28405" lon="2.21573">
        <ele>162.4</ele>
        <time>2019-06-09T06:15:21.000Z</time>
      </trkpt>
      <trkpt lat="43.28407" lon="2.2157">
        <ele>162.1</ele>
        <time>2019-06-09T06:15:22.000Z</time>
      </trkpt>
      <trkpt lat="43.28409" lon="2.21568">
        <ele>161.8</ele>
        <time>2019-06-09T06:15:23.000Z</time>
      </trkpt>
      <trkpt lat="43.2841" lon="2.21565">
        <ele>161.5</ele>
        <time>2019-06-09T06:15:24.000Z</time>
      </trkpt>
      <trkpt lat="43.28412" lon="2.21563">
        <ele>161.2</ele>
        <time>2019-06-09T06:15:25.000Z</time>
      </trkpt>
      <trkpt lat="43.28414" lon="2.2156">
        <ele>160.9</ele>
        <time>2019-06-09T06:15:26.000Z</time>
      </trkpt>
      <trkpt lat="43.28415" lon="2.21557">
        <ele>160.7</ele>
        <time>2019-06-09T06:15:27.000Z</time>
      </trkpt>
      <trkpt lat="43.28416" lon="2.21555">
        <ele>160.5</ele>
        <time>2019-06-09T06:15:28.000Z</time>
      </trkpt>
      <trkpt lat="43.28418" lon="2.21552">
        <ele>160.7</ele>
        <time>2019-06-09T06:15:29.000Z</time>
      </trkpt>
      <trkpt lat="43.28419" lon="2.21549">
        <ele>161.1</ele>
        <time>2019-06-09T06:15:30.000Z</time>
      </trkpt>
      <trkpt lat="43.2842" lon="2.21546">
        <ele>161.4</ele>
        <time>2019-06-09T06:15:31.000Z</time>
      </trkpt>
      <trkpt lat="43.28421" lon="2.21544">
        <ele>161.7</ele>
        <time>2019-06-09T06:15:32.000Z</time>
      </trkpt>
      <trkpt lat="43.28422" lon="2.21541">
        <ele>162</ele>
        <time>2019-06-09T06:15:33.000Z</time>
      </trkpt>
      <trkpt lat="43.28423" lon="2.21538">
        <ele>162.2</ele>
        <time>2019-06-09T06:15:34.000Z</time>
      </trkpt>
      <trkpt lat="43.28424" lon="2.21535">
        <ele>162.5</ele>
        <time>2019-06-09T06:15:35.000Z</time>
      </trkpt>
      <trkpt lat="43.28425" lon="2.21533">
        <ele>162.7</ele>
        <time>2019-06-09T06:15:36.000Z</time>
      </trkpt>
      <trkpt lat="43.28426" lon="2.2153">
        <ele>162.9</ele>
        <time>2019-06-09T06:15:37.000Z</time>
      </trkpt>
      <trkpt lat="43.28427" lon="2.21528">
        <ele>163.1</ele>
        <time>2019-06-09T06:15:38.000Z</time>
      </trkpt>
      <trkpt lat="43.28428" lon="2.21525">
        <ele>163.4</ele>
        <time>2019-06-09T06:15:39.000Z</time>
      </trkpt>
      <trkpt lat="43.28429" lon="2.21522">
        <ele>163.5</ele>
        <time>2019-06-09T06:15:40.000Z</time>
      </trkpt>
      <trkpt lat="43.2843" lon="2.2152">
        <ele>163.7</ele>
        <time>2019-06-09T06:15:41.000Z</time>
      </trkpt>
      <trkpt lat="43.28431" lon="2.21517">
        <ele>163.9</ele>
        <time>2019-06-09T06:15:42.000Z</time>
      </trkpt>
      <trkpt lat="43.28432" lon="2.21514">
        <ele>164.1</ele>
        <time>2019-06-09T06:15:43.000Z</time>
      </trkpt>
      <trkpt lat="43.28433" lon="2.21512">
        <ele>164.2</ele>
        <time>2019-06-09T06:15:44.000Z</time>
      </trkpt>
      <trkpt lat="43.28434" lon="2.21509">
        <ele>164.3</ele>
        <time>2019-06-09T06:15:45.000Z</time>
      </trkpt>
      <trkpt lat="43.28434" lon="2.21506">
        <ele>164.5</ele>
        <time>2019-06-09T06:15:46.000Z</time>
      </trkpt>
      <trkpt lat="43.28435" lon="2.21504">
        <ele>164.6</ele>
        <time>2019-06-09T06:15:47.000Z</time>
      </trkpt>
      <trkpt lat="43.28435" lon="2.21501">
        <ele>164.7</ele>
        <time>2019-06-09T06:15:48.000Z</time>
      </trkpt>
      <trkpt lat="43.28436" lon="2.21498">
        <ele>164.9</ele>
        <time>2019-06-09T06:15:49.000Z</time>
      </trkpt>
      <trkpt lat="43.28436" lon="2.21496">
        <ele>165</ele>
        <time>2019-06-09T06:15:50.000Z</time>
      </trkpt>
      <trkpt lat="43.28436" lon="2.21494">
        <ele>165.2</ele>
        <time>2019-06-09T06:15:51.000Z</time>
      </trkpt>
      <trkpt lat="43.28436" lon="2.21491">
        <ele>165.4</ele>
        <time>2019-06-09T06:15:52.000Z</time>
      </trkpt>
      <trkpt lat="43.28436" lon="2.21489">
        <ele>165.5</ele>
        <time>2019-06-09T06:15:53.000Z</time>
      </trkpt>
      <trkpt lat="43.28436" lon="2.21487">
        <ele>165.6</ele>
        <time>2019-06-09T06:15:54.000Z</time>
      </trkpt>
      <trkpt lat="43.28436" lon="2.21486">
        <ele>165.8</ele>
        <time>2019-06-09T06:15:55.000Z</time>
      </trkpt>
      <trkpt lat="43.28436" lon="2.21484">
        <ele>165.9</ele>
        <time>2019-06-09T06:15:56.000Z</time>
      </trkpt>
      <trkpt lat="43.28436" lon="2.21483">
        <ele>166</ele>
        <time>2019-06-09T06:15:57.000Z</time>
      </trkpt>
      <trkpt lat="43.28437" lon="2.21481">
        <ele>166</ele>
        <time>2019-06-09T06:15:58.000Z</time>
      </trkpt>
      <trkpt lat="43.28437" lon="2.21481">
        <ele>166.1</ele>
        <time>2019-06-09T06:15:59.000Z</time>
      </trkpt>
      <trkpt lat="43.28437" lon="2.2148">
        <ele>166.1</ele>
        <time>2019-06-09T06:16:00.000Z</time>
      </trkpt>
      <trkpt lat="43.28438" lon="2.21479">
        <ele>166.1</ele>
        <time>2019-06-09T06:16:01.000Z</time>
      </trkpt>
      <trkpt lat="43.28438" lon="2.21478">
        <ele>166.1</ele>
        <time>2019-06-09T06:16:02.000Z</time>
      </trkpt>
      <trkpt lat="43.28439" lon="2.21477">
        <ele>166.2</ele>
        <time>2019-06-09T06:16:03.000Z</time>
      </trkpt>
      <trkpt lat="43.28439" lon="2.21476">
        <ele>166.2</ele>
        <time>2019-06-09T06:16:04.000Z</time>
      </trkpt>
      <trkpt lat="43.2844" lon="2.21475">
        <ele>166.3</ele>
        <time>2019-06-09T06:16:05.000Z</time>
      </trkpt>
      <trkpt lat="43.2844" lon="2.21473">
        <ele>166.4</ele>
        <time>2019-06-09T06:16:06.000Z</time>
      </trkpt>
      <trkpt lat="43.2844" lon="2.21471">
        <ele>166.5</ele>
        <time>2019-06-09T06:16:07.000Z</time>
      </trkpt>
      <trkpt lat="43.28441" lon="2.21469">
        <ele>166.6</ele>
        <time>2019-06-09T06:16:08.000Z</time>
      </trkpt>
      <trkpt lat="43.28441" lon="2.21466">
        <ele>166.7</ele>
        <time>2019-06-09T06:16:09.000Z</time>
      </trkpt>
      <trkpt lat="43.2844" lon="2.21464">
        <ele>166.9</ele>
        <time>2019-06-09T06:16:10.000Z</time>
      </trkpt>
      <trkpt lat="43.2844" lon="2.21461">
        <ele>167.1</ele>
        <time>2019-06-09T06:16:11.000Z</time>
      </trkpt>
      <trkpt lat="43.2844" lon="2.21459">
        <ele>167.2</ele>
        <time>2019-06-09T06:16:12.000Z</time>
      </trkpt>
      <trkpt lat="43.2844" lon="2.21456">
        <ele>167.4</ele>
        <time>2019-06-09T06:16:13.000Z</time>
      </trkpt>
      <trkpt lat="43.2844" lon="2.21454">
        <ele>167.6</ele>
        <time>2019-06-09T06:16:14.000Z</time>
      </trkpt>
      <trkpt lat="43.2844" lon="2.21451">
        <ele>167.7</ele>
        <time>2019-06-09T06:16:15.000Z</time>
      </trkpt>
      <trkpt lat="43.2844" lon="2.21448">
        <ele>167.9</ele>
        <time>2019-06-09T06:16:16.000Z</time>
      </trkpt>
      <trkpt lat="43.28441" lon="2.21445">
        <ele>168</ele>
        <time>2019-06-09T06:16:17.000Z</time>
      </trkpt>
      <trkpt lat="43.28441" lon="2.21442">
        <ele>168.1</ele>
        <time>2019-06-09T06:16:18.000Z</time>
      </trkpt>
      <trkpt lat="43.28442" lon="2.21439">
        <ele>168.2</ele>
        <time>2019-06-09T06:16:19.000Z</time>
      </trkpt>
      <trkpt lat="43.28443" lon="2.21436">
        <ele>168.3</ele>
        <time>2019-06-09T06:16:20.000Z</time>
      </trkpt>
      <trkpt lat="43.28443" lon="2.21433">
        <ele>168.3</ele>
        <time>2019-06-09T06:16:21.000Z</time>
      </trkpt>
      <trkpt lat="43.28444" lon="2.2143">
        <ele>168.4</ele>
        <time>2019-06-09T06:16:22.000Z</time>
      </trkpt>
      <trkpt lat="43.28445" lon="2.21427">
        <ele>168.4</ele>
        <time>2019-06-09T06:16:23.000Z</time>
      </trkpt>
      <trkpt lat="43.28446" lon="2.21425">
        <ele>168.3</ele>
        <time>2019-06-09T06:16:24.000Z</time>
      </trkpt>
      <trkpt lat="43.28447" lon="2.21422">
        <ele>168.3</ele>
        <time>2019-06-09T06:16:25.000Z</time>
      </trkpt>
      <trkpt lat="43.28448" lon="2.2142">
        <ele>168.3</ele>
        <time>2019-06-09T06:16:26.000Z</time>
      </trkpt>
      <trkpt lat="43.28448" lon="2.21417">
        <ele>168.3</ele>
        <time>2019-06-09T06:16:27.000Z</time>
      </trkpt>
      <trkpt lat="43.28449" lon="2.21414">
        <ele>168.5</ele>
        <time>2019-06-09T06:16:28.000Z</time>
      </trkpt>
      <trkpt lat="43.28449" lon="2.21412">
        <ele>168.7</ele>
        <time>2019-06-09T06:16:29.000Z</time>
      </trkpt>
      <trkpt lat="43.28449" lon="2.2141">
        <ele>168.9</ele>
        <time>2019-06-09T06:16:30.000Z</time>
      </trkpt>
      <trkpt lat="43.2845" lon="2.21407">
        <ele>169.1</ele>
        <time>2019-06-09T06:16:31.000Z</time>
      </trkpt>
      <trkpt lat="43.2845" lon="2.21405">
        <ele>169.4</ele>
        <time>2019-06-09T06:16:32.000Z</time>
      </trkpt>
      <trkpt lat="43.2845" lon="2.21402">
        <ele>169.6</ele>
        <time>2019-06-09T06:16:33.000Z</time>
      </trkpt>
      <trkpt lat="43.2845" lon="2.214">
        <ele>169.8</ele>
        <time>2019-06-09T06:16:34.000Z</time>
      </trkpt>
      <trkpt lat="43.2845" lon="2.21398">
        <ele>170</ele>
        <time>2019-06-09T06:16:35.000Z</time>
      </trkpt>
      <trkpt lat="43.2845" lon="2.21397">
        <ele>170.2</ele>
        <time>2019-06-09T06:16:36.000Z</time>
      </trkpt>
      <trkpt lat="43.28451" lon="2.21395">
        <ele>170.3</ele>
        <time>2019-06-09T06:16:37.000Z</time>
      </trkpt>
      <trkpt lat="43.28451" lon="2.21393">
        <ele>170.4</ele>
        <time>2019-06-09T06:16:38.000Z</time>
      </trkpt>
      <trkpt lat="43.28451" lon="2.21392">
        <ele>170.4</ele>
        <time>2019-06-09T06:16:39.000Z</time>
      </trkpt>
      <trkpt lat="43.28452" lon="2.21391">
        <ele>170.5</ele>
        <time>2019-06-09T06:16:40.000Z</time>
      </trkpt>
      <trkpt lat="43.28452" lon="2.2139">
        <ele>170.5</ele>
        <time>2019-06-09T06:16:41.000Z</time>
      </trkpt>
      <trkpt lat="43.28453" lon="2.21389">
        <ele>170.5</ele>
        <time>2019-06-09T06:16:42.000Z</time>
      </trkpt>
      <trkpt lat="43.28453" lon="2.21389">
        <ele>170.4</ele>
        <time>2019-06-09T06:16:43.000Z</time>
      </trkpt>
      <trkpt lat="43.28453" lon="2.21388">
        <ele>170.4</ele>
        <time>2019-06-09T06:16:44.000Z</time>
      </trkpt>
      <trkpt lat="43.28453" lon="2.21388">
        <ele>170.4</ele>
        <time>2019-06-09T06:16:45.000Z</time>
      </trkpt>
      <trkpt lat="43.28454" lon="2.21388">
        <ele>170.4</ele>
        <time>2019-06-09T06:16:46.000Z</time>
      </trkpt>
      <trkpt lat="43.28454" lon="2.21387">
        <ele>170.4</ele>
        <time>2019-06-09T06:16:47.000Z</time>
      </trkpt>
      <trkpt lat="43.28454" lon="2.21387">
        <ele>170.4</ele>
        <time>2019-06-09T06:16:48.000Z</time>
      </trkpt>
      <trkpt lat="43.28454" lon="2.21387">
        <ele>170.4</ele>
        <time>2019-06-09T06:16:49.000Z</time>
      </trkpt>
      <trkpt lat="43.28454" lon="2.21387">
        <ele>170.4</ele>
        <time>2019-06-09T06:16:50.000Z</time>
      </trkpt>
      <trkpt lat="43.28454" lon="2.21387">
        <ele>170.4</ele>
        <time>2019-06-09T06:16:51.000Z</time>
      </trkpt>
      <trkpt lat="43.28454" lon="2.21387">
        <ele>170.4</ele>
        <time>2019-06-09T06:16:52.000Z</time>
      </trkpt>
      <trkpt lat="43.28454" lon="2.21387">
        <ele>170.4</ele>
        <time>2019-06-09T06:16:53.000Z</time>
      </trkpt>
      <trkpt lat="43.28454" lon="2.21387">
        <ele>170.4</ele>
        <time>2019-06-09T06:16:54.000Z</time>
      </trkpt>
      <trkpt lat="43.28454" lon="2.21387">
        <ele>170.4</ele>
        <time>2019-06-09T06:16:55.000Z</time>
      </trkpt>
      <trkpt lat="43.28454" lon="2.21386">
        <ele>170.4</ele>
        <time>2019-06-09T06:16:56.000Z</time>
      </trkpt>
      <trkpt lat="43.28455" lon="2.21386">
        <ele>170.3</ele>
        <time>2019-06-09T06:16:57.000Z</time>
      </trkpt>
      <trkpt lat="43.28455" lon="2.21385">
        <ele>170.3</ele>
        <time>2019-06-09T06:16:58.000Z</time>
      </trkpt>
      <trkpt lat="43.28456" lon="2.21384">
        <ele>170.2</ele>
        <time>2019-06-09T06:16:59.000Z</time>
      </trkpt>
      <trkpt lat="43.28456" lon="2.21383">
        <ele>170.2</ele>
        <time>2019-06-09T06:17:00.000Z</time>
      </trkpt>
      <trkpt lat="43.28457" lon="2.21382">
        <ele>170.1</ele>
        <time>2019-06-09T06:17:01.000Z</time>
      </trkpt>
      <trkpt lat="43.28458" lon="2.21381">
        <ele>170.1</ele>
        <time>2019-06-09T06:17:02.000Z</time>
      </trkpt>
      <trkpt lat="43.28458" lon="2.2138">
        <ele>170.1</ele>
        <time>2019-06-09T06:17:03.000Z</time>
      </trkpt>
      <trkpt lat="43.28459" lon="2.21378">
        <ele>170.1</ele>
        <time>2019-06-09T06:17:04.000Z</time>
      </trkpt>
      <trkpt lat="43.28459" lon="2.21377">
        <ele>170.2</ele>
        <time>2019-06-09T06:17:05.000Z</time>
      </trkpt>
      <trkpt lat="43.2846" lon="2.21375">
        <ele>170.2</ele>
        <time>2019-06-09T06:17:06.000Z</time>
      </trkpt>
      <trkpt lat="43.2846" lon="2.21373">
        <ele>170.3</ele>
        <time>2019-06-09T06:17:07.000Z</time>
      </trkpt>
      <trkpt lat="43.2846" lon="2.21371">
        <ele>170.4</ele>
        <time>2019-06-09T06:17:08.000Z</time>
      </trkpt>
      <trkpt lat="43.2846" lon="2.21369">
        <ele>170.6</ele>
        <time>2019-06-09T06:17:09.000Z</time>
      </trkpt>
      <trkpt lat="43.2846" lon="2.21367">
        <ele>170.7</ele>
        <time>2019-06-09T06:17:10.000Z</time>
      </trkpt>
      <trkpt lat="43.28461" lon="2.21365">
        <ele>170.9</ele>
        <time>2019-06-09T06:17:11.000Z</time>
      </trkpt>
      <trkpt lat="43.28461" lon="2.21362">
        <ele>171.1</ele>
        <time>2019-06-09T06:17:12.000Z</time>
      </trkpt>
      <trkpt lat="43.28461" lon="2.2136">
        <ele>171.3</ele>
        <time>2019-06-09T06:17:13.000Z</time>
      </trkpt>
      <trkpt lat="43.28461" lon="2.21357">
        <ele>171.5</ele>
        <time>2019-06-09T06:17:14.000Z</time>
      </trkpt>
      <trkpt lat="43.28461" lon="2.21355">
        <ele>171.7</ele>
        <time>2019-06-09T06:17:15.000Z</time>
      </trkpt>
      <trkpt lat="43.28461" lon="2.21352">
        <ele>171.8</ele>
        <time>2019-06-09T06:17:16.000Z</time>
      </trkpt>
      <trkpt lat="43.28461" lon="2.2135">
        <ele>172</ele>
        <time>2019-06-09T06:17:17.000Z</time>
      </trkpt>
      <trkpt lat="43.28462" lon="2.21347">
        <ele>172.2</ele>
        <time>2019-06-09T06:17:18.000Z</time>
      </trkpt>
      <trkpt lat="43.28462" lon="2.21345">
        <ele>172.3</ele>
        <time>2019-06-09T06:17:19.000Z</time>
      </trkpt>
      <trkpt lat="43.28463" lon="2.21342">
        <ele>172.4</ele>
        <time>2019-06-09T06:17:20.000Z</time>
      </trkpt>
      <trkpt lat="43.28463" lon="2.2134">
        <ele>172.5</ele>
        <time>2019-06-09T06:17:21.000Z</time>
      </trkpt>
      <trkpt lat="43.28464" lon="2.21337">
        <ele>172.5</ele>
        <time>2019-06-09T06:17:22.000Z</time>
      </trkpt>
      <trkpt lat="43.28464" lon="2.21335">
        <ele>172.5</ele>
        <time>2019-06-09T06:17:23.000Z</time>
      </trkpt>
      <trkpt lat="43.28465" lon="2.21333">
        <ele>172.5</ele>
        <time>2019-06-09T06:17:24.000Z</time>
      </trkpt>
      <trkpt lat="43.28465" lon="2.2133">
        <ele>172.5</ele>
        <time>2019-06-09T06:17:25.000Z</time>
      </trkpt>
      <trkpt lat="43.28466" lon="2.21328">
        <ele>172.5</ele>
        <time>2019-06-09T06:17:26.000Z</time>
      </trkpt>
      <trkpt lat="43.28467" lon="2.21326">
        <ele>172.5</ele>
        <time>2019-06-09T06:17:27.000Z</time>
      </trkpt>
      <trkpt lat="43.28467" lon="2.21323">
        <ele>172.6</ele>
        <time>2019-06-09T06:17:28.000Z</time>
      </trkpt>
      <trkpt lat="43.28468" lon="2.21321">
        <ele>172.6</ele>
        <time>2019-06-09T06:17:29.000Z</time>
      </trkpt>
      <trkpt lat="43.28468" lon="2.21318">
        <ele>172.7</ele>
        <time>2019-06-09T06:17:30.000Z</time>
      </trkpt>
      <trkpt lat="43.28468" lon="2.21316">
        <ele>172.9</ele>
        <time>2019-06-09T06:17:31.000Z</time>
      </trkpt>
      <trkpt lat="43.28469" lon="2.21313">
        <ele>173</ele>
        <time>2019-06-09T06:17:32.000Z</time>
      </trkpt>
      <trkpt lat="43.28469" lon="2.2131">
        <ele>173.1</ele>
        <time>2019-06-09T06:17:33.000Z</time>
      </trkpt>
      <trkpt lat="43.2847" lon="2.21308">
        <ele>173.2</ele>
        <time>2019-06-09T06:17:34.000Z</time>
      </trkpt>
      <trkpt lat="43.2847" lon="2.21305">
        <ele>173.4</ele>
        <time>2019-06-09T06:17:35.000Z</time>
      </trkpt>
      <trkpt lat="43.2847" lon="2.21302">
        <ele>173.5</ele>
        <time>2019-06-09T06:17:36.000Z</time>
      </trkpt>
      <trkpt lat="43.28471" lon="2.21299">
        <ele>173.5</ele>
        <time>2019-06-09T06:17:37.000Z</time>
      </trkpt>
      <trkpt lat="43.28472" lon="2.21296">
        <ele>173.6</ele>
        <time>2019-06-09T06:17:38.000Z</time>
      </trkpt>
      <trkpt lat="43.28473" lon="2.21293">
        <ele>173.5</ele>
        <time>2019-06-09T06:17:39.000Z</time>
      </trkpt>
      <trkpt lat="43.28474" lon="2.2129">
        <ele>173.4</ele>
        <time>2019-06-09T06:17:40.000Z</time>
      </trkpt>
      <trkpt lat="43.28475" lon="2.21288">
        <ele>173.3</ele>
        <time>2019-06-09T06:17:41.000Z</time>
      </trkpt>
      <trkpt lat="43.28476" lon="2.21285">
        <ele>173.2</ele>
        <time>2019-06-09T06:17:42.000Z</time>
      </trkpt>
      <trkpt lat="43.28478" lon="2.21282">
        <ele>173.1</ele>
        <time>2019-06-09T06:17:43.000Z</time>
      </trkpt>
      <trkpt lat="43.28479" lon="2.21279">
        <ele>172.9</ele>
        <time>2019-06-09T06:17:44.000Z</time>
      </trkpt>
      <trkpt lat="43.2848" lon="2.21276">
        <ele>172.8</ele>
        <time>2019-06-09T06:17:45.000Z</time>
      </trkpt>
      <trkpt lat="43.28482" lon="2.21273">
        <ele>172.6</ele>
        <time>2019-06-09T06:17:46.000Z</time>
      </trkpt>
      <trkpt lat="43.28483" lon="2.2127">
        <ele>172.5</ele>
        <time>2019-06-09T06:17:47.000Z</time>
      </trkpt>
      <trkpt lat="43.28484" lon="2.21268">
        <ele>172.3</ele>
        <time>2019-06-09T06:17:48.000Z</time>
      </trkpt>
      <trkpt lat="43.28485" lon="2.21265">
        <ele>172.2</ele>
        <time>2019-06-09T06:17:49.000Z</time>
      </trkpt>
      <trkpt lat="43.28487" lon="2.21262">
        <ele>172</ele>
        <time>2019-06-09T06:17:50.000Z</time>
      </trkpt>
      <trkpt lat="43.28488" lon="2.21259">
        <ele>171.9</ele>
        <time>2019-06-09T06:17:51.000Z</time>
      </trkpt>
      <trkpt lat="43.28489" lon="2.21257">
        <ele>171.9</ele>
        <time>2019-06-09T06:17:52.000Z</time>
      </trkpt>
      <trkpt lat="43.2849" lon="2.21254">
        <ele>171.8</ele>
        <time>2019-06-09T06:17:53.000Z</time>
      </trkpt>
      <trkpt lat="43.28491" lon="2.21251">
        <ele>171.8</ele>
        <time>2019-06-09T06:17:54.000Z</time>
      </trkpt>
      <trkpt lat="43.28491" lon="2.21249">
        <ele>171.9</ele>
        <time>2019-06-09T06:17:55.000Z</time>
      </trkpt>
      <trkpt lat="43.28492" lon="2.21246">
        <ele>172</ele>
        <time>2019-06-09T06:17:56.000Z</time>
      </trkpt>
      <trkpt lat="43.28493" lon="2.21244">
        <ele>172.1</ele>
        <time>2019-06-09T06:17:57.000Z</time>
      </trkpt>
      <trkpt lat="43.28493" lon="2.21241">
        <ele>172.3</ele>
        <time>2019-06-09T06:17:58.000Z</time>
      </trkpt>
      <trkpt lat="43.28494" lon="2.21239">
        <ele>172.4</ele>
        <time>2019-06-09T06:17:59.000Z</time>
      </trkpt>
      <trkpt lat="43.28494" lon="2.21237">
        <ele>172.6</ele>
        <time>2019-06-09T06:18:00.000Z</time>
      </trkpt>
      <trkpt lat="43.28495" lon="2.21235">
        <ele>172.8</ele>
        <time>2019-06-09T06:18:01.000Z</time>
      </trkpt>
      <trkpt lat="43.28495" lon="2.21232">
        <ele>172.9</ele>
        <time>2019-06-09T06:18:02.000Z</time>
      </trkpt>
      <trkpt lat="43.28496" lon="2.2123">
        <ele>173</ele>
        <time>2019-06-09T06:18:03.000Z</time>
      </trkpt>
      <trkpt lat="43.28497" lon="2.21228">
        <ele>173.1</ele>
        <time>2019-06-09T06:18:04.000Z</time>
      </trkpt>
      <trkpt lat="43.28497" lon="2.21226">
        <ele>173.2</ele>
        <time>2019-06-09T06:18:05.000Z</time>
      </trkpt>
      <trkpt lat="43.28498" lon="2.21224">
        <ele>173.3</ele>
        <time>2019-06-09T06:18:06.000Z</time>
      </trkpt>
      <trkpt lat="43.28499" lon="2.21222">
        <ele>173.3</ele>
        <time>2019-06-09T06:18:07.000Z</time>
      </trkpt>
      <trkpt lat="43.285" lon="2.2122">
        <ele>173.4</ele>
        <time>2019-06-09T06:18:08.000Z</time>
      </trkpt>
      <trkpt lat="43.28501" lon="2.21218">
        <ele>173.6</ele>
        <time>2019-06-09T06:18:09.000Z</time>
      </trkpt>
      <trkpt lat="43.28502" lon="2.21216">
        <ele>173.7</ele>
        <time>2019-06-09T06:18:10.000Z</time>
      </trkpt>
      <trkpt lat="43.28504" lon="2.21214">
        <ele>173.9</ele>
        <time>2019-06-09T06:18:11.000Z</time>
      </trkpt>
      <trkpt lat="43.28505" lon="2.21212">
        <ele>174.1</ele>
        <time>2019-06-09T06:18:12.000Z</time>
      </trkpt>
      <trkpt lat="43.28506" lon="2.2121">
        <ele>174.2</ele>
        <time>2019-06-09T06:18:13.000Z</time>
      </trkpt>
      <trkpt lat="43.28507" lon="2.21209">
        <ele>174.3</ele>
        <time>2019-06-09T06:18:14.000Z</time>
      </trkpt>
      <trkpt lat="43.28508" lon="2.21207">
        <ele>174.5</ele>
        <time>2019-06-09T06:18:15.000Z</time>
      </trkpt>
      <trkpt lat="43.28509" lon="2.21205">
        <ele>174.6</ele>
        <time>2019-06-09T06:18:16.000Z</time>
      </trkpt>
      <trkpt lat="43.2851" lon="2.21203">
        <ele>174.7</ele>
        <time>2019-06-09T06:18:17.000Z</time>
      </trkpt>
      <trkpt lat="43.28511" lon="2.21202">
        <ele>174.8</ele>
        <time>2019-06-09T06:18:18.000Z</time>
      </trkpt>
      <trkpt lat="43.28513" lon="2.212">
        <ele>174.8</ele>
        <time>2019-06-09T06:18:19.000Z</time>
      </trkpt>
      <trkpt lat="43.28514" lon="2.21198">
        <ele>174.8</ele>
        <time>2019-06-09T06:18:20.000Z</time>
      </trkpt>
      <trkpt lat="43.28516" lon="2.21197">
        <ele>174.8</ele>
        <time>2019-06-09T06:18:21.000Z</time>
      </trkpt>
      <trkpt lat="43.28518" lon="2.21195">
        <ele>174.7</ele>
        <time>2019-06-09T06:18:22.000Z</time>
      </trkpt>
      <trkpt lat="43.28521" lon="2.21193">
        <ele>174.7</ele>
        <time>2019-06-09T06:18:23.000Z</time>
      </trkpt>
      <trkpt lat="43.28523" lon="2.21191">
        <ele>174.6</ele>
        <time>2019-06-09T06:18:24.000Z</time>
      </trkpt>
      <trkpt lat="43.28524" lon="2.21189">
        <ele>174.5</ele>
        <time>2019-06-09T06:18:25.000Z</time>
      </trkpt>
      <trkpt lat="43.28526" lon="2.21187">
        <ele>174.5</ele>
        <time>2019-06-09T06:18:26.000Z</time>
      </trkpt>
      <trkpt lat="43.28528" lon="2.21185">
        <ele>174.4</ele>
        <time>2019-06-09T06:18:27.000Z</time>
      </trkpt>
      <trkpt lat="43.2853" lon="2.21183">
        <ele>174.3</ele>
        <time>2019-06-09T06:18:28.000Z</time>
      </trkpt>
      <trkpt lat="43.28532" lon="2.21181">
        <ele>174.2</ele>
        <time>2019-06-09T06:18:29.000Z</time>
      </trkpt>
      <trkpt lat="43.28534" lon="2.2118">
        <ele>174.1</ele>
        <time>2019-06-09T06:18:30.000Z</time>
      </trkpt>
      <trkpt lat="43.28535" lon="2.21178">
        <ele>173.9</ele>
        <time>2019-06-09T06:18:31.000Z</time>
      </trkpt>
      <trkpt lat="43.28537" lon="2.21176">
        <ele>173.8</ele>
        <time>2019-06-09T06:18:32.000Z</time>
      </trkpt>
      <trkpt lat="43.28538" lon="2.21174">
        <ele>173.6</ele>
        <time>2019-06-09T06:18:33.000Z</time>
      </trkpt>
      <trkpt lat="43.2854" lon="2.21172">
        <ele>173.5</ele>
        <time>2019-06-09T06:18:34.000Z</time>
      </trkpt>
      <trkpt lat="43.28542" lon="2.21171">
        <ele>173.3</ele>
        <time>2019-06-09T06:18:35.000Z</time>
      </trkpt>
      <trkpt lat="43.28544" lon="2.21169">
        <ele>173.1</ele>
        <time>2019-06-09T06:18:36.000Z</time>
      </trkpt>
      <trkpt lat="43.28545" lon="2.21167">
        <ele>172.8</ele>
        <time>2019-06-09T06:18:37.000Z</time>
      </trkpt>
      <trkpt lat="43.28547" lon="2.21166">
        <ele>172.7</ele>
        <time>2019-06-09T06:18:38.000Z</time>
      </trkpt>
      <trkpt lat="43.2855" lon="2.21164">
        <ele>172.6</ele>
        <time>2019-06-09T06:18:39.000Z</time>
      </trkpt>
      <trkpt lat="43.28552" lon="2.21162">
        <ele>172.5</ele>
        <time>2019-06-09T06:18:40.000Z</time>
      </trkpt>
      <trkpt lat="43.28554" lon="2.2116">
        <ele>172.4</ele>
        <time>2019-06-09T06:18:41.000Z</time>
      </trkpt>
      <trkpt lat="43.28556" lon="2.21159">
        <ele>172.3</ele>
        <time>2019-06-09T06:18:42.000Z</time>
      </trkpt>
      <trkpt lat="43.28559" lon="2.21157">
        <ele>172.2</ele>
        <time>2019-06-09T06:18:43.000Z</time>
      </trkpt>
      <trkpt lat="43.28561" lon="2.21155">
        <ele>172.1</ele>
        <time>2019-06-09T06:18:44.000Z</time>
      </trkpt>
      <trkpt lat="43.28563" lon="2.21154">
        <ele>172</ele>
        <time>2019-06-09T06:18:45.000Z</time>
      </trkpt>
      <trkpt lat="43.28565" lon="2.21153">
        <ele>171.9</ele>
        <time>2019-06-09T06:18:46.000Z</time>
      </trkpt>
      <trkpt lat="43.28567" lon="2.21152">
        <ele>171.8</ele>
        <time>2019-06-09T06:18:47.000Z</time>
      </trkpt>
      <trkpt lat="43.28568" lon="2.2115">
        <ele>171.8</ele>
        <time>2019-06-09T06:18:48.000Z</time>
      </trkpt>
      <trkpt lat="43.2857" lon="2.21149">
        <ele>171.7</ele>
        <time>2019-06-09T06:18:49.000Z</time>
      </trkpt>
      <trkpt lat="43.28571" lon="2.21148">
        <ele>171.6</ele>
        <time>2019-06-09T06:18:50.000Z</time>
      </trkpt>
      <trkpt lat="43.28573" lon="2.21147">
        <ele>171.6</ele>
        <time>2019-06-09T06:18:51.000Z</time>
      </trkpt>
      <trkpt lat="43.28574" lon="2.21146">
        <ele>171.5</ele>
        <time>2019-06-09T06:18:52.000Z</time>
      </trkpt>
      <trkpt lat="43.28576" lon="2.21145">
        <ele>171.5</ele>
        <time>2019-06-09T06:18:53.000Z</time>
      </trkpt>
      <trkpt lat="43.28577" lon="2.21144">
        <ele>171.5</ele>
        <time>2019-06-09T06:18:54.000Z</time>
      </trkpt>
      <trkpt lat="43.28579" lon="2.21142">
        <ele>171.5</ele>
        <time>2019-06-09T06:18:55.000Z</time>
      </trkpt>
      <trkpt lat="43.28581" lon="2.21141">
        <ele>171.5</ele>
        <time>2019-06-09T06:18:56.000Z</time>
      </trkpt>
      <trkpt lat="43.28582" lon="2.21139">
        <ele>171.5</ele>
        <time>2019-06-09T06:18:57.000Z</time>
      </trkpt>
      <trkpt lat="43.28584" lon="2.21137">
        <ele>171.6</ele>
        <time>2019-06-09T06:18:58.000Z</time>
      </trkpt>
      <trkpt lat="43.28586" lon="2.21136">
        <ele>171.9</ele>
        <time>2019-06-09T06:18:59.000Z</time>
      </trkpt>
      <trkpt lat="43.28588" lon="2.21134">
        <ele>172.1</ele>
        <time>2019-06-09T06:19:00.000Z</time>
      </trkpt>
      <trkpt lat="43.2859" lon="2.21132">
        <ele>172.3</ele>
        <time>2019-06-09T06:19:01.000Z</time>
      </trkpt>
      <trkpt lat="43.28591" lon="2.2113">
        <ele>172.5</ele>
        <time>2019-06-09T06:19:02.000Z</time>
      </trkpt>
      <trkpt lat="43.28593" lon="2.21129">
        <ele>172.7</ele>
        <time>2019-06-09T06:19:03.000Z</time>
      </trkpt>
      <trkpt lat="43.28594" lon="2.21127">
        <ele>172.9</ele>
        <time>2019-06-09T06:19:04.000Z</time>
      </trkpt>
      <trkpt lat="43.28596" lon="2.21126">
        <ele>173.1</ele>
        <time>2019-06-09T06:19:05.000Z</time>
      </trkpt>
      <trkpt lat="43.28597" lon="2.21124">
        <ele>173.3</ele>
        <time>2019-06-09T06:19:06.000Z</time>
      </trkpt>
      <trkpt lat="43.28599" lon="2.21122">
        <ele>173.4</ele>
        <time>2019-06-09T06:19:07.000Z</time>
      </trkpt>
      <trkpt lat="43.286" lon="2.2112">
        <ele>173.6</ele>
        <time>2019-06-09T06:19:08.000Z</time>
      </trkpt>
      <trkpt lat="43.28602" lon="2.21119">
        <ele>173.8</ele>
        <time>2019-06-09T06:19:09.000Z</time>
      </trkpt>
      <trkpt lat="43.28603" lon="2.21117">
        <ele>173.9</ele>
        <time>2019-06-09T06:19:10.000Z</time>
      </trkpt>
      <trkpt lat="43.28605" lon="2.21115">
        <ele>174</ele>
        <time>2019-06-09T06:19:11.000Z</time>
      </trkpt>
      <trkpt lat="43.28607" lon="2.21112">
        <ele>174.1</ele>
        <time>2019-06-09T06:19:12.000Z</time>
      </trkpt>
      <trkpt lat="43.28609" lon="2.2111">
        <ele>174.3</ele>
        <time>2019-06-09T06:19:13.000Z</time>
      </trkpt>
      <trkpt lat="43.28611" lon="2.21108">
        <ele>174.4</ele>
        <time>2019-06-09T06:19:14.000Z</time>
      </trkpt>
      <trkpt lat="43.28612" lon="2.21106">
        <ele>174.4</ele>
        <time>2019-06-09T06:19:15.000Z</time>
      </trkpt>
      <trkpt lat="43.28614" lon="2.21103">
        <ele>174.5</ele>
        <time>2019-06-09T06:19:16.000Z</time>
      </trkpt>
      <trkpt lat="43.28616" lon="2.21101">
        <ele>174.6</ele>
        <time>2019-06-09T06:19:17.000Z</time>
      </trkpt>
      <trkpt lat="43.28618" lon="2.21098">
        <ele>174.6</ele>
        <time>2019-06-09T06:19:18.000Z</time>
      </trkpt>
      <trkpt lat="43.28619" lon="2.21096">
        <ele>174.7</ele>
        <time>2019-06-09T06:19:19.000Z</time>
      </trkpt>
      <trkpt lat="43.28621" lon="2.21093">
        <ele>174.7</ele>
        <time>2019-06-09T06:19:20.000Z</time>
      </trkpt>
      <trkpt lat="43.28622" lon="2.21091">
        <ele>174.8</ele>
        <time>2019-06-09T06:19:21.000Z</time>
      </trkpt>
      <trkpt lat="43.28623" lon="2.21089">
        <ele>174.8</ele>
        <time>2019-06-09T06:19:22.000Z</time>
      </trkpt>
      <trkpt lat="43.28624" lon="2.21086">
        <ele>174.9</ele>
        <time>2019-06-09T06:19:23.000Z</time>
      </trkpt>
      <trkpt lat="43.28625" lon="2.21084">
        <ele>175</ele>
        <time>2019-06-09T06:19:24.000Z</time>
      </trkpt>
      <trkpt lat="43.28625" lon="2.21081">
        <ele>175.2</ele>
        <time>2019-06-09T06:19:25.000Z</time>
      </trkpt>
      <trkpt lat="43.28626" lon="2.21079">
        <ele>175.3</ele>
        <time>2019-06-09T06:19:26.000Z</time>
      </trkpt>
      <trkpt lat="43.28626" lon="2.21077">
        <ele>175.5</ele>
        <time>2019-06-09T06:19:27.000Z</time>
      </trkpt>
      <trkpt lat="43.28626" lon="2.21074">
        <ele>175.7</ele>
        <time>2019-06-09T06:19:28.000Z</time>
      </trkpt>
      <trkpt lat="43.28626" lon="2.21072">
        <ele>175.9</ele>
        <time>2019-06-09T06:19:29.000Z</time>
      </trkpt>
      <trkpt lat="43.28627" lon="2.2107">
        <ele>176.1</ele>
        <time>2019-06-09T06:19:30.000Z</time>
      </trkpt>
      <trkpt lat="43.28627" lon="2.21067">
        <ele>176.3</ele>
        <time>2019-06-09T06:19:31.000Z</time>
      </trkpt>
      <trkpt lat="43.28627" lon="2.21064">
        <ele>176.5</ele>
        <time>2019-06-09T06:19:32.000Z</time>
      </trkpt>
      <trkpt lat="43.28628" lon="2.21062">
        <ele>176.6</ele>
        <time>2019-06-09T06:19:33.000Z</time>
      </trkpt>
      <trkpt lat="43.28629" lon="2.21059">
        <ele>176.7</ele>
        <time>2019-06-09T06:19:34.000Z</time>
      </trkpt>
      <trkpt lat="43.2863" lon="2.21056">
        <ele>176.8</ele>
        <time>2019-06-09T06:19:35.000Z</time>
      </trkpt>
      <trkpt lat="43.28631" lon="2.21053">
        <ele>176.9</ele>
        <time>2019-06-09T06:19:36.000Z</time>
      </trkpt>
      <trkpt lat="43.28632" lon="2.2105">
        <ele>176.9</ele>
        <time>2019-06-09T06:19:37.000Z</time>
      </trkpt>
      <trkpt lat="43.28634" lon="2.21047">
        <ele>177</ele>
        <time>2019-06-09T06:19:38.000Z</time>
      </trkpt>
      <trkpt lat="43.28635" lon="2.21044">
        <ele>177</ele>
        <time>2019-06-09T06:19:39.000Z</time>
      </trkpt>
      <trkpt lat="43.28636" lon="2.21041">
        <ele>177</ele>
        <time>2019-06-09T06:19:40.000Z</time>
      </trkpt>
      <trkpt lat="43.28638" lon="2.21038">
        <ele>176.9</ele>
        <time>2019-06-09T06:19:41.000Z</time>
      </trkpt>
      <trkpt lat="43.28639" lon="2.21035">
        <ele>176.8</ele>
        <time>2019-06-09T06:19:42.000Z</time>
      </trkpt>
      <trkpt lat="43.28641" lon="2.21033">
        <ele>176.6</ele>
        <time>2019-06-09T06:19:43.000Z</time>
      </trkpt>
      <trkpt lat="43.28643" lon="2.21031">
        <ele>176.4</ele>
        <time>2019-06-09T06:19:44.000Z</time>
      </trkpt>
      <trkpt lat="43.28644" lon="2.21029">
        <ele>176.2</ele>
        <time>2019-06-09T06:19:45.000Z</time>
      </trkpt>
      <trkpt lat="43.28646" lon="2.21027">
        <ele>176</ele>
        <time>2019-06-09T06:19:46.000Z</time>
      </trkpt>
      <trkpt lat="43.28648" lon="2.21025">
        <ele>175.9</ele>
        <time>2019-06-09T06:19:47.000Z</time>
      </trkpt>
      <trkpt lat="43.28649" lon="2.21023">
        <ele>175.7</ele>
        <time>2019-06-09T06:19:48.000Z</time>
      </trkpt>
      <trkpt lat="43.2865" lon="2.21021">
        <ele>175.6</ele>
        <time>2019-06-09T06:19:49.000Z</time>
      </trkpt>
      <trkpt lat="43.28651" lon="2.21019">
        <ele>175.5</ele>
        <time>2019-06-09T06:19:50.000Z</time>
      </trkpt>
      <trkpt lat="43.28652" lon="2.21017">
        <ele>175.4</ele>
        <time>2019-06-09T06:19:51.000Z</time>
      </trkpt>
      <trkpt lat="43.28653" lon="2.21015">
        <ele>175.4</ele>
        <time>2019-06-09T06:19:52.000Z</time>
      </trkpt>
      <trkpt lat="43.28653" lon="2.21013">
        <ele>175.4</ele>
        <time>2019-06-09T06:19:53.000Z</time>
      </trkpt>
      <trkpt lat="43.28654" lon="2.21011">
        <ele>175.4</ele>
        <time>2019-06-09T06:19:54.000Z</time>
      </trkpt>
      <trkpt lat="43.28655" lon="2.21008">
        <ele>175.4</ele>
        <time>2019-06-09T06:19:55.000Z</time>
      </trkpt>
      <trkpt lat="43.28656" lon="2.21006">
        <ele>175.4</ele>
        <time>2019-06-09T06:19:56.000Z</time>
      </trkpt>
      <trkpt lat="43.28657" lon="2.21003">
        <ele>175.3</ele>
        <time>2019-06-09T06:19:57.000Z</time>
      </trkpt>
      <trkpt lat="43.28657" lon="2.21">
        <ele>175.3</ele>
        <time>2019-06-09T06:19:58.000Z</time>
      </trkpt>
      <trkpt lat="43.28658" lon="2.20997">
        <ele>175.4</ele>
        <time>2019-06-09T06:19:59.000Z</time>
      </trkpt>
      <trkpt lat="43.28659" lon="2.20994">
        <ele>175.4</ele>
        <time>2019-06-09T06:20:00.000Z</time>
      </trkpt>
      <trkpt lat="43.2866" lon="2.20991">
        <ele>175.4</ele>
        <time>2019-06-09T06:20:01.000Z</time>
      </trkpt>
      <trkpt lat="43.28661" lon="2.20988">
        <ele>175.4</ele>
        <time>2019-06-09T06:20:02.000Z</time>
      </trkpt>
      <trkpt lat="43.28662" lon="2.20985">
        <ele>175.4</ele>
        <time>2019-06-09T06:20:03.000Z</time>
      </trkpt>
      <trkpt lat="43.28663" lon="2.20982">
        <ele>175.4</ele>
        <time>2019-06-09T06:20:04.000Z</time>
      </trkpt>
      <trkpt lat="43.28664" lon="2.20978">
        <ele>175.5</ele>
        <time>2019-06-09T06:20:05.000Z</time>
      </trkpt>
      <trkpt lat="43.28665" lon="2.20975">
        <ele>175.5</ele>
        <time>2019-06-09T06:20:06.000Z</time>
      </trkpt>
      <trkpt lat="43.28666" lon="2.20972">
        <ele>175.4</ele>
        <time>2019-06-09T06:20:07.000Z</time>
      </trkpt>
      <trkpt lat="43.28667" lon="2.20969">
        <ele>175.7</ele>
        <time>2019-06-09T06:20:08.000Z</time>
      </trkpt>
      <trkpt lat="43.28669" lon="2.20966">
        <ele>176.1</ele>
        <time>2019-06-09T06:20:09.000Z</time>
      </trkpt>
      <trkpt lat="43.2867" lon="2.20963">
        <ele>176.4</ele>
        <time>2019-06-09T06:20:10.000Z</time>
      </trkpt>
      <trkpt lat="43.28671" lon="2.20961">
        <ele>176.8</ele>
        <time>2019-06-09T06:20:11.000Z</time>
      </trkpt>
      <trkpt lat="43.28672" lon="2.20958">
        <ele>177.1</ele>
        <time>2019-06-09T06:20:12.000Z</time>
      </trkpt>
      <trkpt lat="43.28673" lon="2.20955">
        <ele>177.4</ele>
        <time>2019-06-09T06:20:13.000Z</time>
      </trkpt>
      <trkpt lat="43.28674" lon="2.20953">
        <ele>177.7</ele>
        <time>2019-06-09T06:20:14.000Z</time>
      </trkpt>
      <trkpt lat="43.28675" lon="2.20951">
        <ele>178</ele>
        <time>2019-06-09T06:20:15.000Z</time>
      </trkpt>
      <trkpt lat="43.28676" lon="2.20948">
        <ele>178.2</ele>
        <time>2019-06-09T06:20:16.000Z</time>
      </trkpt>
      <trkpt lat="43.28677" lon="2.20946">
        <ele>178.5</ele>
        <time>2019-06-09T06:20:17.000Z</time>
      </trkpt>
      <trkpt lat="43.28678" lon="2.20944">
        <ele>178.7</ele>
        <time>2019-06-09T06:20:18.000Z</time>
      </trkpt>
      <trkpt lat="43.28679" lon="2.20942">
        <ele>178.9</ele>
        <time>2019-06-09T06:20:19.000Z</time>
      </trkpt>
      <trkpt lat="43.2868" lon="2.20939">
        <ele>179.1</ele>
        <time>2019-06-09T06:20:20.000Z</time>
      </trkpt>
      <trkpt lat="43.2868" lon="2.20937">
        <ele>179.3</ele>
        <time>2019-06-09T06:20:21.000Z</time>
      </trkpt>
      <trkpt lat="43.28681" lon="2.20935">
        <ele>179.5</ele>
        <time>2019-06-09T06:20:22.000Z</time>
      </trkpt>
      <trkpt lat="43.28681" lon="2.20932">
        <ele>179.7</ele>
        <time>2019-06-09T06:20:23.000Z</time>
      </trkpt>
      <trkpt lat="43.28682" lon="2.20929">
        <ele>179.9</ele>
        <time>2019-06-09T06:20:24.000Z</time>
      </trkpt>
      <trkpt lat="43.28682" lon="2.20927">
        <ele>180.1</ele>
        <time>2019-06-09T06:20:25.000Z</time>
      </trkpt>
      <trkpt lat="43.28682" lon="2.20924">
        <ele>180.3</ele>
        <time>2019-06-09T06:20:26.000Z</time>
      </trkpt>
      <trkpt lat="43.28682" lon="2.20921">
        <ele>180.5</ele>
        <time>2019-06-09T06:20:27.000Z</time>
      </trkpt>
      <trkpt lat="43.28682" lon="2.20918">
        <ele>180.7</ele>
        <time>2019-06-09T06:20:28.000Z</time>
      </trkpt>
      <trkpt lat="43.28682" lon="2.20915">
        <ele>180.7</ele>
        <time>2019-06-09T06:20:29.000Z</time>
      </trkpt>
      <trkpt lat="43.28681" lon="2.20911">
        <ele>180.8</ele>
        <time>2019-06-09T06:20:30.000Z</time>
      </trkpt>
      <trkpt lat="43.28681" lon="2.20908">
        <ele>180.8</ele>
        <time>2019-06-09T06:20:31.000Z</time>
      </trkpt>
      <trkpt lat="43.28681" lon="2.20905">
        <ele>180.8</ele>
        <time>2019-06-09T06:20:32.000Z</time>
      </trkpt>
      <trkpt lat="43.2868" lon="2.20902">
        <ele>180.8</ele>
        <time>2019-06-09T06:20:33.000Z</time>
      </trkpt>
      <trkpt lat="43.2868" lon="2.20899">
        <ele>180.8</ele>
        <time>2019-06-09T06:20:34.000Z</time>
      </trkpt>
      <trkpt lat="43.2868" lon="2.20896">
        <ele>180.8</ele>
        <time>2019-06-09T06:20:35.000Z</time>
      </trkpt>
      <trkpt lat="43.28679" lon="2.20893">
        <ele>180.9</ele>
        <time>2019-06-09T06:20:36.000Z</time>
      </trkpt>
      <trkpt lat="43.28679" lon="2.2089">
        <ele>180.9</ele>
        <time>2019-06-09T06:20:37.000Z</time>
      </trkpt>
      <trkpt lat="43.28679" lon="2.20887">
        <ele>180.9</ele>
        <time>2019-06-09T06:20:38.000Z</time>
      </trkpt>
      <trkpt lat="43.28679" lon="2.20884">
        <ele>180.9</ele>
        <time>2019-06-09T06:20:39.000Z</time>
      </trkpt>
      <trkpt lat="43.28678" lon="2.20881">
        <ele>180.9</ele>
        <time>2019-06-09T06:20:40.000Z</time>
      </trkpt>
      <trkpt lat="43.28678" lon="2.20878">
        <ele>180.9</ele>
        <time>2019-06-09T06:20:41.000Z</time>
      </trkpt>
      <trkpt lat="43.28677" lon="2.20875">
        <ele>180.9</ele>
        <time>2019-06-09T06:20:42.000Z</time>
      </trkpt>
      <trkpt lat="43.28677" lon="2.20873">
        <ele>181</ele>
        <time>2019-06-09T06:20:43.000Z</time>
      </trkpt>
      <trkpt lat="43.28677" lon="2.2087">
        <ele>181</ele>
        <time>2019-06-09T06:20:44.000Z</time>
      </trkpt>
      <trkpt lat="43.28676" lon="2.20867">
        <ele>181</ele>
        <time>2019-06-09T06:20:45.000Z</time>
      </trkpt>
      <trkpt lat="43.28676" lon="2.20865">
        <ele>181</ele>
        <time>2019-06-09T06:20:46.000Z</time>
      </trkpt>
      <trkpt lat="43.28675" lon="2.20862">
        <ele>181</ele>
        <time>2019-06-09T06:20:47.000Z</time>
      </trkpt>
      <trkpt lat="43.28675" lon="2.2086">
        <ele>181</ele>
        <time>2019-06-09T06:20:48.000Z</time>
      </trkpt>
      <trkpt lat="43.28674" lon="2.20857">
        <ele>181</ele>
        <time>2019-06-09T06:20:49.000Z</time>
      </trkpt>
      <trkpt lat="43.28674" lon="2.20855">
        <ele>181</ele>
        <time>2019-06-09T06:20:50.000Z</time>
      </trkpt>
      <trkpt lat="43.28674" lon="2.20853">
        <ele>181</ele>
        <time>2019-06-09T06:20:51.000Z</time>
      </trkpt>
      <trkpt lat="43.28673" lon="2.20852">
        <ele>181</ele>
        <time>2019-06-09T06:20:52.000Z</time>
      </trkpt>
      <trkpt lat="43.28673" lon="2.2085">
        <ele>181</ele>
        <time>2019-06-09T06:20:53.000Z</time>
      </trkpt>
      <trkpt lat="43.28673" lon="2.20849">
        <ele>181</ele>
        <time>2019-06-09T06:20:54.000Z</time>
      </trkpt>
      <trkpt lat="43.28673" lon="2.20848">
        <ele>181</ele>
        <time>2019-06-09T06:20:55.000Z</time>
      </trkpt>
      <trkpt lat="43.28673" lon="2.20847">
        <ele>181.1</ele>
        <time>2019-06-09T06:20:56.000Z</time>
      </trkpt>
      <trkpt lat="43.28673" lon="2.20846">
        <ele>181.1</ele>
        <time>2019-06-09T06:20:57.000Z</time>
      </trkpt>
      <trkpt lat="43.28673" lon="2.20846">
        <ele>181.1</ele>
        <time>2019-06-09T06:20:58.000Z</time>
      </trkpt>
      <trkpt lat="43.28673" lon="2.20845">
        <ele>181.1</ele>
        <time>2019-06-09T06:20:59.000Z</time>
      </trkpt>
      <trkpt lat="43.28673" lon="2.20844">
        <ele>181.1</ele>
        <time>2019-06-09T06:21:00.000Z</time>
      </trkpt>
      <trkpt lat="43.28673" lon="2.20843">
        <ele>181.1</ele>
        <time>2019-06-09T06:21:01.000Z</time>
      </trkpt>
      <trkpt lat="43.28673" lon="2.20841">
        <ele>181.2</ele>
        <time>2019-06-09T06:21:02.000Z</time>
      </trkpt>
      <trkpt lat="43.28674" lon="2.20838">
        <ele>181.2</ele>
        <time>2019-06-09T06:21:03.000Z</time>
      </trkpt>
      <trkpt lat="43.28674" lon="2.20836">
        <ele>181.3</ele>
        <time>2019-06-09T06:21:04.000Z</time>
      </trkpt>
      <trkpt lat="43.28675" lon="2.20833">
        <ele>181.3</ele>
        <time>2019-06-09T06:21:05.000Z</time>
      </trkpt>
      <trkpt lat="43.28676" lon="2.20831">
        <ele>181.4</ele>
        <time>2019-06-09T06:21:06.000Z</time>
      </trkpt>
      <trkpt lat="43.28676" lon="2.20828">
        <ele>181.5</ele>
        <time>2019-06-09T06:21:07.000Z</time>
      </trkpt>
      <trkpt lat="43.28676" lon="2.20825">
        <ele>181.6</ele>
        <time>2019-06-09T06:21:08.000Z</time>
      </trkpt>
      <trkpt lat="43.28676" lon="2.20823">
        <ele>181.7</ele>
        <time>2019-06-09T06:21:09.000Z</time>
      </trkpt>
      <trkpt lat="43.28676" lon="2.2082">
        <ele>181.7</ele>
        <time>2019-06-09T06:21:10.000Z</time>
      </trkpt>
      <trkpt lat="43.28676" lon="2.20817">
        <ele>181.8</ele>
        <time>2019-06-09T06:21:11.000Z</time>
      </trkpt>
      <trkpt lat="43.28676" lon="2.20815">
        <ele>181.9</ele>
        <time>2019-06-09T06:21:12.000Z</time>
      </trkpt>
      <trkpt lat="43.28676" lon="2.20812">
        <ele>182</ele>
        <time>2019-06-09T06:21:13.000Z</time>
      </trkpt>
      <trkpt lat="43.28677" lon="2.2081">
        <ele>182</ele>
        <time>2019-06-09T06:21:14.000Z</time>
      </trkpt>
      <trkpt lat="43.28677" lon="2.20807">
        <ele>182.1</ele>
        <time>2019-06-09T06:21:15.000Z</time>
      </trkpt>
      <trkpt lat="43.28678" lon="2.20805">
        <ele>182.2</ele>
        <time>2019-06-09T06:21:16.000Z</time>
      </trkpt>
      <trkpt lat="43.28679" lon="2.20803">
        <ele>182.3</ele>
        <time>2019-06-09T06:21:17.000Z</time>
      </trkpt>
      <trkpt lat="43.2868" lon="2.20801">
        <ele>182.3</ele>
        <time>2019-06-09T06:21:18.000Z</time>
      </trkpt>
      <trkpt lat="43.28681" lon="2.208">
        <ele>182.4</ele>
        <time>2019-06-09T06:21:19.000Z</time>
      </trkpt>
      <trkpt lat="43.28681" lon="2.20798">
        <ele>182.4</ele>
        <time>2019-06-09T06:21:20.000Z</time>
      </trkpt>
      <trkpt lat="43.28682" lon="2.20798">
        <ele>182.4</ele>
        <time>2019-06-09T06:21:21.000Z</time>
      </trkpt>
      <trkpt lat="43.28683" lon="2.20797">
        <ele>182.5</ele>
        <time>2019-06-09T06:21:22.000Z</time>
      </trkpt>
      <trkpt lat="43.28684" lon="2.20797">
        <ele>182.5</ele>
        <time>2019-06-09T06:21:23.000Z</time>
      </trkpt>
      <trkpt lat="43.28684" lon="2.20797">
        <ele>182.5</ele>
        <time>2019-06-09T06:21:24.000Z</time>
      </trkpt>
      <trkpt lat="43.28685" lon="2.20797">
        <ele>182.5</ele>
        <time>2019-06-09T06:21:25.000Z</time>
      </trkpt>
      <trkpt lat="43.28686" lon="2.20798">
        <ele>182.5</ele>
        <time>2019-06-09T06:21:26.000Z</time>
      </trkpt>
      <trkpt lat="43.28686" lon="2.20798">
        <ele>182.5</ele>
        <time>2019-06-09T06:21:27.000Z</time>
      </trkpt>
      <trkpt lat="43.28687" lon="2.20799">
        <ele>182.5</ele>
        <time>2019-06-09T06:21:28.000Z</time>
      </trkpt>
      <trkpt lat="43.28687" lon="2.208">
        <ele>182.4</ele>
        <time>2019-06-09T06:21:29.000Z</time>
      </trkpt>
      <trkpt lat="43.28688" lon="2.20801">
        <ele>182.4</ele>
        <time>2019-06-09T06:21:30.000Z</time>
      </trkpt>
      <trkpt lat="43.28688" lon="2.20801">
        <ele>182.4</ele>
        <time>2019-06-09T06:21:31.000Z</time>
      </trkpt>
      <trkpt lat="43.28689" lon="2.20801">
        <ele>182.4</ele>
        <time>2019-06-09T06:21:32.000Z</time>
      </trkpt>
      <trkpt lat="43.28689" lon="2.20801">
        <ele>182.4</ele>
        <time>2019-06-09T06:21:33.000Z</time>
      </trkpt>
      <trkpt lat="43.28689" lon="2.20801">
        <ele>182.5</ele>
        <time>2019-06-09T06:21:34.000Z</time>
      </trkpt>
      <trkpt lat="43.28689" lon="2.20801">
        <ele>182.5</ele>
        <time>2019-06-09T06:21:35.000Z</time>
      </trkpt>
      <trkpt lat="43.2869" lon="2.20801">
        <ele>182.5</ele>
        <time>2019-06-09T06:21:36.000Z</time>
      </trkpt>
      <trkpt lat="43.2869" lon="2.20801">
        <ele>182.5</ele>
        <time>2019-06-09T06:21:37.000Z</time>
      </trkpt>
      <trkpt lat="43.2869" lon="2.208">
        <ele>182.5</ele>
        <time>2019-06-09T06:21:38.000Z</time>
      </trkpt>
      <trkpt lat="43.2869" lon="2.208">
        <ele>182.5</ele>
        <time>2019-06-09T06:21:39.000Z</time>
      </trkpt>
      <trkpt lat="43.2869" lon="2.208">
        <ele>182.5</ele>
        <time>2019-06-09T06:21:40.000Z</time>
      </trkpt>
      <trkpt lat="43.2869" lon="2.208">
        <ele>182.5</ele>
        <time>2019-06-09T06:21:41.000Z</time>
      </trkpt>
      <trkpt lat="43.2869" lon="2.20801">
        <ele>182.5</ele>
        <time>2019-06-09T06:21:42.000Z</time>
      </trkpt>
      <trkpt lat="43.2869" lon="2.20801">
        <ele>182.5</ele>
        <time>2019-06-09T06:21:43.000Z</time>
      </trkpt>
      <trkpt lat="43.28689" lon="2.20801">
        <ele>182.5</ele>
        <time>2019-06-09T06:21:44.000Z</time>
      </trkpt>
      <trkpt lat="43.28689" lon="2.20801">
        <ele>182.4</ele>
        <time>2019-06-09T06:21:45.000Z</time>
      </trkpt>
      <trkpt lat="43.28688" lon="2.20801">
        <ele>182.4</ele>
        <time>2019-06-09T06:21:46.000Z</time>
      </trkpt>
      <trkpt lat="43.28688" lon="2.208">
        <ele>182.5</ele>
        <time>2019-06-09T06:21:47.000Z</time>
      </trkpt>
      <trkpt lat="43.28688" lon="2.20799">
        <ele>182.5</ele>
        <time>2019-06-09T06:21:48.000Z</time>
      </trkpt>
      <trkpt lat="43.28687" lon="2.20798">
        <ele>182.5</ele>
        <time>2019-06-09T06:21:49.000Z</time>
      </trkpt>
      <trkpt lat="43.28687" lon="2.20797">
        <ele>182.5</ele>
        <time>2019-06-09T06:21:50.000Z</time>
      </trkpt>
      <trkpt lat="43.28687" lon="2.20797">
        <ele>182.5</ele>
        <time>2019-06-09T06:21:51.000Z</time>
      </trkpt>
      <trkpt lat="43.28686" lon="2.20796">
        <ele>182.5</ele>
        <time>2019-06-09T06:21:52.000Z</time>
      </trkpt>
      <trkpt lat="43.28686" lon="2.20796">
        <ele>182.5</ele>
        <time>2019-06-09T06:21:53.000Z</time>
      </trkpt>
      <trkpt lat="43.28685" lon="2.20795">
        <ele>182.5</ele>
        <time>2019-06-09T06:21:54.000Z</time>
      </trkpt>
      <trkpt lat="43.28685" lon="2.20795">
        <ele>182.5</ele>
        <time>2019-06-09T06:21:55.000Z</time>
      </trkpt>
      <trkpt lat="43.28684" lon="2.20794">
        <ele>182.5</ele>
        <time>2019-06-09T06:21:56.000Z</time>
      </trkpt>
      <trkpt lat="43.28684" lon="2.20794">
        <ele>182.5</ele>
        <time>2019-06-09T06:21:57.000Z</time>
      </trkpt>
      <trkpt lat="43.28683" lon="2.20794">
        <ele>182.6</ele>
        <time>2019-06-09T06:21:58.000Z</time>
      </trkpt>
      <trkpt lat="43.28683" lon="2.20793">
        <ele>182.6</ele>
        <time>2019-06-09T06:21:59.000Z</time>
      </trkpt>
      <trkpt lat="43.28683" lon="2.20793">
        <ele>182.6</ele>
        <time>2019-06-09T06:22:00.000Z</time>
      </trkpt>
      <trkpt lat="43.28683" lon="2.20792">
        <ele>182.6</ele>
        <time>2019-06-09T06:22:01.000Z</time>
      </trkpt>
      <trkpt lat="43.28683" lon="2.20791">
        <ele>182.6</ele>
        <time>2019-06-09T06:22:02.000Z</time>
      </trkpt>
      <trkpt lat="43.28683" lon="2.2079">
        <ele>182.6</ele>
        <time>2019-06-09T06:22:03.000Z</time>
      </trkpt>
      <trkpt lat="43.28684" lon="2.20789">
        <ele>182.7</ele>
        <time>2019-06-09T06:22:04.000Z</time>
      </trkpt>
      <trkpt lat="43.28684" lon="2.20788">
        <ele>182.7</ele>
        <time>2019-06-09T06:22:05.000Z</time>
      </trkpt>
      <trkpt lat="43.28685" lon="2.20787">
        <ele>182.7</ele>
        <time>2019-06-09T06:22:06.000Z</time>
      </trkpt>
      <trkpt lat="43.28685" lon="2.20785">
        <ele>182.8</ele>
        <time>2019-06-09T06:22:07.000Z</time>
      </trkpt>
      <trkpt lat="43.28686" lon="2.20784">
        <ele>182.8</ele>
        <time>2019-06-09T06:22:08.000Z</time>
      </trkpt>
      <trkpt lat="43.28686" lon="2.20783">
        <ele>182.8</ele>
        <time>2019-06-09T06:22:09.000Z</time>
      </trkpt>
      <trkpt lat="43.28687" lon="2.20782">
        <ele>182.8</ele>
        <time>2019-06-09T06:22:10.000Z</time>
      </trkpt>
      <trkpt lat="43.28688" lon="2.20782">
        <ele>182.8</ele>
        <time>2019-06-09T06:22:11.000Z</time>
      </trkpt>
      <trkpt lat="43.28688" lon="2.20781">
        <ele>182.8</ele>
        <time>2019-06-09T06:22:12.000Z</time>
      </trkpt>
      <trkpt lat="43.28689" lon="2.20781">
        <ele>182.8</ele>
        <time>2019-06-09T06:22:13.000Z</time>
      </trkpt>
      <trkpt lat="43.2869" lon="2.20781">
        <ele>182.8</ele>
        <time>2019-06-09T06:22:14.000Z</time>
      </trkpt>
      <trkpt lat="43.2869" lon="2.20781">
        <ele>182.8</ele>
        <time>2019-06-09T06:22:15.000Z</time>
      </trkpt>
      <trkpt lat="43.28691" lon="2.20781">
        <ele>182.8</ele>
        <time>2019-06-09T06:22:16.000Z</time>
      </trkpt>
      <trkpt lat="43.28692" lon="2.20782">
        <ele>182.8</ele>
        <time>2019-06-09T06:22:17.000Z</time>
      </trkpt>
      <trkpt lat="43.28692" lon="2.20782">
        <ele>182.8</ele>
        <time>2019-06-09T06:22:18.000Z</time>
      </trkpt>
      <trkpt lat="43.28693" lon="2.20783">
        <ele>182.8</ele>
        <time>2019-06-09T06:22:19.000Z</time>
      </trkpt>
      <trkpt lat="43.28693" lon="2.20783">
        <ele>182.8</ele>
        <time>2019-06-09T06:22:20.000Z</time>
      </trkpt>
      <trkpt lat="43.28694" lon="2.20783">
        <ele>182.8</ele>
        <time>2019-06-09T06:22:21.000Z</time>
      </trkpt>
      <trkpt lat="43.28694" lon="2.20783">
        <ele>182.8</ele>
        <time>2019-06-09T06:22:22.000Z</time>
      </trkpt>
      <trkpt lat="43.28694" lon="2.20784">
        <ele>182.8</ele>
        <time>2019-06-09T06:22:23.000Z</time>
      </trkpt>
      <trkpt lat="43.28694" lon="2.20784">
        <ele>182.8</ele>
        <time>2019-06-09T06:22:24.000Z</time>
      </trkpt>
      <trkpt lat="43.28694" lon="2.20784">
        <ele>182.8</ele>
        <time>2019-06-09T06:22:25.000Z</time>
      </trkpt>
      <trkpt lat="43.28694" lon="2.20784">
        <ele>182.8</ele>
        <time>2019-06-09T06:22:26.000Z</time>
      </trkpt>
      <trkpt lat="43.28694" lon="2.20784">
        <ele>182.8</ele>
        <time>2019-06-09T06:22:27.000Z</time>
      </trkpt>
      <trkpt lat="43.28694" lon="2.20784">
        <ele>182.8</ele>
        <time>2019-06-09T06:22:28.000Z</time>
      </trkpt>
      <trkpt lat="43.28694" lon="2.20784">
        <ele>182.8</ele>
        <time>2019-06-09T06:22:29.000Z</time>
      </trkpt>
      <trkpt lat="43.28694" lon="2.20784">
        <ele>182.8</ele>
        <time>2019-06-09T06:22:30.000Z</time>
      </trkpt>
      <trkpt lat="43.28694" lon="2.20784">
        <ele>182.8</ele>
        <time>2019-06-09T06:22:31.000Z</time>
      </trkpt>
      <trkpt lat="43.28694" lon="2.20783">
        <ele>182.8</ele>
        <time>2019-06-09T06:22:32.000Z</time>
      </trkpt>
      <trkpt lat="43.28694" lon="2.20783">
        <ele>182.8</ele>
        <time>2019-06-09T06:22:33.000Z</time>
      </trkpt>
      <trkpt lat="43.28694" lon="2.20783">
        <ele>182.8</ele>
        <time>2019-06-09T06:22:34.000Z</time>
      </trkpt>
      <trkpt lat="43.28694" lon="2.20783">
        <ele>182.8</ele>
        <time>2019-06-09T06:22:35.000Z</time>
      </trkpt>
      <trkpt lat="43.28694" lon="2.20783">
        <ele>182.8</ele>
        <time>2019-06-09T06:22:36.000Z</time>
      </trkpt>
      <trkpt lat="43.28693" lon="2.20783">
        <ele>182.8</ele>
        <time>2019-06-09T06:22:37.000Z</time>
      </trkpt>
      <trkpt lat="43.28692" lon="2.20783">
        <ele>182.8</ele>
        <time>2019-06-09T06:22:38.000Z</time>
      </trkpt>
      <trkpt lat="43.28691" lon="2.20782">
        <ele>182.8</ele>
        <time>2019-06-09T06:22:39.000Z</time>
      </trkpt>
      <trkpt lat="43.2869" lon="2.20782">
        <ele>182.8</ele>
        <time>2019-06-09T06:22:40.000Z</time>
      </trkpt>
      <trkpt lat="43.28689" lon="2.20782">
        <ele>182.8</ele>
        <time>2019-06-09T06:22:41.000Z</time>
      </trkpt>
      <trkpt lat="43.28688" lon="2.20781">
        <ele>182.8</ele>
        <time>2019-06-09T06:22:42.000Z</time>
      </trkpt>
      <trkpt lat="43.28687" lon="2.20781">
        <ele>182.9</ele>
        <time>2019-06-09T06:22:43.000Z</time>
      </trkpt>
      <trkpt lat="43.28686" lon="2.2078">
        <ele>182.9</ele>
        <time>2019-06-09T06:22:44.000Z</time>
      </trkpt>
      <trkpt lat="43.28685" lon="2.20779">
        <ele>182.9</ele>
        <time>2019-06-09T06:22:45.000Z</time>
      </trkpt>
      <trkpt lat="43.28684" lon="2.20778">
        <ele>182.9</ele>
        <time>2019-06-09T06:22:46.000Z</time>
      </trkpt>
      <trkpt lat="43.28683" lon="2.20777">
        <ele>182.9</ele>
        <time>2019-06-09T06:22:47.000Z</time>
      </trkpt>
      <trkpt lat="43.28683" lon="2.20776">
        <ele>183</ele>
        <time>2019-06-09T06:22:48.000Z</time>
      </trkpt>
      <trkpt lat="43.28682" lon="2.20776">
        <ele>183</ele>
        <time>2019-06-09T06:22:49.000Z</time>
      </trkpt>
      <trkpt lat="43.28681" lon="2.20775">
        <ele>183</ele>
        <time>2019-06-09T06:22:50.000Z</time>
      </trkpt>
      <trkpt lat="43.28681" lon="2.20774">
        <ele>183</ele>
        <time>2019-06-09T06:22:51.000Z</time>
      </trkpt>
      <trkpt lat="43.2868" lon="2.20774">
        <ele>183.1</ele>
        <time>2019-06-09T06:22:52.000Z</time>
      </trkpt>
      <trkpt lat="43.2868" lon="2.20773">
        <ele>183.1</ele>
        <time>2019-06-09T06:22:53.000Z</time>
      </trkpt>
      <trkpt lat="43.28679" lon="2.20773">
        <ele>183.1</ele>
        <time>2019-06-09T06:22:54.000Z</time>
      </trkpt>
      <trkpt lat="43.28678" lon="2.20773">
        <ele>183.1</ele>
        <time>2019-06-09T06:22:55.000Z</time>
      </trkpt>
      <trkpt lat="43.28678" lon="2.20773">
        <ele>183.1</ele>
        <time>2019-06-09T06:22:56.000Z</time>
      </trkpt>
      <trkpt lat="43.28678" lon="2.20772">
        <ele>183.1</ele>
        <time>2019-06-09T06:22:57.000Z</time>
      </trkpt>
      <trkpt lat="43.28677" lon="2.20772">
        <ele>183.1</ele>
        <time>2019-06-09T06:22:58.000Z</time>
      </trkpt>
      <trkpt lat="43.28677" lon="2.20771">
        <ele>183.2</ele>
        <time>2019-06-09T06:22:59.000Z</time>
      </trkpt>
      <trkpt lat="43.28676" lon="2.2077">
        <ele>183.2</ele>
        <time>2019-06-09T06:23:00.000Z</time>
      </trkpt>
      <trkpt lat="43.28676" lon="2.20769">
        <ele>183.2</ele>
        <time>2019-06-09T06:23:01.000Z</time>
      </trkpt>
      <trkpt lat="43.28676" lon="2.20768">
        <ele>183.2</ele>
        <time>2019-06-09T06:23:02.000Z</time>
      </trkpt>
      <trkpt lat="43.28676" lon="2.20767">
        <ele>183.3</ele>
        <time>2019-06-09T06:23:03.000Z</time>
      </trkpt>
      <trkpt lat="43.28676" lon="2.20766">
        <ele>183.3</ele>
        <time>2019-06-09T06:23:04.000Z</time>
      </trkpt>
      <trkpt lat="43.28676" lon="2.20765">
        <ele>183.3</ele>
        <time>2019-06-09T06:23:05.000Z</time>
      </trkpt>
      <trkpt lat="43.28676" lon="2.20764">
        <ele>183.4</ele>
        <time>2019-06-09T06:23:06.000Z</time>
      </trkpt>
      <trkpt lat="43.28677" lon="2.20764">
        <ele>183.4</ele>
        <time>2019-06-09T06:23:07.000Z</time>
      </trkpt>
      <trkpt lat="43.28678" lon="2.20763">
        <ele>183.4</ele>
        <time>2019-06-09T06:23:08.000Z</time>
      </trkpt>
      <trkpt lat="43.28679" lon="2.20763">
        <ele>183.4</ele>
        <time>2019-06-09T06:23:09.000Z</time>
      </trkpt>
      <trkpt lat="43.2868" lon="2.20762">
        <ele>183.3</ele>
        <time>2019-06-09T06:23:10.000Z</time>
      </trkpt>
      <trkpt lat="43.28682" lon="2.20762">
        <ele>183.3</ele>
        <time>2019-06-09T06:23:11.000Z</time>
      </trkpt>
      <trkpt lat="43.28683" lon="2.20762">
        <ele>183.3</ele>
        <time>2019-06-09T06:23:12.000Z</time>
      </trkpt>
      <trkpt lat="43.28685" lon="2.20761">
        <ele>183.3</ele>
        <time>2019-06-09T06:23:13.000Z</time>
      </trkpt>
      <trkpt lat="43.28686" lon="2.20761">
        <ele>183.3</ele>
        <time>2019-06-09T06:23:14.000Z</time>
      </trkpt>
      <trkpt lat="43.28688" lon="2.20761">
        <ele>183.3</ele>
        <time>2019-06-09T06:23:15.000Z</time>
      </trkpt>
      <trkpt lat="43.28689" lon="2.20761">
        <ele>183.3</ele>
        <time>2019-06-09T06:23:16.000Z</time>
      </trkpt>
      <trkpt lat="43.2869" lon="2.2076">
        <ele>183.2</ele>
        <time>2019-06-09T06:23:17.000Z</time>
      </trkpt>
      <trkpt lat="43.28692" lon="2.2076">
        <ele>183.2</ele>
        <time>2019-06-09T06:23:18.000Z</time>
      </trkpt>
      <trkpt lat="43.28693" lon="2.20759">
        <ele>183.2</ele>
        <time>2019-06-09T06:23:19.000Z</time>
      </trkpt>
      <trkpt lat="43.28694" lon="2.20759">
        <ele>183.2</ele>
        <time>2019-06-09T06:23:20.000Z</time>
      </trkpt>
      <trkpt lat="43.28695" lon="2.20758">
        <ele>183.2</ele>
        <time>2019-06-09T06:23:21.000Z</time>
      </trkpt>
      <trkpt lat="43.28697" lon="2.20757">
        <ele>183.2</ele>
        <time>2019-06-09T06:23:22.000Z</time>
      </trkpt>
      <trkpt lat="43.28698" lon="2.20757">
        <ele>183.2</ele>
        <time>2019-06-09T06:23:23.000Z</time>
      </trkpt>
      <trkpt lat="43.28699" lon="2.20756">
        <ele>183.1</ele>
        <time>2019-06-09T06:23:24.000Z</time>
      </trkpt>
      <trkpt lat="43.287" lon="2.20755">
        <ele>183.1</ele>
        <time>2019-06-09T06:23:25.000Z</time>
      </trkpt>
      <trkpt lat="43.28702" lon="2.20754">
        <ele>183.1</ele>
        <time>2019-06-09T06:23:26.000Z</time>
      </trkpt>
      <trkpt lat="43.28703" lon="2.20753">
        <ele>183.1</ele>
        <time>2019-06-09T06:23:27.000Z</time>
      </trkpt>
      <trkpt lat="43.28705" lon="2.20752">
        <ele>183.1</ele>
        <time>2019-06-09T06:23:28.000Z</time>
      </trkpt>
      <trkpt lat="43.28706" lon="2.20752">
        <ele>183</ele>
        <time>2019-06-09T06:23:29.000Z</time>
      </trkpt>
      <trkpt lat="43.28708" lon="2.20751">
        <ele>183</ele>
        <time>2019-06-09T06:23:30.000Z</time>
      </trkpt>
      <trkpt lat="43.2871" lon="2.2075">
        <ele>183</ele>
        <time>2019-06-09T06:23:31.000Z</time>
      </trkpt>
      <trkpt lat="43.28712" lon="2.20749">
        <ele>182.9</ele>
        <time>2019-06-09T06:23:32.000Z</time>
      </trkpt>
      <trkpt lat="43.28714" lon="2.20748">
        <ele>182.9</ele>
        <time>2019-06-09T06:23:33.000Z</time>
      </trkpt>
      <trkpt lat="43.28716" lon="2.20747">
        <ele>182.9</ele>
        <time>2019-06-09T06:23:34.000Z</time>
      </trkpt>
      <trkpt lat="43.28718" lon="2.20746">
        <ele>182.9</ele>
        <time>2019-06-09T06:23:35.000Z</time>
      </trkpt>
      <trkpt lat="43.2872" lon="2.20745">
        <ele>182.8</ele>
        <time>2019-06-09T06:23:36.000Z</time>
      </trkpt>
      <trkpt lat="43.28722" lon="2.20745">
        <ele>182.8</ele>
        <time>2019-06-09T06:23:37.000Z</time>
      </trkpt>
      <trkpt lat="43.28724" lon="2.20744">
        <ele>182.8</ele>
        <time>2019-06-09T06:23:38.000Z</time>
      </trkpt>
      <trkpt lat="43.28725" lon="2.20744">
        <ele>182.7</ele>
        <time>2019-06-09T06:23:39.000Z</time>
      </trkpt>
      <trkpt lat="43.28727" lon="2.20744">
        <ele>182.7</ele>
        <time>2019-06-09T06:23:40.000Z</time>
      </trkpt>
      <trkpt lat="43.28729" lon="2.20744">
        <ele>182.7</ele>
        <time>2019-06-09T06:23:41.000Z</time>
      </trkpt>
      <trkpt lat="43.2873" lon="2.20744">
        <ele>182.6</ele>
        <time>2019-06-09T06:23:42.000Z</time>
      </trkpt>
      <trkpt lat="43.28732" lon="2.20744">
        <ele>182.6</ele>
        <time>2019-06-09T06:23:43.000Z</time>
      </trkpt>
      <trkpt lat="43.28734" lon="2.20744">
        <ele>182.5</ele>
        <time>2019-06-09T06:23:44.000Z</time>
      </trkpt>
      <trkpt lat="43.28736" lon="2.20744">
        <ele>182.5</ele>
        <time>2019-06-09T06:23:45.000Z</time>
      </trkpt>
      <trkpt lat="43.28738" lon="2.20744">
        <ele>182.4</ele>
        <time>2019-06-09T06:23:46.000Z</time>
      </trkpt>
      <trkpt lat="43.2874" lon="2.20744">
        <ele>182.4</ele>
        <time>2019-06-09T06:23:47.000Z</time>
      </trkpt>
      <trkpt lat="43.28742" lon="2.20744">
        <ele>182.4</ele>
        <time>2019-06-09T06:23:48.000Z</time>
      </trkpt>
      <trkpt lat="43.28744" lon="2.20744">
        <ele>182.3</ele>
        <time>2019-06-09T06:23:49.000Z</time>
      </trkpt>
      <trkpt lat="43.28746" lon="2.20743">
        <ele>182.2</ele>
        <time>2019-06-09T06:23:50.000Z</time>
      </trkpt>
      <trkpt lat="43.28749" lon="2.20743">
        <ele>182.2</ele>
        <time>2019-06-09T06:23:51.000Z</time>
      </trkpt>
      <trkpt lat="43.28751" lon="2.20743">
        <ele>182.3</ele>
        <time>2019-06-09T06:23:52.000Z</time>
      </trkpt>
      <trkpt lat="43.28753" lon="2.20743">
        <ele>182.5</ele>
        <time>2019-06-09T06:23:53.000Z</time>
      </trkpt>
      <trkpt lat="43.28756" lon="2.20743">
        <ele>182.7</ele>
        <time>2019-06-09T06:23:54.000Z</time>
      </trkpt>
      <trkpt lat="43.28758" lon="2.20742">
        <ele>183</ele>
        <time>2019-06-09T06:23:55.000Z</time>
      </trkpt>
      <trkpt lat="43.2876" lon="2.20742">
        <ele>183.2</ele>
        <time>2019-06-09T06:23:56.000Z</time>
      </trkpt>
      <trkpt lat="43.28763" lon="2.20742">
        <ele>183.4</ele>
        <time>2019-06-09T06:23:57.000Z</time>
      </trkpt>
      <trkpt lat="43.28765" lon="2.20742">
        <ele>183.7</ele>
        <time>2019-06-09T06:23:58.000Z</time>
      </trkpt>
      <trkpt lat="43.28767" lon="2.20742">
        <ele>183.9</ele>
        <time>2019-06-09T06:23:59.000Z</time>
      </trkpt>
      <trkpt lat="43.2877" lon="2.20742">
        <ele>184.1</ele>
        <time>2019-06-09T06:24:00.000Z</time>
      </trkpt>
      <trkpt lat="43.28772" lon="2.20743">
        <ele>184.3</ele>
        <time>2019-06-09T06:24:01.000Z</time>
      </trkpt>
      <trkpt lat="43.28774" lon="2.20743">
        <ele>184.5</ele>
        <time>2019-06-09T06:24:02.000Z</time>
      </trkpt>
      <trkpt lat="43.28777" lon="2.20744">
        <ele>184.7</ele>
        <time>2019-06-09T06:24:03.000Z</time>
      </trkpt>
      <trkpt lat="43.28779" lon="2.20744">
        <ele>185</ele>
        <time>2019-06-09T06:24:04.000Z</time>
      </trkpt>
      <trkpt lat="43.28781" lon="2.20745">
        <ele>185.2</ele>
        <time>2019-06-09T06:24:05.000Z</time>
      </trkpt>
      <trkpt lat="43.28784" lon="2.20745">
        <ele>185.4</ele>
        <time>2019-06-09T06:24:06.000Z</time>
      </trkpt>
      <trkpt lat="43.28786" lon="2.20746">
        <ele>185.6</ele>
        <time>2019-06-09T06:24:07.000Z</time>
      </trkpt>
      <trkpt lat="43.28788" lon="2.20746">
        <ele>185.8</ele>
        <time>2019-06-09T06:24:08.000Z</time>
      </trkpt>
      <trkpt lat="43.2879" lon="2.20746">
        <ele>186</ele>
        <time>2019-06-09T06:24:09.000Z</time>
      </trkpt>
      <trkpt lat="43.28793" lon="2.20747">
        <ele>186.2</ele>
        <time>2019-06-09T06:24:10.000Z</time>
      </trkpt>
      <trkpt lat="43.28795" lon="2.20747">
        <ele>186.4</ele>
        <time>2019-06-09T06:24:11.000Z</time>
      </trkpt>
      <trkpt lat="43.28797" lon="2.20747">
        <ele>186.6</ele>
        <time>2019-06-09T06:24:12.000Z</time>
      </trkpt>
      <trkpt lat="43.28799" lon="2.20747">
        <ele>186.9</ele>
        <time>2019-06-09T06:24:13.000Z</time>
      </trkpt>
      <trkpt lat="43.28802" lon="2.20747">
        <ele>187.1</ele>
        <time>2019-06-09T06:24:14.000Z</time>
      </trkpt>
      <trkpt lat="43.28804" lon="2.20747">
        <ele>187.3</ele>
        <time>2019-06-09T06:24:15.000Z</time>
      </trkpt>
      <trkpt lat="43.28806" lon="2.20747">
        <ele>187.5</ele>
        <time>2019-06-09T06:24:16.000Z</time>
      </trkpt>
      <trkpt lat="43.28808" lon="2.20747">
        <ele>187.7</ele>
        <time>2019-06-09T06:24:17.000Z</time>
      </trkpt>
      <trkpt lat="43.2881" lon="2.20748">
        <ele>187.9</ele>
        <time>2019-06-09T06:24:18.000Z</time>
      </trkpt>
      <trkpt lat="43.28812" lon="2.20748">
        <ele>188.1</ele>
        <time>2019-06-09T06:24:19.000Z</time>
      </trkpt>
      <trkpt lat="43.28814" lon="2.20748">
        <ele>188.3</ele>
        <time>2019-06-09T06:24:20.000Z</time>
      </trkpt>
      <trkpt lat="43.28816" lon="2.20748">
        <ele>188.4</ele>
        <time>2019-06-09T06:24:21.000Z</time>
      </trkpt>
      <trkpt lat="43.28819" lon="2.20749">
        <ele>188.6</ele>
        <time>2019-06-09T06:24:22.000Z</time>
      </trkpt>
      <trkpt lat="43.28821" lon="2.20749">
        <ele>188.8</ele>
        <time>2019-06-09T06:24:23.000Z</time>
      </trkpt>
      <trkpt lat="43.28823" lon="2.20749">
        <ele>189</ele>
        <time>2019-06-09T06:24:24.000Z</time>
      </trkpt>
      <trkpt lat="43.28825" lon="2.2075">
        <ele>189.2</ele>
        <time>2019-06-09T06:24:25.000Z</time>
      </trkpt>
      <trkpt lat="43.28827" lon="2.2075">
        <ele>189.4</ele>
        <time>2019-06-09T06:24:26.000Z</time>
      </trkpt>
      <trkpt lat="43.28829" lon="2.2075">
        <ele>189.6</ele>
        <time>2019-06-09T06:24:27.000Z</time>
      </trkpt>
      <trkpt lat="43.28831" lon="2.20751">
        <ele>189.8</ele>
        <time>2019-06-09T06:24:28.000Z</time>
      </trkpt>
      <trkpt lat="43.28833" lon="2.20751">
        <ele>190.1</ele>
        <time>2019-06-09T06:24:29.000Z</time>
      </trkpt>
      <trkpt lat="43.28835" lon="2.20751">
        <ele>190.2</ele>
        <time>2019-06-09T06:24:30.000Z</time>
      </trkpt>
      <trkpt lat="43.28837" lon="2.20751">
        <ele>190.4</ele>
        <time>2019-06-09T06:24:31.000Z</time>
      </trkpt>
      <trkpt lat="43.28839" lon="2.20752">
        <ele>190.5</ele>
        <time>2019-06-09T06:24:32.000Z</time>
      </trkpt>
      <trkpt lat="43.28841" lon="2.20752">
        <ele>190.7</ele>
        <time>2019-06-09T06:24:33.000Z</time>
      </trkpt>
      <trkpt lat="43.28843" lon="2.20752">
        <ele>190.8</ele>
        <time>2019-06-09T06:24:34.000Z</time>
      </trkpt>
      <trkpt lat="43.28845" lon="2.20752">
        <ele>191</ele>
        <time>2019-06-09T06:24:35.000Z</time>
      </trkpt>
      <trkpt lat="43.28847" lon="2.20752">
        <ele>191.1</ele>
        <time>2019-06-09T06:24:36.000Z</time>
      </trkpt>
      <trkpt lat="43.28849" lon="2.20752">
        <ele>191.3</ele>
        <time>2019-06-09T06:24:37.000Z</time>
      </trkpt>
      <trkpt lat="43.28851" lon="2.20752">
        <ele>191.4</ele>
        <time>2019-06-09T06:24:38.000Z</time>
      </trkpt>
      <trkpt lat="43.28853" lon="2.20752">
        <ele>191.5</ele>
        <time>2019-06-09T06:24:39.000Z</time>
      </trkpt>
      <trkpt lat="43.28856" lon="2.20753">
        <ele>191.7</ele>
        <time>2019-06-09T06:24:40.000Z</time>
      </trkpt>
      <trkpt lat="43.28858" lon="2.20753">
        <ele>191.8</ele>
        <time>2019-06-09T06:24:41.000Z</time>
      </trkpt>
      <trkpt lat="43.2886" lon="2.20753">
        <ele>191.9</ele>
        <time>2019-06-09T06:24:42.000Z</time>
      </trkpt>
      <trkpt lat="43.28862" lon="2.20753">
        <ele>192.1</ele>
        <time>2019-06-09T06:24:43.000Z</time>
      </trkpt>
      <trkpt lat="43.28864" lon="2.20753">
        <ele>192.2</ele>
        <time>2019-06-09T06:24:44.000Z</time>
      </trkpt>
      <trkpt lat="43.28866" lon="2.20753">
        <ele>192.4</ele>
        <time>2019-06-09T06:24:45.000Z</time>
      </trkpt>
      <trkpt lat="43.28868" lon="2.20753">
        <ele>192.5</ele>
        <time>2019-06-09T06:24:46.000Z</time>
      </trkpt>
      <trkpt lat="43.28871" lon="2.20753">
        <ele>192.7</ele>
        <time>2019-06-09T06:24:47.000Z</time>
      </trkpt>
      <trkpt lat="43.28873" lon="2.20753">
        <ele>192.8</ele>
        <time>2019-06-09T06:24:48.000Z</time>
      </trkpt>
      <trkpt lat="43.28875" lon="2.20753">
        <ele>192.9</ele>
        <time>2019-06-09T06:24:49.000Z</time>
      </trkpt>
      <trkpt lat="43.28877" lon="2.20753">
        <ele>193.1</ele>
        <time>2019-06-09T06:24:50.000Z</time>
      </trkpt>
      <trkpt lat="43.28879" lon="2.20754">
        <ele>193.2</ele>
        <time>2019-06-09T06:24:51.000Z</time>
      </trkpt>
      <trkpt lat="43.28881" lon="2.20754">
        <ele>193.4</ele>
        <time>2019-06-09T06:24:52.000Z</time>
      </trkpt>
      <trkpt lat="43.28883" lon="2.20754">
        <ele>193.5</ele>
        <time>2019-06-09T06:24:53.000Z</time>
      </trkpt>
      <trkpt lat="43.28885" lon="2.20754">
        <ele>193.6</ele>
        <time>2019-06-09T06:24:54.000Z</time>
      </trkpt>
      <trkpt lat="43.28887" lon="2.20754">
        <ele>193.7</ele>
        <time>2019-06-09T06:24:55.000Z</time>
      </trkpt>
      <trkpt lat="43.28889" lon="2.20753">
        <ele>193.8</ele>
        <time>2019-06-09T06:24:56.000Z</time>
      </trkpt>
      <trkpt lat="43.28891" lon="2.20753">
        <ele>193.9</ele>
        <time>2019-06-09T06:24:57.000Z</time>
      </trkpt>
      <trkpt lat="43.28892" lon="2.20753">
        <ele>194</ele>
        <time>2019-06-09T06:24:58.000Z</time>
      </trkpt>
      <trkpt lat="43.28894" lon="2.20753">
        <ele>194</ele>
        <time>2019-06-09T06:24:59.000Z</time>
      </trkpt>
      <trkpt lat="43.28896" lon="2.20752">
        <ele>194.1</ele>
        <time>2019-06-09T06:25:00.000Z</time>
      </trkpt>
      <trkpt lat="43.28898" lon="2.20752">
        <ele>194.2</ele>
        <time>2019-06-09T06:25:01.000Z</time>
      </trkpt>
      <trkpt lat="43.289" lon="2.20752">
        <ele>194.2</ele>
        <time>2019-06-09T06:25:02.000Z</time>
      </trkpt>
      <trkpt lat="43.28902" lon="2.20751">
        <ele>194.3</ele>
        <time>2019-06-09T06:25:03.000Z</time>
      </trkpt>
      <trkpt lat="43.28905" lon="2.20751">
        <ele>194.4</ele>
        <time>2019-06-09T06:25:04.000Z</time>
      </trkpt>
      <trkpt lat="43.28907" lon="2.20751">
        <ele>194.5</ele>
        <time>2019-06-09T06:25:05.000Z</time>
      </trkpt>
      <trkpt lat="43.28909" lon="2.2075">
        <ele>194.6</ele>
        <time>2019-06-09T06:25:06.000Z</time>
      </trkpt>
      <trkpt lat="43.28912" lon="2.2075">
        <ele>194.7</ele>
        <time>2019-06-09T06:25:07.000Z</time>
      </trkpt>
      <trkpt lat="43.28914" lon="2.20749">
        <ele>194.9</ele>
        <time>2019-06-09T06:25:08.000Z</time>
      </trkpt>
      <trkpt lat="43.28916" lon="2.20749">
        <ele>195</ele>
        <time>2019-06-09T06:25:09.000Z</time>
      </trkpt>
      <trkpt lat="43.28919" lon="2.20748">
        <ele>195.2</ele>
        <time>2019-06-09T06:25:10.000Z</time>
      </trkpt>
      <trkpt lat="43.28921" lon="2.20748">
        <ele>195.3</ele>
        <time>2019-06-09T06:25:11.000Z</time>
      </trkpt>
      <trkpt lat="43.28923" lon="2.20747">
        <ele>195.4</ele>
        <time>2019-06-09T06:25:12.000Z</time>
      </trkpt>
      <trkpt lat="43.28925" lon="2.20747">
        <ele>195.5</ele>
        <time>2019-06-09T06:25:13.000Z</time>
      </trkpt>
      <trkpt lat="43.28928" lon="2.20746">
        <ele>195.6</ele>
        <time>2019-06-09T06:25:14.000Z</time>
      </trkpt>
      <trkpt lat="43.2893" lon="2.20746">
        <ele>195.7</ele>
        <time>2019-06-09T06:25:15.000Z</time>
      </trkpt>
      <trkpt lat="43.28932" lon="2.20745">
        <ele>195.9</ele>
        <time>2019-06-09T06:25:16.000Z</time>
      </trkpt>
      <trkpt lat="43.28934" lon="2.20745">
        <ele>196</ele>
        <time>2019-06-09T06:25:17.000Z</time>
      </trkpt>
      <trkpt lat="43.28937" lon="2.20744">
        <ele>196.1</ele>
        <time>2019-06-09T06:25:18.000Z</time>
      </trkpt>
      <trkpt lat="43.28939" lon="2.20744">
        <ele>196.2</ele>
        <time>2019-06-09T06:25:19.000Z</time>
      </trkpt>
      <trkpt lat="43.28941" lon="2.20743">
        <ele>196.3</ele>
        <time>2019-06-09T06:25:20.000Z</time>
      </trkpt>
      <trkpt lat="43.28944" lon="2.20743">
        <ele>196.4</ele>
        <time>2019-06-09T06:25:21.000Z</time>
      </trkpt>
      <trkpt lat="43.28946" lon="2.20743">
        <ele>196.5</ele>
        <time>2019-06-09T06:25:22.000Z</time>
      </trkpt>
      <trkpt lat="43.28948" lon="2.20743">
        <ele>196.6</ele>
        <time>2019-06-09T06:25:23.000Z</time>
      </trkpt>
      <trkpt lat="43.2895" lon="2.20742">
        <ele>196.7</ele>
        <time>2019-06-09T06:25:24.000Z</time>
      </trkpt>
      <trkpt lat="43.28952" lon="2.20742">
        <ele>196.7</ele>
        <time>2019-06-09T06:25:25.000Z</time>
      </trkpt>
      <trkpt lat="43.28954" lon="2.20742">
        <ele>196.8</ele>
        <time>2019-06-09T06:25:26.000Z</time>
      </trkpt>
      <trkpt lat="43.28956" lon="2.20743">
        <ele>196.9</ele>
        <time>2019-06-09T06:25:27.000Z</time>
      </trkpt>
      <trkpt lat="43.28958" lon="2.20743">
        <ele>197</ele>
        <time>2019-06-09T06:25:28.000Z</time>
      </trkpt>
      <trkpt lat="43.2896" lon="2.20743">
        <ele>197.1</ele>
        <time>2019-06-09T06:25:29.000Z</time>
      </trkpt>
      <trkpt lat="43.28962" lon="2.20743">
        <ele>197.2</ele>
        <time>2019-06-09T06:25:30.000Z</time>
      </trkpt>
      <trkpt lat="43.28964" lon="2.20743">
        <ele>197.2</ele>
        <time>2019-06-09T06:25:31.000Z</time>
      </trkpt>
      <trkpt lat="43.28966" lon="2.20744">
        <ele>197.3</ele>
        <time>2019-06-09T06:25:32.000Z</time>
      </trkpt>
      <trkpt lat="43.28968" lon="2.20744">
        <ele>197.4</ele>
        <time>2019-06-09T06:25:33.000Z</time>
      </trkpt>
      <trkpt lat="43.2897" lon="2.20744">
        <ele>197.5</ele>
        <time>2019-06-09T06:25:34.000Z</time>
      </trkpt>
      <trkpt lat="43.28972" lon="2.20744">
        <ele>197.6</ele>
        <time>2019-06-09T06:25:35.000Z</time>
      </trkpt>
      <trkpt lat="43.28975" lon="2.20745">
        <ele>197.7</ele>
        <time>2019-06-09T06:25:36.000Z</time>
      </trkpt>
      <trkpt lat="43.28977" lon="2.20745">
        <ele>197.8</ele>
        <time>2019-06-09T06:25:37.000Z</time>
      </trkpt>
      <trkpt lat="43.28979" lon="2.20745">
        <ele>197.9</ele>
        <time>2019-06-09T06:25:38.000Z</time>
      </trkpt>
      <trkpt lat="43.28981" lon="2.20745">
        <ele>198</ele>
        <time>2019-06-09T06:25:39.000Z</time>
      </trkpt>
      <trkpt lat="43.28984" lon="2.20745">
        <ele>198.1</ele>
        <time>2019-06-09T06:25:40.000Z</time>
      </trkpt>
      <trkpt lat="43.28986" lon="2.20746">
        <ele>198.2</ele>
        <time>2019-06-09T06:25:41.000Z</time>
      </trkpt>
      <trkpt lat="43.28988" lon="2.20746">
        <ele>198.3</ele>
        <time>2019-06-09T06:25:42.000Z</time>
      </trkpt>
      <trkpt lat="43.2899" lon="2.20746">
        <ele>198.4</ele>
        <time>2019-06-09T06:25:43.000Z</time>
      </trkpt>
      <trkpt lat="43.28993" lon="2.20746">
        <ele>198.5</ele>
        <time>2019-06-09T06:25:44.000Z</time>
      </trkpt>
      <trkpt lat="43.28995" lon="2.20746">
        <ele>198.6</ele>
        <time>2019-06-09T06:25:45.000Z</time>
      </trkpt>
      <trkpt lat="43.28997" lon="2.20746">
        <ele>198.7</ele>
        <time>2019-06-09T06:25:46.000Z</time>
      </trkpt>
      <trkpt lat="43.28999" lon="2.20746">
        <ele>198.8</ele>
        <time>2019-06-09T06:25:47.000Z</time>
      </trkpt>
      <trkpt lat="43.29002" lon="2.20746">
        <ele>199</ele>
        <time>2019-06-09T06:25:48.000Z</time>
      </trkpt>
      <trkpt lat="43.29004" lon="2.20746">
        <ele>199.2</ele>
        <time>2019-06-09T06:25:49.000Z</time>
      </trkpt>
      <trkpt lat="43.29006" lon="2.20746">
        <ele>199.4</ele>
        <time>2019-06-09T06:25:50.000Z</time>
      </trkpt>
      <trkpt lat="43.29009" lon="2.20746">
        <ele>199.6</ele>
        <time>2019-06-09T06:25:51.000Z</time>
      </trkpt>
      <trkpt lat="43.29011" lon="2.20746">
        <ele>199.7</ele>
        <time>2019-06-09T06:25:52.000Z</time>
      </trkpt>
      <trkpt lat="43.29013" lon="2.20746">
        <ele>199.9</ele>
        <time>2019-06-09T06:25:53.000Z</time>
      </trkpt>
      <trkpt lat="43.29015" lon="2.20746">
        <ele>200.1</ele>
        <time>2019-06-09T06:25:54.000Z</time>
      </trkpt>
      <trkpt lat="43.29018" lon="2.20746">
        <ele>200.3</ele>
        <time>2019-06-09T06:25:55.000Z</time>
      </trkpt>
      <trkpt lat="43.2902" lon="2.20745">
        <ele>200.4</ele>
        <time>2019-06-09T06:25:56.000Z</time>
      </trkpt>
      <trkpt lat="43.29022" lon="2.20745">
        <ele>200.6</ele>
        <time>2019-06-09T06:25:57.000Z</time>
      </trkpt>
      <trkpt lat="43.29024" lon="2.20745">
        <ele>200.8</ele>
        <time>2019-06-09T06:25:58.000Z</time>
      </trkpt>
      <trkpt lat="43.29027" lon="2.20745">
        <ele>200.9</ele>
        <time>2019-06-09T06:25:59.000Z</time>
      </trkpt>
      <trkpt lat="43.29029" lon="2.20744">
        <ele>201.1</ele>
        <time>2019-06-09T06:26:00.000Z</time>
      </trkpt>
      <trkpt lat="43.29031" lon="2.20744">
        <ele>201.3</ele>
        <time>2019-06-09T06:26:01.000Z</time>
      </trkpt>
      <trkpt lat="43.29033" lon="2.20744">
        <ele>201.5</ele>
        <time>2019-06-09T06:26:02.000Z</time>
      </trkpt>
      <trkpt lat="43.29036" lon="2.20743">
        <ele>201.6</ele>
        <time>2019-06-09T06:26:03.000Z</time>
      </trkpt>
      <trkpt lat="43.29038" lon="2.20743">
        <ele>201.8</ele>
        <time>2019-06-09T06:26:04.000Z</time>
      </trkpt>
      <trkpt lat="43.2904" lon="2.20742">
        <ele>201.9</ele>
        <time>2019-06-09T06:26:05.000Z</time>
      </trkpt>
      <trkpt lat="43.29043" lon="2.20742">
        <ele>202.1</ele>
        <time>2019-06-09T06:26:06.000Z</time>
      </trkpt>
      <trkpt lat="43.29045" lon="2.20741">
        <ele>202.3</ele>
        <time>2019-06-09T06:26:07.000Z</time>
      </trkpt>
      <trkpt lat="43.29047" lon="2.20741">
        <ele>202.4</ele>
        <time>2019-06-09T06:26:08.000Z</time>
      </trkpt>
      <trkpt lat="43.2905" lon="2.2074">
        <ele>202.5</ele>
        <time>2019-06-09T06:26:09.000Z</time>
      </trkpt>
      <trkpt lat="43.29052" lon="2.2074">
        <ele>202.7</ele>
        <time>2019-06-09T06:26:10.000Z</time>
      </trkpt>
      <trkpt lat="43.29055" lon="2.20739">
        <ele>202.8</ele>
        <time>2019-06-09T06:26:11.000Z</time>
      </trkpt>
      <trkpt lat="43.29057" lon="2.20738">
        <ele>202.9</ele>
        <time>2019-06-09T06:26:12.000Z</time>
      </trkpt>
      <trkpt lat="43.29059" lon="2.20737">
        <ele>203.1</ele>
        <time>2019-06-09T06:26:13.000Z</time>
      </trkpt>
      <trkpt lat="43.29062" lon="2.20736">
        <ele>203.2</ele>
        <time>2019-06-09T06:26:14.000Z</time>
      </trkpt>
      <trkpt lat="43.29064" lon="2.20735">
        <ele>203.3</ele>
        <time>2019-06-09T06:26:15.000Z</time>
      </trkpt>
      <trkpt lat="43.29066" lon="2.20734">
        <ele>203.4</ele>
        <time>2019-06-09T06:26:16.000Z</time>
      </trkpt>
      <trkpt lat="43.29069" lon="2.20732">
        <ele>203.4</ele>
        <time>2019-06-09T06:26:17.000Z</time>
      </trkpt>
      <trkpt lat="43.29071" lon="2.20731">
        <ele>203.5</ele>
        <time>2019-06-09T06:26:18.000Z</time>
      </trkpt>
      <trkpt lat="43.29073" lon="2.2073">
        <ele>203.5</ele>
        <time>2019-06-09T06:26:19.000Z</time>
      </trkpt>
      <trkpt lat="43.29076" lon="2.20728">
        <ele>203.6</ele>
        <time>2019-06-09T06:26:20.000Z</time>
      </trkpt>
      <trkpt lat="43.29078" lon="2.20726">
        <ele>203.6</ele>
        <time>2019-06-09T06:26:21.000Z</time>
      </trkpt>
      <trkpt lat="43.2908" lon="2.20725">
        <ele>203.6</ele>
        <time>2019-06-09T06:26:22.000Z</time>
      </trkpt>
      <trkpt lat="43.29082" lon="2.20723">
        <ele>203.6</ele>
        <time>2019-06-09T06:26:23.000Z</time>
      </trkpt>
      <trkpt lat="43.29085" lon="2.20721">
        <ele>203.7</ele>
        <time>2019-06-09T06:26:24.000Z</time>
      </trkpt>
      <trkpt lat="43.29087" lon="2.20719">
        <ele>203.7</ele>
        <time>2019-06-09T06:26:25.000Z</time>
      </trkpt>
      <trkpt lat="43.29089" lon="2.20717">
        <ele>203.8</ele>
        <time>2019-06-09T06:26:26.000Z</time>
      </trkpt>
      <trkpt lat="43.29091" lon="2.20715">
        <ele>203.9</ele>
        <time>2019-06-09T06:26:27.000Z</time>
      </trkpt>
      <trkpt lat="43.29093" lon="2.20713">
        <ele>203.9</ele>
        <time>2019-06-09T06:26:28.000Z</time>
      </trkpt>
      <trkpt lat="43.29096" lon="2.20711">
        <ele>204</ele>
        <time>2019-06-09T06:26:29.000Z</time>
      </trkpt>
      <trkpt lat="43.29098" lon="2.20709">
        <ele>204</ele>
        <time>2019-06-09T06:26:30.000Z</time>
      </trkpt>
      <trkpt lat="43.291" lon="2.20707">
        <ele>204.1</ele>
        <time>2019-06-09T06:26:31.000Z</time>
      </trkpt>
      <trkpt lat="43.29102" lon="2.20705">
        <ele>204.1</ele>
        <time>2019-06-09T06:26:32.000Z</time>
      </trkpt>
      <trkpt lat="43.29104" lon="2.20703">
        <ele>204.2</ele>
        <time>2019-06-09T06:26:33.000Z</time>
      </trkpt>
      <trkpt lat="43.29107" lon="2.20701">
        <ele>204.2</ele>
        <time>2019-06-09T06:26:34.000Z</time>
      </trkpt>
      <trkpt lat="43.29109" lon="2.20699">
        <ele>204.3</ele>
        <time>2019-06-09T06:26:35.000Z</time>
      </trkpt>
      <trkpt lat="43.29111" lon="2.20697">
        <ele>204.4</ele>
        <time>2019-06-09T06:26:36.000Z</time>
      </trkpt>
      <trkpt lat="43.29113" lon="2.20695">
        <ele>204.5</ele>
        <time>2019-06-09T06:26:37.000Z</time>
      </trkpt>
      <trkpt lat="43.29115" lon="2.20693">
        <ele>204.5</ele>
        <time>2019-06-09T06:26:38.000Z</time>
      </trkpt>
      <trkpt lat="43.29118" lon="2.20691">
        <ele>204.6</ele>
        <time>2019-06-09T06:26:39.000Z</time>
      </trkpt>
      <trkpt lat="43.2912" lon="2.20689">
        <ele>204.7</ele>
        <time>2019-06-09T06:26:40.000Z</time>
      </trkpt>
      <trkpt lat="43.29122" lon="2.20688">
        <ele>204.8</ele>
        <time>2019-06-09T06:26:41.000Z</time>
      </trkpt>
      <trkpt lat="43.29124" lon="2.20686">
        <ele>204.9</ele>
        <time>2019-06-09T06:26:42.000Z</time>
      </trkpt>
      <trkpt lat="43.29126" lon="2.20685">
        <ele>205</ele>
        <time>2019-06-09T06:26:43.000Z</time>
      </trkpt>
      <trkpt lat="43.29129" lon="2.20683">
        <ele>205.2</ele>
        <time>2019-06-09T06:26:44.000Z</time>
      </trkpt>
      <trkpt lat="43.29131" lon="2.20682">
        <ele>205.3</ele>
        <time>2019-06-09T06:26:45.000Z</time>
      </trkpt>
      <trkpt lat="43.29133" lon="2.20681">
        <ele>205.5</ele>
        <time>2019-06-09T06:26:46.000Z</time>
      </trkpt>
      <trkpt lat="43.29136" lon="2.20679">
        <ele>205.6</ele>
        <time>2019-06-09T06:26:47.000Z</time>
      </trkpt>
      <trkpt lat="43.29138" lon="2.20678">
        <ele>205.8</ele>
        <time>2019-06-09T06:26:48.000Z</time>
      </trkpt>
      <trkpt lat="43.2914" lon="2.20678">
        <ele>206</ele>
        <time>2019-06-09T06:26:49.000Z</time>
      </trkpt>
      <trkpt lat="43.29143" lon="2.20677">
        <ele>206.2</ele>
        <time>2019-06-09T06:26:50.000Z</time>
      </trkpt>
      <trkpt lat="43.29145" lon="2.20676">
        <ele>206.4</ele>
        <time>2019-06-09T06:26:51.000Z</time>
      </trkpt>
      <trkpt lat="43.29148" lon="2.20676">
        <ele>206.6</ele>
        <time>2019-06-09T06:26:52.000Z</time>
      </trkpt>
      <trkpt lat="43.2915" lon="2.20675">
        <ele>206.9</ele>
        <time>2019-06-09T06:26:53.000Z</time>
      </trkpt>
      <trkpt lat="43.29153" lon="2.20675">
        <ele>207.1</ele>
        <time>2019-06-09T06:26:54.000Z</time>
      </trkpt>
      <trkpt lat="43.29155" lon="2.20675">
        <ele>207.4</ele>
        <time>2019-06-09T06:26:55.000Z</time>
      </trkpt>
      <trkpt lat="43.29158" lon="2.20675">
        <ele>207.6</ele>
        <time>2019-06-09T06:26:56.000Z</time>
      </trkpt>
      <trkpt lat="43.2916" lon="2.20675">
        <ele>207.9</ele>
        <time>2019-06-09T06:26:57.000Z</time>
      </trkpt>
      <trkpt lat="43.29163" lon="2.20675">
        <ele>208.2</ele>
        <time>2019-06-09T06:26:58.000Z</time>
      </trkpt>
      <trkpt lat="43.29165" lon="2.20675">
        <ele>208.5</ele>
        <time>2019-06-09T06:26:59.000Z</time>
      </trkpt>
      <trkpt lat="43.29168" lon="2.20676">
        <ele>208.8</ele>
        <time>2019-06-09T06:27:00.000Z</time>
      </trkpt>
      <trkpt lat="43.29171" lon="2.20676">
        <ele>209</ele>
        <time>2019-06-09T06:27:01.000Z</time>
      </trkpt>
      <trkpt lat="43.29173" lon="2.20677">
        <ele>209.3</ele>
        <time>2019-06-09T06:27:02.000Z</time>
      </trkpt>
      <trkpt lat="43.29176" lon="2.20678">
        <ele>209.6</ele>
        <time>2019-06-09T06:27:03.000Z</time>
      </trkpt>
      <trkpt lat="43.29178" lon="2.20678">
        <ele>209.9</ele>
        <time>2019-06-09T06:27:04.000Z</time>
      </trkpt>
      <trkpt lat="43.29181" lon="2.20679">
        <ele>210.1</ele>
        <time>2019-06-09T06:27:05.000Z</time>
      </trkpt>
      <trkpt lat="43.29183" lon="2.2068">
        <ele>210.4</ele>
        <time>2019-06-09T06:27:06.000Z</time>
      </trkpt>
      <trkpt lat="43.29186" lon="2.20681">
        <ele>210.7</ele>
        <time>2019-06-09T06:27:07.000Z</time>
      </trkpt>
      <trkpt lat="43.29188" lon="2.20682">
        <ele>210.9</ele>
        <time>2019-06-09T06:27:08.000Z</time>
      </trkpt>
      <trkpt lat="43.2919" lon="2.20683">
        <ele>211.2</ele>
        <time>2019-06-09T06:27:09.000Z</time>
      </trkpt>
      <trkpt lat="43.29192" lon="2.20684">
        <ele>211.4</ele>
        <time>2019-06-09T06:27:10.000Z</time>
      </trkpt>
      <trkpt lat="43.29194" lon="2.20685">
        <ele>211.6</ele>
        <time>2019-06-09T06:27:11.000Z</time>
      </trkpt>
      <trkpt lat="43.29196" lon="2.20686">
        <ele>211.8</ele>
        <time>2019-06-09T06:27:12.000Z</time>
      </trkpt>
      <trkpt lat="43.29197" lon="2.20687">
        <ele>211.9</ele>
        <time>2019-06-09T06:27:13.000Z</time>
      </trkpt>
      <trkpt lat="43.29198" lon="2.20688">
        <ele>212.1</ele>
        <time>2019-06-09T06:27:14.000Z</time>
      </trkpt>
      <trkpt lat="43.292" lon="2.20689">
        <ele>212.2</ele>
        <time>2019-06-09T06:27:15.000Z</time>
      </trkpt>
      <trkpt lat="43.29201" lon="2.2069">
        <ele>212.4</ele>
        <time>2019-06-09T06:27:16.000Z</time>
      </trkpt>
      <trkpt lat="43.29202" lon="2.20691">
        <ele>212.5</ele>
        <time>2019-06-09T06:27:17.000Z</time>
      </trkpt>
      <trkpt lat="43.29203" lon="2.20692">
        <ele>212.6</ele>
        <time>2019-06-09T06:27:18.000Z</time>
      </trkpt>
      <trkpt lat="43.29204" lon="2.20693">
        <ele>212.7</ele>
        <time>2019-06-09T06:27:19.000Z</time>
      </trkpt>
      <trkpt lat="43.29205" lon="2.20694">
        <ele>212.8</ele>
        <time>2019-06-09T06:27:20.000Z</time>
      </trkpt>
      <trkpt lat="43.29206" lon="2.20694">
        <ele>212.9</ele>
        <time>2019-06-09T06:27:21.000Z</time>
      </trkpt>
      <trkpt lat="43.29207" lon="2.20695">
        <ele>213.1</ele>
        <time>2019-06-09T06:27:22.000Z</time>
      </trkpt>
      <trkpt lat="43.29208" lon="2.20696">
        <ele>213.2</ele>
        <time>2019-06-09T06:27:23.000Z</time>
      </trkpt>
      <trkpt lat="43.29209" lon="2.20697">
        <ele>213.3</ele>
        <time>2019-06-09T06:27:24.000Z</time>
      </trkpt>
      <trkpt lat="43.2921" lon="2.20698">
        <ele>213.4</ele>
        <time>2019-06-09T06:27:25.000Z</time>
      </trkpt>
      <trkpt lat="43.2921" lon="2.20699">
        <ele>213.5</ele>
        <time>2019-06-09T06:27:26.000Z</time>
      </trkpt>
      <trkpt lat="43.29211" lon="2.20699">
        <ele>213.6</ele>
        <time>2019-06-09T06:27:27.000Z</time>
      </trkpt>
      <trkpt lat="43.29212" lon="2.207">
        <ele>213.6</ele>
        <time>2019-06-09T06:27:28.000Z</time>
      </trkpt>
      <trkpt lat="43.29212" lon="2.20701">
        <ele>213.7</ele>
        <time>2019-06-09T06:27:29.000Z</time>
      </trkpt>
      <trkpt lat="43.29213" lon="2.20701">
        <ele>213.8</ele>
        <time>2019-06-09T06:27:30.000Z</time>
      </trkpt>
      <trkpt lat="43.29213" lon="2.20702">
        <ele>213.8</ele>
        <time>2019-06-09T06:27:31.000Z</time>
      </trkpt>
      <trkpt lat="43.29214" lon="2.20702">
        <ele>213.9</ele>
        <time>2019-06-09T06:27:32.000Z</time>
      </trkpt>
      <trkpt lat="43.29215" lon="2.20703">
        <ele>214</ele>
        <time>2019-06-09T06:27:33.000Z</time>
      </trkpt>
      <trkpt lat="43.29215" lon="2.20704">
        <ele>214</ele>
        <time>2019-06-09T06:27:34.000Z</time>
      </trkpt>
      <trkpt lat="43.29216" lon="2.20704">
        <ele>214.1</ele>
        <time>2019-06-09T06:27:35.000Z</time>
      </trkpt>
      <trkpt lat="43.29217" lon="2.20705">
        <ele>214.2</ele>
        <time>2019-06-09T06:27:36.000Z</time>
      </trkpt>
      <trkpt lat="43.29218" lon="2.20706">
        <ele>214.3</ele>
        <time>2019-06-09T06:27:37.000Z</time>
      </trkpt>
      <trkpt lat="43.29219" lon="2.20707">
        <ele>214.4</ele>
        <time>2019-06-09T06:27:38.000Z</time>
      </trkpt>
      <trkpt lat="43.2922" lon="2.20708">
        <ele>214.5</ele>
        <time>2019-06-09T06:27:39.000Z</time>
      </trkpt>
      <trkpt lat="43.29221" lon="2.20708">
        <ele>214.6</ele>
        <time>2019-06-09T06:27:40.000Z</time>
      </trkpt>
      <trkpt lat="43.29222" lon="2.20709">
        <ele>214.7</ele>
        <time>2019-06-09T06:27:41.000Z</time>
      </trkpt>
      <trkpt lat="43.29223" lon="2.20709">
        <ele>214.7</ele>
        <time>2019-06-09T06:27:42.000Z</time>
      </trkpt>
      <trkpt lat="43.29224" lon="2.2071">
        <ele>214.8</ele>
        <time>2019-06-09T06:27:43.000Z</time>
      </trkpt>
      <trkpt lat="43.29224" lon="2.2071">
        <ele>214.8</ele>
        <time>2019-06-09T06:27:44.000Z</time>
      </trkpt>
      <trkpt lat="43.29224" lon="2.2071">
        <ele>214.8</ele>
        <time>2019-06-09T06:27:45.000Z</time>
      </trkpt>
      <trkpt lat="43.29224" lon="2.2071">
        <ele>214.9</ele>
        <time>2019-06-09T06:27:46.000Z</time>
      </trkpt>
      <trkpt lat="43.29225" lon="2.2071">
        <ele>214.9</ele>
        <time>2019-06-09T06:27:47.000Z</time>
      </trkpt>
      <trkpt lat="43.29225" lon="2.2071">
        <ele>214.9</ele>
        <time>2019-06-09T06:27:48.000Z</time>
      </trkpt>
      <trkpt lat="43.29225" lon="2.2071">
        <ele>214.9</ele>
        <time>2019-06-09T06:27:49.000Z</time>
      </trkpt>
      <trkpt lat="43.29225" lon="2.2071">
        <ele>214.9</ele>
        <time>2019-06-09T06:27:50.000Z</time>
      </trkpt>
      <trkpt lat="43.29225" lon="2.2071">
        <ele>214.9</ele>
        <time>2019-06-09T06:27:51.000Z</time>
      </trkpt>
      <trkpt lat="43.29225" lon="2.2071">
        <ele>214.9</ele>
        <time>2019-06-09T06:27:52.000Z</time>
      </trkpt>
      <trkpt lat="43.29225" lon="2.2071">
        <ele>214.9</ele>
        <time>2019-06-09T06:27:53.000Z</time>
      </trkpt>
      <trkpt lat="43.29225" lon="2.20709">
        <ele>214.9</ele>
        <time>2019-06-09T06:27:54.000Z</time>
      </trkpt>
      <trkpt lat="43.29225" lon="2.20709">
        <ele>214.9</ele>
        <time>2019-06-09T06:27:55.000Z</time>
      </trkpt>
      <trkpt lat="43.29226" lon="2.20709">
        <ele>214.9</ele>
        <time>2019-06-09T06:27:56.000Z</time>
      </trkpt>
      <trkpt lat="43.29226" lon="2.20708">
        <ele>214.9</ele>
        <time>2019-06-09T06:27:57.000Z</time>
      </trkpt>
      <trkpt lat="43.29227" lon="2.20708">
        <ele>214.9</ele>
        <time>2019-06-09T06:27:58.000Z</time>
      </trkpt>
      <trkpt lat="43.29227" lon="2.20708">
        <ele>214.9</ele>
        <time>2019-06-09T06:27:59.000Z</time>
      </trkpt>
      <trkpt lat="43.29227" lon="2.20708">
        <ele>214.9</ele>
        <time>2019-06-09T06:28:00.000Z</time>
      </trkpt>
      <trkpt lat="43.29227" lon="2.20707">
        <ele>214.9</ele>
        <time>2019-06-09T06:28:01.000Z</time>
      </trkpt>
      <trkpt lat="43.29227" lon="2.20707">
        <ele>214.9</ele>
        <time>2019-06-09T06:28:02.000Z</time>
      </trkpt>
      <trkpt lat="43.29227" lon="2.20706">
        <ele>214.9</ele>
        <time>2019-06-09T06:28:03.000Z</time>
      </trkpt>
      <trkpt lat="43.29227" lon="2.20705">
        <ele>214.9</ele>
        <time>2019-06-09T06:28:04.000Z</time>
      </trkpt>
      <trkpt lat="43.29228" lon="2.20703">
        <ele>214.9</ele>
        <time>2019-06-09T06:28:05.000Z</time>
      </trkpt>
      <trkpt lat="43.29228" lon="2.20702">
        <ele>214.9</ele>
        <time>2019-06-09T06:28:06.000Z</time>
      </trkpt>
      <trkpt lat="43.29228" lon="2.20701">
        <ele>214.8</ele>
        <time>2019-06-09T06:28:07.000Z</time>
      </trkpt>
      <trkpt lat="43.29229" lon="2.20699">
        <ele>214.8</ele>
        <time>2019-06-09T06:28:08.000Z</time>
      </trkpt>
      <trkpt lat="43.29229" lon="2.20698">
        <ele>214.8</ele>
        <time>2019-06-09T06:28:09.000Z</time>
      </trkpt>
      <trkpt lat="43.29229" lon="2.20697">
        <ele>214.8</ele>
        <time>2019-06-09T06:28:10.000Z</time>
      </trkpt>
      <trkpt lat="43.29229" lon="2.20695">
        <ele>214.8</ele>
        <time>2019-06-09T06:28:11.000Z</time>
      </trkpt>
      <trkpt lat="43.29229" lon="2.20694">
        <ele>214.7</ele>
        <time>2019-06-09T06:28:12.000Z</time>
      </trkpt>
      <trkpt lat="43.29229" lon="2.20693">
        <ele>214.7</ele>
        <time>2019-06-09T06:28:13.000Z</time>
      </trkpt>
      <trkpt lat="43.29229" lon="2.20691">
        <ele>214.7</ele>
        <time>2019-06-09T06:28:14.000Z</time>
      </trkpt>
      <trkpt lat="43.2923" lon="2.2069">
        <ele>214.7</ele>
        <time>2019-06-09T06:28:15.000Z</time>
      </trkpt>
      <trkpt lat="43.2923" lon="2.20689">
        <ele>214.6</ele>
        <time>2019-06-09T06:28:16.000Z</time>
      </trkpt>
      <trkpt lat="43.2923" lon="2.20687">
        <ele>214.6</ele>
        <time>2019-06-09T06:28:17.000Z</time>
      </trkpt>
      <trkpt lat="43.2923" lon="2.20686">
        <ele>214.6</ele>
        <time>2019-06-09T06:28:18.000Z</time>
      </trkpt>
      <trkpt lat="43.2923" lon="2.20684">
        <ele>214.5</ele>
        <time>2019-06-09T06:28:19.000Z</time>
      </trkpt>
      <trkpt lat="43.2923" lon="2.20683">
        <ele>214.5</ele>
        <time>2019-06-09T06:28:20.000Z</time>
      </trkpt>
      <trkpt lat="43.2923" lon="2.20681">
        <ele>214.4</ele>
        <time>2019-06-09T06:28:21.000Z</time>
      </trkpt>
      <trkpt lat="43.2923" lon="2.2068">
        <ele>214.4</ele>
        <time>2019-06-09T06:28:22.000Z</time>
      </trkpt>
      <trkpt lat="43.2923" lon="2.20678">
        <ele>214.4</ele>
        <time>2019-06-09T06:28:23.000Z</time>
      </trkpt>
      <trkpt lat="43.2923" lon="2.20676">
        <ele>214.4</ele>
        <time>2019-06-09T06:28:24.000Z</time>
      </trkpt>
      <trkpt lat="43.2923" lon="2.20675">
        <ele>214.3</ele>
        <time>2019-06-09T06:28:25.000Z</time>
      </trkpt>
      <trkpt lat="43.29231" lon="2.20673">
        <ele>214.3</ele>
        <time>2019-06-09T06:28:26.000Z</time>
      </trkpt>
      <trkpt lat="43.29231" lon="2.20671">
        <ele>214.3</ele>
        <time>2019-06-09T06:28:27.000Z</time>
      </trkpt>
      <trkpt lat="43.29231" lon="2.2067">
        <ele>214.3</ele>
        <time>2019-06-09T06:28:28.000Z</time>
      </trkpt>
      <trkpt lat="43.29231" lon="2.20668">
        <ele>214.3</ele>
        <time>2019-06-09T06:28:29.000Z</time>
      </trkpt>
      <trkpt lat="43.29232" lon="2.20667">
        <ele>214.2</ele>
        <time>2019-06-09T06:28:30.000Z</time>
      </trkpt>
      <trkpt lat="43.29232" lon="2.20665">
        <ele>214.3</ele>
        <time>2019-06-09T06:28:31.000Z</time>
      </trkpt>
      <trkpt lat="43.29232" lon="2.20664">
        <ele>214.3</ele>
        <time>2019-06-09T06:28:32.000Z</time>
      </trkpt>
      <trkpt lat="43.29233" lon="2.20662">
        <ele>214.3</ele>
        <time>2019-06-09T06:28:33.000Z</time>
      </trkpt>
      <trkpt lat="43.29233" lon="2.20661">
        <ele>214.3</ele>
        <time>2019-06-09T06:28:34.000Z</time>
      </trkpt>
      <trkpt lat="43.29233" lon="2.20659">
        <ele>214.3</ele>
        <time>2019-06-09T06:28:35.000Z</time>
      </trkpt>
      <trkpt lat="43.29234" lon="2.20658">
        <ele>214.4</ele>
        <time>2019-06-09T06:28:36.000Z</time>
      </trkpt>
      <trkpt lat="43.29234" lon="2.20656">
        <ele>214.4</ele>
        <time>2019-06-09T06:28:37.000Z</time>
      </trkpt>
      <trkpt lat="43.29234" lon="2.20655">
        <ele>214.4</ele>
        <time>2019-06-09T06:28:38.000Z</time>
      </trkpt>
      <trkpt lat="43.29234" lon="2.20653">
        <ele>214.4</ele>
        <time>2019-06-09T06:28:39.000Z</time>
      </trkpt>
      <trkpt lat="43.29235" lon="2.20652">
        <ele>214.4</ele>
        <time>2019-06-09T06:28:40.000Z</time>
      </trkpt>
      <trkpt lat="43.29235" lon="2.2065">
        <ele>214.4</ele>
        <time>2019-06-09T06:28:41.000Z</time>
      </trkpt>
      <trkpt lat="43.29235" lon="2.20649">
        <ele>214.4</ele>
        <time>2019-06-09T06:28:42.000Z</time>
      </trkpt>
      <trkpt lat="43.29235" lon="2.20647">
        <ele>214.5</ele>
        <time>2019-06-09T06:28:43.000Z</time>
      </trkpt>
      <trkpt lat="43.29235" lon="2.20646">
        <ele>214.5</ele>
        <time>2019-06-09T06:28:44.000Z</time>
      </trkpt>
      <trkpt lat="43.29236" lon="2.20644">
        <ele>214.5</ele>
        <time>2019-06-09T06:28:45.000Z</time>
      </trkpt>
      <trkpt lat="43.29236" lon="2.20643">
        <ele>214.5</ele>
        <time>2019-06-09T06:28:46.000Z</time>
      </trkpt>
      <trkpt lat="43.29236" lon="2.20642">
        <ele>214.5</ele>
        <time>2019-06-09T06:28:47.000Z</time>
      </trkpt>
      <trkpt lat="43.29236" lon="2.2064">
        <ele>214.5</ele>
        <time>2019-06-09T06:28:48.000Z</time>
      </trkpt>
      <trkpt lat="43.29236" lon="2.20639">
        <ele>214.5</ele>
        <time>2019-06-09T06:28:49.000Z</time>
      </trkpt>
      <trkpt lat="43.29236" lon="2.20638">
        <ele>214.5</ele>
        <time>2019-06-09T06:28:50.000Z</time>
      </trkpt>
      <trkpt lat="43.29236" lon="2.20638">
        <ele>214.5</ele>
        <time>2019-06-09T06:28:51.000Z</time>
      </trkpt>
      <trkpt lat="43.29236" lon="2.20637">
        <ele>214.5</ele>
        <time>2019-06-09T06:28:52.000Z</time>
      </trkpt>
      <trkpt lat="43.29236" lon="2.20637">
        <ele>214.5</ele>
        <time>2019-06-09T06:28:53.000Z</time>
      </trkpt>
      <trkpt lat="43.29236" lon="2.20637">
        <ele>214.5</ele>
        <time>2019-06-09T06:28:54.000Z</time>
      </trkpt>
      <trkpt lat="43.29236" lon="2.20637">
        <ele>214.5</ele>
        <time>2019-06-09T06:28:55.000Z</time>
      </trkpt>
      <trkpt lat="43.29236" lon="2.20637">
        <ele>214.5</ele>
        <time>2019-06-09T06:28:56.000Z</time>
      </trkpt>
      <trkpt lat="43.29236" lon="2.20637">
        <ele>214.5</ele>
        <time>2019-06-09T06:28:57.000Z</time>
      </trkpt>
      <trkpt lat="43.29236" lon="2.20637">
        <ele>214.5</ele>
        <time>2019-06-09T06:28:58.000Z</time>
      </trkpt>
      <trkpt lat="43.29236" lon="2.20637">
        <ele>214.5</ele>
        <time>2019-06-09T06:28:59.000Z</time>
      </trkpt>
      <trkpt lat="43.29236" lon="2.20637">
        <ele>214.5</ele>
        <time>2019-06-09T06:29:00.000Z</time>
      </trkpt>
      <trkpt lat="43.29236" lon="2.20637">
        <ele>214.5</ele>
        <time>2019-06-09T06:29:01.000Z</time>
      </trkpt>
      <trkpt lat="43.29236" lon="2.20637">
        <ele>214.5</ele>
        <time>2019-06-09T06:29:02.000Z</time>
      </trkpt>
      <trkpt lat="43.29236" lon="2.20636">
        <ele>214.5</ele>
        <time>2019-06-09T06:29:03.000Z</time>
      </trkpt>
      <trkpt lat="43.29236" lon="2.20636">
        <ele>214.5</ele>
        <time>2019-06-09T06:29:04.000Z</time>
      </trkpt>
      <trkpt lat="43.29236" lon="2.20635">
        <ele>214.5</ele>
        <time>2019-06-09T06:29:05.000Z</time>
      </trkpt>
      <trkpt lat="43.29236" lon="2.20634">
        <ele>214.5</ele>
        <time>2019-06-09T06:29:06.000Z</time>
      </trkpt>
      <trkpt lat="43.29236" lon="2.20633">
        <ele>214.5</ele>
        <time>2019-06-09T06:29:07.000Z</time>
      </trkpt>
      <trkpt lat="43.29236" lon="2.20632">
        <ele>214.5</ele>
        <time>2019-06-09T06:29:08.000Z</time>
      </trkpt>
      <trkpt lat="43.29237" lon="2.20631">
        <ele>214.5</ele>
        <time>2019-06-09T06:29:09.000Z</time>
      </trkpt>
      <trkpt lat="43.29237" lon="2.20629">
        <ele>214.5</ele>
        <time>2019-06-09T06:29:10.000Z</time>
      </trkpt>
      <trkpt lat="43.29237" lon="2.20628">
        <ele>214.5</ele>
        <time>2019-06-09T06:29:11.000Z</time>
      </trkpt>
      <trkpt lat="43.29237" lon="2.20626">
        <ele>214.5</ele>
        <time>2019-06-09T06:29:12.000Z</time>
      </trkpt>
      <trkpt lat="43.29237" lon="2.20625">
        <ele>214.5</ele>
        <time>2019-06-09T06:29:13.000Z</time>
      </trkpt>
      <trkpt lat="43.29237" lon="2.20623">
        <ele>214.5</ele>
        <time>2019-06-09T06:29:14.000Z</time>
      </trkpt>
      <trkpt lat="43.29237" lon="2.20622">
        <ele>214.5</ele>
        <time>2019-06-09T06:29:15.000Z</time>
      </trkpt>
      <trkpt lat="43.29237" lon="2.2062">
        <ele>214.5</ele>
        <time>2019-06-09T06:29:16.000Z</time>
      </trkpt>
      <trkpt lat="43.29237" lon="2.20618">
        <ele>214.5</ele>
        <time>2019-06-09T06:29:17.000Z</time>
      </trkpt>
      <trkpt lat="43.29237" lon="2.20616">
        <ele>214.5</ele>
        <time>2019-06-09T06:29:18.000Z</time>
      </trkpt>
      <trkpt lat="43.29237" lon="2.20615">
        <ele>214.4</ele>
        <time>2019-06-09T06:29:19.000Z</time>
      </trkpt>
      <trkpt lat="43.29237" lon="2.20613">
        <ele>214.4</ele>
        <time>2019-06-09T06:29:20.000Z</time>
      </trkpt>
      <trkpt lat="43.29237" lon="2.20611">
        <ele>214.4</ele>
        <time>2019-06-09T06:29:21.000Z</time>
      </trkpt>
      <trkpt lat="43.29237" lon="2.2061">
        <ele>214.4</ele>
        <time>2019-06-09T06:29:22.000Z</time>
      </trkpt>
      <trkpt lat="43.29237" lon="2.20608">
        <ele>214.4</ele>
        <time>2019-06-09T06:29:23.000Z</time>
      </trkpt>
      <trkpt lat="43.29237" lon="2.20606">
        <ele>214.4</ele>
        <time>2019-06-09T06:29:24.000Z</time>
      </trkpt>
      <trkpt lat="43.29237" lon="2.20605">
        <ele>214.4</ele>
        <time>2019-06-09T06:29:25.000Z</time>
      </trkpt>
      <trkpt lat="43.29237" lon="2.20603">
        <ele>214.4</ele>
        <time>2019-06-09T06:29:26.000Z</time>
      </trkpt>
      <trkpt lat="43.29237" lon="2.20602">
        <ele>214.4</ele>
        <time>2019-06-09T06:29:27.000Z</time>
      </trkpt>
      <trkpt lat="43.29237" lon="2.206">
        <ele>214.4</ele>
        <time>2019-06-09T06:29:28.000Z</time>
      </trkpt>
      <trkpt lat="43.29237" lon="2.20598">
        <ele>214.4</ele>
        <time>2019-06-09T06:29:29.000Z</time>
      </trkpt>
      <trkpt lat="43.29237" lon="2.20597">
        <ele>214.4</ele>
        <time>2019-06-09T06:29:30.000Z</time>
      </trkpt>
      <trkpt lat="43.29237" lon="2.20595">
        <ele>214.3</ele>
        <time>2019-06-09T06:29:31.000Z</time>
      </trkpt>
      <trkpt lat="43.29237" lon="2.20593">
        <ele>214.3</ele>
        <time>2019-06-09T06:29:32.000Z</time>
      </trkpt>
      <trkpt lat="43.29237" lon="2.20591">
        <ele>214.3</ele>
        <time>2019-06-09T06:29:33.000Z</time>
      </trkpt>
      <trkpt lat="43.29237" lon="2.20589">
        <ele>214.3</ele>
        <time>2019-06-09T06:29:34.000Z</time>
      </trkpt>
      <trkpt lat="43.29237" lon="2.20587">
        <ele>214.3</ele>
        <time>2019-06-09T06:29:35.000Z</time>
      </trkpt>
      <trkpt lat="43.29237" lon="2.20586">
        <ele>214.3</ele>
        <time>2019-06-09T06:29:36.000Z</time>
      </trkpt>
      <trkpt lat="43.29237" lon="2.20584">
        <ele>214.3</ele>
        <time>2019-06-09T06:29:37.000Z</time>
      </trkpt>
      <trkpt lat="43.29237" lon="2.20582">
        <ele>214.2</ele>
        <time>2019-06-09T06:29:38.000Z</time>
      </trkpt>
      <trkpt lat="43.29237" lon="2.2058">
        <ele>214.1</ele>
        <time>2019-06-09T06:29:39.000Z</time>
      </trkpt>
      <trkpt lat="43.29238" lon="2.20579">
        <ele>214.1</ele>
        <time>2019-06-09T06:29:40.000Z</time>
      </trkpt>
      <trkpt lat="43.29238" lon="2.20577">
        <ele>214</ele>
        <time>2019-06-09T06:29:41.000Z</time>
      </trkpt>
      <trkpt lat="43.29238" lon="2.20576">
        <ele>214</ele>
        <time>2019-06-09T06:29:42.000Z</time>
      </trkpt>
      <trkpt lat="43.29239" lon="2.20574">
        <ele>214</ele>
        <time>2019-06-09T06:29:43.000Z</time>
      </trkpt>
      <trkpt lat="43.2924" lon="2.20573">
        <ele>214</ele>
        <time>2019-06-09T06:29:44.000Z</time>
      </trkpt>
      <trkpt lat="43.29241" lon="2.20572">
        <ele>214</ele>
        <time>2019-06-09T06:29:45.000Z</time>
      </trkpt>
      <trkpt lat="43.29242" lon="2.20571">
        <ele>214.1</ele>
        <time>2019-06-09T06:29:46.000Z</time>
      </trkpt>
      <trkpt lat="43.29243" lon="2.2057">
        <ele>214.2</ele>
        <time>2019-06-09T06:29:47.000Z</time>
      </trkpt>
      <trkpt lat="43.29244" lon="2.2057">
        <ele>214.3</ele>
        <time>2019-06-09T06:29:48.000Z</time>
      </trkpt>
      <trkpt lat="43.29246" lon="2.20569">
        <ele>214.4</ele>
        <time>2019-06-09T06:29:49.000Z</time>
      </trkpt>
      <trkpt lat="43.29247" lon="2.20568">
        <ele>214.5</ele>
        <time>2019-06-09T06:29:50.000Z</time>
      </trkpt>
      <trkpt lat="43.29248" lon="2.20568">
        <ele>214.7</ele>
        <time>2019-06-09T06:29:51.000Z</time>
      </trkpt>
      <trkpt lat="43.2925" lon="2.20567">
        <ele>214.8</ele>
        <time>2019-06-09T06:29:52.000Z</time>
      </trkpt>
      <trkpt lat="43.29251" lon="2.20567">
        <ele>214.8</ele>
        <time>2019-06-09T06:29:53.000Z</time>
      </trkpt>
      <trkpt lat="43.29252" lon="2.20566">
        <ele>214.8</ele>
        <time>2019-06-09T06:29:54.000Z</time>
      </trkpt>
      <trkpt lat="43.29254" lon="2.20565">
        <ele>214.8</ele>
        <time>2019-06-09T06:29:55.000Z</time>
      </trkpt>
      <trkpt lat="43.29255" lon="2.20565">
        <ele>214.8</ele>
        <time>2019-06-09T06:29:56.000Z</time>
      </trkpt>
      <trkpt lat="43.29256" lon="2.20564">
        <ele>214.8</ele>
        <time>2019-06-09T06:29:57.000Z</time>
      </trkpt>
      <trkpt lat="43.29258" lon="2.20563">
        <ele>214.9</ele>
        <time>2019-06-09T06:29:58.000Z</time>
      </trkpt>
      <trkpt lat="43.29259" lon="2.20562">
        <ele>214.9</ele>
        <time>2019-06-09T06:29:59.000Z</time>
      </trkpt>
      <trkpt lat="43.29261" lon="2.20562">
        <ele>214.8</ele>
        <time>2019-06-09T06:30:00.000Z</time>
      </trkpt>
      <trkpt lat="43.29262" lon="2.20561">
        <ele>214.8</ele>
        <time>2019-06-09T06:30:01.000Z</time>
      </trkpt>
      <trkpt lat="43.29264" lon="2.2056">
        <ele>214.8</ele>
        <time>2019-06-09T06:30:02.000Z</time>
      </trkpt>
      <trkpt lat="43.29265" lon="2.20559">
        <ele>214.8</ele>
        <time>2019-06-09T06:30:03.000Z</time>
      </trkpt>
      <trkpt lat="43.29267" lon="2.20558">
        <ele>214.8</ele>
        <time>2019-06-09T06:30:04.000Z</time>
      </trkpt>
      <trkpt lat="43.29269" lon="2.20557">
        <ele>214.8</ele>
        <time>2019-06-09T06:30:05.000Z</time>
      </trkpt>
      <trkpt lat="43.29271" lon="2.20556">
        <ele>214.9</ele>
        <time>2019-06-09T06:30:06.000Z</time>
      </trkpt>
      <trkpt lat="43.29272" lon="2.20556">
        <ele>214.9</ele>
        <time>2019-06-09T06:30:07.000Z</time>
      </trkpt>
      <trkpt lat="43.29274" lon="2.20555">
        <ele>214.9</ele>
        <time>2019-06-09T06:30:08.000Z</time>
      </trkpt>
      <trkpt lat="43.29276" lon="2.20555">
        <ele>215</ele>
        <time>2019-06-09T06:30:09.000Z</time>
      </trkpt>
      <trkpt lat="43.29278" lon="2.20555">
        <ele>215</ele>
        <time>2019-06-09T06:30:10.000Z</time>
      </trkpt>
      <trkpt lat="43.29279" lon="2.20555">
        <ele>215.1</ele>
        <time>2019-06-09T06:30:11.000Z</time>
      </trkpt>
      <trkpt lat="43.29281" lon="2.20555">
        <ele>215.2</ele>
        <time>2019-06-09T06:30:12.000Z</time>
      </trkpt>
      <trkpt lat="43.29283" lon="2.20555">
        <ele>215.3</ele>
        <time>2019-06-09T06:30:13.000Z</time>
      </trkpt>
      <trkpt lat="43.29285" lon="2.20555">
        <ele>215.4</ele>
        <time>2019-06-09T06:30:14.000Z</time>
      </trkpt>
      <trkpt lat="43.29287" lon="2.20556">
        <ele>215.5</ele>
        <time>2019-06-09T06:30:15.000Z</time>
      </trkpt>
      <trkpt lat="43.29289" lon="2.20556">
        <ele>215.6</ele>
        <time>2019-06-09T06:30:16.000Z</time>
      </trkpt>
      <trkpt lat="43.29291" lon="2.20557">
        <ele>215.7</ele>
        <time>2019-06-09T06:30:17.000Z</time>
      </trkpt>
      <trkpt lat="43.29293" lon="2.20558">
        <ele>215.9</ele>
        <time>2019-06-09T06:30:18.000Z</time>
      </trkpt>
      <trkpt lat="43.29295" lon="2.20559">
        <ele>216</ele>
        <time>2019-06-09T06:30:19.000Z</time>
      </trkpt>
      <trkpt lat="43.29298" lon="2.2056">
        <ele>216.2</ele>
        <time>2019-06-09T06:30:20.000Z</time>
      </trkpt>
      <trkpt lat="43.293" lon="2.2056">
        <ele>216.3</ele>
        <time>2019-06-09T06:30:21.000Z</time>
      </trkpt>
      <trkpt lat="43.29302" lon="2.20561">
        <ele>216.4</ele>
        <time>2019-06-09T06:30:22.000Z</time>
      </trkpt>
      <trkpt lat="43.29304" lon="2.20562">
        <ele>216.6</ele>
        <time>2019-06-09T06:30:23.000Z</time>
      </trkpt>
      <trkpt lat="43.29306" lon="2.20563">
        <ele>216.7</ele>
        <time>2019-06-09T06:30:24.000Z</time>
      </trkpt>
      <trkpt lat="43.29308" lon="2.20564">
        <ele>216.8</ele>
        <time>2019-06-09T06:30:25.000Z</time>
      </trkpt>
      <trkpt lat="43.2931" lon="2.20565">
        <ele>217</ele>
        <time>2019-06-09T06:30:26.000Z</time>
      </trkpt>
      <trkpt lat="43.29312" lon="2.20566">
        <ele>217.1</ele>
        <time>2019-06-09T06:30:27.000Z</time>
      </trkpt>
      <trkpt lat="43.29314" lon="2.20566">
        <ele>217.2</ele>
        <time>2019-06-09T06:30:28.000Z</time>
      </trkpt>
      <trkpt lat="43.29316" lon="2.20567">
        <ele>217.3</ele>
        <time>2019-06-09T06:30:29.000Z</time>
      </trkpt>
      <trkpt lat="43.29318" lon="2.20568">
        <ele>217.5</ele>
        <time>2019-06-09T06:30:30.000Z</time>
      </trkpt>
      <trkpt lat="43.2932" lon="2.20569">
        <ele>217.6</ele>
        <time>2019-06-09T06:30:31.000Z</time>
      </trkpt>
      <trkpt lat="43.29322" lon="2.20569">
        <ele>217.7</ele>
        <time>2019-06-09T06:30:32.000Z</time>
      </trkpt>
      <trkpt lat="43.29324" lon="2.2057">
        <ele>217.8</ele>
        <time>2019-06-09T06:30:33.000Z</time>
      </trkpt>
      <trkpt lat="43.29326" lon="2.2057">
        <ele>217.9</ele>
        <time>2019-06-09T06:30:34.000Z</time>
      </trkpt>
      <trkpt lat="43.29328" lon="2.20571">
        <ele>218</ele>
        <time>2019-06-09T06:30:35.000Z</time>
      </trkpt>
      <trkpt lat="43.2933" lon="2.20571">
        <ele>218.2</ele>
        <time>2019-06-09T06:30:36.000Z</time>
      </trkpt>
      <trkpt lat="43.29332" lon="2.20572">
        <ele>218.3</ele>
        <time>2019-06-09T06:30:37.000Z</time>
      </trkpt>
      <trkpt lat="43.29335" lon="2.20572">
        <ele>218.3</ele>
        <time>2019-06-09T06:30:38.000Z</time>
      </trkpt>
      <trkpt lat="43.29337" lon="2.20572">
        <ele>218.4</ele>
        <time>2019-06-09T06:30:39.000Z</time>
      </trkpt>
      <trkpt lat="43.2934" lon="2.20572">
        <ele>218.5</ele>
        <time>2019-06-09T06:30:40.000Z</time>
      </trkpt>
      <trkpt lat="43.29342" lon="2.20573">
        <ele>218.5</ele>
        <time>2019-06-09T06:30:41.000Z</time>
      </trkpt>
      <trkpt lat="43.29344" lon="2.20573">
        <ele>218.6</ele>
        <time>2019-06-09T06:30:42.000Z</time>
      </trkpt>
      <trkpt lat="43.29347" lon="2.20573">
        <ele>218.6</ele>
        <time>2019-06-09T06:30:43.000Z</time>
      </trkpt>
      <trkpt lat="43.2935" lon="2.20573">
        <ele>218.7</ele>
        <time>2019-06-09T06:30:44.000Z</time>
      </trkpt>
      <trkpt lat="43.29352" lon="2.20573">
        <ele>218.7</ele>
        <time>2019-06-09T06:30:45.000Z</time>
      </trkpt>
      <trkpt lat="43.29355" lon="2.20573">
        <ele>218.8</ele>
        <time>2019-06-09T06:30:46.000Z</time>
      </trkpt>
      <trkpt lat="43.29357" lon="2.20573">
        <ele>218.8</ele>
        <time>2019-06-09T06:30:47.000Z</time>
      </trkpt>
      <trkpt lat="43.2936" lon="2.20573">
        <ele>218.9</ele>
        <time>2019-06-09T06:30:48.000Z</time>
      </trkpt>
      <trkpt lat="43.29362" lon="2.20573">
        <ele>218.9</ele>
        <time>2019-06-09T06:30:49.000Z</time>
      </trkpt>
      <trkpt lat="43.29365" lon="2.20573">
        <ele>219</ele>
        <time>2019-06-09T06:30:50.000Z</time>
      </trkpt>
      <trkpt lat="43.29367" lon="2.20573">
        <ele>219</ele>
        <time>2019-06-09T06:30:51.000Z</time>
      </trkpt>
      <trkpt lat="43.2937" lon="2.20573">
        <ele>219.1</ele>
        <time>2019-06-09T06:30:52.000Z</time>
      </trkpt>
      <trkpt lat="43.29372" lon="2.20573">
        <ele>219.1</ele>
        <time>2019-06-09T06:30:53.000Z</time>
      </trkpt>
      <trkpt lat="43.29375" lon="2.20573">
        <ele>219.2</ele>
        <time>2019-06-09T06:30:54.000Z</time>
      </trkpt>
      <trkpt lat="43.29377" lon="2.20573">
        <ele>219.2</ele>
        <time>2019-06-09T06:30:55.000Z</time>
      </trkpt>
      <trkpt lat="43.2938" lon="2.20573">
        <ele>219.3</ele>
        <time>2019-06-09T06:30:56.000Z</time>
      </trkpt>
      <trkpt lat="43.29382" lon="2.20573">
        <ele>219.3</ele>
        <time>2019-06-09T06:30:57.000Z</time>
      </trkpt>
      <trkpt lat="43.29384" lon="2.20573">
        <ele>219.4</ele>
        <time>2019-06-09T06:30:58.000Z</time>
      </trkpt>
      <trkpt lat="43.29387" lon="2.20574">
        <ele>219.4</ele>
        <time>2019-06-09T06:30:59.000Z</time>
      </trkpt>
      <trkpt lat="43.29389" lon="2.20574">
        <ele>219.5</ele>
        <time>2019-06-09T06:31:00.000Z</time>
      </trkpt>
      <trkpt lat="43.29391" lon="2.20574">
        <ele>219.5</ele>
        <time>2019-06-09T06:31:01.000Z</time>
      </trkpt>
      <trkpt lat="43.29394" lon="2.20574">
        <ele>219.6</ele>
        <time>2019-06-09T06:31:02.000Z</time>
      </trkpt>
      <trkpt lat="43.29396" lon="2.20574">
        <ele>219.6</ele>
        <time>2019-06-09T06:31:03.000Z</time>
      </trkpt>
      <trkpt lat="43.29399" lon="2.20574">
        <ele>219.7</ele>
        <time>2019-06-09T06:31:04.000Z</time>
      </trkpt>
      <trkpt lat="43.29401" lon="2.20574">
        <ele>219.7</ele>
        <time>2019-06-09T06:31:05.000Z</time>
      </trkpt>
      <trkpt lat="43.29403" lon="2.20574">
        <ele>219.7</ele>
        <time>2019-06-09T06:31:06.000Z</time>
      </trkpt>
      <trkpt lat="43.29406" lon="2.20573">
        <ele>219.8</ele>
        <time>2019-06-09T06:31:07.000Z</time>
      </trkpt>
      <trkpt lat="43.29408" lon="2.20573">
        <ele>219.8</ele>
        <time>2019-06-09T06:31:08.000Z</time>
      </trkpt>
      <trkpt lat="43.29411" lon="2.20573">
        <ele>219.9</ele>
        <time>2019-06-09T06:31:09.000Z</time>
      </trkpt>
      <trkpt lat="43.29413" lon="2.20573">
        <ele>219.9</ele>
        <time>2019-06-09T06:31:10.000Z</time>
      </trkpt>
      <trkpt lat="43.29415" lon="2.20573">
        <ele>220</ele>
        <time>2019-06-09T06:31:11.000Z</time>
      </trkpt>
      <trkpt lat="43.29418" lon="2.20573">
        <ele>220.1</ele>
        <time>2019-06-09T06:31:12.000Z</time>
      </trkpt>
      <trkpt lat="43.2942" lon="2.20572">
        <ele>220.2</ele>
        <time>2019-06-09T06:31:13.000Z</time>
      </trkpt>
      <trkpt lat="43.29422" lon="2.20572">
        <ele>220.3</ele>
        <time>2019-06-09T06:31:14.000Z</time>
      </trkpt>
      <trkpt lat="43.29424" lon="2.20572">
        <ele>220.5</ele>
        <time>2019-06-09T06:31:15.000Z</time>
      </trkpt>
      <trkpt lat="43.29427" lon="2.20572">
        <ele>220.6</ele>
        <time>2019-06-09T06:31:16.000Z</time>
      </trkpt>
      <trkpt lat="43.29429" lon="2.20571">
        <ele>220.8</ele>
        <time>2019-06-09T06:31:17.000Z</time>
      </trkpt>
      <trkpt lat="43.29431" lon="2.20571">
        <ele>220.9</ele>
        <time>2019-06-09T06:31:18.000Z</time>
      </trkpt>
      <trkpt lat="43.29433" lon="2.20571">
        <ele>221</ele>
        <time>2019-06-09T06:31:19.000Z</time>
      </trkpt>
      <trkpt lat="43.29435" lon="2.2057">
        <ele>221.1</ele>
        <time>2019-06-09T06:31:20.000Z</time>
      </trkpt>
      <trkpt lat="43.29437" lon="2.2057">
        <ele>221.3</ele>
        <time>2019-06-09T06:31:21.000Z</time>
      </trkpt>
      <trkpt lat="43.29439" lon="2.2057">
        <ele>221.4</ele>
        <time>2019-06-09T06:31:22.000Z</time>
      </trkpt>
      <trkpt lat="43.29441" lon="2.20569">
        <ele>221.5</ele>
        <time>2019-06-09T06:31:23.000Z</time>
      </trkpt>
      <trkpt lat="43.29442" lon="2.20569">
        <ele>221.6</ele>
        <time>2019-06-09T06:31:24.000Z</time>
      </trkpt>
      <trkpt lat="43.29444" lon="2.20569">
        <ele>221.7</ele>
        <time>2019-06-09T06:31:25.000Z</time>
      </trkpt>
      <trkpt lat="43.29446" lon="2.20568">
        <ele>221.8</ele>
        <time>2019-06-09T06:31:26.000Z</time>
      </trkpt>
      <trkpt lat="43.29447" lon="2.20568">
        <ele>221.9</ele>
        <time>2019-06-09T06:31:27.000Z</time>
      </trkpt>
      <trkpt lat="43.29449" lon="2.20568">
        <ele>222</ele>
        <time>2019-06-09T06:31:28.000Z</time>
      </trkpt>
      <trkpt lat="43.29451" lon="2.20567">
        <ele>222</ele>
        <time>2019-06-09T06:31:29.000Z</time>
      </trkpt>
      <trkpt lat="43.29452" lon="2.20567">
        <ele>222.1</ele>
        <time>2019-06-09T06:31:30.000Z</time>
      </trkpt>
      <trkpt lat="43.29454" lon="2.20567">
        <ele>222.2</ele>
        <time>2019-06-09T06:31:31.000Z</time>
      </trkpt>
      <trkpt lat="43.29456" lon="2.20566">
        <ele>222.3</ele>
        <time>2019-06-09T06:31:32.000Z</time>
      </trkpt>
      <trkpt lat="43.29457" lon="2.20566">
        <ele>222.4</ele>
        <time>2019-06-09T06:31:33.000Z</time>
      </trkpt>
      <trkpt lat="43.29459" lon="2.20566">
        <ele>222.5</ele>
        <time>2019-06-09T06:31:34.000Z</time>
      </trkpt>
      <trkpt lat="43.29461" lon="2.20565">
        <ele>222.6</ele>
        <time>2019-06-09T06:31:35.000Z</time>
      </trkpt>
      <trkpt lat="43.29463" lon="2.20565">
        <ele>222.7</ele>
        <time>2019-06-09T06:31:36.000Z</time>
      </trkpt>
      <trkpt lat="43.29465" lon="2.20565">
        <ele>222.8</ele>
        <time>2019-06-09T06:31:37.000Z</time>
      </trkpt>
      <trkpt lat="43.29467" lon="2.20565">
        <ele>222.9</ele>
        <time>2019-06-09T06:31:38.000Z</time>
      </trkpt>
      <trkpt lat="43.29469" lon="2.20564">
        <ele>223.1</ele>
        <time>2019-06-09T06:31:39.000Z</time>
      </trkpt>
      <trkpt lat="43.29471" lon="2.20564">
        <ele>223.2</ele>
        <time>2019-06-09T06:31:40.000Z</time>
      </trkpt>
      <trkpt lat="43.29474" lon="2.20564">
        <ele>223.3</ele>
        <time>2019-06-09T06:31:41.000Z</time>
      </trkpt>
      <trkpt lat="43.29476" lon="2.20564">
        <ele>223.5</ele>
        <time>2019-06-09T06:31:42.000Z</time>
      </trkpt>
      <trkpt lat="43.29479" lon="2.20564">
        <ele>223.6</ele>
        <time>2019-06-09T06:31:43.000Z</time>
      </trkpt>
      <trkpt lat="43.29481" lon="2.20564">
        <ele>223.7</ele>
        <time>2019-06-09T06:31:44.000Z</time>
      </trkpt>
      <trkpt lat="43.29484" lon="2.20564">
        <ele>223.9</ele>
        <time>2019-06-09T06:31:45.000Z</time>
      </trkpt>
      <trkpt lat="43.29486" lon="2.20564">
        <ele>224</ele>
        <time>2019-06-09T06:31:46.000Z</time>
      </trkpt>
      <trkpt lat="43.29488" lon="2.20564">
        <ele>224.1</ele>
        <time>2019-06-09T06:31:47.000Z</time>
      </trkpt>
      <trkpt lat="43.2949" lon="2.20564">
        <ele>224.2</ele>
        <time>2019-06-09T06:31:48.000Z</time>
      </trkpt>
      <trkpt lat="43.29492" lon="2.20564">
        <ele>224.4</ele>
        <time>2019-06-09T06:31:49.000Z</time>
      </trkpt>
      <trkpt lat="43.29494" lon="2.20564">
        <ele>224.5</ele>
        <time>2019-06-09T06:31:50.000Z</time>
      </trkpt>
      <trkpt lat="43.29496" lon="2.20564">
        <ele>224.6</ele>
        <time>2019-06-09T06:31:51.000Z</time>
      </trkpt>
      <trkpt lat="43.29497" lon="2.20564">
        <ele>224.7</ele>
        <time>2019-06-09T06:31:52.000Z</time>
      </trkpt>
      <trkpt lat="43.29499" lon="2.20565">
        <ele>224.8</ele>
        <time>2019-06-09T06:31:53.000Z</time>
      </trkpt>
      <trkpt lat="43.295" lon="2.20565">
        <ele>225</ele>
        <time>2019-06-09T06:31:54.000Z</time>
      </trkpt>
      <trkpt lat="43.29502" lon="2.20566">
        <ele>225.1</ele>
        <time>2019-06-09T06:31:55.000Z</time>
      </trkpt>
      <trkpt lat="43.29504" lon="2.20567">
        <ele>225.3</ele>
        <time>2019-06-09T06:31:56.000Z</time>
      </trkpt>
      <trkpt lat="43.29505" lon="2.20569">
        <ele>225.5</ele>
        <time>2019-06-09T06:31:57.000Z</time>
      </trkpt>
      <trkpt lat="43.29507" lon="2.2057">
        <ele>225.8</ele>
        <time>2019-06-09T06:31:58.000Z</time>
      </trkpt>
      <trkpt lat="43.29508" lon="2.20572">
        <ele>226</ele>
        <time>2019-06-09T06:31:59.000Z</time>
      </trkpt>
      <trkpt lat="43.2951" lon="2.20574">
        <ele>226.2</ele>
        <time>2019-06-09T06:32:00.000Z</time>
      </trkpt>
      <trkpt lat="43.29511" lon="2.20575">
        <ele>226.5</ele>
        <time>2019-06-09T06:32:01.000Z</time>
      </trkpt>
      <trkpt lat="43.29513" lon="2.20577">
        <ele>226.7</ele>
        <time>2019-06-09T06:32:02.000Z</time>
      </trkpt>
      <trkpt lat="43.29515" lon="2.20579">
        <ele>226.9</ele>
        <time>2019-06-09T06:32:03.000Z</time>
      </trkpt>
      <trkpt lat="43.29516" lon="2.2058">
        <ele>227.2</ele>
        <time>2019-06-09T06:32:04.000Z</time>
      </trkpt>
      <trkpt lat="43.29518" lon="2.20582">
        <ele>227.4</ele>
        <time>2019-06-09T06:32:05.000Z</time>
      </trkpt>
      <trkpt lat="43.29519" lon="2.20583">
        <ele>227.6</ele>
        <time>2019-06-09T06:32:06.000Z</time>
      </trkpt>
      <trkpt lat="43.2952" lon="2.20585">
        <ele>227.7</ele>
        <time>2019-06-09T06:32:07.000Z</time>
      </trkpt>
      <trkpt lat="43.29522" lon="2.20586">
        <ele>227.9</ele>
        <time>2019-06-09T06:32:08.000Z</time>
      </trkpt>
      <trkpt lat="43.29523" lon="2.20588">
        <ele>228.1</ele>
        <time>2019-06-09T06:32:09.000Z</time>
      </trkpt>
      <trkpt lat="43.29525" lon="2.20589">
        <ele>228.2</ele>
        <time>2019-06-09T06:32:10.000Z</time>
      </trkpt>
      <trkpt lat="43.29526" lon="2.2059">
        <ele>228.4</ele>
        <time>2019-06-09T06:32:11.000Z</time>
      </trkpt>
      <trkpt lat="43.29528" lon="2.20592">
        <ele>228.5</ele>
        <time>2019-06-09T06:32:12.000Z</time>
      </trkpt>
      <trkpt lat="43.29529" lon="2.20593">
        <ele>228.7</ele>
        <time>2019-06-09T06:32:13.000Z</time>
      </trkpt>
      <trkpt lat="43.29531" lon="2.20595">
        <ele>228.8</ele>
        <time>2019-06-09T06:32:14.000Z</time>
      </trkpt>
      <trkpt lat="43.29532" lon="2.20596">
        <ele>229</ele>
        <time>2019-06-09T06:32:15.000Z</time>
      </trkpt>
      <trkpt lat="43.29534" lon="2.20598">
        <ele>229.1</ele>
        <time>2019-06-09T06:32:16.000Z</time>
      </trkpt>
      <trkpt lat="43.29535" lon="2.20599">
        <ele>229.3</ele>
        <time>2019-06-09T06:32:17.000Z</time>
      </trkpt>
      <trkpt lat="43.29537" lon="2.206">
        <ele>229.4</ele>
        <time>2019-06-09T06:32:18.000Z</time>
      </trkpt>
      <trkpt lat="43.29538" lon="2.20602">
        <ele>229.5</ele>
        <time>2019-06-09T06:32:19.000Z</time>
      </trkpt>
      <trkpt lat="43.2954" lon="2.20603">
        <ele>229.7</ele>
        <time>2019-06-09T06:32:20.000Z</time>
      </trkpt>
      <trkpt lat="43.29541" lon="2.20603">
        <ele>229.8</ele>
        <time>2019-06-09T06:32:21.000Z</time>
      </trkpt>
      <trkpt lat="43.29543" lon="2.20604">
        <ele>230</ele>
        <time>2019-06-09T06:32:22.000Z</time>
      </trkpt>
      <trkpt lat="43.29545" lon="2.20605">
        <ele>230.1</ele>
        <time>2019-06-09T06:32:23.000Z</time>
      </trkpt>
      <trkpt lat="43.29546" lon="2.20605">
        <ele>230.3</ele>
        <time>2019-06-09T06:32:24.000Z</time>
      </trkpt>
      <trkpt lat="43.29548" lon="2.20605">
        <ele>230.4</ele>
        <time>2019-06-09T06:32:25.000Z</time>
      </trkpt>
      <trkpt lat="43.2955" lon="2.20605">
        <ele>230.5</ele>
        <time>2019-06-09T06:32:26.000Z</time>
      </trkpt>
      <trkpt lat="43.29551" lon="2.20604">
        <ele>230.7</ele>
        <time>2019-06-09T06:32:27.000Z</time>
      </trkpt>
      <trkpt lat="43.29553" lon="2.20604">
        <ele>230.8</ele>
        <time>2019-06-09T06:32:28.000Z</time>
      </trkpt>
      <trkpt lat="43.29555" lon="2.20603">
        <ele>230.9</ele>
        <time>2019-06-09T06:32:29.000Z</time>
      </trkpt>
      <trkpt lat="43.29557" lon="2.20602">
        <ele>231</ele>
        <time>2019-06-09T06:32:30.000Z</time>
      </trkpt>
      <trkpt lat="43.29558" lon="2.20601">
        <ele>231.2</ele>
        <time>2019-06-09T06:32:31.000Z</time>
      </trkpt>
      <trkpt lat="43.2956" lon="2.20599">
        <ele>231.3</ele>
        <time>2019-06-09T06:32:32.000Z</time>
      </trkpt>
      <trkpt lat="43.29561" lon="2.20598">
        <ele>231.4</ele>
        <time>2019-06-09T06:32:33.000Z</time>
      </trkpt>
      <trkpt lat="43.29563" lon="2.20596">
        <ele>231.4</ele>
        <time>2019-06-09T06:32:34.000Z</time>
      </trkpt>
      <trkpt lat="43.29564" lon="2.20595">
        <ele>231.5</ele>
        <time>2019-06-09T06:32:35.000Z</time>
      </trkpt>
      <trkpt lat="43.29565" lon="2.20593">
        <ele>231.6</ele>
        <time>2019-06-09T06:32:36.000Z</time>
      </trkpt>
      <trkpt lat="43.29566" lon="2.20591">
        <ele>231.7</ele>
        <time>2019-06-09T06:32:37.000Z</time>
      </trkpt>
      <trkpt lat="43.29568" lon="2.20589">
        <ele>231.8</ele>
        <time>2019-06-09T06:32:38.000Z</time>
      </trkpt>
      <trkpt lat="43.29569" lon="2.20587">
        <ele>231.8</ele>
        <time>2019-06-09T06:32:39.000Z</time>
      </trkpt>
      <trkpt lat="43.2957" lon="2.20585">
        <ele>231.9</ele>
        <time>2019-06-09T06:32:40.000Z</time>
      </trkpt>
      <trkpt lat="43.29572" lon="2.20583">
        <ele>232</ele>
        <time>2019-06-09T06:32:41.000Z</time>
      </trkpt>
      <trkpt lat="43.29573" lon="2.20581">
        <ele>231.9</ele>
        <time>2019-06-09T06:32:42.000Z</time>
      </trkpt>
      <trkpt lat="43.29575" lon="2.20579">
        <ele>231.9</ele>
        <time>2019-06-09T06:32:43.000Z</time>
      </trkpt>
      <trkpt lat="43.29576" lon="2.20576">
        <ele>231.9</ele>
        <time>2019-06-09T06:32:44.000Z</time>
      </trkpt>
      <trkpt lat="43.29578" lon="2.20574">
        <ele>231.9</ele>
        <time>2019-06-09T06:32:45.000Z</time>
      </trkpt>
      <trkpt lat="43.29579" lon="2.20572">
        <ele>231.9</ele>
        <time>2019-06-09T06:32:46.000Z</time>
      </trkpt>
      <trkpt lat="43.29581" lon="2.2057">
        <ele>231.8</ele>
        <time>2019-06-09T06:32:47.000Z</time>
      </trkpt>
      <trkpt lat="43.29582" lon="2.20568">
        <ele>231.8</ele>
        <time>2019-06-09T06:32:48.000Z</time>
      </trkpt>
      <trkpt lat="43.29584" lon="2.20566">
        <ele>231.8</ele>
        <time>2019-06-09T06:32:49.000Z</time>
      </trkpt>
      <trkpt lat="43.29585" lon="2.20564">
        <ele>231.8</ele>
        <time>2019-06-09T06:32:50.000Z</time>
      </trkpt>
      <trkpt lat="43.29587" lon="2.20562">
        <ele>231.7</ele>
        <time>2019-06-09T06:32:51.000Z</time>
      </trkpt>
      <trkpt lat="43.29588" lon="2.20561">
        <ele>231.7</ele>
        <time>2019-06-09T06:32:52.000Z</time>
      </trkpt>
      <trkpt lat="43.2959" lon="2.20559">
        <ele>231.7</ele>
        <time>2019-06-09T06:32:53.000Z</time>
      </trkpt>
      <trkpt lat="43.29591" lon="2.20558">
        <ele>231.7</ele>
        <time>2019-06-09T06:32:54.000Z</time>
      </trkpt>
      <trkpt lat="43.29593" lon="2.20556">
        <ele>231.7</ele>
        <time>2019-06-09T06:32:55.000Z</time>
      </trkpt>
      <trkpt lat="43.29595" lon="2.20555">
        <ele>231.7</ele>
        <time>2019-06-09T06:32:56.000Z</time>
      </trkpt>
      <trkpt lat="43.29597" lon="2.20554">
        <ele>231.8</ele>
        <time>2019-06-09T06:32:57.000Z</time>
      </trkpt>
      <trkpt lat="43.29598" lon="2.20553">
        <ele>231.8</ele>
        <time>2019-06-09T06:32:58.000Z</time>
      </trkpt>
      <trkpt lat="43.296" lon="2.20552">
        <ele>231.9</ele>
        <time>2019-06-09T06:32:59.000Z</time>
      </trkpt>
      <trkpt lat="43.29602" lon="2.20551">
        <ele>232</ele>
        <time>2019-06-09T06:33:00.000Z</time>
      </trkpt>
      <trkpt lat="43.29604" lon="2.2055">
        <ele>232.1</ele>
        <time>2019-06-09T06:33:01.000Z</time>
      </trkpt>
      <trkpt lat="43.29606" lon="2.20549">
        <ele>232.1</ele>
        <time>2019-06-09T06:33:02.000Z</time>
      </trkpt>
      <trkpt lat="43.29608" lon="2.20548">
        <ele>232.2</ele>
        <time>2019-06-09T06:33:03.000Z</time>
      </trkpt>
      <trkpt lat="43.2961" lon="2.20548">
        <ele>232.3</ele>
        <time>2019-06-09T06:33:04.000Z</time>
      </trkpt>
      <trkpt lat="43.29612" lon="2.20547">
        <ele>232.4</ele>
        <time>2019-06-09T06:33:05.000Z</time>
      </trkpt>
      <trkpt lat="43.29614" lon="2.20547">
        <ele>232.5</ele>
        <time>2019-06-09T06:33:06.000Z</time>
      </trkpt>
      <trkpt lat="43.29615" lon="2.20546">
        <ele>232.6</ele>
        <time>2019-06-09T06:33:07.000Z</time>
      </trkpt>
      <trkpt lat="43.29617" lon="2.20546">
        <ele>232.7</ele>
        <time>2019-06-09T06:33:08.000Z</time>
      </trkpt>
      <trkpt lat="43.29618" lon="2.20545">
        <ele>232.7</ele>
        <time>2019-06-09T06:33:09.000Z</time>
      </trkpt>
      <trkpt lat="43.2962" lon="2.20545">
        <ele>232.8</ele>
        <time>2019-06-09T06:33:10.000Z</time>
      </trkpt>
      <trkpt lat="43.29622" lon="2.20544">
        <ele>232.9</ele>
        <time>2019-06-09T06:33:11.000Z</time>
      </trkpt>
      <trkpt lat="43.29623" lon="2.20544">
        <ele>233</ele>
        <time>2019-06-09T06:33:12.000Z</time>
      </trkpt>
      <trkpt lat="43.29625" lon="2.20543">
        <ele>233.1</ele>
        <time>2019-06-09T06:33:13.000Z</time>
      </trkpt>
      <trkpt lat="43.29627" lon="2.20542">
        <ele>233.2</ele>
        <time>2019-06-09T06:33:14.000Z</time>
      </trkpt>
      <trkpt lat="43.29629" lon="2.20541">
        <ele>233.2</ele>
        <time>2019-06-09T06:33:15.000Z</time>
      </trkpt>
      <trkpt lat="43.2963" lon="2.20541">
        <ele>233.3</ele>
        <time>2019-06-09T06:33:16.000Z</time>
      </trkpt>
      <trkpt lat="43.29632" lon="2.2054">
        <ele>233.4</ele>
        <time>2019-06-09T06:33:17.000Z</time>
      </trkpt>
      <trkpt lat="43.29634" lon="2.20539">
        <ele>233.5</ele>
        <time>2019-06-09T06:33:18.000Z</time>
      </trkpt>
      <trkpt lat="43.29636" lon="2.20538">
        <ele>233.6</ele>
        <time>2019-06-09T06:33:19.000Z</time>
      </trkpt>
      <trkpt lat="43.29638" lon="2.20537">
        <ele>233.7</ele>
        <time>2019-06-09T06:33:20.000Z</time>
      </trkpt>
      <trkpt lat="43.2964" lon="2.20536">
        <ele>233.8</ele>
        <time>2019-06-09T06:33:21.000Z</time>
      </trkpt>
      <trkpt lat="43.29642" lon="2.20535">
        <ele>233.9</ele>
        <time>2019-06-09T06:33:22.000Z</time>
      </trkpt>
      <trkpt lat="43.29644" lon="2.20534">
        <ele>234</ele>
        <time>2019-06-09T06:33:23.000Z</time>
      </trkpt>
      <trkpt lat="43.29646" lon="2.20533">
        <ele>234.1</ele>
        <time>2019-06-09T06:33:24.000Z</time>
      </trkpt>
      <trkpt lat="43.29648" lon="2.20532">
        <ele>234.2</ele>
        <time>2019-06-09T06:33:25.000Z</time>
      </trkpt>
      <trkpt lat="43.29651" lon="2.20531">
        <ele>234.3</ele>
        <time>2019-06-09T06:33:26.000Z</time>
      </trkpt>
      <trkpt lat="43.29653" lon="2.2053">
        <ele>234.4</ele>
        <time>2019-06-09T06:33:27.000Z</time>
      </trkpt>
      <trkpt lat="43.29655" lon="2.20529">
        <ele>234.5</ele>
        <time>2019-06-09T06:33:28.000Z</time>
      </trkpt>
      <trkpt lat="43.29657" lon="2.20528">
        <ele>234.6</ele>
        <time>2019-06-09T06:33:29.000Z</time>
      </trkpt>
      <trkpt lat="43.29659" lon="2.20527">
        <ele>234.7</ele>
        <time>2019-06-09T06:33:30.000Z</time>
      </trkpt>
      <trkpt lat="43.29661" lon="2.20526">
        <ele>234.8</ele>
        <time>2019-06-09T06:33:31.000Z</time>
      </trkpt>
      <trkpt lat="43.29663" lon="2.20525">
        <ele>234.9</ele>
        <time>2019-06-09T06:33:32.000Z</time>
      </trkpt>
      <trkpt lat="43.29665" lon="2.20524">
        <ele>235</ele>
        <time>2019-06-09T06:33:33.000Z</time>
      </trkpt>
      <trkpt lat="43.29667" lon="2.20523">
        <ele>235.1</ele>
        <time>2019-06-09T06:33:34.000Z</time>
      </trkpt>
      <trkpt lat="43.29669" lon="2.20522">
        <ele>235.2</ele>
        <time>2019-06-09T06:33:35.000Z</time>
      </trkpt>
      <trkpt lat="43.29671" lon="2.2052">
        <ele>235.2</ele>
        <time>2019-06-09T06:33:36.000Z</time>
      </trkpt>
      <trkpt lat="43.29673" lon="2.20519">
        <ele>235.2</ele>
        <time>2019-06-09T06:33:37.000Z</time>
      </trkpt>
      <trkpt lat="43.29675" lon="2.20518">
        <ele>235.2</ele>
        <time>2019-06-09T06:33:38.000Z</time>
      </trkpt>
      <trkpt lat="43.29677" lon="2.20516">
        <ele>235.3</ele>
        <time>2019-06-09T06:33:39.000Z</time>
      </trkpt>
      <trkpt lat="43.29679" lon="2.20514">
        <ele>235.3</ele>
        <time>2019-06-09T06:33:40.000Z</time>
      </trkpt>
      <trkpt lat="43.2968" lon="2.20513">
        <ele>235.3</ele>
        <time>2019-06-09T06:33:41.000Z</time>
      </trkpt>
      <trkpt lat="43.29682" lon="2.20511">
        <ele>235.2</ele>
        <time>2019-06-09T06:33:42.000Z</time>
      </trkpt>
      <trkpt lat="43.29684" lon="2.20509">
        <ele>235.2</ele>
        <time>2019-06-09T06:33:43.000Z</time>
      </trkpt>
      <trkpt lat="43.29686" lon="2.20506">
        <ele>235.2</ele>
        <time>2019-06-09T06:33:44.000Z</time>
      </trkpt>
      <trkpt lat="43.29687" lon="2.20504">
        <ele>235.2</ele>
        <time>2019-06-09T06:33:45.000Z</time>
      </trkpt>
      <trkpt lat="43.29689" lon="2.20502">
        <ele>235.1</ele>
        <time>2019-06-09T06:33:46.000Z</time>
      </trkpt>
      <trkpt lat="43.29691" lon="2.20499">
        <ele>235.1</ele>
        <time>2019-06-09T06:33:47.000Z</time>
      </trkpt>
      <trkpt lat="43.29693" lon="2.20497">
        <ele>235.1</ele>
        <time>2019-06-09T06:33:48.000Z</time>
      </trkpt>
      <trkpt lat="43.29694" lon="2.20494">
        <ele>235.1</ele>
        <time>2019-06-09T06:33:49.000Z</time>
      </trkpt>
      <trkpt lat="43.29696" lon="2.20492">
        <ele>235</ele>
        <time>2019-06-09T06:33:50.000Z</time>
      </trkpt>
      <trkpt lat="43.29698" lon="2.20489">
        <ele>235</ele>
        <time>2019-06-09T06:33:51.000Z</time>
      </trkpt>
      <trkpt lat="43.297" lon="2.20487">
        <ele>235</ele>
        <time>2019-06-09T06:33:52.000Z</time>
      </trkpt>
      <trkpt lat="43.29701" lon="2.20485">
        <ele>235</ele>
        <time>2019-06-09T06:33:53.000Z</time>
      </trkpt>
      <trkpt lat="43.29703" lon="2.20482">
        <ele>235</ele>
        <time>2019-06-09T06:33:54.000Z</time>
      </trkpt>
      <trkpt lat="43.29705" lon="2.2048">
        <ele>235</ele>
        <time>2019-06-09T06:33:55.000Z</time>
      </trkpt>
      <trkpt lat="43.29707" lon="2.20478">
        <ele>235</ele>
        <time>2019-06-09T06:33:56.000Z</time>
      </trkpt>
      <trkpt lat="43.29708" lon="2.20475">
        <ele>234.9</ele>
        <time>2019-06-09T06:33:57.000Z</time>
      </trkpt>
      <trkpt lat="43.2971" lon="2.20473">
        <ele>234.9</ele>
        <time>2019-06-09T06:33:58.000Z</time>
      </trkpt>
      <trkpt lat="43.29711" lon="2.20471">
        <ele>234.9</ele>
        <time>2019-06-09T06:33:59.000Z</time>
      </trkpt>
      <trkpt lat="43.29713" lon="2.20469">
        <ele>234.9</ele>
        <time>2019-06-09T06:34:00.000Z</time>
      </trkpt>
      <trkpt lat="43.29714" lon="2.20467">
        <ele>234.9</ele>
        <time>2019-06-09T06:34:01.000Z</time>
      </trkpt>
      <trkpt lat="43.29715" lon="2.20465">
        <ele>234.9</ele>
        <time>2019-06-09T06:34:02.000Z</time>
      </trkpt>
      <trkpt lat="43.29717" lon="2.20463">
        <ele>234.9</ele>
        <time>2019-06-09T06:34:03.000Z</time>
      </trkpt>
      <trkpt lat="43.29718" lon="2.20461">
        <ele>234.9</ele>
        <time>2019-06-09T06:34:04.000Z</time>
      </trkpt>
      <trkpt lat="43.2972" lon="2.20459">
        <ele>234.9</ele>
        <time>2019-06-09T06:34:05.000Z</time>
      </trkpt>
      <trkpt lat="43.29721" lon="2.20457">
        <ele>234.9</ele>
        <time>2019-06-09T06:34:06.000Z</time>
      </trkpt>
      <trkpt lat="43.29723" lon="2.20455">
        <ele>234.9</ele>
        <time>2019-06-09T06:34:07.000Z</time>
      </trkpt>
      <trkpt lat="43.29724" lon="2.20454">
        <ele>234.9</ele>
        <time>2019-06-09T06:34:08.000Z</time>
      </trkpt>
      <trkpt lat="43.29726" lon="2.20452">
        <ele>235</ele>
        <time>2019-06-09T06:34:09.000Z</time>
      </trkpt>
      <trkpt lat="43.29728" lon="2.20451">
        <ele>235</ele>
        <time>2019-06-09T06:34:10.000Z</time>
      </trkpt>
      <trkpt lat="43.2973" lon="2.2045">
        <ele>235.1</ele>
        <time>2019-06-09T06:34:11.000Z</time>
      </trkpt>
      <trkpt lat="43.29732" lon="2.20449">
        <ele>235.1</ele>
        <time>2019-06-09T06:34:12.000Z</time>
      </trkpt>
      <trkpt lat="43.29734" lon="2.20448">
        <ele>235.2</ele>
        <time>2019-06-09T06:34:13.000Z</time>
      </trkpt>
      <trkpt lat="43.29736" lon="2.20447">
        <ele>235.3</ele>
        <time>2019-06-09T06:34:14.000Z</time>
      </trkpt>
      <trkpt lat="43.29738" lon="2.20446">
        <ele>235.4</ele>
        <time>2019-06-09T06:34:15.000Z</time>
      </trkpt>
      <trkpt lat="43.29741" lon="2.20445">
        <ele>235.5</ele>
        <time>2019-06-09T06:34:16.000Z</time>
      </trkpt>
      <trkpt lat="43.29743" lon="2.20445">
        <ele>235.6</ele>
        <time>2019-06-09T06:34:17.000Z</time>
      </trkpt>
      <trkpt lat="43.29746" lon="2.20444">
        <ele>235.7</ele>
        <time>2019-06-09T06:34:18.000Z</time>
      </trkpt>
      <trkpt lat="43.29748" lon="2.20443">
        <ele>235.9</ele>
        <time>2019-06-09T06:34:19.000Z</time>
      </trkpt>
      <trkpt lat="43.29751" lon="2.20443">
        <ele>236</ele>
        <time>2019-06-09T06:34:20.000Z</time>
      </trkpt>
      <trkpt lat="43.29753" lon="2.20442">
        <ele>236.1</ele>
        <time>2019-06-09T06:34:21.000Z</time>
      </trkpt>
      <trkpt lat="43.29756" lon="2.20442">
        <ele>236.3</ele>
        <time>2019-06-09T06:34:22.000Z</time>
      </trkpt>
      <trkpt lat="43.29758" lon="2.20441">
        <ele>236.4</ele>
        <time>2019-06-09T06:34:23.000Z</time>
      </trkpt>
      <trkpt lat="43.29761" lon="2.20441">
        <ele>236.6</ele>
        <time>2019-06-09T06:34:24.000Z</time>
      </trkpt>
      <trkpt lat="43.29764" lon="2.2044">
        <ele>236.7</ele>
        <time>2019-06-09T06:34:25.000Z</time>
      </trkpt>
      <trkpt lat="43.29766" lon="2.20439">
        <ele>236.9</ele>
        <time>2019-06-09T06:34:26.000Z</time>
      </trkpt>
      <trkpt lat="43.29768" lon="2.20438">
        <ele>237</ele>
        <time>2019-06-09T06:34:27.000Z</time>
      </trkpt>
      <trkpt lat="43.29771" lon="2.20438">
        <ele>237.1</ele>
        <time>2019-06-09T06:34:28.000Z</time>
      </trkpt>
      <trkpt lat="43.29773" lon="2.20437">
        <ele>237.2</ele>
        <time>2019-06-09T06:34:29.000Z</time>
      </trkpt>
      <trkpt lat="43.29775" lon="2.20436">
        <ele>237.3</ele>
        <time>2019-06-09T06:34:30.000Z</time>
      </trkpt>
      <trkpt lat="43.29777" lon="2.20434">
        <ele>237.4</ele>
        <time>2019-06-09T06:34:31.000Z</time>
      </trkpt>
      <trkpt lat="43.29779" lon="2.20433">
        <ele>237.5</ele>
        <time>2019-06-09T06:34:32.000Z</time>
      </trkpt>
      <trkpt lat="43.29781" lon="2.20432">
        <ele>237.6</ele>
        <time>2019-06-09T06:34:33.000Z</time>
      </trkpt>
      <trkpt lat="43.29783" lon="2.2043">
        <ele>237.7</ele>
        <time>2019-06-09T06:34:34.000Z</time>
      </trkpt>
      <trkpt lat="43.29785" lon="2.20429">
        <ele>237.8</ele>
        <time>2019-06-09T06:34:35.000Z</time>
      </trkpt>
      <trkpt lat="43.29787" lon="2.20427">
        <ele>237.9</ele>
        <time>2019-06-09T06:34:36.000Z</time>
      </trkpt>
      <trkpt lat="43.29789" lon="2.20425">
        <ele>238</ele>
        <time>2019-06-09T06:34:37.000Z</time>
      </trkpt>
      <trkpt lat="43.29791" lon="2.20423">
        <ele>238.1</ele>
        <time>2019-06-09T06:34:38.000Z</time>
      </trkpt>
      <trkpt lat="43.29793" lon="2.20421">
        <ele>238.2</ele>
        <time>2019-06-09T06:34:39.000Z</time>
      </trkpt>
      <trkpt lat="43.29795" lon="2.20418">
        <ele>238.2</ele>
        <time>2019-06-09T06:34:40.000Z</time>
      </trkpt>
      <trkpt lat="43.29796" lon="2.20416">
        <ele>238.3</ele>
        <time>2019-06-09T06:34:41.000Z</time>
      </trkpt>
      <trkpt lat="43.29798" lon="2.20414">
        <ele>238.4</ele>
        <time>2019-06-09T06:34:42.000Z</time>
      </trkpt>
      <trkpt lat="43.298" lon="2.20411">
        <ele>238.5</ele>
        <time>2019-06-09T06:34:43.000Z</time>
      </trkpt>
      <trkpt lat="43.29802" lon="2.20409">
        <ele>238.6</ele>
        <time>2019-06-09T06:34:44.000Z</time>
      </trkpt>
      <trkpt lat="43.29803" lon="2.20406">
        <ele>238.7</ele>
        <time>2019-06-09T06:34:45.000Z</time>
      </trkpt>
      <trkpt lat="43.29805" lon="2.20404">
        <ele>238.8</ele>
        <time>2019-06-09T06:34:46.000Z</time>
      </trkpt>
      <trkpt lat="43.29806" lon="2.20402">
        <ele>238.9</ele>
        <time>2019-06-09T06:34:47.000Z</time>
      </trkpt>
      <trkpt lat="43.29808" lon="2.20399">
        <ele>238.9</ele>
        <time>2019-06-09T06:34:48.000Z</time>
      </trkpt>
      <trkpt lat="43.29809" lon="2.20397">
        <ele>239</ele>
        <time>2019-06-09T06:34:49.000Z</time>
      </trkpt>
      <trkpt lat="43.29811" lon="2.20394">
        <ele>239.1</ele>
        <time>2019-06-09T06:34:50.000Z</time>
      </trkpt>
      <trkpt lat="43.29812" lon="2.20391">
        <ele>239.1</ele>
        <time>2019-06-09T06:34:51.000Z</time>
      </trkpt>
      <trkpt lat="43.29813" lon="2.20389">
        <ele>239.2</ele>
        <time>2019-06-09T06:34:52.000Z</time>
      </trkpt>
      <trkpt lat="43.29814" lon="2.20386">
        <ele>239.3</ele>
        <time>2019-06-09T06:34:53.000Z</time>
      </trkpt>
      <trkpt lat="43.29816" lon="2.20384">
        <ele>239.3</ele>
        <time>2019-06-09T06:34:54.000Z</time>
      </trkpt>
      <trkpt lat="43.29817" lon="2.20381">
        <ele>239.4</ele>
        <time>2019-06-09T06:34:55.000Z</time>
      </trkpt>
      <trkpt lat="43.29818" lon="2.20379">
        <ele>239.4</ele>
        <time>2019-06-09T06:34:56.000Z</time>
      </trkpt>
      <trkpt lat="43.29819" lon="2.20376">
        <ele>239.5</ele>
        <time>2019-06-09T06:34:57.000Z</time>
      </trkpt>
      <trkpt lat="43.2982" lon="2.20373">
        <ele>239.5</ele>
        <time>2019-06-09T06:34:58.000Z</time>
      </trkpt>
      <trkpt lat="43.29821" lon="2.20371">
        <ele>239.6</ele>
        <time>2019-06-09T06:34:59.000Z</time>
      </trkpt>
      <trkpt lat="43.29823" lon="2.20368">
        <ele>239.6</ele>
        <time>2019-06-09T06:35:00.000Z</time>
      </trkpt>
      <trkpt lat="43.29824" lon="2.20365">
        <ele>239.7</ele>
        <time>2019-06-09T06:35:01.000Z</time>
      </trkpt>
      <trkpt lat="43.29825" lon="2.20363">
        <ele>239.7</ele>
        <time>2019-06-09T06:35:02.000Z</time>
      </trkpt>
      <trkpt lat="43.29826" lon="2.2036">
        <ele>239.8</ele>
        <time>2019-06-09T06:35:03.000Z</time>
      </trkpt>
      <trkpt lat="43.29827" lon="2.20357">
        <ele>239.8</ele>
        <time>2019-06-09T06:35:04.000Z</time>
      </trkpt>
      <trkpt lat="43.29828" lon="2.20355">
        <ele>239.8</ele>
        <time>2019-06-09T06:35:05.000Z</time>
      </trkpt>
      <trkpt lat="43.29829" lon="2.20352">
        <ele>239.9</ele>
        <time>2019-06-09T06:35:06.000Z</time>
      </trkpt>
      <trkpt lat="43.2983" lon="2.2035">
        <ele>239.9</ele>
        <time>2019-06-09T06:35:07.000Z</time>
      </trkpt>
      <trkpt lat="43.29831" lon="2.20347">
        <ele>240</ele>
        <time>2019-06-09T06:35:08.000Z</time>
      </trkpt>
      <trkpt lat="43.29831" lon="2.20345">
        <ele>240</ele>
        <time>2019-06-09T06:35:09.000Z</time>
      </trkpt>
      <trkpt lat="43.29832" lon="2.20342">
        <ele>240</ele>
        <time>2019-06-09T06:35:10.000Z</time>
      </trkpt>
      <trkpt lat="43.29833" lon="2.2034">
        <ele>240.1</ele>
        <time>2019-06-09T06:35:11.000Z</time>
      </trkpt>
      <trkpt lat="43.29834" lon="2.20337">
        <ele>240.1</ele>
        <time>2019-06-09T06:35:12.000Z</time>
      </trkpt>
      <trkpt lat="43.29835" lon="2.20335">
        <ele>240.1</ele>
        <time>2019-06-09T06:35:13.000Z</time>
      </trkpt>
      <trkpt lat="43.29836" lon="2.20332">
        <ele>240.2</ele>
        <time>2019-06-09T06:35:14.000Z</time>
      </trkpt>
      <trkpt lat="43.29837" lon="2.2033">
        <ele>240.2</ele>
        <time>2019-06-09T06:35:15.000Z</time>
      </trkpt>
      <trkpt lat="43.29838" lon="2.20328">
        <ele>240.2</ele>
        <time>2019-06-09T06:35:16.000Z</time>
      </trkpt>
      <trkpt lat="43.29839" lon="2.20325">
        <ele>240.3</ele>
        <time>2019-06-09T06:35:17.000Z</time>
      </trkpt>
      <trkpt lat="43.2984" lon="2.20323">
        <ele>240.3</ele>
        <time>2019-06-09T06:35:18.000Z</time>
      </trkpt>
      <trkpt lat="43.29841" lon="2.2032">
        <ele>240.4</ele>
        <time>2019-06-09T06:35:19.000Z</time>
      </trkpt>
      <trkpt lat="43.29842" lon="2.20318">
        <ele>240.4</ele>
        <time>2019-06-09T06:35:20.000Z</time>
      </trkpt>
      <trkpt lat="43.29843" lon="2.20315">
        <ele>240.4</ele>
        <time>2019-06-09T06:35:21.000Z</time>
      </trkpt>
      <trkpt lat="43.29844" lon="2.20313">
        <ele>240.5</ele>
        <time>2019-06-09T06:35:22.000Z</time>
      </trkpt>
      <trkpt lat="43.29845" lon="2.2031">
        <ele>240.5</ele>
        <time>2019-06-09T06:35:23.000Z</time>
      </trkpt>
      <trkpt lat="43.29846" lon="2.20307">
        <ele>240.6</ele>
        <time>2019-06-09T06:35:24.000Z</time>
      </trkpt>
      <trkpt lat="43.29847" lon="2.20304">
        <ele>240.6</ele>
        <time>2019-06-09T06:35:25.000Z</time>
      </trkpt>
      <trkpt lat="43.29849" lon="2.20302">
        <ele>240.6</ele>
        <time>2019-06-09T06:35:26.000Z</time>
      </trkpt>
      <trkpt lat="43.2985" lon="2.20299">
        <ele>240.7</ele>
        <time>2019-06-09T06:35:27.000Z</time>
      </trkpt>
      <trkpt lat="43.29851" lon="2.20296">
        <ele>240.7</ele>
        <time>2019-06-09T06:35:28.000Z</time>
      </trkpt>
      <trkpt lat="43.29852" lon="2.20293">
        <ele>240.8</ele>
        <time>2019-06-09T06:35:29.000Z</time>
      </trkpt>
      <trkpt lat="43.29853" lon="2.2029">
        <ele>240.8</ele>
        <time>2019-06-09T06:35:30.000Z</time>
      </trkpt>
      <trkpt lat="43.29855" lon="2.20287">
        <ele>240.8</ele>
        <time>2019-06-09T06:35:31.000Z</time>
      </trkpt>
      <trkpt lat="43.29856" lon="2.20284">
        <ele>240.9</ele>
        <time>2019-06-09T06:35:32.000Z</time>
      </trkpt>
      <trkpt lat="43.29857" lon="2.20281">
        <ele>240.9</ele>
        <time>2019-06-09T06:35:33.000Z</time>
      </trkpt>
      <trkpt lat="43.29858" lon="2.20279">
        <ele>240.9</ele>
        <time>2019-06-09T06:35:34.000Z</time>
      </trkpt>
      <trkpt lat="43.29859" lon="2.20276">
        <ele>241</ele>
        <time>2019-06-09T06:35:35.000Z</time>
      </trkpt>
      <trkpt lat="43.2986" lon="2.20273">
        <ele>241</ele>
        <time>2019-06-09T06:35:36.000Z</time>
      </trkpt>
      <trkpt lat="43.29862" lon="2.2027">
        <ele>241</ele>
        <time>2019-06-09T06:35:37.000Z</time>
      </trkpt>
      <trkpt lat="43.29863" lon="2.20267">
        <ele>241</ele>
        <time>2019-06-09T06:35:38.000Z</time>
      </trkpt>
      <trkpt lat="43.29864" lon="2.20265">
        <ele>241.1</ele>
        <time>2019-06-09T06:35:39.000Z</time>
      </trkpt>
      <trkpt lat="43.29865" lon="2.20262">
        <ele>241.1</ele>
        <time>2019-06-09T06:35:40.000Z</time>
      </trkpt>
      <trkpt lat="43.29866" lon="2.20259">
        <ele>241.1</ele>
        <time>2019-06-09T06:35:41.000Z</time>
      </trkpt>
      <trkpt lat="43.29868" lon="2.20256">
        <ele>241.2</ele>
        <time>2019-06-09T06:35:42.000Z</time>
      </trkpt>
      <trkpt lat="43.29869" lon="2.20253">
        <ele>241.2</ele>
        <time>2019-06-09T06:35:43.000Z</time>
      </trkpt>
      <trkpt lat="43.29871" lon="2.20251">
        <ele>241.2</ele>
        <time>2019-06-09T06:35:44.000Z</time>
      </trkpt>
      <trkpt lat="43.29872" lon="2.20248">
        <ele>241.3</ele>
        <time>2019-06-09T06:35:45.000Z</time>
      </trkpt>
      <trkpt lat="43.29873" lon="2.20245">
        <ele>241.5</ele>
        <time>2019-06-09T06:35:46.000Z</time>
      </trkpt>
      <trkpt lat="43.29875" lon="2.20243">
        <ele>241.6</ele>
        <time>2019-06-09T06:35:47.000Z</time>
      </trkpt>
      <trkpt lat="43.29876" lon="2.2024">
        <ele>241.7</ele>
        <time>2019-06-09T06:35:48.000Z</time>
      </trkpt>
      <trkpt lat="43.29878" lon="2.20238">
        <ele>241.8</ele>
        <time>2019-06-09T06:35:49.000Z</time>
      </trkpt>
      <trkpt lat="43.29879" lon="2.20236">
        <ele>241.9</ele>
        <time>2019-06-09T06:35:50.000Z</time>
      </trkpt>
      <trkpt lat="43.2988" lon="2.20234">
        <ele>242</ele>
        <time>2019-06-09T06:35:51.000Z</time>
      </trkpt>
      <trkpt lat="43.29881" lon="2.20232">
        <ele>242.1</ele>
        <time>2019-06-09T06:35:52.000Z</time>
      </trkpt>
      <trkpt lat="43.29882" lon="2.20231">
        <ele>242.1</ele>
        <time>2019-06-09T06:35:53.000Z</time>
      </trkpt>
      <trkpt lat="43.29883" lon="2.20229">
        <ele>242.2</ele>
        <time>2019-06-09T06:35:54.000Z</time>
      </trkpt>
      <trkpt lat="43.29884" lon="2.20228">
        <ele>242.2</ele>
        <time>2019-06-09T06:35:55.000Z</time>
      </trkpt>
      <trkpt lat="43.29884" lon="2.20227">
        <ele>242.3</ele>
        <time>2019-06-09T06:35:56.000Z</time>
      </trkpt>
      <trkpt lat="43.29885" lon="2.20226">
        <ele>242.3</ele>
        <time>2019-06-09T06:35:57.000Z</time>
      </trkpt>
      <trkpt lat="43.29885" lon="2.20224">
        <ele>242.3</ele>
        <time>2019-06-09T06:35:58.000Z</time>
      </trkpt>
      <trkpt lat="43.29886" lon="2.20223">
        <ele>242.4</ele>
        <time>2019-06-09T06:35:59.000Z</time>
      </trkpt>
      <trkpt lat="43.29886" lon="2.20222">
        <ele>242.4</ele>
        <time>2019-06-09T06:36:00.000Z</time>
      </trkpt>
      <trkpt lat="43.29887" lon="2.20221">
        <ele>242.5</ele>
        <time>2019-06-09T06:36:01.000Z</time>
      </trkpt>
      <trkpt lat="43.29888" lon="2.20219">
        <ele>242.5</ele>
        <time>2019-06-09T06:36:02.000Z</time>
      </trkpt>
      <trkpt lat="43.29888" lon="2.20218">
        <ele>242.6</ele>
        <time>2019-06-09T06:36:03.000Z</time>
      </trkpt>
      <trkpt lat="43.29889" lon="2.20217">
        <ele>242.6</ele>
        <time>2019-06-09T06:36:04.000Z</time>
      </trkpt>
      <trkpt lat="43.2989" lon="2.20216">
        <ele>242.6</ele>
        <time>2019-06-09T06:36:05.000Z</time>
      </trkpt>
      <trkpt lat="43.2989" lon="2.20216">
        <ele>242.7</ele>
        <time>2019-06-09T06:36:06.000Z</time>
      </trkpt>
      <trkpt lat="43.2989" lon="2.20215">
        <ele>242.7</ele>
        <time>2019-06-09T06:36:07.000Z</time>
      </trkpt>
      <trkpt lat="43.2989" lon="2.20215">
        <ele>242.7</ele>
        <time>2019-06-09T06:36:08.000Z</time>
      </trkpt>
      <trkpt lat="43.2989" lon="2.20215">
        <ele>242.7</ele>
        <time>2019-06-09T06:36:09.000Z</time>
      </trkpt>
      <trkpt lat="43.2989" lon="2.20215">
        <ele>242.7</ele>
        <time>2019-06-09T06:36:10.000Z</time>
      </trkpt>
      <trkpt lat="43.2989" lon="2.20215">
        <ele>242.7</ele>
        <time>2019-06-09T06:36:11.000Z</time>
      </trkpt>
      <trkpt lat="43.2989" lon="2.20215">
        <ele>242.7</ele>
        <time>2019-06-09T06:36:12.000Z</time>
      </trkpt>
      <trkpt lat="43.29891" lon="2.20215">
        <ele>242.7</ele>
        <time>2019-06-09T06:36:13.000Z</time>
      </trkpt>
      <trkpt lat="43.29891" lon="2.20214">
        <ele>242.7</ele>
        <time>2019-06-09T06:36:14.000Z</time>
      </trkpt>
      <trkpt lat="43.29891" lon="2.20214">
        <ele>242.7</ele>
        <time>2019-06-09T06:36:15.000Z</time>
      </trkpt>
      <trkpt lat="43.29892" lon="2.20213">
        <ele>242.8</ele>
        <time>2019-06-09T06:36:16.000Z</time>
      </trkpt>
      <trkpt lat="43.29892" lon="2.20213">
        <ele>242.8</ele>
        <time>2019-06-09T06:36:17.000Z</time>
      </trkpt>
      <trkpt lat="43.29892" lon="2.20212">
        <ele>242.8</ele>
        <time>2019-06-09T06:36:18.000Z</time>
      </trkpt>
      <trkpt lat="43.29892" lon="2.20212">
        <ele>242.8</ele>
        <time>2019-06-09T06:36:19.000Z</time>
      </trkpt>
      <trkpt lat="43.29893" lon="2.20211">
        <ele>242.8</ele>
        <time>2019-06-09T06:36:20.000Z</time>
      </trkpt>
      <trkpt lat="43.29893" lon="2.2021">
        <ele>242.8</ele>
        <time>2019-06-09T06:36:21.000Z</time>
      </trkpt>
      <trkpt lat="43.29893" lon="2.20209">
        <ele>242.9</ele>
        <time>2019-06-09T06:36:22.000Z</time>
      </trkpt>
      <trkpt lat="43.29893" lon="2.20208">
        <ele>242.9</ele>
        <time>2019-06-09T06:36:23.000Z</time>
      </trkpt>
      <trkpt lat="43.29894" lon="2.20207">
        <ele>242.9</ele>
        <time>2019-06-09T06:36:24.000Z</time>
      </trkpt>
      <trkpt lat="43.29894" lon="2.20206">
        <ele>242.9</ele>
        <time>2019-06-09T06:36:25.000Z</time>
      </trkpt>
      <trkpt lat="43.29895" lon="2.20205">
        <ele>243</ele>
        <time>2019-06-09T06:36:26.000Z</time>
      </trkpt>
      <trkpt lat="43.29895" lon="2.20204">
        <ele>243</ele>
        <time>2019-06-09T06:36:27.000Z</time>
      </trkpt>
      <trkpt lat="43.29896" lon="2.20203">
        <ele>243</ele>
        <time>2019-06-09T06:36:28.000Z</time>
      </trkpt>
      <trkpt lat="43.29896" lon="2.20201">
        <ele>243.1</ele>
        <time>2019-06-09T06:36:29.000Z</time>
      </trkpt>
      <trkpt lat="43.29897" lon="2.202">
        <ele>243.1</ele>
        <time>2019-06-09T06:36:30.000Z</time>
      </trkpt>
      <trkpt lat="43.29898" lon="2.20199">
        <ele>243.1</ele>
        <time>2019-06-09T06:36:31.000Z</time>
      </trkpt>
      <trkpt lat="43.29899" lon="2.20197">
        <ele>243.2</ele>
        <time>2019-06-09T06:36:32.000Z</time>
      </trkpt>
      <trkpt lat="43.29899" lon="2.20196">
        <ele>243.2</ele>
        <time>2019-06-09T06:36:33.000Z</time>
      </trkpt>
      <trkpt lat="43.299" lon="2.20195">
        <ele>243.3</ele>
        <time>2019-06-09T06:36:34.000Z</time>
      </trkpt>
      <trkpt lat="43.29901" lon="2.20193">
        <ele>243.3</ele>
        <time>2019-06-09T06:36:35.000Z</time>
      </trkpt>
      <trkpt lat="43.29902" lon="2.20192">
        <ele>243.3</ele>
        <time>2019-06-09T06:36:36.000Z</time>
      </trkpt>
      <trkpt lat="43.29902" lon="2.20191">
        <ele>243.4</ele>
        <time>2019-06-09T06:36:37.000Z</time>
      </trkpt>
      <trkpt lat="43.29903" lon="2.20189">
        <ele>243.4</ele>
        <time>2019-06-09T06:36:38.000Z</time>
      </trkpt>
      <trkpt lat="43.29904" lon="2.20188">
        <ele>243.5</ele>
        <time>2019-06-09T06:36:39.000Z</time>
      </trkpt>
      <trkpt lat="43.29905" lon="2.20187">
        <ele>243.5</ele>
        <time>2019-06-09T06:36:40.000Z</time>
      </trkpt>
      <trkpt lat="43.29906" lon="2.20186">
        <ele>243.5</ele>
        <time>2019-06-09T06:36:41.000Z</time>
      </trkpt>
      <trkpt lat="43.29906" lon="2.20184">
        <ele>243.6</ele>
        <time>2019-06-09T06:36:42.000Z</time>
      </trkpt>
      <trkpt lat="43.29907" lon="2.20183">
        <ele>243.6</ele>
        <time>2019-06-09T06:36:43.000Z</time>
      </trkpt>
      <trkpt lat="43.29908" lon="2.20182">
        <ele>243.6</ele>
        <time>2019-06-09T06:36:44.000Z</time>
      </trkpt>
      <trkpt lat="43.29909" lon="2.20181">
        <ele>243.7</ele>
        <time>2019-06-09T06:36:45.000Z</time>
      </trkpt>
      <trkpt lat="43.2991" lon="2.20179">
        <ele>243.7</ele>
        <time>2019-06-09T06:36:46.000Z</time>
      </trkpt>
      <trkpt lat="43.2991" lon="2.20178">
        <ele>243.8</ele>
        <time>2019-06-09T06:36:47.000Z</time>
      </trkpt>
      <trkpt lat="43.29911" lon="2.20177">
        <ele>243.8</ele>
        <time>2019-06-09T06:36:48.000Z</time>
      </trkpt>
      <trkpt lat="43.29912" lon="2.20176">
        <ele>243.8</ele>
        <time>2019-06-09T06:36:49.000Z</time>
      </trkpt>
      <trkpt lat="43.29913" lon="2.20174">
        <ele>243.8</ele>
        <time>2019-06-09T06:36:50.000Z</time>
      </trkpt>
      <trkpt lat="43.29913" lon="2.20173">
        <ele>243.9</ele>
        <time>2019-06-09T06:36:51.000Z</time>
      </trkpt>
      <trkpt lat="43.29914" lon="2.20172">
        <ele>243.9</ele>
        <time>2019-06-09T06:36:52.000Z</time>
      </trkpt>
      <trkpt lat="43.29915" lon="2.2017">
        <ele>243.9</ele>
        <time>2019-06-09T06:36:53.000Z</time>
      </trkpt>
      <trkpt lat="43.29915" lon="2.20169">
        <ele>243.9</ele>
        <time>2019-06-09T06:36:54.000Z</time>
      </trkpt>
      <trkpt lat="43.29916" lon="2.20168">
        <ele>244</ele>
        <time>2019-06-09T06:36:55.000Z</time>
      </trkpt>
      <trkpt lat="43.29917" lon="2.20166">
        <ele>244</ele>
        <time>2019-06-09T06:36:56.000Z</time>
      </trkpt>
      <trkpt lat="43.29917" lon="2.20165">
        <ele>244.1</ele>
        <time>2019-06-09T06:36:57.000Z</time>
      </trkpt>
      <trkpt lat="43.29918" lon="2.20164">
        <ele>244.1</ele>
        <time>2019-06-09T06:36:58.000Z</time>
      </trkpt>
      <trkpt lat="43.29919" lon="2.20162">
        <ele>244.1</ele>
        <time>2019-06-09T06:36:59.000Z</time>
      </trkpt>
      <trkpt lat="43.29919" lon="2.20161">
        <ele>244.2</ele>
        <time>2019-06-09T06:37:00.000Z</time>
      </trkpt>
      <trkpt lat="43.2992" lon="2.2016">
        <ele>244.2</ele>
        <time>2019-06-09T06:37:01.000Z</time>
      </trkpt>
      <trkpt lat="43.29921" lon="2.20158">
        <ele>244.3</ele>
        <time>2019-06-09T06:37:02.000Z</time>
      </trkpt>
      <trkpt lat="43.29921" lon="2.20157">
        <ele>244.3</ele>
        <time>2019-06-09T06:37:03.000Z</time>
      </trkpt>
      <trkpt lat="43.29922" lon="2.20156">
        <ele>244.4</ele>
        <time>2019-06-09T06:37:04.000Z</time>
      </trkpt>
      <trkpt lat="43.29923" lon="2.20154">
        <ele>244.4</ele>
        <time>2019-06-09T06:37:05.000Z</time>
      </trkpt>
      <trkpt lat="43.29923" lon="2.20153">
        <ele>244.5</ele>
        <time>2019-06-09T06:37:06.000Z</time>
      </trkpt>
      <trkpt lat="43.29924" lon="2.20151">
        <ele>244.5</ele>
        <time>2019-06-09T06:37:07.000Z</time>
      </trkpt>
      <trkpt lat="43.29925" lon="2.2015">
        <ele>244.5</ele>
        <time>2019-06-09T06:37:08.000Z</time>
      </trkpt>
      <trkpt lat="43.29926" lon="2.20149">
        <ele>244.6</ele>
        <time>2019-06-09T06:37:09.000Z</time>
      </trkpt>
      <trkpt lat="43.29926" lon="2.20147">
        <ele>244.6</ele>
        <time>2019-06-09T06:37:10.000Z</time>
      </trkpt>
      <trkpt lat="43.29927" lon="2.20146">
        <ele>244.7</ele>
        <time>2019-06-09T06:37:11.000Z</time>
      </trkpt>
      <trkpt lat="43.29928" lon="2.20144">
        <ele>244.7</ele>
        <time>2019-06-09T06:37:12.000Z</time>
      </trkpt>
      <trkpt lat="43.29928" lon="2.20143">
        <ele>244.8</ele>
        <time>2019-06-09T06:37:13.000Z</time>
      </trkpt>
      <trkpt lat="43.29929" lon="2.20142">
        <ele>244.8</ele>
        <time>2019-06-09T06:37:14.000Z</time>
      </trkpt>
      <trkpt lat="43.2993" lon="2.2014">
        <ele>244.8</ele>
        <time>2019-06-09T06:37:15.000Z</time>
      </trkpt>
      <trkpt lat="43.2993" lon="2.20139">
        <ele>244.9</ele>
        <time>2019-06-09T06:37:16.000Z</time>
      </trkpt>
      <trkpt lat="43.29931" lon="2.20138">
        <ele>244.9</ele>
        <time>2019-06-09T06:37:17.000Z</time>
      </trkpt>
      <trkpt lat="43.29932" lon="2.20136">
        <ele>245</ele>
        <time>2019-06-09T06:37:18.000Z</time>
      </trkpt>
      <trkpt lat="43.29933" lon="2.20135">
        <ele>245</ele>
        <time>2019-06-09T06:37:19.000Z</time>
      </trkpt>
      <trkpt lat="43.29933" lon="2.20134">
        <ele>245</ele>
        <time>2019-06-09T06:37:20.000Z</time>
      </trkpt>
      <trkpt lat="43.29934" lon="2.20132">
        <ele>245.1</ele>
        <time>2019-06-09T06:37:21.000Z</time>
      </trkpt>
      <trkpt lat="43.29935" lon="2.20131">
        <ele>245.1</ele>
        <time>2019-06-09T06:37:22.000Z</time>
      </trkpt>
      <trkpt lat="43.29936" lon="2.2013">
        <ele>245.2</ele>
        <time>2019-06-09T06:37:23.000Z</time>
      </trkpt>
      <trkpt lat="43.29937" lon="2.20128">
        <ele>245.2</ele>
        <time>2019-06-09T06:37:24.000Z</time>
      </trkpt>
      <trkpt lat="43.29937" lon="2.20127">
        <ele>245.2</ele>
        <time>2019-06-09T06:37:25.000Z</time>
      </trkpt>
      <trkpt lat="43.29938" lon="2.20126">
        <ele>245.3</ele>
        <time>2019-06-09T06:37:26.000Z</time>
      </trkpt>
      <trkpt lat="43.29939" lon="2.20124">
        <ele>245.3</ele>
        <time>2019-06-09T06:37:27.000Z</time>
      </trkpt>
      <trkpt lat="43.2994" lon="2.20123">
        <ele>245.4</ele>
        <time>2019-06-09T06:37:28.000Z</time>
      </trkpt>
      <trkpt lat="43.29941" lon="2.20122">
        <ele>245.4</ele>
        <time>2019-06-09T06:37:29.000Z</time>
      </trkpt>
      <trkpt lat="43.29941" lon="2.2012">
        <ele>245.4</ele>
        <time>2019-06-09T06:37:30.000Z</time>
      </trkpt>
      <trkpt lat="43.29942" lon="2.20119">
        <ele>245.5</ele>
        <time>2019-06-09T06:37:31.000Z</time>
      </trkpt>
      <trkpt lat="43.29943" lon="2.20117">
        <ele>245.5</ele>
        <time>2019-06-09T06:37:32.000Z</time>
      </trkpt>
      <trkpt lat="43.29944" lon="2.20116">
        <ele>245.6</ele>
        <time>2019-06-09T06:37:33.000Z</time>
      </trkpt>
      <trkpt lat="43.29945" lon="2.20114">
        <ele>245.6</ele>
        <time>2019-06-09T06:37:34.000Z</time>
      </trkpt>
      <trkpt lat="43.29945" lon="2.20113">
        <ele>245.6</ele>
        <time>2019-06-09T06:37:35.000Z</time>
      </trkpt>
      <trkpt lat="43.29946" lon="2.20112">
        <ele>245.7</ele>
        <time>2019-06-09T06:37:36.000Z</time>
      </trkpt>
      <trkpt lat="43.29947" lon="2.2011">
        <ele>245.7</ele>
        <time>2019-06-09T06:37:37.000Z</time>
      </trkpt>
      <trkpt lat="43.29948" lon="2.20109">
        <ele>245.7</ele>
        <time>2019-06-09T06:37:38.000Z</time>
      </trkpt>
      <trkpt lat="43.29949" lon="2.20107">
        <ele>245.7</ele>
        <time>2019-06-09T06:37:39.000Z</time>
      </trkpt>
      <trkpt lat="43.29949" lon="2.20106">
        <ele>245.8</ele>
        <time>2019-06-09T06:37:40.000Z</time>
      </trkpt>
      <trkpt lat="43.2995" lon="2.20104">
        <ele>245.8</ele>
        <time>2019-06-09T06:37:41.000Z</time>
      </trkpt>
      <trkpt lat="43.29951" lon="2.20103">
        <ele>245.8</ele>
        <time>2019-06-09T06:37:42.000Z</time>
      </trkpt>
      <trkpt lat="43.29951" lon="2.20102">
        <ele>245.8</ele>
        <time>2019-06-09T06:37:43.000Z</time>
      </trkpt>
      <trkpt lat="43.29952" lon="2.201">
        <ele>245.9</ele>
        <time>2019-06-09T06:37:44.000Z</time>
      </trkpt>
      <trkpt lat="43.29953" lon="2.20099">
        <ele>245.9</ele>
        <time>2019-06-09T06:37:45.000Z</time>
      </trkpt>
      <trkpt lat="43.29954" lon="2.20098">
        <ele>245.9</ele>
        <time>2019-06-09T06:37:46.000Z</time>
      </trkpt>
      <trkpt lat="43.29954" lon="2.20096">
        <ele>245.9</ele>
        <time>2019-06-09T06:37:47.000Z</time>
      </trkpt>
      <trkpt lat="43.29955" lon="2.20095">
        <ele>246</ele>
        <time>2019-06-09T06:37:48.000Z</time>
      </trkpt>
      <trkpt lat="43.29956" lon="2.20094">
        <ele>246</ele>
        <time>2019-06-09T06:37:49.000Z</time>
      </trkpt>
      <trkpt lat="43.29956" lon="2.20092">
        <ele>246</ele>
        <time>2019-06-09T06:37:50.000Z</time>
      </trkpt>
      <trkpt lat="43.29957" lon="2.20091">
        <ele>246</ele>
        <time>2019-06-09T06:37:51.000Z</time>
      </trkpt>
      <trkpt lat="43.29958" lon="2.20089">
        <ele>246</ele>
        <time>2019-06-09T06:37:52.000Z</time>
      </trkpt>
      <trkpt lat="43.29958" lon="2.20088">
        <ele>246.1</ele>
        <time>2019-06-09T06:37:53.000Z</time>
      </trkpt>
      <trkpt lat="43.29959" lon="2.20087">
        <ele>246.1</ele>
        <time>2019-06-09T06:37:54.000Z</time>
      </trkpt>
      <trkpt lat="43.2996" lon="2.20085">
        <ele>246.1</ele>
        <time>2019-06-09T06:37:55.000Z</time>
      </trkpt>
      <trkpt lat="43.2996" lon="2.20084">
        <ele>246.1</ele>
        <time>2019-06-09T06:37:56.000Z</time>
      </trkpt>
      <trkpt lat="43.29961" lon="2.20083">
        <ele>246.1</ele>
        <time>2019-06-09T06:37:57.000Z</time>
      </trkpt>
      <trkpt lat="43.29962" lon="2.20081">
        <ele>246.2</ele>
        <time>2019-06-09T06:37:58.000Z</time>
      </trkpt>
      <trkpt lat="43.29962" lon="2.2008">
        <ele>246.2</ele>
        <time>2019-06-09T06:37:59.000Z</time>
      </trkpt>
      <trkpt lat="43.29963" lon="2.20078">
        <ele>246.3</ele>
        <time>2019-06-09T06:38:00.000Z</time>
      </trkpt>
      <trkpt lat="43.29964" lon="2.20077">
        <ele>246.3</ele>
        <time>2019-06-09T06:38:01.000Z</time>
      </trkpt>
      <trkpt lat="43.29964" lon="2.20076">
        <ele>246.3</ele>
        <time>2019-06-09T06:38:02.000Z</time>
      </trkpt>
      <trkpt lat="43.29965" lon="2.20074">
        <ele>246.4</ele>
        <time>2019-06-09T06:38:03.000Z</time>
      </trkpt>
      <trkpt lat="43.29966" lon="2.20073">
        <ele>246.4</ele>
        <time>2019-06-09T06:38:04.000Z</time>
      </trkpt>
      <trkpt lat="43.29966" lon="2.20071">
        <ele>246.4</ele>
        <time>2019-06-09T06:38:05.000Z</time>
      </trkpt>
      <trkpt lat="43.29967" lon="2.20069">
        <ele>246.5</ele>
        <time>2019-06-09T06:38:06.000Z</time>
      </trkpt>
      <trkpt lat="43.29968" lon="2.20068">
        <ele>246.5</ele>
        <time>2019-06-09T06:38:07.000Z</time>
      </trkpt>
      <trkpt lat="43.29969" lon="2.20066">
        <ele>246.6</ele>
        <time>2019-06-09T06:38:08.000Z</time>
      </trkpt>
      <trkpt lat="43.2997" lon="2.20065">
        <ele>246.6</ele>
        <time>2019-06-09T06:38:09.000Z</time>
      </trkpt>
      <trkpt lat="43.2997" lon="2.20063">
        <ele>246.7</ele>
        <time>2019-06-09T06:38:10.000Z</time>
      </trkpt>
      <trkpt lat="43.29971" lon="2.20062">
        <ele>246.7</ele>
        <time>2019-06-09T06:38:11.000Z</time>
      </trkpt>
      <trkpt lat="43.29972" lon="2.20061">
        <ele>246.8</ele>
        <time>2019-06-09T06:38:12.000Z</time>
      </trkpt>
      <trkpt lat="43.29973" lon="2.20059">
        <ele>246.8</ele>
        <time>2019-06-09T06:38:13.000Z</time>
      </trkpt>
      <trkpt lat="43.29974" lon="2.20058">
        <ele>246.9</ele>
        <time>2019-06-09T06:38:14.000Z</time>
      </trkpt>
      <trkpt lat="43.29975" lon="2.20056">
        <ele>246.9</ele>
        <time>2019-06-09T06:38:15.000Z</time>
      </trkpt>
      <trkpt lat="43.29976" lon="2.20055">
        <ele>246.9</ele>
        <time>2019-06-09T06:38:16.000Z</time>
      </trkpt>
      <trkpt lat="43.29977" lon="2.20054">
        <ele>247</ele>
        <time>2019-06-09T06:38:17.000Z</time>
      </trkpt>
      <trkpt lat="43.29977" lon="2.20052">
        <ele>247</ele>
        <time>2019-06-09T06:38:18.000Z</time>
      </trkpt>
      <trkpt lat="43.29978" lon="2.20051">
        <ele>247</ele>
        <time>2019-06-09T06:38:19.000Z</time>
      </trkpt>
      <trkpt lat="43.29978" lon="2.2005">
        <ele>247.1</ele>
        <time>2019-06-09T06:38:20.000Z</time>
      </trkpt>
      <trkpt lat="43.29979" lon="2.20048">
        <ele>247.1</ele>
        <time>2019-06-09T06:38:21.000Z</time>
      </trkpt>
      <trkpt lat="43.29979" lon="2.20047">
        <ele>247.1</ele>
        <time>2019-06-09T06:38:22.000Z</time>
      </trkpt>
      <trkpt lat="43.2998" lon="2.20046">
        <ele>247.1</ele>
        <time>2019-06-09T06:38:23.000Z</time>
      </trkpt>
      <trkpt lat="43.2998" lon="2.20044">
        <ele>247.2</ele>
        <time>2019-06-09T06:38:24.000Z</time>
      </trkpt>
      <trkpt lat="43.2998" lon="2.20043">
        <ele>247.2</ele>
        <time>2019-06-09T06:38:25.000Z</time>
      </trkpt>
      <trkpt lat="43.2998" lon="2.20042">
        <ele>247.2</ele>
        <time>2019-06-09T06:38:26.000Z</time>
      </trkpt>
      <trkpt lat="43.29981" lon="2.2004">
        <ele>247.2</ele>
        <time>2019-06-09T06:38:27.000Z</time>
      </trkpt>
      <trkpt lat="43.29981" lon="2.20039">
        <ele>247.2</ele>
        <time>2019-06-09T06:38:28.000Z</time>
      </trkpt>
      <trkpt lat="43.29981" lon="2.20038">
        <ele>247.2</ele>
        <time>2019-06-09T06:38:29.000Z</time>
      </trkpt>
      <trkpt lat="43.29981" lon="2.20036">
        <ele>247.2</ele>
        <time>2019-06-09T06:38:30.000Z</time>
      </trkpt>
      <trkpt lat="43.29981" lon="2.20035">
        <ele>247.2</ele>
        <time>2019-06-09T06:38:31.000Z</time>
      </trkpt>
      <trkpt lat="43.29981" lon="2.20034">
        <ele>247.2</ele>
        <time>2019-06-09T06:38:32.000Z</time>
      </trkpt>
      <trkpt lat="43.29982" lon="2.20032">
        <ele>247.2</ele>
        <time>2019-06-09T06:38:33.000Z</time>
      </trkpt>
      <trkpt lat="43.29982" lon="2.20031">
        <ele>247.3</ele>
        <time>2019-06-09T06:38:34.000Z</time>
      </trkpt>
      <trkpt lat="43.29982" lon="2.2003">
        <ele>247.3</ele>
        <time>2019-06-09T06:38:35.000Z</time>
      </trkpt>
      <trkpt lat="43.29982" lon="2.20028">
        <ele>247.3</ele>
        <time>2019-06-09T06:38:36.000Z</time>
      </trkpt>
      <trkpt lat="43.29982" lon="2.20027">
        <ele>247.3</ele>
        <time>2019-06-09T06:38:37.000Z</time>
      </trkpt>
      <trkpt lat="43.29982" lon="2.20026">
        <ele>247.3</ele>
        <time>2019-06-09T06:38:38.000Z</time>
      </trkpt>
      <trkpt lat="43.29982" lon="2.20024">
        <ele>247.3</ele>
        <time>2019-06-09T06:38:39.000Z</time>
      </trkpt>
      <trkpt lat="43.29982" lon="2.20023">
        <ele>247.3</ele>
        <time>2019-06-09T06:38:40.000Z</time>
      </trkpt>
      <trkpt lat="43.29982" lon="2.20022">
        <ele>247.3</ele>
        <time>2019-06-09T06:38:41.000Z</time>
      </trkpt>
      <trkpt lat="43.29982" lon="2.2002">
        <ele>247.3</ele>
        <time>2019-06-09T06:38:42.000Z</time>
      </trkpt>
      <trkpt lat="43.29982" lon="2.20019">
        <ele>247.3</ele>
        <time>2019-06-09T06:38:43.000Z</time>
      </trkpt>
      <trkpt lat="43.29982" lon="2.20018">
        <ele>247.3</ele>
        <time>2019-06-09T06:38:44.000Z</time>
      </trkpt>
      <trkpt lat="43.29982" lon="2.20016">
        <ele>247.3</ele>
        <time>2019-06-09T06:38:45.000Z</time>
      </trkpt>
      <trkpt lat="43.29982" lon="2.20015">
        <ele>247.3</ele>
        <time>2019-06-09T06:38:46.000Z</time>
      </trkpt>
      <trkpt lat="43.29982" lon="2.20013">
        <ele>247.3</ele>
        <time>2019-06-09T06:38:47.000Z</time>
      </trkpt>
      <trkpt lat="43.29982" lon="2.20012">
        <ele>247.3</ele>
        <time>2019-06-09T06:38:48.000Z</time>
      </trkpt>
      <trkpt lat="43.29982" lon="2.2001">
        <ele>247.3</ele>
        <time>2019-06-09T06:38:49.000Z</time>
      </trkpt>
      <trkpt lat="43.29981" lon="2.20009">
        <ele>247.3</ele>
        <time>2019-06-09T06:38:50.000Z</time>
      </trkpt>
      <trkpt lat="43.29981" lon="2.20007">
        <ele>247.3</ele>
        <time>2019-06-09T06:38:51.000Z</time>
      </trkpt>
      <trkpt lat="43.29981" lon="2.20006">
        <ele>247.3</ele>
        <time>2019-06-09T06:38:52.000Z</time>
      </trkpt>
      <trkpt lat="43.2998" lon="2.20004">
        <ele>247.3</ele>
        <time>2019-06-09T06:38:53.000Z</time>
      </trkpt>
      <trkpt lat="43.2998" lon="2.20003">
        <ele>247.3</ele>
        <time>2019-06-09T06:38:54.000Z</time>
      </trkpt>
      <trkpt lat="43.2998" lon="2.20001">
        <ele>247.3</ele>
        <time>2019-06-09T06:38:55.000Z</time>
      </trkpt>
      <trkpt lat="43.29979" lon="2.2">
        <ele>247.3</ele>
        <time>2019-06-09T06:38:56.000Z</time>
      </trkpt>
      <trkpt lat="43.29979" lon="2.19999">
        <ele>247.3</ele>
        <time>2019-06-09T06:38:57.000Z</time>
      </trkpt>
      <trkpt lat="43.29978" lon="2.19997">
        <ele>247.3</ele>
        <time>2019-06-09T06:38:58.000Z</time>
      </trkpt>
      <trkpt lat="43.29977" lon="2.19996">
        <ele>247.3</ele>
        <time>2019-06-09T06:38:59.000Z</time>
      </trkpt>
      <trkpt lat="43.29976" lon="2.19995">
        <ele>247.3</ele>
        <time>2019-06-09T06:39:00.000Z</time>
      </trkpt>
      <trkpt lat="43.29976" lon="2.19994">
        <ele>247.3</ele>
        <time>2019-06-09T06:39:01.000Z</time>
      </trkpt>
      <trkpt lat="43.29975" lon="2.19993">
        <ele>247.3</ele>
        <time>2019-06-09T06:39:02.000Z</time>
      </trkpt>
      <trkpt lat="43.29974" lon="2.19992">
        <ele>247.3</ele>
        <time>2019-06-09T06:39:03.000Z</time>
      </trkpt>
      <trkpt lat="43.29973" lon="2.19991">
        <ele>247.3</ele>
        <time>2019-06-09T06:39:04.000Z</time>
      </trkpt>
      <trkpt lat="43.29972" lon="2.1999">
        <ele>247.3</ele>
        <time>2019-06-09T06:39:05.000Z</time>
      </trkpt>
      <trkpt lat="43.29971" lon="2.19989">
        <ele>247.3</ele>
        <time>2019-06-09T06:39:06.000Z</time>
      </trkpt>
      <trkpt lat="43.2997" lon="2.19988">
        <ele>247.3</ele>
        <time>2019-06-09T06:39:07.000Z</time>
      </trkpt>
      <trkpt lat="43.29969" lon="2.19987">
        <ele>247.3</ele>
        <time>2019-06-09T06:39:08.000Z</time>
      </trkpt>
      <trkpt lat="43.29968" lon="2.19986">
        <ele>247.3</ele>
        <time>2019-06-09T06:39:09.000Z</time>
      </trkpt>
      <trkpt lat="43.29968" lon="2.19985">
        <ele>247.3</ele>
        <time>2019-06-09T06:39:10.000Z</time>
      </trkpt>
      <trkpt lat="43.29967" lon="2.19984">
        <ele>247.3</ele>
        <time>2019-06-09T06:39:11.000Z</time>
      </trkpt>
      <trkpt lat="43.29966" lon="2.19983">
        <ele>247.3</ele>
        <time>2019-06-09T06:39:12.000Z</time>
      </trkpt>
      <trkpt lat="43.29965" lon="2.19982">
        <ele>247.3</ele>
        <time>2019-06-09T06:39:13.000Z</time>
      </trkpt>
      <trkpt lat="43.29964" lon="2.19981">
        <ele>247.3</ele>
        <time>2019-06-09T06:39:14.000Z</time>
      </trkpt>
      <trkpt lat="43.29963" lon="2.1998">
        <ele>247.3</ele>
        <time>2019-06-09T06:39:15.000Z</time>
      </trkpt>
      <trkpt lat="43.29962" lon="2.19979">
        <ele>247.3</ele>
        <time>2019-06-09T06:39:16.000Z</time>
      </trkpt>
      <trkpt lat="43.29961" lon="2.19978">
        <ele>247.3</ele>
        <time>2019-06-09T06:39:17.000Z</time>
      </trkpt>
      <trkpt lat="43.2996" lon="2.19977">
        <ele>247.4</ele>
        <time>2019-06-09T06:39:18.000Z</time>
      </trkpt>
      <trkpt lat="43.29959" lon="2.19976">
        <ele>247.4</ele>
        <time>2019-06-09T06:39:19.000Z</time>
      </trkpt>
      <trkpt lat="43.29958" lon="2.19975">
        <ele>247.4</ele>
        <time>2019-06-09T06:39:20.000Z</time>
      </trkpt>
      <trkpt lat="43.29957" lon="2.19974">
        <ele>247.4</ele>
        <time>2019-06-09T06:39:21.000Z</time>
      </trkpt>
      <trkpt lat="43.29956" lon="2.19973">
        <ele>247.4</ele>
        <time>2019-06-09T06:39:22.000Z</time>
      </trkpt>
      <trkpt lat="43.29955" lon="2.19972">
        <ele>247.5</ele>
        <time>2019-06-09T06:39:23.000Z</time>
      </trkpt>
      <trkpt lat="43.29954" lon="2.1997">
        <ele>247.5</ele>
        <time>2019-06-09T06:39:24.000Z</time>
      </trkpt>
      <trkpt lat="43.29953" lon="2.19969">
        <ele>247.5</ele>
        <time>2019-06-09T06:39:25.000Z</time>
      </trkpt>
      <trkpt lat="43.29952" lon="2.19968">
        <ele>247.5</ele>
        <time>2019-06-09T06:39:26.000Z</time>
      </trkpt>
      <trkpt lat="43.29951" lon="2.19967">
        <ele>247.6</ele>
        <time>2019-06-09T06:39:27.000Z</time>
      </trkpt>
      <trkpt lat="43.2995" lon="2.19966">
        <ele>247.6</ele>
        <time>2019-06-09T06:39:28.000Z</time>
      </trkpt>
      <trkpt lat="43.29949" lon="2.19965">
        <ele>247.6</ele>
        <time>2019-06-09T06:39:29.000Z</time>
      </trkpt>
      <trkpt lat="43.29948" lon="2.19964">
        <ele>247.7</ele>
        <time>2019-06-09T06:39:30.000Z</time>
      </trkpt>
      <trkpt lat="43.29947" lon="2.19963">
        <ele>247.7</ele>
        <time>2019-06-09T06:39:31.000Z</time>
      </trkpt>
      <trkpt lat="43.29946" lon="2.19962">
        <ele>247.7</ele>
        <time>2019-06-09T06:39:32.000Z</time>
      </trkpt>
      <trkpt lat="43.29946" lon="2.19961">
        <ele>247.7</ele>
        <time>2019-06-09T06:39:33.000Z</time>
      </trkpt>
      <trkpt lat="43.29945" lon="2.1996">
        <ele>247.8</ele>
        <time>2019-06-09T06:39:34.000Z</time>
      </trkpt>
      <trkpt lat="43.29944" lon="2.19959">
        <ele>247.8</ele>
        <time>2019-06-09T06:39:35.000Z</time>
      </trkpt>
      <trkpt lat="43.29943" lon="2.19958">
        <ele>247.8</ele>
        <time>2019-06-09T06:39:36.000Z</time>
      </trkpt>
      <trkpt lat="43.29942" lon="2.19957">
        <ele>247.9</ele>
        <time>2019-06-09T06:39:37.000Z</time>
      </trkpt>
      <trkpt lat="43.29941" lon="2.19956">
        <ele>247.9</ele>
        <time>2019-06-09T06:39:38.000Z</time>
      </trkpt>
      <trkpt lat="43.2994" lon="2.19956">
        <ele>247.9</ele>
        <time>2019-06-09T06:39:39.000Z</time>
      </trkpt>
      <trkpt lat="43.29939" lon="2.19955">
        <ele>247.9</ele>
        <time>2019-06-09T06:39:40.000Z</time>
      </trkpt>
      <trkpt lat="43.29938" lon="2.19954">
        <ele>248</ele>
        <time>2019-06-09T06:39:41.000Z</time>
      </trkpt>
      <trkpt lat="43.29937" lon="2.19953">
        <ele>248</ele>
        <time>2019-06-09T06:39:42.000Z</time>
      </trkpt>
      <trkpt lat="43.29936" lon="2.19952">
        <ele>248</ele>
        <time>2019-06-09T06:39:43.000Z</time>
      </trkpt>
      <trkpt lat="43.29935" lon="2.19952">
        <ele>248</ele>
        <time>2019-06-09T06:39:44.000Z</time>
      </trkpt>
      <trkpt lat="43.29934" lon="2.19951">
        <ele>248.1</ele>
        <time>2019-06-09T06:39:45.000Z</time>
      </trkpt>
      <trkpt lat="43.29933" lon="2.1995">
        <ele>248.1</ele>
        <time>2019-06-09T06:39:46.000Z</time>
      </trkpt>
      <trkpt lat="43.29932" lon="2.19949">
        <ele>248.1</ele>
        <time>2019-06-09T06:39:47.000Z</time>
      </trkpt>
      <trkpt lat="43.29931" lon="2.19948">
        <ele>248.2</ele>
        <time>2019-06-09T06:39:48.000Z</time>
      </trkpt>
      <trkpt lat="43.2993" lon="2.19948">
        <ele>248.2</ele>
        <time>2019-06-09T06:39:49.000Z</time>
      </trkpt>
      <trkpt lat="43.29929" lon="2.19947">
        <ele>248.3</ele>
        <time>2019-06-09T06:39:50.000Z</time>
      </trkpt>
      <trkpt lat="43.29928" lon="2.19946">
        <ele>248.3</ele>
        <time>2019-06-09T06:39:51.000Z</time>
      </trkpt>
      <trkpt lat="43.29926" lon="2.19945">
        <ele>248.3</ele>
        <time>2019-06-09T06:39:52.000Z</time>
      </trkpt>
      <trkpt lat="43.29925" lon="2.19945">
        <ele>248.4</ele>
        <time>2019-06-09T06:39:53.000Z</time>
      </trkpt>
      <trkpt lat="43.29924" lon="2.19945">
        <ele>248.4</ele>
        <time>2019-06-09T06:39:54.000Z</time>
      </trkpt>
      <trkpt lat="43.29924" lon="2.19945">
        <ele>248.3</ele>
        <time>2019-06-09T06:39:55.000Z</time>
      </trkpt>
      <trkpt lat="43.29923" lon="2.19945">
        <ele>248.3</ele>
        <time>2019-06-09T06:39:56.000Z</time>
      </trkpt>
      <trkpt lat="43.29922" lon="2.19946">
        <ele>248.3</ele>
        <time>2019-06-09T06:39:57.000Z</time>
      </trkpt>
      <trkpt lat="43.2992" lon="2.19946">
        <ele>248.3</ele>
        <time>2019-06-09T06:39:58.000Z</time>
      </trkpt>
      <trkpt lat="43.29919" lon="2.19946">
        <ele>248.3</ele>
        <time>2019-06-09T06:39:59.000Z</time>
      </trkpt>
      <trkpt lat="43.29918" lon="2.19946">
        <ele>248.3</ele>
        <time>2019-06-09T06:40:00.000Z</time>
      </trkpt>
      <trkpt lat="43.29917" lon="2.19945">
        <ele>248.3</ele>
        <time>2019-06-09T06:40:01.000Z</time>
      </trkpt>
      <trkpt lat="43.29915" lon="2.19945">
        <ele>248.2</ele>
        <time>2019-06-09T06:40:02.000Z</time>
      </trkpt>
      <trkpt lat="43.29914" lon="2.19944">
        <ele>248.2</ele>
        <time>2019-06-09T06:40:03.000Z</time>
      </trkpt>
      <trkpt lat="43.29913" lon="2.19944">
        <ele>248.1</ele>
        <time>2019-06-09T06:40:04.000Z</time>
      </trkpt>
      <trkpt lat="43.29912" lon="2.19943">
        <ele>248.1</ele>
        <time>2019-06-09T06:40:05.000Z</time>
      </trkpt>
      <trkpt lat="43.29911" lon="2.19942">
        <ele>248</ele>
        <time>2019-06-09T06:40:06.000Z</time>
      </trkpt>
      <trkpt lat="43.29909" lon="2.19942">
        <ele>248</ele>
        <time>2019-06-09T06:40:07.000Z</time>
      </trkpt>
      <trkpt lat="43.29908" lon="2.19941">
        <ele>248</ele>
        <time>2019-06-09T06:40:08.000Z</time>
      </trkpt>
      <trkpt lat="43.29907" lon="2.1994">
        <ele>247.9</ele>
        <time>2019-06-09T06:40:09.000Z</time>
      </trkpt>
      <trkpt lat="43.29906" lon="2.1994">
        <ele>247.9</ele>
        <time>2019-06-09T06:40:10.000Z</time>
      </trkpt>
      <trkpt lat="43.29905" lon="2.19939">
        <ele>247.8</ele>
        <time>2019-06-09T06:40:11.000Z</time>
      </trkpt>
      <trkpt lat="43.29904" lon="2.19939">
        <ele>247.8</ele>
        <time>2019-06-09T06:40:12.000Z</time>
      </trkpt>
      <trkpt lat="43.29903" lon="2.19938">
        <ele>247.7</ele>
        <time>2019-06-09T06:40:13.000Z</time>
      </trkpt>
      <trkpt lat="43.29901" lon="2.19938">
        <ele>247.7</ele>
        <time>2019-06-09T06:40:14.000Z</time>
      </trkpt>
      <trkpt lat="43.299" lon="2.19937">
        <ele>247.6</ele>
        <time>2019-06-09T06:40:15.000Z</time>
      </trkpt>
      <trkpt lat="43.29899" lon="2.19936">
        <ele>247.6</ele>
        <time>2019-06-09T06:40:16.000Z</time>
      </trkpt>
      <trkpt lat="43.29898" lon="2.19935">
        <ele>247.5</ele>
        <time>2019-06-09T06:40:17.000Z</time>
      </trkpt>
      <trkpt lat="43.29897" lon="2.19935">
        <ele>247.5</ele>
        <time>2019-06-09T06:40:18.000Z</time>
      </trkpt>
      <trkpt lat="43.29896" lon="2.19934">
        <ele>247.4</ele>
        <time>2019-06-09T06:40:19.000Z</time>
      </trkpt>
      <trkpt lat="43.29894" lon="2.19933">
        <ele>247.3</ele>
        <time>2019-06-09T06:40:20.000Z</time>
      </trkpt>
      <trkpt lat="43.29893" lon="2.19933">
        <ele>247.3</ele>
        <time>2019-06-09T06:40:21.000Z</time>
      </trkpt>
      <trkpt lat="43.29892" lon="2.19933">
        <ele>247.2</ele>
        <time>2019-06-09T06:40:22.000Z</time>
      </trkpt>
      <trkpt lat="43.29891" lon="2.19933">
        <ele>247.1</ele>
        <time>2019-06-09T06:40:23.000Z</time>
      </trkpt>
      <trkpt lat="43.2989" lon="2.19932">
        <ele>247</ele>
        <time>2019-06-09T06:40:24.000Z</time>
      </trkpt>
      <trkpt lat="43.29889" lon="2.19932">
        <ele>247</ele>
        <time>2019-06-09T06:40:25.000Z</time>
      </trkpt>
      <trkpt lat="43.29888" lon="2.19932">
        <ele>246.9</ele>
        <time>2019-06-09T06:40:26.000Z</time>
      </trkpt>
      <trkpt lat="43.29887" lon="2.19932">
        <ele>246.8</ele>
        <time>2019-06-09T06:40:27.000Z</time>
      </trkpt>
      <trkpt lat="43.29886" lon="2.19931">
        <ele>246.8</ele>
        <time>2019-06-09T06:40:28.000Z</time>
      </trkpt>
      <trkpt lat="43.29885" lon="2.19931">
        <ele>246.7</ele>
        <time>2019-06-09T06:40:29.000Z</time>
      </trkpt>
      <trkpt lat="43.29884" lon="2.1993">
        <ele>246.7</ele>
        <time>2019-06-09T06:40:30.000Z</time>
      </trkpt>
      <trkpt lat="43.29883" lon="2.19929">
        <ele>246.6</ele>
        <time>2019-06-09T06:40:31.000Z</time>
      </trkpt>
      <trkpt lat="43.29882" lon="2.19929">
        <ele>246.6</ele>
        <time>2019-06-09T06:40:32.000Z</time>
      </trkpt>
      <trkpt lat="43.29881" lon="2.19928">
        <ele>246.6</ele>
        <time>2019-06-09T06:40:33.000Z</time>
      </trkpt>
      <trkpt lat="43.2988" lon="2.19927">
        <ele>246.5</ele>
        <time>2019-06-09T06:40:34.000Z</time>
      </trkpt>
      <trkpt lat="43.29879" lon="2.19926">
        <ele>246.5</ele>
        <time>2019-06-09T06:40:35.000Z</time>
      </trkpt>
      <trkpt lat="43.29879" lon="2.19926">
        <ele>246.5</ele>
        <time>2019-06-09T06:40:36.000Z</time>
      </trkpt>
      <trkpt lat="43.29878" lon="2.19925">
        <ele>246.4</ele>
        <time>2019-06-09T06:40:37.000Z</time>
      </trkpt>
      <trkpt lat="43.29877" lon="2.19924">
        <ele>246.4</ele>
        <time>2019-06-09T06:40:38.000Z</time>
      </trkpt>
      <trkpt lat="43.29876" lon="2.19924">
        <ele>246.3</ele>
        <time>2019-06-09T06:40:39.000Z</time>
      </trkpt>
      <trkpt lat="43.29875" lon="2.19923">
        <ele>246.3</ele>
        <time>2019-06-09T06:40:40.000Z</time>
      </trkpt>
      <trkpt lat="43.29874" lon="2.19923">
        <ele>246.2</ele>
        <time>2019-06-09T06:40:41.000Z</time>
      </trkpt>
      <trkpt lat="43.29873" lon="2.19922">
        <ele>246.2</ele>
        <time>2019-06-09T06:40:42.000Z</time>
      </trkpt>
      <trkpt lat="43.29872" lon="2.19922">
        <ele>246.1</ele>
        <time>2019-06-09T06:40:43.000Z</time>
      </trkpt>
      <trkpt lat="43.29871" lon="2.19921">
        <ele>246</ele>
        <time>2019-06-09T06:40:44.000Z</time>
      </trkpt>
      <trkpt lat="43.2987" lon="2.19921">
        <ele>246</ele>
        <time>2019-06-09T06:40:45.000Z</time>
      </trkpt>
      <trkpt lat="43.2987" lon="2.1992">
        <ele>245.9</ele>
        <time>2019-06-09T06:40:46.000Z</time>
      </trkpt>
      <trkpt lat="43.29869" lon="2.1992">
        <ele>245.9</ele>
        <time>2019-06-09T06:40:47.000Z</time>
      </trkpt>
      <trkpt lat="43.29868" lon="2.19919">
        <ele>245.8</ele>
        <time>2019-06-09T06:40:48.000Z</time>
      </trkpt>
      <trkpt lat="43.29867" lon="2.19919">
        <ele>245.7</ele>
        <time>2019-06-09T06:40:49.000Z</time>
      </trkpt>
      <trkpt lat="43.29866" lon="2.19919">
        <ele>245.7</ele>
        <time>2019-06-09T06:40:50.000Z</time>
      </trkpt>
      <trkpt lat="43.29865" lon="2.19918">
        <ele>245.6</ele>
        <time>2019-06-09T06:40:51.000Z</time>
      </trkpt>
      <trkpt lat="43.29864" lon="2.19918">
        <ele>245.5</ele>
        <time>2019-06-09T06:40:52.000Z</time>
      </trkpt>
      <trkpt lat="43.29863" lon="2.19918">
        <ele>245.4</ele>
        <time>2019-06-09T06:40:53.000Z</time>
      </trkpt>
      <trkpt lat="43.29861" lon="2.19917">
        <ele>245.3</ele>
        <time>2019-06-09T06:40:54.000Z</time>
      </trkpt>
      <trkpt lat="43.2986" lon="2.19917">
        <ele>245.3</ele>
        <time>2019-06-09T06:40:55.000Z</time>
      </trkpt>
      <trkpt lat="43.29859" lon="2.19917">
        <ele>245.2</ele>
        <time>2019-06-09T06:40:56.000Z</time>
      </trkpt>
      <trkpt lat="43.29858" lon="2.19916">
        <ele>245.1</ele>
        <time>2019-06-09T06:40:57.000Z</time>
      </trkpt>
      <trkpt lat="43.29857" lon="2.19916">
        <ele>245</ele>
        <time>2019-06-09T06:40:58.000Z</time>
      </trkpt>
      <trkpt lat="43.29856" lon="2.19916">
        <ele>244.9</ele>
        <time>2019-06-09T06:40:59.000Z</time>
      </trkpt>
      <trkpt lat="43.29855" lon="2.19916">
        <ele>244.8</ele>
        <time>2019-06-09T06:41:00.000Z</time>
      </trkpt>
      <trkpt lat="43.29854" lon="2.19916">
        <ele>244.7</ele>
        <time>2019-06-09T06:41:01.000Z</time>
      </trkpt>
      <trkpt lat="43.29853" lon="2.19916">
        <ele>244.6</ele>
        <time>2019-06-09T06:41:02.000Z</time>
      </trkpt>
      <trkpt lat="43.29852" lon="2.19916">
        <ele>244.6</ele>
        <time>2019-06-09T06:41:03.000Z</time>
      </trkpt>
      <trkpt lat="43.29851" lon="2.19916">
        <ele>244.5</ele>
        <time>2019-06-09T06:41:04.000Z</time>
      </trkpt>
      <trkpt lat="43.29851" lon="2.19915">
        <ele>244.4</ele>
        <time>2019-06-09T06:41:05.000Z</time>
      </trkpt>
      <trkpt lat="43.2985" lon="2.19915">
        <ele>244.4</ele>
        <time>2019-06-09T06:41:06.000Z</time>
      </trkpt>
      <trkpt lat="43.2985" lon="2.19915">
        <ele>244.3</ele>
        <time>2019-06-09T06:41:07.000Z</time>
      </trkpt>
      <trkpt lat="43.2985" lon="2.19915">
        <ele>244.3</ele>
        <time>2019-06-09T06:41:08.000Z</time>
      </trkpt>
      <trkpt lat="43.29849" lon="2.19915">
        <ele>244.3</ele>
        <time>2019-06-09T06:41:09.000Z</time>
      </trkpt>
      <trkpt lat="43.29849" lon="2.19915">
        <ele>244.3</ele>
        <time>2019-06-09T06:41:10.000Z</time>
      </trkpt>
      <trkpt lat="43.2985" lon="2.19915">
        <ele>244.3</ele>
        <time>2019-06-09T06:41:11.000Z</time>
      </trkpt>
      <trkpt lat="43.2985" lon="2.19915">
        <ele>244.3</ele>
        <time>2019-06-09T06:41:12.000Z</time>
      </trkpt>
      <trkpt lat="43.2985" lon="2.19915">
        <ele>244.4</ele>
        <time>2019-06-09T06:41:13.000Z</time>
      </trkpt>
      <trkpt lat="43.29851" lon="2.19915">
        <ele>244.4</ele>
        <time>2019-06-09T06:41:14.000Z</time>
      </trkpt>
      <trkpt lat="43.29851" lon="2.19915">
        <ele>244.5</ele>
        <time>2019-06-09T06:41:15.000Z</time>
      </trkpt>
      <trkpt lat="43.29852" lon="2.19915">
        <ele>244.5</ele>
        <time>2019-06-09T06:41:16.000Z</time>
      </trkpt>
      <trkpt lat="43.29852" lon="2.19915">
        <ele>244.6</ele>
        <time>2019-06-09T06:41:17.000Z</time>
      </trkpt>
      <trkpt lat="43.29853" lon="2.19915">
        <ele>244.6</ele>
        <time>2019-06-09T06:41:18.000Z</time>
      </trkpt>
      <trkpt lat="43.29853" lon="2.19915">
        <ele>244.6</ele>
        <time>2019-06-09T06:41:19.000Z</time>
      </trkpt>
      <trkpt lat="43.29853" lon="2.19915">
        <ele>244.6</ele>
        <time>2019-06-09T06:41:20.000Z</time>
      </trkpt>
      <trkpt lat="43.29854" lon="2.19915">
        <ele>244.7</ele>
        <time>2019-06-09T06:41:21.000Z</time>
      </trkpt>
      <trkpt lat="43.29854" lon="2.19915">
        <ele>244.7</ele>
        <time>2019-06-09T06:41:22.000Z</time>
      </trkpt>
      <trkpt lat="43.29854" lon="2.19915">
        <ele>244.7</ele>
        <time>2019-06-09T06:41:23.000Z</time>
      </trkpt>
      <trkpt lat="43.29854" lon="2.19914">
        <ele>244.7</ele>
        <time>2019-06-09T06:41:24.000Z</time>
      </trkpt>
      <trkpt lat="43.29854" lon="2.19914">
        <ele>244.7</ele>
        <time>2019-06-09T06:41:25.000Z</time>
      </trkpt>
      <trkpt lat="43.29854" lon="2.19914">
        <ele>244.7</ele>
        <time>2019-06-09T06:41:26.000Z</time>
      </trkpt>
      <trkpt lat="43.29854" lon="2.19914">
        <ele>244.7</ele>
        <time>2019-06-09T06:41:27.000Z</time>
      </trkpt>
      <trkpt lat="43.29854" lon="2.19914">
        <ele>244.7</ele>
        <time>2019-06-09T06:41:28.000Z</time>
      </trkpt>
      <trkpt lat="43.29854" lon="2.19914">
        <ele>244.7</ele>
        <time>2019-06-09T06:41:29.000Z</time>
      </trkpt>
      <trkpt lat="43.29854" lon="2.19914">
        <ele>244.7</ele>
        <time>2019-06-09T06:41:30.000Z</time>
      </trkpt>
      <trkpt lat="43.29854" lon="2.19914">
        <ele>244.7</ele>
        <time>2019-06-09T06:41:31.000Z</time>
      </trkpt>
      <trkpt lat="43.29854" lon="2.19914">
        <ele>244.7</ele>
        <time>2019-06-09T06:41:32.000Z</time>
      </trkpt>
      <trkpt lat="43.29854" lon="2.19914">
        <ele>244.7</ele>
        <time>2019-06-09T06:41:33.000Z</time>
      </trkpt>
      <trkpt lat="43.29854" lon="2.19914">
        <ele>244.7</ele>
        <time>2019-06-09T06:41:34.000Z</time>
      </trkpt>
      <trkpt lat="43.29854" lon="2.19914">
        <ele>244.7</ele>
        <time>2019-06-09T06:41:35.000Z</time>
      </trkpt>
      <trkpt lat="43.29854" lon="2.19914">
        <ele>244.7</ele>
        <time>2019-06-09T06:41:36.000Z</time>
      </trkpt>
      <trkpt lat="43.29854" lon="2.19914">
        <ele>244.7</ele>
        <time>2019-06-09T06:41:37.000Z</time>
      </trkpt>
      <trkpt lat="43.29854" lon="2.19914">
        <ele>244.7</ele>
        <time>2019-06-09T06:41:38.000Z</time>
      </trkpt>
      <trkpt lat="43.29854" lon="2.19914">
        <ele>244.7</ele>
        <time>2019-06-09T06:41:39.000Z</time>
      </trkpt>
      <trkpt lat="43.29854" lon="2.19914">
        <ele>244.7</ele>
        <time>2019-06-09T06:41:40.000Z</time>
      </trkpt>
      <trkpt lat="43.29854" lon="2.19914">
        <ele>244.7</ele>
        <time>2019-06-09T06:41:41.000Z</time>
      </trkpt>
      <trkpt lat="43.29854" lon="2.19914">
        <ele>244.7</ele>
        <time>2019-06-09T06:41:42.000Z</time>
      </trkpt>
      <trkpt lat="43.29854" lon="2.19914">
        <ele>244.7</ele>
        <time>2019-06-09T06:41:43.000Z</time>
      </trkpt>
      <trkpt lat="43.29854" lon="2.19914">
        <ele>244.7</ele>
        <time>2019-06-09T06:41:44.000Z</time>
      </trkpt>
      <trkpt lat="43.29854" lon="2.19914">
        <ele>244.7</ele>
        <time>2019-06-09T06:41:45.000Z</time>
      </trkpt>
      <trkpt lat="43.29854" lon="2.19914">
        <ele>244.7</ele>
        <time>2019-06-09T06:41:46.000Z</time>
      </trkpt>
      <trkpt lat="43.29854" lon="2.19914">
        <ele>244.7</ele>
        <time>2019-06-09T06:41:47.000Z</time>
      </trkpt>
      <trkpt lat="43.29854" lon="2.19914">
        <ele>244.7</ele>
        <time>2019-06-09T06:41:48.000Z</time>
      </trkpt>
      <trkpt lat="43.29854" lon="2.19914">
        <ele>244.7</ele>
        <time>2019-06-09T06:41:49.000Z</time>
      </trkpt>
      <trkpt lat="43.29854" lon="2.19914">
        <ele>244.7</ele>
        <time>2019-06-09T06:41:50.000Z</time>
      </trkpt>
      <trkpt lat="43.29854" lon="2.19914">
        <ele>244.7</ele>
        <time>2019-06-09T06:41:51.000Z</time>
      </trkpt>
      <trkpt lat="43.29854" lon="2.19914">
        <ele>244.7</ele>
        <time>2019-06-09T06:41:52.000Z</time>
      </trkpt>
      <trkpt lat="43.29854" lon="2.19914">
        <ele>244.7</ele>
        <time>2019-06-09T06:41:53.000Z</time>
      </trkpt>
      <trkpt lat="43.29854" lon="2.19914">
        <ele>244.7</ele>
        <time>2019-06-09T06:41:54.000Z</time>
      </trkpt>
      <trkpt lat="43.29854" lon="2.19914">
        <ele>244.7</ele>
        <time>2019-06-09T06:41:55.000Z</time>
      </trkpt>
      <trkpt lat="43.29854" lon="2.19914">
        <ele>244.7</ele>
        <time>2019-06-09T06:41:56.000Z</time>
      </trkpt>
      <trkpt lat="43.29854" lon="2.19914">
        <ele>244.7</ele>
        <time>2019-06-09T06:41:57.000Z</time>
      </trkpt>
      <trkpt lat="43.29854" lon="2.19914">
        <ele>244.7</ele>
        <time>2019-06-09T06:41:58.000Z</time>
      </trkpt>
      <trkpt lat="43.29854" lon="2.19914">
        <ele>244.7</ele>
        <time>2019-06-09T06:41:59.000Z</time>
      </trkpt>
      <trkpt lat="43.29854" lon="2.19914">
        <ele>244.6</ele>
        <time>2019-06-09T06:42:00.000Z</time>
      </trkpt>
      <trkpt lat="43.29854" lon="2.19914">
        <ele>244.6</ele>
        <time>2019-06-09T06:42:01.000Z</time>
      </trkpt>
      <trkpt lat="43.29854" lon="2.19914">
        <ele>244.6</ele>
        <time>2019-06-09T06:42:02.000Z</time>
      </trkpt>
      <trkpt lat="43.29854" lon="2.19914">
        <ele>244.6</ele>
        <time>2019-06-09T06:42:03.000Z</time>
      </trkpt>
      <trkpt lat="43.29854" lon="2.19914">
        <ele>244.6</ele>
        <time>2019-06-09T06:42:04.000Z</time>
      </trkpt>
      <trkpt lat="43.29854" lon="2.19914">
        <ele>244.6</ele>
        <time>2019-06-09T06:42:05.000Z</time>
      </trkpt>
      <trkpt lat="43.29854" lon="2.19914">
        <ele>244.6</ele>
        <time>2019-06-09T06:42:06.000Z</time>
      </trkpt>
      <trkpt lat="43.29854" lon="2.19914">
        <ele>244.6</ele>
        <time>2019-06-09T06:42:07.000Z</time>
      </trkpt>
      <trkpt lat="43.29854" lon="2.19914">
        <ele>244.6</ele>
        <time>2019-06-09T06:42:08.000Z</time>
      </trkpt>
      <trkpt lat="43.29854" lon="2.19914">
        <ele>244.6</ele>
        <time>2019-06-09T06:42:09.000Z</time>
      </trkpt>
      <trkpt lat="43.29854" lon="2.19914">
        <ele>244.6</ele>
        <time>2019-06-09T06:42:10.000Z</time>
      </trkpt>
      <trkpt lat="43.29854" lon="2.19914">
        <ele>244.6</ele>
        <time>2019-06-09T06:42:11.000Z</time>
      </trkpt>
      <trkpt lat="43.29854" lon="2.19914">
        <ele>244.6</ele>
        <time>2019-06-09T06:42:12.000Z</time>
      </trkpt>
      <trkpt lat="43.29854" lon="2.19914">
        <ele>244.6</ele>
        <time>2019-06-09T06:42:13.000Z</time>
      </trkpt>
      <trkpt lat="43.29854" lon="2.19914">
        <ele>244.6</ele>
        <time>2019-06-09T06:42:14.000Z</time>
      </trkpt>
      <trkpt lat="43.29854" lon="2.19914">
        <ele>244.6</ele>
        <time>2019-06-09T06:42:15.000Z</time>
      </trkpt>
      <trkpt lat="43.29854" lon="2.19914">
        <ele>244.6</ele>
        <time>2019-06-09T06:42:16.000Z</time>
      </trkpt>
      <trkpt lat="43.29854" lon="2.19914">
        <ele>244.6</ele>
        <time>2019-06-09T06:42:17.000Z</time>
      </trkpt>
      <trkpt lat="43.29854" lon="2.19914">
        <ele>244.6</ele>
        <time>2019-06-09T06:42:18.000Z</time>
      </trkpt>
      <trkpt lat="43.29854" lon="2.19914">
        <ele>244.6</ele>
        <time>2019-06-09T06:42:19.000Z</time>
      </trkpt>
      <trkpt lat="43.29854" lon="2.19914">
        <ele>244.6</ele>
        <time>2019-06-09T06:42:20.000Z</time>
      </trkpt>
      <trkpt lat="43.29854" lon="2.19914">
        <ele>244.7</ele>
        <time>2019-06-09T06:42:21.000Z</time>
      </trkpt>
      <trkpt lat="43.29854" lon="2.19914">
        <ele>244.7</ele>
        <time>2019-06-09T06:42:22.000Z</time>
      </trkpt>
      <trkpt lat="43.29854" lon="2.19914">
        <ele>244.7</ele>
        <time>2019-06-09T06:42:23.000Z</time>
      </trkpt>
      <trkpt lat="43.29853" lon="2.19914">
        <ele>244.6</ele>
        <time>2019-06-09T06:42:24.000Z</time>
      </trkpt>
      <trkpt lat="43.29853" lon="2.19914">
        <ele>244.6</ele>
        <time>2019-06-09T06:42:25.000Z</time>
      </trkpt>
      <trkpt lat="43.29852" lon="2.19914">
        <ele>244.5</ele>
        <time>2019-06-09T06:42:26.000Z</time>
      </trkpt>
      <trkpt lat="43.29852" lon="2.19914">
        <ele>244.5</ele>
        <time>2019-06-09T06:42:27.000Z</time>
      </trkpt>
      <trkpt lat="43.29851" lon="2.19914">
        <ele>244.4</ele>
        <time>2019-06-09T06:42:28.000Z</time>
      </trkpt>
      <trkpt lat="43.2985" lon="2.19914">
        <ele>244.4</ele>
        <time>2019-06-09T06:42:29.000Z</time>
      </trkpt>
      <trkpt lat="43.29849" lon="2.19915">
        <ele>244.3</ele>
        <time>2019-06-09T06:42:30.000Z</time>
      </trkpt>
      <trkpt lat="43.29849" lon="2.19915">
        <ele>244.2</ele>
        <time>2019-06-09T06:42:31.000Z</time>
      </trkpt>
      <trkpt lat="43.29848" lon="2.19915">
        <ele>244.2</ele>
        <time>2019-06-09T06:42:32.000Z</time>
      </trkpt>
      <trkpt lat="43.29848" lon="2.19915">
        <ele>244.2</ele>
        <time>2019-06-09T06:42:33.000Z</time>
      </trkpt>
      <trkpt lat="43.29847" lon="2.19916">
        <ele>244.1</ele>
        <time>2019-06-09T06:42:34.000Z</time>
      </trkpt>
      <trkpt lat="43.29847" lon="2.19916">
        <ele>244.1</ele>
        <time>2019-06-09T06:42:35.000Z</time>
      </trkpt>
      <trkpt lat="43.29847" lon="2.19916">
        <ele>244.1</ele>
        <time>2019-06-09T06:42:36.000Z</time>
      </trkpt>
      <trkpt lat="43.29847" lon="2.19916">
        <ele>244.1</ele>
        <time>2019-06-09T06:42:37.000Z</time>
      </trkpt>
      <trkpt lat="43.29847" lon="2.19916">
        <ele>244.1</ele>
        <time>2019-06-09T06:42:38.000Z</time>
      </trkpt>
      <trkpt lat="43.29847" lon="2.19916">
        <ele>244.1</ele>
        <time>2019-06-09T06:42:39.000Z</time>
      </trkpt>
      <trkpt lat="43.29847" lon="2.19915">
        <ele>244.1</ele>
        <time>2019-06-09T06:42:40.000Z</time>
      </trkpt>
      <trkpt lat="43.29847" lon="2.19915">
        <ele>244.1</ele>
        <time>2019-06-09T06:42:41.000Z</time>
      </trkpt>
      <trkpt lat="43.29847" lon="2.19915">
        <ele>244.1</ele>
        <time>2019-06-09T06:42:42.000Z</time>
      </trkpt>
      <trkpt lat="43.29847" lon="2.19915">
        <ele>244.2</ele>
        <time>2019-06-09T06:42:43.000Z</time>
      </trkpt>
      <trkpt lat="43.29848" lon="2.19915">
        <ele>244.2</ele>
        <time>2019-06-09T06:42:44.000Z</time>
      </trkpt>
      <trkpt lat="43.29848" lon="2.19915">
        <ele>244.2</ele>
        <time>2019-06-09T06:42:45.000Z</time>
      </trkpt>
      <trkpt lat="43.29848" lon="2.19915">
        <ele>244.2</ele>
        <time>2019-06-09T06:42:46.000Z</time>
      </trkpt>
      <trkpt lat="43.29848" lon="2.19915">
        <ele>244.2</ele>
        <time>2019-06-09T06:42:47.000Z</time>
      </trkpt>
      <trkpt lat="43.29848" lon="2.19915">
        <ele>244.2</ele>
        <time>2019-06-09T06:42:48.000Z</time>
      </trkpt>
      <trkpt lat="43.29848" lon="2.19915">
        <ele>244.2</ele>
        <time>2019-06-09T06:42:49.000Z</time>
      </trkpt>
      <trkpt lat="43.29848" lon="2.19915">
        <ele>244.2</ele>
        <time>2019-06-09T06:42:50.000Z</time>
      </trkpt>
      <trkpt lat="43.29848" lon="2.19915">
        <ele>244.2</ele>
        <time>2019-06-09T06:42:51.000Z</time>
      </trkpt>
      <trkpt lat="43.29848" lon="2.19915">
        <ele>244.2</ele>
        <time>2019-06-09T06:42:52.000Z</time>
      </trkpt>
      <trkpt lat="43.29848" lon="2.19915">
        <ele>244.2</ele>
        <time>2019-06-09T06:42:53.000Z</time>
      </trkpt>
      <trkpt lat="43.29848" lon="2.19915">
        <ele>244.2</ele>
        <time>2019-06-09T06:42:54.000Z</time>
      </trkpt>
      <trkpt lat="43.29848" lon="2.19915">
        <ele>244.2</ele>
        <time>2019-06-09T06:42:55.000Z</time>
      </trkpt>
      <trkpt lat="43.29848" lon="2.19915">
        <ele>244.2</ele>
        <time>2019-06-09T06:42:56.000Z</time>
      </trkpt>
      <trkpt lat="43.29848" lon="2.19915">
        <ele>244.2</ele>
        <time>2019-06-09T06:42:57.000Z</time>
      </trkpt>
      <trkpt lat="43.29848" lon="2.19915">
        <ele>244.2</ele>
        <time>2019-06-09T06:42:58.000Z</time>
      </trkpt>
      <trkpt lat="43.29848" lon="2.19915">
        <ele>244.2</ele>
        <time>2019-06-09T06:42:59.000Z</time>
      </trkpt>
      <trkpt lat="43.29848" lon="2.19915">
        <ele>244.2</ele>
        <time>2019-06-09T06:43:00.000Z</time>
      </trkpt>
      <trkpt lat="43.29848" lon="2.19915">
        <ele>244.2</ele>
        <time>2019-06-09T06:43:01.000Z</time>
      </trkpt>
      <trkpt lat="43.29848" lon="2.19915">
        <ele>244.2</ele>
        <time>2019-06-09T06:43:02.000Z</time>
      </trkpt>
      <trkpt lat="43.29848" lon="2.19915">
        <ele>244.2</ele>
        <time>2019-06-09T06:43:03.000Z</time>
      </trkpt>
      <trkpt lat="43.29848" lon="2.19915">
        <ele>244.2</ele>
        <time>2019-06-09T06:43:04.000Z</time>
      </trkpt>
      <trkpt lat="43.29848" lon="2.19915">
        <ele>244.2</ele>
        <time>2019-06-09T06:43:05.000Z</time>
      </trkpt>
      <trkpt lat="43.29848" lon="2.19915">
        <ele>244.2</ele>
        <time>2019-06-09T06:43:06.000Z</time>
      </trkpt>
      <trkpt lat="43.29848" lon="2.19915">
        <ele>244.2</ele>
        <time>2019-06-09T06:43:07.000Z</time>
      </trkpt>
      <trkpt lat="43.29848" lon="2.19915">
        <ele>244.2</ele>
        <time>2019-06-09T06:43:08.000Z</time>
      </trkpt>
      <trkpt lat="43.29848" lon="2.19915">
        <ele>244.2</ele>
        <time>2019-06-09T06:43:09.000Z</time>
      </trkpt>
      <trkpt lat="43.29848" lon="2.19915">
        <ele>244.2</ele>
        <time>2019-06-09T06:43:10.000Z</time>
      </trkpt>
      <trkpt lat="43.29847" lon="2.19915">
        <ele>244.1</ele>
        <time>2019-06-09T06:43:11.000Z</time>
      </trkpt>
      <trkpt lat="43.29847" lon="2.19915">
        <ele>244.1</ele>
        <time>2019-06-09T06:43:12.000Z</time>
      </trkpt>
      <trkpt lat="43.29847" lon="2.19915">
        <ele>244.1</ele>
        <time>2019-06-09T06:43:13.000Z</time>
      </trkpt>
      <trkpt lat="43.29846" lon="2.19914">
        <ele>244</ele>
        <time>2019-06-09T06:43:14.000Z</time>
      </trkpt>
      <trkpt lat="43.29845" lon="2.19914">
        <ele>243.9</ele>
        <time>2019-06-09T06:43:15.000Z</time>
      </trkpt>
      <trkpt lat="43.29844" lon="2.19914">
        <ele>243.9</ele>
        <time>2019-06-09T06:43:16.000Z</time>
      </trkpt>
      <trkpt lat="43.29844" lon="2.19914">
        <ele>243.8</ele>
        <time>2019-06-09T06:43:17.000Z</time>
      </trkpt>
      <trkpt lat="43.29843" lon="2.19914">
        <ele>243.7</ele>
        <time>2019-06-09T06:43:18.000Z</time>
      </trkpt>
      <trkpt lat="43.29842" lon="2.19914">
        <ele>243.7</ele>
        <time>2019-06-09T06:43:19.000Z</time>
      </trkpt>
      <trkpt lat="43.29841" lon="2.19915">
        <ele>243.6</ele>
        <time>2019-06-09T06:43:20.000Z</time>
      </trkpt>
      <trkpt lat="43.2984" lon="2.19915">
        <ele>243.5</ele>
        <time>2019-06-09T06:43:21.000Z</time>
      </trkpt>
      <trkpt lat="43.29839" lon="2.19915">
        <ele>243.4</ele>
        <time>2019-06-09T06:43:22.000Z</time>
      </trkpt>
      <trkpt lat="43.29838" lon="2.19915">
        <ele>243.4</ele>
        <time>2019-06-09T06:43:23.000Z</time>
      </trkpt>
      <trkpt lat="43.29837" lon="2.19915">
        <ele>243.3</ele>
        <time>2019-06-09T06:43:24.000Z</time>
      </trkpt>
      <trkpt lat="43.29836" lon="2.19916">
        <ele>243.2</ele>
        <time>2019-06-09T06:43:25.000Z</time>
      </trkpt>
      <trkpt lat="43.29835" lon="2.19916">
        <ele>243.2</ele>
        <time>2019-06-09T06:43:26.000Z</time>
      </trkpt>
      <trkpt lat="43.29834" lon="2.19916">
        <ele>243.1</ele>
        <time>2019-06-09T06:43:27.000Z</time>
      </trkpt>
      <trkpt lat="43.29834" lon="2.19916">
        <ele>243</ele>
        <time>2019-06-09T06:43:28.000Z</time>
      </trkpt>
      <trkpt lat="43.29833" lon="2.19916">
        <ele>242.9</ele>
        <time>2019-06-09T06:43:29.000Z</time>
      </trkpt>
      <trkpt lat="43.29832" lon="2.19916">
        <ele>242.9</ele>
        <time>2019-06-09T06:43:30.000Z</time>
      </trkpt>
      <trkpt lat="43.29832" lon="2.19916">
        <ele>242.8</ele>
        <time>2019-06-09T06:43:31.000Z</time>
      </trkpt>
      <trkpt lat="43.29831" lon="2.19916">
        <ele>242.8</ele>
        <time>2019-06-09T06:43:32.000Z</time>
      </trkpt>
      <trkpt lat="43.29831" lon="2.19916">
        <ele>242.8</ele>
        <time>2019-06-09T06:43:33.000Z</time>
      </trkpt>
      <trkpt lat="43.29831" lon="2.19916">
        <ele>242.8</ele>
        <time>2019-06-09T06:43:34.000Z</time>
      </trkpt>
      <trkpt lat="43.29831" lon="2.19916">
        <ele>242.8</ele>
        <time>2019-06-09T06:43:35.000Z</time>
      </trkpt>
      <trkpt lat="43.29831" lon="2.19916">
        <ele>242.8</ele>
        <time>2019-06-09T06:43:36.000Z</time>
      </trkpt>
      <trkpt lat="43.29831" lon="2.19916">
        <ele>242.8</ele>
        <time>2019-06-09T06:43:37.000Z</time>
      </trkpt>
      <trkpt lat="43.29831" lon="2.19916">
        <ele>242.8</ele>
        <time>2019-06-09T06:43:38.000Z</time>
      </trkpt>
      <trkpt lat="43.29831" lon="2.19917">
        <ele>242.8</ele>
        <time>2019-06-09T06:43:39.000Z</time>
      </trkpt>
      <trkpt lat="43.29831" lon="2.19917">
        <ele>242.8</ele>
        <time>2019-06-09T06:43:40.000Z</time>
      </trkpt>
      <trkpt lat="43.29831" lon="2.19917">
        <ele>242.8</ele>
        <time>2019-06-09T06:43:41.000Z</time>
      </trkpt>
      <trkpt lat="43.29831" lon="2.19917">
        <ele>242.8</ele>
        <time>2019-06-09T06:43:42.000Z</time>
      </trkpt>
      <trkpt lat="43.29831" lon="2.19917">
        <ele>242.8</ele>
        <time>2019-06-09T06:43:43.000Z</time>
      </trkpt>
      <trkpt lat="43.29831" lon="2.19917">
        <ele>242.8</ele>
        <time>2019-06-09T06:43:44.000Z</time>
      </trkpt>
      <trkpt lat="43.29831" lon="2.19917">
        <ele>242.8</ele>
        <time>2019-06-09T06:43:45.000Z</time>
      </trkpt>
      <trkpt lat="43.29831" lon="2.19917">
        <ele>242.8</ele>
        <time>2019-06-09T06:43:46.000Z</time>
      </trkpt>
      <trkpt lat="43.29831" lon="2.19917">
        <ele>242.8</ele>
        <time>2019-06-09T06:43:47.000Z</time>
      </trkpt>
      <trkpt lat="43.2983" lon="2.19917">
        <ele>242.7</ele>
        <time>2019-06-09T06:43:48.000Z</time>
      </trkpt>
      <trkpt lat="43.29829" lon="2.19917">
        <ele>242.7</ele>
        <time>2019-06-09T06:43:49.000Z</time>
      </trkpt>
      <trkpt lat="43.29828" lon="2.19917">
        <ele>242.6</ele>
        <time>2019-06-09T06:43:50.000Z</time>
      </trkpt>
      <trkpt lat="43.29827" lon="2.19917">
        <ele>242.5</ele>
        <time>2019-06-09T06:43:51.000Z</time>
      </trkpt>
      <trkpt lat="43.29826" lon="2.19916">
        <ele>242.4</ele>
        <time>2019-06-09T06:43:52.000Z</time>
      </trkpt>
      <trkpt lat="43.29824" lon="2.19916">
        <ele>242.2</ele>
        <time>2019-06-09T06:43:53.000Z</time>
      </trkpt>
      <trkpt lat="43.29823" lon="2.19916">
        <ele>242.1</ele>
        <time>2019-06-09T06:43:54.000Z</time>
      </trkpt>
      <trkpt lat="43.29821" lon="2.19916">
        <ele>242</ele>
        <time>2019-06-09T06:43:55.000Z</time>
      </trkpt>
      <trkpt lat="43.29819" lon="2.19916">
        <ele>241.8</ele>
        <time>2019-06-09T06:43:56.000Z</time>
      </trkpt>
      <trkpt lat="43.29818" lon="2.19915">
        <ele>241.7</ele>
        <time>2019-06-09T06:43:57.000Z</time>
      </trkpt>
      <trkpt lat="43.29816" lon="2.19915">
        <ele>241.5</ele>
        <time>2019-06-09T06:43:58.000Z</time>
      </trkpt>
      <trkpt lat="43.29814" lon="2.19915">
        <ele>241.3</ele>
        <time>2019-06-09T06:43:59.000Z</time>
      </trkpt>
      <trkpt lat="43.29812" lon="2.19914">
        <ele>241.1</ele>
        <time>2019-06-09T06:44:00.000Z</time>
      </trkpt>
      <trkpt lat="43.2981" lon="2.19914">
        <ele>241</ele>
        <time>2019-06-09T06:44:01.000Z</time>
      </trkpt>
      <trkpt lat="43.29807" lon="2.19913">
        <ele>240.8</ele>
        <time>2019-06-09T06:44:02.000Z</time>
      </trkpt>
      <trkpt lat="43.29805" lon="2.19913">
        <ele>240.6</ele>
        <time>2019-06-09T06:44:03.000Z</time>
      </trkpt>
      <trkpt lat="43.29803" lon="2.19912">
        <ele>240.4</ele>
        <time>2019-06-09T06:44:04.000Z</time>
      </trkpt>
      <trkpt lat="43.29801" lon="2.19912">
        <ele>240.2</ele>
        <time>2019-06-09T06:44:05.000Z</time>
      </trkpt>
      <trkpt lat="43.29799" lon="2.19911">
        <ele>240</ele>
        <time>2019-06-09T06:44:06.000Z</time>
      </trkpt>
      <trkpt lat="43.29796" lon="2.19911">
        <ele>239.8</ele>
        <time>2019-06-09T06:44:07.000Z</time>
      </trkpt>
      <trkpt lat="43.29794" lon="2.1991">
        <ele>239.6</ele>
        <time>2019-06-09T06:44:08.000Z</time>
      </trkpt>
      <trkpt lat="43.29792" lon="2.1991">
        <ele>239.4</ele>
        <time>2019-06-09T06:44:09.000Z</time>
      </trkpt>
      <trkpt lat="43.2979" lon="2.19909">
        <ele>239.2</ele>
        <time>2019-06-09T06:44:10.000Z</time>
      </trkpt>
      <trkpt lat="43.29787" lon="2.19908">
        <ele>239</ele>
        <time>2019-06-09T06:44:11.000Z</time>
      </trkpt>
      <trkpt lat="43.29785" lon="2.19908">
        <ele>238.8</ele>
        <time>2019-06-09T06:44:12.000Z</time>
      </trkpt>
      <trkpt lat="43.29783" lon="2.19907">
        <ele>238.6</ele>
        <time>2019-06-09T06:44:13.000Z</time>
      </trkpt>
      <trkpt lat="43.29781" lon="2.19907">
        <ele>238.5</ele>
        <time>2019-06-09T06:44:14.000Z</time>
      </trkpt>
      <trkpt lat="43.29778" lon="2.19906">
        <ele>238.3</ele>
        <time>2019-06-09T06:44:15.000Z</time>
      </trkpt>
      <trkpt lat="43.29776" lon="2.19906">
        <ele>238.1</ele>
        <time>2019-06-09T06:44:16.000Z</time>
      </trkpt>
      <trkpt lat="43.29774" lon="2.19905">
        <ele>237.9</ele>
        <time>2019-06-09T06:44:17.000Z</time>
      </trkpt>
      <trkpt lat="43.29772" lon="2.19904">
        <ele>237.7</ele>
        <time>2019-06-09T06:44:18.000Z</time>
      </trkpt>
      <trkpt lat="43.2977" lon="2.19904">
        <ele>237.5</ele>
        <time>2019-06-09T06:44:19.000Z</time>
      </trkpt>
      <trkpt lat="43.29767" lon="2.19903">
        <ele>237.3</ele>
        <time>2019-06-09T06:44:20.000Z</time>
      </trkpt>
      <trkpt lat="43.29765" lon="2.19903">
        <ele>237.1</ele>
        <time>2019-06-09T06:44:21.000Z</time>
      </trkpt>
      <trkpt lat="43.29763" lon="2.19902">
        <ele>236.9</ele>
        <time>2019-06-09T06:44:22.000Z</time>
      </trkpt>
      <trkpt lat="43.29761" lon="2.19902">
        <ele>236.7</ele>
        <time>2019-06-09T06:44:23.000Z</time>
      </trkpt>
      <trkpt lat="43.29759" lon="2.19901">
        <ele>236.6</ele>
        <time>2019-06-09T06:44:24.000Z</time>
      </trkpt>
      <trkpt lat="43.29757" lon="2.199">
        <ele>236.4</ele>
        <time>2019-06-09T06:44:25.000Z</time>
      </trkpt>
      <trkpt lat="43.29755" lon="2.199">
        <ele>236.2</ele>
        <time>2019-06-09T06:44:26.000Z</time>
      </trkpt>
      <trkpt lat="43.29753" lon="2.19899">
        <ele>236</ele>
        <time>2019-06-09T06:44:27.000Z</time>
      </trkpt>
      <trkpt lat="43.2975" lon="2.19899">
        <ele>235.8</ele>
        <time>2019-06-09T06:44:28.000Z</time>
      </trkpt>
      <trkpt lat="43.29748" lon="2.19898">
        <ele>235.7</ele>
        <time>2019-06-09T06:44:29.000Z</time>
      </trkpt>
      <trkpt lat="43.29746" lon="2.19897">
        <ele>235.5</ele>
        <time>2019-06-09T06:44:30.000Z</time>
      </trkpt>
      <trkpt lat="43.29744" lon="2.19897">
        <ele>235.4</ele>
        <time>2019-06-09T06:44:31.000Z</time>
      </trkpt>
      <trkpt lat="43.29742" lon="2.19896">
        <ele>235.2</ele>
        <time>2019-06-09T06:44:32.000Z</time>
      </trkpt>
      <trkpt lat="43.2974" lon="2.19895">
        <ele>235</ele>
        <time>2019-06-09T06:44:33.000Z</time>
      </trkpt>
      <trkpt lat="43.29737" lon="2.19894">
        <ele>234.9</ele>
        <time>2019-06-09T06:44:34.000Z</time>
      </trkpt>
      <trkpt lat="43.29735" lon="2.19894">
        <ele>234.7</ele>
        <time>2019-06-09T06:44:35.000Z</time>
      </trkpt>
      <trkpt lat="43.29733" lon="2.19893">
        <ele>234.5</ele>
        <time>2019-06-09T06:44:36.000Z</time>
      </trkpt>
      <trkpt lat="43.2973" lon="2.19893">
        <ele>234.4</ele>
        <time>2019-06-09T06:44:37.000Z</time>
      </trkpt>
      <trkpt lat="43.29728" lon="2.19893">
        <ele>234.2</ele>
        <time>2019-06-09T06:44:38.000Z</time>
      </trkpt>
      <trkpt lat="43.29725" lon="2.19894">
        <ele>234</ele>
        <time>2019-06-09T06:44:39.000Z</time>
      </trkpt>
      <trkpt lat="43.29723" lon="2.19894">
        <ele>233.9</ele>
        <time>2019-06-09T06:44:40.000Z</time>
      </trkpt>
      <trkpt lat="43.29721" lon="2.19894">
        <ele>233.7</ele>
        <time>2019-06-09T06:44:41.000Z</time>
      </trkpt>
      <trkpt lat="43.29718" lon="2.19894">
        <ele>233.5</ele>
        <time>2019-06-09T06:44:42.000Z</time>
      </trkpt>
      <trkpt lat="43.29716" lon="2.19894">
        <ele>233.4</ele>
        <time>2019-06-09T06:44:43.000Z</time>
      </trkpt>
      <trkpt lat="43.29713" lon="2.19894">
        <ele>233.2</ele>
        <time>2019-06-09T06:44:44.000Z</time>
      </trkpt>
      <trkpt lat="43.29711" lon="2.19893">
        <ele>233</ele>
        <time>2019-06-09T06:44:45.000Z</time>
      </trkpt>
      <trkpt lat="43.29708" lon="2.19892">
        <ele>232.9</ele>
        <time>2019-06-09T06:44:46.000Z</time>
      </trkpt>
      <trkpt lat="43.29706" lon="2.19892">
        <ele>232.7</ele>
        <time>2019-06-09T06:44:47.000Z</time>
      </trkpt>
      <trkpt lat="43.29704" lon="2.19891">
        <ele>232.5</ele>
        <time>2019-06-09T06:44:48.000Z</time>
      </trkpt>
      <trkpt lat="43.29702" lon="2.1989">
        <ele>232.4</ele>
        <time>2019-06-09T06:44:49.000Z</time>
      </trkpt>
      <trkpt lat="43.29699" lon="2.1989">
        <ele>232.2</ele>
        <time>2019-06-09T06:44:50.000Z</time>
      </trkpt>
      <trkpt lat="43.29697" lon="2.19889">
        <ele>232.1</ele>
        <time>2019-06-09T06:44:51.000Z</time>
      </trkpt>
      <trkpt lat="43.29695" lon="2.19888">
        <ele>231.9</ele>
        <time>2019-06-09T06:44:52.000Z</time>
      </trkpt>
      <trkpt lat="43.29693" lon="2.19888">
        <ele>231.8</ele>
        <time>2019-06-09T06:44:53.000Z</time>
      </trkpt>
      <trkpt lat="43.2969" lon="2.19887">
        <ele>231.6</ele>
        <time>2019-06-09T06:44:54.000Z</time>
      </trkpt>
      <trkpt lat="43.29688" lon="2.19887">
        <ele>231.5</ele>
        <time>2019-06-09T06:44:55.000Z</time>
      </trkpt>
      <trkpt lat="43.29686" lon="2.19886">
        <ele>231.3</ele>
        <time>2019-06-09T06:44:56.000Z</time>
      </trkpt>
      <trkpt lat="43.29684" lon="2.19885">
        <ele>231.1</ele>
        <time>2019-06-09T06:44:57.000Z</time>
      </trkpt>
      <trkpt lat="43.29681" lon="2.19885">
        <ele>231</ele>
        <time>2019-06-09T06:44:58.000Z</time>
      </trkpt>
      <trkpt lat="43.29679" lon="2.19884">
        <ele>230.8</ele>
        <time>2019-06-09T06:44:59.000Z</time>
      </trkpt>
      <trkpt lat="43.29677" lon="2.19883">
        <ele>230.7</ele>
        <time>2019-06-09T06:45:00.000Z</time>
      </trkpt>
      <trkpt lat="43.29675" lon="2.19882">
        <ele>230.5</ele>
        <time>2019-06-09T06:45:01.000Z</time>
      </trkpt>
      <trkpt lat="43.29672" lon="2.19882">
        <ele>230.4</ele>
        <time>2019-06-09T06:45:02.000Z</time>
      </trkpt>
      <trkpt lat="43.2967" lon="2.19881">
        <ele>230.2</ele>
        <time>2019-06-09T06:45:03.000Z</time>
      </trkpt>
      <trkpt lat="43.29668" lon="2.1988">
        <ele>230.1</ele>
        <time>2019-06-09T06:45:04.000Z</time>
      </trkpt>
      <trkpt lat="43.29665" lon="2.1988">
        <ele>229.9</ele>
        <time>2019-06-09T06:45:05.000Z</time>
      </trkpt>
      <trkpt lat="43.29663" lon="2.19879">
        <ele>229.8</ele>
        <time>2019-06-09T06:45:06.000Z</time>
      </trkpt>
      <trkpt lat="43.29661" lon="2.19878">
        <ele>229.7</ele>
        <time>2019-06-09T06:45:07.000Z</time>
      </trkpt>
      <trkpt lat="43.29658" lon="2.19877">
        <ele>229.6</ele>
        <time>2019-06-09T06:45:08.000Z</time>
      </trkpt>
      <trkpt lat="43.29656" lon="2.19877">
        <ele>229.5</ele>
        <time>2019-06-09T06:45:09.000Z</time>
      </trkpt>
      <trkpt lat="43.29654" lon="2.19876">
        <ele>229.4</ele>
        <time>2019-06-09T06:45:10.000Z</time>
      </trkpt>
      <trkpt lat="43.29651" lon="2.19875">
        <ele>229.3</ele>
        <time>2019-06-09T06:45:11.000Z</time>
      </trkpt>
      <trkpt lat="43.29649" lon="2.19875">
        <ele>229.2</ele>
        <time>2019-06-09T06:45:12.000Z</time>
      </trkpt>
      <trkpt lat="43.29647" lon="2.19874">
        <ele>229</ele>
        <time>2019-06-09T06:45:13.000Z</time>
      </trkpt>
      <trkpt lat="43.29644" lon="2.19874">
        <ele>228.9</ele>
        <time>2019-06-09T06:45:14.000Z</time>
      </trkpt>
      <trkpt lat="43.29642" lon="2.19873">
        <ele>228.8</ele>
        <time>2019-06-09T06:45:15.000Z</time>
      </trkpt>
      <trkpt lat="43.2964" lon="2.19872">
        <ele>228.7</ele>
        <time>2019-06-09T06:45:16.000Z</time>
      </trkpt>
      <trkpt lat="43.29638" lon="2.19872">
        <ele>228.6</ele>
        <time>2019-06-09T06:45:17.000Z</time>
      </trkpt>
      <trkpt lat="43.29635" lon="2.19871">
        <ele>228.5</ele>
        <time>2019-06-09T06:45:18.000Z</time>
      </trkpt>
      <trkpt lat="43.29633" lon="2.19871">
        <ele>228.4</ele>
        <time>2019-06-09T06:45:19.000Z</time>
      </trkpt>
      <trkpt lat="43.29631" lon="2.1987">
        <ele>228.3</ele>
        <time>2019-06-09T06:45:20.000Z</time>
      </trkpt>
      <trkpt lat="43.29629" lon="2.1987">
        <ele>228.2</ele>
        <time>2019-06-09T06:45:21.000Z</time>
      </trkpt>
      <trkpt lat="43.29627" lon="2.19869">
        <ele>228.1</ele>
        <time>2019-06-09T06:45:22.000Z</time>
      </trkpt>
      <trkpt lat="43.29624" lon="2.19869">
        <ele>228</ele>
        <time>2019-06-09T06:45:23.000Z</time>
      </trkpt>
      <trkpt lat="43.29622" lon="2.19868">
        <ele>227.9</ele>
        <time>2019-06-09T06:45:24.000Z</time>
      </trkpt>
      <trkpt lat="43.2962" lon="2.19868">
        <ele>227.8</ele>
        <time>2019-06-09T06:45:25.000Z</time>
      </trkpt>
      <trkpt lat="43.29618" lon="2.19867">
        <ele>227.7</ele>
        <time>2019-06-09T06:45:26.000Z</time>
      </trkpt>
      <trkpt lat="43.29616" lon="2.19867">
        <ele>227.5</ele>
        <time>2019-06-09T06:45:27.000Z</time>
      </trkpt>
      <trkpt lat="43.29613" lon="2.19866">
        <ele>227.4</ele>
        <time>2019-06-09T06:45:28.000Z</time>
      </trkpt>
      <trkpt lat="43.29611" lon="2.19866">
        <ele>227.3</ele>
        <time>2019-06-09T06:45:29.000Z</time>
      </trkpt>
      <trkpt lat="43.29609" lon="2.19865">
        <ele>227.2</ele>
        <time>2019-06-09T06:45:30.000Z</time>
      </trkpt>
      <trkpt lat="43.29607" lon="2.19865">
        <ele>227.1</ele>
        <time>2019-06-09T06:45:31.000Z</time>
      </trkpt>
      <trkpt lat="43.29605" lon="2.19864">
        <ele>227</ele>
        <time>2019-06-09T06:45:32.000Z</time>
      </trkpt>
      <trkpt lat="43.29603" lon="2.19864">
        <ele>226.9</ele>
        <time>2019-06-09T06:45:33.000Z</time>
      </trkpt>
      <trkpt lat="43.296" lon="2.19863">
        <ele>226.8</ele>
        <time>2019-06-09T06:45:34.000Z</time>
      </trkpt>
      <trkpt lat="43.29598" lon="2.19863">
        <ele>226.7</ele>
        <time>2019-06-09T06:45:35.000Z</time>
      </trkpt>
      <trkpt lat="43.29596" lon="2.19863">
        <ele>226.6</ele>
        <time>2019-06-09T06:45:36.000Z</time>
      </trkpt>
      <trkpt lat="43.29594" lon="2.19862">
        <ele>226.5</ele>
        <time>2019-06-09T06:45:37.000Z</time>
      </trkpt>
      <trkpt lat="43.29592" lon="2.19861">
        <ele>226.4</ele>
        <time>2019-06-09T06:45:38.000Z</time>
      </trkpt>
      <trkpt lat="43.29589" lon="2.19861">
        <ele>226.3</ele>
        <time>2019-06-09T06:45:39.000Z</time>
      </trkpt>
      <trkpt lat="43.29587" lon="2.1986">
        <ele>226.2</ele>
        <time>2019-06-09T06:45:40.000Z</time>
      </trkpt>
      <trkpt lat="43.29585" lon="2.1986">
        <ele>226.1</ele>
        <time>2019-06-09T06:45:41.000Z</time>
      </trkpt>
      <trkpt lat="43.29582" lon="2.19859">
        <ele>226</ele>
        <time>2019-06-09T06:45:42.000Z</time>
      </trkpt>
      <trkpt lat="43.2958" lon="2.19859">
        <ele>225.9</ele>
        <time>2019-06-09T06:45:43.000Z</time>
      </trkpt>
      <trkpt lat="43.29577" lon="2.19858">
        <ele>225.8</ele>
        <time>2019-06-09T06:45:44.000Z</time>
      </trkpt>
      <trkpt lat="43.29575" lon="2.19857">
        <ele>225.7</ele>
        <time>2019-06-09T06:45:45.000Z</time>
      </trkpt>
      <trkpt lat="43.29572" lon="2.19857">
        <ele>225.5</ele>
        <time>2019-06-09T06:45:46.000Z</time>
      </trkpt>
      <trkpt lat="43.2957" lon="2.19856">
        <ele>225.4</ele>
        <time>2019-06-09T06:45:47.000Z</time>
      </trkpt>
      <trkpt lat="43.29568" lon="2.19855">
        <ele>225.3</ele>
        <time>2019-06-09T06:45:48.000Z</time>
      </trkpt>
      <trkpt lat="43.29565" lon="2.19854">
        <ele>225.2</ele>
        <time>2019-06-09T06:45:49.000Z</time>
      </trkpt>
      <trkpt lat="43.29563" lon="2.19853">
        <ele>225.1</ele>
        <time>2019-06-09T06:45:50.000Z</time>
      </trkpt>
      <trkpt lat="43.2956" lon="2.19852">
        <ele>225</ele>
        <time>2019-06-09T06:45:51.000Z</time>
      </trkpt>
      <trkpt lat="43.29558" lon="2.19851">
        <ele>224.9</ele>
        <time>2019-06-09T06:45:52.000Z</time>
      </trkpt>
      <trkpt lat="43.29556" lon="2.1985">
        <ele>224.8</ele>
        <time>2019-06-09T06:45:53.000Z</time>
      </trkpt>
      <trkpt lat="43.29554" lon="2.19848">
        <ele>224.7</ele>
        <time>2019-06-09T06:45:54.000Z</time>
      </trkpt>
      <trkpt lat="43.29551" lon="2.19847">
        <ele>224.6</ele>
        <time>2019-06-09T06:45:55.000Z</time>
      </trkpt>
      <trkpt lat="43.29549" lon="2.19845">
        <ele>224.5</ele>
        <time>2019-06-09T06:45:56.000Z</time>
      </trkpt>
      <trkpt lat="43.29547" lon="2.19843">
        <ele>224.4</ele>
        <time>2019-06-09T06:45:57.000Z</time>
      </trkpt>
      <trkpt lat="43.29545" lon="2.19841">
        <ele>224.3</ele>
        <time>2019-06-09T06:45:58.000Z</time>
      </trkpt>
      <trkpt lat="43.29544" lon="2.19839">
        <ele>224.1</ele>
        <time>2019-06-09T06:45:59.000Z</time>
      </trkpt>
      <trkpt lat="43.29542" lon="2.19837">
        <ele>224</ele>
        <time>2019-06-09T06:46:00.000Z</time>
      </trkpt>
      <trkpt lat="43.2954" lon="2.19834">
        <ele>223.9</ele>
        <time>2019-06-09T06:46:01.000Z</time>
      </trkpt>
      <trkpt lat="43.29538" lon="2.19832">
        <ele>223.8</ele>
        <time>2019-06-09T06:46:02.000Z</time>
      </trkpt>
      <trkpt lat="43.29536" lon="2.1983">
        <ele>223.6</ele>
        <time>2019-06-09T06:46:03.000Z</time>
      </trkpt>
      <trkpt lat="43.29535" lon="2.19828">
        <ele>223.5</ele>
        <time>2019-06-09T06:46:04.000Z</time>
      </trkpt>
      <trkpt lat="43.29533" lon="2.19826">
        <ele>223.3</ele>
        <time>2019-06-09T06:46:05.000Z</time>
      </trkpt>
      <trkpt lat="43.29532" lon="2.19824">
        <ele>223.2</ele>
        <time>2019-06-09T06:46:06.000Z</time>
      </trkpt>
      <trkpt lat="43.2953" lon="2.19822">
        <ele>223</ele>
        <time>2019-06-09T06:46:07.000Z</time>
      </trkpt>
      <trkpt lat="43.29528" lon="2.1982">
        <ele>222.9</ele>
        <time>2019-06-09T06:46:08.000Z</time>
      </trkpt>
      <trkpt lat="43.29527" lon="2.19818">
        <ele>222.7</ele>
        <time>2019-06-09T06:46:09.000Z</time>
      </trkpt>
      <trkpt lat="43.29525" lon="2.19816">
        <ele>222.6</ele>
        <time>2019-06-09T06:46:10.000Z</time>
      </trkpt>
      <trkpt lat="43.29524" lon="2.19814">
        <ele>222.4</ele>
        <time>2019-06-09T06:46:11.000Z</time>
      </trkpt>
      <trkpt lat="43.29522" lon="2.19812">
        <ele>222.2</ele>
        <time>2019-06-09T06:46:12.000Z</time>
      </trkpt>
      <trkpt lat="43.2952" lon="2.1981">
        <ele>222.1</ele>
        <time>2019-06-09T06:46:13.000Z</time>
      </trkpt>
      <trkpt lat="43.29519" lon="2.19807">
        <ele>221.9</ele>
        <time>2019-06-09T06:46:14.000Z</time>
      </trkpt>
      <trkpt lat="43.29517" lon="2.19805">
        <ele>221.7</ele>
        <time>2019-06-09T06:46:15.000Z</time>
      </trkpt>
      <trkpt lat="43.29516" lon="2.19802">
        <ele>221.4</ele>
        <time>2019-06-09T06:46:16.000Z</time>
      </trkpt>
      <trkpt lat="43.29514" lon="2.19799">
        <ele>221.2</ele>
        <time>2019-06-09T06:46:17.000Z</time>
      </trkpt>
      <trkpt lat="43.29512" lon="2.19796">
        <ele>221</ele>
        <time>2019-06-09T06:46:18.000Z</time>
      </trkpt>
      <trkpt lat="43.29511" lon="2.19793">
        <ele>220.8</ele>
        <time>2019-06-09T06:46:19.000Z</time>
      </trkpt>
      <trkpt lat="43.29509" lon="2.1979">
        <ele>220.6</ele>
        <time>2019-06-09T06:46:20.000Z</time>
      </trkpt>
      <trkpt lat="43.29508" lon="2.19787">
        <ele>220.3</ele>
        <time>2019-06-09T06:46:21.000Z</time>
      </trkpt>
      <trkpt lat="43.29507" lon="2.19785">
        <ele>220.1</ele>
        <time>2019-06-09T06:46:22.000Z</time>
      </trkpt>
      <trkpt lat="43.29505" lon="2.19782">
        <ele>219.9</ele>
        <time>2019-06-09T06:46:23.000Z</time>
      </trkpt>
      <trkpt lat="43.29504" lon="2.19779">
        <ele>219.7</ele>
        <time>2019-06-09T06:46:24.000Z</time>
      </trkpt>
      <trkpt lat="43.29502" lon="2.19777">
        <ele>219.5</ele>
        <time>2019-06-09T06:46:25.000Z</time>
      </trkpt>
      <trkpt lat="43.29501" lon="2.19775">
        <ele>219.2</ele>
        <time>2019-06-09T06:46:26.000Z</time>
      </trkpt>
      <trkpt lat="43.29499" lon="2.19773">
        <ele>219</ele>
        <time>2019-06-09T06:46:27.000Z</time>
      </trkpt>
      <trkpt lat="43.29497" lon="2.19772">
        <ele>218.9</ele>
        <time>2019-06-09T06:46:28.000Z</time>
      </trkpt>
      <trkpt lat="43.29494" lon="2.19771">
        <ele>218.7</ele>
        <time>2019-06-09T06:46:29.000Z</time>
      </trkpt>
      <trkpt lat="43.29492" lon="2.1977">
        <ele>218.5</ele>
        <time>2019-06-09T06:46:30.000Z</time>
      </trkpt>
      <trkpt lat="43.2949" lon="2.19769">
        <ele>218.3</ele>
        <time>2019-06-09T06:46:31.000Z</time>
      </trkpt>
      <trkpt lat="43.29488" lon="2.19769">
        <ele>218.2</ele>
        <time>2019-06-09T06:46:32.000Z</time>
      </trkpt>
      <trkpt lat="43.29486" lon="2.19768">
        <ele>218</ele>
        <time>2019-06-09T06:46:33.000Z</time>
      </trkpt>
      <trkpt lat="43.29484" lon="2.19767">
        <ele>217.9</ele>
        <time>2019-06-09T06:46:34.000Z</time>
      </trkpt>
      <trkpt lat="43.29482" lon="2.19766">
        <ele>217.7</ele>
        <time>2019-06-09T06:46:35.000Z</time>
      </trkpt>
      <trkpt lat="43.2948" lon="2.19765">
        <ele>217.5</ele>
        <time>2019-06-09T06:46:36.000Z</time>
      </trkpt>
      <trkpt lat="43.29478" lon="2.19765">
        <ele>217.4</ele>
        <time>2019-06-09T06:46:37.000Z</time>
      </trkpt>
      <trkpt lat="43.29476" lon="2.19764">
        <ele>217.2</ele>
        <time>2019-06-09T06:46:38.000Z</time>
      </trkpt>
      <trkpt lat="43.29474" lon="2.19763">
        <ele>217</ele>
        <time>2019-06-09T06:46:39.000Z</time>
      </trkpt>
      <trkpt lat="43.29472" lon="2.19763">
        <ele>216.9</ele>
        <time>2019-06-09T06:46:40.000Z</time>
      </trkpt>
      <trkpt lat="43.2947" lon="2.19763">
        <ele>216.7</ele>
        <time>2019-06-09T06:46:41.000Z</time>
      </trkpt>
      <trkpt lat="43.29468" lon="2.19763">
        <ele>216.6</ele>
        <time>2019-06-09T06:46:42.000Z</time>
      </trkpt>
      <trkpt lat="43.29465" lon="2.19764">
        <ele>216.5</ele>
        <time>2019-06-09T06:46:43.000Z</time>
      </trkpt>
      <trkpt lat="43.29463" lon="2.19764">
        <ele>216.4</ele>
        <time>2019-06-09T06:46:44.000Z</time>
      </trkpt>
      <trkpt lat="43.29461" lon="2.19765">
        <ele>216.3</ele>
        <time>2019-06-09T06:46:45.000Z</time>
      </trkpt>
      <trkpt lat="43.29459" lon="2.19766">
        <ele>216.3</ele>
        <time>2019-06-09T06:46:46.000Z</time>
      </trkpt>
      <trkpt lat="43.29456" lon="2.19767">
        <ele>216.2</ele>
        <time>2019-06-09T06:46:47.000Z</time>
      </trkpt>
      <trkpt lat="43.29454" lon="2.19768">
        <ele>216.2</ele>
        <time>2019-06-09T06:46:48.000Z</time>
      </trkpt>
      <trkpt lat="43.29452" lon="2.19769">
        <ele>216.1</ele>
        <time>2019-06-09T06:46:49.000Z</time>
      </trkpt>
      <trkpt lat="43.29449" lon="2.1977">
        <ele>216</ele>
        <time>2019-06-09T06:46:50.000Z</time>
      </trkpt>
      <trkpt lat="43.29447" lon="2.1977">
        <ele>215.9</ele>
        <time>2019-06-09T06:46:51.000Z</time>
      </trkpt>
      <trkpt lat="43.29444" lon="2.19771">
        <ele>215.8</ele>
        <time>2019-06-09T06:46:52.000Z</time>
      </trkpt>
      <trkpt lat="43.29442" lon="2.19771">
        <ele>215.7</ele>
        <time>2019-06-09T06:46:53.000Z</time>
      </trkpt>
      <trkpt lat="43.2944" lon="2.19771">
        <ele>215.6</ele>
        <time>2019-06-09T06:46:54.000Z</time>
      </trkpt>
      <trkpt lat="43.29437" lon="2.19771">
        <ele>215.5</ele>
        <time>2019-06-09T06:46:55.000Z</time>
      </trkpt>
      <trkpt lat="43.29435" lon="2.19771">
        <ele>215.3</ele>
        <time>2019-06-09T06:46:56.000Z</time>
      </trkpt>
      <trkpt lat="43.29433" lon="2.19772">
        <ele>215.3</ele>
        <time>2019-06-09T06:46:57.000Z</time>
      </trkpt>
      <trkpt lat="43.29431" lon="2.19772">
        <ele>215.2</ele>
        <time>2019-06-09T06:46:58.000Z</time>
      </trkpt>
      <trkpt lat="43.2943" lon="2.19772">
        <ele>215.1</ele>
        <time>2019-06-09T06:46:59.000Z</time>
      </trkpt>
      <trkpt lat="43.29428" lon="2.19773">
        <ele>215.1</ele>
        <time>2019-06-09T06:47:00.000Z</time>
      </trkpt>
      <trkpt lat="43.29426" lon="2.19773">
        <ele>215</ele>
        <time>2019-06-09T06:47:01.000Z</time>
      </trkpt>
      <trkpt lat="43.29424" lon="2.19774">
        <ele>215</ele>
        <time>2019-06-09T06:47:02.000Z</time>
      </trkpt>
      <trkpt lat="43.29421" lon="2.19775">
        <ele>214.9</ele>
        <time>2019-06-09T06:47:03.000Z</time>
      </trkpt>
      <trkpt lat="43.29418" lon="2.19776">
        <ele>214.9</ele>
        <time>2019-06-09T06:47:04.000Z</time>
      </trkpt>
      <trkpt lat="43.29416" lon="2.19777">
        <ele>214.8</ele>
        <time>2019-06-09T06:47:05.000Z</time>
      </trkpt>
      <trkpt lat="43.29414" lon="2.19777">
        <ele>214.8</ele>
        <time>2019-06-09T06:47:06.000Z</time>
      </trkpt>
      <trkpt lat="43.29411" lon="2.19777">
        <ele>214.7</ele>
        <time>2019-06-09T06:47:07.000Z</time>
      </trkpt>
      <trkpt lat="43.29409" lon="2.19778">
        <ele>214.6</ele>
        <time>2019-06-09T06:47:08.000Z</time>
      </trkpt>
      <trkpt lat="43.29407" lon="2.19777">
        <ele>214.4</ele>
        <time>2019-06-09T06:47:09.000Z</time>
      </trkpt>
      <trkpt lat="43.29405" lon="2.19777">
        <ele>214.3</ele>
        <time>2019-06-09T06:47:10.000Z</time>
      </trkpt>
      <trkpt lat="43.29402" lon="2.19776">
        <ele>214.1</ele>
        <time>2019-06-09T06:47:11.000Z</time>
      </trkpt>
      <trkpt lat="43.294" lon="2.19775">
        <ele>213.9</ele>
        <time>2019-06-09T06:47:12.000Z</time>
      </trkpt>
      <trkpt lat="43.29398" lon="2.19774">
        <ele>213.7</ele>
        <time>2019-06-09T06:47:13.000Z</time>
      </trkpt>
      <trkpt lat="43.29396" lon="2.19772">
        <ele>213.5</ele>
        <time>2019-06-09T06:47:14.000Z</time>
      </trkpt>
      <trkpt lat="43.29394" lon="2.19771">
        <ele>213.3</ele>
        <time>2019-06-09T06:47:15.000Z</time>
      </trkpt>
      <trkpt lat="43.29392" lon="2.19769">
        <ele>213.1</ele>
        <time>2019-06-09T06:47:16.000Z</time>
      </trkpt>
      <trkpt lat="43.2939" lon="2.19768">
        <ele>212.9</ele>
        <time>2019-06-09T06:47:17.000Z</time>
      </trkpt>
      <trkpt lat="43.29388" lon="2.19766">
        <ele>212.7</ele>
        <time>2019-06-09T06:47:18.000Z</time>
      </trkpt>
      <trkpt lat="43.29386" lon="2.19765">
        <ele>212.6</ele>
        <time>2019-06-09T06:47:19.000Z</time>
      </trkpt>
      <trkpt lat="43.29384" lon="2.19763">
        <ele>212.4</ele>
        <time>2019-06-09T06:47:20.000Z</time>
      </trkpt>
      <trkpt lat="43.29382" lon="2.19761">
        <ele>212.2</ele>
        <time>2019-06-09T06:47:21.000Z</time>
      </trkpt>
      <trkpt lat="43.2938" lon="2.1976">
        <ele>212.1</ele>
        <time>2019-06-09T06:47:22.000Z</time>
      </trkpt>
      <trkpt lat="43.29378" lon="2.19758">
        <ele>212</ele>
        <time>2019-06-09T06:47:23.000Z</time>
      </trkpt>
      <trkpt lat="43.29377" lon="2.19756">
        <ele>211.8</ele>
        <time>2019-06-09T06:47:24.000Z</time>
      </trkpt>
      <trkpt lat="43.29375" lon="2.19754">
        <ele>211.7</ele>
        <time>2019-06-09T06:47:25.000Z</time>
      </trkpt>
      <trkpt lat="43.29373" lon="2.19753">
        <ele>211.6</ele>
        <time>2019-06-09T06:47:26.000Z</time>
      </trkpt>
      <trkpt lat="43.29371" lon="2.19751">
        <ele>211.5</ele>
        <time>2019-06-09T06:47:27.000Z</time>
      </trkpt>
      <trkpt lat="43.29369" lon="2.1975">
        <ele>211.4</ele>
        <time>2019-06-09T06:47:28.000Z</time>
      </trkpt>
      <trkpt lat="43.29367" lon="2.19749">
        <ele>211.5</ele>
        <time>2019-06-09T06:47:29.000Z</time>
      </trkpt>
      <trkpt lat="43.29366" lon="2.19748">
        <ele>211.5</ele>
        <time>2019-06-09T06:47:30.000Z</time>
      </trkpt>
      <trkpt lat="43.29364" lon="2.19747">
        <ele>211.5</ele>
        <time>2019-06-09T06:47:31.000Z</time>
      </trkpt>
      <trkpt lat="43.29362" lon="2.19746">
        <ele>211.6</ele>
        <time>2019-06-09T06:47:32.000Z</time>
      </trkpt>
      <trkpt lat="43.29361" lon="2.19745">
        <ele>211.6</ele>
        <time>2019-06-09T06:47:33.000Z</time>
      </trkpt>
      <trkpt lat="43.29359" lon="2.19744">
        <ele>211.7</ele>
        <time>2019-06-09T06:47:34.000Z</time>
      </trkpt>
      <trkpt lat="43.29358" lon="2.19743">
        <ele>211.8</ele>
        <time>2019-06-09T06:47:35.000Z</time>
      </trkpt>
      <trkpt lat="43.29356" lon="2.19742">
        <ele>211.9</ele>
        <time>2019-06-09T06:47:36.000Z</time>
      </trkpt>
      <trkpt lat="43.29355" lon="2.1974">
        <ele>212</ele>
        <time>2019-06-09T06:47:37.000Z</time>
      </trkpt>
      <trkpt lat="43.29354" lon="2.19738">
        <ele>212.1</ele>
        <time>2019-06-09T06:47:38.000Z</time>
      </trkpt>
      <trkpt lat="43.29352" lon="2.19737">
        <ele>212.3</ele>
        <time>2019-06-09T06:47:39.000Z</time>
      </trkpt>
      <trkpt lat="43.29351" lon="2.19735">
        <ele>212.4</ele>
        <time>2019-06-09T06:47:40.000Z</time>
      </trkpt>
      <trkpt lat="43.2935" lon="2.19734">
        <ele>212.5</ele>
        <time>2019-06-09T06:47:41.000Z</time>
      </trkpt>
      <trkpt lat="43.29348" lon="2.19732">
        <ele>212.7</ele>
        <time>2019-06-09T06:47:42.000Z</time>
      </trkpt>
      <trkpt lat="43.29348" lon="2.19731">
        <ele>212.8</ele>
        <time>2019-06-09T06:47:43.000Z</time>
      </trkpt>
      <trkpt lat="43.29347" lon="2.19729">
        <ele>213</ele>
        <time>2019-06-09T06:47:44.000Z</time>
      </trkpt>
      <trkpt lat="43.29346" lon="2.19727">
        <ele>213.2</ele>
        <time>2019-06-09T06:47:45.000Z</time>
      </trkpt>
      <trkpt lat="43.29346" lon="2.19724">
        <ele>213.4</ele>
        <time>2019-06-09T06:47:46.000Z</time>
      </trkpt>
      <trkpt lat="43.29346" lon="2.19722">
        <ele>213.6</ele>
        <time>2019-06-09T06:47:47.000Z</time>
      </trkpt>
      <trkpt lat="43.29347" lon="2.19719">
        <ele>213.8</ele>
        <time>2019-06-09T06:47:48.000Z</time>
      </trkpt>
      <trkpt lat="43.29347" lon="2.19717">
        <ele>214</ele>
        <time>2019-06-09T06:47:49.000Z</time>
      </trkpt>
      <trkpt lat="43.29348" lon="2.19714">
        <ele>214.3</ele>
        <time>2019-06-09T06:47:50.000Z</time>
      </trkpt>
      <trkpt lat="43.29348" lon="2.19711">
        <ele>214.5</ele>
        <time>2019-06-09T06:47:51.000Z</time>
      </trkpt>
      <trkpt lat="43.29349" lon="2.19708">
        <ele>214.7</ele>
        <time>2019-06-09T06:47:52.000Z</time>
      </trkpt>
      <trkpt lat="43.2935" lon="2.19705">
        <ele>214.9</ele>
        <time>2019-06-09T06:47:53.000Z</time>
      </trkpt>
      <trkpt lat="43.29351" lon="2.19702">
        <ele>215.1</ele>
        <time>2019-06-09T06:47:54.000Z</time>
      </trkpt>
      <trkpt lat="43.29352" lon="2.19699">
        <ele>215.2</ele>
        <time>2019-06-09T06:47:55.000Z</time>
      </trkpt>
      <trkpt lat="43.29353" lon="2.19695">
        <ele>215.4</ele>
        <time>2019-06-09T06:47:56.000Z</time>
      </trkpt>
      <trkpt lat="43.29354" lon="2.19692">
        <ele>215.6</ele>
        <time>2019-06-09T06:47:57.000Z</time>
      </trkpt>
      <trkpt lat="43.29355" lon="2.19689">
        <ele>215.7</ele>
        <time>2019-06-09T06:47:58.000Z</time>
      </trkpt>
      <trkpt lat="43.29356" lon="2.19686">
        <ele>215.9</ele>
        <time>2019-06-09T06:47:59.000Z</time>
      </trkpt>
      <trkpt lat="43.29357" lon="2.19683">
        <ele>216</ele>
        <time>2019-06-09T06:48:00.000Z</time>
      </trkpt>
      <trkpt lat="43.29358" lon="2.1968">
        <ele>216.1</ele>
        <time>2019-06-09T06:48:01.000Z</time>
      </trkpt>
      <trkpt lat="43.29359" lon="2.19677">
        <ele>216.2</ele>
        <time>2019-06-09T06:48:02.000Z</time>
      </trkpt>
      <trkpt lat="43.2936" lon="2.19674">
        <ele>216.3</ele>
        <time>2019-06-09T06:48:03.000Z</time>
      </trkpt>
      <trkpt lat="43.2936" lon="2.19672">
        <ele>216.4</ele>
        <time>2019-06-09T06:48:04.000Z</time>
      </trkpt>
      <trkpt lat="43.29361" lon="2.19669">
        <ele>216.5</ele>
        <time>2019-06-09T06:48:05.000Z</time>
      </trkpt>
      <trkpt lat="43.29362" lon="2.19666">
        <ele>216.6</ele>
        <time>2019-06-09T06:48:06.000Z</time>
      </trkpt>
      <trkpt lat="43.29362" lon="2.19664">
        <ele>216.6</ele>
        <time>2019-06-09T06:48:07.000Z</time>
      </trkpt>
      <trkpt lat="43.29363" lon="2.19661">
        <ele>216.6</ele>
        <time>2019-06-09T06:48:08.000Z</time>
      </trkpt>
      <trkpt lat="43.29363" lon="2.19658">
        <ele>216.6</ele>
        <time>2019-06-09T06:48:09.000Z</time>
      </trkpt>
      <trkpt lat="43.29364" lon="2.19656">
        <ele>216.6</ele>
        <time>2019-06-09T06:48:10.000Z</time>
      </trkpt>
      <trkpt lat="43.29364" lon="2.19654">
        <ele>216.7</ele>
        <time>2019-06-09T06:48:11.000Z</time>
      </trkpt>
      <trkpt lat="43.29365" lon="2.19651">
        <ele>216.7</ele>
        <time>2019-06-09T06:48:12.000Z</time>
      </trkpt>
      <trkpt lat="43.29365" lon="2.19649">
        <ele>216.7</ele>
        <time>2019-06-09T06:48:13.000Z</time>
      </trkpt>
      <trkpt lat="43.29366" lon="2.19646">
        <ele>216.7</ele>
        <time>2019-06-09T06:48:14.000Z</time>
      </trkpt>
      <trkpt lat="43.29366" lon="2.19644">
        <ele>216.7</ele>
        <time>2019-06-09T06:48:15.000Z</time>
      </trkpt>
      <trkpt lat="43.29367" lon="2.19642">
        <ele>216.7</ele>
        <time>2019-06-09T06:48:16.000Z</time>
      </trkpt>
      <trkpt lat="43.29367" lon="2.1964">
        <ele>216.7</ele>
        <time>2019-06-09T06:48:17.000Z</time>
      </trkpt>
      <trkpt lat="43.29368" lon="2.19638">
        <ele>216.7</ele>
        <time>2019-06-09T06:48:18.000Z</time>
      </trkpt>
      <trkpt lat="43.29368" lon="2.19635">
        <ele>216.7</ele>
        <time>2019-06-09T06:48:19.000Z</time>
      </trkpt>
      <trkpt lat="43.29369" lon="2.19633">
        <ele>216.7</ele>
        <time>2019-06-09T06:48:20.000Z</time>
      </trkpt>
      <trkpt lat="43.29369" lon="2.19631">
        <ele>216.7</ele>
        <time>2019-06-09T06:48:21.000Z</time>
      </trkpt>
      <trkpt lat="43.2937" lon="2.19629">
        <ele>216.7</ele>
        <time>2019-06-09T06:48:22.000Z</time>
      </trkpt>
      <trkpt lat="43.2937" lon="2.19627">
        <ele>216.7</ele>
        <time>2019-06-09T06:48:23.000Z</time>
      </trkpt>
      <trkpt lat="43.29371" lon="2.19625">
        <ele>216.7</ele>
        <time>2019-06-09T06:48:24.000Z</time>
      </trkpt>
      <trkpt lat="43.29371" lon="2.19623">
        <ele>216.7</ele>
        <time>2019-06-09T06:48:25.000Z</time>
      </trkpt>
      <trkpt lat="43.29372" lon="2.19621">
        <ele>216.7</ele>
        <time>2019-06-09T06:48:26.000Z</time>
      </trkpt>
      <trkpt lat="43.29372" lon="2.19619">
        <ele>216.8</ele>
        <time>2019-06-09T06:48:27.000Z</time>
      </trkpt>
      <trkpt lat="43.29373" lon="2.19617">
        <ele>216.8</ele>
        <time>2019-06-09T06:48:28.000Z</time>
      </trkpt>
      <trkpt lat="43.29373" lon="2.19615">
        <ele>216.8</ele>
        <time>2019-06-09T06:48:29.000Z</time>
      </trkpt>
      <trkpt lat="43.29374" lon="2.19613">
        <ele>216.8</ele>
        <time>2019-06-09T06:48:30.000Z</time>
      </trkpt>
      <trkpt lat="43.29374" lon="2.19611">
        <ele>216.8</ele>
        <time>2019-06-09T06:48:31.000Z</time>
      </trkpt>
      <trkpt lat="43.29374" lon="2.19609">
        <ele>216.8</ele>
        <time>2019-06-09T06:48:32.000Z</time>
      </trkpt>
      <trkpt lat="43.29375" lon="2.19607">
        <ele>216.8</ele>
        <time>2019-06-09T06:48:33.000Z</time>
      </trkpt>
      <trkpt lat="43.29375" lon="2.19605">
        <ele>216.9</ele>
        <time>2019-06-09T06:48:34.000Z</time>
      </trkpt>
      <trkpt lat="43.29375" lon="2.19602">
        <ele>216.9</ele>
        <time>2019-06-09T06:48:35.000Z</time>
      </trkpt>
      <trkpt lat="43.29376" lon="2.196">
        <ele>216.9</ele>
        <time>2019-06-09T06:48:36.000Z</time>
      </trkpt>
      <trkpt lat="43.29376" lon="2.19598">
        <ele>217</ele>
        <time>2019-06-09T06:48:37.000Z</time>
      </trkpt>
      <trkpt lat="43.29376" lon="2.19596">
        <ele>217</ele>
        <time>2019-06-09T06:48:38.000Z</time>
      </trkpt>
      <trkpt lat="43.29377" lon="2.19593">
        <ele>217</ele>
        <time>2019-06-09T06:48:39.000Z</time>
      </trkpt>
      <trkpt lat="43.29377" lon="2.19591">
        <ele>217</ele>
        <time>2019-06-09T06:48:40.000Z</time>
      </trkpt>
      <trkpt lat="43.29378" lon="2.19588">
        <ele>217.1</ele>
        <time>2019-06-09T06:48:41.000Z</time>
      </trkpt>
      <trkpt lat="43.29378" lon="2.19586">
        <ele>217.1</ele>
        <time>2019-06-09T06:48:42.000Z</time>
      </trkpt>
      <trkpt lat="43.29378" lon="2.19584">
        <ele>217.2</ele>
        <time>2019-06-09T06:48:43.000Z</time>
      </trkpt>
      <trkpt lat="43.29378" lon="2.19582">
        <ele>217.2</ele>
        <time>2019-06-09T06:48:44.000Z</time>
      </trkpt>
      <trkpt lat="43.29377" lon="2.1958">
        <ele>217.3</ele>
        <time>2019-06-09T06:48:45.000Z</time>
      </trkpt>
      <trkpt lat="43.29376" lon="2.19579">
        <ele>217.4</ele>
        <time>2019-06-09T06:48:46.000Z</time>
      </trkpt>
      <trkpt lat="43.29375" lon="2.19578">
        <ele>217.5</ele>
        <time>2019-06-09T06:48:47.000Z</time>
      </trkpt>
      <trkpt lat="43.29374" lon="2.19577">
        <ele>217.7</ele>
        <time>2019-06-09T06:48:48.000Z</time>
      </trkpt>
      <trkpt lat="43.29373" lon="2.19577">
        <ele>217.8</ele>
        <time>2019-06-09T06:48:49.000Z</time>
      </trkpt>
      <trkpt lat="43.29371" lon="2.19577">
        <ele>218</ele>
        <time>2019-06-09T06:48:50.000Z</time>
      </trkpt>
      <trkpt lat="43.2937" lon="2.19577">
        <ele>218.1</ele>
        <time>2019-06-09T06:48:51.000Z</time>
      </trkpt>
      <trkpt lat="43.29368" lon="2.19577">
        <ele>218.3</ele>
        <time>2019-06-09T06:48:52.000Z</time>
      </trkpt>
      <trkpt lat="43.29367" lon="2.19577">
        <ele>218.4</ele>
        <time>2019-06-09T06:48:53.000Z</time>
      </trkpt>
      <trkpt lat="43.29365" lon="2.19577">
        <ele>218.6</ele>
        <time>2019-06-09T06:48:54.000Z</time>
      </trkpt>
      <trkpt lat="43.29364" lon="2.19577">
        <ele>218.7</ele>
        <time>2019-06-09T06:48:55.000Z</time>
      </trkpt>
      <trkpt lat="43.29363" lon="2.19578">
        <ele>218.9</ele>
        <time>2019-06-09T06:48:56.000Z</time>
      </trkpt>
      <trkpt lat="43.29361" lon="2.19578">
        <ele>219</ele>
        <time>2019-06-09T06:48:57.000Z</time>
      </trkpt>
      <trkpt lat="43.29359" lon="2.19578">
        <ele>219.2</ele>
        <time>2019-06-09T06:48:58.000Z</time>
      </trkpt>
      <trkpt lat="43.29358" lon="2.19579">
        <ele>219.4</ele>
        <time>2019-06-09T06:48:59.000Z</time>
      </trkpt>
      <trkpt lat="43.29355" lon="2.19579">
        <ele>219.6</ele>
        <time>2019-06-09T06:49:00.000Z</time>
      </trkpt>
      <trkpt lat="43.29353" lon="2.19579">
        <ele>219.8</ele>
        <time>2019-06-09T06:49:01.000Z</time>
      </trkpt>
      <trkpt lat="43.29351" lon="2.19579">
        <ele>220.1</ele>
        <time>2019-06-09T06:49:02.000Z</time>
      </trkpt>
      <trkpt lat="43.29348" lon="2.1958">
        <ele>220.3</ele>
        <time>2019-06-09T06:49:03.000Z</time>
      </trkpt>
      <trkpt lat="43.29346" lon="2.19579">
        <ele>220.6</ele>
        <time>2019-06-09T06:49:04.000Z</time>
      </trkpt>
      <trkpt lat="43.29345" lon="2.19579">
        <ele>220.7</ele>
        <time>2019-06-09T06:49:05.000Z</time>
      </trkpt>
      <trkpt lat="43.29344" lon="2.19578">
        <ele>220.8</ele>
        <time>2019-06-09T06:49:06.000Z</time>
      </trkpt>
      <trkpt lat="43.29343" lon="2.19577">
        <ele>220.9</ele>
        <time>2019-06-09T06:49:07.000Z</time>
      </trkpt>
      <trkpt lat="43.29342" lon="2.19576">
        <ele>220.9</ele>
        <time>2019-06-09T06:49:08.000Z</time>
      </trkpt>
      <trkpt lat="43.29342" lon="2.19575">
        <ele>221</ele>
        <time>2019-06-09T06:49:09.000Z</time>
      </trkpt>
      <trkpt lat="43.29341" lon="2.19574">
        <ele>221</ele>
        <time>2019-06-09T06:49:10.000Z</time>
      </trkpt>
      <trkpt lat="43.29341" lon="2.19572">
        <ele>221</ele>
        <time>2019-06-09T06:49:11.000Z</time>
      </trkpt>
      <trkpt lat="43.2934" lon="2.19571">
        <ele>221.1</ele>
        <time>2019-06-09T06:49:12.000Z</time>
      </trkpt>
      <trkpt lat="43.29339" lon="2.1957">
        <ele>221.1</ele>
        <time>2019-06-09T06:49:13.000Z</time>
      </trkpt>
      <trkpt lat="43.29339" lon="2.19569">
        <ele>221.1</ele>
        <time>2019-06-09T06:49:14.000Z</time>
      </trkpt>
      <trkpt lat="43.29338" lon="2.19567">
        <ele>221.2</ele>
        <time>2019-06-09T06:49:15.000Z</time>
      </trkpt>
      <trkpt lat="43.29338" lon="2.19566">
        <ele>221.2</ele>
        <time>2019-06-09T06:49:16.000Z</time>
      </trkpt>
      <trkpt lat="43.29337" lon="2.19565">
        <ele>221.2</ele>
        <time>2019-06-09T06:49:17.000Z</time>
      </trkpt>
      <trkpt lat="43.29336" lon="2.19563">
        <ele>221.3</ele>
        <time>2019-06-09T06:49:18.000Z</time>
      </trkpt>
      <trkpt lat="43.29336" lon="2.19562">
        <ele>221.3</ele>
        <time>2019-06-09T06:49:19.000Z</time>
      </trkpt>
      <trkpt lat="43.29335" lon="2.1956">
        <ele>221.3</ele>
        <time>2019-06-09T06:49:20.000Z</time>
      </trkpt>
      <trkpt lat="43.29334" lon="2.19559">
        <ele>221.3</ele>
        <time>2019-06-09T06:49:21.000Z</time>
      </trkpt>
      <trkpt lat="43.29333" lon="2.19558">
        <ele>221.4</ele>
        <time>2019-06-09T06:49:22.000Z</time>
      </trkpt>
      <trkpt lat="43.29333" lon="2.19556">
        <ele>221.4</ele>
        <time>2019-06-09T06:49:23.000Z</time>
      </trkpt>
      <trkpt lat="43.29332" lon="2.19555">
        <ele>221.3</ele>
        <time>2019-06-09T06:49:24.000Z</time>
      </trkpt>
      <trkpt lat="43.29331" lon="2.19554">
        <ele>221.3</ele>
        <time>2019-06-09T06:49:25.000Z</time>
      </trkpt>
      <trkpt lat="43.29331" lon="2.19552">
        <ele>221.3</ele>
        <time>2019-06-09T06:49:26.000Z</time>
      </trkpt>
      <trkpt lat="43.2933" lon="2.19551">
        <ele>221.3</ele>
        <time>2019-06-09T06:49:27.000Z</time>
      </trkpt>
      <trkpt lat="43.29329" lon="2.19549">
        <ele>221.3</ele>
        <time>2019-06-09T06:49:28.000Z</time>
      </trkpt>
      <trkpt lat="43.29328" lon="2.19548">
        <ele>221.2</ele>
        <time>2019-06-09T06:49:29.000Z</time>
      </trkpt>
      <trkpt lat="43.29328" lon="2.19547">
        <ele>221.2</ele>
        <time>2019-06-09T06:49:30.000Z</time>
      </trkpt>
      <trkpt lat="43.29327" lon="2.19545">
        <ele>221.2</ele>
        <time>2019-06-09T06:49:31.000Z</time>
      </trkpt>
      <trkpt lat="43.29326" lon="2.19544">
        <ele>221.2</ele>
        <time>2019-06-09T06:49:32.000Z</time>
      </trkpt>
      <trkpt lat="43.29325" lon="2.19543">
        <ele>221.2</ele>
        <time>2019-06-09T06:49:33.000Z</time>
      </trkpt>
      <trkpt lat="43.29325" lon="2.19541">
        <ele>221.1</ele>
        <time>2019-06-09T06:49:34.000Z</time>
      </trkpt>
      <trkpt lat="43.29324" lon="2.1954">
        <ele>221.1</ele>
        <time>2019-06-09T06:49:35.000Z</time>
      </trkpt>
      <trkpt lat="43.29323" lon="2.19539">
        <ele>221.1</ele>
        <time>2019-06-09T06:49:36.000Z</time>
      </trkpt>
      <trkpt lat="43.29323" lon="2.19538">
        <ele>221.1</ele>
        <time>2019-06-09T06:49:37.000Z</time>
      </trkpt>
      <trkpt lat="43.29322" lon="2.19538">
        <ele>221.1</ele>
        <time>2019-06-09T06:49:38.000Z</time>
      </trkpt>
      <trkpt lat="43.29321" lon="2.19537">
        <ele>221.1</ele>
        <time>2019-06-09T06:49:39.000Z</time>
      </trkpt>
      <trkpt lat="43.29321" lon="2.19536">
        <ele>221.1</ele>
        <time>2019-06-09T06:49:40.000Z</time>
      </trkpt>
      <trkpt lat="43.29321" lon="2.19536">
        <ele>221.1</ele>
        <time>2019-06-09T06:49:41.000Z</time>
      </trkpt>
      <trkpt lat="43.29321" lon="2.19535">
        <ele>221.1</ele>
        <time>2019-06-09T06:49:42.000Z</time>
      </trkpt>
      <trkpt lat="43.29321" lon="2.19534">
        <ele>221</ele>
        <time>2019-06-09T06:49:43.000Z</time>
      </trkpt>
      <trkpt lat="43.29322" lon="2.19533">
        <ele>221</ele>
        <time>2019-06-09T06:49:44.000Z</time>
      </trkpt>
      <trkpt lat="43.29323" lon="2.19532">
        <ele>221</ele>
        <time>2019-06-09T06:49:45.000Z</time>
      </trkpt>
      <trkpt lat="43.29324" lon="2.19531">
        <ele>220.9</ele>
        <time>2019-06-09T06:49:46.000Z</time>
      </trkpt>
      <trkpt lat="43.29325" lon="2.1953">
        <ele>220.9</ele>
        <time>2019-06-09T06:49:47.000Z</time>
      </trkpt>
      <trkpt lat="43.29326" lon="2.19529">
        <ele>220.8</ele>
        <time>2019-06-09T06:49:48.000Z</time>
      </trkpt>
      <trkpt lat="43.29328" lon="2.19528">
        <ele>220.8</ele>
        <time>2019-06-09T06:49:49.000Z</time>
      </trkpt>
      <trkpt lat="43.29329" lon="2.19527">
        <ele>220.7</ele>
        <time>2019-06-09T06:49:50.000Z</time>
      </trkpt>
      <trkpt lat="43.29331" lon="2.19526">
        <ele>220.7</ele>
        <time>2019-06-09T06:49:51.000Z</time>
      </trkpt>
      <trkpt lat="43.29333" lon="2.19525">
        <ele>220.6</ele>
        <time>2019-06-09T06:49:52.000Z</time>
      </trkpt>
      <trkpt lat="43.29335" lon="2.19524">
        <ele>220.5</ele>
        <time>2019-06-09T06:49:53.000Z</time>
      </trkpt>
      <trkpt lat="43.29336" lon="2.19523">
        <ele>220.4</ele>
        <time>2019-06-09T06:49:54.000Z</time>
      </trkpt>
      <trkpt lat="43.29338" lon="2.19521">
        <ele>220.2</ele>
        <time>2019-06-09T06:49:55.000Z</time>
      </trkpt>
      <trkpt lat="43.2934" lon="2.1952">
        <ele>220.1</ele>
        <time>2019-06-09T06:49:56.000Z</time>
      </trkpt>
      <trkpt lat="43.29342" lon="2.19519">
        <ele>220</ele>
        <time>2019-06-09T06:49:57.000Z</time>
      </trkpt>
      <trkpt lat="43.29344" lon="2.19517">
        <ele>219.9</ele>
        <time>2019-06-09T06:49:58.000Z</time>
      </trkpt>
      <trkpt lat="43.29346" lon="2.19516">
        <ele>219.8</ele>
        <time>2019-06-09T06:49:59.000Z</time>
      </trkpt>
      <trkpt lat="43.29348" lon="2.19514">
        <ele>219.6</ele>
        <time>2019-06-09T06:50:00.000Z</time>
      </trkpt>
      <trkpt lat="43.2935" lon="2.19513">
        <ele>219.5</ele>
        <time>2019-06-09T06:50:01.000Z</time>
      </trkpt>
      <trkpt lat="43.29352" lon="2.19511">
        <ele>219.4</ele>
        <time>2019-06-09T06:50:02.000Z</time>
      </trkpt>
      <trkpt lat="43.29354" lon="2.19509">
        <ele>219.3</ele>
        <time>2019-06-09T06:50:03.000Z</time>
      </trkpt>
      <trkpt lat="43.29356" lon="2.19508">
        <ele>219.2</ele>
        <time>2019-06-09T06:50:04.000Z</time>
      </trkpt>
      <trkpt lat="43.29358" lon="2.19506">
        <ele>219.1</ele>
        <time>2019-06-09T06:50:05.000Z</time>
      </trkpt>
      <trkpt lat="43.2936" lon="2.19504">
        <ele>219.1</ele>
        <time>2019-06-09T06:50:06.000Z</time>
      </trkpt>
      <trkpt lat="43.29362" lon="2.19503">
        <ele>219</ele>
        <time>2019-06-09T06:50:07.000Z</time>
      </trkpt>
      <trkpt lat="43.29364" lon="2.19501">
        <ele>218.9</ele>
        <time>2019-06-09T06:50:08.000Z</time>
      </trkpt>
      <trkpt lat="43.29366" lon="2.19499">
        <ele>218.8</ele>
        <time>2019-06-09T06:50:09.000Z</time>
      </trkpt>
      <trkpt lat="43.29368" lon="2.19498">
        <ele>218.8</ele>
        <time>2019-06-09T06:50:10.000Z</time>
      </trkpt>
      <trkpt lat="43.2937" lon="2.19496">
        <ele>218.7</ele>
        <time>2019-06-09T06:50:11.000Z</time>
      </trkpt>
      <trkpt lat="43.29372" lon="2.19494">
        <ele>218.7</ele>
        <time>2019-06-09T06:50:12.000Z</time>
      </trkpt>
      <trkpt lat="43.29374" lon="2.19492">
        <ele>218.6</ele>
        <time>2019-06-09T06:50:13.000Z</time>
      </trkpt>
      <trkpt lat="43.29375" lon="2.19491">
        <ele>218.5</ele>
        <time>2019-06-09T06:50:14.000Z</time>
      </trkpt>
      <trkpt lat="43.29377" lon="2.19489">
        <ele>218.5</ele>
        <time>2019-06-09T06:50:15.000Z</time>
      </trkpt>
      <trkpt lat="43.29379" lon="2.19487">
        <ele>218.5</ele>
        <time>2019-06-09T06:50:16.000Z</time>
      </trkpt>
      <trkpt lat="43.29381" lon="2.19485">
        <ele>218.4</ele>
        <time>2019-06-09T06:50:17.000Z</time>
      </trkpt>
      <trkpt lat="43.29383" lon="2.19484">
        <ele>218.4</ele>
        <time>2019-06-09T06:50:18.000Z</time>
      </trkpt>
      <trkpt lat="43.29385" lon="2.19482">
        <ele>218.3</ele>
        <time>2019-06-09T06:50:19.000Z</time>
      </trkpt>
      <trkpt lat="43.29386" lon="2.1948">
        <ele>218.3</ele>
        <time>2019-06-09T06:50:20.000Z</time>
      </trkpt>
      <trkpt lat="43.29388" lon="2.19479">
        <ele>218.3</ele>
        <time>2019-06-09T06:50:21.000Z</time>
      </trkpt>
      <trkpt lat="43.2939" lon="2.19477">
        <ele>218.3</ele>
        <time>2019-06-09T06:50:22.000Z</time>
      </trkpt>
      <trkpt lat="43.29391" lon="2.19475">
        <ele>218.2</ele>
        <time>2019-06-09T06:50:23.000Z</time>
      </trkpt>
      <trkpt lat="43.29393" lon="2.19473">
        <ele>218.2</ele>
        <time>2019-06-09T06:50:24.000Z</time>
      </trkpt>
      <trkpt lat="43.29395" lon="2.19472">
        <ele>218.2</ele>
        <time>2019-06-09T06:50:25.000Z</time>
      </trkpt>
      <trkpt lat="43.29396" lon="2.1947">
        <ele>218.2</ele>
        <time>2019-06-09T06:50:26.000Z</time>
      </trkpt>
      <trkpt lat="43.29398" lon="2.19468">
        <ele>218.2</ele>
        <time>2019-06-09T06:50:27.000Z</time>
      </trkpt>
      <trkpt lat="43.294" lon="2.19467">
        <ele>218.2</ele>
        <time>2019-06-09T06:50:28.000Z</time>
      </trkpt>
      <trkpt lat="43.29401" lon="2.19465">
        <ele>218.2</ele>
        <time>2019-06-09T06:50:29.000Z</time>
      </trkpt>
      <trkpt lat="43.29403" lon="2.19463">
        <ele>218.2</ele>
        <time>2019-06-09T06:50:30.000Z</time>
      </trkpt>
      <trkpt lat="43.29404" lon="2.19461">
        <ele>218.2</ele>
        <time>2019-06-09T06:50:31.000Z</time>
      </trkpt>
      <trkpt lat="43.29406" lon="2.19459">
        <ele>218.2</ele>
        <time>2019-06-09T06:50:32.000Z</time>
      </trkpt>
      <trkpt lat="43.29408" lon="2.19457">
        <ele>218.2</ele>
        <time>2019-06-09T06:50:33.000Z</time>
      </trkpt>
      <trkpt lat="43.29409" lon="2.19455">
        <ele>218.2</ele>
        <time>2019-06-09T06:50:34.000Z</time>
      </trkpt>
      <trkpt lat="43.29411" lon="2.19454">
        <ele>218.2</ele>
        <time>2019-06-09T06:50:35.000Z</time>
      </trkpt>
      <trkpt lat="43.29412" lon="2.19452">
        <ele>218.2</ele>
        <time>2019-06-09T06:50:36.000Z</time>
      </trkpt>
      <trkpt lat="43.29414" lon="2.19449">
        <ele>218.3</ele>
        <time>2019-06-09T06:50:37.000Z</time>
      </trkpt>
      <trkpt lat="43.29416" lon="2.19447">
        <ele>218.3</ele>
        <time>2019-06-09T06:50:38.000Z</time>
      </trkpt>
      <trkpt lat="43.29417" lon="2.19445">
        <ele>218.3</ele>
        <time>2019-06-09T06:50:39.000Z</time>
      </trkpt>
      <trkpt lat="43.29419" lon="2.19443">
        <ele>218.4</ele>
        <time>2019-06-09T06:50:40.000Z</time>
      </trkpt>
      <trkpt lat="43.29421" lon="2.19441">
        <ele>218.4</ele>
        <time>2019-06-09T06:50:41.000Z</time>
      </trkpt>
      <trkpt lat="43.29423" lon="2.19438">
        <ele>218.5</ele>
        <time>2019-06-09T06:50:42.000Z</time>
      </trkpt>
      <trkpt lat="43.29424" lon="2.19436">
        <ele>218.5</ele>
        <time>2019-06-09T06:50:43.000Z</time>
      </trkpt>
      <trkpt lat="43.29427" lon="2.19433">
        <ele>218.6</ele>
        <time>2019-06-09T06:50:44.000Z</time>
      </trkpt>
      <trkpt lat="43.29429" lon="2.1943">
        <ele>218.7</ele>
        <time>2019-06-09T06:50:45.000Z</time>
      </trkpt>
      <trkpt lat="43.29431" lon="2.19427">
        <ele>218.7</ele>
        <time>2019-06-09T06:50:46.000Z</time>
      </trkpt>
      <trkpt lat="43.29433" lon="2.19425">
        <ele>218.8</ele>
        <time>2019-06-09T06:50:47.000Z</time>
      </trkpt>
      <trkpt lat="43.29435" lon="2.19422">
        <ele>218.9</ele>
        <time>2019-06-09T06:50:48.000Z</time>
      </trkpt>
      <trkpt lat="43.29437" lon="2.19419">
        <ele>218.9</ele>
        <time>2019-06-09T06:50:49.000Z</time>
      </trkpt>
      <trkpt lat="43.29439" lon="2.19417">
        <ele>219</ele>
        <time>2019-06-09T06:50:50.000Z</time>
      </trkpt>
      <trkpt lat="43.2944" lon="2.19414">
        <ele>219</ele>
        <time>2019-06-09T06:50:51.000Z</time>
      </trkpt>
      <trkpt lat="43.29441" lon="2.19412">
        <ele>219</ele>
        <time>2019-06-09T06:50:52.000Z</time>
      </trkpt>
      <trkpt lat="43.29443" lon="2.19411">
        <ele>219</ele>
        <time>2019-06-09T06:50:53.000Z</time>
      </trkpt>
      <trkpt lat="43.29444" lon="2.19409">
        <ele>219.1</ele>
        <time>2019-06-09T06:50:54.000Z</time>
      </trkpt>
      <trkpt lat="43.29446" lon="2.19407">
        <ele>219.1</ele>
        <time>2019-06-09T06:50:55.000Z</time>
      </trkpt>
      <trkpt lat="43.29447" lon="2.19406">
        <ele>219.1</ele>
        <time>2019-06-09T06:50:56.000Z</time>
      </trkpt>
      <trkpt lat="43.29449" lon="2.19404">
        <ele>219.1</ele>
        <time>2019-06-09T06:50:57.000Z</time>
      </trkpt>
      <trkpt lat="43.2945" lon="2.19403">
        <ele>219.1</ele>
        <time>2019-06-09T06:50:58.000Z</time>
      </trkpt>
      <trkpt lat="43.29451" lon="2.19401">
        <ele>219.2</ele>
        <time>2019-06-09T06:50:59.000Z</time>
      </trkpt>
      <trkpt lat="43.29453" lon="2.19399">
        <ele>219.2</ele>
        <time>2019-06-09T06:51:00.000Z</time>
      </trkpt>
      <trkpt lat="43.29454" lon="2.19397">
        <ele>219.2</ele>
        <time>2019-06-09T06:51:01.000Z</time>
      </trkpt>
      <trkpt lat="43.29456" lon="2.19395">
        <ele>219.2</ele>
        <time>2019-06-09T06:51:02.000Z</time>
      </trkpt>
      <trkpt lat="43.29457" lon="2.19393">
        <ele>219.3</ele>
        <time>2019-06-09T06:51:03.000Z</time>
      </trkpt>
      <trkpt lat="43.29458" lon="2.19391">
        <ele>219.3</ele>
        <time>2019-06-09T06:51:04.000Z</time>
      </trkpt>
      <trkpt lat="43.2946" lon="2.19389">
        <ele>219.3</ele>
        <time>2019-06-09T06:51:05.000Z</time>
      </trkpt>
      <trkpt lat="43.29461" lon="2.19387">
        <ele>219.4</ele>
        <time>2019-06-09T06:51:06.000Z</time>
      </trkpt>
      <trkpt lat="43.29463" lon="2.19385">
        <ele>219.4</ele>
        <time>2019-06-09T06:51:07.000Z</time>
      </trkpt>
      <trkpt lat="43.29465" lon="2.19383">
        <ele>219.5</ele>
        <time>2019-06-09T06:51:08.000Z</time>
      </trkpt>
      <trkpt lat="43.29467" lon="2.19381">
        <ele>219.5</ele>
        <time>2019-06-09T06:51:09.000Z</time>
      </trkpt>
      <trkpt lat="43.29469" lon="2.1938">
        <ele>219.6</ele>
        <time>2019-06-09T06:51:10.000Z</time>
      </trkpt>
      <trkpt lat="43.29471" lon="2.19378">
        <ele>219.6</ele>
        <time>2019-06-09T06:51:11.000Z</time>
      </trkpt>
      <trkpt lat="43.29473" lon="2.19377">
        <ele>219.6</ele>
        <time>2019-06-09T06:51:12.000Z</time>
      </trkpt>
      <trkpt lat="43.29475" lon="2.19375">
        <ele>219.7</ele>
        <time>2019-06-09T06:51:13.000Z</time>
      </trkpt>
      <trkpt lat="43.29477" lon="2.19374">
        <ele>219.8</ele>
        <time>2019-06-09T06:51:14.000Z</time>
      </trkpt>
      <trkpt lat="43.2948" lon="2.19372">
        <ele>219.8</ele>
        <time>2019-06-09T06:51:15.000Z</time>
      </trkpt>
      <trkpt lat="43.29482" lon="2.1937">
        <ele>219.9</ele>
        <time>2019-06-09T06:51:16.000Z</time>
      </trkpt>
      <trkpt lat="43.29484" lon="2.19367">
        <ele>220</ele>
        <time>2019-06-09T06:51:17.000Z</time>
      </trkpt>
      <trkpt lat="43.29487" lon="2.19365">
        <ele>220</ele>
        <time>2019-06-09T06:51:18.000Z</time>
      </trkpt>
      <trkpt lat="43.29489" lon="2.19363">
        <ele>220.1</ele>
        <time>2019-06-09T06:51:19.000Z</time>
      </trkpt>
      <trkpt lat="43.29491" lon="2.19362">
        <ele>220.2</ele>
        <time>2019-06-09T06:51:20.000Z</time>
      </trkpt>
      <trkpt lat="43.29494" lon="2.1936">
        <ele>220.3</ele>
        <time>2019-06-09T06:51:21.000Z</time>
      </trkpt>
      <trkpt lat="43.29496" lon="2.19358">
        <ele>220.3</ele>
        <time>2019-06-09T06:51:22.000Z</time>
      </trkpt>
      <trkpt lat="43.29498" lon="2.19357">
        <ele>220.4</ele>
        <time>2019-06-09T06:51:23.000Z</time>
      </trkpt>
      <trkpt lat="43.295" lon="2.19355">
        <ele>220.5</ele>
        <time>2019-06-09T06:51:24.000Z</time>
      </trkpt>
      <trkpt lat="43.29503" lon="2.19354">
        <ele>220.5</ele>
        <time>2019-06-09T06:51:25.000Z</time>
      </trkpt>
      <trkpt lat="43.29505" lon="2.19352">
        <ele>220.5</ele>
        <time>2019-06-09T06:51:26.000Z</time>
      </trkpt>
      <trkpt lat="43.29507" lon="2.19351">
        <ele>220.6</ele>
        <time>2019-06-09T06:51:27.000Z</time>
      </trkpt>
      <trkpt lat="43.29509" lon="2.19349">
        <ele>220.6</ele>
        <time>2019-06-09T06:51:28.000Z</time>
      </trkpt>
      <trkpt lat="43.29511" lon="2.19348">
        <ele>220.7</ele>
        <time>2019-06-09T06:51:29.000Z</time>
      </trkpt>
      <trkpt lat="43.29514" lon="2.19346">
        <ele>220.7</ele>
        <time>2019-06-09T06:51:30.000Z</time>
      </trkpt>
      <trkpt lat="43.29516" lon="2.19345">
        <ele>220.7</ele>
        <time>2019-06-09T06:51:31.000Z</time>
      </trkpt>
      <trkpt lat="43.29518" lon="2.19343">
        <ele>220.8</ele>
        <time>2019-06-09T06:51:32.000Z</time>
      </trkpt>
      <trkpt lat="43.2952" lon="2.19342">
        <ele>220.8</ele>
        <time>2019-06-09T06:51:33.000Z</time>
      </trkpt>
      <trkpt lat="43.29522" lon="2.1934">
        <ele>220.8</ele>
        <time>2019-06-09T06:51:34.000Z</time>
      </trkpt>
      <trkpt lat="43.29523" lon="2.19338">
        <ele>220.9</ele>
        <time>2019-06-09T06:51:35.000Z</time>
      </trkpt>
      <trkpt lat="43.29525" lon="2.19336">
        <ele>220.9</ele>
        <time>2019-06-09T06:51:36.000Z</time>
      </trkpt>
      <trkpt lat="43.29527" lon="2.19334">
        <ele>221</ele>
        <time>2019-06-09T06:51:37.000Z</time>
      </trkpt>
      <trkpt lat="43.29529" lon="2.19333">
        <ele>221</ele>
        <time>2019-06-09T06:51:38.000Z</time>
      </trkpt>
      <trkpt lat="43.2953" lon="2.19331">
        <ele>221</ele>
        <time>2019-06-09T06:51:39.000Z</time>
      </trkpt>
      <trkpt lat="43.29532" lon="2.19329">
        <ele>221.1</ele>
        <time>2019-06-09T06:51:40.000Z</time>
      </trkpt>
      <trkpt lat="43.29534" lon="2.19327">
        <ele>221.1</ele>
        <time>2019-06-09T06:51:41.000Z</time>
      </trkpt>
      <trkpt lat="43.29536" lon="2.19326">
        <ele>221.1</ele>
        <time>2019-06-09T06:51:42.000Z</time>
      </trkpt>
      <trkpt lat="43.29538" lon="2.19324">
        <ele>221.1</ele>
        <time>2019-06-09T06:51:43.000Z</time>
      </trkpt>
      <trkpt lat="43.2954" lon="2.19323">
        <ele>221.2</ele>
        <time>2019-06-09T06:51:44.000Z</time>
      </trkpt>
      <trkpt lat="43.29542" lon="2.19321">
        <ele>221.2</ele>
        <time>2019-06-09T06:51:45.000Z</time>
      </trkpt>
      <trkpt lat="43.29544" lon="2.1932">
        <ele>221.3</ele>
        <time>2019-06-09T06:51:46.000Z</time>
      </trkpt>
      <trkpt lat="43.29546" lon="2.19319">
        <ele>221.3</ele>
        <time>2019-06-09T06:51:47.000Z</time>
      </trkpt>
      <trkpt lat="43.29548" lon="2.19317">
        <ele>221.3</ele>
        <time>2019-06-09T06:51:48.000Z</time>
      </trkpt>
      <trkpt lat="43.2955" lon="2.19316">
        <ele>221.4</ele>
        <time>2019-06-09T06:51:49.000Z</time>
      </trkpt>
      <trkpt lat="43.29551" lon="2.19314">
        <ele>221.4</ele>
        <time>2019-06-09T06:51:50.000Z</time>
      </trkpt>
      <trkpt lat="43.29553" lon="2.19312">
        <ele>221.5</ele>
        <time>2019-06-09T06:51:51.000Z</time>
      </trkpt>
      <trkpt lat="43.29555" lon="2.19311">
        <ele>221.5</ele>
        <time>2019-06-09T06:51:52.000Z</time>
      </trkpt>
      <trkpt lat="43.29557" lon="2.19309">
        <ele>221.6</ele>
        <time>2019-06-09T06:51:53.000Z</time>
      </trkpt>
      <trkpt lat="43.29559" lon="2.19307">
        <ele>221.7</ele>
        <time>2019-06-09T06:51:54.000Z</time>
      </trkpt>
      <trkpt lat="43.29561" lon="2.19306">
        <ele>221.7</ele>
        <time>2019-06-09T06:51:55.000Z</time>
      </trkpt>
      <trkpt lat="43.29562" lon="2.19304">
        <ele>221.8</ele>
        <time>2019-06-09T06:51:56.000Z</time>
      </trkpt>
      <trkpt lat="43.29564" lon="2.19302">
        <ele>221.9</ele>
        <time>2019-06-09T06:51:57.000Z</time>
      </trkpt>
      <trkpt lat="43.29566" lon="2.19301">
        <ele>221.9</ele>
        <time>2019-06-09T06:51:58.000Z</time>
      </trkpt>
      <trkpt lat="43.29568" lon="2.19299">
        <ele>222</ele>
        <time>2019-06-09T06:51:59.000Z</time>
      </trkpt>
      <trkpt lat="43.2957" lon="2.19297">
        <ele>222.1</ele>
        <time>2019-06-09T06:52:00.000Z</time>
      </trkpt>
      <trkpt lat="43.29572" lon="2.19295">
        <ele>222.2</ele>
        <time>2019-06-09T06:52:01.000Z</time>
      </trkpt>
      <trkpt lat="43.29574" lon="2.19294">
        <ele>222.3</ele>
        <time>2019-06-09T06:52:02.000Z</time>
      </trkpt>
      <trkpt lat="43.29576" lon="2.19292">
        <ele>222.4</ele>
        <time>2019-06-09T06:52:03.000Z</time>
      </trkpt>
      <trkpt lat="43.29578" lon="2.1929">
        <ele>222.4</ele>
        <time>2019-06-09T06:52:04.000Z</time>
      </trkpt>
      <trkpt lat="43.29579" lon="2.19289">
        <ele>222.5</ele>
        <time>2019-06-09T06:52:05.000Z</time>
      </trkpt>
      <trkpt lat="43.29581" lon="2.19287">
        <ele>222.6</ele>
        <time>2019-06-09T06:52:06.000Z</time>
      </trkpt>
      <trkpt lat="43.29583" lon="2.19285">
        <ele>222.7</ele>
        <time>2019-06-09T06:52:07.000Z</time>
      </trkpt>
      <trkpt lat="43.29585" lon="2.19284">
        <ele>222.8</ele>
        <time>2019-06-09T06:52:08.000Z</time>
      </trkpt>
      <trkpt lat="43.29587" lon="2.19282">
        <ele>222.9</ele>
        <time>2019-06-09T06:52:09.000Z</time>
      </trkpt>
      <trkpt lat="43.29588" lon="2.1928">
        <ele>223</ele>
        <time>2019-06-09T06:52:10.000Z</time>
      </trkpt>
      <trkpt lat="43.2959" lon="2.19279">
        <ele>223.1</ele>
        <time>2019-06-09T06:52:11.000Z</time>
      </trkpt>
      <trkpt lat="43.29592" lon="2.19277">
        <ele>223.3</ele>
        <time>2019-06-09T06:52:12.000Z</time>
      </trkpt>
      <trkpt lat="43.29593" lon="2.19276">
        <ele>223.4</ele>
        <time>2019-06-09T06:52:13.000Z</time>
      </trkpt>
      <trkpt lat="43.29595" lon="2.19274">
        <ele>223.5</ele>
        <time>2019-06-09T06:52:14.000Z</time>
      </trkpt>
      <trkpt lat="43.29597" lon="2.19272">
        <ele>223.6</ele>
        <time>2019-06-09T06:52:15.000Z</time>
      </trkpt>
      <trkpt lat="43.29598" lon="2.19271">
        <ele>223.7</ele>
        <time>2019-06-09T06:52:16.000Z</time>
      </trkpt>
      <trkpt lat="43.296" lon="2.19269">
        <ele>223.8</ele>
        <time>2019-06-09T06:52:17.000Z</time>
      </trkpt>
      <trkpt lat="43.29602" lon="2.19268">
        <ele>223.9</ele>
        <time>2019-06-09T06:52:18.000Z</time>
      </trkpt>
      <trkpt lat="43.29603" lon="2.19266">
        <ele>224</ele>
        <time>2019-06-09T06:52:19.000Z</time>
      </trkpt>
      <trkpt lat="43.29605" lon="2.19264">
        <ele>224.2</ele>
        <time>2019-06-09T06:52:20.000Z</time>
      </trkpt>
      <trkpt lat="43.29607" lon="2.19263">
        <ele>224.3</ele>
        <time>2019-06-09T06:52:21.000Z</time>
      </trkpt>
      <trkpt lat="43.29608" lon="2.19261">
        <ele>224.4</ele>
        <time>2019-06-09T06:52:22.000Z</time>
      </trkpt>
      <trkpt lat="43.2961" lon="2.1926">
        <ele>224.5</ele>
        <time>2019-06-09T06:52:23.000Z</time>
      </trkpt>
      <trkpt lat="43.29611" lon="2.19258">
        <ele>224.7</ele>
        <time>2019-06-09T06:52:24.000Z</time>
      </trkpt>
      <trkpt lat="43.29613" lon="2.19256">
        <ele>224.8</ele>
        <time>2019-06-09T06:52:25.000Z</time>
      </trkpt>
      <trkpt lat="43.29615" lon="2.19255">
        <ele>224.9</ele>
        <time>2019-06-09T06:52:26.000Z</time>
      </trkpt>
      <trkpt lat="43.29616" lon="2.19253">
        <ele>225.1</ele>
        <time>2019-06-09T06:52:27.000Z</time>
      </trkpt>
      <trkpt lat="43.29618" lon="2.19251">
        <ele>225.2</ele>
        <time>2019-06-09T06:52:28.000Z</time>
      </trkpt>
      <trkpt lat="43.2962" lon="2.1925">
        <ele>225.3</ele>
        <time>2019-06-09T06:52:29.000Z</time>
      </trkpt>
      <trkpt lat="43.29622" lon="2.19248">
        <ele>225.4</ele>
        <time>2019-06-09T06:52:30.000Z</time>
      </trkpt>
      <trkpt lat="43.29623" lon="2.19246">
        <ele>225.5</ele>
        <time>2019-06-09T06:52:31.000Z</time>
      </trkpt>
      <trkpt lat="43.29625" lon="2.19245">
        <ele>225.6</ele>
        <time>2019-06-09T06:52:32.000Z</time>
      </trkpt>
      <trkpt lat="43.29627" lon="2.19243">
        <ele>225.7</ele>
        <time>2019-06-09T06:52:33.000Z</time>
      </trkpt>
      <trkpt lat="43.29629" lon="2.19241">
        <ele>225.7</ele>
        <time>2019-06-09T06:52:34.000Z</time>
      </trkpt>
      <trkpt lat="43.2963" lon="2.19239">
        <ele>225.8</ele>
        <time>2019-06-09T06:52:35.000Z</time>
      </trkpt>
      <trkpt lat="43.29632" lon="2.19238">
        <ele>225.9</ele>
        <time>2019-06-09T06:52:36.000Z</time>
      </trkpt>
      <trkpt lat="43.29634" lon="2.19236">
        <ele>226</ele>
        <time>2019-06-09T06:52:37.000Z</time>
      </trkpt>
      <trkpt lat="43.29636" lon="2.19234">
        <ele>226.1</ele>
        <time>2019-06-09T06:52:38.000Z</time>
      </trkpt>
      <trkpt lat="43.29638" lon="2.19232">
        <ele>226.2</ele>
        <time>2019-06-09T06:52:39.000Z</time>
      </trkpt>
      <trkpt lat="43.2964" lon="2.19231">
        <ele>226.3</ele>
        <time>2019-06-09T06:52:40.000Z</time>
      </trkpt>
      <trkpt lat="43.29642" lon="2.19229">
        <ele>226.4</ele>
        <time>2019-06-09T06:52:41.000Z</time>
      </trkpt>
      <trkpt lat="43.29644" lon="2.19227">
        <ele>226.4</ele>
        <time>2019-06-09T06:52:42.000Z</time>
      </trkpt>
      <trkpt lat="43.29646" lon="2.19226">
        <ele>226.5</ele>
        <time>2019-06-09T06:52:43.000Z</time>
      </trkpt>
      <trkpt lat="43.29648" lon="2.19224">
        <ele>226.6</ele>
        <time>2019-06-09T06:52:44.000Z</time>
      </trkpt>
      <trkpt lat="43.2965" lon="2.19223">
        <ele>226.7</ele>
        <time>2019-06-09T06:52:45.000Z</time>
      </trkpt>
      <trkpt lat="43.29652" lon="2.19221">
        <ele>226.8</ele>
        <time>2019-06-09T06:52:46.000Z</time>
      </trkpt>
      <trkpt lat="43.29654" lon="2.1922">
        <ele>226.9</ele>
        <time>2019-06-09T06:52:47.000Z</time>
      </trkpt>
      <trkpt lat="43.29656" lon="2.19219">
        <ele>227</ele>
        <time>2019-06-09T06:52:48.000Z</time>
      </trkpt>
      <trkpt lat="43.29658" lon="2.19218">
        <ele>227.1</ele>
        <time>2019-06-09T06:52:49.000Z</time>
      </trkpt>
      <trkpt lat="43.2966" lon="2.19217">
        <ele>227.2</ele>
        <time>2019-06-09T06:52:50.000Z</time>
      </trkpt>
      <trkpt lat="43.29662" lon="2.19216">
        <ele>227.2</ele>
        <time>2019-06-09T06:52:51.000Z</time>
      </trkpt>
      <trkpt lat="43.29664" lon="2.19215">
        <ele>227.3</ele>
        <time>2019-06-09T06:52:52.000Z</time>
      </trkpt>
      <trkpt lat="43.29666" lon="2.19214">
        <ele>227.4</ele>
        <time>2019-06-09T06:52:53.000Z</time>
      </trkpt>
      <trkpt lat="43.29668" lon="2.19214">
        <ele>227.4</ele>
        <time>2019-06-09T06:52:54.000Z</time>
      </trkpt>
      <trkpt lat="43.2967" lon="2.19213">
        <ele>227.4</ele>
        <time>2019-06-09T06:52:55.000Z</time>
      </trkpt>
      <trkpt lat="43.29672" lon="2.19213">
        <ele>227.4</ele>
        <time>2019-06-09T06:52:56.000Z</time>
      </trkpt>
      <trkpt lat="43.29675" lon="2.19212">
        <ele>227.5</ele>
        <time>2019-06-09T06:52:57.000Z</time>
      </trkpt>
      <trkpt lat="43.29677" lon="2.19211">
        <ele>227.5</ele>
        <time>2019-06-09T06:52:58.000Z</time>
      </trkpt>
      <trkpt lat="43.29679" lon="2.19211">
        <ele>227.5</ele>
        <time>2019-06-09T06:52:59.000Z</time>
      </trkpt>
      <trkpt lat="43.29681" lon="2.1921">
        <ele>227.5</ele>
        <time>2019-06-09T06:53:00.000Z</time>
      </trkpt>
      <trkpt lat="43.29684" lon="2.19209">
        <ele>227.5</ele>
        <time>2019-06-09T06:53:01.000Z</time>
      </trkpt>
      <trkpt lat="43.29686" lon="2.19208">
        <ele>227.5</ele>
        <time>2019-06-09T06:53:02.000Z</time>
      </trkpt>
      <trkpt lat="43.29688" lon="2.19208">
        <ele>227.5</ele>
        <time>2019-06-09T06:53:03.000Z</time>
      </trkpt>
      <trkpt lat="43.2969" lon="2.19207">
        <ele>227.5</ele>
        <time>2019-06-09T06:53:04.000Z</time>
      </trkpt>
      <trkpt lat="43.29693" lon="2.19206">
        <ele>227.5</ele>
        <time>2019-06-09T06:53:05.000Z</time>
      </trkpt>
      <trkpt lat="43.29695" lon="2.19205">
        <ele>227.5</ele>
        <time>2019-06-09T06:53:06.000Z</time>
      </trkpt>
      <trkpt lat="43.29697" lon="2.19204">
        <ele>227.6</ele>
        <time>2019-06-09T06:53:07.000Z</time>
      </trkpt>
      <trkpt lat="43.297" lon="2.19203">
        <ele>227.6</ele>
        <time>2019-06-09T06:53:08.000Z</time>
      </trkpt>
      <trkpt lat="43.29702" lon="2.19202">
        <ele>227.6</ele>
        <time>2019-06-09T06:53:09.000Z</time>
      </trkpt>
      <trkpt lat="43.29704" lon="2.19201">
        <ele>227.6</ele>
        <time>2019-06-09T06:53:10.000Z</time>
      </trkpt>
      <trkpt lat="43.29706" lon="2.192">
        <ele>227.6</ele>
        <time>2019-06-09T06:53:11.000Z</time>
      </trkpt>
      <trkpt lat="43.29709" lon="2.19199">
        <ele>227.6</ele>
        <time>2019-06-09T06:53:12.000Z</time>
      </trkpt>
      <trkpt lat="43.29711" lon="2.19198">
        <ele>227.6</ele>
        <time>2019-06-09T06:53:13.000Z</time>
      </trkpt>
      <trkpt lat="43.29713" lon="2.19197">
        <ele>227.6</ele>
        <time>2019-06-09T06:53:14.000Z</time>
      </trkpt>
      <trkpt lat="43.29715" lon="2.19195">
        <ele>227.7</ele>
        <time>2019-06-09T06:53:15.000Z</time>
      </trkpt>
      <trkpt lat="43.29717" lon="2.19194">
        <ele>227.7</ele>
        <time>2019-06-09T06:53:16.000Z</time>
      </trkpt>
      <trkpt lat="43.29719" lon="2.19193">
        <ele>227.7</ele>
        <time>2019-06-09T06:53:17.000Z</time>
      </trkpt>
      <trkpt lat="43.29722" lon="2.19192">
        <ele>227.7</ele>
        <time>2019-06-09T06:53:18.000Z</time>
      </trkpt>
      <trkpt lat="43.29724" lon="2.1919">
        <ele>227.7</ele>
        <time>2019-06-09T06:53:19.000Z</time>
      </trkpt>
      <trkpt lat="43.29726" lon="2.19189">
        <ele>227.7</ele>
        <time>2019-06-09T06:53:20.000Z</time>
      </trkpt>
      <trkpt lat="43.29728" lon="2.19188">
        <ele>227.7</ele>
        <time>2019-06-09T06:53:21.000Z</time>
      </trkpt>
      <trkpt lat="43.2973" lon="2.19186">
        <ele>227.8</ele>
        <time>2019-06-09T06:53:22.000Z</time>
      </trkpt>
      <trkpt lat="43.29732" lon="2.19185">
        <ele>227.8</ele>
        <time>2019-06-09T06:53:23.000Z</time>
      </trkpt>
      <trkpt lat="43.29735" lon="2.19183">
        <ele>227.8</ele>
        <time>2019-06-09T06:53:24.000Z</time>
      </trkpt>
      <trkpt lat="43.29737" lon="2.19182">
        <ele>227.8</ele>
        <time>2019-06-09T06:53:25.000Z</time>
      </trkpt>
      <trkpt lat="43.29739" lon="2.1918">
        <ele>227.8</ele>
        <time>2019-06-09T06:53:26.000Z</time>
      </trkpt>
      <trkpt lat="43.29741" lon="2.19179">
        <ele>227.9</ele>
        <time>2019-06-09T06:53:27.000Z</time>
      </trkpt>
      <trkpt lat="43.29743" lon="2.19177">
        <ele>227.9</ele>
        <time>2019-06-09T06:53:28.000Z</time>
      </trkpt>
      <trkpt lat="43.29745" lon="2.19176">
        <ele>227.9</ele>
        <time>2019-06-09T06:53:29.000Z</time>
      </trkpt>
      <trkpt lat="43.29748" lon="2.19174">
        <ele>227.9</ele>
        <time>2019-06-09T06:53:30.000Z</time>
      </trkpt>
      <trkpt lat="43.2975" lon="2.19173">
        <ele>227.9</ele>
        <time>2019-06-09T06:53:31.000Z</time>
      </trkpt>
      <trkpt lat="43.29752" lon="2.19172">
        <ele>228</ele>
        <time>2019-06-09T06:53:32.000Z</time>
      </trkpt>
      <trkpt lat="43.29754" lon="2.1917">
        <ele>228.1</ele>
        <time>2019-06-09T06:53:33.000Z</time>
      </trkpt>
      <trkpt lat="43.29756" lon="2.19169">
        <ele>228.2</ele>
        <time>2019-06-09T06:53:34.000Z</time>
      </trkpt>
      <trkpt lat="43.29758" lon="2.19167">
        <ele>228.3</ele>
        <time>2019-06-09T06:53:35.000Z</time>
      </trkpt>
      <trkpt lat="43.2976" lon="2.19166">
        <ele>228.4</ele>
        <time>2019-06-09T06:53:36.000Z</time>
      </trkpt>
      <trkpt lat="43.29762" lon="2.19165">
        <ele>228.5</ele>
        <time>2019-06-09T06:53:37.000Z</time>
      </trkpt>
      <trkpt lat="43.29764" lon="2.19164">
        <ele>228.5</ele>
        <time>2019-06-09T06:53:38.000Z</time>
      </trkpt>
      <trkpt lat="43.29766" lon="2.19163">
        <ele>228.6</ele>
        <time>2019-06-09T06:53:39.000Z</time>
      </trkpt>
      <trkpt lat="43.29768" lon="2.19161">
        <ele>228.7</ele>
        <time>2019-06-09T06:53:40.000Z</time>
      </trkpt>
      <trkpt lat="43.2977" lon="2.1916">
        <ele>228.8</ele>
        <time>2019-06-09T06:53:41.000Z</time>
      </trkpt>
      <trkpt lat="43.29772" lon="2.19159">
        <ele>228.8</ele>
        <time>2019-06-09T06:53:42.000Z</time>
      </trkpt>
      <trkpt lat="43.29773" lon="2.19157">
        <ele>228.9</ele>
        <time>2019-06-09T06:53:43.000Z</time>
      </trkpt>
      <trkpt lat="43.29774" lon="2.19155">
        <ele>228.9</ele>
        <time>2019-06-09T06:53:44.000Z</time>
      </trkpt>
      <trkpt lat="43.29776" lon="2.19152">
        <ele>229</ele>
        <time>2019-06-09T06:53:45.000Z</time>
      </trkpt>
      <trkpt lat="43.29777" lon="2.1915">
        <ele>229</ele>
        <time>2019-06-09T06:53:46.000Z</time>
      </trkpt>
      <trkpt lat="43.29777" lon="2.19147">
        <ele>229.1</ele>
        <time>2019-06-09T06:53:47.000Z</time>
      </trkpt>
      <trkpt lat="43.29778" lon="2.19144">
        <ele>229.1</ele>
        <time>2019-06-09T06:53:48.000Z</time>
      </trkpt>
      <trkpt lat="43.29779" lon="2.19141">
        <ele>229.1</ele>
        <time>2019-06-09T06:53:49.000Z</time>
      </trkpt>
      <trkpt lat="43.29779" lon="2.19138">
        <ele>229.2</ele>
        <time>2019-06-09T06:53:50.000Z</time>
      </trkpt>
      <trkpt lat="43.29779" lon="2.19134">
        <ele>229.2</ele>
        <time>2019-06-09T06:53:51.000Z</time>
      </trkpt>
      <trkpt lat="43.2978" lon="2.19131">
        <ele>229.2</ele>
        <time>2019-06-09T06:53:52.000Z</time>
      </trkpt>
      <trkpt lat="43.2978" lon="2.19128">
        <ele>229.2</ele>
        <time>2019-06-09T06:53:53.000Z</time>
      </trkpt>
      <trkpt lat="43.2978" lon="2.19125">
        <ele>229.2</ele>
        <time>2019-06-09T06:53:54.000Z</time>
      </trkpt>
      <trkpt lat="43.2978" lon="2.19121">
        <ele>229.2</ele>
        <time>2019-06-09T06:53:55.000Z</time>
      </trkpt>
      <trkpt lat="43.2978" lon="2.19118">
        <ele>229.2</ele>
        <time>2019-06-09T06:53:56.000Z</time>
      </trkpt>
      <trkpt lat="43.2978" lon="2.19115">
        <ele>229.3</ele>
        <time>2019-06-09T06:53:57.000Z</time>
      </trkpt>
      <trkpt lat="43.2978" lon="2.19111">
        <ele>229.3</ele>
        <time>2019-06-09T06:53:58.000Z</time>
      </trkpt>
      <trkpt lat="43.29781" lon="2.19108">
        <ele>229.3</ele>
        <time>2019-06-09T06:53:59.000Z</time>
      </trkpt>
      <trkpt lat="43.29781" lon="2.19105">
        <ele>229.3</ele>
        <time>2019-06-09T06:54:00.000Z</time>
      </trkpt>
      <trkpt lat="43.29781" lon="2.19102">
        <ele>229.3</ele>
        <time>2019-06-09T06:54:01.000Z</time>
      </trkpt>
      <trkpt lat="43.29781" lon="2.19098">
        <ele>229.3</ele>
        <time>2019-06-09T06:54:02.000Z</time>
      </trkpt>
      <trkpt lat="43.29782" lon="2.19095">
        <ele>229.3</ele>
        <time>2019-06-09T06:54:03.000Z</time>
      </trkpt>
      <trkpt lat="43.29782" lon="2.19092">
        <ele>229.4</ele>
        <time>2019-06-09T06:54:04.000Z</time>
      </trkpt>
      <trkpt lat="43.29782" lon="2.19089">
        <ele>229.4</ele>
        <time>2019-06-09T06:54:05.000Z</time>
      </trkpt>
      <trkpt lat="43.29783" lon="2.19086">
        <ele>229.4</ele>
        <time>2019-06-09T06:54:06.000Z</time>
      </trkpt>
      <trkpt lat="43.29783" lon="2.19083">
        <ele>229.4</ele>
        <time>2019-06-09T06:54:07.000Z</time>
      </trkpt>
      <trkpt lat="43.29783" lon="2.1908">
        <ele>229.4</ele>
        <time>2019-06-09T06:54:08.000Z</time>
      </trkpt>
      <trkpt lat="43.29783" lon="2.19077">
        <ele>229.3</ele>
        <time>2019-06-09T06:54:09.000Z</time>
      </trkpt>
      <trkpt lat="43.29784" lon="2.19074">
        <ele>229.3</ele>
        <time>2019-06-09T06:54:10.000Z</time>
      </trkpt>
      <trkpt lat="43.29784" lon="2.19072">
        <ele>229.3</ele>
        <time>2019-06-09T06:54:11.000Z</time>
      </trkpt>
      <trkpt lat="43.29784" lon="2.1907">
        <ele>229.2</ele>
        <time>2019-06-09T06:54:12.000Z</time>
      </trkpt>
      <trkpt lat="43.29785" lon="2.19067">
        <ele>229.2</ele>
        <time>2019-06-09T06:54:13.000Z</time>
      </trkpt>
      <trkpt lat="43.29785" lon="2.19065">
        <ele>229.2</ele>
        <time>2019-06-09T06:54:14.000Z</time>
      </trkpt>
      <trkpt lat="43.29785" lon="2.19063">
        <ele>229.2</ele>
        <time>2019-06-09T06:54:15.000Z</time>
      </trkpt>
      <trkpt lat="43.29785" lon="2.19061">
        <ele>229.2</ele>
        <time>2019-06-09T06:54:16.000Z</time>
      </trkpt>
      <trkpt lat="43.29786" lon="2.19059">
        <ele>229.1</ele>
        <time>2019-06-09T06:54:17.000Z</time>
      </trkpt>
      <trkpt lat="43.29786" lon="2.19058">
        <ele>229.1</ele>
        <time>2019-06-09T06:54:18.000Z</time>
      </trkpt>
      <trkpt lat="43.29786" lon="2.19056">
        <ele>229.1</ele>
        <time>2019-06-09T06:54:19.000Z</time>
      </trkpt>
      <trkpt lat="43.29786" lon="2.19055">
        <ele>229.1</ele>
        <time>2019-06-09T06:54:20.000Z</time>
      </trkpt>
      <trkpt lat="43.29787" lon="2.19053">
        <ele>229.1</ele>
        <time>2019-06-09T06:54:21.000Z</time>
      </trkpt>
      <trkpt lat="43.29787" lon="2.19052">
        <ele>229.1</ele>
        <time>2019-06-09T06:54:22.000Z</time>
      </trkpt>
      <trkpt lat="43.29788" lon="2.19051">
        <ele>229.1</ele>
        <time>2019-06-09T06:54:23.000Z</time>
      </trkpt>
      <trkpt lat="43.29788" lon="2.19049">
        <ele>229</ele>
        <time>2019-06-09T06:54:24.000Z</time>
      </trkpt>
      <trkpt lat="43.29788" lon="2.19048">
        <ele>229</ele>
        <time>2019-06-09T06:54:25.000Z</time>
      </trkpt>
      <trkpt lat="43.29789" lon="2.19048">
        <ele>229</ele>
        <time>2019-06-09T06:54:26.000Z</time>
      </trkpt>
      <trkpt lat="43.2979" lon="2.19047">
        <ele>229</ele>
        <time>2019-06-09T06:54:27.000Z</time>
      </trkpt>
      <trkpt lat="43.2979" lon="2.19046">
        <ele>229</ele>
        <time>2019-06-09T06:54:28.000Z</time>
      </trkpt>
      <trkpt lat="43.29791" lon="2.19045">
        <ele>229</ele>
        <time>2019-06-09T06:54:29.000Z</time>
      </trkpt>
      <trkpt lat="43.29792" lon="2.19045">
        <ele>229</ele>
        <time>2019-06-09T06:54:30.000Z</time>
      </trkpt>
      <trkpt lat="43.29793" lon="2.19045">
        <ele>229</ele>
        <time>2019-06-09T06:54:31.000Z</time>
      </trkpt>
      <trkpt lat="43.29793" lon="2.19044">
        <ele>229.1</ele>
        <time>2019-06-09T06:54:32.000Z</time>
      </trkpt>
      <trkpt lat="43.29794" lon="2.19044">
        <ele>229.1</ele>
        <time>2019-06-09T06:54:33.000Z</time>
      </trkpt>
      <trkpt lat="43.29795" lon="2.19044">
        <ele>229.1</ele>
        <time>2019-06-09T06:54:34.000Z</time>
      </trkpt>
      <trkpt lat="43.29796" lon="2.19044">
        <ele>229.1</ele>
        <time>2019-06-09T06:54:35.000Z</time>
      </trkpt>
      <trkpt lat="43.29797" lon="2.19044">
        <ele>229.1</ele>
        <time>2019-06-09T06:54:36.000Z</time>
      </trkpt>
      <trkpt lat="43.29799" lon="2.19044">
        <ele>229.1</ele>
        <time>2019-06-09T06:54:37.000Z</time>
      </trkpt>
      <trkpt lat="43.298" lon="2.19044">
        <ele>229.1</ele>
        <time>2019-06-09T06:54:38.000Z</time>
      </trkpt>
      <trkpt lat="43.29801" lon="2.19044">
        <ele>229.1</ele>
        <time>2019-06-09T06:54:39.000Z</time>
      </trkpt>
      <trkpt lat="43.29802" lon="2.19044">
        <ele>229.2</ele>
        <time>2019-06-09T06:54:40.000Z</time>
      </trkpt>
      <trkpt lat="43.29803" lon="2.19044">
        <ele>229.2</ele>
        <time>2019-06-09T06:54:41.000Z</time>
      </trkpt>
      <trkpt lat="43.29804" lon="2.19044">
        <ele>229.2</ele>
        <time>2019-06-09T06:54:42.000Z</time>
      </trkpt>
      <trkpt lat="43.29806" lon="2.19044">
        <ele>229.2</ele>
        <time>2019-06-09T06:54:43.000Z</time>
      </trkpt>
      <trkpt lat="43.29807" lon="2.19045">
        <ele>229.2</ele>
        <time>2019-06-09T06:54:44.000Z</time>
      </trkpt>
      <trkpt lat="43.29808" lon="2.19045">
        <ele>229.2</ele>
        <time>2019-06-09T06:54:45.000Z</time>
      </trkpt>
      <trkpt lat="43.29809" lon="2.19045">
        <ele>229.3</ele>
        <time>2019-06-09T06:54:46.000Z</time>
      </trkpt>
      <trkpt lat="43.2981" lon="2.19045">
        <ele>229.3</ele>
        <time>2019-06-09T06:54:47.000Z</time>
      </trkpt>
      <trkpt lat="43.29811" lon="2.19046">
        <ele>229.3</ele>
        <time>2019-06-09T06:54:48.000Z</time>
      </trkpt>
      <trkpt lat="43.29813" lon="2.19046">
        <ele>229.3</ele>
        <time>2019-06-09T06:54:49.000Z</time>
      </trkpt>
      <trkpt lat="43.29814" lon="2.19047">
        <ele>229.3</ele>
        <time>2019-06-09T06:54:50.000Z</time>
      </trkpt>
      <trkpt lat="43.29815" lon="2.19047">
        <ele>229.3</ele>
        <time>2019-06-09T06:54:51.000Z</time>
      </trkpt>
      <trkpt lat="43.29816" lon="2.19048">
        <ele>229.4</ele>
        <time>2019-06-09T06:54:52.000Z</time>
      </trkpt>
      <trkpt lat="43.29817" lon="2.19049">
        <ele>229.4</ele>
        <time>2019-06-09T06:54:53.000Z</time>
      </trkpt>
      <trkpt lat="43.29818" lon="2.19049">
        <ele>229.4</ele>
        <time>2019-06-09T06:54:54.000Z</time>
      </trkpt>
      <trkpt lat="43.29819" lon="2.1905">
        <ele>229.4</ele>
        <time>2019-06-09T06:54:55.000Z</time>
      </trkpt>
      <trkpt lat="43.2982" lon="2.19051">
        <ele>229.4</ele>
        <time>2019-06-09T06:54:56.000Z</time>
      </trkpt>
      <trkpt lat="43.29821" lon="2.19052">
        <ele>229.5</ele>
        <time>2019-06-09T06:54:57.000Z</time>
      </trkpt>
      <trkpt lat="43.29822" lon="2.19052">
        <ele>229.5</ele>
        <time>2019-06-09T06:54:58.000Z</time>
      </trkpt>
      <trkpt lat="43.29823" lon="2.19053">
        <ele>229.5</ele>
        <time>2019-06-09T06:54:59.000Z</time>
      </trkpt>
      <trkpt lat="43.29824" lon="2.19054">
        <ele>229.5</ele>
        <time>2019-06-09T06:55:00.000Z</time>
      </trkpt>
      <trkpt lat="43.29825" lon="2.19054">
        <ele>229.5</ele>
        <time>2019-06-09T06:55:01.000Z</time>
      </trkpt>
      <trkpt lat="43.29825" lon="2.19055">
        <ele>229.6</ele>
        <time>2019-06-09T06:55:02.000Z</time>
      </trkpt>
      <trkpt lat="43.29826" lon="2.19056">
        <ele>229.6</ele>
        <time>2019-06-09T06:55:03.000Z</time>
      </trkpt>
      <trkpt lat="43.29827" lon="2.19056">
        <ele>229.6</ele>
        <time>2019-06-09T06:55:04.000Z</time>
      </trkpt>
      <trkpt lat="43.29827" lon="2.19057">
        <ele>229.6</ele>
        <time>2019-06-09T06:55:05.000Z</time>
      </trkpt>
      <trkpt lat="43.29828" lon="2.19057">
        <ele>229.6</ele>
        <time>2019-06-09T06:55:06.000Z</time>
      </trkpt>
      <trkpt lat="43.29828" lon="2.19058">
        <ele>229.6</ele>
        <time>2019-06-09T06:55:07.000Z</time>
      </trkpt>
      <trkpt lat="43.29829" lon="2.19059">
        <ele>229.6</ele>
        <time>2019-06-09T06:55:08.000Z</time>
      </trkpt>
      <trkpt lat="43.29829" lon="2.19059">
        <ele>229.7</ele>
        <time>2019-06-09T06:55:09.000Z</time>
      </trkpt>
      <trkpt lat="43.2983" lon="2.1906">
        <ele>229.7</ele>
        <time>2019-06-09T06:55:10.000Z</time>
      </trkpt>
      <trkpt lat="43.29831" lon="2.19061">
        <ele>229.7</ele>
        <time>2019-06-09T06:55:11.000Z</time>
      </trkpt>
      <trkpt lat="43.29832" lon="2.19061">
        <ele>229.7</ele>
        <time>2019-06-09T06:55:12.000Z</time>
      </trkpt>
      <trkpt lat="43.29833" lon="2.19062">
        <ele>229.7</ele>
        <time>2019-06-09T06:55:13.000Z</time>
      </trkpt>
      <trkpt lat="43.29834" lon="2.19062">
        <ele>229.8</ele>
        <time>2019-06-09T06:55:14.000Z</time>
      </trkpt>
      <trkpt lat="43.29835" lon="2.19063">
        <ele>229.8</ele>
        <time>2019-06-09T06:55:15.000Z</time>
      </trkpt>
      <trkpt lat="43.29836" lon="2.19064">
        <ele>229.9</ele>
        <time>2019-06-09T06:55:16.000Z</time>
      </trkpt>
      <trkpt lat="43.29837" lon="2.19064">
        <ele>229.9</ele>
        <time>2019-06-09T06:55:17.000Z</time>
      </trkpt>
      <trkpt lat="43.29838" lon="2.19065">
        <ele>230</ele>
        <time>2019-06-09T06:55:18.000Z</time>
      </trkpt>
      <trkpt lat="43.2984" lon="2.19066">
        <ele>230</ele>
        <time>2019-06-09T06:55:19.000Z</time>
      </trkpt>
      <trkpt lat="43.29841" lon="2.19066">
        <ele>230.1</ele>
        <time>2019-06-09T06:55:20.000Z</time>
      </trkpt>
      <trkpt lat="43.29842" lon="2.19067">
        <ele>230.1</ele>
        <time>2019-06-09T06:55:21.000Z</time>
      </trkpt>
      <trkpt lat="43.29843" lon="2.19068">
        <ele>230.2</ele>
        <time>2019-06-09T06:55:22.000Z</time>
      </trkpt>
      <trkpt lat="43.29845" lon="2.19069">
        <ele>230.2</ele>
        <time>2019-06-09T06:55:23.000Z</time>
      </trkpt>
      <trkpt lat="43.29846" lon="2.1907">
        <ele>230.3</ele>
        <time>2019-06-09T06:55:24.000Z</time>
      </trkpt>
      <trkpt lat="43.29847" lon="2.1907">
        <ele>230.3</ele>
        <time>2019-06-09T06:55:25.000Z</time>
      </trkpt>
      <trkpt lat="43.29848" lon="2.1907">
        <ele>230.4</ele>
        <time>2019-06-09T06:55:26.000Z</time>
      </trkpt>
      <trkpt lat="43.29849" lon="2.19071">
        <ele>230.4</ele>
        <time>2019-06-09T06:55:27.000Z</time>
      </trkpt>
      <trkpt lat="43.29851" lon="2.19071">
        <ele>230.5</ele>
        <time>2019-06-09T06:55:28.000Z</time>
      </trkpt>
      <trkpt lat="43.29852" lon="2.19072">
        <ele>230.5</ele>
        <time>2019-06-09T06:55:29.000Z</time>
      </trkpt>
      <trkpt lat="43.29853" lon="2.19072">
        <ele>230.6</ele>
        <time>2019-06-09T06:55:30.000Z</time>
      </trkpt>
      <trkpt lat="43.29854" lon="2.19072">
        <ele>230.6</ele>
        <time>2019-06-09T06:55:31.000Z</time>
      </trkpt>
      <trkpt lat="43.29856" lon="2.19073">
        <ele>230.7</ele>
        <time>2019-06-09T06:55:32.000Z</time>
      </trkpt>
      <trkpt lat="43.29857" lon="2.19073">
        <ele>230.7</ele>
        <time>2019-06-09T06:55:33.000Z</time>
      </trkpt>
      <trkpt lat="43.29858" lon="2.19074">
        <ele>230.8</ele>
        <time>2019-06-09T06:55:34.000Z</time>
      </trkpt>
      <trkpt lat="43.29859" lon="2.19074">
        <ele>230.8</ele>
        <time>2019-06-09T06:55:35.000Z</time>
      </trkpt>
      <trkpt lat="43.29861" lon="2.19075">
        <ele>230.9</ele>
        <time>2019-06-09T06:55:36.000Z</time>
      </trkpt>
      <trkpt lat="43.29862" lon="2.19076">
        <ele>230.9</ele>
        <time>2019-06-09T06:55:37.000Z</time>
      </trkpt>
      <trkpt lat="43.29863" lon="2.19076">
        <ele>231</ele>
        <time>2019-06-09T06:55:38.000Z</time>
      </trkpt>
      <trkpt lat="43.29864" lon="2.19077">
        <ele>231</ele>
        <time>2019-06-09T06:55:39.000Z</time>
      </trkpt>
      <trkpt lat="43.29865" lon="2.19078">
        <ele>231.1</ele>
        <time>2019-06-09T06:55:40.000Z</time>
      </trkpt>
      <trkpt lat="43.29866" lon="2.19078">
        <ele>231.1</ele>
        <time>2019-06-09T06:55:41.000Z</time>
      </trkpt>
      <trkpt lat="43.29867" lon="2.19079">
        <ele>231.2</ele>
        <time>2019-06-09T06:55:42.000Z</time>
      </trkpt>
      <trkpt lat="43.29868" lon="2.19079">
        <ele>231.2</ele>
        <time>2019-06-09T06:55:43.000Z</time>
      </trkpt>
      <trkpt lat="43.2987" lon="2.1908">
        <ele>231.3</ele>
        <time>2019-06-09T06:55:44.000Z</time>
      </trkpt>
      <trkpt lat="43.29871" lon="2.1908">
        <ele>231.3</ele>
        <time>2019-06-09T06:55:45.000Z</time>
      </trkpt>
      <trkpt lat="43.29872" lon="2.19081">
        <ele>231.3</ele>
        <time>2019-06-09T06:55:46.000Z</time>
      </trkpt>
      <trkpt lat="43.29873" lon="2.19081">
        <ele>231.4</ele>
        <time>2019-06-09T06:55:47.000Z</time>
      </trkpt>
      <trkpt lat="43.29874" lon="2.19082">
        <ele>231.4</ele>
        <time>2019-06-09T06:55:48.000Z</time>
      </trkpt>
      <trkpt lat="43.29875" lon="2.19082">
        <ele>231.5</ele>
        <time>2019-06-09T06:55:49.000Z</time>
      </trkpt>
      <trkpt lat="43.29876" lon="2.19083">
        <ele>231.5</ele>
        <time>2019-06-09T06:55:50.000Z</time>
      </trkpt>
      <trkpt lat="43.29877" lon="2.19083">
        <ele>231.6</ele>
        <time>2019-06-09T06:55:51.000Z</time>
      </trkpt>
      <trkpt lat="43.29878" lon="2.19084">
        <ele>231.6</ele>
        <time>2019-06-09T06:55:52.000Z</time>
      </trkpt>
      <trkpt lat="43.2988" lon="2.19084">
        <ele>231.7</ele>
        <time>2019-06-09T06:55:53.000Z</time>
      </trkpt>
      <trkpt lat="43.29881" lon="2.19085">
        <ele>231.7</ele>
        <time>2019-06-09T06:55:54.000Z</time>
      </trkpt>
      <trkpt lat="43.29882" lon="2.19085">
        <ele>231.8</ele>
        <time>2019-06-09T06:55:55.000Z</time>
      </trkpt>
      <trkpt lat="43.29884" lon="2.19086">
        <ele>231.8</ele>
        <time>2019-06-09T06:55:56.000Z</time>
      </trkpt>
      <trkpt lat="43.29885" lon="2.19086">
        <ele>231.9</ele>
        <time>2019-06-09T06:55:57.000Z</time>
      </trkpt>
      <trkpt lat="43.29887" lon="2.19086">
        <ele>231.9</ele>
        <time>2019-06-09T06:55:58.000Z</time>
      </trkpt>
      <trkpt lat="43.29888" lon="2.19087">
        <ele>232</ele>
        <time>2019-06-09T06:55:59.000Z</time>
      </trkpt>
      <trkpt lat="43.29889" lon="2.19087">
        <ele>232</ele>
        <time>2019-06-09T06:56:00.000Z</time>
      </trkpt>
      <trkpt lat="43.29891" lon="2.19087">
        <ele>232.1</ele>
        <time>2019-06-09T06:56:01.000Z</time>
      </trkpt>
      <trkpt lat="43.29892" lon="2.19088">
        <ele>232.1</ele>
        <time>2019-06-09T06:56:02.000Z</time>
      </trkpt>
      <trkpt lat="43.29894" lon="2.19088">
        <ele>232.2</ele>
        <time>2019-06-09T06:56:03.000Z</time>
      </trkpt>
      <trkpt lat="43.29895" lon="2.19089">
        <ele>232.2</ele>
        <time>2019-06-09T06:56:04.000Z</time>
      </trkpt>
      <trkpt lat="43.29896" lon="2.19089">
        <ele>232.3</ele>
        <time>2019-06-09T06:56:05.000Z</time>
      </trkpt>
      <trkpt lat="43.29898" lon="2.19089">
        <ele>232.3</ele>
        <time>2019-06-09T06:56:06.000Z</time>
      </trkpt>
      <trkpt lat="43.29899" lon="2.1909">
        <ele>232.4</ele>
        <time>2019-06-09T06:56:07.000Z</time>
      </trkpt>
      <trkpt lat="43.299" lon="2.1909">
        <ele>232.4</ele>
        <time>2019-06-09T06:56:08.000Z</time>
      </trkpt>
      <trkpt lat="43.29902" lon="2.19091">
        <ele>232.5</ele>
        <time>2019-06-09T06:56:09.000Z</time>
      </trkpt>
      <trkpt lat="43.29903" lon="2.19091">
        <ele>232.5</ele>
        <time>2019-06-09T06:56:10.000Z</time>
      </trkpt>
      <trkpt lat="43.29904" lon="2.19092">
        <ele>232.6</ele>
        <time>2019-06-09T06:56:11.000Z</time>
      </trkpt>
      <trkpt lat="43.29906" lon="2.19092">
        <ele>232.6</ele>
        <time>2019-06-09T06:56:12.000Z</time>
      </trkpt>
      <trkpt lat="43.29907" lon="2.19093">
        <ele>232.7</ele>
        <time>2019-06-09T06:56:13.000Z</time>
      </trkpt>
      <trkpt lat="43.29908" lon="2.19093">
        <ele>232.7</ele>
        <time>2019-06-09T06:56:14.000Z</time>
      </trkpt>
      <trkpt lat="43.2991" lon="2.19093">
        <ele>232.8</ele>
        <time>2019-06-09T06:56:15.000Z</time>
      </trkpt>
      <trkpt lat="43.29911" lon="2.19094">
        <ele>232.8</ele>
        <time>2019-06-09T06:56:16.000Z</time>
      </trkpt>
      <trkpt lat="43.29913" lon="2.19094">
        <ele>232.9</ele>
        <time>2019-06-09T06:56:17.000Z</time>
      </trkpt>
      <trkpt lat="43.29914" lon="2.19095">
        <ele>232.9</ele>
        <time>2019-06-09T06:56:18.000Z</time>
      </trkpt>
      <trkpt lat="43.29916" lon="2.19095">
        <ele>233</ele>
        <time>2019-06-09T06:56:19.000Z</time>
      </trkpt>
      <trkpt lat="43.29917" lon="2.19096">
        <ele>233</ele>
        <time>2019-06-09T06:56:20.000Z</time>
      </trkpt>
      <trkpt lat="43.29919" lon="2.19096">
        <ele>233.1</ele>
        <time>2019-06-09T06:56:21.000Z</time>
      </trkpt>
      <trkpt lat="43.2992" lon="2.19097">
        <ele>233.2</ele>
        <time>2019-06-09T06:56:22.000Z</time>
      </trkpt>
      <trkpt lat="43.29922" lon="2.19097">
        <ele>233.3</ele>
        <time>2019-06-09T06:56:23.000Z</time>
      </trkpt>
      <trkpt lat="43.29923" lon="2.19098">
        <ele>233.4</ele>
        <time>2019-06-09T06:56:24.000Z</time>
      </trkpt>
      <trkpt lat="43.29925" lon="2.19098">
        <ele>233.5</ele>
        <time>2019-06-09T06:56:25.000Z</time>
      </trkpt>
      <trkpt lat="43.29926" lon="2.19098">
        <ele>233.6</ele>
        <time>2019-06-09T06:56:26.000Z</time>
      </trkpt>
      <trkpt lat="43.29927" lon="2.19099">
        <ele>233.7</ele>
        <time>2019-06-09T06:56:27.000Z</time>
      </trkpt>
      <trkpt lat="43.29929" lon="2.19099">
        <ele>233.7</ele>
        <time>2019-06-09T06:56:28.000Z</time>
      </trkpt>
      <trkpt lat="43.2993" lon="2.191">
        <ele>233.8</ele>
        <time>2019-06-09T06:56:29.000Z</time>
      </trkpt>
      <trkpt lat="43.29931" lon="2.191">
        <ele>233.9</ele>
        <time>2019-06-09T06:56:30.000Z</time>
      </trkpt>
      <trkpt lat="43.29932" lon="2.19101">
        <ele>234</ele>
        <time>2019-06-09T06:56:31.000Z</time>
      </trkpt>
      <trkpt lat="43.29933" lon="2.19101">
        <ele>234</ele>
        <time>2019-06-09T06:56:32.000Z</time>
      </trkpt>
      <trkpt lat="43.29935" lon="2.19102">
        <ele>234.1</ele>
        <time>2019-06-09T06:56:33.000Z</time>
      </trkpt>
      <trkpt lat="43.29936" lon="2.19102">
        <ele>234.2</ele>
        <time>2019-06-09T06:56:34.000Z</time>
      </trkpt>
      <trkpt lat="43.29937" lon="2.19103">
        <ele>234.2</ele>
        <time>2019-06-09T06:56:35.000Z</time>
      </trkpt>
      <trkpt lat="43.29938" lon="2.19103">
        <ele>234.3</ele>
        <time>2019-06-09T06:56:36.000Z</time>
      </trkpt>
      <trkpt lat="43.2994" lon="2.19103">
        <ele>234.4</ele>
        <time>2019-06-09T06:56:37.000Z</time>
      </trkpt>
      <trkpt lat="43.29941" lon="2.19104">
        <ele>234.5</ele>
        <time>2019-06-09T06:56:38.000Z</time>
      </trkpt>
      <trkpt lat="43.29942" lon="2.19104">
        <ele>234.5</ele>
        <time>2019-06-09T06:56:39.000Z</time>
      </trkpt>
      <trkpt lat="43.29943" lon="2.19104">
        <ele>234.6</ele>
        <time>2019-06-09T06:56:40.000Z</time>
      </trkpt>
      <trkpt lat="43.29945" lon="2.19104">
        <ele>234.7</ele>
        <time>2019-06-09T06:56:41.000Z</time>
      </trkpt>
      <trkpt lat="43.29946" lon="2.19105">
        <ele>234.8</ele>
        <time>2019-06-09T06:56:42.000Z</time>
      </trkpt>
      <trkpt lat="43.29948" lon="2.19105">
        <ele>234.8</ele>
        <time>2019-06-09T06:56:43.000Z</time>
      </trkpt>
      <trkpt lat="43.29949" lon="2.19105">
        <ele>234.9</ele>
        <time>2019-06-09T06:56:44.000Z</time>
      </trkpt>
      <trkpt lat="43.29951" lon="2.19105">
        <ele>235</ele>
        <time>2019-06-09T06:56:45.000Z</time>
      </trkpt>
      <trkpt lat="43.29952" lon="2.19105">
        <ele>235.1</ele>
        <time>2019-06-09T06:56:46.000Z</time>
      </trkpt>
      <trkpt lat="43.29954" lon="2.19105">
        <ele>235.2</ele>
        <time>2019-06-09T06:56:47.000Z</time>
      </trkpt>
      <trkpt lat="43.29955" lon="2.19105">
        <ele>235.3</ele>
        <time>2019-06-09T06:56:48.000Z</time>
      </trkpt>
      <trkpt lat="43.29957" lon="2.19105">
        <ele>235.4</ele>
        <time>2019-06-09T06:56:49.000Z</time>
      </trkpt>
      <trkpt lat="43.29959" lon="2.19105">
        <ele>235.5</ele>
        <time>2019-06-09T06:56:50.000Z</time>
      </trkpt>
      <trkpt lat="43.2996" lon="2.19105">
        <ele>235.6</ele>
        <time>2019-06-09T06:56:51.000Z</time>
      </trkpt>
      <trkpt lat="43.29962" lon="2.19105">
        <ele>235.7</ele>
        <time>2019-06-09T06:56:52.000Z</time>
      </trkpt>
      <trkpt lat="43.29963" lon="2.19105">
        <ele>235.8</ele>
        <time>2019-06-09T06:56:53.000Z</time>
      </trkpt>
      <trkpt lat="43.29965" lon="2.19105">
        <ele>235.8</ele>
        <time>2019-06-09T06:56:54.000Z</time>
      </trkpt>
      <trkpt lat="43.29966" lon="2.19105">
        <ele>235.9</ele>
        <time>2019-06-09T06:56:55.000Z</time>
      </trkpt>
      <trkpt lat="43.29968" lon="2.19105">
        <ele>236</ele>
        <time>2019-06-09T06:56:56.000Z</time>
      </trkpt>
      <trkpt lat="43.29969" lon="2.19105">
        <ele>236.1</ele>
        <time>2019-06-09T06:56:57.000Z</time>
      </trkpt>
      <trkpt lat="43.2997" lon="2.19105">
        <ele>236.2</ele>
        <time>2019-06-09T06:56:58.000Z</time>
      </trkpt>
      <trkpt lat="43.29972" lon="2.19105">
        <ele>236.3</ele>
        <time>2019-06-09T06:56:59.000Z</time>
      </trkpt>
      <trkpt lat="43.29973" lon="2.19104">
        <ele>236.4</ele>
        <time>2019-06-09T06:57:00.000Z</time>
      </trkpt>
      <trkpt lat="43.29974" lon="2.19104">
        <ele>236.5</ele>
        <time>2019-06-09T06:57:01.000Z</time>
      </trkpt>
      <trkpt lat="43.29976" lon="2.19104">
        <ele>236.5</ele>
        <time>2019-06-09T06:57:02.000Z</time>
      </trkpt>
      <trkpt lat="43.29977" lon="2.19104">
        <ele>236.6</ele>
        <time>2019-06-09T06:57:03.000Z</time>
      </trkpt>
      <trkpt lat="43.29978" lon="2.19104">
        <ele>236.7</ele>
        <time>2019-06-09T06:57:04.000Z</time>
      </trkpt>
      <trkpt lat="43.29979" lon="2.19104">
        <ele>236.8</ele>
        <time>2019-06-09T06:57:05.000Z</time>
      </trkpt>
      <trkpt lat="43.29981" lon="2.19103">
        <ele>236.9</ele>
        <time>2019-06-09T06:57:06.000Z</time>
      </trkpt>
      <trkpt lat="43.29982" lon="2.19103">
        <ele>237</ele>
        <time>2019-06-09T06:57:07.000Z</time>
      </trkpt>
      <trkpt lat="43.29983" lon="2.19103">
        <ele>237</ele>
        <time>2019-06-09T06:57:08.000Z</time>
      </trkpt>
      <trkpt lat="43.29985" lon="2.19103">
        <ele>237.1</ele>
        <time>2019-06-09T06:57:09.000Z</time>
      </trkpt>
      <trkpt lat="43.29986" lon="2.19103">
        <ele>237.2</ele>
        <time>2019-06-09T06:57:10.000Z</time>
      </trkpt>
      <trkpt lat="43.29987" lon="2.19103">
        <ele>237.3</ele>
        <time>2019-06-09T06:57:11.000Z</time>
      </trkpt>
      <trkpt lat="43.29989" lon="2.19103">
        <ele>237.4</ele>
        <time>2019-06-09T06:57:12.000Z</time>
      </trkpt>
      <trkpt lat="43.2999" lon="2.19103">
        <ele>237.5</ele>
        <time>2019-06-09T06:57:13.000Z</time>
      </trkpt>
      <trkpt lat="43.29991" lon="2.19103">
        <ele>237.6</ele>
        <time>2019-06-09T06:57:14.000Z</time>
      </trkpt>
      <trkpt lat="43.29993" lon="2.19103">
        <ele>237.6</ele>
        <time>2019-06-09T06:57:15.000Z</time>
      </trkpt>
      <trkpt lat="43.29994" lon="2.19103">
        <ele>237.7</ele>
        <time>2019-06-09T06:57:16.000Z</time>
      </trkpt>
      <trkpt lat="43.29996" lon="2.19103">
        <ele>237.8</ele>
        <time>2019-06-09T06:57:17.000Z</time>
      </trkpt>
      <trkpt lat="43.29997" lon="2.19103">
        <ele>237.9</ele>
        <time>2019-06-09T06:57:18.000Z</time>
      </trkpt>
      <trkpt lat="43.29998" lon="2.19103">
        <ele>238</ele>
        <time>2019-06-09T06:57:19.000Z</time>
      </trkpt>
      <trkpt lat="43.3" lon="2.19103">
        <ele>238</ele>
        <time>2019-06-09T06:57:20.000Z</time>
      </trkpt>
      <trkpt lat="43.30001" lon="2.19103">
        <ele>238.1</ele>
        <time>2019-06-09T06:57:21.000Z</time>
      </trkpt>
      <trkpt lat="43.30003" lon="2.19104">
        <ele>238.1</ele>
        <time>2019-06-09T06:57:22.000Z</time>
      </trkpt>
      <trkpt lat="43.30004" lon="2.19104">
        <ele>238.1</ele>
        <time>2019-06-09T06:57:23.000Z</time>
      </trkpt>
      <trkpt lat="43.30005" lon="2.19104">
        <ele>238.1</ele>
        <time>2019-06-09T06:57:24.000Z</time>
      </trkpt>
      <trkpt lat="43.30007" lon="2.19105">
        <ele>238.1</ele>
        <time>2019-06-09T06:57:25.000Z</time>
      </trkpt>
      <trkpt lat="43.30008" lon="2.19105">
        <ele>238.2</ele>
        <time>2019-06-09T06:57:26.000Z</time>
      </trkpt>
      <trkpt lat="43.3001" lon="2.19106">
        <ele>238.2</ele>
        <time>2019-06-09T06:57:27.000Z</time>
      </trkpt>
      <trkpt lat="43.30011" lon="2.19106">
        <ele>238.2</ele>
        <time>2019-06-09T06:57:28.000Z</time>
      </trkpt>
      <trkpt lat="43.30012" lon="2.19107">
        <ele>238.2</ele>
        <time>2019-06-09T06:57:29.000Z</time>
      </trkpt>
      <trkpt lat="43.30014" lon="2.19108">
        <ele>238.2</ele>
        <time>2019-06-09T06:57:30.000Z</time>
      </trkpt>
      <trkpt lat="43.30015" lon="2.19108">
        <ele>238.2</ele>
        <time>2019-06-09T06:57:31.000Z</time>
      </trkpt>
      <trkpt lat="43.30016" lon="2.19109">
        <ele>238.2</ele>
        <time>2019-06-09T06:57:32.000Z</time>
      </trkpt>
      <trkpt lat="43.30018" lon="2.1911">
        <ele>238.2</ele>
        <time>2019-06-09T06:57:33.000Z</time>
      </trkpt>
      <trkpt lat="43.30019" lon="2.1911">
        <ele>238.2</ele>
        <time>2019-06-09T06:57:34.000Z</time>
      </trkpt>
      <trkpt lat="43.30021" lon="2.19111">
        <ele>238.2</ele>
        <time>2019-06-09T06:57:35.000Z</time>
      </trkpt>
      <trkpt lat="43.30022" lon="2.19112">
        <ele>238.3</ele>
        <time>2019-06-09T06:57:36.000Z</time>
      </trkpt>
      <trkpt lat="43.30024" lon="2.19112">
        <ele>238.3</ele>
        <time>2019-06-09T06:57:37.000Z</time>
      </trkpt>
      <trkpt lat="43.30025" lon="2.19112">
        <ele>238.3</ele>
        <time>2019-06-09T06:57:38.000Z</time>
      </trkpt>
      <trkpt lat="43.30027" lon="2.19113">
        <ele>238.4</ele>
        <time>2019-06-09T06:57:39.000Z</time>
      </trkpt>
      <trkpt lat="43.30029" lon="2.19113">
        <ele>238.4</ele>
        <time>2019-06-09T06:57:40.000Z</time>
      </trkpt>
      <trkpt lat="43.30031" lon="2.19113">
        <ele>238.5</ele>
        <time>2019-06-09T06:57:41.000Z</time>
      </trkpt>
      <trkpt lat="43.30032" lon="2.19113">
        <ele>238.5</ele>
        <time>2019-06-09T06:57:42.000Z</time>
      </trkpt>
      <trkpt lat="43.30034" lon="2.19113">
        <ele>238.6</ele>
        <time>2019-06-09T06:57:43.000Z</time>
      </trkpt>
      <trkpt lat="43.30036" lon="2.19113">
        <ele>238.6</ele>
        <time>2019-06-09T06:57:44.000Z</time>
      </trkpt>
      <trkpt lat="43.30038" lon="2.19113">
        <ele>238.7</ele>
        <time>2019-06-09T06:57:45.000Z</time>
      </trkpt>
      <trkpt lat="43.3004" lon="2.19113">
        <ele>238.8</ele>
        <time>2019-06-09T06:57:46.000Z</time>
      </trkpt>
      <trkpt lat="43.30043" lon="2.19113">
        <ele>238.8</ele>
        <time>2019-06-09T06:57:47.000Z</time>
      </trkpt>
      <trkpt lat="43.30045" lon="2.19113">
        <ele>238.9</ele>
        <time>2019-06-09T06:57:48.000Z</time>
      </trkpt>
      <trkpt lat="43.30047" lon="2.19114">
        <ele>238.9</ele>
        <time>2019-06-09T06:57:49.000Z</time>
      </trkpt>
      <trkpt lat="43.30049" lon="2.19115">
        <ele>239</ele>
        <time>2019-06-09T06:57:50.000Z</time>
      </trkpt>
      <trkpt lat="43.30051" lon="2.19115">
        <ele>239</ele>
        <time>2019-06-09T06:57:51.000Z</time>
      </trkpt>
      <trkpt lat="43.30053" lon="2.19116">
        <ele>239.1</ele>
        <time>2019-06-09T06:57:52.000Z</time>
      </trkpt>
      <trkpt lat="43.30056" lon="2.19117">
        <ele>239.1</ele>
        <time>2019-06-09T06:57:53.000Z</time>
      </trkpt>
      <trkpt lat="43.30058" lon="2.19118">
        <ele>239.2</ele>
        <time>2019-06-09T06:57:54.000Z</time>
      </trkpt>
      <trkpt lat="43.3006" lon="2.19119">
        <ele>239.3</ele>
        <time>2019-06-09T06:57:55.000Z</time>
      </trkpt>
      <trkpt lat="43.30063" lon="2.1912">
        <ele>239.3</ele>
        <time>2019-06-09T06:57:56.000Z</time>
      </trkpt>
      <trkpt lat="43.30065" lon="2.19121">
        <ele>239.4</ele>
        <time>2019-06-09T06:57:57.000Z</time>
      </trkpt>
      <trkpt lat="43.30067" lon="2.19122">
        <ele>239.5</ele>
        <time>2019-06-09T06:57:58.000Z</time>
      </trkpt>
      <trkpt lat="43.30069" lon="2.19123">
        <ele>239.5</ele>
        <time>2019-06-09T06:57:59.000Z</time>
      </trkpt>
      <trkpt lat="43.30072" lon="2.19124">
        <ele>239.6</ele>
        <time>2019-06-09T06:58:00.000Z</time>
      </trkpt>
      <trkpt lat="43.30073" lon="2.19125">
        <ele>239.6</ele>
        <time>2019-06-09T06:58:01.000Z</time>
      </trkpt>
      <trkpt lat="43.30075" lon="2.19126">
        <ele>239.7</ele>
        <time>2019-06-09T06:58:02.000Z</time>
      </trkpt>
      <trkpt lat="43.30077" lon="2.19127">
        <ele>239.8</ele>
        <time>2019-06-09T06:58:03.000Z</time>
      </trkpt>
      <trkpt lat="43.30079" lon="2.19129">
        <ele>239.8</ele>
        <time>2019-06-09T06:58:04.000Z</time>
      </trkpt>
      <trkpt lat="43.30081" lon="2.19131">
        <ele>239.9</ele>
        <time>2019-06-09T06:58:05.000Z</time>
      </trkpt>
      <trkpt lat="43.30082" lon="2.19132">
        <ele>240</ele>
        <time>2019-06-09T06:58:06.000Z</time>
      </trkpt>
      <trkpt lat="43.30084" lon="2.19134">
        <ele>240</ele>
        <time>2019-06-09T06:58:07.000Z</time>
      </trkpt>
      <trkpt lat="43.30085" lon="2.19136">
        <ele>240.1</ele>
        <time>2019-06-09T06:58:08.000Z</time>
      </trkpt>
      <trkpt lat="43.30086" lon="2.19138">
        <ele>240.2</ele>
        <time>2019-06-09T06:58:09.000Z</time>
      </trkpt>
      <trkpt lat="43.30088" lon="2.1914">
        <ele>240.2</ele>
        <time>2019-06-09T06:58:10.000Z</time>
      </trkpt>
      <trkpt lat="43.30089" lon="2.19141">
        <ele>240.3</ele>
        <time>2019-06-09T06:58:11.000Z</time>
      </trkpt>
      <trkpt lat="43.3009" lon="2.19143">
        <ele>240.4</ele>
        <time>2019-06-09T06:58:12.000Z</time>
      </trkpt>
      <trkpt lat="43.30091" lon="2.19145">
        <ele>240.4</ele>
        <time>2019-06-09T06:58:13.000Z</time>
      </trkpt>
      <trkpt lat="43.30091" lon="2.19146">
        <ele>240.5</ele>
        <time>2019-06-09T06:58:14.000Z</time>
      </trkpt>
      <trkpt lat="43.30092" lon="2.19148">
        <ele>240.5</ele>
        <time>2019-06-09T06:58:15.000Z</time>
      </trkpt>
      <trkpt lat="43.30093" lon="2.19149">
        <ele>240.5</ele>
        <time>2019-06-09T06:58:16.000Z</time>
      </trkpt>
      <trkpt lat="43.30093" lon="2.19151">
        <ele>240.6</ele>
        <time>2019-06-09T06:58:17.000Z</time>
      </trkpt>
      <trkpt lat="43.30094" lon="2.19153">
        <ele>240.6</ele>
        <time>2019-06-09T06:58:18.000Z</time>
      </trkpt>
      <trkpt lat="43.30095" lon="2.19154">
        <ele>240.7</ele>
        <time>2019-06-09T06:58:19.000Z</time>
      </trkpt>
      <trkpt lat="43.30096" lon="2.19156">
        <ele>240.7</ele>
        <time>2019-06-09T06:58:20.000Z</time>
      </trkpt>
      <trkpt lat="43.30096" lon="2.19158">
        <ele>240.8</ele>
        <time>2019-06-09T06:58:21.000Z</time>
      </trkpt>
      <trkpt lat="43.30097" lon="2.1916">
        <ele>240.8</ele>
        <time>2019-06-09T06:58:22.000Z</time>
      </trkpt>
      <trkpt lat="43.30098" lon="2.19162">
        <ele>240.9</ele>
        <time>2019-06-09T06:58:23.000Z</time>
      </trkpt>
      <trkpt lat="43.30099" lon="2.19164">
        <ele>240.9</ele>
        <time>2019-06-09T06:58:24.000Z</time>
      </trkpt>
      <trkpt lat="43.301" lon="2.19166">
        <ele>241</ele>
        <time>2019-06-09T06:58:25.000Z</time>
      </trkpt>
      <trkpt lat="43.30101" lon="2.19168">
        <ele>241.1</ele>
        <time>2019-06-09T06:58:26.000Z</time>
      </trkpt>
      <trkpt lat="43.30103" lon="2.19169">
        <ele>241.2</ele>
        <time>2019-06-09T06:58:27.000Z</time>
      </trkpt>
      <trkpt lat="43.30104" lon="2.19171">
        <ele>241.3</ele>
        <time>2019-06-09T06:58:28.000Z</time>
      </trkpt>
      <trkpt lat="43.30105" lon="2.19173">
        <ele>241.4</ele>
        <time>2019-06-09T06:58:29.000Z</time>
      </trkpt>
      <trkpt lat="43.30107" lon="2.19174">
        <ele>241.5</ele>
        <time>2019-06-09T06:58:30.000Z</time>
      </trkpt>
      <trkpt lat="43.30108" lon="2.19176">
        <ele>241.6</ele>
        <time>2019-06-09T06:58:31.000Z</time>
      </trkpt>
      <trkpt lat="43.3011" lon="2.19177">
        <ele>241.7</ele>
        <time>2019-06-09T06:58:32.000Z</time>
      </trkpt>
      <trkpt lat="43.30112" lon="2.19178">
        <ele>241.8</ele>
        <time>2019-06-09T06:58:33.000Z</time>
      </trkpt>
      <trkpt lat="43.30113" lon="2.1918">
        <ele>241.9</ele>
        <time>2019-06-09T06:58:34.000Z</time>
      </trkpt>
      <trkpt lat="43.30115" lon="2.19181">
        <ele>242</ele>
        <time>2019-06-09T06:58:35.000Z</time>
      </trkpt>
      <trkpt lat="43.30117" lon="2.19182">
        <ele>242.1</ele>
        <time>2019-06-09T06:58:36.000Z</time>
      </trkpt>
      <trkpt lat="43.30118" lon="2.19183">
        <ele>242.2</ele>
        <time>2019-06-09T06:58:37.000Z</time>
      </trkpt>
      <trkpt lat="43.3012" lon="2.19184">
        <ele>242.3</ele>
        <time>2019-06-09T06:58:38.000Z</time>
      </trkpt>
      <trkpt lat="43.30122" lon="2.19185">
        <ele>242.4</ele>
        <time>2019-06-09T06:58:39.000Z</time>
      </trkpt>
      <trkpt lat="43.30124" lon="2.19186">
        <ele>242.5</ele>
        <time>2019-06-09T06:58:40.000Z</time>
      </trkpt>
      <trkpt lat="43.30125" lon="2.19187">
        <ele>242.6</ele>
        <time>2019-06-09T06:58:41.000Z</time>
      </trkpt>
      <trkpt lat="43.30127" lon="2.19188">
        <ele>242.7</ele>
        <time>2019-06-09T06:58:42.000Z</time>
      </trkpt>
      <trkpt lat="43.30129" lon="2.19189">
        <ele>242.8</ele>
        <time>2019-06-09T06:58:43.000Z</time>
      </trkpt>
      <trkpt lat="43.3013" lon="2.1919">
        <ele>242.9</ele>
        <time>2019-06-09T06:58:44.000Z</time>
      </trkpt>
      <trkpt lat="43.30132" lon="2.19191">
        <ele>243</ele>
        <time>2019-06-09T06:58:45.000Z</time>
      </trkpt>
      <trkpt lat="43.30134" lon="2.19192">
        <ele>243.1</ele>
        <time>2019-06-09T06:58:46.000Z</time>
      </trkpt>
      <trkpt lat="43.30135" lon="2.19193">
        <ele>243.2</ele>
        <time>2019-06-09T06:58:47.000Z</time>
      </trkpt>
      <trkpt lat="43.30137" lon="2.19194">
        <ele>243.3</ele>
        <time>2019-06-09T06:58:48.000Z</time>
      </trkpt>
      <trkpt lat="43.30138" lon="2.19195">
        <ele>243.4</ele>
        <time>2019-06-09T06:58:49.000Z</time>
      </trkpt>
      <trkpt lat="43.3014" lon="2.19196">
        <ele>243.5</ele>
        <time>2019-06-09T06:58:50.000Z</time>
      </trkpt>
      <trkpt lat="43.30142" lon="2.19197">
        <ele>243.6</ele>
        <time>2019-06-09T06:58:51.000Z</time>
      </trkpt>
      <trkpt lat="43.30143" lon="2.19198">
        <ele>243.7</ele>
        <time>2019-06-09T06:58:52.000Z</time>
      </trkpt>
      <trkpt lat="43.30145" lon="2.19199">
        <ele>243.8</ele>
        <time>2019-06-09T06:58:53.000Z</time>
      </trkpt>
      <trkpt lat="43.30147" lon="2.19201">
        <ele>243.9</ele>
        <time>2019-06-09T06:58:54.000Z</time>
      </trkpt>
      <trkpt lat="43.30149" lon="2.19202">
        <ele>244</ele>
        <time>2019-06-09T06:58:55.000Z</time>
      </trkpt>
      <trkpt lat="43.3015" lon="2.19203">
        <ele>244.1</ele>
        <time>2019-06-09T06:58:56.000Z</time>
      </trkpt>
      <trkpt lat="43.30152" lon="2.19204">
        <ele>244.2</ele>
        <time>2019-06-09T06:58:57.000Z</time>
      </trkpt>
      <trkpt lat="43.30154" lon="2.19205">
        <ele>244.3</ele>
        <time>2019-06-09T06:58:58.000Z</time>
      </trkpt>
      <trkpt lat="43.30156" lon="2.19206">
        <ele>244.4</ele>
        <time>2019-06-09T06:58:59.000Z</time>
      </trkpt>
      <trkpt lat="43.30159" lon="2.19207">
        <ele>244.6</ele>
        <time>2019-06-09T06:59:00.000Z</time>
      </trkpt>
      <trkpt lat="43.30161" lon="2.19208">
        <ele>244.7</ele>
        <time>2019-06-09T06:59:01.000Z</time>
      </trkpt>
      <trkpt lat="43.30163" lon="2.19209">
        <ele>244.8</ele>
        <time>2019-06-09T06:59:02.000Z</time>
      </trkpt>
      <trkpt lat="43.30165" lon="2.1921">
        <ele>244.9</ele>
        <time>2019-06-09T06:59:03.000Z</time>
      </trkpt>
      <trkpt lat="43.30168" lon="2.19211">
        <ele>245.1</ele>
        <time>2019-06-09T06:59:04.000Z</time>
      </trkpt>
      <trkpt lat="43.3017" lon="2.19212">
        <ele>245.2</ele>
        <time>2019-06-09T06:59:05.000Z</time>
      </trkpt>
      <trkpt lat="43.30172" lon="2.19213">
        <ele>245.4</ele>
        <time>2019-06-09T06:59:06.000Z</time>
      </trkpt>
      <trkpt lat="43.30175" lon="2.19213">
        <ele>245.5</ele>
        <time>2019-06-09T06:59:07.000Z</time>
      </trkpt>
      <trkpt lat="43.30177" lon="2.19214">
        <ele>245.7</ele>
        <time>2019-06-09T06:59:08.000Z</time>
      </trkpt>
      <trkpt lat="43.3018" lon="2.19215">
        <ele>245.9</ele>
        <time>2019-06-09T06:59:09.000Z</time>
      </trkpt>
      <trkpt lat="43.30182" lon="2.19216">
        <ele>246</ele>
        <time>2019-06-09T06:59:10.000Z</time>
      </trkpt>
      <trkpt lat="43.30185" lon="2.19216">
        <ele>246.2</ele>
        <time>2019-06-09T06:59:11.000Z</time>
      </trkpt>
      <trkpt lat="43.30187" lon="2.19217">
        <ele>246.4</ele>
        <time>2019-06-09T06:59:12.000Z</time>
      </trkpt>
      <trkpt lat="43.3019" lon="2.19218">
        <ele>246.6</ele>
        <time>2019-06-09T06:59:13.000Z</time>
      </trkpt>
      <trkpt lat="43.30192" lon="2.19219">
        <ele>246.7</ele>
        <time>2019-06-09T06:59:14.000Z</time>
      </trkpt>
      <trkpt lat="43.30195" lon="2.1922">
        <ele>246.9</ele>
        <time>2019-06-09T06:59:15.000Z</time>
      </trkpt>
      <trkpt lat="43.30197" lon="2.1922">
        <ele>247.1</ele>
        <time>2019-06-09T06:59:16.000Z</time>
      </trkpt>
      <trkpt lat="43.302" lon="2.19221">
        <ele>247.2</ele>
        <time>2019-06-09T06:59:17.000Z</time>
      </trkpt>
      <trkpt lat="43.30202" lon="2.19222">
        <ele>247.4</ele>
        <time>2019-06-09T06:59:18.000Z</time>
      </trkpt>
      <trkpt lat="43.30205" lon="2.19223">
        <ele>247.6</ele>
        <time>2019-06-09T06:59:19.000Z</time>
      </trkpt>
      <trkpt lat="43.30207" lon="2.19223">
        <ele>247.8</ele>
        <time>2019-06-09T06:59:20.000Z</time>
      </trkpt>
      <trkpt lat="43.3021" lon="2.19224">
        <ele>247.9</ele>
        <time>2019-06-09T06:59:21.000Z</time>
      </trkpt>
      <trkpt lat="43.30212" lon="2.19225">
        <ele>248.1</ele>
        <time>2019-06-09T06:59:22.000Z</time>
      </trkpt>
      <trkpt lat="43.30215" lon="2.19226">
        <ele>248.3</ele>
        <time>2019-06-09T06:59:23.000Z</time>
      </trkpt>
      <trkpt lat="43.30217" lon="2.19226">
        <ele>248.5</ele>
        <time>2019-06-09T06:59:24.000Z</time>
      </trkpt>
      <trkpt lat="43.3022" lon="2.19227">
        <ele>248.7</ele>
        <time>2019-06-09T06:59:25.000Z</time>
      </trkpt>
      <trkpt lat="43.30223" lon="2.19228">
        <ele>248.8</ele>
        <time>2019-06-09T06:59:26.000Z</time>
      </trkpt>
      <trkpt lat="43.30225" lon="2.19228">
        <ele>249</ele>
        <time>2019-06-09T06:59:27.000Z</time>
      </trkpt>
      <trkpt lat="43.30228" lon="2.19229">
        <ele>249.2</ele>
        <time>2019-06-09T06:59:28.000Z</time>
      </trkpt>
      <trkpt lat="43.3023" lon="2.19229">
        <ele>249.4</ele>
        <time>2019-06-09T06:59:29.000Z</time>
      </trkpt>
      <trkpt lat="43.30233" lon="2.1923">
        <ele>249.6</ele>
        <time>2019-06-09T06:59:30.000Z</time>
      </trkpt>
      <trkpt lat="43.30236" lon="2.1923">
        <ele>249.8</ele>
        <time>2019-06-09T06:59:31.000Z</time>
      </trkpt>
      <trkpt lat="43.30238" lon="2.19231">
        <ele>250</ele>
        <time>2019-06-09T06:59:32.000Z</time>
      </trkpt>
      <trkpt lat="43.30241" lon="2.19231">
        <ele>250.2</ele>
        <time>2019-06-09T06:59:33.000Z</time>
      </trkpt>
      <trkpt lat="43.30244" lon="2.19232">
        <ele>250.4</ele>
        <time>2019-06-09T06:59:34.000Z</time>
      </trkpt>
      <trkpt lat="43.30246" lon="2.19232">
        <ele>250.5</ele>
        <time>2019-06-09T06:59:35.000Z</time>
      </trkpt>
      <trkpt lat="43.30249" lon="2.19233">
        <ele>250.7</ele>
        <time>2019-06-09T06:59:36.000Z</time>
      </trkpt>
      <trkpt lat="43.30252" lon="2.19233">
        <ele>250.9</ele>
        <time>2019-06-09T06:59:37.000Z</time>
      </trkpt>
      <trkpt lat="43.30254" lon="2.19233">
        <ele>251.1</ele>
        <time>2019-06-09T06:59:38.000Z</time>
      </trkpt>
      <trkpt lat="43.30257" lon="2.19234">
        <ele>251.3</ele>
        <time>2019-06-09T06:59:39.000Z</time>
      </trkpt>
      <trkpt lat="43.3026" lon="2.19234">
        <ele>251.5</ele>
        <time>2019-06-09T06:59:40.000Z</time>
      </trkpt>
      <trkpt lat="43.30262" lon="2.19234">
        <ele>251.7</ele>
        <time>2019-06-09T06:59:41.000Z</time>
      </trkpt>
      <trkpt lat="43.30265" lon="2.19235">
        <ele>251.9</ele>
        <time>2019-06-09T06:59:42.000Z</time>
      </trkpt>
      <trkpt lat="43.30267" lon="2.19235">
        <ele>252.1</ele>
        <time>2019-06-09T06:59:43.000Z</time>
      </trkpt>
      <trkpt lat="43.3027" lon="2.19235">
        <ele>252.2</ele>
        <time>2019-06-09T06:59:44.000Z</time>
      </trkpt>
      <trkpt lat="43.30272" lon="2.19235">
        <ele>252.4</ele>
        <time>2019-06-09T06:59:45.000Z</time>
      </trkpt>
      <trkpt lat="43.30275" lon="2.19236">
        <ele>252.6</ele>
        <time>2019-06-09T06:59:46.000Z</time>
      </trkpt>
      <trkpt lat="43.30277" lon="2.19236">
        <ele>252.8</ele>
        <time>2019-06-09T06:59:47.000Z</time>
      </trkpt>
      <trkpt lat="43.30279" lon="2.19236">
        <ele>252.9</ele>
        <time>2019-06-09T06:59:48.000Z</time>
      </trkpt>
      <trkpt lat="43.30282" lon="2.19236">
        <ele>253.1</ele>
        <time>2019-06-09T06:59:49.000Z</time>
      </trkpt>
      <trkpt lat="43.30284" lon="2.19237">
        <ele>253.3</ele>
        <time>2019-06-09T06:59:50.000Z</time>
      </trkpt>
      <trkpt lat="43.30287" lon="2.19237">
        <ele>253.5</ele>
        <time>2019-06-09T06:59:51.000Z</time>
      </trkpt>
      <trkpt lat="43.30289" lon="2.19237">
        <ele>253.6</ele>
        <time>2019-06-09T06:59:52.000Z</time>
      </trkpt>
      <trkpt lat="43.30291" lon="2.19237">
        <ele>253.8</ele>
        <time>2019-06-09T06:59:53.000Z</time>
      </trkpt>
      <trkpt lat="43.30294" lon="2.19237">
        <ele>254</ele>
        <time>2019-06-09T06:59:54.000Z</time>
      </trkpt>
      <trkpt lat="43.30296" lon="2.19237">
        <ele>254.2</ele>
        <time>2019-06-09T06:59:55.000Z</time>
      </trkpt>
      <trkpt lat="43.30299" lon="2.19237">
        <ele>254.4</ele>
        <time>2019-06-09T06:59:56.000Z</time>
      </trkpt>
      <trkpt lat="43.30301" lon="2.19237">
        <ele>254.5</ele>
        <time>2019-06-09T06:59:57.000Z</time>
      </trkpt>
      <trkpt lat="43.30304" lon="2.19237">
        <ele>254.7</ele>
        <time>2019-06-09T06:59:58.000Z</time>
      </trkpt>
      <trkpt lat="43.30306" lon="2.19237">
        <ele>254.9</ele>
        <time>2019-06-09T06:59:59.000Z</time>
      </trkpt>
      <trkpt lat="43.30309" lon="2.19237">
        <ele>255.1</ele>
        <time>2019-06-09T07:00:00.000Z</time>
      </trkpt>
      <trkpt lat="43.30311" lon="2.19236">
        <ele>255.3</ele>
        <time>2019-06-09T07:00:01.000Z</time>
      </trkpt>
      <trkpt lat="43.30314" lon="2.19236">
        <ele>255.4</ele>
        <time>2019-06-09T07:00:02.000Z</time>
      </trkpt>
      <trkpt lat="43.30316" lon="2.19236">
        <ele>255.6</ele>
        <time>2019-06-09T07:00:03.000Z</time>
      </trkpt>
      <trkpt lat="43.30319" lon="2.19236">
        <ele>255.8</ele>
        <time>2019-06-09T07:00:04.000Z</time>
      </trkpt>
      <trkpt lat="43.30322" lon="2.19236">
        <ele>256</ele>
        <time>2019-06-09T07:00:05.000Z</time>
      </trkpt>
      <trkpt lat="43.30324" lon="2.19236">
        <ele>256.2</ele>
        <time>2019-06-09T07:00:06.000Z</time>
      </trkpt>
      <trkpt lat="43.30327" lon="2.19235">
        <ele>256.3</ele>
        <time>2019-06-09T07:00:07.000Z</time>
      </trkpt>
      <trkpt lat="43.30329" lon="2.19235">
        <ele>256.5</ele>
        <time>2019-06-09T07:00:08.000Z</time>
      </trkpt>
      <trkpt lat="43.30332" lon="2.19235">
        <ele>256.7</ele>
        <time>2019-06-09T07:00:09.000Z</time>
      </trkpt>
      <trkpt lat="43.30334" lon="2.19235">
        <ele>256.9</ele>
        <time>2019-06-09T07:00:10.000Z</time>
      </trkpt>
      <trkpt lat="43.30337" lon="2.19234">
        <ele>257.1</ele>
        <time>2019-06-09T07:00:11.000Z</time>
      </trkpt>
      <trkpt lat="43.30339" lon="2.19234">
        <ele>257.3</ele>
        <time>2019-06-09T07:00:12.000Z</time>
      </trkpt>
      <trkpt lat="43.30342" lon="2.19233">
        <ele>257.5</ele>
        <time>2019-06-09T07:00:13.000Z</time>
      </trkpt>
      <trkpt lat="43.30344" lon="2.19233">
        <ele>257.7</ele>
        <time>2019-06-09T07:00:14.000Z</time>
      </trkpt>
      <trkpt lat="43.30347" lon="2.19232">
        <ele>257.9</ele>
        <time>2019-06-09T07:00:15.000Z</time>
      </trkpt>
      <trkpt lat="43.30349" lon="2.19231">
        <ele>258.1</ele>
        <time>2019-06-09T07:00:16.000Z</time>
      </trkpt>
      <trkpt lat="43.30352" lon="2.19231">
        <ele>258.3</ele>
        <time>2019-06-09T07:00:17.000Z</time>
      </trkpt>
      <trkpt lat="43.30354" lon="2.1923">
        <ele>258.4</ele>
        <time>2019-06-09T07:00:18.000Z</time>
      </trkpt>
      <trkpt lat="43.30357" lon="2.19229">
        <ele>258.6</ele>
        <time>2019-06-09T07:00:19.000Z</time>
      </trkpt>
      <trkpt lat="43.30359" lon="2.19228">
        <ele>258.8</ele>
        <time>2019-06-09T07:00:20.000Z</time>
      </trkpt>
      <trkpt lat="43.30362" lon="2.19227">
        <ele>259</ele>
        <time>2019-06-09T07:00:21.000Z</time>
      </trkpt>
      <trkpt lat="43.30364" lon="2.19226">
        <ele>259.2</ele>
        <time>2019-06-09T07:00:22.000Z</time>
      </trkpt>
      <trkpt lat="43.30367" lon="2.19225">
        <ele>259.4</ele>
        <time>2019-06-09T07:00:23.000Z</time>
      </trkpt>
      <trkpt lat="43.30369" lon="2.19225">
        <ele>259.6</ele>
        <time>2019-06-09T07:00:24.000Z</time>
      </trkpt>
      <trkpt lat="43.30372" lon="2.19224">
        <ele>259.7</ele>
        <time>2019-06-09T07:00:25.000Z</time>
      </trkpt>
      <trkpt lat="43.30374" lon="2.19223">
        <ele>259.9</ele>
        <time>2019-06-09T07:00:26.000Z</time>
      </trkpt>
      <trkpt lat="43.30376" lon="2.19222">
        <ele>260.1</ele>
        <time>2019-06-09T07:00:27.000Z</time>
      </trkpt>
      <trkpt lat="43.30379" lon="2.19221">
        <ele>260.3</ele>
        <time>2019-06-09T07:00:28.000Z</time>
      </trkpt>
      <trkpt lat="43.30381" lon="2.1922">
        <ele>260.4</ele>
        <time>2019-06-09T07:00:29.000Z</time>
      </trkpt>
      <trkpt lat="43.30383" lon="2.1922">
        <ele>260.6</ele>
        <time>2019-06-09T07:00:30.000Z</time>
      </trkpt>
      <trkpt lat="43.30385" lon="2.19219">
        <ele>260.7</ele>
        <time>2019-06-09T07:00:31.000Z</time>
      </trkpt>
      <trkpt lat="43.30387" lon="2.19219">
        <ele>260.9</ele>
        <time>2019-06-09T07:00:32.000Z</time>
      </trkpt>
      <trkpt lat="43.30389" lon="2.19218">
        <ele>261</ele>
        <time>2019-06-09T07:00:33.000Z</time>
      </trkpt>
      <trkpt lat="43.30391" lon="2.19218">
        <ele>261.2</ele>
        <time>2019-06-09T07:00:34.000Z</time>
      </trkpt>
      <trkpt lat="43.30393" lon="2.19217">
        <ele>261.3</ele>
        <time>2019-06-09T07:00:35.000Z</time>
      </trkpt>
      <trkpt lat="43.30395" lon="2.19217">
        <ele>261.5</ele>
        <time>2019-06-09T07:00:36.000Z</time>
      </trkpt>
      <trkpt lat="43.30398" lon="2.19216">
        <ele>261.7</ele>
        <time>2019-06-09T07:00:37.000Z</time>
      </trkpt>
      <trkpt lat="43.304" lon="2.19215">
        <ele>261.9</ele>
        <time>2019-06-09T07:00:38.000Z</time>
      </trkpt>
      <trkpt lat="43.30403" lon="2.19214">
        <ele>262.1</ele>
        <time>2019-06-09T07:00:39.000Z</time>
      </trkpt>
      <trkpt lat="43.30406" lon="2.19214">
        <ele>262.3</ele>
        <time>2019-06-09T07:00:40.000Z</time>
      </trkpt>
      <trkpt lat="43.30409" lon="2.19213">
        <ele>262.5</ele>
        <time>2019-06-09T07:00:41.000Z</time>
      </trkpt>
      <trkpt lat="43.30412" lon="2.19213">
        <ele>262.7</ele>
        <time>2019-06-09T07:00:42.000Z</time>
      </trkpt>
      <trkpt lat="43.30414" lon="2.19212">
        <ele>262.9</ele>
        <time>2019-06-09T07:00:43.000Z</time>
      </trkpt>
      <trkpt lat="43.30417" lon="2.19212">
        <ele>263.1</ele>
        <time>2019-06-09T07:00:44.000Z</time>
      </trkpt>
      <trkpt lat="43.3042" lon="2.19212">
        <ele>263.2</ele>
        <time>2019-06-09T07:00:45.000Z</time>
      </trkpt>
      <trkpt lat="43.30423" lon="2.19212">
        <ele>263.3</ele>
        <time>2019-06-09T07:00:46.000Z</time>
      </trkpt>
      <trkpt lat="43.30425" lon="2.19211">
        <ele>263.3</ele>
        <time>2019-06-09T07:00:47.000Z</time>
      </trkpt>
      <trkpt lat="43.30428" lon="2.19211">
        <ele>263.4</ele>
        <time>2019-06-09T07:00:48.000Z</time>
      </trkpt>
      <trkpt lat="43.3043" lon="2.19211">
        <ele>263.5</ele>
        <time>2019-06-09T07:00:49.000Z</time>
      </trkpt>
      <trkpt lat="43.30433" lon="2.19211">
        <ele>263.5</ele>
        <time>2019-06-09T07:00:50.000Z</time>
      </trkpt>
      <trkpt lat="43.30436" lon="2.19211">
        <ele>263.6</ele>
        <time>2019-06-09T07:00:51.000Z</time>
      </trkpt>
      <trkpt lat="43.30438" lon="2.1921">
        <ele>263.7</ele>
        <time>2019-06-09T07:00:52.000Z</time>
      </trkpt>
      <trkpt lat="43.30441" lon="2.1921">
        <ele>263.8</ele>
        <time>2019-06-09T07:00:53.000Z</time>
      </trkpt>
      <trkpt lat="43.30444" lon="2.1921">
        <ele>263.8</ele>
        <time>2019-06-09T07:00:54.000Z</time>
      </trkpt>
      <trkpt lat="43.30446" lon="2.19209">
        <ele>263.9</ele>
        <time>2019-06-09T07:00:55.000Z</time>
      </trkpt>
      <trkpt lat="43.30449" lon="2.19209">
        <ele>264</ele>
        <time>2019-06-09T07:00:56.000Z</time>
      </trkpt>
      <trkpt lat="43.30452" lon="2.19208">
        <ele>264.1</ele>
        <time>2019-06-09T07:00:57.000Z</time>
      </trkpt>
      <trkpt lat="43.30455" lon="2.19208">
        <ele>264.1</ele>
        <time>2019-06-09T07:00:58.000Z</time>
      </trkpt>
      <trkpt lat="43.30458" lon="2.19208">
        <ele>264.2</ele>
        <time>2019-06-09T07:00:59.000Z</time>
      </trkpt>
      <trkpt lat="43.3046" lon="2.19207">
        <ele>264.3</ele>
        <time>2019-06-09T07:01:00.000Z</time>
      </trkpt>
      <trkpt lat="43.30463" lon="2.19207">
        <ele>264.4</ele>
        <time>2019-06-09T07:01:01.000Z</time>
      </trkpt>
      <trkpt lat="43.30466" lon="2.19206">
        <ele>264.4</ele>
        <time>2019-06-09T07:01:02.000Z</time>
      </trkpt>
      <trkpt lat="43.30469" lon="2.19206">
        <ele>264.5</ele>
        <time>2019-06-09T07:01:03.000Z</time>
      </trkpt>
      <trkpt lat="43.30471" lon="2.19205">
        <ele>264.6</ele>
        <time>2019-06-09T07:01:04.000Z</time>
      </trkpt>
      <trkpt lat="43.30474" lon="2.19205">
        <ele>264.7</ele>
        <time>2019-06-09T07:01:05.000Z</time>
      </trkpt>
      <trkpt lat="43.30477" lon="2.19205">
        <ele>264.7</ele>
        <time>2019-06-09T07:01:06.000Z</time>
      </trkpt>
      <trkpt lat="43.30479" lon="2.19204">
        <ele>264.8</ele>
        <time>2019-06-09T07:01:07.000Z</time>
      </trkpt>
      <trkpt lat="43.30482" lon="2.19204">
        <ele>264.9</ele>
        <time>2019-06-09T07:01:08.000Z</time>
      </trkpt>
      <trkpt lat="43.30485" lon="2.19204">
        <ele>265</ele>
        <time>2019-06-09T07:01:09.000Z</time>
      </trkpt>
      <trkpt lat="43.30487" lon="2.19204">
        <ele>265</ele>
        <time>2019-06-09T07:01:10.000Z</time>
      </trkpt>
      <trkpt lat="43.3049" lon="2.19203">
        <ele>265.1</ele>
        <time>2019-06-09T07:01:11.000Z</time>
      </trkpt>
      <trkpt lat="43.30492" lon="2.19203">
        <ele>265.2</ele>
        <time>2019-06-09T07:01:12.000Z</time>
      </trkpt>
      <trkpt lat="43.30495" lon="2.19203">
        <ele>265.3</ele>
        <time>2019-06-09T07:01:13.000Z</time>
      </trkpt>
      <trkpt lat="43.30497" lon="2.19203">
        <ele>265.3</ele>
        <time>2019-06-09T07:01:14.000Z</time>
      </trkpt>
      <trkpt lat="43.305" lon="2.19203">
        <ele>265.4</ele>
        <time>2019-06-09T07:01:15.000Z</time>
      </trkpt>
      <trkpt lat="43.30502" lon="2.19203">
        <ele>265.6</ele>
        <time>2019-06-09T07:01:16.000Z</time>
      </trkpt>
      <trkpt lat="43.30505" lon="2.19203">
        <ele>265.7</ele>
        <time>2019-06-09T07:01:17.000Z</time>
      </trkpt>
      <trkpt lat="43.30507" lon="2.19203">
        <ele>265.9</ele>
        <time>2019-06-09T07:01:18.000Z</time>
      </trkpt>
      <trkpt lat="43.3051" lon="2.19203">
        <ele>266.1</ele>
        <time>2019-06-09T07:01:19.000Z</time>
      </trkpt>
      <trkpt lat="43.30512" lon="2.19203">
        <ele>266.2</ele>
        <time>2019-06-09T07:01:20.000Z</time>
      </trkpt>
      <trkpt lat="43.30514" lon="2.19203">
        <ele>266.4</ele>
        <time>2019-06-09T07:01:21.000Z</time>
      </trkpt>
      <trkpt lat="43.30517" lon="2.19203">
        <ele>266.5</ele>
        <time>2019-06-09T07:01:22.000Z</time>
      </trkpt>
      <trkpt lat="43.30519" lon="2.19203">
        <ele>266.7</ele>
        <time>2019-06-09T07:01:23.000Z</time>
      </trkpt>
      <trkpt lat="43.30521" lon="2.19203">
        <ele>266.9</ele>
        <time>2019-06-09T07:01:24.000Z</time>
      </trkpt>
      <trkpt lat="43.30524" lon="2.19203">
        <ele>267</ele>
        <time>2019-06-09T07:01:25.000Z</time>
      </trkpt>
      <trkpt lat="43.30526" lon="2.19203">
        <ele>267.2</ele>
        <time>2019-06-09T07:01:26.000Z</time>
      </trkpt>
      <trkpt lat="43.30528" lon="2.19203">
        <ele>267.3</ele>
        <time>2019-06-09T07:01:27.000Z</time>
      </trkpt>
      <trkpt lat="43.30531" lon="2.19203">
        <ele>267.5</ele>
        <time>2019-06-09T07:01:28.000Z</time>
      </trkpt>
      <trkpt lat="43.30533" lon="2.19203">
        <ele>267.6</ele>
        <time>2019-06-09T07:01:29.000Z</time>
      </trkpt>
      <trkpt lat="43.30535" lon="2.19203">
        <ele>267.8</ele>
        <time>2019-06-09T07:01:30.000Z</time>
      </trkpt>
      <trkpt lat="43.30538" lon="2.19203">
        <ele>267.9</ele>
        <time>2019-06-09T07:01:31.000Z</time>
      </trkpt>
      <trkpt lat="43.3054" lon="2.19202">
        <ele>268.1</ele>
        <time>2019-06-09T07:01:32.000Z</time>
      </trkpt>
      <trkpt lat="43.30542" lon="2.19202">
        <ele>268.2</ele>
        <time>2019-06-09T07:01:33.000Z</time>
      </trkpt>
      <trkpt lat="43.30544" lon="2.19202">
        <ele>268.4</ele>
        <time>2019-06-09T07:01:34.000Z</time>
      </trkpt>
      <trkpt lat="43.30546" lon="2.19202">
        <ele>268.5</ele>
        <time>2019-06-09T07:01:35.000Z</time>
      </trkpt>
      <trkpt lat="43.30549" lon="2.19202">
        <ele>268.7</ele>
        <time>2019-06-09T07:01:36.000Z</time>
      </trkpt>
      <trkpt lat="43.30551" lon="2.19202">
        <ele>268.8</ele>
        <time>2019-06-09T07:01:37.000Z</time>
      </trkpt>
      <trkpt lat="43.30553" lon="2.19201">
        <ele>269</ele>
        <time>2019-06-09T07:01:38.000Z</time>
      </trkpt>
      <trkpt lat="43.30555" lon="2.19201">
        <ele>269.1</ele>
        <time>2019-06-09T07:01:39.000Z</time>
      </trkpt>
      <trkpt lat="43.30557" lon="2.19201">
        <ele>269.3</ele>
        <time>2019-06-09T07:01:40.000Z</time>
      </trkpt>
      <trkpt lat="43.3056" lon="2.19201">
        <ele>269.4</ele>
        <time>2019-06-09T07:01:41.000Z</time>
      </trkpt>
      <trkpt lat="43.30562" lon="2.19201">
        <ele>269.6</ele>
        <time>2019-06-09T07:01:42.000Z</time>
      </trkpt>
      <trkpt lat="43.30564" lon="2.19201">
        <ele>269.7</ele>
        <time>2019-06-09T07:01:43.000Z</time>
      </trkpt>
      <trkpt lat="43.30566" lon="2.19201">
        <ele>269.8</ele>
        <time>2019-06-09T07:01:44.000Z</time>
      </trkpt>
      <trkpt lat="43.30568" lon="2.19201">
        <ele>270</ele>
        <time>2019-06-09T07:01:45.000Z</time>
      </trkpt>
      <trkpt lat="43.3057" lon="2.19202">
        <ele>270.1</ele>
        <time>2019-06-09T07:01:46.000Z</time>
      </trkpt>
      <trkpt lat="43.30572" lon="2.19202">
        <ele>270.3</ele>
        <time>2019-06-09T07:01:47.000Z</time>
      </trkpt>
      <trkpt lat="43.30575" lon="2.19203">
        <ele>270.4</ele>
        <time>2019-06-09T07:01:48.000Z</time>
      </trkpt>
      <trkpt lat="43.30577" lon="2.19203">
        <ele>270.6</ele>
        <time>2019-06-09T07:01:49.000Z</time>
      </trkpt>
      <trkpt lat="43.30579" lon="2.19204">
        <ele>270.7</ele>
        <time>2019-06-09T07:01:50.000Z</time>
      </trkpt>
      <trkpt lat="43.30581" lon="2.19204">
        <ele>270.8</ele>
        <time>2019-06-09T07:01:51.000Z</time>
      </trkpt>
      <trkpt lat="43.30583" lon="2.19205">
        <ele>271</ele>
        <time>2019-06-09T07:01:52.000Z</time>
      </trkpt>
      <trkpt lat="43.30585" lon="2.19206">
        <ele>271.1</ele>
        <time>2019-06-09T07:01:53.000Z</time>
      </trkpt>
      <trkpt lat="43.30588" lon="2.19207">
        <ele>271.2</ele>
        <time>2019-06-09T07:01:54.000Z</time>
      </trkpt>
      <trkpt lat="43.3059" lon="2.19208">
        <ele>271.3</ele>
        <time>2019-06-09T07:01:55.000Z</time>
      </trkpt>
      <trkpt lat="43.30592" lon="2.19208">
        <ele>271.4</ele>
        <time>2019-06-09T07:01:56.000Z</time>
      </trkpt>
      <trkpt lat="43.30594" lon="2.19209">
        <ele>271.5</ele>
        <time>2019-06-09T07:01:57.000Z</time>
      </trkpt>
      <trkpt lat="43.30596" lon="2.1921">
        <ele>271.6</ele>
        <time>2019-06-09T07:01:58.000Z</time>
      </trkpt>
      <trkpt lat="43.30597" lon="2.1921">
        <ele>271.7</ele>
        <time>2019-06-09T07:01:59.000Z</time>
      </trkpt>
      <trkpt lat="43.30599" lon="2.19211">
        <ele>271.7</ele>
        <time>2019-06-09T07:02:00.000Z</time>
      </trkpt>
      <trkpt lat="43.30599" lon="2.19211">
        <ele>271.7</ele>
        <time>2019-06-09T07:02:01.000Z</time>
      </trkpt>
      <trkpt lat="43.30599" lon="2.19211">
        <ele>271.7</ele>
        <time>2019-06-09T07:02:02.000Z</time>
      </trkpt>
      <trkpt lat="43.30599" lon="2.19211">
        <ele>271.7</ele>
        <time>2019-06-09T07:02:03.000Z</time>
      </trkpt>
      <trkpt lat="43.30598" lon="2.1921">
        <ele>271.7</ele>
        <time>2019-06-09T07:02:04.000Z</time>
      </trkpt>
      <trkpt lat="43.30596" lon="2.1921">
        <ele>271.6</ele>
        <time>2019-06-09T07:02:05.000Z</time>
      </trkpt>
      <trkpt lat="43.30595" lon="2.19209">
        <ele>271.5</ele>
        <time>2019-06-09T07:02:06.000Z</time>
      </trkpt>
      <trkpt lat="43.30593" lon="2.19209">
        <ele>271.5</ele>
        <time>2019-06-09T07:02:07.000Z</time>
      </trkpt>
      <trkpt lat="43.30591" lon="2.19208">
        <ele>271.4</ele>
        <time>2019-06-09T07:02:08.000Z</time>
      </trkpt>
      <trkpt lat="43.30589" lon="2.19207">
        <ele>271.3</ele>
        <time>2019-06-09T07:02:09.000Z</time>
      </trkpt>
      <trkpt lat="43.30587" lon="2.19206">
        <ele>271.2</ele>
        <time>2019-06-09T07:02:10.000Z</time>
      </trkpt>
      <trkpt lat="43.30585" lon="2.19205">
        <ele>271.1</ele>
        <time>2019-06-09T07:02:11.000Z</time>
      </trkpt>
      <trkpt lat="43.30583" lon="2.19205">
        <ele>271</ele>
        <time>2019-06-09T07:02:12.000Z</time>
      </trkpt>
      <trkpt lat="43.30581" lon="2.19204">
        <ele>270.8</ele>
        <time>2019-06-09T07:02:13.000Z</time>
      </trkpt>
      <trkpt lat="43.30579" lon="2.19203">
        <ele>270.7</ele>
        <time>2019-06-09T07:02:14.000Z</time>
      </trkpt>
      <trkpt lat="43.30577" lon="2.19202">
        <ele>270.5</ele>
        <time>2019-06-09T07:02:15.000Z</time>
      </trkpt>
      <trkpt lat="43.30575" lon="2.19202">
        <ele>270.4</ele>
        <time>2019-06-09T07:02:16.000Z</time>
      </trkpt>
      <trkpt lat="43.30572" lon="2.19201">
        <ele>270.3</ele>
        <time>2019-06-09T07:02:17.000Z</time>
      </trkpt>
      <trkpt lat="43.3057" lon="2.192">
        <ele>270.1</ele>
        <time>2019-06-09T07:02:18.000Z</time>
      </trkpt>
      <trkpt lat="43.30568" lon="2.19199">
        <ele>269.9</ele>
        <time>2019-06-09T07:02:19.000Z</time>
      </trkpt>
      <trkpt lat="43.30565" lon="2.19198">
        <ele>269.8</ele>
        <time>2019-06-09T07:02:20.000Z</time>
      </trkpt>
      <trkpt lat="43.30563" lon="2.19198">
        <ele>269.6</ele>
        <time>2019-06-09T07:02:21.000Z</time>
      </trkpt>
      <trkpt lat="43.30561" lon="2.19197">
        <ele>269.5</ele>
        <time>2019-06-09T07:02:22.000Z</time>
      </trkpt>
      <trkpt lat="43.30558" lon="2.19196">
        <ele>269.3</ele>
        <time>2019-06-09T07:02:23.000Z</time>
      </trkpt>
      <trkpt lat="43.30556" lon="2.19196">
        <ele>269.1</ele>
        <time>2019-06-09T07:02:24.000Z</time>
      </trkpt>
      <trkpt lat="43.30554" lon="2.19196">
        <ele>269</ele>
        <time>2019-06-09T07:02:25.000Z</time>
      </trkpt>
      <trkpt lat="43.30551" lon="2.19195">
        <ele>268.8</ele>
        <time>2019-06-09T07:02:26.000Z</time>
      </trkpt>
      <trkpt lat="43.30549" lon="2.19195">
        <ele>268.7</ele>
        <time>2019-06-09T07:02:27.000Z</time>
      </trkpt>
      <trkpt lat="43.30547" lon="2.19196">
        <ele>268.5</ele>
        <time>2019-06-09T07:02:28.000Z</time>
      </trkpt>
      <trkpt lat="43.30546" lon="2.19196">
        <ele>268.4</ele>
        <time>2019-06-09T07:02:29.000Z</time>
      </trkpt>
      <trkpt lat="43.30544" lon="2.19196">
        <ele>268.3</ele>
        <time>2019-06-09T07:02:30.000Z</time>
      </trkpt>
      <trkpt lat="43.30543" lon="2.19196">
        <ele>268.3</ele>
        <time>2019-06-09T07:02:31.000Z</time>
      </trkpt>
      <trkpt lat="43.30544" lon="2.19197">
        <ele>268.3</ele>
        <time>2019-06-09T07:02:32.000Z</time>
      </trkpt>
      <trkpt lat="43.30545" lon="2.19197">
        <ele>268.4</ele>
        <time>2019-06-09T07:02:33.000Z</time>
      </trkpt>
      <trkpt lat="43.30547" lon="2.19197">
        <ele>268.5</ele>
        <time>2019-06-09T07:02:34.000Z</time>
      </trkpt>
      <trkpt lat="43.30549" lon="2.19198">
        <ele>268.7</ele>
        <time>2019-06-09T07:02:35.000Z</time>
      </trkpt>
      <trkpt lat="43.30552" lon="2.19198">
        <ele>268.9</ele>
        <time>2019-06-09T07:02:36.000Z</time>
      </trkpt>
      <trkpt lat="43.30554" lon="2.19198">
        <ele>269</ele>
        <time>2019-06-09T07:02:37.000Z</time>
      </trkpt>
      <trkpt lat="43.30556" lon="2.19197">
        <ele>269.1</ele>
        <time>2019-06-09T07:02:38.000Z</time>
      </trkpt>
      <trkpt lat="43.30558" lon="2.19197">
        <ele>269.3</ele>
        <time>2019-06-09T07:02:39.000Z</time>
      </trkpt>
      <trkpt lat="43.3056" lon="2.19197">
        <ele>269.4</ele>
        <time>2019-06-09T07:02:40.000Z</time>
      </trkpt>
      <trkpt lat="43.30562" lon="2.19197">
        <ele>269.5</ele>
        <time>2019-06-09T07:02:41.000Z</time>
      </trkpt>
      <trkpt lat="43.30564" lon="2.19197">
        <ele>269.7</ele>
        <time>2019-06-09T07:02:42.000Z</time>
      </trkpt>
      <trkpt lat="43.30566" lon="2.19197">
        <ele>269.8</ele>
        <time>2019-06-09T07:02:43.000Z</time>
      </trkpt>
      <trkpt lat="43.30567" lon="2.19198">
        <ele>269.9</ele>
        <time>2019-06-09T07:02:44.000Z</time>
      </trkpt>
      <trkpt lat="43.30569" lon="2.19199">
        <ele>270</ele>
        <time>2019-06-09T07:02:45.000Z</time>
      </trkpt>
      <trkpt lat="43.30571" lon="2.19199">
        <ele>270.2</ele>
        <time>2019-06-09T07:02:46.000Z</time>
      </trkpt>
      <trkpt lat="43.30573" lon="2.192">
        <ele>270.3</ele>
        <time>2019-06-09T07:02:47.000Z</time>
      </trkpt>
      <trkpt lat="43.30575" lon="2.192">
        <ele>270.4</ele>
        <time>2019-06-09T07:02:48.000Z</time>
      </trkpt>
      <trkpt lat="43.30577" lon="2.19201">
        <ele>270.5</ele>
        <time>2019-06-09T07:02:49.000Z</time>
      </trkpt>
      <trkpt lat="43.30579" lon="2.19202">
        <ele>270.7</ele>
        <time>2019-06-09T07:02:50.000Z</time>
      </trkpt>
      <trkpt lat="43.3058" lon="2.19202">
        <ele>270.8</ele>
        <time>2019-06-09T07:02:51.000Z</time>
      </trkpt>
      <trkpt lat="43.30582" lon="2.19202">
        <ele>270.9</ele>
        <time>2019-06-09T07:02:52.000Z</time>
      </trkpt>
      <trkpt lat="43.30584" lon="2.19203">
        <ele>271</ele>
        <time>2019-06-09T07:02:53.000Z</time>
      </trkpt>
      <trkpt lat="43.30586" lon="2.19203">
        <ele>271.1</ele>
        <time>2019-06-09T07:02:54.000Z</time>
      </trkpt>
      <trkpt lat="43.30588" lon="2.19204">
        <ele>271.2</ele>
        <time>2019-06-09T07:02:55.000Z</time>
      </trkpt>
      <trkpt lat="43.3059" lon="2.19204">
        <ele>271.3</ele>
        <time>2019-06-09T07:02:56.000Z</time>
      </trkpt>
      <trkpt lat="43.30592" lon="2.19204">
        <ele>271.4</ele>
        <time>2019-06-09T07:02:57.000Z</time>
      </trkpt>
      <trkpt lat="43.30594" lon="2.19205">
        <ele>271.5</ele>
        <time>2019-06-09T07:02:58.000Z</time>
      </trkpt>
      <trkpt lat="43.30596" lon="2.19205">
        <ele>271.6</ele>
        <time>2019-06-09T07:02:59.000Z</time>
      </trkpt>
      <trkpt lat="43.30597" lon="2.19205">
        <ele>271.7</ele>
        <time>2019-06-09T07:03:00.000Z</time>
      </trkpt>
      <trkpt lat="43.30599" lon="2.19205">
        <ele>271.8</ele>
        <time>2019-06-09T07:03:01.000Z</time>
      </trkpt>
      <trkpt lat="43.306" lon="2.19205">
        <ele>271.8</ele>
        <time>2019-06-09T07:03:02.000Z</time>
      </trkpt>
      <trkpt lat="43.30602" lon="2.19206">
        <ele>271.9</ele>
        <time>2019-06-09T07:03:03.000Z</time>
      </trkpt>
      <trkpt lat="43.30603" lon="2.19206">
        <ele>272</ele>
        <time>2019-06-09T07:03:04.000Z</time>
      </trkpt>
      <trkpt lat="43.30604" lon="2.19206">
        <ele>272</ele>
        <time>2019-06-09T07:03:05.000Z</time>
      </trkpt>
      <trkpt lat="43.30605" lon="2.19206">
        <ele>272.1</ele>
        <time>2019-06-09T07:03:06.000Z</time>
      </trkpt>
      <trkpt lat="43.30606" lon="2.19206">
        <ele>272.1</ele>
        <time>2019-06-09T07:03:07.000Z</time>
      </trkpt>
      <trkpt lat="43.30607" lon="2.19207">
        <ele>272.2</ele>
        <time>2019-06-09T07:03:08.000Z</time>
      </trkpt>
      <trkpt lat="43.30608" lon="2.19207">
        <ele>272.2</ele>
        <time>2019-06-09T07:03:09.000Z</time>
      </trkpt>
      <trkpt lat="43.30609" lon="2.19208">
        <ele>272.3</ele>
        <time>2019-06-09T07:03:10.000Z</time>
      </trkpt>
      <trkpt lat="43.30611" lon="2.19208">
        <ele>272.3</ele>
        <time>2019-06-09T07:03:11.000Z</time>
      </trkpt>
      <trkpt lat="43.30612" lon="2.19209">
        <ele>272.4</ele>
        <time>2019-06-09T07:03:12.000Z</time>
      </trkpt>
      <trkpt lat="43.30613" lon="2.1921">
        <ele>272.4</ele>
        <time>2019-06-09T07:03:13.000Z</time>
      </trkpt>
      <trkpt lat="43.30614" lon="2.19211">
        <ele>272.5</ele>
        <time>2019-06-09T07:03:14.000Z</time>
      </trkpt>
      <trkpt lat="43.30616" lon="2.19211">
        <ele>272.5</ele>
        <time>2019-06-09T07:03:15.000Z</time>
      </trkpt>
      <trkpt lat="43.30617" lon="2.19212">
        <ele>272.6</ele>
        <time>2019-06-09T07:03:16.000Z</time>
      </trkpt>
      <trkpt lat="43.30618" lon="2.19213">
        <ele>272.6</ele>
        <time>2019-06-09T07:03:17.000Z</time>
      </trkpt>
      <trkpt lat="43.3062" lon="2.19214">
        <ele>272.7</ele>
        <time>2019-06-09T07:03:18.000Z</time>
      </trkpt>
      <trkpt lat="43.30621" lon="2.19214">
        <ele>272.7</ele>
        <time>2019-06-09T07:03:19.000Z</time>
      </trkpt>
      <trkpt lat="43.30622" lon="2.19215">
        <ele>272.8</ele>
        <time>2019-06-09T07:03:20.000Z</time>
      </trkpt>
      <trkpt lat="43.30623" lon="2.19215">
        <ele>272.8</ele>
        <time>2019-06-09T07:03:21.000Z</time>
      </trkpt>
      <trkpt lat="43.30625" lon="2.19216">
        <ele>272.9</ele>
        <time>2019-06-09T07:03:22.000Z</time>
      </trkpt>
      <trkpt lat="43.30626" lon="2.19216">
        <ele>272.9</ele>
        <time>2019-06-09T07:03:23.000Z</time>
      </trkpt>
      <trkpt lat="43.30627" lon="2.19217">
        <ele>273</ele>
        <time>2019-06-09T07:03:24.000Z</time>
      </trkpt>
      <trkpt lat="43.30628" lon="2.19217">
        <ele>273</ele>
        <time>2019-06-09T07:03:25.000Z</time>
      </trkpt>
      <trkpt lat="43.3063" lon="2.19217">
        <ele>273.1</ele>
        <time>2019-06-09T07:03:26.000Z</time>
      </trkpt>
      <trkpt lat="43.30631" lon="2.19218">
        <ele>273.2</ele>
        <time>2019-06-09T07:03:27.000Z</time>
      </trkpt>
      <trkpt lat="43.30632" lon="2.19218">
        <ele>273.2</ele>
        <time>2019-06-09T07:03:28.000Z</time>
      </trkpt>
      <trkpt lat="43.30633" lon="2.19218">
        <ele>273.3</ele>
        <time>2019-06-09T07:03:29.000Z</time>
      </trkpt>
      <trkpt lat="43.30635" lon="2.19218">
        <ele>273.3</ele>
        <time>2019-06-09T07:03:30.000Z</time>
      </trkpt>
      <trkpt lat="43.30636" lon="2.19218">
        <ele>273.4</ele>
        <time>2019-06-09T07:03:31.000Z</time>
      </trkpt>
      <trkpt lat="43.30638" lon="2.19219">
        <ele>273.4</ele>
        <time>2019-06-09T07:03:32.000Z</time>
      </trkpt>
      <trkpt lat="43.30639" lon="2.19219">
        <ele>273.5</ele>
        <time>2019-06-09T07:03:33.000Z</time>
      </trkpt>
      <trkpt lat="43.30641" lon="2.19219">
        <ele>273.6</ele>
        <time>2019-06-09T07:03:34.000Z</time>
      </trkpt>
      <trkpt lat="43.30642" lon="2.19219">
        <ele>273.6</ele>
        <time>2019-06-09T07:03:35.000Z</time>
      </trkpt>
      <trkpt lat="43.30644" lon="2.19219">
        <ele>273.7</ele>
        <time>2019-06-09T07:03:36.000Z</time>
      </trkpt>
      <trkpt lat="43.30645" lon="2.19219">
        <ele>273.8</ele>
        <time>2019-06-09T07:03:37.000Z</time>
      </trkpt>
      <trkpt lat="43.30647" lon="2.19219">
        <ele>273.9</ele>
        <time>2019-06-09T07:03:38.000Z</time>
      </trkpt>
      <trkpt lat="43.30648" lon="2.19219">
        <ele>273.9</ele>
        <time>2019-06-09T07:03:39.000Z</time>
      </trkpt>
      <trkpt lat="43.3065" lon="2.19219">
        <ele>274</ele>
        <time>2019-06-09T07:03:40.000Z</time>
      </trkpt>
      <trkpt lat="43.30651" lon="2.19219">
        <ele>274.1</ele>
        <time>2019-06-09T07:03:41.000Z</time>
      </trkpt>
      <trkpt lat="43.30653" lon="2.19219">
        <ele>274.1</ele>
        <time>2019-06-09T07:03:42.000Z</time>
      </trkpt>
      <trkpt lat="43.30655" lon="2.19219">
        <ele>274.2</ele>
        <time>2019-06-09T07:03:43.000Z</time>
      </trkpt>
      <trkpt lat="43.30656" lon="2.19219">
        <ele>274.3</ele>
        <time>2019-06-09T07:03:44.000Z</time>
      </trkpt>
      <trkpt lat="43.30658" lon="2.19219">
        <ele>274.3</ele>
        <time>2019-06-09T07:03:45.000Z</time>
      </trkpt>
      <trkpt lat="43.30659" lon="2.19219">
        <ele>274.4</ele>
        <time>2019-06-09T07:03:46.000Z</time>
      </trkpt>
      <trkpt lat="43.30661" lon="2.19219">
        <ele>274.5</ele>
        <time>2019-06-09T07:03:47.000Z</time>
      </trkpt>
      <trkpt lat="43.30662" lon="2.1922">
        <ele>274.5</ele>
        <time>2019-06-09T07:03:48.000Z</time>
      </trkpt>
      <trkpt lat="43.30664" lon="2.1922">
        <ele>274.6</ele>
        <time>2019-06-09T07:03:49.000Z</time>
      </trkpt>
      <trkpt lat="43.30665" lon="2.1922">
        <ele>274.6</ele>
        <time>2019-06-09T07:03:50.000Z</time>
      </trkpt>
      <trkpt lat="43.30666" lon="2.19221">
        <ele>274.7</ele>
        <time>2019-06-09T07:03:51.000Z</time>
      </trkpt>
      <trkpt lat="43.30668" lon="2.19221">
        <ele>274.7</ele>
        <time>2019-06-09T07:03:52.000Z</time>
      </trkpt>
      <trkpt lat="43.30669" lon="2.19222">
        <ele>274.8</ele>
        <time>2019-06-09T07:03:53.000Z</time>
      </trkpt>
      <trkpt lat="43.3067" lon="2.19222">
        <ele>274.8</ele>
        <time>2019-06-09T07:03:54.000Z</time>
      </trkpt>
      <trkpt lat="43.30672" lon="2.19223">
        <ele>274.9</ele>
        <time>2019-06-09T07:03:55.000Z</time>
      </trkpt>
      <trkpt lat="43.30673" lon="2.19223">
        <ele>274.9</ele>
        <time>2019-06-09T07:03:56.000Z</time>
      </trkpt>
      <trkpt lat="43.30674" lon="2.19224">
        <ele>275</ele>
        <time>2019-06-09T07:03:57.000Z</time>
      </trkpt>
      <trkpt lat="43.30676" lon="2.19224">
        <ele>275</ele>
        <time>2019-06-09T07:03:58.000Z</time>
      </trkpt>
      <trkpt lat="43.30677" lon="2.19224">
        <ele>275.1</ele>
        <time>2019-06-09T07:03:59.000Z</time>
      </trkpt>
      <trkpt lat="43.30678" lon="2.19225">
        <ele>275.1</ele>
        <time>2019-06-09T07:04:00.000Z</time>
      </trkpt>
      <trkpt lat="43.3068" lon="2.19225">
        <ele>275.2</ele>
        <time>2019-06-09T07:04:01.000Z</time>
      </trkpt>
      <trkpt lat="43.30681" lon="2.19226">
        <ele>275.2</ele>
        <time>2019-06-09T07:04:02.000Z</time>
      </trkpt>
      <trkpt lat="43.30683" lon="2.19226">
        <ele>275.3</ele>
        <time>2019-06-09T07:04:03.000Z</time>
      </trkpt>
      <trkpt lat="43.30684" lon="2.19226">
        <ele>275.4</ele>
        <time>2019-06-09T07:04:04.000Z</time>
      </trkpt>
      <trkpt lat="43.30686" lon="2.19227">
        <ele>275.4</ele>
        <time>2019-06-09T07:04:05.000Z</time>
      </trkpt>
      <trkpt lat="43.30687" lon="2.19227">
        <ele>275.5</ele>
        <time>2019-06-09T07:04:06.000Z</time>
      </trkpt>
      <trkpt lat="43.30689" lon="2.19227">
        <ele>275.6</ele>
        <time>2019-06-09T07:04:07.000Z</time>
      </trkpt>
      <trkpt lat="43.30691" lon="2.19227">
        <ele>275.6</ele>
        <time>2019-06-09T07:04:08.000Z</time>
      </trkpt>
      <trkpt lat="43.30692" lon="2.19228">
        <ele>275.7</ele>
        <time>2019-06-09T07:04:09.000Z</time>
      </trkpt>
      <trkpt lat="43.30694" lon="2.19228">
        <ele>275.7</ele>
        <time>2019-06-09T07:04:10.000Z</time>
      </trkpt>
      <trkpt lat="43.30695" lon="2.19228">
        <ele>275.8</ele>
        <time>2019-06-09T07:04:11.000Z</time>
      </trkpt>
      <trkpt lat="43.30697" lon="2.19228">
        <ele>275.9</ele>
        <time>2019-06-09T07:04:12.000Z</time>
      </trkpt>
      <trkpt lat="43.30698" lon="2.19229">
        <ele>275.9</ele>
        <time>2019-06-09T07:04:13.000Z</time>
      </trkpt>
      <trkpt lat="43.307" lon="2.19229">
        <ele>276</ele>
        <time>2019-06-09T07:04:14.000Z</time>
      </trkpt>
      <trkpt lat="43.30701" lon="2.19229">
        <ele>276.1</ele>
        <time>2019-06-09T07:04:15.000Z</time>
      </trkpt>
      <trkpt lat="43.30703" lon="2.19229">
        <ele>276.1</ele>
        <time>2019-06-09T07:04:16.000Z</time>
      </trkpt>
      <trkpt lat="43.30704" lon="2.19229">
        <ele>276.2</ele>
        <time>2019-06-09T07:04:17.000Z</time>
      </trkpt>
      <trkpt lat="43.30706" lon="2.19229">
        <ele>276.3</ele>
        <time>2019-06-09T07:04:18.000Z</time>
      </trkpt>
      <trkpt lat="43.30707" lon="2.19229">
        <ele>276.3</ele>
        <time>2019-06-09T07:04:19.000Z</time>
      </trkpt>
      <trkpt lat="43.30709" lon="2.19229">
        <ele>276.4</ele>
        <time>2019-06-09T07:04:20.000Z</time>
      </trkpt>
      <trkpt lat="43.3071" lon="2.19229">
        <ele>276.4</ele>
        <time>2019-06-09T07:04:21.000Z</time>
      </trkpt>
      <trkpt lat="43.3071" lon="2.19229">
        <ele>276.5</ele>
        <time>2019-06-09T07:04:22.000Z</time>
      </trkpt>
      <trkpt lat="43.3071" lon="2.19229">
        <ele>276.5</ele>
        <time>2019-06-09T07:04:23.000Z</time>
      </trkpt>
      <trkpt lat="43.30711" lon="2.19229">
        <ele>276.5</ele>
        <time>2019-06-09T07:04:24.000Z</time>
      </trkpt>
      <trkpt lat="43.30712" lon="2.19229">
        <ele>276.6</ele>
        <time>2019-06-09T07:04:25.000Z</time>
      </trkpt>
      <trkpt lat="43.30714" lon="2.19229">
        <ele>276.6</ele>
        <time>2019-06-09T07:04:26.000Z</time>
      </trkpt>
      <trkpt lat="43.30715" lon="2.19229">
        <ele>276.7</ele>
        <time>2019-06-09T07:04:27.000Z</time>
      </trkpt>
      <trkpt lat="43.30715" lon="2.1923">
        <ele>276.7</ele>
        <time>2019-06-09T07:04:28.000Z</time>
      </trkpt>
      <trkpt lat="43.30716" lon="2.1923">
        <ele>276.7</ele>
        <time>2019-06-09T07:04:29.000Z</time>
      </trkpt>
      <trkpt lat="43.30717" lon="2.1923">
        <ele>276.7</ele>
        <time>2019-06-09T07:04:30.000Z</time>
      </trkpt>
      <trkpt lat="43.30718" lon="2.19231">
        <ele>276.8</ele>
        <time>2019-06-09T07:04:31.000Z</time>
      </trkpt>
      <trkpt lat="43.3072" lon="2.19232">
        <ele>276.9</ele>
        <time>2019-06-09T07:04:32.000Z</time>
      </trkpt>
      <trkpt lat="43.30722" lon="2.19232">
        <ele>276.9</ele>
        <time>2019-06-09T07:04:33.000Z</time>
      </trkpt>
      <trkpt lat="43.30724" lon="2.19233">
        <ele>277</ele>
        <time>2019-06-09T07:04:34.000Z</time>
      </trkpt>
      <trkpt lat="43.30726" lon="2.19234">
        <ele>277.1</ele>
        <time>2019-06-09T07:04:35.000Z</time>
      </trkpt>
      <trkpt lat="43.30728" lon="2.19235">
        <ele>277.2</ele>
        <time>2019-06-09T07:04:36.000Z</time>
      </trkpt>
      <trkpt lat="43.3073" lon="2.19236">
        <ele>277.2</ele>
        <time>2019-06-09T07:04:37.000Z</time>
      </trkpt>
      <trkpt lat="43.30731" lon="2.19237">
        <ele>277.3</ele>
        <time>2019-06-09T07:04:38.000Z</time>
      </trkpt>
      <trkpt lat="43.30733" lon="2.19237">
        <ele>277.3</ele>
        <time>2019-06-09T07:04:39.000Z</time>
      </trkpt>
      <trkpt lat="43.30734" lon="2.19238">
        <ele>277.4</ele>
        <time>2019-06-09T07:04:40.000Z</time>
      </trkpt>
      <trkpt lat="43.30736" lon="2.19239">
        <ele>277.5</ele>
        <time>2019-06-09T07:04:41.000Z</time>
      </trkpt>
      <trkpt lat="43.30737" lon="2.1924">
        <ele>277.5</ele>
        <time>2019-06-09T07:04:42.000Z</time>
      </trkpt>
      <trkpt lat="43.30738" lon="2.19241">
        <ele>277.5</ele>
        <time>2019-06-09T07:04:43.000Z</time>
      </trkpt>
      <trkpt lat="43.30739" lon="2.19243">
        <ele>277.6</ele>
        <time>2019-06-09T07:04:44.000Z</time>
      </trkpt>
      <trkpt lat="43.3074" lon="2.19244">
        <ele>277.6</ele>
        <time>2019-06-09T07:04:45.000Z</time>
      </trkpt>
      <trkpt lat="43.30742" lon="2.19245">
        <ele>277.7</ele>
        <time>2019-06-09T07:04:46.000Z</time>
      </trkpt>
      <trkpt lat="43.30743" lon="2.19246">
        <ele>277.7</ele>
        <time>2019-06-09T07:04:47.000Z</time>
      </trkpt>
      <trkpt lat="43.30744" lon="2.19247">
        <ele>277.7</ele>
        <time>2019-06-09T07:04:48.000Z</time>
      </trkpt>
      <trkpt lat="43.30745" lon="2.19249">
        <ele>277.8</ele>
        <time>2019-06-09T07:04:49.000Z</time>
      </trkpt>
      <trkpt lat="43.30746" lon="2.1925">
        <ele>277.8</ele>
        <time>2019-06-09T07:04:50.000Z</time>
      </trkpt>
      <trkpt lat="43.30747" lon="2.19251">
        <ele>277.8</ele>
        <time>2019-06-09T07:04:51.000Z</time>
      </trkpt>
      <trkpt lat="43.30748" lon="2.19253">
        <ele>277.8</ele>
        <time>2019-06-09T07:04:52.000Z</time>
      </trkpt>
      <trkpt lat="43.30749" lon="2.19254">
        <ele>277.8</ele>
        <time>2019-06-09T07:04:53.000Z</time>
      </trkpt>
      <trkpt lat="43.3075" lon="2.19256">
        <ele>277.9</ele>
        <time>2019-06-09T07:04:54.000Z</time>
      </trkpt>
      <trkpt lat="43.30751" lon="2.19258">
        <ele>277.9</ele>
        <time>2019-06-09T07:04:55.000Z</time>
      </trkpt>
      <trkpt lat="43.30752" lon="2.19259">
        <ele>277.9</ele>
        <time>2019-06-09T07:04:56.000Z</time>
      </trkpt>
      <trkpt lat="43.30753" lon="2.19261">
        <ele>277.9</ele>
        <time>2019-06-09T07:04:57.000Z</time>
      </trkpt>
      <trkpt lat="43.30754" lon="2.19263">
        <ele>277.9</ele>
        <time>2019-06-09T07:04:58.000Z</time>
      </trkpt>
      <trkpt lat="43.30755" lon="2.19264">
        <ele>277.9</ele>
        <time>2019-06-09T07:04:59.000Z</time>
      </trkpt>
      <trkpt lat="43.30756" lon="2.19266">
        <ele>278</ele>
        <time>2019-06-09T07:05:00.000Z</time>
      </trkpt>
      <trkpt lat="43.30757" lon="2.19268">
        <ele>278</ele>
        <time>2019-06-09T07:05:01.000Z</time>
      </trkpt>
      <trkpt lat="43.30758" lon="2.1927">
        <ele>278</ele>
        <time>2019-06-09T07:05:02.000Z</time>
      </trkpt>
      <trkpt lat="43.30759" lon="2.19271">
        <ele>278</ele>
        <time>2019-06-09T07:05:03.000Z</time>
      </trkpt>
      <trkpt lat="43.30759" lon="2.19273">
        <ele>278</ele>
        <time>2019-06-09T07:05:04.000Z</time>
      </trkpt>
      <trkpt lat="43.3076" lon="2.19275">
        <ele>278</ele>
        <time>2019-06-09T07:05:05.000Z</time>
      </trkpt>
      <trkpt lat="43.30761" lon="2.19277">
        <ele>278</ele>
        <time>2019-06-09T07:05:06.000Z</time>
      </trkpt>
      <trkpt lat="43.30761" lon="2.19279">
        <ele>278</ele>
        <time>2019-06-09T07:05:07.000Z</time>
      </trkpt>
      <trkpt lat="43.30762" lon="2.1928">
        <ele>278</ele>
        <time>2019-06-09T07:05:08.000Z</time>
      </trkpt>
      <trkpt lat="43.30762" lon="2.19282">
        <ele>278</ele>
        <time>2019-06-09T07:05:09.000Z</time>
      </trkpt>
      <trkpt lat="43.30762" lon="2.19284">
        <ele>278</ele>
        <time>2019-06-09T07:05:10.000Z</time>
      </trkpt>
      <trkpt lat="43.30763" lon="2.19286">
        <ele>277.9</ele>
        <time>2019-06-09T07:05:11.000Z</time>
      </trkpt>
      <trkpt lat="43.30763" lon="2.19288">
        <ele>277.9</ele>
        <time>2019-06-09T07:05:12.000Z</time>
      </trkpt>
      <trkpt lat="43.30763" lon="2.1929">
        <ele>277.9</ele>
        <time>2019-06-09T07:05:13.000Z</time>
      </trkpt>
      <trkpt lat="43.30764" lon="2.19291">
        <ele>277.9</ele>
        <time>2019-06-09T07:05:14.000Z</time>
      </trkpt>
      <trkpt lat="43.30764" lon="2.19293">
        <ele>277.9</ele>
        <time>2019-06-09T07:05:15.000Z</time>
      </trkpt>
      <trkpt lat="43.30764" lon="2.19295">
        <ele>277.9</ele>
        <time>2019-06-09T07:05:16.000Z</time>
      </trkpt>
      <trkpt lat="43.30765" lon="2.19297">
        <ele>277.9</ele>
        <time>2019-06-09T07:05:17.000Z</time>
      </trkpt>
      <trkpt lat="43.30765" lon="2.19299">
        <ele>277.9</ele>
        <time>2019-06-09T07:05:18.000Z</time>
      </trkpt>
      <trkpt lat="43.30766" lon="2.19301">
        <ele>277.9</ele>
        <time>2019-06-09T07:05:19.000Z</time>
      </trkpt>
      <trkpt lat="43.30767" lon="2.19302">
        <ele>277.9</ele>
        <time>2019-06-09T07:05:20.000Z</time>
      </trkpt>
      <trkpt lat="43.30767" lon="2.19304">
        <ele>277.9</ele>
        <time>2019-06-09T07:05:21.000Z</time>
      </trkpt>
      <trkpt lat="43.30768" lon="2.19305">
        <ele>278</ele>
        <time>2019-06-09T07:05:22.000Z</time>
      </trkpt>
      <trkpt lat="43.30769" lon="2.19307">
        <ele>278</ele>
        <time>2019-06-09T07:05:23.000Z</time>
      </trkpt>
      <trkpt lat="43.3077" lon="2.19308">
        <ele>278.1</ele>
        <time>2019-06-09T07:05:24.000Z</time>
      </trkpt>
      <trkpt lat="43.30771" lon="2.19308">
        <ele>278.1</ele>
        <time>2019-06-09T07:05:25.000Z</time>
      </trkpt>
      <trkpt lat="43.30772" lon="2.19309">
        <ele>278.2</ele>
        <time>2019-06-09T07:05:26.000Z</time>
      </trkpt>
      <trkpt lat="43.30773" lon="2.19309">
        <ele>278.3</ele>
        <time>2019-06-09T07:05:27.000Z</time>
      </trkpt>
      <trkpt lat="43.30774" lon="2.1931">
        <ele>278.4</ele>
        <time>2019-06-09T07:05:28.000Z</time>
      </trkpt>
      <trkpt lat="43.30775" lon="2.1931">
        <ele>278.4</ele>
        <time>2019-06-09T07:05:29.000Z</time>
      </trkpt>
      <trkpt lat="43.30777" lon="2.19311">
        <ele>278.5</ele>
        <time>2019-06-09T07:05:30.000Z</time>
      </trkpt>
      <trkpt lat="43.30778" lon="2.19312">
        <ele>278.6</ele>
        <time>2019-06-09T07:05:31.000Z</time>
      </trkpt>
      <trkpt lat="43.30779" lon="2.19313">
        <ele>278.7</ele>
        <time>2019-06-09T07:05:32.000Z</time>
      </trkpt>
      <trkpt lat="43.30781" lon="2.19313">
        <ele>278.8</ele>
        <time>2019-06-09T07:05:33.000Z</time>
      </trkpt>
      <trkpt lat="43.30782" lon="2.19314">
        <ele>278.9</ele>
        <time>2019-06-09T07:05:34.000Z</time>
      </trkpt>
      <trkpt lat="43.30784" lon="2.19315">
        <ele>279</ele>
        <time>2019-06-09T07:05:35.000Z</time>
      </trkpt>
      <trkpt lat="43.30785" lon="2.19316">
        <ele>279.1</ele>
        <time>2019-06-09T07:05:36.000Z</time>
      </trkpt>
      <trkpt lat="43.30787" lon="2.19317">
        <ele>279.2</ele>
        <time>2019-06-09T07:05:37.000Z</time>
      </trkpt>
      <trkpt lat="43.30789" lon="2.19318">
        <ele>279.3</ele>
        <time>2019-06-09T07:05:38.000Z</time>
      </trkpt>
      <trkpt lat="43.3079" lon="2.19319">
        <ele>279.5</ele>
        <time>2019-06-09T07:05:39.000Z</time>
      </trkpt>
      <trkpt lat="43.30792" lon="2.1932">
        <ele>279.6</ele>
        <time>2019-06-09T07:05:40.000Z</time>
      </trkpt>
      <trkpt lat="43.30794" lon="2.19321">
        <ele>279.8</ele>
        <time>2019-06-09T07:05:41.000Z</time>
      </trkpt>
      <trkpt lat="43.30796" lon="2.19322">
        <ele>279.9</ele>
        <time>2019-06-09T07:05:42.000Z</time>
      </trkpt>
      <trkpt lat="43.30798" lon="2.19323">
        <ele>280.1</ele>
        <time>2019-06-09T07:05:43.000Z</time>
      </trkpt>
      <trkpt lat="43.308" lon="2.19323">
        <ele>280.2</ele>
        <time>2019-06-09T07:05:44.000Z</time>
      </trkpt>
      <trkpt lat="43.30802" lon="2.19324">
        <ele>280.4</ele>
        <time>2019-06-09T07:05:45.000Z</time>
      </trkpt>
      <trkpt lat="43.30804" lon="2.19325">
        <ele>280.5</ele>
        <time>2019-06-09T07:05:46.000Z</time>
      </trkpt>
      <trkpt lat="43.30806" lon="2.19326">
        <ele>280.7</ele>
        <time>2019-06-09T07:05:47.000Z</time>
      </trkpt>
      <trkpt lat="43.30808" lon="2.19326">
        <ele>280.9</ele>
        <time>2019-06-09T07:05:48.000Z</time>
      </trkpt>
      <trkpt lat="43.3081" lon="2.19327">
        <ele>281</ele>
        <time>2019-06-09T07:05:49.000Z</time>
      </trkpt>
      <trkpt lat="43.30812" lon="2.19327">
        <ele>281.2</ele>
        <time>2019-06-09T07:05:50.000Z</time>
      </trkpt>
      <trkpt lat="43.30814" lon="2.19328">
        <ele>281.4</ele>
        <time>2019-06-09T07:05:51.000Z</time>
      </trkpt>
      <trkpt lat="43.30816" lon="2.19328">
        <ele>281.5</ele>
        <time>2019-06-09T07:05:52.000Z</time>
      </trkpt>
      <trkpt lat="43.30818" lon="2.19329">
        <ele>281.7</ele>
        <time>2019-06-09T07:05:53.000Z</time>
      </trkpt>
      <trkpt lat="43.3082" lon="2.19329">
        <ele>281.9</ele>
        <time>2019-06-09T07:05:54.000Z</time>
      </trkpt>
      <trkpt lat="43.30822" lon="2.19329">
        <ele>282</ele>
        <time>2019-06-09T07:05:55.000Z</time>
      </trkpt>
      <trkpt lat="43.30824" lon="2.1933">
        <ele>282.2</ele>
        <time>2019-06-09T07:05:56.000Z</time>
      </trkpt>
      <trkpt lat="43.30826" lon="2.19331">
        <ele>282.3</ele>
        <time>2019-06-09T07:05:57.000Z</time>
      </trkpt>
      <trkpt lat="43.30828" lon="2.19331">
        <ele>282.5</ele>
        <time>2019-06-09T07:05:58.000Z</time>
      </trkpt>
      <trkpt lat="43.3083" lon="2.19332">
        <ele>282.7</ele>
        <time>2019-06-09T07:05:59.000Z</time>
      </trkpt>
      <trkpt lat="43.30832" lon="2.19333">
        <ele>282.8</ele>
        <time>2019-06-09T07:06:00.000Z</time>
      </trkpt>
      <trkpt lat="43.30834" lon="2.19335">
        <ele>283</ele>
        <time>2019-06-09T07:06:01.000Z</time>
      </trkpt>
      <trkpt lat="43.30835" lon="2.19336">
        <ele>282.9</ele>
        <time>2019-06-09T07:06:02.000Z</time>
      </trkpt>
      <trkpt lat="43.30838" lon="2.19337">
        <ele>282.8</ele>
        <time>2019-06-09T07:06:03.000Z</time>
      </trkpt>
      <trkpt lat="43.3084" lon="2.19339">
        <ele>282.8</ele>
        <time>2019-06-09T07:06:04.000Z</time>
      </trkpt>
      <trkpt lat="43.30842" lon="2.1934">
        <ele>282.7</ele>
        <time>2019-06-09T07:06:05.000Z</time>
      </trkpt>
      <trkpt lat="43.30844" lon="2.19341">
        <ele>282.6</ele>
        <time>2019-06-09T07:06:06.000Z</time>
      </trkpt>
      <trkpt lat="43.30846" lon="2.19342">
        <ele>282.6</ele>
        <time>2019-06-09T07:06:07.000Z</time>
      </trkpt>
      <trkpt lat="43.30848" lon="2.19343">
        <ele>282.5</ele>
        <time>2019-06-09T07:06:08.000Z</time>
      </trkpt>
      <trkpt lat="43.30851" lon="2.19345">
        <ele>282.4</ele>
        <time>2019-06-09T07:06:09.000Z</time>
      </trkpt>
      <trkpt lat="43.30853" lon="2.19346">
        <ele>282.3</ele>
        <time>2019-06-09T07:06:10.000Z</time>
      </trkpt>
      <trkpt lat="43.30855" lon="2.19347">
        <ele>282.2</ele>
        <time>2019-06-09T07:06:11.000Z</time>
      </trkpt>
      <trkpt lat="43.30858" lon="2.19348">
        <ele>282.1</ele>
        <time>2019-06-09T07:06:12.000Z</time>
      </trkpt>
      <trkpt lat="43.3086" lon="2.19349">
        <ele>282</ele>
        <time>2019-06-09T07:06:13.000Z</time>
      </trkpt>
      <trkpt lat="43.30862" lon="2.1935">
        <ele>281.9</ele>
        <time>2019-06-09T07:06:14.000Z</time>
      </trkpt>
      <trkpt lat="43.30865" lon="2.19351">
        <ele>281.8</ele>
        <time>2019-06-09T07:06:15.000Z</time>
      </trkpt>
      <trkpt lat="43.30867" lon="2.19352">
        <ele>281.7</ele>
        <time>2019-06-09T07:06:16.000Z</time>
      </trkpt>
      <trkpt lat="43.30869" lon="2.19353">
        <ele>281.6</ele>
        <time>2019-06-09T07:06:17.000Z</time>
      </trkpt>
      <trkpt lat="43.30872" lon="2.19354">
        <ele>281.5</ele>
        <time>2019-06-09T07:06:18.000Z</time>
      </trkpt>
      <trkpt lat="43.30874" lon="2.19355">
        <ele>281.3</ele>
        <time>2019-06-09T07:06:19.000Z</time>
      </trkpt>
      <trkpt lat="43.30876" lon="2.19356">
        <ele>281.2</ele>
        <time>2019-06-09T07:06:20.000Z</time>
      </trkpt>
      <trkpt lat="43.30878" lon="2.19358">
        <ele>281</ele>
        <time>2019-06-09T07:06:21.000Z</time>
      </trkpt>
      <trkpt lat="43.3088" lon="2.19359">
        <ele>280.9</ele>
        <time>2019-06-09T07:06:22.000Z</time>
      </trkpt>
      <trkpt lat="43.30882" lon="2.19361">
        <ele>280.7</ele>
        <time>2019-06-09T07:06:23.000Z</time>
      </trkpt>
      <trkpt lat="43.30885" lon="2.19362">
        <ele>280.5</ele>
        <time>2019-06-09T07:06:24.000Z</time>
      </trkpt>
      <trkpt lat="43.30887" lon="2.19364">
        <ele>280.3</ele>
        <time>2019-06-09T07:06:25.000Z</time>
      </trkpt>
      <trkpt lat="43.30888" lon="2.19366">
        <ele>280</ele>
        <time>2019-06-09T07:06:26.000Z</time>
      </trkpt>
      <trkpt lat="43.3089" lon="2.19368">
        <ele>279.8</ele>
        <time>2019-06-09T07:06:27.000Z</time>
      </trkpt>
      <trkpt lat="43.30892" lon="2.19369">
        <ele>279.6</ele>
        <time>2019-06-09T07:06:28.000Z</time>
      </trkpt>
      <trkpt lat="43.30894" lon="2.19371">
        <ele>279.3</ele>
        <time>2019-06-09T07:06:29.000Z</time>
      </trkpt>
      <trkpt lat="43.30896" lon="2.19373">
        <ele>279</ele>
        <time>2019-06-09T07:06:30.000Z</time>
      </trkpt>
      <trkpt lat="43.30898" lon="2.19375">
        <ele>278.8</ele>
        <time>2019-06-09T07:06:31.000Z</time>
      </trkpt>
      <trkpt lat="43.309" lon="2.19377">
        <ele>278.5</ele>
        <time>2019-06-09T07:06:32.000Z</time>
      </trkpt>
      <trkpt lat="43.30902" lon="2.19379">
        <ele>278.2</ele>
        <time>2019-06-09T07:06:33.000Z</time>
      </trkpt>
      <trkpt lat="43.30904" lon="2.19381">
        <ele>277.9</ele>
        <time>2019-06-09T07:06:34.000Z</time>
      </trkpt>
      <trkpt lat="43.30906" lon="2.19382">
        <ele>277.7</ele>
        <time>2019-06-09T07:06:35.000Z</time>
      </trkpt>
      <trkpt lat="43.30908" lon="2.19384">
        <ele>277.4</ele>
        <time>2019-06-09T07:06:36.000Z</time>
      </trkpt>
      <trkpt lat="43.3091" lon="2.19385">
        <ele>277.2</ele>
        <time>2019-06-09T07:06:37.000Z</time>
      </trkpt>
      <trkpt lat="43.30912" lon="2.19386">
        <ele>277</ele>
        <time>2019-06-09T07:06:38.000Z</time>
      </trkpt>
      <trkpt lat="43.30914" lon="2.19387">
        <ele>276.8</ele>
        <time>2019-06-09T07:06:39.000Z</time>
      </trkpt>
      <trkpt lat="43.30915" lon="2.19387">
        <ele>276.6</ele>
        <time>2019-06-09T07:06:40.000Z</time>
      </trkpt>
      <trkpt lat="43.30916" lon="2.19388">
        <ele>276.5</ele>
        <time>2019-06-09T07:06:41.000Z</time>
      </trkpt>
      <trkpt lat="43.30917" lon="2.19388">
        <ele>276.5</ele>
        <time>2019-06-09T07:06:42.000Z</time>
      </trkpt>
      <trkpt lat="43.30917" lon="2.19388">
        <ele>276.4</ele>
        <time>2019-06-09T07:06:43.000Z</time>
      </trkpt>
      <trkpt lat="43.30917" lon="2.19388">
        <ele>276.4</ele>
        <time>2019-06-09T07:06:44.000Z</time>
      </trkpt>
      <trkpt lat="43.30917" lon="2.19388">
        <ele>276.4</ele>
        <time>2019-06-09T07:06:45.000Z</time>
      </trkpt>
      <trkpt lat="43.30917" lon="2.19388">
        <ele>276.4</ele>
        <time>2019-06-09T07:06:46.000Z</time>
      </trkpt>
      <trkpt lat="43.30917" lon="2.19388">
        <ele>276.4</ele>
        <time>2019-06-09T07:06:47.000Z</time>
      </trkpt>
      <trkpt lat="43.30917" lon="2.19388">
        <ele>276.4</ele>
        <time>2019-06-09T07:06:48.000Z</time>
      </trkpt>
      <trkpt lat="43.30917" lon="2.19388">
        <ele>276.4</ele>
        <time>2019-06-09T07:06:49.000Z</time>
      </trkpt>
      <trkpt lat="43.30917" lon="2.19388">
        <ele>276.4</ele>
        <time>2019-06-09T07:06:50.000Z</time>
      </trkpt>
      <trkpt lat="43.30917" lon="2.19388">
        <ele>276.4</ele>
        <time>2019-06-09T07:06:51.000Z</time>
      </trkpt>
      <trkpt lat="43.30917" lon="2.19388">
        <ele>276.4</ele>
        <time>2019-06-09T07:06:52.000Z</time>
      </trkpt>
      <trkpt lat="43.30917" lon="2.19388">
        <ele>276.4</ele>
        <time>2019-06-09T07:06:53.000Z</time>
      </trkpt>
      <trkpt lat="43.30917" lon="2.19388">
        <ele>276.4</ele>
        <time>2019-06-09T07:06:54.000Z</time>
      </trkpt>
      <trkpt lat="43.30917" lon="2.19388">
        <ele>276.4</ele>
        <time>2019-06-09T07:06:55.000Z</time>
      </trkpt>
      <trkpt lat="43.30917" lon="2.19388">
        <ele>276.4</ele>
        <time>2019-06-09T07:06:56.000Z</time>
      </trkpt>
      <trkpt lat="43.30917" lon="2.19388">
        <ele>276.4</ele>
        <time>2019-06-09T07:06:57.000Z</time>
      </trkpt>
      <trkpt lat="43.30917" lon="2.19388">
        <ele>276.4</ele>
        <time>2019-06-09T07:06:58.000Z</time>
      </trkpt>
      <trkpt lat="43.30917" lon="2.19388">
        <ele>276.4</ele>
        <time>2019-06-09T07:06:59.000Z</time>
      </trkpt>
      <trkpt lat="43.30917" lon="2.19388">
        <ele>276.4</ele>
        <time>2019-06-09T07:07:00.000Z</time>
      </trkpt>
      <trkpt lat="43.30917" lon="2.19388">
        <ele>276.4</ele>
        <time>2019-06-09T07:07:01.000Z</time>
      </trkpt>
      <trkpt lat="43.30917" lon="2.19388">
        <ele>276.4</ele>
        <time>2019-06-09T07:07:02.000Z</time>
      </trkpt>
      <trkpt lat="43.30917" lon="2.19388">
        <ele>276.4</ele>
        <time>2019-06-09T07:07:03.000Z</time>
      </trkpt>
      <trkpt lat="43.30917" lon="2.19388">
        <ele>276.4</ele>
        <time>2019-06-09T07:07:04.000Z</time>
      </trkpt>
      <trkpt lat="43.30917" lon="2.19388">
        <ele>276.4</ele>
        <time>2019-06-09T07:07:05.000Z</time>
      </trkpt>
      <trkpt lat="43.30917" lon="2.19388">
        <ele>276.4</ele>
        <time>2019-06-09T07:07:06.000Z</time>
      </trkpt>
      <trkpt lat="43.30917" lon="2.19388">
        <ele>276.4</ele>
        <time>2019-06-09T07:07:07.000Z</time>
      </trkpt>
      <trkpt lat="43.30917" lon="2.19388">
        <ele>276.4</ele>
        <time>2019-06-09T07:07:08.000Z</time>
      </trkpt>
      <trkpt lat="43.30917" lon="2.19388">
        <ele>276.4</ele>
        <time>2019-06-09T07:07:09.000Z</time>
      </trkpt>
      <trkpt lat="43.30917" lon="2.19388">
        <ele>276.4</ele>
        <time>2019-06-09T07:07:10.000Z</time>
      </trkpt>
      <trkpt lat="43.30917" lon="2.19388">
        <ele>276.4</ele>
        <time>2019-06-09T07:07:11.000Z</time>
      </trkpt>
      <trkpt lat="43.30917" lon="2.19388">
        <ele>276.4</ele>
        <time>2019-06-09T07:07:12.000Z</time>
      </trkpt>
      <trkpt lat="43.30917" lon="2.19388">
        <ele>276.4</ele>
        <time>2019-06-09T07:07:13.000Z</time>
      </trkpt>
      <trkpt lat="43.30917" lon="2.19388">
        <ele>276.4</ele>
        <time>2019-06-09T07:07:14.000Z</time>
      </trkpt>
      <trkpt lat="43.30917" lon="2.19388">
        <ele>276.4</ele>
        <time>2019-06-09T07:07:15.000Z</time>
      </trkpt>
      <trkpt lat="43.30917" lon="2.19388">
        <ele>276.4</ele>
        <time>2019-06-09T07:07:16.000Z</time>
      </trkpt>
      <trkpt lat="43.30918" lon="2.19389">
        <ele>276.2</ele>
        <time>2019-06-09T07:07:17.000Z</time>
      </trkpt>
      <trkpt lat="43.30918" lon="2.1939">
        <ele>276.1</ele>
        <time>2019-06-09T07:07:18.000Z</time>
      </trkpt>
      <trkpt lat="43.30918" lon="2.19391">
        <ele>276</ele>
        <time>2019-06-09T07:07:19.000Z</time>
      </trkpt>
      <trkpt lat="43.30918" lon="2.19391">
        <ele>276</ele>
        <time>2019-06-09T07:07:20.000Z</time>
      </trkpt>
      <trkpt lat="43.30917" lon="2.19392">
        <ele>276</ele>
        <time>2019-06-09T07:07:21.000Z</time>
      </trkpt>
      <trkpt lat="43.30917" lon="2.19392">
        <ele>276</ele>
        <time>2019-06-09T07:07:22.000Z</time>
      </trkpt>
      <trkpt lat="43.30917" lon="2.19392">
        <ele>276</ele>
        <time>2019-06-09T07:07:23.000Z</time>
      </trkpt>
      <trkpt lat="43.30917" lon="2.19392">
        <ele>275.9</ele>
        <time>2019-06-09T07:07:24.000Z</time>
      </trkpt>
      <trkpt lat="43.30916" lon="2.19392">
        <ele>275.9</ele>
        <time>2019-06-09T07:07:25.000Z</time>
      </trkpt>
      <trkpt lat="43.30917" lon="2.19392">
        <ele>275.9</ele>
        <time>2019-06-09T07:07:26.000Z</time>
      </trkpt>
      <trkpt lat="43.30917" lon="2.19392">
        <ele>275.9</ele>
        <time>2019-06-09T07:07:27.000Z</time>
      </trkpt>
      <trkpt lat="43.30917" lon="2.19392">
        <ele>275.9</ele>
        <time>2019-06-09T07:07:28.000Z</time>
      </trkpt>
      <trkpt lat="43.30917" lon="2.19392">
        <ele>275.9</ele>
        <time>2019-06-09T07:07:29.000Z</time>
      </trkpt>
      <trkpt lat="43.30917" lon="2.19392">
        <ele>275.9</ele>
        <time>2019-06-09T07:07:30.000Z</time>
      </trkpt>
      <trkpt lat="43.30917" lon="2.19392">
        <ele>275.9</ele>
        <time>2019-06-09T07:07:31.000Z</time>
      </trkpt>
      <trkpt lat="43.30917" lon="2.19392">
        <ele>275.9</ele>
        <time>2019-06-09T07:07:32.000Z</time>
      </trkpt>
      <trkpt lat="43.30917" lon="2.19392">
        <ele>275.9</ele>
        <time>2019-06-09T07:07:33.000Z</time>
      </trkpt>
      <trkpt lat="43.30917" lon="2.19392">
        <ele>275.9</ele>
        <time>2019-06-09T07:07:34.000Z</time>
      </trkpt>
      <trkpt lat="43.30917" lon="2.19392">
        <ele>275.9</ele>
        <time>2019-06-09T07:07:35.000Z</time>
      </trkpt>
      <trkpt lat="43.30917" lon="2.19392">
        <ele>275.9</ele>
        <time>2019-06-09T07:07:36.000Z</time>
      </trkpt>
      <trkpt lat="43.30917" lon="2.19392">
        <ele>275.9</ele>
        <time>2019-06-09T07:07:37.000Z</time>
      </trkpt>
      <trkpt lat="43.30917" lon="2.19392">
        <ele>275.9</ele>
        <time>2019-06-09T07:07:38.000Z</time>
      </trkpt>
      <trkpt lat="43.30917" lon="2.19392">
        <ele>276</ele>
        <time>2019-06-09T07:07:39.000Z</time>
      </trkpt>
      <trkpt lat="43.30917" lon="2.1939">
        <ele>276.1</ele>
        <time>2019-06-09T07:07:40.000Z</time>
      </trkpt>
      <trkpt lat="43.30918" lon="2.19388">
        <ele>276.3</ele>
        <time>2019-06-09T07:07:41.000Z</time>
      </trkpt>
      <trkpt lat="43.30919" lon="2.19387">
        <ele>276.3</ele>
        <time>2019-06-09T07:07:42.000Z</time>
      </trkpt>
      <trkpt lat="43.30921" lon="2.19386">
        <ele>276.2</ele>
        <time>2019-06-09T07:07:43.000Z</time>
      </trkpt>
      <trkpt lat="43.30923" lon="2.19387">
        <ele>275.9</ele>
        <time>2019-06-09T07:07:44.000Z</time>
      </trkpt>
      <trkpt lat="43.30925" lon="2.19388">
        <ele>275.5</ele>
        <time>2019-06-09T07:07:45.000Z</time>
      </trkpt>
      <trkpt lat="43.30927" lon="2.19389">
        <ele>275.1</ele>
        <time>2019-06-09T07:07:46.000Z</time>
      </trkpt>
      <trkpt lat="43.30929" lon="2.1939">
        <ele>274.8</ele>
        <time>2019-06-09T07:07:47.000Z</time>
      </trkpt>
      <trkpt lat="43.3093" lon="2.19391">
        <ele>274.6</ele>
        <time>2019-06-09T07:07:48.000Z</time>
      </trkpt>
      <trkpt lat="43.30932" lon="2.19391">
        <ele>274.4</ele>
        <time>2019-06-09T07:07:49.000Z</time>
      </trkpt>
      <trkpt lat="43.30933" lon="2.19391">
        <ele>274.3</ele>
        <time>2019-06-09T07:07:50.000Z</time>
      </trkpt>
      <trkpt lat="43.30934" lon="2.19391">
        <ele>274.2</ele>
        <time>2019-06-09T07:07:51.000Z</time>
      </trkpt>
      <trkpt lat="43.30935" lon="2.19391">
        <ele>274</ele>
        <time>2019-06-09T07:07:52.000Z</time>
      </trkpt>
      <trkpt lat="43.30937" lon="2.19391">
        <ele>273.9</ele>
        <time>2019-06-09T07:07:53.000Z</time>
      </trkpt>
      <trkpt lat="43.30938" lon="2.1939">
        <ele>273.8</ele>
        <time>2019-06-09T07:07:54.000Z</time>
      </trkpt>
      <trkpt lat="43.30939" lon="2.1939">
        <ele>273.7</ele>
        <time>2019-06-09T07:07:55.000Z</time>
      </trkpt>
      <trkpt lat="43.3094" lon="2.1939">
        <ele>273.6</ele>
        <time>2019-06-09T07:07:56.000Z</time>
      </trkpt>
      <trkpt lat="43.30941" lon="2.19389">
        <ele>273.5</ele>
        <time>2019-06-09T07:07:57.000Z</time>
      </trkpt>
      <trkpt lat="43.30943" lon="2.19389">
        <ele>273.4</ele>
        <time>2019-06-09T07:07:58.000Z</time>
      </trkpt>
      <trkpt lat="43.30944" lon="2.19389">
        <ele>273.3</ele>
        <time>2019-06-09T07:07:59.000Z</time>
      </trkpt>
      <trkpt lat="43.30945" lon="2.19388">
        <ele>273.2</ele>
        <time>2019-06-09T07:08:00.000Z</time>
      </trkpt>
      <trkpt lat="43.30947" lon="2.19388">
        <ele>273.1</ele>
        <time>2019-06-09T07:08:01.000Z</time>
      </trkpt>
      <trkpt lat="43.30948" lon="2.19387">
        <ele>273</ele>
        <time>2019-06-09T07:08:02.000Z</time>
      </trkpt>
      <trkpt lat="43.3095" lon="2.19386">
        <ele>272.9</ele>
        <time>2019-06-09T07:08:03.000Z</time>
      </trkpt>
      <trkpt lat="43.30951" lon="2.19386">
        <ele>272.8</ele>
        <time>2019-06-09T07:08:04.000Z</time>
      </trkpt>
      <trkpt lat="43.30953" lon="2.19385">
        <ele>272.7</ele>
        <time>2019-06-09T07:08:05.000Z</time>
      </trkpt>
      <trkpt lat="43.30954" lon="2.19384">
        <ele>272.6</ele>
        <time>2019-06-09T07:08:06.000Z</time>
      </trkpt>
      <trkpt lat="43.30956" lon="2.19383">
        <ele>272.5</ele>
        <time>2019-06-09T07:08:07.000Z</time>
      </trkpt>
      <trkpt lat="43.30958" lon="2.19383">
        <ele>272.4</ele>
        <time>2019-06-09T07:08:08.000Z</time>
      </trkpt>
      <trkpt lat="43.30959" lon="2.19382">
        <ele>272.2</ele>
        <time>2019-06-09T07:08:09.000Z</time>
      </trkpt>
      <trkpt lat="43.30961" lon="2.19381">
        <ele>272.1</ele>
        <time>2019-06-09T07:08:10.000Z</time>
      </trkpt>
      <trkpt lat="43.30963" lon="2.1938">
        <ele>272</ele>
        <time>2019-06-09T07:08:11.000Z</time>
      </trkpt>
      <trkpt lat="43.30965" lon="2.19379">
        <ele>271.9</ele>
        <time>2019-06-09T07:08:12.000Z</time>
      </trkpt>
      <trkpt lat="43.30967" lon="2.19378">
        <ele>271.7</ele>
        <time>2019-06-09T07:08:13.000Z</time>
      </trkpt>
      <trkpt lat="43.30969" lon="2.19377">
        <ele>271.6</ele>
        <time>2019-06-09T07:08:14.000Z</time>
      </trkpt>
      <trkpt lat="43.30971" lon="2.19375">
        <ele>271.5</ele>
        <time>2019-06-09T07:08:15.000Z</time>
      </trkpt>
      <trkpt lat="43.30973" lon="2.19374">
        <ele>271.4</ele>
        <time>2019-06-09T07:08:16.000Z</time>
      </trkpt>
      <trkpt lat="43.30975" lon="2.19373">
        <ele>271.2</ele>
        <time>2019-06-09T07:08:17.000Z</time>
      </trkpt>
      <trkpt lat="43.30977" lon="2.19372">
        <ele>271.1</ele>
        <time>2019-06-09T07:08:18.000Z</time>
      </trkpt>
      <trkpt lat="43.30979" lon="2.19371">
        <ele>270.9</ele>
        <time>2019-06-09T07:08:19.000Z</time>
      </trkpt>
      <trkpt lat="43.30981" lon="2.19369">
        <ele>270.8</ele>
        <time>2019-06-09T07:08:20.000Z</time>
      </trkpt>
      <trkpt lat="43.30983" lon="2.19368">
        <ele>270.6</ele>
        <time>2019-06-09T07:08:21.000Z</time>
      </trkpt>
      <trkpt lat="43.30985" lon="2.19367">
        <ele>270.5</ele>
        <time>2019-06-09T07:08:22.000Z</time>
      </trkpt>
      <trkpt lat="43.30987" lon="2.19365">
        <ele>270.3</ele>
        <time>2019-06-09T07:08:23.000Z</time>
      </trkpt>
      <trkpt lat="43.30989" lon="2.19364">
        <ele>270.1</ele>
        <time>2019-06-09T07:08:24.000Z</time>
      </trkpt>
      <trkpt lat="43.30992" lon="2.19363">
        <ele>270</ele>
        <time>2019-06-09T07:08:25.000Z</time>
      </trkpt>
      <trkpt lat="43.30994" lon="2.19361">
        <ele>269.8</ele>
        <time>2019-06-09T07:08:26.000Z</time>
      </trkpt>
      <trkpt lat="43.30996" lon="2.1936">
        <ele>269.6</ele>
        <time>2019-06-09T07:08:27.000Z</time>
      </trkpt>
      <trkpt lat="43.30998" lon="2.19359">
        <ele>269.4</ele>
        <time>2019-06-09T07:08:28.000Z</time>
      </trkpt>
      <trkpt lat="43.31" lon="2.19358">
        <ele>269.2</ele>
        <time>2019-06-09T07:08:29.000Z</time>
      </trkpt>
      <trkpt lat="43.31002" lon="2.19357">
        <ele>269.2</ele>
        <time>2019-06-09T07:08:30.000Z</time>
      </trkpt>
      <trkpt lat="43.31004" lon="2.19356">
        <ele>269.2</ele>
        <time>2019-06-09T07:08:31.000Z</time>
      </trkpt>
      <trkpt lat="43.31006" lon="2.19355">
        <ele>269.1</ele>
        <time>2019-06-09T07:08:32.000Z</time>
      </trkpt>
      <trkpt lat="43.31009" lon="2.19354">
        <ele>269.1</ele>
        <time>2019-06-09T07:08:33.000Z</time>
      </trkpt>
      <trkpt lat="43.31011" lon="2.19353">
        <ele>269</ele>
        <time>2019-06-09T07:08:34.000Z</time>
      </trkpt>
      <trkpt lat="43.31013" lon="2.19353">
        <ele>269</ele>
        <time>2019-06-09T07:08:35.000Z</time>
      </trkpt>
      <trkpt lat="43.31015" lon="2.19352">
        <ele>268.9</ele>
        <time>2019-06-09T07:08:36.000Z</time>
      </trkpt>
      <trkpt lat="43.31017" lon="2.19351">
        <ele>268.9</ele>
        <time>2019-06-09T07:08:37.000Z</time>
      </trkpt>
      <trkpt lat="43.31019" lon="2.1935">
        <ele>268.8</ele>
        <time>2019-06-09T07:08:38.000Z</time>
      </trkpt>
      <trkpt lat="43.31021" lon="2.19349">
        <ele>268.8</ele>
        <time>2019-06-09T07:08:39.000Z</time>
      </trkpt>
      <trkpt lat="43.31023" lon="2.19348">
        <ele>268.7</ele>
        <time>2019-06-09T07:08:40.000Z</time>
      </trkpt>
      <trkpt lat="43.31026" lon="2.19347">
        <ele>268.7</ele>
        <time>2019-06-09T07:08:41.000Z</time>
      </trkpt>
      <trkpt lat="43.31028" lon="2.19346">
        <ele>268.7</ele>
        <time>2019-06-09T07:08:42.000Z</time>
      </trkpt>
      <trkpt lat="43.31029" lon="2.19345">
        <ele>268.7</ele>
        <time>2019-06-09T07:08:43.000Z</time>
      </trkpt>
      <trkpt lat="43.31031" lon="2.19344">
        <ele>268.7</ele>
        <time>2019-06-09T07:08:44.000Z</time>
      </trkpt>
      <trkpt lat="43.31032" lon="2.19343">
        <ele>268.7</ele>
        <time>2019-06-09T07:08:45.000Z</time>
      </trkpt>
      <trkpt lat="43.31033" lon="2.19342">
        <ele>268.7</ele>
        <time>2019-06-09T07:08:46.000Z</time>
      </trkpt>
      <trkpt lat="43.31035" lon="2.19341">
        <ele>268.7</ele>
        <time>2019-06-09T07:08:47.000Z</time>
      </trkpt>
      <trkpt lat="43.31036" lon="2.1934">
        <ele>268.8</ele>
        <time>2019-06-09T07:08:48.000Z</time>
      </trkpt>
      <trkpt lat="43.31038" lon="2.19339">
        <ele>268.7</ele>
        <time>2019-06-09T07:08:49.000Z</time>
      </trkpt>
      <trkpt lat="43.3104" lon="2.19338">
        <ele>268.7</ele>
        <time>2019-06-09T07:08:50.000Z</time>
      </trkpt>
      <trkpt lat="43.31042" lon="2.19337">
        <ele>268.7</ele>
        <time>2019-06-09T07:08:51.000Z</time>
      </trkpt>
      <trkpt lat="43.31045" lon="2.19336">
        <ele>268.7</ele>
        <time>2019-06-09T07:08:52.000Z</time>
      </trkpt>
      <trkpt lat="43.31047" lon="2.19335">
        <ele>268.6</ele>
        <time>2019-06-09T07:08:53.000Z</time>
      </trkpt>
      <trkpt lat="43.3105" lon="2.19334">
        <ele>268.6</ele>
        <time>2019-06-09T07:08:54.000Z</time>
      </trkpt>
      <trkpt lat="43.31052" lon="2.19333">
        <ele>268.5</ele>
        <time>2019-06-09T07:08:55.000Z</time>
      </trkpt>
      <trkpt lat="43.31055" lon="2.19332">
        <ele>268.4</ele>
        <time>2019-06-09T07:08:56.000Z</time>
      </trkpt>
      <trkpt lat="43.31057" lon="2.19331">
        <ele>268.3</ele>
        <time>2019-06-09T07:08:57.000Z</time>
      </trkpt>
      <trkpt lat="43.31059" lon="2.1933">
        <ele>268.2</ele>
        <time>2019-06-09T07:08:58.000Z</time>
      </trkpt>
      <trkpt lat="43.31062" lon="2.19329">
        <ele>268.1</ele>
        <time>2019-06-09T07:08:59.000Z</time>
      </trkpt>
      <trkpt lat="43.31064" lon="2.19328">
        <ele>268</ele>
        <time>2019-06-09T07:09:00.000Z</time>
      </trkpt>
      <trkpt lat="43.31067" lon="2.19327">
        <ele>267.9</ele>
        <time>2019-06-09T07:09:01.000Z</time>
      </trkpt>
      <trkpt lat="43.31069" lon="2.19326">
        <ele>267.7</ele>
        <time>2019-06-09T07:09:02.000Z</time>
      </trkpt>
      <trkpt lat="43.31071" lon="2.19325">
        <ele>267.6</ele>
        <time>2019-06-09T07:09:03.000Z</time>
      </trkpt>
      <trkpt lat="43.31073" lon="2.19324">
        <ele>267.5</ele>
        <time>2019-06-09T07:09:04.000Z</time>
      </trkpt>
      <trkpt lat="43.31076" lon="2.19322">
        <ele>267.4</ele>
        <time>2019-06-09T07:09:05.000Z</time>
      </trkpt>
      <trkpt lat="43.31078" lon="2.19321">
        <ele>267.3</ele>
        <time>2019-06-09T07:09:06.000Z</time>
      </trkpt>
      <trkpt lat="43.3108" lon="2.1932">
        <ele>267.2</ele>
        <time>2019-06-09T07:09:07.000Z</time>
      </trkpt>
      <trkpt lat="43.31082" lon="2.19318">
        <ele>267.1</ele>
        <time>2019-06-09T07:09:08.000Z</time>
      </trkpt>
      <trkpt lat="43.31084" lon="2.19317">
        <ele>266.9</ele>
        <time>2019-06-09T07:09:09.000Z</time>
      </trkpt>
      <trkpt lat="43.31086" lon="2.19315">
        <ele>266.8</ele>
        <time>2019-06-09T07:09:10.000Z</time>
      </trkpt>
      <trkpt lat="43.31088" lon="2.19314">
        <ele>266.6</ele>
        <time>2019-06-09T07:09:11.000Z</time>
      </trkpt>
      <trkpt lat="43.3109" lon="2.19312">
        <ele>266.5</ele>
        <time>2019-06-09T07:09:12.000Z</time>
      </trkpt>
      <trkpt lat="43.31092" lon="2.1931">
        <ele>266.4</ele>
        <time>2019-06-09T07:09:13.000Z</time>
      </trkpt>
      <trkpt lat="43.31094" lon="2.19308">
        <ele>266.3</ele>
        <time>2019-06-09T07:09:14.000Z</time>
      </trkpt>
      <trkpt lat="43.31096" lon="2.19307">
        <ele>266.2</ele>
        <time>2019-06-09T07:09:15.000Z</time>
      </trkpt>
      <trkpt lat="43.31098" lon="2.19305">
        <ele>266.1</ele>
        <time>2019-06-09T07:09:16.000Z</time>
      </trkpt>
      <trkpt lat="43.311" lon="2.19303">
        <ele>266</ele>
        <time>2019-06-09T07:09:17.000Z</time>
      </trkpt>
      <trkpt lat="43.31102" lon="2.19301">
        <ele>265.9</ele>
        <time>2019-06-09T07:09:18.000Z</time>
      </trkpt>
      <trkpt lat="43.31104" lon="2.19299">
        <ele>265.9</ele>
        <time>2019-06-09T07:09:19.000Z</time>
      </trkpt>
      <trkpt lat="43.31106" lon="2.19297">
        <ele>265.8</ele>
        <time>2019-06-09T07:09:20.000Z</time>
      </trkpt>
      <trkpt lat="43.31107" lon="2.19295">
        <ele>265.8</ele>
        <time>2019-06-09T07:09:21.000Z</time>
      </trkpt>
      <trkpt lat="43.31109" lon="2.19293">
        <ele>265.7</ele>
        <time>2019-06-09T07:09:22.000Z</time>
      </trkpt>
      <trkpt lat="43.31111" lon="2.19291">
        <ele>265.7</ele>
        <time>2019-06-09T07:09:23.000Z</time>
      </trkpt>
      <trkpt lat="43.31113" lon="2.19289">
        <ele>265.7</ele>
        <time>2019-06-09T07:09:24.000Z</time>
      </trkpt>
      <trkpt lat="43.31115" lon="2.19287">
        <ele>265.7</ele>
        <time>2019-06-09T07:09:25.000Z</time>
      </trkpt>
      <trkpt lat="43.31117" lon="2.19285">
        <ele>265.6</ele>
        <time>2019-06-09T07:09:26.000Z</time>
      </trkpt>
      <trkpt lat="43.31119" lon="2.19284">
        <ele>265.6</ele>
        <time>2019-06-09T07:09:27.000Z</time>
      </trkpt>
      <trkpt lat="43.31121" lon="2.19282">
        <ele>265.6</ele>
        <time>2019-06-09T07:09:28.000Z</time>
      </trkpt>
      <trkpt lat="43.31123" lon="2.1928">
        <ele>265.6</ele>
        <time>2019-06-09T07:09:29.000Z</time>
      </trkpt>
      <trkpt lat="43.31125" lon="2.19279">
        <ele>265.6</ele>
        <time>2019-06-09T07:09:30.000Z</time>
      </trkpt>
      <trkpt lat="43.31126" lon="2.19278">
        <ele>265.6</ele>
        <time>2019-06-09T07:09:31.000Z</time>
      </trkpt>
      <trkpt lat="43.31128" lon="2.19278">
        <ele>265.6</ele>
        <time>2019-06-09T07:09:32.000Z</time>
      </trkpt>
      <trkpt lat="43.3113" lon="2.19277">
        <ele>265.5</ele>
        <time>2019-06-09T07:09:33.000Z</time>
      </trkpt>
      <trkpt lat="43.31132" lon="2.19278">
        <ele>265.5</ele>
        <time>2019-06-09T07:09:34.000Z</time>
      </trkpt>
      <trkpt lat="43.31134" lon="2.19278">
        <ele>265.4</ele>
        <time>2019-06-09T07:09:35.000Z</time>
      </trkpt>
      <trkpt lat="43.31135" lon="2.19278">
        <ele>265.3</ele>
        <time>2019-06-09T07:09:36.000Z</time>
      </trkpt>
      <trkpt lat="43.31137" lon="2.19279">
        <ele>265.2</ele>
        <time>2019-06-09T07:09:37.000Z</time>
      </trkpt>
      <trkpt lat="43.31139" lon="2.1928">
        <ele>265.1</ele>
        <time>2019-06-09T07:09:38.000Z</time>
      </trkpt>
      <trkpt lat="43.31141" lon="2.19281">
        <ele>264.9</ele>
        <time>2019-06-09T07:09:39.000Z</time>
      </trkpt>
      <trkpt lat="43.31142" lon="2.19283">
        <ele>264.8</ele>
        <time>2019-06-09T07:09:40.000Z</time>
      </trkpt>
      <trkpt lat="43.31144" lon="2.19284">
        <ele>264.6</ele>
        <time>2019-06-09T07:09:41.000Z</time>
      </trkpt>
      <trkpt lat="43.31146" lon="2.19286">
        <ele>264.4</ele>
        <time>2019-06-09T07:09:42.000Z</time>
      </trkpt>
      <trkpt lat="43.31148" lon="2.19287">
        <ele>264.2</ele>
        <time>2019-06-09T07:09:43.000Z</time>
      </trkpt>
      <trkpt lat="43.3115" lon="2.19289">
        <ele>264</ele>
        <time>2019-06-09T07:09:44.000Z</time>
      </trkpt>
      <trkpt lat="43.31152" lon="2.1929">
        <ele>263.8</ele>
        <time>2019-06-09T07:09:45.000Z</time>
      </trkpt>
      <trkpt lat="43.31154" lon="2.19291">
        <ele>263.6</ele>
        <time>2019-06-09T07:09:46.000Z</time>
      </trkpt>
      <trkpt lat="43.31156" lon="2.19293">
        <ele>263.4</ele>
        <time>2019-06-09T07:09:47.000Z</time>
      </trkpt>
      <trkpt lat="43.31158" lon="2.19293">
        <ele>263.3</ele>
        <time>2019-06-09T07:09:48.000Z</time>
      </trkpt>
      <trkpt lat="43.3116" lon="2.19294">
        <ele>263.1</ele>
        <time>2019-06-09T07:09:49.000Z</time>
      </trkpt>
      <trkpt lat="43.31163" lon="2.19294">
        <ele>263</ele>
        <time>2019-06-09T07:09:50.000Z</time>
      </trkpt>
      <trkpt lat="43.31165" lon="2.19294">
        <ele>262.9</ele>
        <time>2019-06-09T07:09:51.000Z</time>
      </trkpt>
      <trkpt lat="43.31167" lon="2.19294">
        <ele>262.8</ele>
        <time>2019-06-09T07:09:52.000Z</time>
      </trkpt>
      <trkpt lat="43.3117" lon="2.19293">
        <ele>262.8</ele>
        <time>2019-06-09T07:09:53.000Z</time>
      </trkpt>
      <trkpt lat="43.31172" lon="2.19293">
        <ele>262.8</ele>
        <time>2019-06-09T07:09:54.000Z</time>
      </trkpt>
      <trkpt lat="43.31174" lon="2.19292">
        <ele>262.9</ele>
        <time>2019-06-09T07:09:55.000Z</time>
      </trkpt>
      <trkpt lat="43.31177" lon="2.19291">
        <ele>263</ele>
        <time>2019-06-09T07:09:56.000Z</time>
      </trkpt>
      <trkpt lat="43.31179" lon="2.1929">
        <ele>263.1</ele>
        <time>2019-06-09T07:09:57.000Z</time>
      </trkpt>
      <trkpt lat="43.31181" lon="2.19288">
        <ele>263.2</ele>
        <time>2019-06-09T07:09:58.000Z</time>
      </trkpt>
      <trkpt lat="43.31183" lon="2.19287">
        <ele>263.3</ele>
        <time>2019-06-09T07:09:59.000Z</time>
      </trkpt>
      <trkpt lat="43.31186" lon="2.19286">
        <ele>263.4</ele>
        <time>2019-06-09T07:10:00.000Z</time>
      </trkpt>
      <trkpt lat="43.31188" lon="2.19284">
        <ele>263.6</ele>
        <time>2019-06-09T07:10:01.000Z</time>
      </trkpt>
      <trkpt lat="43.3119" lon="2.19282">
        <ele>263.7</ele>
        <time>2019-06-09T07:10:02.000Z</time>
      </trkpt>
      <trkpt lat="43.31192" lon="2.19281">
        <ele>263.9</ele>
        <time>2019-06-09T07:10:03.000Z</time>
      </trkpt>
      <trkpt lat="43.31194" lon="2.19279">
        <ele>264</ele>
        <time>2019-06-09T07:10:04.000Z</time>
      </trkpt>
      <trkpt lat="43.31197" lon="2.19278">
        <ele>264.2</ele>
        <time>2019-06-09T07:10:05.000Z</time>
      </trkpt>
      <trkpt lat="43.31199" lon="2.19277">
        <ele>264.4</ele>
        <time>2019-06-09T07:10:06.000Z</time>
      </trkpt>
      <trkpt lat="43.31201" lon="2.19275">
        <ele>264.5</ele>
        <time>2019-06-09T07:10:07.000Z</time>
      </trkpt>
      <trkpt lat="43.31204" lon="2.19274">
        <ele>264.7</ele>
        <time>2019-06-09T07:10:08.000Z</time>
      </trkpt>
      <trkpt lat="43.31206" lon="2.19272">
        <ele>264.8</ele>
        <time>2019-06-09T07:10:09.000Z</time>
      </trkpt>
      <trkpt lat="43.31209" lon="2.19271">
        <ele>265</ele>
        <time>2019-06-09T07:10:10.000Z</time>
      </trkpt>
      <trkpt lat="43.31211" lon="2.1927">
        <ele>265.1</ele>
        <time>2019-06-09T07:10:11.000Z</time>
      </trkpt>
      <trkpt lat="43.31214" lon="2.19269">
        <ele>265.3</ele>
        <time>2019-06-09T07:10:12.000Z</time>
      </trkpt>
      <trkpt lat="43.31217" lon="2.19267">
        <ele>265.4</ele>
        <time>2019-06-09T07:10:13.000Z</time>
      </trkpt>
      <trkpt lat="43.3122" lon="2.19267">
        <ele>265.5</ele>
        <time>2019-06-09T07:10:14.000Z</time>
      </trkpt>
      <trkpt lat="43.31223" lon="2.19266">
        <ele>265.6</ele>
        <time>2019-06-09T07:10:15.000Z</time>
      </trkpt>
      <trkpt lat="43.31226" lon="2.19266">
        <ele>265.7</ele>
        <time>2019-06-09T07:10:16.000Z</time>
      </trkpt>
      <trkpt lat="43.31229" lon="2.19266">
        <ele>265.7</ele>
        <time>2019-06-09T07:10:17.000Z</time>
      </trkpt>
      <trkpt lat="43.31231" lon="2.19266">
        <ele>265.7</ele>
        <time>2019-06-09T07:10:18.000Z</time>
      </trkpt>
      <trkpt lat="43.31234" lon="2.19267">
        <ele>265.6</ele>
        <time>2019-06-09T07:10:19.000Z</time>
      </trkpt>
      <trkpt lat="43.31237" lon="2.19268">
        <ele>265.4</ele>
        <time>2019-06-09T07:10:20.000Z</time>
      </trkpt>
      <trkpt lat="43.3124" lon="2.19269">
        <ele>265.2</ele>
        <time>2019-06-09T07:10:21.000Z</time>
      </trkpt>
      <trkpt lat="43.31243" lon="2.19271">
        <ele>265</ele>
        <time>2019-06-09T07:10:22.000Z</time>
      </trkpt>
      <trkpt lat="43.31245" lon="2.19273">
        <ele>264.7</ele>
        <time>2019-06-09T07:10:23.000Z</time>
      </trkpt>
      <trkpt lat="43.31248" lon="2.19275">
        <ele>264.4</ele>
        <time>2019-06-09T07:10:24.000Z</time>
      </trkpt>
      <trkpt lat="43.31251" lon="2.19277">
        <ele>264.2</ele>
        <time>2019-06-09T07:10:25.000Z</time>
      </trkpt>
      <trkpt lat="43.31253" lon="2.19279">
        <ele>264.2</ele>
        <time>2019-06-09T07:10:26.000Z</time>
      </trkpt>
      <trkpt lat="43.31255" lon="2.19281">
        <ele>264.2</ele>
        <time>2019-06-09T07:10:27.000Z</time>
      </trkpt>
      <trkpt lat="43.31258" lon="2.19284">
        <ele>264.2</ele>
        <time>2019-06-09T07:10:28.000Z</time>
      </trkpt>
      <trkpt lat="43.3126" lon="2.19286">
        <ele>264.2</ele>
        <time>2019-06-09T07:10:29.000Z</time>
      </trkpt>
      <trkpt lat="43.31263" lon="2.19288">
        <ele>264.2</ele>
        <time>2019-06-09T07:10:30.000Z</time>
      </trkpt>
      <trkpt lat="43.31265" lon="2.1929">
        <ele>264.2</ele>
        <time>2019-06-09T07:10:31.000Z</time>
      </trkpt>
      <trkpt lat="43.31267" lon="2.19292">
        <ele>264.2</ele>
        <time>2019-06-09T07:10:32.000Z</time>
      </trkpt>
      <trkpt lat="43.31269" lon="2.19295">
        <ele>264.2</ele>
        <time>2019-06-09T07:10:33.000Z</time>
      </trkpt>
      <trkpt lat="43.31271" lon="2.19297">
        <ele>264.3</ele>
        <time>2019-06-09T07:10:34.000Z</time>
      </trkpt>
      <trkpt lat="43.31273" lon="2.19299">
        <ele>264.2</ele>
        <time>2019-06-09T07:10:35.000Z</time>
      </trkpt>
      <trkpt lat="43.31275" lon="2.19302">
        <ele>264.2</ele>
        <time>2019-06-09T07:10:36.000Z</time>
      </trkpt>
      <trkpt lat="43.31278" lon="2.19304">
        <ele>264.2</ele>
        <time>2019-06-09T07:10:37.000Z</time>
      </trkpt>
      <trkpt lat="43.3128" lon="2.19307">
        <ele>264.2</ele>
        <time>2019-06-09T07:10:38.000Z</time>
      </trkpt>
      <trkpt lat="43.31282" lon="2.19309">
        <ele>264.2</ele>
        <time>2019-06-09T07:10:39.000Z</time>
      </trkpt>
      <trkpt lat="43.31284" lon="2.19312">
        <ele>264.2</ele>
        <time>2019-06-09T07:10:40.000Z</time>
      </trkpt>
      <trkpt lat="43.31286" lon="2.19315">
        <ele>264.2</ele>
        <time>2019-06-09T07:10:41.000Z</time>
      </trkpt>
      <trkpt lat="43.31288" lon="2.19318">
        <ele>264.2</ele>
        <time>2019-06-09T07:10:42.000Z</time>
      </trkpt>
      <trkpt lat="43.3129" lon="2.1932">
        <ele>264.1</ele>
        <time>2019-06-09T07:10:43.000Z</time>
      </trkpt>
      <trkpt lat="43.31292" lon="2.19323">
        <ele>264.1</ele>
        <time>2019-06-09T07:10:44.000Z</time>
      </trkpt>
      <trkpt lat="43.31294" lon="2.19326">
        <ele>264.1</ele>
        <time>2019-06-09T07:10:45.000Z</time>
      </trkpt>
      <trkpt lat="43.31296" lon="2.19329">
        <ele>264.1</ele>
        <time>2019-06-09T07:10:46.000Z</time>
      </trkpt>
      <trkpt lat="43.31297" lon="2.19333">
        <ele>264</ele>
        <time>2019-06-09T07:10:47.000Z</time>
      </trkpt>
      <trkpt lat="43.31299" lon="2.19336">
        <ele>264</ele>
        <time>2019-06-09T07:10:48.000Z</time>
      </trkpt>
      <trkpt lat="43.31301" lon="2.19339">
        <ele>264</ele>
        <time>2019-06-09T07:10:49.000Z</time>
      </trkpt>
      <trkpt lat="43.31302" lon="2.19343">
        <ele>264</ele>
        <time>2019-06-09T07:10:50.000Z</time>
      </trkpt>
      <trkpt lat="43.31304" lon="2.19346">
        <ele>263.9</ele>
        <time>2019-06-09T07:10:51.000Z</time>
      </trkpt>
      <trkpt lat="43.31305" lon="2.1935">
        <ele>263.8</ele>
        <time>2019-06-09T07:10:52.000Z</time>
      </trkpt>
      <trkpt lat="43.31306" lon="2.19353">
        <ele>263.7</ele>
        <time>2019-06-09T07:10:53.000Z</time>
      </trkpt>
      <trkpt lat="43.31307" lon="2.19357">
        <ele>263.6</ele>
        <time>2019-06-09T07:10:54.000Z</time>
      </trkpt>
      <trkpt lat="43.31308" lon="2.19361">
        <ele>263.4</ele>
        <time>2019-06-09T07:10:55.000Z</time>
      </trkpt>
      <trkpt lat="43.31309" lon="2.19366">
        <ele>263.1</ele>
        <time>2019-06-09T07:10:56.000Z</time>
      </trkpt>
      <trkpt lat="43.31309" lon="2.1937">
        <ele>262.8</ele>
        <time>2019-06-09T07:10:57.000Z</time>
      </trkpt>
      <trkpt lat="43.31309" lon="2.19375">
        <ele>262.4</ele>
        <time>2019-06-09T07:10:58.000Z</time>
      </trkpt>
      <trkpt lat="43.3131" lon="2.19379">
        <ele>262.1</ele>
        <time>2019-06-09T07:10:59.000Z</time>
      </trkpt>
      <trkpt lat="43.3131" lon="2.19384">
        <ele>261.7</ele>
        <time>2019-06-09T07:11:00.000Z</time>
      </trkpt>
      <trkpt lat="43.3131" lon="2.19388">
        <ele>261.3</ele>
        <time>2019-06-09T07:11:01.000Z</time>
      </trkpt>
      <trkpt lat="43.3131" lon="2.19392">
        <ele>261</ele>
        <time>2019-06-09T07:11:02.000Z</time>
      </trkpt>
      <trkpt lat="43.3131" lon="2.19396">
        <ele>260.7</ele>
        <time>2019-06-09T07:11:03.000Z</time>
      </trkpt>
      <trkpt lat="43.3131" lon="2.194">
        <ele>260.3</ele>
        <time>2019-06-09T07:11:04.000Z</time>
      </trkpt>
      <trkpt lat="43.3131" lon="2.19403">
        <ele>260</ele>
        <time>2019-06-09T07:11:05.000Z</time>
      </trkpt>
      <trkpt lat="43.31309" lon="2.19407">
        <ele>259.6</ele>
        <time>2019-06-09T07:11:06.000Z</time>
      </trkpt>
      <trkpt lat="43.31309" lon="2.19411">
        <ele>259.3</ele>
        <time>2019-06-09T07:11:07.000Z</time>
      </trkpt>
      <trkpt lat="43.31309" lon="2.19414">
        <ele>258.9</ele>
        <time>2019-06-09T07:11:08.000Z</time>
      </trkpt>
      <trkpt lat="43.31308" lon="2.19418">
        <ele>258.5</ele>
        <time>2019-06-09T07:11:09.000Z</time>
      </trkpt>
      <trkpt lat="43.31307" lon="2.19423">
        <ele>258.3</ele>
        <time>2019-06-09T07:11:10.000Z</time>
      </trkpt>
      <trkpt lat="43.31307" lon="2.19427">
        <ele>258</ele>
        <time>2019-06-09T07:11:11.000Z</time>
      </trkpt>
      <trkpt lat="43.31306" lon="2.19431">
        <ele>257.7</ele>
        <time>2019-06-09T07:11:12.000Z</time>
      </trkpt>
      <trkpt lat="43.31305" lon="2.19435">
        <ele>257.4</ele>
        <time>2019-06-09T07:11:13.000Z</time>
      </trkpt>
      <trkpt lat="43.31304" lon="2.1944">
        <ele>257.1</ele>
        <time>2019-06-09T07:11:14.000Z</time>
      </trkpt>
      <trkpt lat="43.31303" lon="2.19444">
        <ele>256.8</ele>
        <time>2019-06-09T07:11:15.000Z</time>
      </trkpt>
      <trkpt lat="43.31302" lon="2.19448">
        <ele>256.5</ele>
        <time>2019-06-09T07:11:16.000Z</time>
      </trkpt>
      <trkpt lat="43.31301" lon="2.19453">
        <ele>256.2</ele>
        <time>2019-06-09T07:11:17.000Z</time>
      </trkpt>
      <trkpt lat="43.313" lon="2.19457">
        <ele>255.9</ele>
        <time>2019-06-09T07:11:18.000Z</time>
      </trkpt>
      <trkpt lat="43.313" lon="2.19461">
        <ele>255.6</ele>
        <time>2019-06-09T07:11:19.000Z</time>
      </trkpt>
      <trkpt lat="43.31299" lon="2.19465">
        <ele>255.3</ele>
        <time>2019-06-09T07:11:20.000Z</time>
      </trkpt>
      <trkpt lat="43.31298" lon="2.19469">
        <ele>255.1</ele>
        <time>2019-06-09T07:11:21.000Z</time>
      </trkpt>
      <trkpt lat="43.31297" lon="2.19473">
        <ele>254.8</ele>
        <time>2019-06-09T07:11:22.000Z</time>
      </trkpt>
      <trkpt lat="43.31296" lon="2.19477">
        <ele>254.5</ele>
        <time>2019-06-09T07:11:23.000Z</time>
      </trkpt>
      <trkpt lat="43.31296" lon="2.19481">
        <ele>254.3</ele>
        <time>2019-06-09T07:11:24.000Z</time>
      </trkpt>
      <trkpt lat="43.31295" lon="2.19485">
        <ele>254</ele>
        <time>2019-06-09T07:11:25.000Z</time>
      </trkpt>
      <trkpt lat="43.31294" lon="2.19488">
        <ele>253.8</ele>
        <time>2019-06-09T07:11:26.000Z</time>
      </trkpt>
      <trkpt lat="43.31294" lon="2.19492">
        <ele>253.6</ele>
        <time>2019-06-09T07:11:27.000Z</time>
      </trkpt>
      <trkpt lat="43.31293" lon="2.19497">
        <ele>253.4</ele>
        <time>2019-06-09T07:11:28.000Z</time>
      </trkpt>
      <trkpt lat="43.31292" lon="2.19501">
        <ele>253.1</ele>
        <time>2019-06-09T07:11:29.000Z</time>
      </trkpt>
      <trkpt lat="43.31292" lon="2.19505">
        <ele>253.1</ele>
        <time>2019-06-09T07:11:30.000Z</time>
      </trkpt>
      <trkpt lat="43.31291" lon="2.19509">
        <ele>253</ele>
        <time>2019-06-09T07:11:31.000Z</time>
      </trkpt>
      <trkpt lat="43.31291" lon="2.19513">
        <ele>252.9</ele>
        <time>2019-06-09T07:11:32.000Z</time>
      </trkpt>
      <trkpt lat="43.3129" lon="2.19518">
        <ele>252.9</ele>
        <time>2019-06-09T07:11:33.000Z</time>
      </trkpt>
      <trkpt lat="43.31289" lon="2.19522">
        <ele>252.8</ele>
        <time>2019-06-09T07:11:34.000Z</time>
      </trkpt>
      <trkpt lat="43.31289" lon="2.19526">
        <ele>252.7</ele>
        <time>2019-06-09T07:11:35.000Z</time>
      </trkpt>
      <trkpt lat="43.31288" lon="2.19531">
        <ele>252.6</ele>
        <time>2019-06-09T07:11:36.000Z</time>
      </trkpt>
      <trkpt lat="43.31287" lon="2.19535">
        <ele>252.5</ele>
        <time>2019-06-09T07:11:37.000Z</time>
      </trkpt>
      <trkpt lat="43.31287" lon="2.1954">
        <ele>252.4</ele>
        <time>2019-06-09T07:11:38.000Z</time>
      </trkpt>
      <trkpt lat="43.31286" lon="2.19544">
        <ele>252.3</ele>
        <time>2019-06-09T07:11:39.000Z</time>
      </trkpt>
      <trkpt lat="43.31285" lon="2.19549">
        <ele>252.1</ele>
        <time>2019-06-09T07:11:40.000Z</time>
      </trkpt>
      <trkpt lat="43.31284" lon="2.19553">
        <ele>252</ele>
        <time>2019-06-09T07:11:41.000Z</time>
      </trkpt>
      <trkpt lat="43.31283" lon="2.19558">
        <ele>251.8</ele>
        <time>2019-06-09T07:11:42.000Z</time>
      </trkpt>
      <trkpt lat="43.31282" lon="2.19563">
        <ele>251.6</ele>
        <time>2019-06-09T07:11:43.000Z</time>
      </trkpt>
      <trkpt lat="43.31281" lon="2.19567">
        <ele>251.5</ele>
        <time>2019-06-09T07:11:44.000Z</time>
      </trkpt>
      <trkpt lat="43.3128" lon="2.19572">
        <ele>251.3</ele>
        <time>2019-06-09T07:11:45.000Z</time>
      </trkpt>
      <trkpt lat="43.31278" lon="2.19576">
        <ele>251</ele>
        <time>2019-06-09T07:11:46.000Z</time>
      </trkpt>
      <trkpt lat="43.31277" lon="2.1958">
        <ele>250.9</ele>
        <time>2019-06-09T07:11:47.000Z</time>
      </trkpt>
      <trkpt lat="43.31276" lon="2.19585">
        <ele>250.6</ele>
        <time>2019-06-09T07:11:48.000Z</time>
      </trkpt>
      <trkpt lat="43.31275" lon="2.19589">
        <ele>250.3</ele>
        <time>2019-06-09T07:11:49.000Z</time>
      </trkpt>
      <trkpt lat="43.31274" lon="2.19593">
        <ele>249.9</ele>
        <time>2019-06-09T07:11:50.000Z</time>
      </trkpt>
      <trkpt lat="43.31273" lon="2.19597">
        <ele>249.6</ele>
        <time>2019-06-09T07:11:51.000Z</time>
      </trkpt>
      <trkpt lat="43.31272" lon="2.19601">
        <ele>249.4</ele>
        <time>2019-06-09T07:11:52.000Z</time>
      </trkpt>
      <trkpt lat="43.31272" lon="2.19605">
        <ele>249.1</ele>
        <time>2019-06-09T07:11:53.000Z</time>
      </trkpt>
      <trkpt lat="43.31271" lon="2.1961">
        <ele>248.8</ele>
        <time>2019-06-09T07:11:54.000Z</time>
      </trkpt>
      <trkpt lat="43.3127" lon="2.19616">
        <ele>248.5</ele>
        <time>2019-06-09T07:11:55.000Z</time>
      </trkpt>
      <trkpt lat="43.31269" lon="2.19622">
        <ele>248.1</ele>
        <time>2019-06-09T07:11:56.000Z</time>
      </trkpt>
      <trkpt lat="43.31269" lon="2.19628">
        <ele>247.8</ele>
        <time>2019-06-09T07:11:57.000Z</time>
      </trkpt>
      <trkpt lat="43.31268" lon="2.19634">
        <ele>247.6</ele>
        <time>2019-06-09T07:11:58.000Z</time>
      </trkpt>
      <trkpt lat="43.31268" lon="2.1964">
        <ele>247.3</ele>
        <time>2019-06-09T07:11:59.000Z</time>
      </trkpt>
      <trkpt lat="43.31268" lon="2.19645">
        <ele>247.1</ele>
        <time>2019-06-09T07:12:00.000Z</time>
      </trkpt>
      <trkpt lat="43.31267" lon="2.19651">
        <ele>247</ele>
        <time>2019-06-09T07:12:01.000Z</time>
      </trkpt>
      <trkpt lat="43.31267" lon="2.19656">
        <ele>246.8</ele>
        <time>2019-06-09T07:12:02.000Z</time>
      </trkpt>
      <trkpt lat="43.31267" lon="2.19661">
        <ele>246.6</ele>
        <time>2019-06-09T07:12:03.000Z</time>
      </trkpt>
      <trkpt lat="43.31267" lon="2.19667">
        <ele>246.4</ele>
        <time>2019-06-09T07:12:04.000Z</time>
      </trkpt>
      <trkpt lat="43.31267" lon="2.19672">
        <ele>246.1</ele>
        <time>2019-06-09T07:12:05.000Z</time>
      </trkpt>
      <trkpt lat="43.31266" lon="2.19677">
        <ele>245.9</ele>
        <time>2019-06-09T07:12:06.000Z</time>
      </trkpt>
      <trkpt lat="43.31266" lon="2.19683">
        <ele>245.6</ele>
        <time>2019-06-09T07:12:07.000Z</time>
      </trkpt>
      <trkpt lat="43.31266" lon="2.19688">
        <ele>245.2</ele>
        <time>2019-06-09T07:12:08.000Z</time>
      </trkpt>
      <trkpt lat="43.31265" lon="2.19694">
        <ele>244.9</ele>
        <time>2019-06-09T07:12:09.000Z</time>
      </trkpt>
      <trkpt lat="43.31265" lon="2.19699">
        <ele>244.6</ele>
        <time>2019-06-09T07:12:10.000Z</time>
      </trkpt>
      <trkpt lat="43.31264" lon="2.19705">
        <ele>244.3</ele>
        <time>2019-06-09T07:12:11.000Z</time>
      </trkpt>
      <trkpt lat="43.31264" lon="2.1971">
        <ele>244</ele>
        <time>2019-06-09T07:12:12.000Z</time>
      </trkpt>
      <trkpt lat="43.31263" lon="2.19715">
        <ele>243.7</ele>
        <time>2019-06-09T07:12:13.000Z</time>
      </trkpt>
      <trkpt lat="43.31263" lon="2.1972">
        <ele>243.4</ele>
        <time>2019-06-09T07:12:14.000Z</time>
      </trkpt>
      <trkpt lat="43.31263" lon="2.19725">
        <ele>243.1</ele>
        <time>2019-06-09T07:12:15.000Z</time>
      </trkpt>
      <trkpt lat="43.31262" lon="2.1973">
        <ele>242.9</ele>
        <time>2019-06-09T07:12:16.000Z</time>
      </trkpt>
      <trkpt lat="43.31262" lon="2.19735">
        <ele>242.6</ele>
        <time>2019-06-09T07:12:17.000Z</time>
      </trkpt>
      <trkpt lat="43.31261" lon="2.19739">
        <ele>242.3</ele>
        <time>2019-06-09T07:12:18.000Z</time>
      </trkpt>
      <trkpt lat="43.31261" lon="2.19744">
        <ele>242</ele>
        <time>2019-06-09T07:12:19.000Z</time>
      </trkpt>
      <trkpt lat="43.3126" lon="2.19748">
        <ele>241.7</ele>
        <time>2019-06-09T07:12:20.000Z</time>
      </trkpt>
      <trkpt lat="43.31259" lon="2.19752">
        <ele>241.4</ele>
        <time>2019-06-09T07:12:21.000Z</time>
      </trkpt>
      <trkpt lat="43.31258" lon="2.19756">
        <ele>241.1</ele>
        <time>2019-06-09T07:12:22.000Z</time>
      </trkpt>
      <trkpt lat="43.31257" lon="2.19761">
        <ele>240.8</ele>
        <time>2019-06-09T07:12:23.000Z</time>
      </trkpt>
      <trkpt lat="43.31256" lon="2.19765">
        <ele>240.5</ele>
        <time>2019-06-09T07:12:24.000Z</time>
      </trkpt>
      <trkpt lat="43.31254" lon="2.19769">
        <ele>240.2</ele>
        <time>2019-06-09T07:12:25.000Z</time>
      </trkpt>
      <trkpt lat="43.31253" lon="2.19772">
        <ele>239.9</ele>
        <time>2019-06-09T07:12:26.000Z</time>
      </trkpt>
      <trkpt lat="43.31252" lon="2.19776">
        <ele>239.6</ele>
        <time>2019-06-09T07:12:27.000Z</time>
      </trkpt>
      <trkpt lat="43.3125" lon="2.1978">
        <ele>239.3</ele>
        <time>2019-06-09T07:12:28.000Z</time>
      </trkpt>
      <trkpt lat="43.31249" lon="2.19783">
        <ele>239.1</ele>
        <time>2019-06-09T07:12:29.000Z</time>
      </trkpt>
      <trkpt lat="43.31248" lon="2.19787">
        <ele>238.9</ele>
        <time>2019-06-09T07:12:30.000Z</time>
      </trkpt>
      <trkpt lat="43.31247" lon="2.1979">
        <ele>238.7</ele>
        <time>2019-06-09T07:12:31.000Z</time>
      </trkpt>
      <trkpt lat="43.31245" lon="2.19793">
        <ele>238.4</ele>
        <time>2019-06-09T07:12:32.000Z</time>
      </trkpt>
      <trkpt lat="43.31244" lon="2.19796">
        <ele>238.2</ele>
        <time>2019-06-09T07:12:33.000Z</time>
      </trkpt>
      <trkpt lat="43.31243" lon="2.198">
        <ele>238</ele>
        <time>2019-06-09T07:12:34.000Z</time>
      </trkpt>
      <trkpt lat="43.31241" lon="2.19803">
        <ele>237.8</ele>
        <time>2019-06-09T07:12:35.000Z</time>
      </trkpt>
      <trkpt lat="43.3124" lon="2.19806">
        <ele>237.6</ele>
        <time>2019-06-09T07:12:36.000Z</time>
      </trkpt>
      <trkpt lat="43.31239" lon="2.1981">
        <ele>237.4</ele>
        <time>2019-06-09T07:12:37.000Z</time>
      </trkpt>
      <trkpt lat="43.31237" lon="2.19813">
        <ele>237.2</ele>
        <time>2019-06-09T07:12:38.000Z</time>
      </trkpt>
      <trkpt lat="43.31235" lon="2.19817">
        <ele>236.9</ele>
        <time>2019-06-09T07:12:39.000Z</time>
      </trkpt>
      <trkpt lat="43.31234" lon="2.19821">
        <ele>236.7</ele>
        <time>2019-06-09T07:12:40.000Z</time>
      </trkpt>
      <trkpt lat="43.31232" lon="2.19824">
        <ele>236.5</ele>
        <time>2019-06-09T07:12:41.000Z</time>
      </trkpt>
      <trkpt lat="43.3123" lon="2.19828">
        <ele>236.2</ele>
        <time>2019-06-09T07:12:42.000Z</time>
      </trkpt>
      <trkpt lat="43.31229" lon="2.19832">
        <ele>236</ele>
        <time>2019-06-09T07:12:43.000Z</time>
      </trkpt>
      <trkpt lat="43.31227" lon="2.19835">
        <ele>235.8</ele>
        <time>2019-06-09T07:12:44.000Z</time>
      </trkpt>
      <trkpt lat="43.31225" lon="2.19839">
        <ele>235.7</ele>
        <time>2019-06-09T07:12:45.000Z</time>
      </trkpt>
      <trkpt lat="43.31224" lon="2.19843">
        <ele>235.5</ele>
        <time>2019-06-09T07:12:46.000Z</time>
      </trkpt>
      <trkpt lat="43.31222" lon="2.19846">
        <ele>235.4</ele>
        <time>2019-06-09T07:12:47.000Z</time>
      </trkpt>
      <trkpt lat="43.31221" lon="2.1985">
        <ele>235.2</ele>
        <time>2019-06-09T07:12:48.000Z</time>
      </trkpt>
      <trkpt lat="43.31219" lon="2.19853">
        <ele>235.1</ele>
        <time>2019-06-09T07:12:49.000Z</time>
      </trkpt>
      <trkpt lat="43.31217" lon="2.19857">
        <ele>235</ele>
        <time>2019-06-09T07:12:50.000Z</time>
      </trkpt>
      <trkpt lat="43.31216" lon="2.19861">
        <ele>234.9</ele>
        <time>2019-06-09T07:12:51.000Z</time>
      </trkpt>
      <trkpt lat="43.31214" lon="2.19864">
        <ele>234.8</ele>
        <time>2019-06-09T07:12:52.000Z</time>
      </trkpt>
      <trkpt lat="43.31213" lon="2.19868">
        <ele>234.7</ele>
        <time>2019-06-09T07:12:53.000Z</time>
      </trkpt>
      <trkpt lat="43.31211" lon="2.19871">
        <ele>234.7</ele>
        <time>2019-06-09T07:12:54.000Z</time>
      </trkpt>
      <trkpt lat="43.3121" lon="2.19875">
        <ele>234.6</ele>
        <time>2019-06-09T07:12:55.000Z</time>
      </trkpt>
      <trkpt lat="43.31208" lon="2.19878">
        <ele>234.5</ele>
        <time>2019-06-09T07:12:56.000Z</time>
      </trkpt>
      <trkpt lat="43.31206" lon="2.19882">
        <ele>234.4</ele>
        <time>2019-06-09T07:12:57.000Z</time>
      </trkpt>
      <trkpt lat="43.31205" lon="2.19886">
        <ele>234.4</ele>
        <time>2019-06-09T07:12:58.000Z</time>
      </trkpt>
      <trkpt lat="43.31203" lon="2.19889">
        <ele>234.3</ele>
        <time>2019-06-09T07:12:59.000Z</time>
      </trkpt>
      <trkpt lat="43.31201" lon="2.19893">
        <ele>234.3</ele>
        <time>2019-06-09T07:13:00.000Z</time>
      </trkpt>
      <trkpt lat="43.312" lon="2.19896">
        <ele>234.2</ele>
        <time>2019-06-09T07:13:01.000Z</time>
      </trkpt>
      <trkpt lat="43.31198" lon="2.199">
        <ele>234.2</ele>
        <time>2019-06-09T07:13:02.000Z</time>
      </trkpt>
      <trkpt lat="43.31196" lon="2.19903">
        <ele>234.2</ele>
        <time>2019-06-09T07:13:03.000Z</time>
      </trkpt>
      <trkpt lat="43.31194" lon="2.19907">
        <ele>234.1</ele>
        <time>2019-06-09T07:13:04.000Z</time>
      </trkpt>
      <trkpt lat="43.31193" lon="2.19911">
        <ele>234.1</ele>
        <time>2019-06-09T07:13:05.000Z</time>
      </trkpt>
      <trkpt lat="43.31191" lon="2.19914">
        <ele>234.1</ele>
        <time>2019-06-09T07:13:06.000Z</time>
      </trkpt>
      <trkpt lat="43.31189" lon="2.19917">
        <ele>234</ele>
        <time>2019-06-09T07:13:07.000Z</time>
      </trkpt>
      <trkpt lat="43.31187" lon="2.19921">
        <ele>233.9</ele>
        <time>2019-06-09T07:13:08.000Z</time>
      </trkpt>
      <trkpt lat="43.31185" lon="2.19924">
        <ele>233.7</ele>
        <time>2019-06-09T07:13:09.000Z</time>
      </trkpt>
      <trkpt lat="43.31183" lon="2.19928">
        <ele>233.6</ele>
        <time>2019-06-09T07:13:10.000Z</time>
      </trkpt>
      <trkpt lat="43.31181" lon="2.19931">
        <ele>233.4</ele>
        <time>2019-06-09T07:13:11.000Z</time>
      </trkpt>
      <trkpt lat="43.31179" lon="2.19934">
        <ele>233.2</ele>
        <time>2019-06-09T07:13:12.000Z</time>
      </trkpt>
      <trkpt lat="43.31176" lon="2.19937">
        <ele>233.1</ele>
        <time>2019-06-09T07:13:13.000Z</time>
      </trkpt>
      <trkpt lat="43.31174" lon="2.1994">
        <ele>232.9</ele>
        <time>2019-06-09T07:13:14.000Z</time>
      </trkpt>
      <trkpt lat="43.31172" lon="2.19943">
        <ele>232.7</ele>
        <time>2019-06-09T07:13:15.000Z</time>
      </trkpt>
      <trkpt lat="43.31169" lon="2.19946">
        <ele>232.5</ele>
        <time>2019-06-09T07:13:16.000Z</time>
      </trkpt>
      <trkpt lat="43.31167" lon="2.19948">
        <ele>232.3</ele>
        <time>2019-06-09T07:13:17.000Z</time>
      </trkpt>
      <trkpt lat="43.31165" lon="2.19951">
        <ele>232</ele>
        <time>2019-06-09T07:13:18.000Z</time>
      </trkpt>
      <trkpt lat="43.31162" lon="2.19954">
        <ele>231.7</ele>
        <time>2019-06-09T07:13:19.000Z</time>
      </trkpt>
      <trkpt lat="43.3116" lon="2.19957">
        <ele>231.4</ele>
        <time>2019-06-09T07:13:20.000Z</time>
      </trkpt>
      <trkpt lat="43.31157" lon="2.19959">
        <ele>231.1</ele>
        <time>2019-06-09T07:13:21.000Z</time>
      </trkpt>
      <trkpt lat="43.31155" lon="2.19962">
        <ele>230.9</ele>
        <time>2019-06-09T07:13:22.000Z</time>
      </trkpt>
      <trkpt lat="43.31153" lon="2.19965">
        <ele>230.6</ele>
        <time>2019-06-09T07:13:23.000Z</time>
      </trkpt>
      <trkpt lat="43.3115" lon="2.19968">
        <ele>230.3</ele>
        <time>2019-06-09T07:13:24.000Z</time>
      </trkpt>
      <trkpt lat="43.31148" lon="2.1997">
        <ele>230</ele>
        <time>2019-06-09T07:13:25.000Z</time>
      </trkpt>
      <trkpt lat="43.31145" lon="2.19973">
        <ele>229.8</ele>
        <time>2019-06-09T07:13:26.000Z</time>
      </trkpt>
      <trkpt lat="43.31143" lon="2.19976">
        <ele>229.5</ele>
        <time>2019-06-09T07:13:27.000Z</time>
      </trkpt>
      <trkpt lat="43.31141" lon="2.19979">
        <ele>229.2</ele>
        <time>2019-06-09T07:13:28.000Z</time>
      </trkpt>
      <trkpt lat="43.31138" lon="2.19982">
        <ele>229</ele>
        <time>2019-06-09T07:13:29.000Z</time>
      </trkpt>
      <trkpt lat="43.31136" lon="2.19986">
        <ele>228.7</ele>
        <time>2019-06-09T07:13:30.000Z</time>
      </trkpt>
      <trkpt lat="43.31133" lon="2.19989">
        <ele>228.4</ele>
        <time>2019-06-09T07:13:31.000Z</time>
      </trkpt>
      <trkpt lat="43.31131" lon="2.19992">
        <ele>228.1</ele>
        <time>2019-06-09T07:13:32.000Z</time>
      </trkpt>
      <trkpt lat="43.31128" lon="2.19995">
        <ele>227.9</ele>
        <time>2019-06-09T07:13:33.000Z</time>
      </trkpt>
      <trkpt lat="43.31126" lon="2.19999">
        <ele>227.6</ele>
        <time>2019-06-09T07:13:34.000Z</time>
      </trkpt>
      <trkpt lat="43.31124" lon="2.20002">
        <ele>227.4</ele>
        <time>2019-06-09T07:13:35.000Z</time>
      </trkpt>
      <trkpt lat="43.31121" lon="2.20005">
        <ele>227.2</ele>
        <time>2019-06-09T07:13:36.000Z</time>
      </trkpt>
      <trkpt lat="43.31119" lon="2.20009">
        <ele>227</ele>
        <time>2019-06-09T07:13:37.000Z</time>
      </trkpt>
      <trkpt lat="43.31117" lon="2.20012">
        <ele>226.8</ele>
        <time>2019-06-09T07:13:38.000Z</time>
      </trkpt>
      <trkpt lat="43.31115" lon="2.20016">
        <ele>226.6</ele>
        <time>2019-06-09T07:13:39.000Z</time>
      </trkpt>
      <trkpt lat="43.31113" lon="2.2002">
        <ele>226.4</ele>
        <time>2019-06-09T07:13:40.000Z</time>
      </trkpt>
      <trkpt lat="43.31111" lon="2.20023">
        <ele>226.3</ele>
        <time>2019-06-09T07:13:41.000Z</time>
      </trkpt>
      <trkpt lat="43.31109" lon="2.20027">
        <ele>226.1</ele>
        <time>2019-06-09T07:13:42.000Z</time>
      </trkpt>
      <trkpt lat="43.31107" lon="2.2003">
        <ele>226</ele>
        <time>2019-06-09T07:13:43.000Z</time>
      </trkpt>
      <trkpt lat="43.31105" lon="2.20034">
        <ele>225.8</ele>
        <time>2019-06-09T07:13:44.000Z</time>
      </trkpt>
      <trkpt lat="43.31103" lon="2.20038">
        <ele>225.6</ele>
        <time>2019-06-09T07:13:45.000Z</time>
      </trkpt>
      <trkpt lat="43.31101" lon="2.20041">
        <ele>225.5</ele>
        <time>2019-06-09T07:13:46.000Z</time>
      </trkpt>
      <trkpt lat="43.31099" lon="2.20045">
        <ele>225.3</ele>
        <time>2019-06-09T07:13:47.000Z</time>
      </trkpt>
      <trkpt lat="43.31097" lon="2.20049">
        <ele>225.1</ele>
        <time>2019-06-09T07:13:48.000Z</time>
      </trkpt>
      <trkpt lat="43.31094" lon="2.20052">
        <ele>224.9</ele>
        <time>2019-06-09T07:13:49.000Z</time>
      </trkpt>
      <trkpt lat="43.31092" lon="2.20056">
        <ele>224.8</ele>
        <time>2019-06-09T07:13:50.000Z</time>
      </trkpt>
      <trkpt lat="43.3109" lon="2.20059">
        <ele>224.6</ele>
        <time>2019-06-09T07:13:51.000Z</time>
      </trkpt>
      <trkpt lat="43.31088" lon="2.20063">
        <ele>224.4</ele>
        <time>2019-06-09T07:13:52.000Z</time>
      </trkpt>
      <trkpt lat="43.31086" lon="2.20067">
        <ele>224.2</ele>
        <time>2019-06-09T07:13:53.000Z</time>
      </trkpt>
      <trkpt lat="43.31084" lon="2.2007">
        <ele>224</ele>
        <time>2019-06-09T07:13:54.000Z</time>
      </trkpt>
      <trkpt lat="43.31081" lon="2.20074">
        <ele>223.8</ele>
        <time>2019-06-09T07:13:55.000Z</time>
      </trkpt>
      <trkpt lat="43.31079" lon="2.20078">
        <ele>223.6</ele>
        <time>2019-06-09T07:13:56.000Z</time>
      </trkpt>
      <trkpt lat="43.31077" lon="2.20081">
        <ele>223.4</ele>
        <time>2019-06-09T07:13:57.000Z</time>
      </trkpt>
      <trkpt lat="43.31075" lon="2.20085">
        <ele>223.2</ele>
        <time>2019-06-09T07:13:58.000Z</time>
      </trkpt>
      <trkpt lat="43.31073" lon="2.20089">
        <ele>223</ele>
        <time>2019-06-09T07:13:59.000Z</time>
      </trkpt>
      <trkpt lat="43.31071" lon="2.20092">
        <ele>222.9</ele>
        <time>2019-06-09T07:14:00.000Z</time>
      </trkpt>
      <trkpt lat="43.31069" lon="2.20096">
        <ele>222.7</ele>
        <time>2019-06-09T07:14:01.000Z</time>
      </trkpt>
      <trkpt lat="43.31066" lon="2.201">
        <ele>222.5</ele>
        <time>2019-06-09T07:14:02.000Z</time>
      </trkpt>
      <trkpt lat="43.31064" lon="2.20103">
        <ele>222.3</ele>
        <time>2019-06-09T07:14:03.000Z</time>
      </trkpt>
      <trkpt lat="43.31062" lon="2.20107">
        <ele>222.1</ele>
        <time>2019-06-09T07:14:04.000Z</time>
      </trkpt>
      <trkpt lat="43.3106" lon="2.20111">
        <ele>221.9</ele>
        <time>2019-06-09T07:14:05.000Z</time>
      </trkpt>
      <trkpt lat="43.31058" lon="2.20114">
        <ele>221.7</ele>
        <time>2019-06-09T07:14:06.000Z</time>
      </trkpt>
      <trkpt lat="43.31056" lon="2.20118">
        <ele>221.5</ele>
        <time>2019-06-09T07:14:07.000Z</time>
      </trkpt>
      <trkpt lat="43.31054" lon="2.20121">
        <ele>221.3</ele>
        <time>2019-06-09T07:14:08.000Z</time>
      </trkpt>
      <trkpt lat="43.31052" lon="2.20125">
        <ele>221.1</ele>
        <time>2019-06-09T07:14:09.000Z</time>
      </trkpt>
      <trkpt lat="43.3105" lon="2.20128">
        <ele>220.9</ele>
        <time>2019-06-09T07:14:10.000Z</time>
      </trkpt>
      <trkpt lat="43.31048" lon="2.20132">
        <ele>220.7</ele>
        <time>2019-06-09T07:14:11.000Z</time>
      </trkpt>
      <trkpt lat="43.31046" lon="2.20135">
        <ele>220.5</ele>
        <time>2019-06-09T07:14:12.000Z</time>
      </trkpt>
      <trkpt lat="43.31044" lon="2.20139">
        <ele>220.2</ele>
        <time>2019-06-09T07:14:13.000Z</time>
      </trkpt>
      <trkpt lat="43.31042" lon="2.20142">
        <ele>220</ele>
        <time>2019-06-09T07:14:14.000Z</time>
      </trkpt>
      <trkpt lat="43.3104" lon="2.20146">
        <ele>219.8</ele>
        <time>2019-06-09T07:14:15.000Z</time>
      </trkpt>
      <trkpt lat="43.31038" lon="2.20149">
        <ele>219.5</ele>
        <time>2019-06-09T07:14:16.000Z</time>
      </trkpt>
      <trkpt lat="43.31036" lon="2.20153">
        <ele>219.3</ele>
        <time>2019-06-09T07:14:17.000Z</time>
      </trkpt>
      <trkpt lat="43.31034" lon="2.20156">
        <ele>219</ele>
        <time>2019-06-09T07:14:18.000Z</time>
      </trkpt>
      <trkpt lat="43.31031" lon="2.20159">
        <ele>218.8</ele>
        <time>2019-06-09T07:14:19.000Z</time>
      </trkpt>
      <trkpt lat="43.31029" lon="2.20163">
        <ele>218.5</ele>
        <time>2019-06-09T07:14:20.000Z</time>
      </trkpt>
      <trkpt lat="43.31027" lon="2.20166">
        <ele>218.3</ele>
        <time>2019-06-09T07:14:21.000Z</time>
      </trkpt>
      <trkpt lat="43.31025" lon="2.20169">
        <ele>218.1</ele>
        <time>2019-06-09T07:14:22.000Z</time>
      </trkpt>
      <trkpt lat="43.31024" lon="2.20173">
        <ele>217.9</ele>
        <time>2019-06-09T07:14:23.000Z</time>
      </trkpt>
      <trkpt lat="43.31022" lon="2.20176">
        <ele>217.7</ele>
        <time>2019-06-09T07:14:24.000Z</time>
      </trkpt>
      <trkpt lat="43.3102" lon="2.2018">
        <ele>217.6</ele>
        <time>2019-06-09T07:14:25.000Z</time>
      </trkpt>
      <trkpt lat="43.31018" lon="2.20183">
        <ele>217.4</ele>
        <time>2019-06-09T07:14:26.000Z</time>
      </trkpt>
      <trkpt lat="43.31016" lon="2.20186">
        <ele>217.2</ele>
        <time>2019-06-09T07:14:27.000Z</time>
      </trkpt>
      <trkpt lat="43.31014" lon="2.2019">
        <ele>217</ele>
        <time>2019-06-09T07:14:28.000Z</time>
      </trkpt>
      <trkpt lat="43.31013" lon="2.20193">
        <ele>216.8</ele>
        <time>2019-06-09T07:14:29.000Z</time>
      </trkpt>
      <trkpt lat="43.31011" lon="2.20197">
        <ele>216.5</ele>
        <time>2019-06-09T07:14:30.000Z</time>
      </trkpt>
      <trkpt lat="43.31009" lon="2.202">
        <ele>216.3</ele>
        <time>2019-06-09T07:14:31.000Z</time>
      </trkpt>
      <trkpt lat="43.31007" lon="2.20204">
        <ele>216</ele>
        <time>2019-06-09T07:14:32.000Z</time>
      </trkpt>
      <trkpt lat="43.31005" lon="2.20208">
        <ele>215.7</ele>
        <time>2019-06-09T07:14:33.000Z</time>
      </trkpt>
      <trkpt lat="43.31003" lon="2.20211">
        <ele>215.4</ele>
        <time>2019-06-09T07:14:34.000Z</time>
      </trkpt>
      <trkpt lat="43.31001" lon="2.20215">
        <ele>215.1</ele>
        <time>2019-06-09T07:14:35.000Z</time>
      </trkpt>
      <trkpt lat="43.30999" lon="2.20219">
        <ele>214.8</ele>
        <time>2019-06-09T07:14:36.000Z</time>
      </trkpt>
      <trkpt lat="43.30997" lon="2.20222">
        <ele>214.6</ele>
        <time>2019-06-09T07:14:37.000Z</time>
      </trkpt>
      <trkpt lat="43.30995" lon="2.20226">
        <ele>214.4</ele>
        <time>2019-06-09T07:14:38.000Z</time>
      </trkpt>
      <trkpt lat="43.30993" lon="2.2023">
        <ele>214.1</ele>
        <time>2019-06-09T07:14:39.000Z</time>
      </trkpt>
      <trkpt lat="43.30991" lon="2.20234">
        <ele>213.8</ele>
        <time>2019-06-09T07:14:40.000Z</time>
      </trkpt>
      <trkpt lat="43.3099" lon="2.20238">
        <ele>213.6</ele>
        <time>2019-06-09T07:14:41.000Z</time>
      </trkpt>
      <trkpt lat="43.30988" lon="2.20242">
        <ele>213.3</ele>
        <time>2019-06-09T07:14:42.000Z</time>
      </trkpt>
      <trkpt lat="43.30987" lon="2.20246">
        <ele>213.1</ele>
        <time>2019-06-09T07:14:43.000Z</time>
      </trkpt>
      <trkpt lat="43.30985" lon="2.2025">
        <ele>212.9</ele>
        <time>2019-06-09T07:14:44.000Z</time>
      </trkpt>
      <trkpt lat="43.30984" lon="2.20255">
        <ele>212.5</ele>
        <time>2019-06-09T07:14:45.000Z</time>
      </trkpt>
      <trkpt lat="43.30983" lon="2.20259">
        <ele>212.2</ele>
        <time>2019-06-09T07:14:46.000Z</time>
      </trkpt>
      <trkpt lat="43.30983" lon="2.20264">
        <ele>212</ele>
        <time>2019-06-09T07:14:47.000Z</time>
      </trkpt>
      <trkpt lat="43.30982" lon="2.20268">
        <ele>211.7</ele>
        <time>2019-06-09T07:14:48.000Z</time>
      </trkpt>
      <trkpt lat="43.30982" lon="2.20273">
        <ele>211.5</ele>
        <time>2019-06-09T07:14:49.000Z</time>
      </trkpt>
      <trkpt lat="43.30982" lon="2.20277">
        <ele>211.3</ele>
        <time>2019-06-09T07:14:50.000Z</time>
      </trkpt>
      <trkpt lat="43.30982" lon="2.20282">
        <ele>211.1</ele>
        <time>2019-06-09T07:14:51.000Z</time>
      </trkpt>
      <trkpt lat="43.30982" lon="2.20286">
        <ele>211</ele>
        <time>2019-06-09T07:14:52.000Z</time>
      </trkpt>
      <trkpt lat="43.30983" lon="2.20291">
        <ele>210.8</ele>
        <time>2019-06-09T07:14:53.000Z</time>
      </trkpt>
      <trkpt lat="43.30983" lon="2.20296">
        <ele>210.7</ele>
        <time>2019-06-09T07:14:54.000Z</time>
      </trkpt>
      <trkpt lat="43.30983" lon="2.203">
        <ele>210.5</ele>
        <time>2019-06-09T07:14:55.000Z</time>
      </trkpt>
      <trkpt lat="43.30984" lon="2.20305">
        <ele>210.4</ele>
        <time>2019-06-09T07:14:56.000Z</time>
      </trkpt>
      <trkpt lat="43.30984" lon="2.2031">
        <ele>210.3</ele>
        <time>2019-06-09T07:14:57.000Z</time>
      </trkpt>
      <trkpt lat="43.30985" lon="2.20314">
        <ele>210.2</ele>
        <time>2019-06-09T07:14:58.000Z</time>
      </trkpt>
      <trkpt lat="43.30985" lon="2.20319">
        <ele>210.1</ele>
        <time>2019-06-09T07:14:59.000Z</time>
      </trkpt>
      <trkpt lat="43.30986" lon="2.20323">
        <ele>210</ele>
        <time>2019-06-09T07:15:00.000Z</time>
      </trkpt>
      <trkpt lat="43.30986" lon="2.20328">
        <ele>209.9</ele>
        <time>2019-06-09T07:15:01.000Z</time>
      </trkpt>
      <trkpt lat="43.30987" lon="2.20333">
        <ele>209.8</ele>
        <time>2019-06-09T07:15:02.000Z</time>
      </trkpt>
      <trkpt lat="43.30987" lon="2.20338">
        <ele>209.6</ele>
        <time>2019-06-09T07:15:03.000Z</time>
      </trkpt>
      <trkpt lat="43.30987" lon="2.20342">
        <ele>209.4</ele>
        <time>2019-06-09T07:15:04.000Z</time>
      </trkpt>
      <trkpt lat="43.30988" lon="2.20347">
        <ele>209.2</ele>
        <time>2019-06-09T07:15:05.000Z</time>
      </trkpt>
      <trkpt lat="43.30988" lon="2.20352">
        <ele>209</ele>
        <time>2019-06-09T07:15:06.000Z</time>
      </trkpt>
      <trkpt lat="43.30988" lon="2.20357">
        <ele>208.8</ele>
        <time>2019-06-09T07:15:07.000Z</time>
      </trkpt>
      <trkpt lat="43.30989" lon="2.20362">
        <ele>208.5</ele>
        <time>2019-06-09T07:15:08.000Z</time>
      </trkpt>
      <trkpt lat="43.30989" lon="2.20367">
        <ele>208.3</ele>
        <time>2019-06-09T07:15:09.000Z</time>
      </trkpt>
      <trkpt lat="43.30989" lon="2.20371">
        <ele>208</ele>
        <time>2019-06-09T07:15:10.000Z</time>
      </trkpt>
      <trkpt lat="43.30989" lon="2.20376">
        <ele>207.8</ele>
        <time>2019-06-09T07:15:11.000Z</time>
      </trkpt>
      <trkpt lat="43.3099" lon="2.20381">
        <ele>207.6</ele>
        <time>2019-06-09T07:15:12.000Z</time>
      </trkpt>
      <trkpt lat="43.3099" lon="2.20386">
        <ele>207.3</ele>
        <time>2019-06-09T07:15:13.000Z</time>
      </trkpt>
      <trkpt lat="43.3099" lon="2.20391">
        <ele>207.1</ele>
        <time>2019-06-09T07:15:14.000Z</time>
      </trkpt>
      <trkpt lat="43.3099" lon="2.20396">
        <ele>206.8</ele>
        <time>2019-06-09T07:15:15.000Z</time>
      </trkpt>
      <trkpt lat="43.3099" lon="2.20401">
        <ele>206.6</ele>
        <time>2019-06-09T07:15:16.000Z</time>
      </trkpt>
      <trkpt lat="43.30991" lon="2.20406">
        <ele>206.3</ele>
        <time>2019-06-09T07:15:17.000Z</time>
      </trkpt>
      <trkpt lat="43.30991" lon="2.20411">
        <ele>206.1</ele>
        <time>2019-06-09T07:15:18.000Z</time>
      </trkpt>
      <trkpt lat="43.30991" lon="2.20416">
        <ele>205.9</ele>
        <time>2019-06-09T07:15:19.000Z</time>
      </trkpt>
      <trkpt lat="43.30991" lon="2.20421">
        <ele>205.6</ele>
        <time>2019-06-09T07:15:20.000Z</time>
      </trkpt>
      <trkpt lat="43.30992" lon="2.20427">
        <ele>205.5</ele>
        <time>2019-06-09T07:15:21.000Z</time>
      </trkpt>
      <trkpt lat="43.30992" lon="2.20432">
        <ele>205.3</ele>
        <time>2019-06-09T07:15:22.000Z</time>
      </trkpt>
      <trkpt lat="43.30992" lon="2.20437">
        <ele>205.1</ele>
        <time>2019-06-09T07:15:23.000Z</time>
      </trkpt>
      <trkpt lat="43.30993" lon="2.20442">
        <ele>204.9</ele>
        <time>2019-06-09T07:15:24.000Z</time>
      </trkpt>
      <trkpt lat="43.30993" lon="2.20447">
        <ele>204.7</ele>
        <time>2019-06-09T07:15:25.000Z</time>
      </trkpt>
      <trkpt lat="43.30993" lon="2.20452">
        <ele>204.5</ele>
        <time>2019-06-09T07:15:26.000Z</time>
      </trkpt>
      <trkpt lat="43.30994" lon="2.20457">
        <ele>204.3</ele>
        <time>2019-06-09T07:15:27.000Z</time>
      </trkpt>
      <trkpt lat="43.30994" lon="2.20462">
        <ele>204.1</ele>
        <time>2019-06-09T07:15:28.000Z</time>
      </trkpt>
      <trkpt lat="43.30994" lon="2.20466">
        <ele>203.9</ele>
        <time>2019-06-09T07:15:29.000Z</time>
      </trkpt>
      <trkpt lat="43.30995" lon="2.20471">
        <ele>203.7</ele>
        <time>2019-06-09T07:15:30.000Z</time>
      </trkpt>
      <trkpt lat="43.30995" lon="2.20476">
        <ele>203.6</ele>
        <time>2019-06-09T07:15:31.000Z</time>
      </trkpt>
      <trkpt lat="43.30995" lon="2.20481">
        <ele>203.4</ele>
        <time>2019-06-09T07:15:32.000Z</time>
      </trkpt>
      <trkpt lat="43.30995" lon="2.20486">
        <ele>203.2</ele>
        <time>2019-06-09T07:15:33.000Z</time>
      </trkpt>
      <trkpt lat="43.30996" lon="2.20491">
        <ele>203</ele>
        <time>2019-06-09T07:15:34.000Z</time>
      </trkpt>
      <trkpt lat="43.30996" lon="2.20496">
        <ele>202.7</ele>
        <time>2019-06-09T07:15:35.000Z</time>
      </trkpt>
      <trkpt lat="43.30996" lon="2.20501">
        <ele>202.5</ele>
        <time>2019-06-09T07:15:36.000Z</time>
      </trkpt>
      <trkpt lat="43.30996" lon="2.20506">
        <ele>202.5</ele>
        <time>2019-06-09T07:15:37.000Z</time>
      </trkpt>
      <trkpt lat="43.30996" lon="2.2051">
        <ele>202.4</ele>
        <time>2019-06-09T07:15:38.000Z</time>
      </trkpt>
      <trkpt lat="43.30995" lon="2.20513">
        <ele>202.4</ele>
        <time>2019-06-09T07:15:39.000Z</time>
      </trkpt>
      <trkpt lat="43.30995" lon="2.20515">
        <ele>202.3</ele>
        <time>2019-06-09T07:15:40.000Z</time>
      </trkpt>
      <trkpt lat="43.30995" lon="2.20515">
        <ele>202.3</ele>
        <time>2019-06-09T07:15:41.000Z</time>
      </trkpt>
      <trkpt lat="43.30994" lon="2.20514">
        <ele>202.2</ele>
        <time>2019-06-09T07:15:42.000Z</time>
      </trkpt>
      <trkpt lat="43.30994" lon="2.20513">
        <ele>202.3</ele>
        <time>2019-06-09T07:15:43.000Z</time>
      </trkpt>
      <trkpt lat="43.30995" lon="2.20512">
        <ele>202.3</ele>
        <time>2019-06-09T07:15:44.000Z</time>
      </trkpt>
      <trkpt lat="43.30996" lon="2.20511">
        <ele>202.4</ele>
        <time>2019-06-09T07:15:45.000Z</time>
      </trkpt>
      <trkpt lat="43.30996" lon="2.20511">
        <ele>202.5</ele>
        <time>2019-06-09T07:15:46.000Z</time>
      </trkpt>
      <trkpt lat="43.30996" lon="2.2051">
        <ele>202.5</ele>
        <time>2019-06-09T07:15:47.000Z</time>
      </trkpt>
      <trkpt lat="43.30996" lon="2.2051">
        <ele>202.5</ele>
        <time>2019-06-09T07:15:48.000Z</time>
      </trkpt>
      <trkpt lat="43.30997" lon="2.2051">
        <ele>202.5</ele>
        <time>2019-06-09T07:15:49.000Z</time>
      </trkpt>
      <trkpt lat="43.30997" lon="2.2051">
        <ele>202.6</ele>
        <time>2019-06-09T07:15:50.000Z</time>
      </trkpt>
      <trkpt lat="43.30997" lon="2.20511">
        <ele>202.6</ele>
        <time>2019-06-09T07:15:51.000Z</time>
      </trkpt>
      <trkpt lat="43.30998" lon="2.20511">
        <ele>202.7</ele>
        <time>2019-06-09T07:15:52.000Z</time>
      </trkpt>
      <trkpt lat="43.30999" lon="2.20512">
        <ele>202.7</ele>
        <time>2019-06-09T07:15:53.000Z</time>
      </trkpt>
      <trkpt lat="43.30999" lon="2.20512">
        <ele>202.8</ele>
        <time>2019-06-09T07:15:54.000Z</time>
      </trkpt>
      <trkpt lat="43.31" lon="2.20513">
        <ele>202.9</ele>
        <time>2019-06-09T07:15:55.000Z</time>
      </trkpt>
      <trkpt lat="43.31001" lon="2.20514">
        <ele>202.9</ele>
        <time>2019-06-09T07:15:56.000Z</time>
      </trkpt>
      <trkpt lat="43.31002" lon="2.20515">
        <ele>203</ele>
        <time>2019-06-09T07:15:57.000Z</time>
      </trkpt>
      <trkpt lat="43.31003" lon="2.20516">
        <ele>203</ele>
        <time>2019-06-09T07:15:58.000Z</time>
      </trkpt>
      <trkpt lat="43.31004" lon="2.20517">
        <ele>203.1</ele>
        <time>2019-06-09T07:15:59.000Z</time>
      </trkpt>
      <trkpt lat="43.31005" lon="2.20518">
        <ele>203.1</ele>
        <time>2019-06-09T07:16:00.000Z</time>
      </trkpt>
      <trkpt lat="43.31005" lon="2.20519">
        <ele>203.2</ele>
        <time>2019-06-09T07:16:01.000Z</time>
      </trkpt>
      <trkpt lat="43.31006" lon="2.2052">
        <ele>203.2</ele>
        <time>2019-06-09T07:16:02.000Z</time>
      </trkpt>
      <trkpt lat="43.31007" lon="2.20521">
        <ele>203.3</ele>
        <time>2019-06-09T07:16:03.000Z</time>
      </trkpt>
      <trkpt lat="43.31008" lon="2.20522">
        <ele>203.3</ele>
        <time>2019-06-09T07:16:04.000Z</time>
      </trkpt>
      <trkpt lat="43.31009" lon="2.20524">
        <ele>203.4</ele>
        <time>2019-06-09T07:16:05.000Z</time>
      </trkpt>
      <trkpt lat="43.3101" lon="2.20525">
        <ele>203.4</ele>
        <time>2019-06-09T07:16:06.000Z</time>
      </trkpt>
      <trkpt lat="43.31011" lon="2.20526">
        <ele>203.5</ele>
        <time>2019-06-09T07:16:07.000Z</time>
      </trkpt>
      <trkpt lat="43.31012" lon="2.20527">
        <ele>203.5</ele>
        <time>2019-06-09T07:16:08.000Z</time>
      </trkpt>
      <trkpt lat="43.31013" lon="2.20528">
        <ele>203.6</ele>
        <time>2019-06-09T07:16:09.000Z</time>
      </trkpt>
      <trkpt lat="43.31014" lon="2.20529">
        <ele>203.6</ele>
        <time>2019-06-09T07:16:10.000Z</time>
      </trkpt>
      <trkpt lat="43.31015" lon="2.2053">
        <ele>203.6</ele>
        <time>2019-06-09T07:16:11.000Z</time>
      </trkpt>
      <trkpt lat="43.31016" lon="2.20531">
        <ele>203.7</ele>
        <time>2019-06-09T07:16:12.000Z</time>
      </trkpt>
      <trkpt lat="43.31017" lon="2.20532">
        <ele>203.7</ele>
        <time>2019-06-09T07:16:13.000Z</time>
      </trkpt>
      <trkpt lat="43.31018" lon="2.20533">
        <ele>203.8</ele>
        <time>2019-06-09T07:16:14.000Z</time>
      </trkpt>
      <trkpt lat="43.31019" lon="2.20534">
        <ele>203.8</ele>
        <time>2019-06-09T07:16:15.000Z</time>
      </trkpt>
      <trkpt lat="43.3102" lon="2.20535">
        <ele>203.8</ele>
        <time>2019-06-09T07:16:16.000Z</time>
      </trkpt>
      <trkpt lat="43.31021" lon="2.20536">
        <ele>203.9</ele>
        <time>2019-06-09T07:16:17.000Z</time>
      </trkpt>
      <trkpt lat="43.31022" lon="2.20537">
        <ele>203.9</ele>
        <time>2019-06-09T07:16:18.000Z</time>
      </trkpt>
      <trkpt lat="43.31023" lon="2.20538">
        <ele>204</ele>
        <time>2019-06-09T07:16:19.000Z</time>
      </trkpt>
      <trkpt lat="43.31024" lon="2.20539">
        <ele>204</ele>
        <time>2019-06-09T07:16:20.000Z</time>
      </trkpt>
      <trkpt lat="43.31025" lon="2.2054">
        <ele>204</ele>
        <time>2019-06-09T07:16:21.000Z</time>
      </trkpt>
      <trkpt lat="43.31026" lon="2.20541">
        <ele>204.1</ele>
        <time>2019-06-09T07:16:22.000Z</time>
      </trkpt>
      <trkpt lat="43.31027" lon="2.20542">
        <ele>204.1</ele>
        <time>2019-06-09T07:16:23.000Z</time>
      </trkpt>
      <trkpt lat="43.31028" lon="2.20543">
        <ele>204.1</ele>
        <time>2019-06-09T07:16:24.000Z</time>
      </trkpt>
      <trkpt lat="43.31029" lon="2.20544">
        <ele>204.2</ele>
        <time>2019-06-09T07:16:25.000Z</time>
      </trkpt>
      <trkpt lat="43.3103" lon="2.20545">
        <ele>204.2</ele>
        <time>2019-06-09T07:16:26.000Z</time>
      </trkpt>
      <trkpt lat="43.31031" lon="2.20546">
        <ele>204.2</ele>
        <time>2019-06-09T07:16:27.000Z</time>
      </trkpt>
      <trkpt lat="43.31032" lon="2.20547">
        <ele>204.2</ele>
        <time>2019-06-09T07:16:28.000Z</time>
      </trkpt>
      <trkpt lat="43.31032" lon="2.20548">
        <ele>204.3</ele>
        <time>2019-06-09T07:16:29.000Z</time>
      </trkpt>
      <trkpt lat="43.31033" lon="2.20549">
        <ele>204.3</ele>
        <time>2019-06-09T07:16:30.000Z</time>
      </trkpt>
      <trkpt lat="43.31034" lon="2.2055">
        <ele>204.3</ele>
        <time>2019-06-09T07:16:31.000Z</time>
      </trkpt>
      <trkpt lat="43.31035" lon="2.20551">
        <ele>204.3</ele>
        <time>2019-06-09T07:16:32.000Z</time>
      </trkpt>
      <trkpt lat="43.31036" lon="2.20552">
        <ele>204.3</ele>
        <time>2019-06-09T07:16:33.000Z</time>
      </trkpt>
      <trkpt lat="43.31036" lon="2.20553">
        <ele>204.3</ele>
        <time>2019-06-09T07:16:34.000Z</time>
      </trkpt>
      <trkpt lat="43.31037" lon="2.20555">
        <ele>204.3</ele>
        <time>2019-06-09T07:16:35.000Z</time>
      </trkpt>
      <trkpt lat="43.31037" lon="2.20556">
        <ele>204.3</ele>
        <time>2019-06-09T07:16:36.000Z</time>
      </trkpt>
      <trkpt lat="43.31038" lon="2.20557">
        <ele>204.2</ele>
        <time>2019-06-09T07:16:37.000Z</time>
      </trkpt>
      <trkpt lat="43.31038" lon="2.20558">
        <ele>204.2</ele>
        <time>2019-06-09T07:16:38.000Z</time>
      </trkpt>
      <trkpt lat="43.31038" lon="2.2056">
        <ele>204.2</ele>
        <time>2019-06-09T07:16:39.000Z</time>
      </trkpt>
      <trkpt lat="43.31039" lon="2.20561">
        <ele>204.2</ele>
        <time>2019-06-09T07:16:40.000Z</time>
      </trkpt>
      <trkpt lat="43.31039" lon="2.20562">
        <ele>204.1</ele>
        <time>2019-06-09T07:16:41.000Z</time>
      </trkpt>
      <trkpt lat="43.31039" lon="2.20564">
        <ele>204.1</ele>
        <time>2019-06-09T07:16:42.000Z</time>
      </trkpt>
      <trkpt lat="43.31039" lon="2.20565">
        <ele>204</ele>
        <time>2019-06-09T07:16:43.000Z</time>
      </trkpt>
      <trkpt lat="43.31038" lon="2.20566">
        <ele>204</ele>
        <time>2019-06-09T07:16:44.000Z</time>
      </trkpt>
      <trkpt lat="43.31038" lon="2.20568">
        <ele>203.9</ele>
        <time>2019-06-09T07:16:45.000Z</time>
      </trkpt>
      <trkpt lat="43.31038" lon="2.20569">
        <ele>203.9</ele>
        <time>2019-06-09T07:16:46.000Z</time>
      </trkpt>
      <trkpt lat="43.31037" lon="2.2057">
        <ele>203.8</ele>
        <time>2019-06-09T07:16:47.000Z</time>
      </trkpt>
      <trkpt lat="43.31037" lon="2.20571">
        <ele>203.7</ele>
        <time>2019-06-09T07:16:48.000Z</time>
      </trkpt>
      <trkpt lat="43.31037" lon="2.20572">
        <ele>203.7</ele>
        <time>2019-06-09T07:16:49.000Z</time>
      </trkpt>
      <trkpt lat="43.31036" lon="2.20573">
        <ele>203.6</ele>
        <time>2019-06-09T07:16:50.000Z</time>
      </trkpt>
      <trkpt lat="43.31036" lon="2.20575">
        <ele>203.6</ele>
        <time>2019-06-09T07:16:51.000Z</time>
      </trkpt>
      <trkpt lat="43.31035" lon="2.20576">
        <ele>203.5</ele>
        <time>2019-06-09T07:16:52.000Z</time>
      </trkpt>
      <trkpt lat="43.31035" lon="2.20577">
        <ele>203.5</ele>
        <time>2019-06-09T07:16:53.000Z</time>
      </trkpt>
      <trkpt lat="43.31034" lon="2.20578">
        <ele>203.4</ele>
        <time>2019-06-09T07:16:54.000Z</time>
      </trkpt>
      <trkpt lat="43.31034" lon="2.20579">
        <ele>203.4</ele>
        <time>2019-06-09T07:16:55.000Z</time>
      </trkpt>
      <trkpt lat="43.31033" lon="2.2058">
        <ele>203.3</ele>
        <time>2019-06-09T07:16:56.000Z</time>
      </trkpt>
      <trkpt lat="43.31033" lon="2.20581">
        <ele>203.3</ele>
        <time>2019-06-09T07:16:57.000Z</time>
      </trkpt>
      <trkpt lat="43.31032" lon="2.20581">
        <ele>203.2</ele>
        <time>2019-06-09T07:16:58.000Z</time>
      </trkpt>
      <trkpt lat="43.31031" lon="2.20582">
        <ele>203.1</ele>
        <time>2019-06-09T07:16:59.000Z</time>
      </trkpt>
      <trkpt lat="43.3103" lon="2.20583">
        <ele>203.1</ele>
        <time>2019-06-09T07:17:00.000Z</time>
      </trkpt>
      <trkpt lat="43.31029" lon="2.20585">
        <ele>203</ele>
        <time>2019-06-09T07:17:01.000Z</time>
      </trkpt>
      <trkpt lat="43.31028" lon="2.20586">
        <ele>202.9</ele>
        <time>2019-06-09T07:17:02.000Z</time>
      </trkpt>
      <trkpt lat="43.31028" lon="2.20587">
        <ele>202.9</ele>
        <time>2019-06-09T07:17:03.000Z</time>
      </trkpt>
      <trkpt lat="43.31027" lon="2.20589">
        <ele>202.8</ele>
        <time>2019-06-09T07:17:04.000Z</time>
      </trkpt>
      <trkpt lat="43.31026" lon="2.20591">
        <ele>202.7</ele>
        <time>2019-06-09T07:17:05.000Z</time>
      </trkpt>
      <trkpt lat="43.31025" lon="2.20592">
        <ele>202.6</ele>
        <time>2019-06-09T07:17:06.000Z</time>
      </trkpt>
      <trkpt lat="43.31024" lon="2.20594">
        <ele>202.5</ele>
        <time>2019-06-09T07:17:07.000Z</time>
      </trkpt>
      <trkpt lat="43.31024" lon="2.20596">
        <ele>202.4</ele>
        <time>2019-06-09T07:17:08.000Z</time>
      </trkpt>
      <trkpt lat="43.31023" lon="2.20597">
        <ele>202.4</ele>
        <time>2019-06-09T07:17:09.000Z</time>
      </trkpt>
      <trkpt lat="43.31023" lon="2.20598">
        <ele>202.3</ele>
        <time>2019-06-09T07:17:10.000Z</time>
      </trkpt>
      <trkpt lat="43.31022" lon="2.20599">
        <ele>202.3</ele>
        <time>2019-06-09T07:17:11.000Z</time>
      </trkpt>
      <trkpt lat="43.31021" lon="2.20601">
        <ele>202.2</ele>
        <time>2019-06-09T07:17:12.000Z</time>
      </trkpt>
      <trkpt lat="43.3102" lon="2.20602">
        <ele>202.1</ele>
        <time>2019-06-09T07:17:13.000Z</time>
      </trkpt>
      <trkpt lat="43.3102" lon="2.20603">
        <ele>202.1</ele>
        <time>2019-06-09T07:17:14.000Z</time>
      </trkpt>
      <trkpt lat="43.31019" lon="2.20605">
        <ele>202</ele>
        <time>2019-06-09T07:17:15.000Z</time>
      </trkpt>
      <trkpt lat="43.31018" lon="2.20607">
        <ele>201.9</ele>
        <time>2019-06-09T07:17:16.000Z</time>
      </trkpt>
      <trkpt lat="43.31017" lon="2.20609">
        <ele>201.8</ele>
        <time>2019-06-09T07:17:17.000Z</time>
      </trkpt>
      <trkpt lat="43.31016" lon="2.20611">
        <ele>201.7</ele>
        <time>2019-06-09T07:17:18.000Z</time>
      </trkpt>
      <trkpt lat="43.31015" lon="2.20612">
        <ele>201.7</ele>
        <time>2019-06-09T07:17:19.000Z</time>
      </trkpt>
      <trkpt lat="43.31015" lon="2.20614">
        <ele>201.6</ele>
        <time>2019-06-09T07:17:20.000Z</time>
      </trkpt>
      <trkpt lat="43.31014" lon="2.20616">
        <ele>201.5</ele>
        <time>2019-06-09T07:17:21.000Z</time>
      </trkpt>
      <trkpt lat="43.31014" lon="2.20618">
        <ele>201.5</ele>
        <time>2019-06-09T07:17:22.000Z</time>
      </trkpt>
      <trkpt lat="43.31014" lon="2.2062">
        <ele>201.4</ele>
        <time>2019-06-09T07:17:23.000Z</time>
      </trkpt>
      <trkpt lat="43.31013" lon="2.20621">
        <ele>201.4</ele>
        <time>2019-06-09T07:17:24.000Z</time>
      </trkpt>
      <trkpt lat="43.31013" lon="2.20623">
        <ele>201.3</ele>
        <time>2019-06-09T07:17:25.000Z</time>
      </trkpt>
      <trkpt lat="43.31014" lon="2.20624">
        <ele>201.3</ele>
        <time>2019-06-09T07:17:26.000Z</time>
      </trkpt>
      <trkpt lat="43.31014" lon="2.20626">
        <ele>201.2</ele>
        <time>2019-06-09T07:17:27.000Z</time>
      </trkpt>
      <trkpt lat="43.31014" lon="2.20627">
        <ele>201.2</ele>
        <time>2019-06-09T07:17:28.000Z</time>
      </trkpt>
      <trkpt lat="43.31015" lon="2.20629">
        <ele>201.2</ele>
        <time>2019-06-09T07:17:29.000Z</time>
      </trkpt>
      <trkpt lat="43.31016" lon="2.2063">
        <ele>201.1</ele>
        <time>2019-06-09T07:17:30.000Z</time>
      </trkpt>
      <trkpt lat="43.31017" lon="2.20631">
        <ele>201.1</ele>
        <time>2019-06-09T07:17:31.000Z</time>
      </trkpt>
      <trkpt lat="43.31018" lon="2.20632">
        <ele>201.1</ele>
        <time>2019-06-09T07:17:32.000Z</time>
      </trkpt>
      <trkpt lat="43.31019" lon="2.20633">
        <ele>201.1</ele>
        <time>2019-06-09T07:17:33.000Z</time>
      </trkpt>
      <trkpt lat="43.3102" lon="2.20634">
        <ele>201.1</ele>
        <time>2019-06-09T07:17:34.000Z</time>
      </trkpt>
      <trkpt lat="43.31021" lon="2.20635">
        <ele>201</ele>
        <time>2019-06-09T07:17:35.000Z</time>
      </trkpt>
      <trkpt lat="43.31022" lon="2.20636">
        <ele>201</ele>
        <time>2019-06-09T07:17:36.000Z</time>
      </trkpt>
      <trkpt lat="43.31023" lon="2.20638">
        <ele>201</ele>
        <time>2019-06-09T07:17:37.000Z</time>
      </trkpt>
      <trkpt lat="43.31024" lon="2.20639">
        <ele>201</ele>
        <time>2019-06-09T07:17:38.000Z</time>
      </trkpt>
      <trkpt lat="43.31025" lon="2.2064">
        <ele>200.9</ele>
        <time>2019-06-09T07:17:39.000Z</time>
      </trkpt>
      <trkpt lat="43.31027" lon="2.20641">
        <ele>200.9</ele>
        <time>2019-06-09T07:17:40.000Z</time>
      </trkpt>
      <trkpt lat="43.31028" lon="2.20642">
        <ele>200.9</ele>
        <time>2019-06-09T07:17:41.000Z</time>
      </trkpt>
      <trkpt lat="43.31029" lon="2.20643">
        <ele>200.9</ele>
        <time>2019-06-09T07:17:42.000Z</time>
      </trkpt>
      <trkpt lat="43.31031" lon="2.20644">
        <ele>200.8</ele>
        <time>2019-06-09T07:17:43.000Z</time>
      </trkpt>
      <trkpt lat="43.31032" lon="2.20646">
        <ele>200.8</ele>
        <time>2019-06-09T07:17:44.000Z</time>
      </trkpt>
      <trkpt lat="43.31034" lon="2.20647">
        <ele>200.8</ele>
        <time>2019-06-09T07:17:45.000Z</time>
      </trkpt>
      <trkpt lat="43.31035" lon="2.20648">
        <ele>200.7</ele>
        <time>2019-06-09T07:17:46.000Z</time>
      </trkpt>
      <trkpt lat="43.31037" lon="2.2065">
        <ele>200.7</ele>
        <time>2019-06-09T07:17:47.000Z</time>
      </trkpt>
      <trkpt lat="43.3104" lon="2.20651">
        <ele>200.6</ele>
        <time>2019-06-09T07:17:48.000Z</time>
      </trkpt>
      <trkpt lat="43.31042" lon="2.20652">
        <ele>200.6</ele>
        <time>2019-06-09T07:17:49.000Z</time>
      </trkpt>
      <trkpt lat="43.31043" lon="2.20654">
        <ele>200.6</ele>
        <time>2019-06-09T07:17:50.000Z</time>
      </trkpt>
      <trkpt lat="43.31045" lon="2.20655">
        <ele>200.5</ele>
        <time>2019-06-09T07:17:51.000Z</time>
      </trkpt>
      <trkpt lat="43.31047" lon="2.20657">
        <ele>200.4</ele>
        <time>2019-06-09T07:17:52.000Z</time>
      </trkpt>
      <trkpt lat="43.31048" lon="2.20658">
        <ele>200.4</ele>
        <time>2019-06-09T07:17:53.000Z</time>
      </trkpt>
      <trkpt lat="43.31049" lon="2.2066">
        <ele>200.3</ele>
        <time>2019-06-09T07:17:54.000Z</time>
      </trkpt>
      <trkpt lat="43.31051" lon="2.20662">
        <ele>200.2</ele>
        <time>2019-06-09T07:17:55.000Z</time>
      </trkpt>
      <trkpt lat="43.31052" lon="2.20664">
        <ele>200.1</ele>
        <time>2019-06-09T07:17:56.000Z</time>
      </trkpt>
      <trkpt lat="43.31054" lon="2.20667">
        <ele>200</ele>
        <time>2019-06-09T07:17:57.000Z</time>
      </trkpt>
      <trkpt lat="43.31054" lon="2.20669">
        <ele>199.9</ele>
        <time>2019-06-09T07:17:58.000Z</time>
      </trkpt>
      <trkpt lat="43.31055" lon="2.20672">
        <ele>199.8</ele>
        <time>2019-06-09T07:17:59.000Z</time>
      </trkpt>
      <trkpt lat="43.31055" lon="2.20674">
        <ele>199.6</ele>
        <time>2019-06-09T07:18:00.000Z</time>
      </trkpt>
      <trkpt lat="43.31055" lon="2.20677">
        <ele>199.5</ele>
        <time>2019-06-09T07:18:01.000Z</time>
      </trkpt>
      <trkpt lat="43.31055" lon="2.2068">
        <ele>199.4</ele>
        <time>2019-06-09T07:18:02.000Z</time>
      </trkpt>
      <trkpt lat="43.31055" lon="2.20683">
        <ele>199.2</ele>
        <time>2019-06-09T07:18:03.000Z</time>
      </trkpt>
      <trkpt lat="43.31056" lon="2.20686">
        <ele>199.1</ele>
        <time>2019-06-09T07:18:04.000Z</time>
      </trkpt>
      <trkpt lat="43.31056" lon="2.20689">
        <ele>198.9</ele>
        <time>2019-06-09T07:18:05.000Z</time>
      </trkpt>
      <trkpt lat="43.31057" lon="2.20692">
        <ele>198.8</ele>
        <time>2019-06-09T07:18:06.000Z</time>
      </trkpt>
      <trkpt lat="43.31058" lon="2.20695">
        <ele>198.6</ele>
        <time>2019-06-09T07:18:07.000Z</time>
      </trkpt>
      <trkpt lat="43.3106" lon="2.20698">
        <ele>198.5</ele>
        <time>2019-06-09T07:18:08.000Z</time>
      </trkpt>
      <trkpt lat="43.31061" lon="2.207">
        <ele>198.4</ele>
        <time>2019-06-09T07:18:09.000Z</time>
      </trkpt>
      <trkpt lat="43.31063" lon="2.20702">
        <ele>198.3</ele>
        <time>2019-06-09T07:18:10.000Z</time>
      </trkpt>
      <trkpt lat="43.31065" lon="2.20703">
        <ele>198.3</ele>
        <time>2019-06-09T07:18:11.000Z</time>
      </trkpt>
      <trkpt lat="43.31066" lon="2.20703">
        <ele>198.3</ele>
        <time>2019-06-09T07:18:12.000Z</time>
      </trkpt>
      <trkpt lat="43.31068" lon="2.20703">
        <ele>198.3</ele>
        <time>2019-06-09T07:18:13.000Z</time>
      </trkpt>
      <trkpt lat="43.31071" lon="2.20702">
        <ele>198.3</ele>
        <time>2019-06-09T07:18:14.000Z</time>
      </trkpt>
      <trkpt lat="43.31073" lon="2.20701">
        <ele>198.4</ele>
        <time>2019-06-09T07:18:15.000Z</time>
      </trkpt>
      <trkpt lat="43.31076" lon="2.207">
        <ele>198.4</ele>
        <time>2019-06-09T07:18:16.000Z</time>
      </trkpt>
      <trkpt lat="43.31078" lon="2.20698">
        <ele>198.5</ele>
        <time>2019-06-09T07:18:17.000Z</time>
      </trkpt>
      <trkpt lat="43.31081" lon="2.20696">
        <ele>198.6</ele>
        <time>2019-06-09T07:18:18.000Z</time>
      </trkpt>
      <trkpt lat="43.31083" lon="2.20695">
        <ele>198.6</ele>
        <time>2019-06-09T07:18:19.000Z</time>
      </trkpt>
      <trkpt lat="43.31085" lon="2.20693">
        <ele>198.8</ele>
        <time>2019-06-09T07:18:20.000Z</time>
      </trkpt>
      <trkpt lat="43.31088" lon="2.20692">
        <ele>199</ele>
        <time>2019-06-09T07:18:21.000Z</time>
      </trkpt>
      <trkpt lat="43.31091" lon="2.20691">
        <ele>199.2</ele>
        <time>2019-06-09T07:18:22.000Z</time>
      </trkpt>
      <trkpt lat="43.31094" lon="2.20691">
        <ele>199.4</ele>
        <time>2019-06-09T07:18:23.000Z</time>
      </trkpt>
      <trkpt lat="43.31096" lon="2.20691">
        <ele>199.5</ele>
        <time>2019-06-09T07:18:24.000Z</time>
      </trkpt>
      <trkpt lat="43.31098" lon="2.20692">
        <ele>199.6</ele>
        <time>2019-06-09T07:18:25.000Z</time>
      </trkpt>
      <trkpt lat="43.311" lon="2.20694">
        <ele>199.6</ele>
        <time>2019-06-09T07:18:26.000Z</time>
      </trkpt>
      <trkpt lat="43.31101" lon="2.20696">
        <ele>199.6</ele>
        <time>2019-06-09T07:18:27.000Z</time>
      </trkpt>
      <trkpt lat="43.31102" lon="2.20699">
        <ele>199.6</ele>
        <time>2019-06-09T07:18:28.000Z</time>
      </trkpt>
      <trkpt lat="43.31103" lon="2.20701">
        <ele>199.5</ele>
        <time>2019-06-09T07:18:29.000Z</time>
      </trkpt>
      <trkpt lat="43.31104" lon="2.20704">
        <ele>199.5</ele>
        <time>2019-06-09T07:18:30.000Z</time>
      </trkpt>
      <trkpt lat="43.31104" lon="2.20707">
        <ele>199.4</ele>
        <time>2019-06-09T07:18:31.000Z</time>
      </trkpt>
      <trkpt lat="43.31104" lon="2.20709">
        <ele>199.3</ele>
        <time>2019-06-09T07:18:32.000Z</time>
      </trkpt>
      <trkpt lat="43.31104" lon="2.20712">
        <ele>199.2</ele>
        <time>2019-06-09T07:18:33.000Z</time>
      </trkpt>
      <trkpt lat="43.31104" lon="2.20715">
        <ele>199.1</ele>
        <time>2019-06-09T07:18:34.000Z</time>
      </trkpt>
      <trkpt lat="43.31104" lon="2.20717">
        <ele>199</ele>
        <time>2019-06-09T07:18:35.000Z</time>
      </trkpt>
      <trkpt lat="43.31104" lon="2.2072">
        <ele>198.9</ele>
        <time>2019-06-09T07:18:36.000Z</time>
      </trkpt>
      <trkpt lat="43.31103" lon="2.20723">
        <ele>198.8</ele>
        <time>2019-06-09T07:18:37.000Z</time>
      </trkpt>
      <trkpt lat="43.31103" lon="2.20726">
        <ele>198.7</ele>
        <time>2019-06-09T07:18:38.000Z</time>
      </trkpt>
      <trkpt lat="43.31103" lon="2.20728">
        <ele>198.6</ele>
        <time>2019-06-09T07:18:39.000Z</time>
      </trkpt>
      <trkpt lat="43.31103" lon="2.20731">
        <ele>198.5</ele>
        <time>2019-06-09T07:18:40.000Z</time>
      </trkpt>
      <trkpt lat="43.31103" lon="2.20734">
        <ele>198.4</ele>
        <time>2019-06-09T07:18:41.000Z</time>
      </trkpt>
      <trkpt lat="43.31103" lon="2.20737">
        <ele>198.3</ele>
        <time>2019-06-09T07:18:42.000Z</time>
      </trkpt>
      <trkpt lat="43.31102" lon="2.2074">
        <ele>198.1</ele>
        <time>2019-06-09T07:18:43.000Z</time>
      </trkpt>
      <trkpt lat="43.31102" lon="2.20743">
        <ele>198</ele>
        <time>2019-06-09T07:18:44.000Z</time>
      </trkpt>
      <trkpt lat="43.31101" lon="2.20746">
        <ele>197.8</ele>
        <time>2019-06-09T07:18:45.000Z</time>
      </trkpt>
      <trkpt lat="43.311" lon="2.2075">
        <ele>197.6</ele>
        <time>2019-06-09T07:18:46.000Z</time>
      </trkpt>
      <trkpt lat="43.311" lon="2.20753">
        <ele>197.7</ele>
        <time>2019-06-09T07:18:47.000Z</time>
      </trkpt>
      <trkpt lat="43.31099" lon="2.20756">
        <ele>197.8</ele>
        <time>2019-06-09T07:18:48.000Z</time>
      </trkpt>
      <trkpt lat="43.31098" lon="2.2076">
        <ele>197.9</ele>
        <time>2019-06-09T07:18:49.000Z</time>
      </trkpt>
      <trkpt lat="43.31097" lon="2.20763">
        <ele>198</ele>
        <time>2019-06-09T07:18:50.000Z</time>
      </trkpt>
      <trkpt lat="43.31096" lon="2.20766">
        <ele>198.1</ele>
        <time>2019-06-09T07:18:51.000Z</time>
      </trkpt>
      <trkpt lat="43.31096" lon="2.20769">
        <ele>198.2</ele>
        <time>2019-06-09T07:18:52.000Z</time>
      </trkpt>
      <trkpt lat="43.31095" lon="2.20772">
        <ele>198.3</ele>
        <time>2019-06-09T07:18:53.000Z</time>
      </trkpt>
      <trkpt lat="43.31094" lon="2.20774">
        <ele>198.4</ele>
        <time>2019-06-09T07:18:54.000Z</time>
      </trkpt>
      <trkpt lat="43.31093" lon="2.20777">
        <ele>198.5</ele>
        <time>2019-06-09T07:18:55.000Z</time>
      </trkpt>
      <trkpt lat="43.31093" lon="2.2078">
        <ele>198.5</ele>
        <time>2019-06-09T07:18:56.000Z</time>
      </trkpt>
      <trkpt lat="43.31092" lon="2.20782">
        <ele>198.6</ele>
        <time>2019-06-09T07:18:57.000Z</time>
      </trkpt>
      <trkpt lat="43.31091" lon="2.20785">
        <ele>198.7</ele>
        <time>2019-06-09T07:18:58.000Z</time>
      </trkpt>
      <trkpt lat="43.31091" lon="2.20787">
        <ele>198.8</ele>
        <time>2019-06-09T07:18:59.000Z</time>
      </trkpt>
      <trkpt lat="43.3109" lon="2.2079">
        <ele>198.9</ele>
        <time>2019-06-09T07:19:00.000Z</time>
      </trkpt>
      <trkpt lat="43.31089" lon="2.20792">
        <ele>199</ele>
        <time>2019-06-09T07:19:01.000Z</time>
      </trkpt>
      <trkpt lat="43.31089" lon="2.20795">
        <ele>199.1</ele>
        <time>2019-06-09T07:19:02.000Z</time>
      </trkpt>
      <trkpt lat="43.31088" lon="2.20797">
        <ele>199.2</ele>
        <time>2019-06-09T07:19:03.000Z</time>
      </trkpt>
      <trkpt lat="43.31088" lon="2.208">
        <ele>199.3</ele>
        <time>2019-06-09T07:19:04.000Z</time>
      </trkpt>
      <trkpt lat="43.31087" lon="2.20803">
        <ele>199.4</ele>
        <time>2019-06-09T07:19:05.000Z</time>
      </trkpt>
      <trkpt lat="43.31087" lon="2.20806">
        <ele>199.6</ele>
        <time>2019-06-09T07:19:06.000Z</time>
      </trkpt>
      <trkpt lat="43.31086" lon="2.20809">
        <ele>199.7</ele>
        <time>2019-06-09T07:19:07.000Z</time>
      </trkpt>
      <trkpt lat="43.31086" lon="2.20812">
        <ele>199.9</ele>
        <time>2019-06-09T07:19:08.000Z</time>
      </trkpt>
      <trkpt lat="43.31085" lon="2.20815">
        <ele>200</ele>
        <time>2019-06-09T07:19:09.000Z</time>
      </trkpt>
      <trkpt lat="43.31085" lon="2.20818">
        <ele>200.2</ele>
        <time>2019-06-09T07:19:10.000Z</time>
      </trkpt>
      <trkpt lat="43.31084" lon="2.20822">
        <ele>200.4</ele>
        <time>2019-06-09T07:19:11.000Z</time>
      </trkpt>
      <trkpt lat="43.31084" lon="2.20825">
        <ele>200.6</ele>
        <time>2019-06-09T07:19:12.000Z</time>
      </trkpt>
      <trkpt lat="43.31083" lon="2.20829">
        <ele>200.7</ele>
        <time>2019-06-09T07:19:13.000Z</time>
      </trkpt>
      <trkpt lat="43.31083" lon="2.20833">
        <ele>200.9</ele>
        <time>2019-06-09T07:19:14.000Z</time>
      </trkpt>
      <trkpt lat="43.31083" lon="2.20836">
        <ele>200.9</ele>
        <time>2019-06-09T07:19:15.000Z</time>
      </trkpt>
      <trkpt lat="43.31082" lon="2.2084">
        <ele>200.7</ele>
        <time>2019-06-09T07:19:16.000Z</time>
      </trkpt>
      <trkpt lat="43.31082" lon="2.20843">
        <ele>200.6</ele>
        <time>2019-06-09T07:19:17.000Z</time>
      </trkpt>
      <trkpt lat="43.31082" lon="2.20847">
        <ele>200.5</ele>
        <time>2019-06-09T07:19:18.000Z</time>
      </trkpt>
      <trkpt lat="43.31081" lon="2.2085">
        <ele>200.4</ele>
        <time>2019-06-09T07:19:19.000Z</time>
      </trkpt>
      <trkpt lat="43.31081" lon="2.20853">
        <ele>200.3</ele>
        <time>2019-06-09T07:19:20.000Z</time>
      </trkpt>
      <trkpt lat="43.31081" lon="2.20855">
        <ele>200.2</ele>
        <time>2019-06-09T07:19:21.000Z</time>
      </trkpt>
      <trkpt lat="43.3108" lon="2.20858">
        <ele>200.1</ele>
        <time>2019-06-09T07:19:22.000Z</time>
      </trkpt>
      <trkpt lat="43.3108" lon="2.20859">
        <ele>200</ele>
        <time>2019-06-09T07:19:23.000Z</time>
      </trkpt>
      <trkpt lat="43.3108" lon="2.20861">
        <ele>200</ele>
        <time>2019-06-09T07:19:24.000Z</time>
      </trkpt>
      <trkpt lat="43.3108" lon="2.20862">
        <ele>199.9</ele>
        <time>2019-06-09T07:19:25.000Z</time>
      </trkpt>
      <trkpt lat="43.3108" lon="2.20864">
        <ele>199.9</ele>
        <time>2019-06-09T07:19:26.000Z</time>
      </trkpt>
      <trkpt lat="43.31079" lon="2.20865">
        <ele>199.9</ele>
        <time>2019-06-09T07:19:27.000Z</time>
      </trkpt>
      <trkpt lat="43.31079" lon="2.20866">
        <ele>199.8</ele>
        <time>2019-06-09T07:19:28.000Z</time>
      </trkpt>
      <trkpt lat="43.31079" lon="2.20867">
        <ele>199.8</ele>
        <time>2019-06-09T07:19:29.000Z</time>
      </trkpt>
      <trkpt lat="43.31079" lon="2.20868">
        <ele>199.8</ele>
        <time>2019-06-09T07:19:30.000Z</time>
      </trkpt>
      <trkpt lat="43.31079" lon="2.20869">
        <ele>199.7</ele>
        <time>2019-06-09T07:19:31.000Z</time>
      </trkpt>
      <trkpt lat="43.31079" lon="2.2087">
        <ele>199.7</ele>
        <time>2019-06-09T07:19:32.000Z</time>
      </trkpt>
      <trkpt lat="43.3108" lon="2.20872">
        <ele>199.7</ele>
        <time>2019-06-09T07:19:33.000Z</time>
      </trkpt>
      <trkpt lat="43.3108" lon="2.20873">
        <ele>199.7</ele>
        <time>2019-06-09T07:19:34.000Z</time>
      </trkpt>
      <trkpt lat="43.3108" lon="2.20874">
        <ele>199.7</ele>
        <time>2019-06-09T07:19:35.000Z</time>
      </trkpt>
      <trkpt lat="43.3108" lon="2.20876">
        <ele>199.7</ele>
        <time>2019-06-09T07:19:36.000Z</time>
      </trkpt>
      <trkpt lat="43.3108" lon="2.20877">
        <ele>199.7</ele>
        <time>2019-06-09T07:19:37.000Z</time>
      </trkpt>
      <trkpt lat="43.31081" lon="2.20879">
        <ele>199.6</ele>
        <time>2019-06-09T07:19:38.000Z</time>
      </trkpt>
      <trkpt lat="43.31081" lon="2.2088">
        <ele>199.6</ele>
        <time>2019-06-09T07:19:39.000Z</time>
      </trkpt>
      <trkpt lat="43.31081" lon="2.20882">
        <ele>199.6</ele>
        <time>2019-06-09T07:19:40.000Z</time>
      </trkpt>
      <trkpt lat="43.31081" lon="2.20884">
        <ele>199.6</ele>
        <time>2019-06-09T07:19:41.000Z</time>
      </trkpt>
      <trkpt lat="43.31082" lon="2.20885">
        <ele>199.6</ele>
        <time>2019-06-09T07:19:42.000Z</time>
      </trkpt>
      <trkpt lat="43.31082" lon="2.20887">
        <ele>199.6</ele>
        <time>2019-06-09T07:19:43.000Z</time>
      </trkpt>
      <trkpt lat="43.31082" lon="2.20888">
        <ele>199.6</ele>
        <time>2019-06-09T07:19:44.000Z</time>
      </trkpt>
      <trkpt lat="43.31083" lon="2.2089">
        <ele>199.6</ele>
        <time>2019-06-09T07:19:45.000Z</time>
      </trkpt>
      <trkpt lat="43.31083" lon="2.20892">
        <ele>199.5</ele>
        <time>2019-06-09T07:19:46.000Z</time>
      </trkpt>
      <trkpt lat="43.31083" lon="2.20893">
        <ele>199.5</ele>
        <time>2019-06-09T07:19:47.000Z</time>
      </trkpt>
      <trkpt lat="43.31083" lon="2.20895">
        <ele>199.5</ele>
        <time>2019-06-09T07:19:48.000Z</time>
      </trkpt>
      <trkpt lat="43.31083" lon="2.20897">
        <ele>199.5</ele>
        <time>2019-06-09T07:19:49.000Z</time>
      </trkpt>
      <trkpt lat="43.31084" lon="2.20899">
        <ele>199.4</ele>
        <time>2019-06-09T07:19:50.000Z</time>
      </trkpt>
      <trkpt lat="43.31084" lon="2.20901">
        <ele>199.4</ele>
        <time>2019-06-09T07:19:51.000Z</time>
      </trkpt>
      <trkpt lat="43.31084" lon="2.20902">
        <ele>199.4</ele>
        <time>2019-06-09T07:19:52.000Z</time>
      </trkpt>
      <trkpt lat="43.31084" lon="2.20905">
        <ele>199.3</ele>
        <time>2019-06-09T07:19:53.000Z</time>
      </trkpt>
      <trkpt lat="43.31084" lon="2.20907">
        <ele>199.3</ele>
        <time>2019-06-09T07:19:54.000Z</time>
      </trkpt>
      <trkpt lat="43.31084" lon="2.20909">
        <ele>199.3</ele>
        <time>2019-06-09T07:19:55.000Z</time>
      </trkpt>
      <trkpt lat="43.31085" lon="2.20911">
        <ele>199.2</ele>
        <time>2019-06-09T07:19:56.000Z</time>
      </trkpt>
      <trkpt lat="43.31085" lon="2.20914">
        <ele>199.2</ele>
        <time>2019-06-09T07:19:57.000Z</time>
      </trkpt>
      <trkpt lat="43.31085" lon="2.20916">
        <ele>199.1</ele>
        <time>2019-06-09T07:19:58.000Z</time>
      </trkpt>
      <trkpt lat="43.31085" lon="2.20919">
        <ele>199.1</ele>
        <time>2019-06-09T07:19:59.000Z</time>
      </trkpt>
      <trkpt lat="43.31086" lon="2.20922">
        <ele>199.1</ele>
        <time>2019-06-09T07:20:00.000Z</time>
      </trkpt>
      <trkpt lat="43.31086" lon="2.20925">
        <ele>199.1</ele>
        <time>2019-06-09T07:20:01.000Z</time>
      </trkpt>
      <trkpt lat="43.31087" lon="2.20928">
        <ele>199.1</ele>
        <time>2019-06-09T07:20:02.000Z</time>
      </trkpt>
      <trkpt lat="43.31087" lon="2.20931">
        <ele>199.1</ele>
        <time>2019-06-09T07:20:03.000Z</time>
      </trkpt>
      <trkpt lat="43.31087" lon="2.20934">
        <ele>199.1</ele>
        <time>2019-06-09T07:20:04.000Z</time>
      </trkpt>
      <trkpt lat="43.31088" lon="2.20937">
        <ele>199.1</ele>
        <time>2019-06-09T07:20:05.000Z</time>
      </trkpt>
      <trkpt lat="43.31089" lon="2.2094">
        <ele>199.1</ele>
        <time>2019-06-09T07:20:06.000Z</time>
      </trkpt>
      <trkpt lat="43.31089" lon="2.20943">
        <ele>199.1</ele>
        <time>2019-06-09T07:20:07.000Z</time>
      </trkpt>
      <trkpt lat="43.3109" lon="2.20946">
        <ele>199.1</ele>
        <time>2019-06-09T07:20:08.000Z</time>
      </trkpt>
      <trkpt lat="43.3109" lon="2.20949">
        <ele>199.1</ele>
        <time>2019-06-09T07:20:09.000Z</time>
      </trkpt>
      <trkpt lat="43.31091" lon="2.20952">
        <ele>199.2</ele>
        <time>2019-06-09T07:20:10.000Z</time>
      </trkpt>
      <trkpt lat="43.31092" lon="2.20954">
        <ele>199.2</ele>
        <time>2019-06-09T07:20:11.000Z</time>
      </trkpt>
      <trkpt lat="43.31092" lon="2.20957">
        <ele>199.2</ele>
        <time>2019-06-09T07:20:12.000Z</time>
      </trkpt>
      <trkpt lat="43.31093" lon="2.2096">
        <ele>199.3</ele>
        <time>2019-06-09T07:20:13.000Z</time>
      </trkpt>
      <trkpt lat="43.31094" lon="2.20962">
        <ele>199.3</ele>
        <time>2019-06-09T07:20:14.000Z</time>
      </trkpt>
      <trkpt lat="43.31095" lon="2.20965">
        <ele>199.4</ele>
        <time>2019-06-09T07:20:15.000Z</time>
      </trkpt>
      <trkpt lat="43.31096" lon="2.20967">
        <ele>199.4</ele>
        <time>2019-06-09T07:20:16.000Z</time>
      </trkpt>
      <trkpt lat="43.31098" lon="2.2097">
        <ele>199.5</ele>
        <time>2019-06-09T07:20:17.000Z</time>
      </trkpt>
      <trkpt lat="43.31099" lon="2.20973">
        <ele>199.6</ele>
        <time>2019-06-09T07:20:18.000Z</time>
      </trkpt>
      <trkpt lat="43.31101" lon="2.20975">
        <ele>199.7</ele>
        <time>2019-06-09T07:20:19.000Z</time>
      </trkpt>
      <trkpt lat="43.31102" lon="2.20978">
        <ele>199.8</ele>
        <time>2019-06-09T07:20:20.000Z</time>
      </trkpt>
      <trkpt lat="43.31103" lon="2.20981">
        <ele>199.9</ele>
        <time>2019-06-09T07:20:21.000Z</time>
      </trkpt>
      <trkpt lat="43.31105" lon="2.20983">
        <ele>199.9</ele>
        <time>2019-06-09T07:20:22.000Z</time>
      </trkpt>
      <trkpt lat="43.31106" lon="2.20986">
        <ele>200</ele>
        <time>2019-06-09T07:20:23.000Z</time>
      </trkpt>
      <trkpt lat="43.31107" lon="2.20989">
        <ele>200.1</ele>
        <time>2019-06-09T07:20:24.000Z</time>
      </trkpt>
      <trkpt lat="43.31108" lon="2.20992">
        <ele>200.2</ele>
        <time>2019-06-09T07:20:25.000Z</time>
      </trkpt>
      <trkpt lat="43.31109" lon="2.20995">
        <ele>200.2</ele>
        <time>2019-06-09T07:20:26.000Z</time>
      </trkpt>
      <trkpt lat="43.3111" lon="2.20998">
        <ele>200.3</ele>
        <time>2019-06-09T07:20:27.000Z</time>
      </trkpt>
      <trkpt lat="43.31111" lon="2.21001">
        <ele>200.3</ele>
        <time>2019-06-09T07:20:28.000Z</time>
      </trkpt>
      <trkpt lat="43.31112" lon="2.21004">
        <ele>200.4</ele>
        <time>2019-06-09T07:20:29.000Z</time>
      </trkpt>
      <trkpt lat="43.31112" lon="2.21007">
        <ele>200.5</ele>
        <time>2019-06-09T07:20:30.000Z</time>
      </trkpt>
      <trkpt lat="43.31113" lon="2.2101">
        <ele>200.7</ele>
        <time>2019-06-09T07:20:31.000Z</time>
      </trkpt>
      <trkpt lat="43.31114" lon="2.21013">
        <ele>200.7</ele>
        <time>2019-06-09T07:20:32.000Z</time>
      </trkpt>
      <trkpt lat="43.31114" lon="2.21016">
        <ele>200.8</ele>
        <time>2019-06-09T07:20:33.000Z</time>
      </trkpt>
      <trkpt lat="43.31115" lon="2.21019">
        <ele>200.9</ele>
        <time>2019-06-09T07:20:34.000Z</time>
      </trkpt>
      <trkpt lat="43.31115" lon="2.21022">
        <ele>201</ele>
        <time>2019-06-09T07:20:35.000Z</time>
      </trkpt>
      <trkpt lat="43.31116" lon="2.21026">
        <ele>201.1</ele>
        <time>2019-06-09T07:20:36.000Z</time>
      </trkpt>
      <trkpt lat="43.31116" lon="2.21029">
        <ele>201.2</ele>
        <time>2019-06-09T07:20:37.000Z</time>
      </trkpt>
      <trkpt lat="43.31117" lon="2.21032">
        <ele>201.3</ele>
        <time>2019-06-09T07:20:38.000Z</time>
      </trkpt>
      <trkpt lat="43.31117" lon="2.21035">
        <ele>201.3</ele>
        <time>2019-06-09T07:20:39.000Z</time>
      </trkpt>
      <trkpt lat="43.31118" lon="2.21038">
        <ele>201.4</ele>
        <time>2019-06-09T07:20:40.000Z</time>
      </trkpt>
      <trkpt lat="43.31118" lon="2.21041">
        <ele>201.5</ele>
        <time>2019-06-09T07:20:41.000Z</time>
      </trkpt>
      <trkpt lat="43.31119" lon="2.21045">
        <ele>201.6</ele>
        <time>2019-06-09T07:20:42.000Z</time>
      </trkpt>
      <trkpt lat="43.31119" lon="2.21048">
        <ele>201.6</ele>
        <time>2019-06-09T07:20:43.000Z</time>
      </trkpt>
      <trkpt lat="43.3112" lon="2.21051">
        <ele>201.7</ele>
        <time>2019-06-09T07:20:44.000Z</time>
      </trkpt>
      <trkpt lat="43.3112" lon="2.21054">
        <ele>201.8</ele>
        <time>2019-06-09T07:20:45.000Z</time>
      </trkpt>
      <trkpt lat="43.31121" lon="2.21057">
        <ele>201.9</ele>
        <time>2019-06-09T07:20:46.000Z</time>
      </trkpt>
      <trkpt lat="43.31121" lon="2.2106">
        <ele>202</ele>
        <time>2019-06-09T07:20:47.000Z</time>
      </trkpt>
      <trkpt lat="43.31122" lon="2.21063">
        <ele>202</ele>
        <time>2019-06-09T07:20:48.000Z</time>
      </trkpt>
      <trkpt lat="43.31123" lon="2.21066">
        <ele>202.1</ele>
        <time>2019-06-09T07:20:49.000Z</time>
      </trkpt>
      <trkpt lat="43.31123" lon="2.21068">
        <ele>202.2</ele>
        <time>2019-06-09T07:20:50.000Z</time>
      </trkpt>
      <trkpt lat="43.31124" lon="2.21071">
        <ele>202.3</ele>
        <time>2019-06-09T07:20:51.000Z</time>
      </trkpt>
      <trkpt lat="43.31125" lon="2.21074">
        <ele>202.4</ele>
        <time>2019-06-09T07:20:52.000Z</time>
      </trkpt>
      <trkpt lat="43.31126" lon="2.21077">
        <ele>202.5</ele>
        <time>2019-06-09T07:20:53.000Z</time>
      </trkpt>
      <trkpt lat="43.31127" lon="2.21079">
        <ele>202.6</ele>
        <time>2019-06-09T07:20:54.000Z</time>
      </trkpt>
      <trkpt lat="43.31129" lon="2.21082">
        <ele>202.7</ele>
        <time>2019-06-09T07:20:55.000Z</time>
      </trkpt>
      <trkpt lat="43.3113" lon="2.21084">
        <ele>202.8</ele>
        <time>2019-06-09T07:20:56.000Z</time>
      </trkpt>
      <trkpt lat="43.31132" lon="2.21086">
        <ele>202.7</ele>
        <time>2019-06-09T07:20:57.000Z</time>
      </trkpt>
      <trkpt lat="43.31134" lon="2.21089">
        <ele>202.7</ele>
        <time>2019-06-09T07:20:58.000Z</time>
      </trkpt>
      <trkpt lat="43.31135" lon="2.2109">
        <ele>202.8</ele>
        <time>2019-06-09T07:20:59.000Z</time>
      </trkpt>
      <trkpt lat="43.31137" lon="2.21092">
        <ele>202.8</ele>
        <time>2019-06-09T07:21:00.000Z</time>
      </trkpt>
      <trkpt lat="43.31139" lon="2.21093">
        <ele>202.9</ele>
        <time>2019-06-09T07:21:01.000Z</time>
      </trkpt>
      <trkpt lat="43.31141" lon="2.21094">
        <ele>203</ele>
        <time>2019-06-09T07:21:02.000Z</time>
      </trkpt>
      <trkpt lat="43.31143" lon="2.21095">
        <ele>203.1</ele>
        <time>2019-06-09T07:21:03.000Z</time>
      </trkpt>
      <trkpt lat="43.31145" lon="2.21095">
        <ele>203.2</ele>
        <time>2019-06-09T07:21:04.000Z</time>
      </trkpt>
      <trkpt lat="43.31147" lon="2.21095">
        <ele>203.3</ele>
        <time>2019-06-09T07:21:05.000Z</time>
      </trkpt>
      <trkpt lat="43.31149" lon="2.21095">
        <ele>203.5</ele>
        <time>2019-06-09T07:21:06.000Z</time>
      </trkpt>
      <trkpt lat="43.3115" lon="2.21095">
        <ele>203.6</ele>
        <time>2019-06-09T07:21:07.000Z</time>
      </trkpt>
      <trkpt lat="43.31152" lon="2.21095">
        <ele>203.7</ele>
        <time>2019-06-09T07:21:08.000Z</time>
      </trkpt>
      <trkpt lat="43.31154" lon="2.21094">
        <ele>203.8</ele>
        <time>2019-06-09T07:21:09.000Z</time>
      </trkpt>
      <trkpt lat="43.31156" lon="2.21094">
        <ele>204</ele>
        <time>2019-06-09T07:21:10.000Z</time>
      </trkpt>
      <trkpt lat="43.31157" lon="2.21095">
        <ele>204.1</ele>
        <time>2019-06-09T07:21:11.000Z</time>
      </trkpt>
      <trkpt lat="43.31159" lon="2.21095">
        <ele>204.2</ele>
        <time>2019-06-09T07:21:12.000Z</time>
      </trkpt>
      <trkpt lat="43.31161" lon="2.21095">
        <ele>204.3</ele>
        <time>2019-06-09T07:21:13.000Z</time>
      </trkpt>
      <trkpt lat="43.31162" lon="2.21096">
        <ele>204.4</ele>
        <time>2019-06-09T07:21:14.000Z</time>
      </trkpt>
      <trkpt lat="43.31164" lon="2.21097">
        <ele>204.5</ele>
        <time>2019-06-09T07:21:15.000Z</time>
      </trkpt>
      <trkpt lat="43.31166" lon="2.21098">
        <ele>204.6</ele>
        <time>2019-06-09T07:21:16.000Z</time>
      </trkpt>
      <trkpt lat="43.31168" lon="2.211">
        <ele>204.7</ele>
        <time>2019-06-09T07:21:17.000Z</time>
      </trkpt>
      <trkpt lat="43.31169" lon="2.21101">
        <ele>204.8</ele>
        <time>2019-06-09T07:21:18.000Z</time>
      </trkpt>
      <trkpt lat="43.31171" lon="2.21103">
        <ele>204.9</ele>
        <time>2019-06-09T07:21:19.000Z</time>
      </trkpt>
      <trkpt lat="43.31173" lon="2.21105">
        <ele>205</ele>
        <time>2019-06-09T07:21:20.000Z</time>
      </trkpt>
      <trkpt lat="43.31175" lon="2.21107">
        <ele>205.1</ele>
        <time>2019-06-09T07:21:21.000Z</time>
      </trkpt>
      <trkpt lat="43.31177" lon="2.21109">
        <ele>205.2</ele>
        <time>2019-06-09T07:21:22.000Z</time>
      </trkpt>
      <trkpt lat="43.31179" lon="2.21111">
        <ele>205.3</ele>
        <time>2019-06-09T07:21:23.000Z</time>
      </trkpt>
      <trkpt lat="43.31181" lon="2.21113">
        <ele>205.4</ele>
        <time>2019-06-09T07:21:24.000Z</time>
      </trkpt>
      <trkpt lat="43.31183" lon="2.21115">
        <ele>205.5</ele>
        <time>2019-06-09T07:21:25.000Z</time>
      </trkpt>
      <trkpt lat="43.31185" lon="2.21118">
        <ele>205.6</ele>
        <time>2019-06-09T07:21:26.000Z</time>
      </trkpt>
      <trkpt lat="43.31187" lon="2.2112">
        <ele>205.7</ele>
        <time>2019-06-09T07:21:27.000Z</time>
      </trkpt>
      <trkpt lat="43.31189" lon="2.21122">
        <ele>205.8</ele>
        <time>2019-06-09T07:21:28.000Z</time>
      </trkpt>
      <trkpt lat="43.3119" lon="2.21124">
        <ele>205.9</ele>
        <time>2019-06-09T07:21:29.000Z</time>
      </trkpt>
      <trkpt lat="43.31192" lon="2.21126">
        <ele>206</ele>
        <time>2019-06-09T07:21:30.000Z</time>
      </trkpt>
      <trkpt lat="43.31194" lon="2.21128">
        <ele>206</ele>
        <time>2019-06-09T07:21:31.000Z</time>
      </trkpt>
      <trkpt lat="43.31196" lon="2.21131">
        <ele>206.1</ele>
        <time>2019-06-09T07:21:32.000Z</time>
      </trkpt>
      <trkpt lat="43.31197" lon="2.21133">
        <ele>206.2</ele>
        <time>2019-06-09T07:21:33.000Z</time>
      </trkpt>
      <trkpt lat="43.31199" lon="2.21135">
        <ele>206.3</ele>
        <time>2019-06-09T07:21:34.000Z</time>
      </trkpt>
      <trkpt lat="43.31201" lon="2.21137">
        <ele>206.4</ele>
        <time>2019-06-09T07:21:35.000Z</time>
      </trkpt>
      <trkpt lat="43.31203" lon="2.21139">
        <ele>206.5</ele>
        <time>2019-06-09T07:21:36.000Z</time>
      </trkpt>
      <trkpt lat="43.31204" lon="2.21141">
        <ele>206.6</ele>
        <time>2019-06-09T07:21:37.000Z</time>
      </trkpt>
      <trkpt lat="43.31206" lon="2.21142">
        <ele>206.8</ele>
        <time>2019-06-09T07:21:38.000Z</time>
      </trkpt>
      <trkpt lat="43.31208" lon="2.21144">
        <ele>206.9</ele>
        <time>2019-06-09T07:21:39.000Z</time>
      </trkpt>
      <trkpt lat="43.3121" lon="2.21146">
        <ele>207</ele>
        <time>2019-06-09T07:21:40.000Z</time>
      </trkpt>
      <trkpt lat="43.31212" lon="2.21148">
        <ele>207.1</ele>
        <time>2019-06-09T07:21:41.000Z</time>
      </trkpt>
      <trkpt lat="43.31213" lon="2.21149">
        <ele>207.2</ele>
        <time>2019-06-09T07:21:42.000Z</time>
      </trkpt>
      <trkpt lat="43.31215" lon="2.21151">
        <ele>207.3</ele>
        <time>2019-06-09T07:21:43.000Z</time>
      </trkpt>
      <trkpt lat="43.31217" lon="2.21152">
        <ele>207.5</ele>
        <time>2019-06-09T07:21:44.000Z</time>
      </trkpt>
      <trkpt lat="43.31219" lon="2.21154">
        <ele>207.6</ele>
        <time>2019-06-09T07:21:45.000Z</time>
      </trkpt>
      <trkpt lat="43.31221" lon="2.21155">
        <ele>207.7</ele>
        <time>2019-06-09T07:21:46.000Z</time>
      </trkpt>
      <trkpt lat="43.31223" lon="2.21157">
        <ele>207.9</ele>
        <time>2019-06-09T07:21:47.000Z</time>
      </trkpt>
      <trkpt lat="43.31224" lon="2.21158">
        <ele>208</ele>
        <time>2019-06-09T07:21:48.000Z</time>
      </trkpt>
      <trkpt lat="43.31226" lon="2.21159">
        <ele>208.1</ele>
        <time>2019-06-09T07:21:49.000Z</time>
      </trkpt>
      <trkpt lat="43.31228" lon="2.21161">
        <ele>208.2</ele>
        <time>2019-06-09T07:21:50.000Z</time>
      </trkpt>
      <trkpt lat="43.3123" lon="2.21162">
        <ele>208.4</ele>
        <time>2019-06-09T07:21:51.000Z</time>
      </trkpt>
      <trkpt lat="43.31231" lon="2.21163">
        <ele>208.5</ele>
        <time>2019-06-09T07:21:52.000Z</time>
      </trkpt>
      <trkpt lat="43.31233" lon="2.21164">
        <ele>208.6</ele>
        <time>2019-06-09T07:21:53.000Z</time>
      </trkpt>
      <trkpt lat="43.31235" lon="2.21166">
        <ele>208.7</ele>
        <time>2019-06-09T07:21:54.000Z</time>
      </trkpt>
      <trkpt lat="43.31236" lon="2.21167">
        <ele>208.8</ele>
        <time>2019-06-09T07:21:55.000Z</time>
      </trkpt>
      <trkpt lat="43.31238" lon="2.21168">
        <ele>208.9</ele>
        <time>2019-06-09T07:21:56.000Z</time>
      </trkpt>
      <trkpt lat="43.31239" lon="2.21169">
        <ele>209</ele>
        <time>2019-06-09T07:21:57.000Z</time>
      </trkpt>
      <trkpt lat="43.3124" lon="2.2117">
        <ele>209</ele>
        <time>2019-06-09T07:21:58.000Z</time>
      </trkpt>
      <trkpt lat="43.31242" lon="2.21171">
        <ele>209.1</ele>
        <time>2019-06-09T07:21:59.000Z</time>
      </trkpt>
      <trkpt lat="43.31243" lon="2.21171">
        <ele>209.2</ele>
        <time>2019-06-09T07:22:00.000Z</time>
      </trkpt>
      <trkpt lat="43.31244" lon="2.21172">
        <ele>209.2</ele>
        <time>2019-06-09T07:22:01.000Z</time>
      </trkpt>
      <trkpt lat="43.31245" lon="2.21172">
        <ele>209.3</ele>
        <time>2019-06-09T07:22:02.000Z</time>
      </trkpt>
      <trkpt lat="43.31246" lon="2.21173">
        <ele>209.4</ele>
        <time>2019-06-09T07:22:03.000Z</time>
      </trkpt>
      <trkpt lat="43.31247" lon="2.21173">
        <ele>209.4</ele>
        <time>2019-06-09T07:22:04.000Z</time>
      </trkpt>
      <trkpt lat="43.31249" lon="2.21174">
        <ele>209.5</ele>
        <time>2019-06-09T07:22:05.000Z</time>
      </trkpt>
      <trkpt lat="43.3125" lon="2.21175">
        <ele>209.6</ele>
        <time>2019-06-09T07:22:06.000Z</time>
      </trkpt>
      <trkpt lat="43.31252" lon="2.21177">
        <ele>209.7</ele>
        <time>2019-06-09T07:22:07.000Z</time>
      </trkpt>
      <trkpt lat="43.31254" lon="2.21178">
        <ele>209.7</ele>
        <time>2019-06-09T07:22:08.000Z</time>
      </trkpt>
      <trkpt lat="43.31256" lon="2.2118">
        <ele>209.8</ele>
        <time>2019-06-09T07:22:09.000Z</time>
      </trkpt>
      <trkpt lat="43.31258" lon="2.21181">
        <ele>209.8</ele>
        <time>2019-06-09T07:22:10.000Z</time>
      </trkpt>
      <trkpt lat="43.3126" lon="2.21183">
        <ele>209.9</ele>
        <time>2019-06-09T07:22:11.000Z</time>
      </trkpt>
      <trkpt lat="43.31262" lon="2.21184">
        <ele>209.9</ele>
        <time>2019-06-09T07:22:12.000Z</time>
      </trkpt>
      <trkpt lat="43.31264" lon="2.21186">
        <ele>210</ele>
        <time>2019-06-09T07:22:13.000Z</time>
      </trkpt>
      <trkpt lat="43.31266" lon="2.21187">
        <ele>210.1</ele>
        <time>2019-06-09T07:22:14.000Z</time>
      </trkpt>
      <trkpt lat="43.31268" lon="2.21188">
        <ele>210.1</ele>
        <time>2019-06-09T07:22:15.000Z</time>
      </trkpt>
      <trkpt lat="43.3127" lon="2.2119">
        <ele>210.2</ele>
        <time>2019-06-09T07:22:16.000Z</time>
      </trkpt>
      <trkpt lat="43.31272" lon="2.21191">
        <ele>210.2</ele>
        <time>2019-06-09T07:22:17.000Z</time>
      </trkpt>
      <trkpt lat="43.31274" lon="2.21192">
        <ele>210.3</ele>
        <time>2019-06-09T07:22:18.000Z</time>
      </trkpt>
      <trkpt lat="43.31275" lon="2.21193">
        <ele>210.4</ele>
        <time>2019-06-09T07:22:19.000Z</time>
      </trkpt>
      <trkpt lat="43.31277" lon="2.21194">
        <ele>210.4</ele>
        <time>2019-06-09T07:22:20.000Z</time>
      </trkpt>
      <trkpt lat="43.31278" lon="2.21195">
        <ele>210.4</ele>
        <time>2019-06-09T07:22:21.000Z</time>
      </trkpt>
      <trkpt lat="43.31279" lon="2.21195">
        <ele>210.5</ele>
        <time>2019-06-09T07:22:22.000Z</time>
      </trkpt>
      <trkpt lat="43.3128" lon="2.21196">
        <ele>210.5</ele>
        <time>2019-06-09T07:22:23.000Z</time>
      </trkpt>
      <trkpt lat="43.31281" lon="2.21197">
        <ele>210.5</ele>
        <time>2019-06-09T07:22:24.000Z</time>
      </trkpt>
      <trkpt lat="43.31281" lon="2.21197">
        <ele>210.5</ele>
        <time>2019-06-09T07:22:25.000Z</time>
      </trkpt>
      <trkpt lat="43.31282" lon="2.21198">
        <ele>210.5</ele>
        <time>2019-06-09T07:22:26.000Z</time>
      </trkpt>
      <trkpt lat="43.31282" lon="2.21199">
        <ele>210.5</ele>
        <time>2019-06-09T07:22:27.000Z</time>
      </trkpt>
      <trkpt lat="43.31283" lon="2.212">
        <ele>210.5</ele>
        <time>2019-06-09T07:22:28.000Z</time>
      </trkpt>
      <trkpt lat="43.31283" lon="2.212">
        <ele>210.5</ele>
        <time>2019-06-09T07:22:29.000Z</time>
      </trkpt>
      <trkpt lat="43.31283" lon="2.21201">
        <ele>210.5</ele>
        <time>2019-06-09T07:22:30.000Z</time>
      </trkpt>
      <trkpt lat="43.31283" lon="2.21202">
        <ele>210.5</ele>
        <time>2019-06-09T07:22:31.000Z</time>
      </trkpt>
      <trkpt lat="43.31283" lon="2.21202">
        <ele>210.5</ele>
        <time>2019-06-09T07:22:32.000Z</time>
      </trkpt>
      <trkpt lat="43.31283" lon="2.21202">
        <ele>210.5</ele>
        <time>2019-06-09T07:22:33.000Z</time>
      </trkpt>
      <trkpt lat="43.31283" lon="2.21202">
        <ele>210.5</ele>
        <time>2019-06-09T07:22:34.000Z</time>
      </trkpt>
      <trkpt lat="43.31283" lon="2.21202">
        <ele>210.5</ele>
        <time>2019-06-09T07:22:35.000Z</time>
      </trkpt>
      <trkpt lat="43.31283" lon="2.21202">
        <ele>210.5</ele>
        <time>2019-06-09T07:22:36.000Z</time>
      </trkpt>
      <trkpt lat="43.31283" lon="2.21202">
        <ele>210.5</ele>
        <time>2019-06-09T07:22:37.000Z</time>
      </trkpt>
      <trkpt lat="43.31283" lon="2.21203">
        <ele>210.4</ele>
        <time>2019-06-09T07:22:38.000Z</time>
      </trkpt>
      <trkpt lat="43.31283" lon="2.21204">
        <ele>210.4</ele>
        <time>2019-06-09T07:22:39.000Z</time>
      </trkpt>
      <trkpt lat="43.31283" lon="2.21205">
        <ele>210.3</ele>
        <time>2019-06-09T07:22:40.000Z</time>
      </trkpt>
      <trkpt lat="43.31282" lon="2.21206">
        <ele>210.2</ele>
        <time>2019-06-09T07:22:41.000Z</time>
      </trkpt>
      <trkpt lat="43.31281" lon="2.21207">
        <ele>210.1</ele>
        <time>2019-06-09T07:22:42.000Z</time>
      </trkpt>
      <trkpt lat="43.3128" lon="2.21209">
        <ele>210</ele>
        <time>2019-06-09T07:22:43.000Z</time>
      </trkpt>
      <trkpt lat="43.31279" lon="2.2121">
        <ele>209.8</ele>
        <time>2019-06-09T07:22:44.000Z</time>
      </trkpt>
      <trkpt lat="43.31277" lon="2.21211">
        <ele>209.7</ele>
        <time>2019-06-09T07:22:45.000Z</time>
      </trkpt>
      <trkpt lat="43.31276" lon="2.21212">
        <ele>209.5</ele>
        <time>2019-06-09T07:22:46.000Z</time>
      </trkpt>
      <trkpt lat="43.31274" lon="2.21214">
        <ele>209.3</ele>
        <time>2019-06-09T07:22:47.000Z</time>
      </trkpt>
      <trkpt lat="43.31272" lon="2.21215">
        <ele>209.2</ele>
        <time>2019-06-09T07:22:48.000Z</time>
      </trkpt>
      <trkpt lat="43.3127" lon="2.21216">
        <ele>209</ele>
        <time>2019-06-09T07:22:49.000Z</time>
      </trkpt>
      <trkpt lat="43.31268" lon="2.21217">
        <ele>208.8</ele>
        <time>2019-06-09T07:22:50.000Z</time>
      </trkpt>
      <trkpt lat="43.31266" lon="2.21218">
        <ele>208.6</ele>
        <time>2019-06-09T07:22:51.000Z</time>
      </trkpt>
      <trkpt lat="43.31264" lon="2.21219">
        <ele>208.4</ele>
        <time>2019-06-09T07:22:52.000Z</time>
      </trkpt>
      <trkpt lat="43.31262" lon="2.21221">
        <ele>208.2</ele>
        <time>2019-06-09T07:22:53.000Z</time>
      </trkpt>
      <trkpt lat="43.3126" lon="2.21223">
        <ele>208</ele>
        <time>2019-06-09T07:22:54.000Z</time>
      </trkpt>
      <trkpt lat="43.31258" lon="2.21225">
        <ele>207.8</ele>
        <time>2019-06-09T07:22:55.000Z</time>
      </trkpt>
      <trkpt lat="43.31256" lon="2.21227">
        <ele>207.6</ele>
        <time>2019-06-09T07:22:56.000Z</time>
      </trkpt>
      <trkpt lat="43.31254" lon="2.21229">
        <ele>207.3</ele>
        <time>2019-06-09T07:22:57.000Z</time>
      </trkpt>
      <trkpt lat="43.31253" lon="2.21231">
        <ele>207.1</ele>
        <time>2019-06-09T07:22:58.000Z</time>
      </trkpt>
      <trkpt lat="43.31251" lon="2.21233">
        <ele>206.9</ele>
        <time>2019-06-09T07:22:59.000Z</time>
      </trkpt>
      <trkpt lat="43.31249" lon="2.21235">
        <ele>206.6</ele>
        <time>2019-06-09T07:23:00.000Z</time>
      </trkpt>
      <trkpt lat="43.31247" lon="2.21238">
        <ele>206.3</ele>
        <time>2019-06-09T07:23:01.000Z</time>
      </trkpt>
      <trkpt lat="43.31245" lon="2.2124">
        <ele>206</ele>
        <time>2019-06-09T07:23:02.000Z</time>
      </trkpt>
      <trkpt lat="43.31243" lon="2.21242">
        <ele>205.8</ele>
        <time>2019-06-09T07:23:03.000Z</time>
      </trkpt>
      <trkpt lat="43.31241" lon="2.21245">
        <ele>205.5</ele>
        <time>2019-06-09T07:23:04.000Z</time>
      </trkpt>
      <trkpt lat="43.31239" lon="2.21247">
        <ele>205.2</ele>
        <time>2019-06-09T07:23:05.000Z</time>
      </trkpt>
      <trkpt lat="43.31238" lon="2.2125">
        <ele>205</ele>
        <time>2019-06-09T07:23:06.000Z</time>
      </trkpt>
      <trkpt lat="43.31236" lon="2.21253">
        <ele>204.6</ele>
        <time>2019-06-09T07:23:07.000Z</time>
      </trkpt>
      <trkpt lat="43.31234" lon="2.21255">
        <ele>204.2</ele>
        <time>2019-06-09T07:23:08.000Z</time>
      </trkpt>
      <trkpt lat="43.31232" lon="2.21258">
        <ele>203.8</ele>
        <time>2019-06-09T07:23:09.000Z</time>
      </trkpt>
      <trkpt lat="43.31231" lon="2.2126">
        <ele>203.4</ele>
        <time>2019-06-09T07:23:10.000Z</time>
      </trkpt>
      <trkpt lat="43.31229" lon="2.21263">
        <ele>203</ele>
        <time>2019-06-09T07:23:11.000Z</time>
      </trkpt>
      <trkpt lat="43.31228" lon="2.21266">
        <ele>202.6</ele>
        <time>2019-06-09T07:23:12.000Z</time>
      </trkpt>
      <trkpt lat="43.31226" lon="2.21268">
        <ele>202.2</ele>
        <time>2019-06-09T07:23:13.000Z</time>
      </trkpt>
      <trkpt lat="43.31225" lon="2.21271">
        <ele>201.8</ele>
        <time>2019-06-09T07:23:14.000Z</time>
      </trkpt>
      <trkpt lat="43.31223" lon="2.21274">
        <ele>201.4</ele>
        <time>2019-06-09T07:23:15.000Z</time>
      </trkpt>
      <trkpt lat="43.31222" lon="2.21277">
        <ele>200.9</ele>
        <time>2019-06-09T07:23:16.000Z</time>
      </trkpt>
      <trkpt lat="43.3122" lon="2.2128">
        <ele>200.5</ele>
        <time>2019-06-09T07:23:17.000Z</time>
      </trkpt>
      <trkpt lat="43.31219" lon="2.21283">
        <ele>200</ele>
        <time>2019-06-09T07:23:18.000Z</time>
      </trkpt>
      <trkpt lat="43.31218" lon="2.21286">
        <ele>199.6</ele>
        <time>2019-06-09T07:23:19.000Z</time>
      </trkpt>
      <trkpt lat="43.31216" lon="2.21289">
        <ele>199.1</ele>
        <time>2019-06-09T07:23:20.000Z</time>
      </trkpt>
      <trkpt lat="43.31215" lon="2.21292">
        <ele>198.6</ele>
        <time>2019-06-09T07:23:21.000Z</time>
      </trkpt>
      <trkpt lat="43.31214" lon="2.21295">
        <ele>198.1</ele>
        <time>2019-06-09T07:23:22.000Z</time>
      </trkpt>
      <trkpt lat="43.31213" lon="2.21298">
        <ele>197.6</ele>
        <time>2019-06-09T07:23:23.000Z</time>
      </trkpt>
      <trkpt lat="43.31212" lon="2.21302">
        <ele>197.1</ele>
        <time>2019-06-09T07:23:24.000Z</time>
      </trkpt>
      <trkpt lat="43.31211" lon="2.21305">
        <ele>196.5</ele>
        <time>2019-06-09T07:23:25.000Z</time>
      </trkpt>
      <trkpt lat="43.3121" lon="2.21309">
        <ele>196</ele>
        <time>2019-06-09T07:23:26.000Z</time>
      </trkpt>
      <trkpt lat="43.31209" lon="2.21312">
        <ele>195.5</ele>
        <time>2019-06-09T07:23:27.000Z</time>
      </trkpt>
      <trkpt lat="43.31208" lon="2.21316">
        <ele>194.9</ele>
        <time>2019-06-09T07:23:28.000Z</time>
      </trkpt>
      <trkpt lat="43.31207" lon="2.21319">
        <ele>194.4</ele>
        <time>2019-06-09T07:23:29.000Z</time>
      </trkpt>
      <trkpt lat="43.31206" lon="2.21323">
        <ele>193.8</ele>
        <time>2019-06-09T07:23:30.000Z</time>
      </trkpt>
      <trkpt lat="43.31205" lon="2.21326">
        <ele>193.3</ele>
        <time>2019-06-09T07:23:31.000Z</time>
      </trkpt>
      <trkpt lat="43.31205" lon="2.2133">
        <ele>192.8</ele>
        <time>2019-06-09T07:23:32.000Z</time>
      </trkpt>
      <trkpt lat="43.31204" lon="2.21334">
        <ele>192.3</ele>
        <time>2019-06-09T07:23:33.000Z</time>
      </trkpt>
      <trkpt lat="43.31203" lon="2.21337">
        <ele>191.8</ele>
        <time>2019-06-09T07:23:34.000Z</time>
      </trkpt>
      <trkpt lat="43.31203" lon="2.21341">
        <ele>191.5</ele>
        <time>2019-06-09T07:23:35.000Z</time>
      </trkpt>
      <trkpt lat="43.31203" lon="2.21344">
        <ele>191.1</ele>
        <time>2019-06-09T07:23:36.000Z</time>
      </trkpt>
      <trkpt lat="43.31202" lon="2.21348">
        <ele>190.7</ele>
        <time>2019-06-09T07:23:37.000Z</time>
      </trkpt>
      <trkpt lat="43.31202" lon="2.21351">
        <ele>190.4</ele>
        <time>2019-06-09T07:23:38.000Z</time>
      </trkpt>
      <trkpt lat="43.31202" lon="2.21354">
        <ele>190</ele>
        <time>2019-06-09T07:23:39.000Z</time>
      </trkpt>
      <trkpt lat="43.31201" lon="2.21358">
        <ele>189.7</ele>
        <time>2019-06-09T07:23:40.000Z</time>
      </trkpt>
      <trkpt lat="43.31201" lon="2.21361">
        <ele>189.3</ele>
        <time>2019-06-09T07:23:41.000Z</time>
      </trkpt>
      <trkpt lat="43.312" lon="2.21365">
        <ele>189</ele>
        <time>2019-06-09T07:23:42.000Z</time>
      </trkpt>
      <trkpt lat="43.312" lon="2.21368">
        <ele>188.6</ele>
        <time>2019-06-09T07:23:43.000Z</time>
      </trkpt>
      <trkpt lat="43.312" lon="2.21371">
        <ele>188.3</ele>
        <time>2019-06-09T07:23:44.000Z</time>
      </trkpt>
      <trkpt lat="43.31199" lon="2.21375">
        <ele>187.9</ele>
        <time>2019-06-09T07:23:45.000Z</time>
      </trkpt>
      <trkpt lat="43.31199" lon="2.21378">
        <ele>187.6</ele>
        <time>2019-06-09T07:23:46.000Z</time>
      </trkpt>
      <trkpt lat="43.31198" lon="2.21381">
        <ele>187.2</ele>
        <time>2019-06-09T07:23:47.000Z</time>
      </trkpt>
      <trkpt lat="43.31198" lon="2.21385">
        <ele>186.9</ele>
        <time>2019-06-09T07:23:48.000Z</time>
      </trkpt>
      <trkpt lat="43.31198" lon="2.21388">
        <ele>186.5</ele>
        <time>2019-06-09T07:23:49.000Z</time>
      </trkpt>
      <trkpt lat="43.31197" lon="2.21391">
        <ele>186.2</ele>
        <time>2019-06-09T07:23:50.000Z</time>
      </trkpt>
      <trkpt lat="43.31197" lon="2.21394">
        <ele>185.9</ele>
        <time>2019-06-09T07:23:51.000Z</time>
      </trkpt>
      <trkpt lat="43.31196" lon="2.21398">
        <ele>185.5</ele>
        <time>2019-06-09T07:23:52.000Z</time>
      </trkpt>
      <trkpt lat="43.31196" lon="2.21401">
        <ele>185.2</ele>
        <time>2019-06-09T07:23:53.000Z</time>
      </trkpt>
      <trkpt lat="43.31195" lon="2.21404">
        <ele>184.9</ele>
        <time>2019-06-09T07:23:54.000Z</time>
      </trkpt>
      <trkpt lat="43.31195" lon="2.21407">
        <ele>184.5</ele>
        <time>2019-06-09T07:23:55.000Z</time>
      </trkpt>
      <trkpt lat="43.31194" lon="2.2141">
        <ele>184.2</ele>
        <time>2019-06-09T07:23:56.000Z</time>
      </trkpt>
      <trkpt lat="43.31194" lon="2.21413">
        <ele>183.8</ele>
        <time>2019-06-09T07:23:57.000Z</time>
      </trkpt>
      <trkpt lat="43.31193" lon="2.21417">
        <ele>183.5</ele>
        <time>2019-06-09T07:23:58.000Z</time>
      </trkpt>
      <trkpt lat="43.31192" lon="2.2142">
        <ele>183.4</ele>
        <time>2019-06-09T07:23:59.000Z</time>
      </trkpt>
      <trkpt lat="43.31191" lon="2.21423">
        <ele>183.3</ele>
        <time>2019-06-09T07:24:00.000Z</time>
      </trkpt>
      <trkpt lat="43.3119" lon="2.21426">
        <ele>183.3</ele>
        <time>2019-06-09T07:24:01.000Z</time>
      </trkpt>
      <trkpt lat="43.31189" lon="2.21429">
        <ele>183.2</ele>
        <time>2019-06-09T07:24:02.000Z</time>
      </trkpt>
      <trkpt lat="43.31187" lon="2.21432">
        <ele>183.2</ele>
        <time>2019-06-09T07:24:03.000Z</time>
      </trkpt>
      <trkpt lat="43.31186" lon="2.21435">
        <ele>183.2</ele>
        <time>2019-06-09T07:24:04.000Z</time>
      </trkpt>
      <trkpt lat="43.31185" lon="2.21438">
        <ele>183.1</ele>
        <time>2019-06-09T07:24:05.000Z</time>
      </trkpt>
      <trkpt lat="43.31184" lon="2.21441">
        <ele>183.1</ele>
        <time>2019-06-09T07:24:06.000Z</time>
      </trkpt>
      <trkpt lat="43.31182" lon="2.21444">
        <ele>183.1</ele>
        <time>2019-06-09T07:24:07.000Z</time>
      </trkpt>
      <trkpt lat="43.31181" lon="2.21447">
        <ele>183.1</ele>
        <time>2019-06-09T07:24:08.000Z</time>
      </trkpt>
      <trkpt lat="43.3118" lon="2.2145">
        <ele>183.1</ele>
        <time>2019-06-09T07:24:09.000Z</time>
      </trkpt>
      <trkpt lat="43.31179" lon="2.21453">
        <ele>183.2</ele>
        <time>2019-06-09T07:24:10.000Z</time>
      </trkpt>
      <trkpt lat="43.31178" lon="2.21457">
        <ele>183.2</ele>
        <time>2019-06-09T07:24:11.000Z</time>
      </trkpt>
      <trkpt lat="43.31177" lon="2.2146">
        <ele>183.3</ele>
        <time>2019-06-09T07:24:12.000Z</time>
      </trkpt>
      <trkpt lat="43.31176" lon="2.21463">
        <ele>183.3</ele>
        <time>2019-06-09T07:24:13.000Z</time>
      </trkpt>
      <trkpt lat="43.31175" lon="2.21466">
        <ele>183.4</ele>
        <time>2019-06-09T07:24:14.000Z</time>
      </trkpt>
      <trkpt lat="43.31174" lon="2.21469">
        <ele>183.5</ele>
        <time>2019-06-09T07:24:15.000Z</time>
      </trkpt>
      <trkpt lat="43.31173" lon="2.21472">
        <ele>183.6</ele>
        <time>2019-06-09T07:24:16.000Z</time>
      </trkpt>
      <trkpt lat="43.31172" lon="2.21475">
        <ele>183.8</ele>
        <time>2019-06-09T07:24:17.000Z</time>
      </trkpt>
      <trkpt lat="43.31171" lon="2.21478">
        <ele>183.9</ele>
        <time>2019-06-09T07:24:18.000Z</time>
      </trkpt>
      <trkpt lat="43.31171" lon="2.21481">
        <ele>184</ele>
        <time>2019-06-09T07:24:19.000Z</time>
      </trkpt>
      <trkpt lat="43.3117" lon="2.21484">
        <ele>184.2</ele>
        <time>2019-06-09T07:24:20.000Z</time>
      </trkpt>
      <trkpt lat="43.31169" lon="2.21487">
        <ele>184.3</ele>
        <time>2019-06-09T07:24:21.000Z</time>
      </trkpt>
      <trkpt lat="43.31169" lon="2.2149">
        <ele>184.4</ele>
        <time>2019-06-09T07:24:22.000Z</time>
      </trkpt>
      <trkpt lat="43.31168" lon="2.21493">
        <ele>184.6</ele>
        <time>2019-06-09T07:24:23.000Z</time>
      </trkpt>
      <trkpt lat="43.31167" lon="2.21495">
        <ele>184.7</ele>
        <time>2019-06-09T07:24:24.000Z</time>
      </trkpt>
      <trkpt lat="43.31166" lon="2.21498">
        <ele>184.9</ele>
        <time>2019-06-09T07:24:25.000Z</time>
      </trkpt>
      <trkpt lat="43.31165" lon="2.21501">
        <ele>184.9</ele>
        <time>2019-06-09T07:24:26.000Z</time>
      </trkpt>
      <trkpt lat="43.31164" lon="2.21503">
        <ele>184.6</ele>
        <time>2019-06-09T07:24:27.000Z</time>
      </trkpt>
      <trkpt lat="43.31163" lon="2.21506">
        <ele>184.4</ele>
        <time>2019-06-09T07:24:28.000Z</time>
      </trkpt>
      <trkpt lat="43.31162" lon="2.21508">
        <ele>184.1</ele>
        <time>2019-06-09T07:24:29.000Z</time>
      </trkpt>
      <trkpt lat="43.31161" lon="2.2151">
        <ele>183.8</ele>
        <time>2019-06-09T07:24:30.000Z</time>
      </trkpt>
      <trkpt lat="43.3116" lon="2.21513">
        <ele>183.6</ele>
        <time>2019-06-09T07:24:31.000Z</time>
      </trkpt>
      <trkpt lat="43.31158" lon="2.21515">
        <ele>183.3</ele>
        <time>2019-06-09T07:24:32.000Z</time>
      </trkpt>
      <trkpt lat="43.31157" lon="2.21518">
        <ele>182.9</ele>
        <time>2019-06-09T07:24:33.000Z</time>
      </trkpt>
      <trkpt lat="43.31156" lon="2.2152">
        <ele>182.6</ele>
        <time>2019-06-09T07:24:34.000Z</time>
      </trkpt>
      <trkpt lat="43.31154" lon="2.21522">
        <ele>182.3</ele>
        <time>2019-06-09T07:24:35.000Z</time>
      </trkpt>
      <trkpt lat="43.31153" lon="2.21524">
        <ele>182.1</ele>
        <time>2019-06-09T07:24:36.000Z</time>
      </trkpt>
      <trkpt lat="43.31151" lon="2.21525">
        <ele>181.9</ele>
        <time>2019-06-09T07:24:37.000Z</time>
      </trkpt>
      <trkpt lat="43.3115" lon="2.21526">
        <ele>181.7</ele>
        <time>2019-06-09T07:24:38.000Z</time>
      </trkpt>
      <trkpt lat="43.31148" lon="2.21527">
        <ele>181.6</ele>
        <time>2019-06-09T07:24:39.000Z</time>
      </trkpt>
      <trkpt lat="43.31147" lon="2.21527">
        <ele>181.5</ele>
        <time>2019-06-09T07:24:40.000Z</time>
      </trkpt>
      <trkpt lat="43.31145" lon="2.21527">
        <ele>181.4</ele>
        <time>2019-06-09T07:24:41.000Z</time>
      </trkpt>
      <trkpt lat="43.31144" lon="2.21527">
        <ele>181.4</ele>
        <time>2019-06-09T07:24:42.000Z</time>
      </trkpt>
      <trkpt lat="43.31142" lon="2.21527">
        <ele>181.3</ele>
        <time>2019-06-09T07:24:43.000Z</time>
      </trkpt>
      <trkpt lat="43.31141" lon="2.21527">
        <ele>181.2</ele>
        <time>2019-06-09T07:24:44.000Z</time>
      </trkpt>
      <trkpt lat="43.31139" lon="2.21527">
        <ele>181.1</ele>
        <time>2019-06-09T07:24:45.000Z</time>
      </trkpt>
      <trkpt lat="43.31138" lon="2.21528">
        <ele>181</ele>
        <time>2019-06-09T07:24:46.000Z</time>
      </trkpt>
      <trkpt lat="43.31136" lon="2.21528">
        <ele>180.8</ele>
        <time>2019-06-09T07:24:47.000Z</time>
      </trkpt>
      <trkpt lat="43.31134" lon="2.21529">
        <ele>180.7</ele>
        <time>2019-06-09T07:24:48.000Z</time>
      </trkpt>
      <trkpt lat="43.31132" lon="2.21529">
        <ele>180.5</ele>
        <time>2019-06-09T07:24:49.000Z</time>
      </trkpt>
      <trkpt lat="43.3113" lon="2.2153">
        <ele>180.3</ele>
        <time>2019-06-09T07:24:50.000Z</time>
      </trkpt>
      <trkpt lat="43.31128" lon="2.2153">
        <ele>180.2</ele>
        <time>2019-06-09T07:24:51.000Z</time>
      </trkpt>
      <trkpt lat="43.31127" lon="2.21531">
        <ele>180</ele>
        <time>2019-06-09T07:24:52.000Z</time>
      </trkpt>
      <trkpt lat="43.31126" lon="2.21531">
        <ele>179.9</ele>
        <time>2019-06-09T07:24:53.000Z</time>
      </trkpt>
      <trkpt lat="43.31125" lon="2.21532">
        <ele>179.8</ele>
        <time>2019-06-09T07:24:54.000Z</time>
      </trkpt>
      <trkpt lat="43.31124" lon="2.21532">
        <ele>179.7</ele>
        <time>2019-06-09T07:24:55.000Z</time>
      </trkpt>
      <trkpt lat="43.31123" lon="2.21532">
        <ele>179.6</ele>
        <time>2019-06-09T07:24:56.000Z</time>
      </trkpt>
      <trkpt lat="43.31123" lon="2.21533">
        <ele>179.5</ele>
        <time>2019-06-09T07:24:57.000Z</time>
      </trkpt>
      <trkpt lat="43.31123" lon="2.21534">
        <ele>179.4</ele>
        <time>2019-06-09T07:24:58.000Z</time>
      </trkpt>
      <trkpt lat="43.31122" lon="2.21535">
        <ele>179.3</ele>
        <time>2019-06-09T07:24:59.000Z</time>
      </trkpt>
      <trkpt lat="43.31122" lon="2.21536">
        <ele>179.1</ele>
        <time>2019-06-09T07:25:00.000Z</time>
      </trkpt>
      <trkpt lat="43.31122" lon="2.21537">
        <ele>179</ele>
        <time>2019-06-09T07:25:01.000Z</time>
      </trkpt>
      <trkpt lat="43.31121" lon="2.21538">
        <ele>178.8</ele>
        <time>2019-06-09T07:25:02.000Z</time>
      </trkpt>
      <trkpt lat="43.31121" lon="2.2154">
        <ele>178.6</ele>
        <time>2019-06-09T07:25:03.000Z</time>
      </trkpt>
      <trkpt lat="43.31121" lon="2.21541">
        <ele>178.4</ele>
        <time>2019-06-09T07:25:04.000Z</time>
      </trkpt>
      <trkpt lat="43.31122" lon="2.21543">
        <ele>178.2</ele>
        <time>2019-06-09T07:25:05.000Z</time>
      </trkpt>
      <trkpt lat="43.31121" lon="2.21545">
        <ele>177.9</ele>
        <time>2019-06-09T07:25:06.000Z</time>
      </trkpt>
      <trkpt lat="43.31121" lon="2.21547">
        <ele>177.6</ele>
        <time>2019-06-09T07:25:07.000Z</time>
      </trkpt>
      <trkpt lat="43.31121" lon="2.21549">
        <ele>177.3</ele>
        <time>2019-06-09T07:25:08.000Z</time>
      </trkpt>
      <trkpt lat="43.3112" lon="2.21551">
        <ele>176.9</ele>
        <time>2019-06-09T07:25:09.000Z</time>
      </trkpt>
      <trkpt lat="43.31119" lon="2.21553">
        <ele>176.6</ele>
        <time>2019-06-09T07:25:10.000Z</time>
      </trkpt>
      <trkpt lat="43.31118" lon="2.21554">
        <ele>176.4</ele>
        <time>2019-06-09T07:25:11.000Z</time>
      </trkpt>
      <trkpt lat="43.31118" lon="2.21555">
        <ele>176.2</ele>
        <time>2019-06-09T07:25:12.000Z</time>
      </trkpt>
      <trkpt lat="43.31118" lon="2.21555">
        <ele>176.2</ele>
        <time>2019-06-09T07:25:13.000Z</time>
      </trkpt>
      <trkpt lat="43.31118" lon="2.21555">
        <ele>176.2</ele>
        <time>2019-06-09T07:25:14.000Z</time>
      </trkpt>
      <trkpt lat="43.31118" lon="2.21555">
        <ele>176.2</ele>
        <time>2019-06-09T07:25:15.000Z</time>
      </trkpt>
      <trkpt lat="43.31118" lon="2.21555">
        <ele>176.2</ele>
        <time>2019-06-09T07:25:16.000Z</time>
      </trkpt>
      <trkpt lat="43.31118" lon="2.21555">
        <ele>176.2</ele>
        <time>2019-06-09T07:25:17.000Z</time>
      </trkpt>
      <trkpt lat="43.31118" lon="2.21555">
        <ele>176.2</ele>
        <time>2019-06-09T07:25:18.000Z</time>
      </trkpt>
      <trkpt lat="43.31118" lon="2.21555">
        <ele>176.2</ele>
        <time>2019-06-09T07:25:19.000Z</time>
      </trkpt>
      <trkpt lat="43.31118" lon="2.21555">
        <ele>176.2</ele>
        <time>2019-06-09T07:25:20.000Z</time>
      </trkpt>
      <trkpt lat="43.31118" lon="2.21555">
        <ele>176.2</ele>
        <time>2019-06-09T07:25:21.000Z</time>
      </trkpt>
      <trkpt lat="43.31118" lon="2.21555">
        <ele>176.2</ele>
        <time>2019-06-09T07:25:22.000Z</time>
      </trkpt>
      <trkpt lat="43.31118" lon="2.21555">
        <ele>176.2</ele>
        <time>2019-06-09T07:25:23.000Z</time>
      </trkpt>
      <trkpt lat="43.31118" lon="2.21555">
        <ele>176.2</ele>
        <time>2019-06-09T07:25:24.000Z</time>
      </trkpt>
      <trkpt lat="43.31118" lon="2.21555">
        <ele>176.2</ele>
        <time>2019-06-09T07:25:25.000Z</time>
      </trkpt>
      <trkpt lat="43.31118" lon="2.21555">
        <ele>176.2</ele>
        <time>2019-06-09T07:25:26.000Z</time>
      </trkpt>
      <trkpt lat="43.31118" lon="2.21555">
        <ele>176.2</ele>
        <time>2019-06-09T07:25:27.000Z</time>
      </trkpt>
      <trkpt lat="43.31118" lon="2.21555">
        <ele>176.2</ele>
        <time>2019-06-09T07:25:28.000Z</time>
      </trkpt>
      <trkpt lat="43.31118" lon="2.21555">
        <ele>176.2</ele>
        <time>2019-06-09T07:25:29.000Z</time>
      </trkpt>
      <trkpt lat="43.31118" lon="2.21555">
        <ele>176.2</ele>
        <time>2019-06-09T07:25:30.000Z</time>
      </trkpt>
      <trkpt lat="43.31118" lon="2.21555">
        <ele>176.2</ele>
        <time>2019-06-09T07:25:31.000Z</time>
      </trkpt>
      <trkpt lat="43.31118" lon="2.21555">
        <ele>176.2</ele>
        <time>2019-06-09T07:25:32.000Z</time>
      </trkpt>
      <trkpt lat="43.31118" lon="2.21555">
        <ele>176.2</ele>
        <time>2019-06-09T07:25:33.000Z</time>
      </trkpt>
      <trkpt lat="43.31118" lon="2.21555">
        <ele>176.2</ele>
        <time>2019-06-09T07:25:34.000Z</time>
      </trkpt>
      <trkpt lat="43.31118" lon="2.21555">
        <ele>176.2</ele>
        <time>2019-06-09T07:25:35.000Z</time>
      </trkpt>
      <trkpt lat="43.31118" lon="2.21555">
        <ele>176.2</ele>
        <time>2019-06-09T07:25:36.000Z</time>
      </trkpt>
      <trkpt lat="43.31118" lon="2.21555">
        <ele>176.2</ele>
        <time>2019-06-09T07:25:37.000Z</time>
      </trkpt>
      <trkpt lat="43.31117" lon="2.21555">
        <ele>176.2</ele>
        <time>2019-06-09T07:25:38.000Z</time>
      </trkpt>
      <trkpt lat="43.31117" lon="2.21555">
        <ele>176.2</ele>
        <time>2019-06-09T07:25:39.000Z</time>
      </trkpt>
      <trkpt lat="43.31117" lon="2.21555">
        <ele>176.2</ele>
        <time>2019-06-09T07:25:40.000Z</time>
      </trkpt>
      <trkpt lat="43.31117" lon="2.21555">
        <ele>176.2</ele>
        <time>2019-06-09T07:25:41.000Z</time>
      </trkpt>
      <trkpt lat="43.31117" lon="2.21555">
        <ele>176.2</ele>
        <time>2019-06-09T07:25:42.000Z</time>
      </trkpt>
      <trkpt lat="43.31117" lon="2.21554">
        <ele>176.2</ele>
        <time>2019-06-09T07:25:43.000Z</time>
      </trkpt>
      <trkpt lat="43.31117" lon="2.21554">
        <ele>176.3</ele>
        <time>2019-06-09T07:25:44.000Z</time>
      </trkpt>
      <trkpt lat="43.31116" lon="2.21554">
        <ele>176.3</ele>
        <time>2019-06-09T07:25:45.000Z</time>
      </trkpt>
      <trkpt lat="43.31116" lon="2.21554">
        <ele>176.3</ele>
        <time>2019-06-09T07:25:46.000Z</time>
      </trkpt>
      <trkpt lat="43.31116" lon="2.21553">
        <ele>176.4</ele>
        <time>2019-06-09T07:25:47.000Z</time>
      </trkpt>
      <trkpt lat="43.31115" lon="2.21552">
        <ele>176.4</ele>
        <time>2019-06-09T07:25:48.000Z</time>
      </trkpt>
      <trkpt lat="43.31115" lon="2.21551">
        <ele>176.5</ele>
        <time>2019-06-09T07:25:49.000Z</time>
      </trkpt>
      <trkpt lat="43.31114" lon="2.2155">
        <ele>176.6</ele>
        <time>2019-06-09T07:25:50.000Z</time>
      </trkpt>
      <trkpt lat="43.31114" lon="2.21549">
        <ele>176.8</ele>
        <time>2019-06-09T07:25:51.000Z</time>
      </trkpt>
      <trkpt lat="43.31114" lon="2.21548">
        <ele>176.9</ele>
        <time>2019-06-09T07:25:52.000Z</time>
      </trkpt>
      <trkpt lat="43.31114" lon="2.21547">
        <ele>177.1</ele>
        <time>2019-06-09T07:25:53.000Z</time>
      </trkpt>
      <trkpt lat="43.31115" lon="2.21546">
        <ele>177.3</ele>
        <time>2019-06-09T07:25:54.000Z</time>
      </trkpt>
      <trkpt lat="43.31116" lon="2.21545">
        <ele>177.5</ele>
        <time>2019-06-09T07:25:55.000Z</time>
      </trkpt>
      <trkpt lat="43.31116" lon="2.21544">
        <ele>177.7</ele>
        <time>2019-06-09T07:25:56.000Z</time>
      </trkpt>
      <trkpt lat="43.31117" lon="2.21543">
        <ele>177.9</ele>
        <time>2019-06-09T07:25:57.000Z</time>
      </trkpt>
      <trkpt lat="43.31118" lon="2.21542">
        <ele>178.1</ele>
        <time>2019-06-09T07:25:58.000Z</time>
      </trkpt>
      <trkpt lat="43.31119" lon="2.21541">
        <ele>178.3</ele>
        <time>2019-06-09T07:25:59.000Z</time>
      </trkpt>
      <trkpt lat="43.3112" lon="2.2154">
        <ele>178.5</ele>
        <time>2019-06-09T07:26:00.000Z</time>
      </trkpt>
      <trkpt lat="43.3112" lon="2.21539">
        <ele>178.6</ele>
        <time>2019-06-09T07:26:01.000Z</time>
      </trkpt>
      <trkpt lat="43.3112" lon="2.21538">
        <ele>178.8</ele>
        <time>2019-06-09T07:26:02.000Z</time>
      </trkpt>
      <trkpt lat="43.3112" lon="2.21537">
        <ele>178.9</ele>
        <time>2019-06-09T07:26:03.000Z</time>
      </trkpt>
      <trkpt lat="43.3112" lon="2.21536">
        <ele>179</ele>
        <time>2019-06-09T07:26:04.000Z</time>
      </trkpt>
      <trkpt lat="43.3112" lon="2.21535">
        <ele>179.1</ele>
        <time>2019-06-09T07:26:05.000Z</time>
      </trkpt>
      <trkpt lat="43.31119" lon="2.21534">
        <ele>179.2</ele>
        <time>2019-06-09T07:26:06.000Z</time>
      </trkpt>
      <trkpt lat="43.31119" lon="2.21534">
        <ele>179.2</ele>
        <time>2019-06-09T07:26:07.000Z</time>
      </trkpt>
      <trkpt lat="43.31118" lon="2.21533">
        <ele>179.2</ele>
        <time>2019-06-09T07:26:08.000Z</time>
      </trkpt>
      <trkpt lat="43.31118" lon="2.21533">
        <ele>179.2</ele>
        <time>2019-06-09T07:26:09.000Z</time>
      </trkpt>
      <trkpt lat="43.31117" lon="2.21533">
        <ele>179.2</ele>
        <time>2019-06-09T07:26:10.000Z</time>
      </trkpt>
      <trkpt lat="43.31116" lon="2.21533">
        <ele>179.2</ele>
        <time>2019-06-09T07:26:11.000Z</time>
      </trkpt>
      <trkpt lat="43.31115" lon="2.21533">
        <ele>179.2</ele>
        <time>2019-06-09T07:26:12.000Z</time>
      </trkpt>
      <trkpt lat="43.31115" lon="2.21533">
        <ele>179.1</ele>
        <time>2019-06-09T07:26:13.000Z</time>
      </trkpt>
      <trkpt lat="43.31114" lon="2.21532">
        <ele>179.2</ele>
        <time>2019-06-09T07:26:14.000Z</time>
      </trkpt>
      <trkpt lat="43.31113" lon="2.21531">
        <ele>179.2</ele>
        <time>2019-06-09T07:26:15.000Z</time>
      </trkpt>
      <trkpt lat="43.31112" lon="2.2153">
        <ele>179.3</ele>
        <time>2019-06-09T07:26:16.000Z</time>
      </trkpt>
      <trkpt lat="43.3111" lon="2.21529">
        <ele>179.5</ele>
        <time>2019-06-09T07:26:17.000Z</time>
      </trkpt>
      <trkpt lat="43.31109" lon="2.21527">
        <ele>179.6</ele>
        <time>2019-06-09T07:26:18.000Z</time>
      </trkpt>
      <trkpt lat="43.31107" lon="2.21526">
        <ele>179.8</ele>
        <time>2019-06-09T07:26:19.000Z</time>
      </trkpt>
      <trkpt lat="43.31104" lon="2.21524">
        <ele>179.9</ele>
        <time>2019-06-09T07:26:20.000Z</time>
      </trkpt>
      <trkpt lat="43.31102" lon="2.21523">
        <ele>180</ele>
        <time>2019-06-09T07:26:21.000Z</time>
      </trkpt>
      <trkpt lat="43.31099" lon="2.21522">
        <ele>180.1</ele>
        <time>2019-06-09T07:26:22.000Z</time>
      </trkpt>
      <trkpt lat="43.31097" lon="2.21521">
        <ele>180.1</ele>
        <time>2019-06-09T07:26:23.000Z</time>
      </trkpt>
      <trkpt lat="43.31095" lon="2.2152">
        <ele>180.1</ele>
        <time>2019-06-09T07:26:24.000Z</time>
      </trkpt>
      <trkpt lat="43.31093" lon="2.2152">
        <ele>180.1</ele>
        <time>2019-06-09T07:26:25.000Z</time>
      </trkpt>
      <trkpt lat="43.31091" lon="2.21519">
        <ele>180.1</ele>
        <time>2019-06-09T07:26:26.000Z</time>
      </trkpt>
      <trkpt lat="43.31089" lon="2.21519">
        <ele>180.1</ele>
        <time>2019-06-09T07:26:27.000Z</time>
      </trkpt>
      <trkpt lat="43.31088" lon="2.21518">
        <ele>180.1</ele>
        <time>2019-06-09T07:26:28.000Z</time>
      </trkpt>
      <trkpt lat="43.31086" lon="2.21517">
        <ele>180.2</ele>
        <time>2019-06-09T07:26:29.000Z</time>
      </trkpt>
      <trkpt lat="43.31085" lon="2.21516">
        <ele>180.3</ele>
        <time>2019-06-09T07:26:30.000Z</time>
      </trkpt>
      <trkpt lat="43.31084" lon="2.21515">
        <ele>180.6</ele>
        <time>2019-06-09T07:26:31.000Z</time>
      </trkpt>
      <trkpt lat="43.31083" lon="2.21513">
        <ele>180.9</ele>
        <time>2019-06-09T07:26:32.000Z</time>
      </trkpt>
      <trkpt lat="43.31082" lon="2.2151">
        <ele>181.3</ele>
        <time>2019-06-09T07:26:33.000Z</time>
      </trkpt>
      <trkpt lat="43.31081" lon="2.21508">
        <ele>181.6</ele>
        <time>2019-06-09T07:26:34.000Z</time>
      </trkpt>
      <trkpt lat="43.31079" lon="2.21506">
        <ele>181.9</ele>
        <time>2019-06-09T07:26:35.000Z</time>
      </trkpt>
      <trkpt lat="43.31078" lon="2.21504">
        <ele>182.2</ele>
        <time>2019-06-09T07:26:36.000Z</time>
      </trkpt>
      <trkpt lat="43.31076" lon="2.21502">
        <ele>182.5</ele>
        <time>2019-06-09T07:26:37.000Z</time>
      </trkpt>
      <trkpt lat="43.31074" lon="2.215">
        <ele>182.6</ele>
        <time>2019-06-09T07:26:38.000Z</time>
      </trkpt>
      <trkpt lat="43.31072" lon="2.21499">
        <ele>182.6</ele>
        <time>2019-06-09T07:26:39.000Z</time>
      </trkpt>
      <trkpt lat="43.31069" lon="2.21498">
        <ele>182.5</ele>
        <time>2019-06-09T07:26:40.000Z</time>
      </trkpt>
      <trkpt lat="43.31067" lon="2.21498">
        <ele>182.4</ele>
        <time>2019-06-09T07:26:41.000Z</time>
      </trkpt>
      <trkpt lat="43.31065" lon="2.21498">
        <ele>182.3</ele>
        <time>2019-06-09T07:26:42.000Z</time>
      </trkpt>
      <trkpt lat="43.31062" lon="2.21497">
        <ele>182.3</ele>
        <time>2019-06-09T07:26:43.000Z</time>
      </trkpt>
      <trkpt lat="43.3106" lon="2.21497">
        <ele>182.2</ele>
        <time>2019-06-09T07:26:44.000Z</time>
      </trkpt>
      <trkpt lat="43.31058" lon="2.21497">
        <ele>182.1</ele>
        <time>2019-06-09T07:26:45.000Z</time>
      </trkpt>
      <trkpt lat="43.31055" lon="2.21496">
        <ele>182</ele>
        <time>2019-06-09T07:26:46.000Z</time>
      </trkpt>
      <trkpt lat="43.31053" lon="2.21496">
        <ele>182</ele>
        <time>2019-06-09T07:26:47.000Z</time>
      </trkpt>
      <trkpt lat="43.31051" lon="2.21495">
        <ele>181.9</ele>
        <time>2019-06-09T07:26:48.000Z</time>
      </trkpt>
      <trkpt lat="43.31049" lon="2.21494">
        <ele>181.8</ele>
        <time>2019-06-09T07:26:49.000Z</time>
      </trkpt>
      <trkpt lat="43.31047" lon="2.21493">
        <ele>181.8</ele>
        <time>2019-06-09T07:26:50.000Z</time>
      </trkpt>
      <trkpt lat="43.31045" lon="2.21492">
        <ele>181.7</ele>
        <time>2019-06-09T07:26:51.000Z</time>
      </trkpt>
      <trkpt lat="43.31043" lon="2.21491">
        <ele>181.7</ele>
        <time>2019-06-09T07:26:52.000Z</time>
      </trkpt>
      <trkpt lat="43.31041" lon="2.21491">
        <ele>181.6</ele>
        <time>2019-06-09T07:26:53.000Z</time>
      </trkpt>
      <trkpt lat="43.31039" lon="2.2149">
        <ele>181.5</ele>
        <time>2019-06-09T07:26:54.000Z</time>
      </trkpt>
      <trkpt lat="43.31037" lon="2.2149">
        <ele>181.5</ele>
        <time>2019-06-09T07:26:55.000Z</time>
      </trkpt>
      <trkpt lat="43.31035" lon="2.21489">
        <ele>181.4</ele>
        <time>2019-06-09T07:26:56.000Z</time>
      </trkpt>
      <trkpt lat="43.31033" lon="2.21489">
        <ele>181.3</ele>
        <time>2019-06-09T07:26:57.000Z</time>
      </trkpt>
      <trkpt lat="43.31031" lon="2.21489">
        <ele>181.2</ele>
        <time>2019-06-09T07:26:58.000Z</time>
      </trkpt>
      <trkpt lat="43.31029" lon="2.21489">
        <ele>181.2</ele>
        <time>2019-06-09T07:26:59.000Z</time>
      </trkpt>
      <trkpt lat="43.31027" lon="2.21489">
        <ele>181.1</ele>
        <time>2019-06-09T07:27:00.000Z</time>
      </trkpt>
      <trkpt lat="43.31026" lon="2.21489">
        <ele>181</ele>
        <time>2019-06-09T07:27:01.000Z</time>
      </trkpt>
      <trkpt lat="43.31024" lon="2.21489">
        <ele>181</ele>
        <time>2019-06-09T07:27:02.000Z</time>
      </trkpt>
      <trkpt lat="43.31023" lon="2.21489">
        <ele>180.9</ele>
        <time>2019-06-09T07:27:03.000Z</time>
      </trkpt>
      <trkpt lat="43.31021" lon="2.2149">
        <ele>180.9</ele>
        <time>2019-06-09T07:27:04.000Z</time>
      </trkpt>
      <trkpt lat="43.3102" lon="2.2149">
        <ele>180.8</ele>
        <time>2019-06-09T07:27:05.000Z</time>
      </trkpt>
      <trkpt lat="43.31018" lon="2.2149">
        <ele>180.8</ele>
        <time>2019-06-09T07:27:06.000Z</time>
      </trkpt>
      <trkpt lat="43.31017" lon="2.2149">
        <ele>180.7</ele>
        <time>2019-06-09T07:27:07.000Z</time>
      </trkpt>
      <trkpt lat="43.31015" lon="2.21489">
        <ele>180.7</ele>
        <time>2019-06-09T07:27:08.000Z</time>
      </trkpt>
      <trkpt lat="43.31013" lon="2.21489">
        <ele>180.6</ele>
        <time>2019-06-09T07:27:09.000Z</time>
      </trkpt>
      <trkpt lat="43.3101" lon="2.21489">
        <ele>180.5</ele>
        <time>2019-06-09T07:27:10.000Z</time>
      </trkpt>
      <trkpt lat="43.31008" lon="2.21488">
        <ele>180.4</ele>
        <time>2019-06-09T07:27:11.000Z</time>
      </trkpt>
      <trkpt lat="43.31005" lon="2.21487">
        <ele>180.3</ele>
        <time>2019-06-09T07:27:12.000Z</time>
      </trkpt>
      <trkpt lat="43.31002" lon="2.21487">
        <ele>180.2</ele>
        <time>2019-06-09T07:27:13.000Z</time>
      </trkpt>
      <trkpt lat="43.30999" lon="2.21486">
        <ele>180.1</ele>
        <time>2019-06-09T07:27:14.000Z</time>
      </trkpt>
      <trkpt lat="43.30997" lon="2.21485">
        <ele>180</ele>
        <time>2019-06-09T07:27:15.000Z</time>
      </trkpt>
      <trkpt lat="43.30994" lon="2.21484">
        <ele>179.9</ele>
        <time>2019-06-09T07:27:16.000Z</time>
      </trkpt>
      <trkpt lat="43.30992" lon="2.21484">
        <ele>179.8</ele>
        <time>2019-06-09T07:27:17.000Z</time>
      </trkpt>
      <trkpt lat="43.30991" lon="2.21483">
        <ele>179.7</ele>
        <time>2019-06-09T07:27:18.000Z</time>
      </trkpt>
      <trkpt lat="43.30989" lon="2.21482">
        <ele>179.6</ele>
        <time>2019-06-09T07:27:19.000Z</time>
      </trkpt>
      <trkpt lat="43.30987" lon="2.21482">
        <ele>179.5</ele>
        <time>2019-06-09T07:27:20.000Z</time>
      </trkpt>
      <trkpt lat="43.30986" lon="2.2148">
        <ele>179.5</ele>
        <time>2019-06-09T07:27:21.000Z</time>
      </trkpt>
      <trkpt lat="43.30984" lon="2.21479">
        <ele>179.4</ele>
        <time>2019-06-09T07:27:22.000Z</time>
      </trkpt>
      <trkpt lat="43.30982" lon="2.21478">
        <ele>179.3</ele>
        <time>2019-06-09T07:27:23.000Z</time>
      </trkpt>
      <trkpt lat="43.3098" lon="2.21478">
        <ele>179.2</ele>
        <time>2019-06-09T07:27:24.000Z</time>
      </trkpt>
      <trkpt lat="43.30978" lon="2.21478">
        <ele>179.1</ele>
        <time>2019-06-09T07:27:25.000Z</time>
      </trkpt>
      <trkpt lat="43.30977" lon="2.21479">
        <ele>179</ele>
        <time>2019-06-09T07:27:26.000Z</time>
      </trkpt>
      <trkpt lat="43.30975" lon="2.2148">
        <ele>178.9</ele>
        <time>2019-06-09T07:27:27.000Z</time>
      </trkpt>
      <trkpt lat="43.30974" lon="2.21481">
        <ele>178.8</ele>
        <time>2019-06-09T07:27:28.000Z</time>
      </trkpt>
      <trkpt lat="43.30972" lon="2.21483">
        <ele>178.7</ele>
        <time>2019-06-09T07:27:29.000Z</time>
      </trkpt>
      <trkpt lat="43.30971" lon="2.21485">
        <ele>178.7</ele>
        <time>2019-06-09T07:27:30.000Z</time>
      </trkpt>
      <trkpt lat="43.3097" lon="2.21487">
        <ele>178.6</ele>
        <time>2019-06-09T07:27:31.000Z</time>
      </trkpt>
      <trkpt lat="43.30968" lon="2.21489">
        <ele>178.5</ele>
        <time>2019-06-09T07:27:32.000Z</time>
      </trkpt>
      <trkpt lat="43.30967" lon="2.21491">
        <ele>178.4</ele>
        <time>2019-06-09T07:27:33.000Z</time>
      </trkpt>
      <trkpt lat="43.30966" lon="2.21494">
        <ele>178.4</ele>
        <time>2019-06-09T07:27:34.000Z</time>
      </trkpt>
      <trkpt lat="43.30964" lon="2.21496">
        <ele>178.3</ele>
        <time>2019-06-09T07:27:35.000Z</time>
      </trkpt>
      <trkpt lat="43.30963" lon="2.21498">
        <ele>178.2</ele>
        <time>2019-06-09T07:27:36.000Z</time>
      </trkpt>
      <trkpt lat="43.30962" lon="2.21501">
        <ele>178.1</ele>
        <time>2019-06-09T07:27:37.000Z</time>
      </trkpt>
      <trkpt lat="43.3096" lon="2.21503">
        <ele>177.9</ele>
        <time>2019-06-09T07:27:38.000Z</time>
      </trkpt>
      <trkpt lat="43.30959" lon="2.21505">
        <ele>177.6</ele>
        <time>2019-06-09T07:27:39.000Z</time>
      </trkpt>
      <trkpt lat="43.30958" lon="2.21508">
        <ele>177.4</ele>
        <time>2019-06-09T07:27:40.000Z</time>
      </trkpt>
      <trkpt lat="43.30957" lon="2.2151">
        <ele>177.2</ele>
        <time>2019-06-09T07:27:41.000Z</time>
      </trkpt>
      <trkpt lat="43.30956" lon="2.21513">
        <ele>176.9</ele>
        <time>2019-06-09T07:27:42.000Z</time>
      </trkpt>
      <trkpt lat="43.30955" lon="2.21515">
        <ele>176.7</ele>
        <time>2019-06-09T07:27:43.000Z</time>
      </trkpt>
      <trkpt lat="43.30954" lon="2.21518">
        <ele>176.4</ele>
        <time>2019-06-09T07:27:44.000Z</time>
      </trkpt>
      <trkpt lat="43.30954" lon="2.21521">
        <ele>176.2</ele>
        <time>2019-06-09T07:27:45.000Z</time>
      </trkpt>
      <trkpt lat="43.30953" lon="2.21523">
        <ele>176</ele>
        <time>2019-06-09T07:27:46.000Z</time>
      </trkpt>
      <trkpt lat="43.30953" lon="2.21526">
        <ele>175.8</ele>
        <time>2019-06-09T07:27:47.000Z</time>
      </trkpt>
      <trkpt lat="43.30952" lon="2.21529">
        <ele>175.5</ele>
        <time>2019-06-09T07:27:48.000Z</time>
      </trkpt>
      <trkpt lat="43.30952" lon="2.21531">
        <ele>175.3</ele>
        <time>2019-06-09T07:27:49.000Z</time>
      </trkpt>
      <trkpt lat="43.30952" lon="2.21534">
        <ele>175.1</ele>
        <time>2019-06-09T07:27:50.000Z</time>
      </trkpt>
      <trkpt lat="43.30952" lon="2.21537">
        <ele>174.9</ele>
        <time>2019-06-09T07:27:51.000Z</time>
      </trkpt>
      <trkpt lat="43.30952" lon="2.21539">
        <ele>174.7</ele>
        <time>2019-06-09T07:27:52.000Z</time>
      </trkpt>
      <trkpt lat="43.30951" lon="2.21542">
        <ele>174.5</ele>
        <time>2019-06-09T07:27:53.000Z</time>
      </trkpt>
      <trkpt lat="43.30951" lon="2.21544">
        <ele>174.4</ele>
        <time>2019-06-09T07:27:54.000Z</time>
      </trkpt>
      <trkpt lat="43.30951" lon="2.21545">
        <ele>174.3</ele>
        <time>2019-06-09T07:27:55.000Z</time>
      </trkpt>
      <trkpt lat="43.30951" lon="2.21546">
        <ele>174.2</ele>
        <time>2019-06-09T07:27:56.000Z</time>
      </trkpt>
      <trkpt lat="43.30951" lon="2.21546">
        <ele>174.2</ele>
        <time>2019-06-09T07:27:57.000Z</time>
      </trkpt>
      <trkpt lat="43.30952" lon="2.21547">
        <ele>174.2</ele>
        <time>2019-06-09T07:27:58.000Z</time>
      </trkpt>
      <trkpt lat="43.30954" lon="2.21548">
        <ele>174.1</ele>
        <time>2019-06-09T07:27:59.000Z</time>
      </trkpt>
      <trkpt lat="43.30956" lon="2.2155">
        <ele>174.1</ele>
        <time>2019-06-09T07:28:00.000Z</time>
      </trkpt>
      <trkpt lat="43.30958" lon="2.21551">
        <ele>174</ele>
        <time>2019-06-09T07:28:01.000Z</time>
      </trkpt>
      <trkpt lat="43.3096" lon="2.21553">
        <ele>173.9</ele>
        <time>2019-06-09T07:28:02.000Z</time>
      </trkpt>
      <trkpt lat="43.30962" lon="2.21554">
        <ele>173.8</ele>
        <time>2019-06-09T07:28:03.000Z</time>
      </trkpt>
      <trkpt lat="43.30964" lon="2.21556">
        <ele>173.8</ele>
        <time>2019-06-09T07:28:04.000Z</time>
      </trkpt>
      <trkpt lat="43.30966" lon="2.21558">
        <ele>173.7</ele>
        <time>2019-06-09T07:28:05.000Z</time>
      </trkpt>
      <trkpt lat="43.30967" lon="2.21559">
        <ele>173.6</ele>
        <time>2019-06-09T07:28:06.000Z</time>
      </trkpt>
      <trkpt lat="43.30969" lon="2.2156">
        <ele>173.5</ele>
        <time>2019-06-09T07:28:07.000Z</time>
      </trkpt>
      <trkpt lat="43.3097" lon="2.21562">
        <ele>173.4</ele>
        <time>2019-06-09T07:28:08.000Z</time>
      </trkpt>
      <trkpt lat="43.30971" lon="2.21563">
        <ele>173.4</ele>
        <time>2019-06-09T07:28:09.000Z</time>
      </trkpt>
      <trkpt lat="43.30973" lon="2.21564">
        <ele>173.3</ele>
        <time>2019-06-09T07:28:10.000Z</time>
      </trkpt>
      <trkpt lat="43.30974" lon="2.21565">
        <ele>173.2</ele>
        <time>2019-06-09T07:28:11.000Z</time>
      </trkpt>
      <trkpt lat="43.30976" lon="2.21567">
        <ele>173.1</ele>
        <time>2019-06-09T07:28:12.000Z</time>
      </trkpt>
      <trkpt lat="43.30977" lon="2.21568">
        <ele>173.1</ele>
        <time>2019-06-09T07:28:13.000Z</time>
      </trkpt>
      <trkpt lat="43.30978" lon="2.21569">
        <ele>173</ele>
        <time>2019-06-09T07:28:14.000Z</time>
      </trkpt>
      <trkpt lat="43.3098" lon="2.2157">
        <ele>173</ele>
        <time>2019-06-09T07:28:15.000Z</time>
      </trkpt>
      <trkpt lat="43.30981" lon="2.21571">
        <ele>172.9</ele>
        <time>2019-06-09T07:28:16.000Z</time>
      </trkpt>
      <trkpt lat="43.30983" lon="2.21572">
        <ele>172.8</ele>
        <time>2019-06-09T07:28:17.000Z</time>
      </trkpt>
      <trkpt lat="43.30984" lon="2.21573">
        <ele>172.7</ele>
        <time>2019-06-09T07:28:18.000Z</time>
      </trkpt>
      <trkpt lat="43.30985" lon="2.21575">
        <ele>172.6</ele>
        <time>2019-06-09T07:28:19.000Z</time>
      </trkpt>
      <trkpt lat="43.30986" lon="2.21577">
        <ele>172.4</ele>
        <time>2019-06-09T07:28:20.000Z</time>
      </trkpt>
      <trkpt lat="43.30987" lon="2.21578">
        <ele>172.3</ele>
        <time>2019-06-09T07:28:21.000Z</time>
      </trkpt>
      <trkpt lat="43.30987" lon="2.2158">
        <ele>172.1</ele>
        <time>2019-06-09T07:28:22.000Z</time>
      </trkpt>
      <trkpt lat="43.30988" lon="2.21582">
        <ele>171.9</ele>
        <time>2019-06-09T07:28:23.000Z</time>
      </trkpt>
      <trkpt lat="43.30988" lon="2.21584">
        <ele>171.7</ele>
        <time>2019-06-09T07:28:24.000Z</time>
      </trkpt>
      <trkpt lat="43.30988" lon="2.21586">
        <ele>171.5</ele>
        <time>2019-06-09T07:28:25.000Z</time>
      </trkpt>
      <trkpt lat="43.30988" lon="2.21588">
        <ele>171.3</ele>
        <time>2019-06-09T07:28:26.000Z</time>
      </trkpt>
      <trkpt lat="43.30987" lon="2.2159">
        <ele>171.1</ele>
        <time>2019-06-09T07:28:27.000Z</time>
      </trkpt>
      <trkpt lat="43.30986" lon="2.21592">
        <ele>170.9</ele>
        <time>2019-06-09T07:28:28.000Z</time>
      </trkpt>
      <trkpt lat="43.30985" lon="2.21593">
        <ele>170.7</ele>
        <time>2019-06-09T07:28:29.000Z</time>
      </trkpt>
      <trkpt lat="43.30985" lon="2.21595">
        <ele>170.5</ele>
        <time>2019-06-09T07:28:30.000Z</time>
      </trkpt>
      <trkpt lat="43.30984" lon="2.21597">
        <ele>170.2</ele>
        <time>2019-06-09T07:28:31.000Z</time>
      </trkpt>
      <trkpt lat="43.30983" lon="2.21599">
        <ele>170</ele>
        <time>2019-06-09T07:28:32.000Z</time>
      </trkpt>
      <trkpt lat="43.30981" lon="2.216">
        <ele>169.8</ele>
        <time>2019-06-09T07:28:33.000Z</time>
      </trkpt>
      <trkpt lat="43.3098" lon="2.21602">
        <ele>169.6</ele>
        <time>2019-06-09T07:28:34.000Z</time>
      </trkpt>
      <trkpt lat="43.3098" lon="2.21604">
        <ele>169.4</ele>
        <time>2019-06-09T07:28:35.000Z</time>
      </trkpt>
      <trkpt lat="43.30979" lon="2.21606">
        <ele>169.2</ele>
        <time>2019-06-09T07:28:36.000Z</time>
      </trkpt>
      <trkpt lat="43.30978" lon="2.21608">
        <ele>169</ele>
        <time>2019-06-09T07:28:37.000Z</time>
      </trkpt>
      <trkpt lat="43.30977" lon="2.21609">
        <ele>168.8</ele>
        <time>2019-06-09T07:28:38.000Z</time>
      </trkpt>
      <trkpt lat="43.30976" lon="2.21611">
        <ele>168.5</ele>
        <time>2019-06-09T07:28:39.000Z</time>
      </trkpt>
      <trkpt lat="43.30975" lon="2.21613">
        <ele>168.3</ele>
        <time>2019-06-09T07:28:40.000Z</time>
      </trkpt>
      <trkpt lat="43.30974" lon="2.21615">
        <ele>168.1</ele>
        <time>2019-06-09T07:28:41.000Z</time>
      </trkpt>
      <trkpt lat="43.30974" lon="2.21617">
        <ele>167.9</ele>
        <time>2019-06-09T07:28:42.000Z</time>
      </trkpt>
      <trkpt lat="43.30973" lon="2.21619">
        <ele>167.7</ele>
        <time>2019-06-09T07:28:43.000Z</time>
      </trkpt>
      <trkpt lat="43.30972" lon="2.21621">
        <ele>167.5</ele>
        <time>2019-06-09T07:28:44.000Z</time>
      </trkpt>
      <trkpt lat="43.30971" lon="2.21623">
        <ele>167.3</ele>
        <time>2019-06-09T07:28:45.000Z</time>
      </trkpt>
      <trkpt lat="43.3097" lon="2.21625">
        <ele>167</ele>
        <time>2019-06-09T07:28:46.000Z</time>
      </trkpt>
      <trkpt lat="43.30969" lon="2.21626">
        <ele>166.8</ele>
        <time>2019-06-09T07:28:47.000Z</time>
      </trkpt>
      <trkpt lat="43.30969" lon="2.21628">
        <ele>166.6</ele>
        <time>2019-06-09T07:28:48.000Z</time>
      </trkpt>
      <trkpt lat="43.30968" lon="2.2163">
        <ele>166.4</ele>
        <time>2019-06-09T07:28:49.000Z</time>
      </trkpt>
      <trkpt lat="43.30967" lon="2.21632">
        <ele>166.2</ele>
        <time>2019-06-09T07:28:50.000Z</time>
      </trkpt>
      <trkpt lat="43.30966" lon="2.21634">
        <ele>166.1</ele>
        <time>2019-06-09T07:28:51.000Z</time>
      </trkpt>
      <trkpt lat="43.30965" lon="2.21635">
        <ele>165.9</ele>
        <time>2019-06-09T07:28:52.000Z</time>
      </trkpt>
      <trkpt lat="43.30964" lon="2.21637">
        <ele>165.7</ele>
        <time>2019-06-09T07:28:53.000Z</time>
      </trkpt>
      <trkpt lat="43.30963" lon="2.21639">
        <ele>165.5</ele>
        <time>2019-06-09T07:28:54.000Z</time>
      </trkpt>
      <trkpt lat="43.30962" lon="2.21641">
        <ele>165.3</ele>
        <time>2019-06-09T07:28:55.000Z</time>
      </trkpt>
      <trkpt lat="43.30961" lon="2.21642">
        <ele>165.1</ele>
        <time>2019-06-09T07:28:56.000Z</time>
      </trkpt>
      <trkpt lat="43.3096" lon="2.21644">
        <ele>164.9</ele>
        <time>2019-06-09T07:28:57.000Z</time>
      </trkpt>
      <trkpt lat="43.30959" lon="2.21646">
        <ele>164.7</ele>
        <time>2019-06-09T07:28:58.000Z</time>
      </trkpt>
      <trkpt lat="43.30957" lon="2.21648">
        <ele>164.6</ele>
        <time>2019-06-09T07:28:59.000Z</time>
      </trkpt>
      <trkpt lat="43.30956" lon="2.21649">
        <ele>164.4</ele>
        <time>2019-06-09T07:29:00.000Z</time>
      </trkpt>
      <trkpt lat="43.30955" lon="2.21651">
        <ele>164.2</ele>
        <time>2019-06-09T07:29:01.000Z</time>
      </trkpt>
      <trkpt lat="43.30954" lon="2.21653">
        <ele>164</ele>
        <time>2019-06-09T07:29:02.000Z</time>
      </trkpt>
      <trkpt lat="43.30953" lon="2.21655">
        <ele>163.8</ele>
        <time>2019-06-09T07:29:03.000Z</time>
      </trkpt>
      <trkpt lat="43.30951" lon="2.21657">
        <ele>163.7</ele>
        <time>2019-06-09T07:29:04.000Z</time>
      </trkpt>
      <trkpt lat="43.3095" lon="2.21658">
        <ele>163.5</ele>
        <time>2019-06-09T07:29:05.000Z</time>
      </trkpt>
      <trkpt lat="43.30949" lon="2.2166">
        <ele>163.3</ele>
        <time>2019-06-09T07:29:06.000Z</time>
      </trkpt>
      <trkpt lat="43.30947" lon="2.21662">
        <ele>163.1</ele>
        <time>2019-06-09T07:29:07.000Z</time>
      </trkpt>
      <trkpt lat="43.30946" lon="2.21664">
        <ele>163</ele>
        <time>2019-06-09T07:29:08.000Z</time>
      </trkpt>
      <trkpt lat="43.30944" lon="2.21665">
        <ele>162.8</ele>
        <time>2019-06-09T07:29:09.000Z</time>
      </trkpt>
      <trkpt lat="43.30942" lon="2.21667">
        <ele>162.7</ele>
        <time>2019-06-09T07:29:10.000Z</time>
      </trkpt>
      <trkpt lat="43.30941" lon="2.21669">
        <ele>162.6</ele>
        <time>2019-06-09T07:29:11.000Z</time>
      </trkpt>
      <trkpt lat="43.30939" lon="2.2167">
        <ele>162.6</ele>
        <time>2019-06-09T07:29:12.000Z</time>
      </trkpt>
      <trkpt lat="43.30937" lon="2.21672">
        <ele>162.5</ele>
        <time>2019-06-09T07:29:13.000Z</time>
      </trkpt>
      <trkpt lat="43.30935" lon="2.21674">
        <ele>162.4</ele>
        <time>2019-06-09T07:29:14.000Z</time>
      </trkpt>
      <trkpt lat="43.30933" lon="2.21675">
        <ele>162.3</ele>
        <time>2019-06-09T07:29:15.000Z</time>
      </trkpt>
      <trkpt lat="43.30932" lon="2.21677">
        <ele>162.3</ele>
        <time>2019-06-09T07:29:16.000Z</time>
      </trkpt>
      <trkpt lat="43.3093" lon="2.21678">
        <ele>162.2</ele>
        <time>2019-06-09T07:29:17.000Z</time>
      </trkpt>
      <trkpt lat="43.30928" lon="2.2168">
        <ele>162.1</ele>
        <time>2019-06-09T07:29:18.000Z</time>
      </trkpt>
      <trkpt lat="43.30926" lon="2.21681">
        <ele>162</ele>
        <time>2019-06-09T07:29:19.000Z</time>
      </trkpt>
      <trkpt lat="43.30924" lon="2.21682">
        <ele>161.9</ele>
        <time>2019-06-09T07:29:20.000Z</time>
      </trkpt>
      <trkpt lat="43.30922" lon="2.21683">
        <ele>161.8</ele>
        <time>2019-06-09T07:29:21.000Z</time>
      </trkpt>
      <trkpt lat="43.3092" lon="2.21685">
        <ele>161.7</ele>
        <time>2019-06-09T07:29:22.000Z</time>
      </trkpt>
      <trkpt lat="43.30918" lon="2.21686">
        <ele>161.6</ele>
        <time>2019-06-09T07:29:23.000Z</time>
      </trkpt>
      <trkpt lat="43.30916" lon="2.21687">
        <ele>161.5</ele>
        <time>2019-06-09T07:29:24.000Z</time>
      </trkpt>
      <trkpt lat="43.30914" lon="2.21688">
        <ele>161.4</ele>
        <time>2019-06-09T07:29:25.000Z</time>
      </trkpt>
      <trkpt lat="43.30912" lon="2.2169">
        <ele>161.3</ele>
        <time>2019-06-09T07:29:26.000Z</time>
      </trkpt>
      <trkpt lat="43.3091" lon="2.21691">
        <ele>161.1</ele>
        <time>2019-06-09T07:29:27.000Z</time>
      </trkpt>
      <trkpt lat="43.30908" lon="2.21692">
        <ele>161</ele>
        <time>2019-06-09T07:29:28.000Z</time>
      </trkpt>
      <trkpt lat="43.30906" lon="2.21694">
        <ele>160.9</ele>
        <time>2019-06-09T07:29:29.000Z</time>
      </trkpt>
      <trkpt lat="43.30904" lon="2.21695">
        <ele>160.7</ele>
        <time>2019-06-09T07:29:30.000Z</time>
      </trkpt>
      <trkpt lat="43.30902" lon="2.21697">
        <ele>160.6</ele>
        <time>2019-06-09T07:29:31.000Z</time>
      </trkpt>
      <trkpt lat="43.309" lon="2.21698">
        <ele>160.5</ele>
        <time>2019-06-09T07:29:32.000Z</time>
      </trkpt>
      <trkpt lat="43.30898" lon="2.217">
        <ele>160.4</ele>
        <time>2019-06-09T07:29:33.000Z</time>
      </trkpt>
      <trkpt lat="43.30896" lon="2.21701">
        <ele>160.3</ele>
        <time>2019-06-09T07:29:34.000Z</time>
      </trkpt>
      <trkpt lat="43.30894" lon="2.21702">
        <ele>160.1</ele>
        <time>2019-06-09T07:29:35.000Z</time>
      </trkpt>
      <trkpt lat="43.30892" lon="2.21703">
        <ele>160</ele>
        <time>2019-06-09T07:29:36.000Z</time>
      </trkpt>
      <trkpt lat="43.30889" lon="2.21704">
        <ele>160</ele>
        <time>2019-06-09T07:29:37.000Z</time>
      </trkpt>
      <trkpt lat="43.30887" lon="2.21705">
        <ele>159.9</ele>
        <time>2019-06-09T07:29:38.000Z</time>
      </trkpt>
      <trkpt lat="43.30885" lon="2.21705">
        <ele>159.8</ele>
        <time>2019-06-09T07:29:39.000Z</time>
      </trkpt>
      <trkpt lat="43.30883" lon="2.21706">
        <ele>159.8</ele>
        <time>2019-06-09T07:29:40.000Z</time>
      </trkpt>
      <trkpt lat="43.30881" lon="2.21706">
        <ele>159.7</ele>
        <time>2019-06-09T07:29:41.000Z</time>
      </trkpt>
      <trkpt lat="43.3088" lon="2.21706">
        <ele>159.7</ele>
        <time>2019-06-09T07:29:42.000Z</time>
      </trkpt>
      <trkpt lat="43.30879" lon="2.21707">
        <ele>159.7</ele>
        <time>2019-06-09T07:29:43.000Z</time>
      </trkpt>
      <trkpt lat="43.30878" lon="2.21707">
        <ele>159.6</ele>
        <time>2019-06-09T07:29:44.000Z</time>
      </trkpt>
      <trkpt lat="43.30877" lon="2.21707">
        <ele>159.6</ele>
        <time>2019-06-09T07:29:45.000Z</time>
      </trkpt>
      <trkpt lat="43.30877" lon="2.21707">
        <ele>159.6</ele>
        <time>2019-06-09T07:29:46.000Z</time>
      </trkpt>
      <trkpt lat="43.30877" lon="2.21707">
        <ele>159.6</ele>
        <time>2019-06-09T07:29:47.000Z</time>
      </trkpt>
      <trkpt lat="43.30877" lon="2.21707">
        <ele>159.6</ele>
        <time>2019-06-09T07:29:48.000Z</time>
      </trkpt>
      <trkpt lat="43.30877" lon="2.21707">
        <ele>159.6</ele>
        <time>2019-06-09T07:29:49.000Z</time>
      </trkpt>
      <trkpt lat="43.30878" lon="2.21708">
        <ele>159.6</ele>
        <time>2019-06-09T07:29:50.000Z</time>
      </trkpt>
      <trkpt lat="43.30878" lon="2.21708">
        <ele>159.5</ele>
        <time>2019-06-09T07:29:51.000Z</time>
      </trkpt>
      <trkpt lat="43.30879" lon="2.21709">
        <ele>159.5</ele>
        <time>2019-06-09T07:29:52.000Z</time>
      </trkpt>
      <trkpt lat="43.3088" lon="2.2171">
        <ele>159.5</ele>
        <time>2019-06-09T07:29:53.000Z</time>
      </trkpt>
      <trkpt lat="43.3088" lon="2.2171">
        <ele>159.4</ele>
        <time>2019-06-09T07:29:54.000Z</time>
      </trkpt>
      <trkpt lat="43.3088" lon="2.21711">
        <ele>159.4</ele>
        <time>2019-06-09T07:29:55.000Z</time>
      </trkpt>
      <trkpt lat="43.30881" lon="2.21711">
        <ele>159.4</ele>
        <time>2019-06-09T07:29:56.000Z</time>
      </trkpt>
      <trkpt lat="43.3088" lon="2.21711">
        <ele>159.4</ele>
        <time>2019-06-09T07:29:57.000Z</time>
      </trkpt>
      <trkpt lat="43.3088" lon="2.21711">
        <ele>159.4</ele>
        <time>2019-06-09T07:29:58.000Z</time>
      </trkpt>
      <trkpt lat="43.30878" lon="2.2171">
        <ele>159.4</ele>
        <time>2019-06-09T07:29:59.000Z</time>
      </trkpt>
      <trkpt lat="43.30877" lon="2.2171">
        <ele>159.4</ele>
        <time>2019-06-09T07:30:00.000Z</time>
      </trkpt>
      <trkpt lat="43.30875" lon="2.21709">
        <ele>159.4</ele>
        <time>2019-06-09T07:30:01.000Z</time>
      </trkpt>
      <trkpt lat="43.30873" lon="2.21709">
        <ele>159.4</ele>
        <time>2019-06-09T07:30:02.000Z</time>
      </trkpt>
      <trkpt lat="43.30871" lon="2.21709">
        <ele>159.4</ele>
        <time>2019-06-09T07:30:03.000Z</time>
      </trkpt>
      <trkpt lat="43.30869" lon="2.21709">
        <ele>159.4</ele>
        <time>2019-06-09T07:30:04.000Z</time>
      </trkpt>
      <trkpt lat="43.30867" lon="2.21709">
        <ele>159.4</ele>
        <time>2019-06-09T07:30:05.000Z</time>
      </trkpt>
      <trkpt lat="43.30866" lon="2.2171">
        <ele>159.3</ele>
        <time>2019-06-09T07:30:06.000Z</time>
      </trkpt>
      <trkpt lat="43.30864" lon="2.21711">
        <ele>159.2</ele>
        <time>2019-06-09T07:30:07.000Z</time>
      </trkpt>
      <trkpt lat="43.30862" lon="2.21712">
        <ele>159.1</ele>
        <time>2019-06-09T07:30:08.000Z</time>
      </trkpt>
      <trkpt lat="43.3086" lon="2.21713">
        <ele>159.1</ele>
        <time>2019-06-09T07:30:09.000Z</time>
      </trkpt>
      <trkpt lat="43.30858" lon="2.21714">
        <ele>159</ele>
        <time>2019-06-09T07:30:10.000Z</time>
      </trkpt>
      <trkpt lat="43.30855" lon="2.21714">
        <ele>158.9</ele>
        <time>2019-06-09T07:30:11.000Z</time>
      </trkpt>
      <trkpt lat="43.30853" lon="2.21715">
        <ele>158.9</ele>
        <time>2019-06-09T07:30:12.000Z</time>
      </trkpt>
      <trkpt lat="43.30851" lon="2.21715">
        <ele>158.9</ele>
        <time>2019-06-09T07:30:13.000Z</time>
      </trkpt>
      <trkpt lat="43.30848" lon="2.21715">
        <ele>158.8</ele>
        <time>2019-06-09T07:30:14.000Z</time>
      </trkpt>
      <trkpt lat="43.30846" lon="2.21716">
        <ele>158.8</ele>
        <time>2019-06-09T07:30:15.000Z</time>
      </trkpt>
      <trkpt lat="43.30844" lon="2.21716">
        <ele>158.7</ele>
        <time>2019-06-09T07:30:16.000Z</time>
      </trkpt>
      <trkpt lat="43.30841" lon="2.21717">
        <ele>158.7</ele>
        <time>2019-06-09T07:30:17.000Z</time>
      </trkpt>
      <trkpt lat="43.30839" lon="2.21717">
        <ele>158.6</ele>
        <time>2019-06-09T07:30:18.000Z</time>
      </trkpt>
      <trkpt lat="43.30837" lon="2.21717">
        <ele>158.6</ele>
        <time>2019-06-09T07:30:19.000Z</time>
      </trkpt>
      <trkpt lat="43.30834" lon="2.21717">
        <ele>158.6</ele>
        <time>2019-06-09T07:30:20.000Z</time>
      </trkpt>
      <trkpt lat="43.30832" lon="2.21717">
        <ele>158.5</ele>
        <time>2019-06-09T07:30:21.000Z</time>
      </trkpt>
      <trkpt lat="43.3083" lon="2.21717">
        <ele>158.3</ele>
        <time>2019-06-09T07:30:22.000Z</time>
      </trkpt>
      <trkpt lat="43.30828" lon="2.21717">
        <ele>158.1</ele>
        <time>2019-06-09T07:30:23.000Z</time>
      </trkpt>
      <trkpt lat="43.30825" lon="2.21716">
        <ele>157.9</ele>
        <time>2019-06-09T07:30:24.000Z</time>
      </trkpt>
      <trkpt lat="43.30823" lon="2.21716">
        <ele>157.7</ele>
        <time>2019-06-09T07:30:25.000Z</time>
      </trkpt>
      <trkpt lat="43.30821" lon="2.21715">
        <ele>157.6</ele>
        <time>2019-06-09T07:30:26.000Z</time>
      </trkpt>
      <trkpt lat="43.30818" lon="2.21715">
        <ele>157.4</ele>
        <time>2019-06-09T07:30:27.000Z</time>
      </trkpt>
      <trkpt lat="43.30816" lon="2.21715">
        <ele>157.2</ele>
        <time>2019-06-09T07:30:28.000Z</time>
      </trkpt>
      <trkpt lat="43.30813" lon="2.21714">
        <ele>157</ele>
        <time>2019-06-09T07:30:29.000Z</time>
      </trkpt>
      <trkpt lat="43.30811" lon="2.21714">
        <ele>156.8</ele>
        <time>2019-06-09T07:30:30.000Z</time>
      </trkpt>
      <trkpt lat="43.30808" lon="2.21713">
        <ele>156.6</ele>
        <time>2019-06-09T07:30:31.000Z</time>
      </trkpt>
      <trkpt lat="43.30806" lon="2.21712">
        <ele>156.4</ele>
        <time>2019-06-09T07:30:32.000Z</time>
      </trkpt>
      <trkpt lat="43.30803" lon="2.21712">
        <ele>156.2</ele>
        <time>2019-06-09T07:30:33.000Z</time>
      </trkpt>
      <trkpt lat="43.30801" lon="2.21711">
        <ele>156</ele>
        <time>2019-06-09T07:30:34.000Z</time>
      </trkpt>
      <trkpt lat="43.30798" lon="2.2171">
        <ele>155.8</ele>
        <time>2019-06-09T07:30:35.000Z</time>
      </trkpt>
      <trkpt lat="43.30796" lon="2.21709">
        <ele>155.6</ele>
        <time>2019-06-09T07:30:36.000Z</time>
      </trkpt>
      <trkpt lat="43.30793" lon="2.21707">
        <ele>155.4</ele>
        <time>2019-06-09T07:30:37.000Z</time>
      </trkpt>
      <trkpt lat="43.30791" lon="2.21706">
        <ele>155.3</ele>
        <time>2019-06-09T07:30:38.000Z</time>
      </trkpt>
      <trkpt lat="43.30789" lon="2.21705">
        <ele>155.1</ele>
        <time>2019-06-09T07:30:39.000Z</time>
      </trkpt>
      <trkpt lat="43.30787" lon="2.21704">
        <ele>155</ele>
        <time>2019-06-09T07:30:40.000Z</time>
      </trkpt>
      <trkpt lat="43.30786" lon="2.21703">
        <ele>154.8</ele>
        <time>2019-06-09T07:30:41.000Z</time>
      </trkpt>
      <trkpt lat="43.30784" lon="2.21703">
        <ele>154.7</ele>
        <time>2019-06-09T07:30:42.000Z</time>
      </trkpt>
      <trkpt lat="43.30783" lon="2.21703">
        <ele>154.6</ele>
        <time>2019-06-09T07:30:43.000Z</time>
      </trkpt>
      <trkpt lat="43.30782" lon="2.21702">
        <ele>154.5</ele>
        <time>2019-06-09T07:30:44.000Z</time>
      </trkpt>
      <trkpt lat="43.3078" lon="2.21702">
        <ele>154.4</ele>
        <time>2019-06-09T07:30:45.000Z</time>
      </trkpt>
      <trkpt lat="43.30779" lon="2.21702">
        <ele>154.3</ele>
        <time>2019-06-09T07:30:46.000Z</time>
      </trkpt>
      <trkpt lat="43.30778" lon="2.21702">
        <ele>154.1</ele>
        <time>2019-06-09T07:30:47.000Z</time>
      </trkpt>
      <trkpt lat="43.30776" lon="2.21702">
        <ele>154</ele>
        <time>2019-06-09T07:30:48.000Z</time>
      </trkpt>
      <trkpt lat="43.30775" lon="2.21701">
        <ele>153.9</ele>
        <time>2019-06-09T07:30:49.000Z</time>
      </trkpt>
      <trkpt lat="43.30773" lon="2.217">
        <ele>153.8</ele>
        <time>2019-06-09T07:30:50.000Z</time>
      </trkpt>
      <trkpt lat="43.30771" lon="2.21699">
        <ele>153.6</ele>
        <time>2019-06-09T07:30:51.000Z</time>
      </trkpt>
      <trkpt lat="43.30769" lon="2.21697">
        <ele>153.4</ele>
        <time>2019-06-09T07:30:52.000Z</time>
      </trkpt>
      <trkpt lat="43.30767" lon="2.21696">
        <ele>153.3</ele>
        <time>2019-06-09T07:30:53.000Z</time>
      </trkpt>
      <trkpt lat="43.30765" lon="2.21694">
        <ele>153.1</ele>
        <time>2019-06-09T07:30:54.000Z</time>
      </trkpt>
      <trkpt lat="43.30764" lon="2.21692">
        <ele>153</ele>
        <time>2019-06-09T07:30:55.000Z</time>
      </trkpt>
      <trkpt lat="43.30762" lon="2.21691">
        <ele>152.9</ele>
        <time>2019-06-09T07:30:56.000Z</time>
      </trkpt>
      <trkpt lat="43.30761" lon="2.21689">
        <ele>152.8</ele>
        <time>2019-06-09T07:30:57.000Z</time>
      </trkpt>
      <trkpt lat="43.30759" lon="2.21688">
        <ele>152.6</ele>
        <time>2019-06-09T07:30:58.000Z</time>
      </trkpt>
      <trkpt lat="43.30757" lon="2.21689">
        <ele>152.4</ele>
        <time>2019-06-09T07:30:59.000Z</time>
      </trkpt>
      <trkpt lat="43.30755" lon="2.2169">
        <ele>152.2</ele>
        <time>2019-06-09T07:31:00.000Z</time>
      </trkpt>
      <trkpt lat="43.30753" lon="2.21692">
        <ele>152</ele>
        <time>2019-06-09T07:31:01.000Z</time>
      </trkpt>
      <trkpt lat="43.30751" lon="2.21694">
        <ele>151.8</ele>
        <time>2019-06-09T07:31:02.000Z</time>
      </trkpt>
      <trkpt lat="43.30749" lon="2.21695">
        <ele>151.6</ele>
        <time>2019-06-09T07:31:03.000Z</time>
      </trkpt>
      <trkpt lat="43.30747" lon="2.21696">
        <ele>151.6</ele>
        <time>2019-06-09T07:31:04.000Z</time>
      </trkpt>
      <trkpt lat="43.30745" lon="2.21696">
        <ele>151.5</ele>
        <time>2019-06-09T07:31:05.000Z</time>
      </trkpt>
      <trkpt lat="43.30744" lon="2.21696">
        <ele>151.4</ele>
        <time>2019-06-09T07:31:06.000Z</time>
      </trkpt>
      <trkpt lat="43.30742" lon="2.21695">
        <ele>151.4</ele>
        <time>2019-06-09T07:31:07.000Z</time>
      </trkpt>
      <trkpt lat="43.30739" lon="2.21694">
        <ele>151.3</ele>
        <time>2019-06-09T07:31:08.000Z</time>
      </trkpt>
      <trkpt lat="43.30737" lon="2.21692">
        <ele>151.2</ele>
        <time>2019-06-09T07:31:09.000Z</time>
      </trkpt>
      <trkpt lat="43.30735" lon="2.2169">
        <ele>151.2</ele>
        <time>2019-06-09T07:31:10.000Z</time>
      </trkpt>
      <trkpt lat="43.30733" lon="2.21688">
        <ele>151.1</ele>
        <time>2019-06-09T07:31:11.000Z</time>
      </trkpt>
      <trkpt lat="43.30731" lon="2.21686">
        <ele>151</ele>
        <time>2019-06-09T07:31:12.000Z</time>
      </trkpt>
      <trkpt lat="43.30729" lon="2.21683">
        <ele>150.9</ele>
        <time>2019-06-09T07:31:13.000Z</time>
      </trkpt>
      <trkpt lat="43.30726" lon="2.21681">
        <ele>150.8</ele>
        <time>2019-06-09T07:31:14.000Z</time>
      </trkpt>
      <trkpt lat="43.30724" lon="2.21678">
        <ele>150.8</ele>
        <time>2019-06-09T07:31:15.000Z</time>
      </trkpt>
      <trkpt lat="43.30722" lon="2.21676">
        <ele>150.7</ele>
        <time>2019-06-09T07:31:16.000Z</time>
      </trkpt>
      <trkpt lat="43.3072" lon="2.21674">
        <ele>150.6</ele>
        <time>2019-06-09T07:31:17.000Z</time>
      </trkpt>
      <trkpt lat="43.30718" lon="2.21672">
        <ele>150.5</ele>
        <time>2019-06-09T07:31:18.000Z</time>
      </trkpt>
      <trkpt lat="43.30717" lon="2.2167">
        <ele>150.4</ele>
        <time>2019-06-09T07:31:19.000Z</time>
      </trkpt>
      <trkpt lat="43.30715" lon="2.21668">
        <ele>150.3</ele>
        <time>2019-06-09T07:31:20.000Z</time>
      </trkpt>
      <trkpt lat="43.30713" lon="2.21666">
        <ele>150.3</ele>
        <time>2019-06-09T07:31:21.000Z</time>
      </trkpt>
      <trkpt lat="43.30711" lon="2.21664">
        <ele>150.3</ele>
        <time>2019-06-09T07:31:22.000Z</time>
      </trkpt>
      <trkpt lat="43.30709" lon="2.21662">
        <ele>150.3</ele>
        <time>2019-06-09T07:31:23.000Z</time>
      </trkpt>
      <trkpt lat="43.30707" lon="2.2166">
        <ele>150.4</ele>
        <time>2019-06-09T07:31:24.000Z</time>
      </trkpt>
      <trkpt lat="43.30705" lon="2.21658">
        <ele>150.4</ele>
        <time>2019-06-09T07:31:25.000Z</time>
      </trkpt>
      <trkpt lat="43.30704" lon="2.21655">
        <ele>150.4</ele>
        <time>2019-06-09T07:31:26.000Z</time>
      </trkpt>
      <trkpt lat="43.30702" lon="2.21653">
        <ele>150.5</ele>
        <time>2019-06-09T07:31:27.000Z</time>
      </trkpt>
      <trkpt lat="43.307" lon="2.21651">
        <ele>150.5</ele>
        <time>2019-06-09T07:31:28.000Z</time>
      </trkpt>
      <trkpt lat="43.30698" lon="2.21649">
        <ele>150.5</ele>
        <time>2019-06-09T07:31:29.000Z</time>
      </trkpt>
      <trkpt lat="43.30696" lon="2.21647">
        <ele>150.5</ele>
        <time>2019-06-09T07:31:30.000Z</time>
      </trkpt>
      <trkpt lat="43.30694" lon="2.21645">
        <ele>150.5</ele>
        <time>2019-06-09T07:31:31.000Z</time>
      </trkpt>
      <trkpt lat="43.30692" lon="2.21643">
        <ele>150.5</ele>
        <time>2019-06-09T07:31:32.000Z</time>
      </trkpt>
      <trkpt lat="43.3069" lon="2.21641">
        <ele>150.5</ele>
        <time>2019-06-09T07:31:33.000Z</time>
      </trkpt>
      <trkpt lat="43.30688" lon="2.21639">
        <ele>150.5</ele>
        <time>2019-06-09T07:31:34.000Z</time>
      </trkpt>
      <trkpt lat="43.30686" lon="2.21637">
        <ele>150.5</ele>
        <time>2019-06-09T07:31:35.000Z</time>
      </trkpt>
      <trkpt lat="43.30684" lon="2.21635">
        <ele>150.5</ele>
        <time>2019-06-09T07:31:36.000Z</time>
      </trkpt>
      <trkpt lat="43.30682" lon="2.21633">
        <ele>150.5</ele>
        <time>2019-06-09T07:31:37.000Z</time>
      </trkpt>
      <trkpt lat="43.3068" lon="2.21631">
        <ele>150.5</ele>
        <time>2019-06-09T07:31:38.000Z</time>
      </trkpt>
      <trkpt lat="43.30679" lon="2.21629">
        <ele>150.5</ele>
        <time>2019-06-09T07:31:39.000Z</time>
      </trkpt>
      <trkpt lat="43.30677" lon="2.21627">
        <ele>150.5</ele>
        <time>2019-06-09T07:31:40.000Z</time>
      </trkpt>
      <trkpt lat="43.30675" lon="2.21626">
        <ele>150.5</ele>
        <time>2019-06-09T07:31:41.000Z</time>
      </trkpt>
      <trkpt lat="43.30674" lon="2.21624">
        <ele>150.5</ele>
        <time>2019-06-09T07:31:42.000Z</time>
      </trkpt>
      <trkpt lat="43.30673" lon="2.21623">
        <ele>150.5</ele>
        <time>2019-06-09T07:31:43.000Z</time>
      </trkpt>
      <trkpt lat="43.30672" lon="2.21622">
        <ele>150.4</ele>
        <time>2019-06-09T07:31:44.000Z</time>
      </trkpt>
      <trkpt lat="43.3067" lon="2.21621">
        <ele>150.4</ele>
        <time>2019-06-09T07:31:45.000Z</time>
      </trkpt>
      <trkpt lat="43.30669" lon="2.2162">
        <ele>150.4</ele>
        <time>2019-06-09T07:31:46.000Z</time>
      </trkpt>
      <trkpt lat="43.30668" lon="2.2162">
        <ele>150.3</ele>
        <time>2019-06-09T07:31:47.000Z</time>
      </trkpt>
      <trkpt lat="43.30666" lon="2.21621">
        <ele>150.2</ele>
        <time>2019-06-09T07:31:48.000Z</time>
      </trkpt>
      <trkpt lat="43.30664" lon="2.21622">
        <ele>150</ele>
        <time>2019-06-09T07:31:49.000Z</time>
      </trkpt>
      <trkpt lat="43.30662" lon="2.21623">
        <ele>149.9</ele>
        <time>2019-06-09T07:31:50.000Z</time>
      </trkpt>
      <trkpt lat="43.3066" lon="2.21625">
        <ele>149.7</ele>
        <time>2019-06-09T07:31:51.000Z</time>
      </trkpt>
      <trkpt lat="43.30658" lon="2.21627">
        <ele>149.6</ele>
        <time>2019-06-09T07:31:52.000Z</time>
      </trkpt>
      <trkpt lat="43.30657" lon="2.21629">
        <ele>149.4</ele>
        <time>2019-06-09T07:31:53.000Z</time>
      </trkpt>
      <trkpt lat="43.30655" lon="2.2163">
        <ele>149.3</ele>
        <time>2019-06-09T07:31:54.000Z</time>
      </trkpt>
      <trkpt lat="43.30654" lon="2.21631">
        <ele>149.2</ele>
        <time>2019-06-09T07:31:55.000Z</time>
      </trkpt>
      <trkpt lat="43.30653" lon="2.21632">
        <ele>149.1</ele>
        <time>2019-06-09T07:31:56.000Z</time>
      </trkpt>
      <trkpt lat="43.30653" lon="2.21633">
        <ele>149</ele>
        <time>2019-06-09T07:31:57.000Z</time>
      </trkpt>
      <trkpt lat="43.30652" lon="2.21633">
        <ele>149</ele>
        <time>2019-06-09T07:31:58.000Z</time>
      </trkpt>
      <trkpt lat="43.30651" lon="2.21634">
        <ele>148.9</ele>
        <time>2019-06-09T07:31:59.000Z</time>
      </trkpt>
      <trkpt lat="43.3065" lon="2.21635">
        <ele>148.9</ele>
        <time>2019-06-09T07:32:00.000Z</time>
      </trkpt>
      <trkpt lat="43.3065" lon="2.21636">
        <ele>148.8</ele>
        <time>2019-06-09T07:32:01.000Z</time>
      </trkpt>
      <trkpt lat="43.30649" lon="2.21637">
        <ele>148.7</ele>
        <time>2019-06-09T07:32:02.000Z</time>
      </trkpt>
      <trkpt lat="43.30648" lon="2.21638">
        <ele>148.6</ele>
        <time>2019-06-09T07:32:03.000Z</time>
      </trkpt>
      <trkpt lat="43.30647" lon="2.21639">
        <ele>148.6</ele>
        <time>2019-06-09T07:32:04.000Z</time>
      </trkpt>
      <trkpt lat="43.30646" lon="2.21639">
        <ele>148.5</ele>
        <time>2019-06-09T07:32:05.000Z</time>
      </trkpt>
      <trkpt lat="43.30645" lon="2.2164">
        <ele>148.4</ele>
        <time>2019-06-09T07:32:06.000Z</time>
      </trkpt>
      <trkpt lat="43.30644" lon="2.2164">
        <ele>148.4</ele>
        <time>2019-06-09T07:32:07.000Z</time>
      </trkpt>
      <trkpt lat="43.30643" lon="2.2164">
        <ele>148.3</ele>
        <time>2019-06-09T07:32:08.000Z</time>
      </trkpt>
      <trkpt lat="43.30641" lon="2.2164">
        <ele>148.3</ele>
        <time>2019-06-09T07:32:09.000Z</time>
      </trkpt>
      <trkpt lat="43.3064" lon="2.21639">
        <ele>148.3</ele>
        <time>2019-06-09T07:32:10.000Z</time>
      </trkpt>
      <trkpt lat="43.30639" lon="2.21639">
        <ele>148.2</ele>
        <time>2019-06-09T07:32:11.000Z</time>
      </trkpt>
      <trkpt lat="43.30638" lon="2.21638">
        <ele>148.2</ele>
        <time>2019-06-09T07:32:12.000Z</time>
      </trkpt>
      <trkpt lat="43.30637" lon="2.21637">
        <ele>148.2</ele>
        <time>2019-06-09T07:32:13.000Z</time>
      </trkpt>
      <trkpt lat="43.30635" lon="2.21635">
        <ele>148.2</ele>
        <time>2019-06-09T07:32:14.000Z</time>
      </trkpt>
      <trkpt lat="43.30634" lon="2.21634">
        <ele>148.2</ele>
        <time>2019-06-09T07:32:15.000Z</time>
      </trkpt>
      <trkpt lat="43.30632" lon="2.21632">
        <ele>148.2</ele>
        <time>2019-06-09T07:32:16.000Z</time>
      </trkpt>
      <trkpt lat="43.30631" lon="2.21631">
        <ele>148.2</ele>
        <time>2019-06-09T07:32:17.000Z</time>
      </trkpt>
      <trkpt lat="43.30629" lon="2.21629">
        <ele>148.2</ele>
        <time>2019-06-09T07:32:18.000Z</time>
      </trkpt>
      <trkpt lat="43.30627" lon="2.21628">
        <ele>148.2</ele>
        <time>2019-06-09T07:32:19.000Z</time>
      </trkpt>
      <trkpt lat="43.30625" lon="2.21626">
        <ele>148.2</ele>
        <time>2019-06-09T07:32:20.000Z</time>
      </trkpt>
      <trkpt lat="43.30624" lon="2.21624">
        <ele>148.2</ele>
        <time>2019-06-09T07:32:21.000Z</time>
      </trkpt>
      <trkpt lat="43.30622" lon="2.21623">
        <ele>148.2</ele>
        <time>2019-06-09T07:32:22.000Z</time>
      </trkpt>
      <trkpt lat="43.3062" lon="2.21621">
        <ele>148.2</ele>
        <time>2019-06-09T07:32:23.000Z</time>
      </trkpt>
      <trkpt lat="43.30618" lon="2.21619">
        <ele>148.2</ele>
        <time>2019-06-09T07:32:24.000Z</time>
      </trkpt>
      <trkpt lat="43.30616" lon="2.21618">
        <ele>148.2</ele>
        <time>2019-06-09T07:32:25.000Z</time>
      </trkpt>
      <trkpt lat="43.30614" lon="2.21616">
        <ele>148.1</ele>
        <time>2019-06-09T07:32:26.000Z</time>
      </trkpt>
      <trkpt lat="43.30612" lon="2.21615">
        <ele>148.1</ele>
        <time>2019-06-09T07:32:27.000Z</time>
      </trkpt>
      <trkpt lat="43.3061" lon="2.21613">
        <ele>148.1</ele>
        <time>2019-06-09T07:32:28.000Z</time>
      </trkpt>
      <trkpt lat="43.30608" lon="2.21612">
        <ele>148.1</ele>
        <time>2019-06-09T07:32:29.000Z</time>
      </trkpt>
      <trkpt lat="43.30606" lon="2.21611">
        <ele>148</ele>
        <time>2019-06-09T07:32:30.000Z</time>
      </trkpt>
      <trkpt lat="43.30604" lon="2.2161">
        <ele>148</ele>
        <time>2019-06-09T07:32:31.000Z</time>
      </trkpt>
      <trkpt lat="43.30602" lon="2.21608">
        <ele>147.9</ele>
        <time>2019-06-09T07:32:32.000Z</time>
      </trkpt>
      <trkpt lat="43.306" lon="2.21607">
        <ele>147.9</ele>
        <time>2019-06-09T07:32:33.000Z</time>
      </trkpt>
      <trkpt lat="43.30598" lon="2.21606">
        <ele>147.8</ele>
        <time>2019-06-09T07:32:34.000Z</time>
      </trkpt>
      <trkpt lat="43.30596" lon="2.21606">
        <ele>147.8</ele>
        <time>2019-06-09T07:32:35.000Z</time>
      </trkpt>
      <trkpt lat="43.30593" lon="2.21605">
        <ele>147.7</ele>
        <time>2019-06-09T07:32:36.000Z</time>
      </trkpt>
      <trkpt lat="43.30591" lon="2.21604">
        <ele>147.6</ele>
        <time>2019-06-09T07:32:37.000Z</time>
      </trkpt>
      <trkpt lat="43.30589" lon="2.21603">
        <ele>147.5</ele>
        <time>2019-06-09T07:32:38.000Z</time>
      </trkpt>
      <trkpt lat="43.30587" lon="2.21603">
        <ele>147.5</ele>
        <time>2019-06-09T07:32:39.000Z</time>
      </trkpt>
      <trkpt lat="43.30584" lon="2.21602">
        <ele>147.4</ele>
        <time>2019-06-09T07:32:40.000Z</time>
      </trkpt>
      <trkpt lat="43.30582" lon="2.21602">
        <ele>147.3</ele>
        <time>2019-06-09T07:32:41.000Z</time>
      </trkpt>
      <trkpt lat="43.3058" lon="2.21602">
        <ele>147.4</ele>
        <time>2019-06-09T07:32:42.000Z</time>
      </trkpt>
      <trkpt lat="43.30577" lon="2.21601">
        <ele>147.4</ele>
        <time>2019-06-09T07:32:43.000Z</time>
      </trkpt>
      <trkpt lat="43.30575" lon="2.21601">
        <ele>147.4</ele>
        <time>2019-06-09T07:32:44.000Z</time>
      </trkpt>
      <trkpt lat="43.30573" lon="2.21601">
        <ele>147.5</ele>
        <time>2019-06-09T07:32:45.000Z</time>
      </trkpt>
      <trkpt lat="43.30571" lon="2.21601">
        <ele>147.5</ele>
        <time>2019-06-09T07:32:46.000Z</time>
      </trkpt>
      <trkpt lat="43.30568" lon="2.216">
        <ele>147.5</ele>
        <time>2019-06-09T07:32:47.000Z</time>
      </trkpt>
      <trkpt lat="43.30566" lon="2.216">
        <ele>147.5</ele>
        <time>2019-06-09T07:32:48.000Z</time>
      </trkpt>
      <trkpt lat="43.30564" lon="2.216">
        <ele>147.5</ele>
        <time>2019-06-09T07:32:49.000Z</time>
      </trkpt>
      <trkpt lat="43.30562" lon="2.216">
        <ele>147.6</ele>
        <time>2019-06-09T07:32:50.000Z</time>
      </trkpt>
      <trkpt lat="43.30559" lon="2.216">
        <ele>147.6</ele>
        <time>2019-06-09T07:32:51.000Z</time>
      </trkpt>
      <trkpt lat="43.30557" lon="2.216">
        <ele>147.6</ele>
        <time>2019-06-09T07:32:52.000Z</time>
      </trkpt>
      <trkpt lat="43.30555" lon="2.21599">
        <ele>147.6</ele>
        <time>2019-06-09T07:32:53.000Z</time>
      </trkpt>
      <trkpt lat="43.30553" lon="2.21599">
        <ele>147.6</ele>
        <time>2019-06-09T07:32:54.000Z</time>
      </trkpt>
      <trkpt lat="43.3055" lon="2.21599">
        <ele>147.7</ele>
        <time>2019-06-09T07:32:55.000Z</time>
      </trkpt>
      <trkpt lat="43.30548" lon="2.21599">
        <ele>147.7</ele>
        <time>2019-06-09T07:32:56.000Z</time>
      </trkpt>
      <trkpt lat="43.30546" lon="2.21598">
        <ele>147.7</ele>
        <time>2019-06-09T07:32:57.000Z</time>
      </trkpt>
      <trkpt lat="43.30543" lon="2.21598">
        <ele>147.7</ele>
        <time>2019-06-09T07:32:58.000Z</time>
      </trkpt>
      <trkpt lat="43.30541" lon="2.21598">
        <ele>147.7</ele>
        <time>2019-06-09T07:32:59.000Z</time>
      </trkpt>
      <trkpt lat="43.30539" lon="2.21597">
        <ele>147.8</ele>
        <time>2019-06-09T07:33:00.000Z</time>
      </trkpt>
      <trkpt lat="43.30536" lon="2.21596">
        <ele>147.8</ele>
        <time>2019-06-09T07:33:01.000Z</time>
      </trkpt>
      <trkpt lat="43.30534" lon="2.21595">
        <ele>147.8</ele>
        <time>2019-06-09T07:33:02.000Z</time>
      </trkpt>
      <trkpt lat="43.30532" lon="2.21594">
        <ele>147.9</ele>
        <time>2019-06-09T07:33:03.000Z</time>
      </trkpt>
      <trkpt lat="43.30529" lon="2.21593">
        <ele>147.9</ele>
        <time>2019-06-09T07:33:04.000Z</time>
      </trkpt>
      <trkpt lat="43.30527" lon="2.21592">
        <ele>147.9</ele>
        <time>2019-06-09T07:33:05.000Z</time>
      </trkpt>
      <trkpt lat="43.30525" lon="2.21591">
        <ele>147.9</ele>
        <time>2019-06-09T07:33:06.000Z</time>
      </trkpt>
      <trkpt lat="43.30523" lon="2.2159">
        <ele>147.9</ele>
        <time>2019-06-09T07:33:07.000Z</time>
      </trkpt>
      <trkpt lat="43.3052" lon="2.21589">
        <ele>147.9</ele>
        <time>2019-06-09T07:33:08.000Z</time>
      </trkpt>
      <trkpt lat="43.30518" lon="2.21589">
        <ele>148</ele>
        <time>2019-06-09T07:33:09.000Z</time>
      </trkpt>
      <trkpt lat="43.30516" lon="2.21589">
        <ele>148</ele>
        <time>2019-06-09T07:33:10.000Z</time>
      </trkpt>
      <trkpt lat="43.30513" lon="2.21589">
        <ele>148</ele>
        <time>2019-06-09T07:33:11.000Z</time>
      </trkpt>
      <trkpt lat="43.30511" lon="2.21589">
        <ele>148</ele>
        <time>2019-06-09T07:33:12.000Z</time>
      </trkpt>
      <trkpt lat="43.30509" lon="2.21589">
        <ele>148</ele>
        <time>2019-06-09T07:33:13.000Z</time>
      </trkpt>
      <trkpt lat="43.30506" lon="2.2159">
        <ele>148</ele>
        <time>2019-06-09T07:33:14.000Z</time>
      </trkpt>
      <trkpt lat="43.30504" lon="2.2159">
        <ele>148</ele>
        <time>2019-06-09T07:33:15.000Z</time>
      </trkpt>
      <trkpt lat="43.30502" lon="2.21591">
        <ele>148</ele>
        <time>2019-06-09T07:33:16.000Z</time>
      </trkpt>
      <trkpt lat="43.305" lon="2.21591">
        <ele>148</ele>
        <time>2019-06-09T07:33:17.000Z</time>
      </trkpt>
      <trkpt lat="43.30498" lon="2.21592">
        <ele>148</ele>
        <time>2019-06-09T07:33:18.000Z</time>
      </trkpt>
      <trkpt lat="43.30496" lon="2.21592">
        <ele>148</ele>
        <time>2019-06-09T07:33:19.000Z</time>
      </trkpt>
      <trkpt lat="43.30494" lon="2.21593">
        <ele>148</ele>
        <time>2019-06-09T07:33:20.000Z</time>
      </trkpt>
      <trkpt lat="43.30492" lon="2.21593">
        <ele>148.1</ele>
        <time>2019-06-09T07:33:21.000Z</time>
      </trkpt>
      <trkpt lat="43.3049" lon="2.21594">
        <ele>148.1</ele>
        <time>2019-06-09T07:33:22.000Z</time>
      </trkpt>
      <trkpt lat="43.30488" lon="2.21595">
        <ele>148.1</ele>
        <time>2019-06-09T07:33:23.000Z</time>
      </trkpt>
      <trkpt lat="43.30486" lon="2.21595">
        <ele>148.1</ele>
        <time>2019-06-09T07:33:24.000Z</time>
      </trkpt>
      <trkpt lat="43.30484" lon="2.21596">
        <ele>148.1</ele>
        <time>2019-06-09T07:33:25.000Z</time>
      </trkpt>
      <trkpt lat="43.30482" lon="2.21597">
        <ele>148.1</ele>
        <time>2019-06-09T07:33:26.000Z</time>
      </trkpt>
      <trkpt lat="43.3048" lon="2.21599">
        <ele>148.1</ele>
        <time>2019-06-09T07:33:27.000Z</time>
      </trkpt>
      <trkpt lat="43.30478" lon="2.216">
        <ele>148.1</ele>
        <time>2019-06-09T07:33:28.000Z</time>
      </trkpt>
      <trkpt lat="43.30476" lon="2.21601">
        <ele>148.1</ele>
        <time>2019-06-09T07:33:29.000Z</time>
      </trkpt>
      <trkpt lat="43.30474" lon="2.21602">
        <ele>148.1</ele>
        <time>2019-06-09T07:33:30.000Z</time>
      </trkpt>
      <trkpt lat="43.30472" lon="2.21604">
        <ele>148.1</ele>
        <time>2019-06-09T07:33:31.000Z</time>
      </trkpt>
      <trkpt lat="43.3047" lon="2.21605">
        <ele>148.1</ele>
        <time>2019-06-09T07:33:32.000Z</time>
      </trkpt>
      <trkpt lat="43.30468" lon="2.21607">
        <ele>148.1</ele>
        <time>2019-06-09T07:33:33.000Z</time>
      </trkpt>
      <trkpt lat="43.30466" lon="2.21608">
        <ele>148</ele>
        <time>2019-06-09T07:33:34.000Z</time>
      </trkpt>
      <trkpt lat="43.30464" lon="2.2161">
        <ele>148</ele>
        <time>2019-06-09T07:33:35.000Z</time>
      </trkpt>
      <trkpt lat="43.30462" lon="2.21611">
        <ele>148</ele>
        <time>2019-06-09T07:33:36.000Z</time>
      </trkpt>
      <trkpt lat="43.3046" lon="2.21612">
        <ele>148</ele>
        <time>2019-06-09T07:33:37.000Z</time>
      </trkpt>
      <trkpt lat="43.30458" lon="2.21614">
        <ele>148</ele>
        <time>2019-06-09T07:33:38.000Z</time>
      </trkpt>
      <trkpt lat="43.30456" lon="2.21615">
        <ele>147.9</ele>
        <time>2019-06-09T07:33:39.000Z</time>
      </trkpt>
      <trkpt lat="43.30455" lon="2.21616">
        <ele>147.9</ele>
        <time>2019-06-09T07:33:40.000Z</time>
      </trkpt>
      <trkpt lat="43.30453" lon="2.21617">
        <ele>147.9</ele>
        <time>2019-06-09T07:33:41.000Z</time>
      </trkpt>
      <trkpt lat="43.30451" lon="2.21618">
        <ele>147.8</ele>
        <time>2019-06-09T07:33:42.000Z</time>
      </trkpt>
      <trkpt lat="43.3045" lon="2.2162">
        <ele>147.8</ele>
        <time>2019-06-09T07:33:43.000Z</time>
      </trkpt>
      <trkpt lat="43.30448" lon="2.21621">
        <ele>147.8</ele>
        <time>2019-06-09T07:33:44.000Z</time>
      </trkpt>
      <trkpt lat="43.30446" lon="2.21622">
        <ele>147.7</ele>
        <time>2019-06-09T07:33:45.000Z</time>
      </trkpt>
      <trkpt lat="43.30445" lon="2.21624">
        <ele>147.7</ele>
        <time>2019-06-09T07:33:46.000Z</time>
      </trkpt>
      <trkpt lat="43.30443" lon="2.21626">
        <ele>147.6</ele>
        <time>2019-06-09T07:33:47.000Z</time>
      </trkpt>
      <trkpt lat="43.30441" lon="2.21628">
        <ele>147.6</ele>
        <time>2019-06-09T07:33:48.000Z</time>
      </trkpt>
      <trkpt lat="43.30439" lon="2.2163">
        <ele>147.5</ele>
        <time>2019-06-09T07:33:49.000Z</time>
      </trkpt>
      <trkpt lat="43.30437" lon="2.21632">
        <ele>147.4</ele>
        <time>2019-06-09T07:33:50.000Z</time>
      </trkpt>
      <trkpt lat="43.30435" lon="2.21635">
        <ele>147.3</ele>
        <time>2019-06-09T07:33:51.000Z</time>
      </trkpt>
      <trkpt lat="43.30432" lon="2.21637">
        <ele>147.2</ele>
        <time>2019-06-09T07:33:52.000Z</time>
      </trkpt>
      <trkpt lat="43.3043" lon="2.21639">
        <ele>147.2</ele>
        <time>2019-06-09T07:33:53.000Z</time>
      </trkpt>
      <trkpt lat="43.30428" lon="2.21641">
        <ele>147.1</ele>
        <time>2019-06-09T07:33:54.000Z</time>
      </trkpt>
      <trkpt lat="43.30425" lon="2.21642">
        <ele>147</ele>
        <time>2019-06-09T07:33:55.000Z</time>
      </trkpt>
      <trkpt lat="43.30423" lon="2.21644">
        <ele>146.9</ele>
        <time>2019-06-09T07:33:56.000Z</time>
      </trkpt>
      <trkpt lat="43.30421" lon="2.21645">
        <ele>146.9</ele>
        <time>2019-06-09T07:33:57.000Z</time>
      </trkpt>
      <trkpt lat="43.30419" lon="2.21646">
        <ele>146.8</ele>
        <time>2019-06-09T07:33:58.000Z</time>
      </trkpt>
      <trkpt lat="43.30418" lon="2.21647">
        <ele>146.7</ele>
        <time>2019-06-09T07:33:59.000Z</time>
      </trkpt>
      <trkpt lat="43.30416" lon="2.21648">
        <ele>146.7</ele>
        <time>2019-06-09T07:34:00.000Z</time>
      </trkpt>
      <trkpt lat="43.30414" lon="2.21649">
        <ele>146.7</ele>
        <time>2019-06-09T07:34:01.000Z</time>
      </trkpt>
      <trkpt lat="43.30412" lon="2.2165">
        <ele>146.7</ele>
        <time>2019-06-09T07:34:02.000Z</time>
      </trkpt>
      <trkpt lat="43.30409" lon="2.21651">
        <ele>146.7</ele>
        <time>2019-06-09T07:34:03.000Z</time>
      </trkpt>
      <trkpt lat="43.30407" lon="2.21652">
        <ele>146.7</ele>
        <time>2019-06-09T07:34:04.000Z</time>
      </trkpt>
      <trkpt lat="43.30405" lon="2.21654">
        <ele>146.7</ele>
        <time>2019-06-09T07:34:05.000Z</time>
      </trkpt>
      <trkpt lat="43.30402" lon="2.21656">
        <ele>146.7</ele>
        <time>2019-06-09T07:34:06.000Z</time>
      </trkpt>
      <trkpt lat="43.304" lon="2.21657">
        <ele>146.7</ele>
        <time>2019-06-09T07:34:07.000Z</time>
      </trkpt>
      <trkpt lat="43.30398" lon="2.21659">
        <ele>146.7</ele>
        <time>2019-06-09T07:34:08.000Z</time>
      </trkpt>
      <trkpt lat="43.30395" lon="2.21661">
        <ele>146.7</ele>
        <time>2019-06-09T07:34:09.000Z</time>
      </trkpt>
      <trkpt lat="43.30393" lon="2.21663">
        <ele>146.7</ele>
        <time>2019-06-09T07:34:10.000Z</time>
      </trkpt>
      <trkpt lat="43.30391" lon="2.21665">
        <ele>146.7</ele>
        <time>2019-06-09T07:34:11.000Z</time>
      </trkpt>
      <trkpt lat="43.30389" lon="2.21667">
        <ele>146.7</ele>
        <time>2019-06-09T07:34:12.000Z</time>
      </trkpt>
      <trkpt lat="43.30387" lon="2.2167">
        <ele>146.8</ele>
        <time>2019-06-09T07:34:13.000Z</time>
      </trkpt>
      <trkpt lat="43.30385" lon="2.21672">
        <ele>146.9</ele>
        <time>2019-06-09T07:34:14.000Z</time>
      </trkpt>
      <trkpt lat="43.30383" lon="2.21674">
        <ele>147.1</ele>
        <time>2019-06-09T07:34:15.000Z</time>
      </trkpt>
      <trkpt lat="43.30381" lon="2.21677">
        <ele>147.2</ele>
        <time>2019-06-09T07:34:16.000Z</time>
      </trkpt>
      <trkpt lat="43.30379" lon="2.21679">
        <ele>147.2</ele>
        <time>2019-06-09T07:34:17.000Z</time>
      </trkpt>
      <trkpt lat="43.30377" lon="2.21681">
        <ele>147.3</ele>
        <time>2019-06-09T07:34:18.000Z</time>
      </trkpt>
      <trkpt lat="43.30375" lon="2.21683">
        <ele>147.4</ele>
        <time>2019-06-09T07:34:19.000Z</time>
      </trkpt>
      <trkpt lat="43.30373" lon="2.21685">
        <ele>147.5</ele>
        <time>2019-06-09T07:34:20.000Z</time>
      </trkpt>
      <trkpt lat="43.3037" lon="2.21687">
        <ele>147.5</ele>
        <time>2019-06-09T07:34:21.000Z</time>
      </trkpt>
      <trkpt lat="43.30368" lon="2.21689">
        <ele>147.6</ele>
        <time>2019-06-09T07:34:22.000Z</time>
      </trkpt>
      <trkpt lat="43.30366" lon="2.21691">
        <ele>147.6</ele>
        <time>2019-06-09T07:34:23.000Z</time>
      </trkpt>
      <trkpt lat="43.30364" lon="2.21693">
        <ele>147.6</ele>
        <time>2019-06-09T07:34:24.000Z</time>
      </trkpt>
      <trkpt lat="43.30362" lon="2.21695">
        <ele>147.7</ele>
        <time>2019-06-09T07:34:25.000Z</time>
      </trkpt>
      <trkpt lat="43.3036" lon="2.21696">
        <ele>147.7</ele>
        <time>2019-06-09T07:34:26.000Z</time>
      </trkpt>
      <trkpt lat="43.30358" lon="2.21698">
        <ele>147.7</ele>
        <time>2019-06-09T07:34:27.000Z</time>
      </trkpt>
      <trkpt lat="43.30356" lon="2.217">
        <ele>147.7</ele>
        <time>2019-06-09T07:34:28.000Z</time>
      </trkpt>
      <trkpt lat="43.30354" lon="2.21702">
        <ele>147.7</ele>
        <time>2019-06-09T07:34:29.000Z</time>
      </trkpt>
      <trkpt lat="43.30352" lon="2.21703">
        <ele>147.7</ele>
        <time>2019-06-09T07:34:30.000Z</time>
      </trkpt>
      <trkpt lat="43.30351" lon="2.21705">
        <ele>147.7</ele>
        <time>2019-06-09T07:34:31.000Z</time>
      </trkpt>
      <trkpt lat="43.30349" lon="2.21707">
        <ele>147.7</ele>
        <time>2019-06-09T07:34:32.000Z</time>
      </trkpt>
      <trkpt lat="43.30347" lon="2.21708">
        <ele>147.7</ele>
        <time>2019-06-09T07:34:33.000Z</time>
      </trkpt>
      <trkpt lat="43.30346" lon="2.2171">
        <ele>147.6</ele>
        <time>2019-06-09T07:34:34.000Z</time>
      </trkpt>
      <trkpt lat="43.30344" lon="2.21713">
        <ele>147.6</ele>
        <time>2019-06-09T07:34:35.000Z</time>
      </trkpt>
      <trkpt lat="43.30342" lon="2.21715">
        <ele>147.6</ele>
        <time>2019-06-09T07:34:36.000Z</time>
      </trkpt>
      <trkpt lat="43.3034" lon="2.21717">
        <ele>147.5</ele>
        <time>2019-06-09T07:34:37.000Z</time>
      </trkpt>
      <trkpt lat="43.30337" lon="2.2172">
        <ele>147.5</ele>
        <time>2019-06-09T07:34:38.000Z</time>
      </trkpt>
      <trkpt lat="43.30335" lon="2.21722">
        <ele>147.4</ele>
        <time>2019-06-09T07:34:39.000Z</time>
      </trkpt>
      <trkpt lat="43.30333" lon="2.21724">
        <ele>147.3</ele>
        <time>2019-06-09T07:34:40.000Z</time>
      </trkpt>
      <trkpt lat="43.3033" lon="2.21726">
        <ele>147.2</ele>
        <time>2019-06-09T07:34:41.000Z</time>
      </trkpt>
      <trkpt lat="43.30328" lon="2.21728">
        <ele>147.1</ele>
        <time>2019-06-09T07:34:42.000Z</time>
      </trkpt>
      <trkpt lat="43.30326" lon="2.2173">
        <ele>147.1</ele>
        <time>2019-06-09T07:34:43.000Z</time>
      </trkpt>
      <trkpt lat="43.30323" lon="2.21731">
        <ele>147</ele>
        <time>2019-06-09T07:34:44.000Z</time>
      </trkpt>
      <trkpt lat="43.30321" lon="2.21733">
        <ele>146.9</ele>
        <time>2019-06-09T07:34:45.000Z</time>
      </trkpt>
      <trkpt lat="43.30319" lon="2.21735">
        <ele>146.8</ele>
        <time>2019-06-09T07:34:46.000Z</time>
      </trkpt>
      <trkpt lat="43.30317" lon="2.21736">
        <ele>146.8</ele>
        <time>2019-06-09T07:34:47.000Z</time>
      </trkpt>
      <trkpt lat="43.30315" lon="2.21738">
        <ele>146.7</ele>
        <time>2019-06-09T07:34:48.000Z</time>
      </trkpt>
      <trkpt lat="43.30313" lon="2.2174">
        <ele>146.6</ele>
        <time>2019-06-09T07:34:49.000Z</time>
      </trkpt>
      <trkpt lat="43.30311" lon="2.21742">
        <ele>146.6</ele>
        <time>2019-06-09T07:34:50.000Z</time>
      </trkpt>
      <trkpt lat="43.30309" lon="2.21744">
        <ele>146.5</ele>
        <time>2019-06-09T07:34:51.000Z</time>
      </trkpt>
      <trkpt lat="43.30307" lon="2.21747">
        <ele>146.4</ele>
        <time>2019-06-09T07:34:52.000Z</time>
      </trkpt>
      <trkpt lat="43.30305" lon="2.21749">
        <ele>146.3</ele>
        <time>2019-06-09T07:34:53.000Z</time>
      </trkpt>
      <trkpt lat="43.30303" lon="2.21751">
        <ele>146.3</ele>
        <time>2019-06-09T07:34:54.000Z</time>
      </trkpt>
      <trkpt lat="43.30301" lon="2.21753">
        <ele>146.4</ele>
        <time>2019-06-09T07:34:55.000Z</time>
      </trkpt>
      <trkpt lat="43.30298" lon="2.21755">
        <ele>146.5</ele>
        <time>2019-06-09T07:34:56.000Z</time>
      </trkpt>
      <trkpt lat="43.30296" lon="2.21757">
        <ele>146.6</ele>
        <time>2019-06-09T07:34:57.000Z</time>
      </trkpt>
      <trkpt lat="43.30293" lon="2.21759">
        <ele>146.6</ele>
        <time>2019-06-09T07:34:58.000Z</time>
      </trkpt>
      <trkpt lat="43.3029" lon="2.21761">
        <ele>146.7</ele>
        <time>2019-06-09T07:34:59.000Z</time>
      </trkpt>
      <trkpt lat="43.30287" lon="2.21763">
        <ele>146.7</ele>
        <time>2019-06-09T07:35:00.000Z</time>
      </trkpt>
      <trkpt lat="43.30284" lon="2.21765">
        <ele>146.7</ele>
        <time>2019-06-09T07:35:01.000Z</time>
      </trkpt>
      <trkpt lat="43.30282" lon="2.21767">
        <ele>146.7</ele>
        <time>2019-06-09T07:35:02.000Z</time>
      </trkpt>
      <trkpt lat="43.30279" lon="2.21769">
        <ele>146.8</ele>
        <time>2019-06-09T07:35:03.000Z</time>
      </trkpt>
      <trkpt lat="43.30276" lon="2.21771">
        <ele>146.8</ele>
        <time>2019-06-09T07:35:04.000Z</time>
      </trkpt>
      <trkpt lat="43.30273" lon="2.21773">
        <ele>146.8</ele>
        <time>2019-06-09T07:35:05.000Z</time>
      </trkpt>
      <trkpt lat="43.30271" lon="2.21775">
        <ele>146.8</ele>
        <time>2019-06-09T07:35:06.000Z</time>
      </trkpt>
      <trkpt lat="43.30268" lon="2.21777">
        <ele>146.8</ele>
        <time>2019-06-09T07:35:07.000Z</time>
      </trkpt>
      <trkpt lat="43.30266" lon="2.21779">
        <ele>146.7</ele>
        <time>2019-06-09T07:35:08.000Z</time>
      </trkpt>
      <trkpt lat="43.30264" lon="2.2178">
        <ele>146.7</ele>
        <time>2019-06-09T07:35:09.000Z</time>
      </trkpt>
      <trkpt lat="43.30262" lon="2.21782">
        <ele>146.7</ele>
        <time>2019-06-09T07:35:10.000Z</time>
      </trkpt>
      <trkpt lat="43.30259" lon="2.21783">
        <ele>146.6</ele>
        <time>2019-06-09T07:35:11.000Z</time>
      </trkpt>
      <trkpt lat="43.30257" lon="2.21784">
        <ele>146.6</ele>
        <time>2019-06-09T07:35:12.000Z</time>
      </trkpt>
      <trkpt lat="43.30256" lon="2.21785">
        <ele>146.5</ele>
        <time>2019-06-09T07:35:13.000Z</time>
      </trkpt>
      <trkpt lat="43.30254" lon="2.21785">
        <ele>146.5</ele>
        <time>2019-06-09T07:35:14.000Z</time>
      </trkpt>
      <trkpt lat="43.30253" lon="2.21785">
        <ele>146.4</ele>
        <time>2019-06-09T07:35:15.000Z</time>
      </trkpt>
      <trkpt lat="43.30252" lon="2.21785">
        <ele>146.3</ele>
        <time>2019-06-09T07:35:16.000Z</time>
      </trkpt>
      <trkpt lat="43.30251" lon="2.21785">
        <ele>146.3</ele>
        <time>2019-06-09T07:35:17.000Z</time>
      </trkpt>
      <trkpt lat="43.3025" lon="2.21785">
        <ele>146.3</ele>
        <time>2019-06-09T07:35:18.000Z</time>
      </trkpt>
      <trkpt lat="43.3025" lon="2.21785">
        <ele>146.2</ele>
        <time>2019-06-09T07:35:19.000Z</time>
      </trkpt>
      <trkpt lat="43.30249" lon="2.21785">
        <ele>146.2</ele>
        <time>2019-06-09T07:35:20.000Z</time>
      </trkpt>
      <trkpt lat="43.30249" lon="2.21785">
        <ele>146.2</ele>
        <time>2019-06-09T07:35:21.000Z</time>
      </trkpt>
      <trkpt lat="43.30248" lon="2.21785">
        <ele>146.2</ele>
        <time>2019-06-09T07:35:22.000Z</time>
      </trkpt>
      <trkpt lat="43.30247" lon="2.21786">
        <ele>146.2</ele>
        <time>2019-06-09T07:35:23.000Z</time>
      </trkpt>
      <trkpt lat="43.30246" lon="2.21787">
        <ele>146.2</ele>
        <time>2019-06-09T07:35:24.000Z</time>
      </trkpt>
      <trkpt lat="43.30245" lon="2.21788">
        <ele>146.1</ele>
        <time>2019-06-09T07:35:25.000Z</time>
      </trkpt>
      <trkpt lat="43.30244" lon="2.21789">
        <ele>146.1</ele>
        <time>2019-06-09T07:35:26.000Z</time>
      </trkpt>
      <trkpt lat="43.30243" lon="2.2179">
        <ele>146.1</ele>
        <time>2019-06-09T07:35:27.000Z</time>
      </trkpt>
      <trkpt lat="43.30241" lon="2.21791">
        <ele>146.1</ele>
        <time>2019-06-09T07:35:28.000Z</time>
      </trkpt>
      <trkpt lat="43.30239" lon="2.21792">
        <ele>146</ele>
        <time>2019-06-09T07:35:29.000Z</time>
      </trkpt>
      <trkpt lat="43.30238" lon="2.21794">
        <ele>146</ele>
        <time>2019-06-09T07:35:30.000Z</time>
      </trkpt>
      <trkpt lat="43.30236" lon="2.21795">
        <ele>145.9</ele>
        <time>2019-06-09T07:35:31.000Z</time>
      </trkpt>
      <trkpt lat="43.30234" lon="2.21796">
        <ele>145.9</ele>
        <time>2019-06-09T07:35:32.000Z</time>
      </trkpt>
      <trkpt lat="43.30232" lon="2.21798">
        <ele>145.8</ele>
        <time>2019-06-09T07:35:33.000Z</time>
      </trkpt>
      <trkpt lat="43.3023" lon="2.218">
        <ele>145.8</ele>
        <time>2019-06-09T07:35:34.000Z</time>
      </trkpt>
      <trkpt lat="43.30228" lon="2.21801">
        <ele>145.7</ele>
        <time>2019-06-09T07:35:35.000Z</time>
      </trkpt>
      <trkpt lat="43.30227" lon="2.21803">
        <ele>145.7</ele>
        <time>2019-06-09T07:35:36.000Z</time>
      </trkpt>
      <trkpt lat="43.30225" lon="2.21805">
        <ele>145.7</ele>
        <time>2019-06-09T07:35:37.000Z</time>
      </trkpt>
      <trkpt lat="43.30223" lon="2.21806">
        <ele>145.6</ele>
        <time>2019-06-09T07:35:38.000Z</time>
      </trkpt>
      <trkpt lat="43.30222" lon="2.21808">
        <ele>145.6</ele>
        <time>2019-06-09T07:35:39.000Z</time>
      </trkpt>
      <trkpt lat="43.3022" lon="2.2181">
        <ele>145.6</ele>
        <time>2019-06-09T07:35:40.000Z</time>
      </trkpt>
      <trkpt lat="43.30218" lon="2.21812">
        <ele>145.5</ele>
        <time>2019-06-09T07:35:41.000Z</time>
      </trkpt>
      <trkpt lat="43.30217" lon="2.21814">
        <ele>145.5</ele>
        <time>2019-06-09T07:35:42.000Z</time>
      </trkpt>
      <trkpt lat="43.30215" lon="2.21815">
        <ele>145.4</ele>
        <time>2019-06-09T07:35:43.000Z</time>
      </trkpt>
      <trkpt lat="43.30213" lon="2.21817">
        <ele>145.4</ele>
        <time>2019-06-09T07:35:44.000Z</time>
      </trkpt>
      <trkpt lat="43.30211" lon="2.21819">
        <ele>145.3</ele>
        <time>2019-06-09T07:35:45.000Z</time>
      </trkpt>
      <trkpt lat="43.30209" lon="2.2182">
        <ele>145.2</ele>
        <time>2019-06-09T07:35:46.000Z</time>
      </trkpt>
      <trkpt lat="43.30208" lon="2.21822">
        <ele>145.2</ele>
        <time>2019-06-09T07:35:47.000Z</time>
      </trkpt>
      <trkpt lat="43.30206" lon="2.21823">
        <ele>145.1</ele>
        <time>2019-06-09T07:35:48.000Z</time>
      </trkpt>
      <trkpt lat="43.30204" lon="2.21825">
        <ele>145</ele>
        <time>2019-06-09T07:35:49.000Z</time>
      </trkpt>
      <trkpt lat="43.30202" lon="2.21826">
        <ele>144.9</ele>
        <time>2019-06-09T07:35:50.000Z</time>
      </trkpt>
      <trkpt lat="43.302" lon="2.21827">
        <ele>144.8</ele>
        <time>2019-06-09T07:35:51.000Z</time>
      </trkpt>
      <trkpt lat="43.30198" lon="2.21828">
        <ele>144.7</ele>
        <time>2019-06-09T07:35:52.000Z</time>
      </trkpt>
      <trkpt lat="43.30196" lon="2.21829">
        <ele>144.7</ele>
        <time>2019-06-09T07:35:53.000Z</time>
      </trkpt>
      <trkpt lat="43.30194" lon="2.2183">
        <ele>144.6</ele>
        <time>2019-06-09T07:35:54.000Z</time>
      </trkpt>
      <trkpt lat="43.30192" lon="2.21832">
        <ele>144.5</ele>
        <time>2019-06-09T07:35:55.000Z</time>
      </trkpt>
      <trkpt lat="43.3019" lon="2.21834">
        <ele>144.4</ele>
        <time>2019-06-09T07:35:56.000Z</time>
      </trkpt>
      <trkpt lat="43.30188" lon="2.21836">
        <ele>144.3</ele>
        <time>2019-06-09T07:35:57.000Z</time>
      </trkpt>
      <trkpt lat="43.30186" lon="2.21838">
        <ele>144.3</ele>
        <time>2019-06-09T07:35:58.000Z</time>
      </trkpt>
      <trkpt lat="43.30184" lon="2.21841">
        <ele>144.2</ele>
        <time>2019-06-09T07:35:59.000Z</time>
      </trkpt>
      <trkpt lat="43.30181" lon="2.21843">
        <ele>144.1</ele>
        <time>2019-06-09T07:36:00.000Z</time>
      </trkpt>
      <trkpt lat="43.30179" lon="2.21845">
        <ele>144</ele>
        <time>2019-06-09T07:36:01.000Z</time>
      </trkpt>
      <trkpt lat="43.30177" lon="2.21846">
        <ele>143.9</ele>
        <time>2019-06-09T07:36:02.000Z</time>
      </trkpt>
      <trkpt lat="43.30175" lon="2.21848">
        <ele>143.8</ele>
        <time>2019-06-09T07:36:03.000Z</time>
      </trkpt>
      <trkpt lat="43.30173" lon="2.21849">
        <ele>143.7</ele>
        <time>2019-06-09T07:36:04.000Z</time>
      </trkpt>
      <trkpt lat="43.30171" lon="2.21851">
        <ele>143.7</ele>
        <time>2019-06-09T07:36:05.000Z</time>
      </trkpt>
      <trkpt lat="43.30169" lon="2.21853">
        <ele>143.6</ele>
        <time>2019-06-09T07:36:06.000Z</time>
      </trkpt>
      <trkpt lat="43.30167" lon="2.21855">
        <ele>143.5</ele>
        <time>2019-06-09T07:36:07.000Z</time>
      </trkpt>
      <trkpt lat="43.30165" lon="2.21857">
        <ele>143.5</ele>
        <time>2019-06-09T07:36:08.000Z</time>
      </trkpt>
      <trkpt lat="43.30164" lon="2.2186">
        <ele>143.5</ele>
        <time>2019-06-09T07:36:09.000Z</time>
      </trkpt>
      <trkpt lat="43.30162" lon="2.21862">
        <ele>143.4</ele>
        <time>2019-06-09T07:36:10.000Z</time>
      </trkpt>
      <trkpt lat="43.3016" lon="2.21864">
        <ele>143.4</ele>
        <time>2019-06-09T07:36:11.000Z</time>
      </trkpt>
      <trkpt lat="43.30158" lon="2.21866">
        <ele>143.4</ele>
        <time>2019-06-09T07:36:12.000Z</time>
      </trkpt>
      <trkpt lat="43.30157" lon="2.21869">
        <ele>143.3</ele>
        <time>2019-06-09T07:36:13.000Z</time>
      </trkpt>
      <trkpt lat="43.30155" lon="2.21871">
        <ele>143.3</ele>
        <time>2019-06-09T07:36:14.000Z</time>
      </trkpt>
      <trkpt lat="43.30153" lon="2.21873">
        <ele>143.2</ele>
        <time>2019-06-09T07:36:15.000Z</time>
      </trkpt>
      <trkpt lat="43.30151" lon="2.21874">
        <ele>143.1</ele>
        <time>2019-06-09T07:36:16.000Z</time>
      </trkpt>
      <trkpt lat="43.30149" lon="2.21876">
        <ele>143.1</ele>
        <time>2019-06-09T07:36:17.000Z</time>
      </trkpt>
      <trkpt lat="43.30147" lon="2.21878">
        <ele>143</ele>
        <time>2019-06-09T07:36:18.000Z</time>
      </trkpt>
      <trkpt lat="43.30145" lon="2.21879">
        <ele>142.9</ele>
        <time>2019-06-09T07:36:19.000Z</time>
      </trkpt>
      <trkpt lat="43.30143" lon="2.21881">
        <ele>142.8</ele>
        <time>2019-06-09T07:36:20.000Z</time>
      </trkpt>
      <trkpt lat="43.3014" lon="2.21883">
        <ele>142.7</ele>
        <time>2019-06-09T07:36:21.000Z</time>
      </trkpt>
      <trkpt lat="43.30138" lon="2.21884">
        <ele>142.6</ele>
        <time>2019-06-09T07:36:22.000Z</time>
      </trkpt>
      <trkpt lat="43.30136" lon="2.21886">
        <ele>142.5</ele>
        <time>2019-06-09T07:36:23.000Z</time>
      </trkpt>
      <trkpt lat="43.30133" lon="2.21887">
        <ele>142.4</ele>
        <time>2019-06-09T07:36:24.000Z</time>
      </trkpt>
      <trkpt lat="43.30131" lon="2.21889">
        <ele>142.3</ele>
        <time>2019-06-09T07:36:25.000Z</time>
      </trkpt>
      <trkpt lat="43.30129" lon="2.21891">
        <ele>142.2</ele>
        <time>2019-06-09T07:36:26.000Z</time>
      </trkpt>
      <trkpt lat="43.30126" lon="2.21892">
        <ele>142.1</ele>
        <time>2019-06-09T07:36:27.000Z</time>
      </trkpt>
      <trkpt lat="43.30124" lon="2.21894">
        <ele>142.1</ele>
        <time>2019-06-09T07:36:28.000Z</time>
      </trkpt>
      <trkpt lat="43.30122" lon="2.21896">
        <ele>142</ele>
        <time>2019-06-09T07:36:29.000Z</time>
      </trkpt>
      <trkpt lat="43.3012" lon="2.21898">
        <ele>141.9</ele>
        <time>2019-06-09T07:36:30.000Z</time>
      </trkpt>
      <trkpt lat="43.30118" lon="2.21901">
        <ele>141.8</ele>
        <time>2019-06-09T07:36:31.000Z</time>
      </trkpt>
      <trkpt lat="43.30115" lon="2.21903">
        <ele>141.7</ele>
        <time>2019-06-09T07:36:32.000Z</time>
      </trkpt>
      <trkpt lat="43.30113" lon="2.21905">
        <ele>141.6</ele>
        <time>2019-06-09T07:36:33.000Z</time>
      </trkpt>
      <trkpt lat="43.30111" lon="2.21908">
        <ele>141.5</ele>
        <time>2019-06-09T07:36:34.000Z</time>
      </trkpt>
      <trkpt lat="43.30109" lon="2.2191">
        <ele>141.4</ele>
        <time>2019-06-09T07:36:35.000Z</time>
      </trkpt>
      <trkpt lat="43.30107" lon="2.21912">
        <ele>141.3</ele>
        <time>2019-06-09T07:36:36.000Z</time>
      </trkpt>
      <trkpt lat="43.30105" lon="2.21915">
        <ele>141.2</ele>
        <time>2019-06-09T07:36:37.000Z</time>
      </trkpt>
      <trkpt lat="43.30102" lon="2.21917">
        <ele>141.2</ele>
        <time>2019-06-09T07:36:38.000Z</time>
      </trkpt>
      <trkpt lat="43.301" lon="2.2192">
        <ele>141</ele>
        <time>2019-06-09T07:36:39.000Z</time>
      </trkpt>
      <trkpt lat="43.30098" lon="2.21922">
        <ele>140.9</ele>
        <time>2019-06-09T07:36:40.000Z</time>
      </trkpt>
      <trkpt lat="43.30095" lon="2.21925">
        <ele>140.8</ele>
        <time>2019-06-09T07:36:41.000Z</time>
      </trkpt>
      <trkpt lat="43.30093" lon="2.21927">
        <ele>140.7</ele>
        <time>2019-06-09T07:36:42.000Z</time>
      </trkpt>
      <trkpt lat="43.30091" lon="2.21929">
        <ele>140.6</ele>
        <time>2019-06-09T07:36:43.000Z</time>
      </trkpt>
      <trkpt lat="43.30088" lon="2.21931">
        <ele>140.5</ele>
        <time>2019-06-09T07:36:44.000Z</time>
      </trkpt>
      <trkpt lat="43.30086" lon="2.21934">
        <ele>140.3</ele>
        <time>2019-06-09T07:36:45.000Z</time>
      </trkpt>
      <trkpt lat="43.30083" lon="2.21936">
        <ele>140.2</ele>
        <time>2019-06-09T07:36:46.000Z</time>
      </trkpt>
      <trkpt lat="43.3008" lon="2.21938">
        <ele>140.2</ele>
        <time>2019-06-09T07:36:47.000Z</time>
      </trkpt>
      <trkpt lat="43.30078" lon="2.2194">
        <ele>140.2</ele>
        <time>2019-06-09T07:36:48.000Z</time>
      </trkpt>
      <trkpt lat="43.30075" lon="2.21942">
        <ele>140.1</ele>
        <time>2019-06-09T07:36:49.000Z</time>
      </trkpt>
      <trkpt lat="43.30072" lon="2.21944">
        <ele>140.1</ele>
        <time>2019-06-09T07:36:50.000Z</time>
      </trkpt>
      <trkpt lat="43.3007" lon="2.21946">
        <ele>140.1</ele>
        <time>2019-06-09T07:36:51.000Z</time>
      </trkpt>
      <trkpt lat="43.30067" lon="2.21948">
        <ele>140.1</ele>
        <time>2019-06-09T07:36:52.000Z</time>
      </trkpt>
      <trkpt lat="43.30065" lon="2.21951">
        <ele>140</ele>
        <time>2019-06-09T07:36:53.000Z</time>
      </trkpt>
      <trkpt lat="43.30062" lon="2.21953">
        <ele>140</ele>
        <time>2019-06-09T07:36:54.000Z</time>
      </trkpt>
      <trkpt lat="43.3006" lon="2.21955">
        <ele>140</ele>
        <time>2019-06-09T07:36:55.000Z</time>
      </trkpt>
      <trkpt lat="43.30057" lon="2.21957">
        <ele>140</ele>
        <time>2019-06-09T07:36:56.000Z</time>
      </trkpt>
      <trkpt lat="43.30055" lon="2.21959">
        <ele>140</ele>
        <time>2019-06-09T07:36:57.000Z</time>
      </trkpt>
      <trkpt lat="43.30053" lon="2.21961">
        <ele>140</ele>
        <time>2019-06-09T07:36:58.000Z</time>
      </trkpt>
      <trkpt lat="43.30051" lon="2.21964">
        <ele>140</ele>
        <time>2019-06-09T07:36:59.000Z</time>
      </trkpt>
      <trkpt lat="43.30048" lon="2.21966">
        <ele>140</ele>
        <time>2019-06-09T07:37:00.000Z</time>
      </trkpt>
      <trkpt lat="43.30046" lon="2.21968">
        <ele>140</ele>
        <time>2019-06-09T07:37:01.000Z</time>
      </trkpt>
      <trkpt lat="43.30044" lon="2.2197">
        <ele>140</ele>
        <time>2019-06-09T07:37:02.000Z</time>
      </trkpt>
      <trkpt lat="43.30042" lon="2.21972">
        <ele>140</ele>
        <time>2019-06-09T07:37:03.000Z</time>
      </trkpt>
      <trkpt lat="43.3004" lon="2.21974">
        <ele>140</ele>
        <time>2019-06-09T07:37:04.000Z</time>
      </trkpt>
      <trkpt lat="43.30038" lon="2.21976">
        <ele>140</ele>
        <time>2019-06-09T07:37:05.000Z</time>
      </trkpt>
      <trkpt lat="43.30035" lon="2.21977">
        <ele>140</ele>
        <time>2019-06-09T07:37:06.000Z</time>
      </trkpt>
      <trkpt lat="43.30033" lon="2.21979">
        <ele>140</ele>
        <time>2019-06-09T07:37:07.000Z</time>
      </trkpt>
      <trkpt lat="43.30031" lon="2.2198">
        <ele>140</ele>
        <time>2019-06-09T07:37:08.000Z</time>
      </trkpt>
      <trkpt lat="43.30029" lon="2.21982">
        <ele>140</ele>
        <time>2019-06-09T07:37:09.000Z</time>
      </trkpt>
      <trkpt lat="43.30027" lon="2.21984">
        <ele>140</ele>
        <time>2019-06-09T07:37:10.000Z</time>
      </trkpt>
      <trkpt lat="43.30026" lon="2.21986">
        <ele>140</ele>
        <time>2019-06-09T07:37:11.000Z</time>
      </trkpt>
      <trkpt lat="43.30025" lon="2.21988">
        <ele>140.1</ele>
        <time>2019-06-09T07:37:12.000Z</time>
      </trkpt>
      <trkpt lat="43.30025" lon="2.2199">
        <ele>140.1</ele>
        <time>2019-06-09T07:37:13.000Z</time>
      </trkpt>
      <trkpt lat="43.30024" lon="2.21991">
        <ele>140.1</ele>
        <time>2019-06-09T07:37:14.000Z</time>
      </trkpt>
      <trkpt lat="43.30024" lon="2.21992">
        <ele>140.1</ele>
        <time>2019-06-09T07:37:15.000Z</time>
      </trkpt>
      <trkpt lat="43.30023" lon="2.21992">
        <ele>140.1</ele>
        <time>2019-06-09T07:37:16.000Z</time>
      </trkpt>
      <trkpt lat="43.30022" lon="2.21992">
        <ele>140.1</ele>
        <time>2019-06-09T07:37:17.000Z</time>
      </trkpt>
      <trkpt lat="43.30021" lon="2.21992">
        <ele>140.1</ele>
        <time>2019-06-09T07:37:18.000Z</time>
      </trkpt>
      <trkpt lat="43.30019" lon="2.21992">
        <ele>140.1</ele>
        <time>2019-06-09T07:37:19.000Z</time>
      </trkpt>
      <trkpt lat="43.30017" lon="2.21992">
        <ele>140</ele>
        <time>2019-06-09T07:37:20.000Z</time>
      </trkpt>
      <trkpt lat="43.30016" lon="2.21993">
        <ele>140</ele>
        <time>2019-06-09T07:37:21.000Z</time>
      </trkpt>
      <trkpt lat="43.30014" lon="2.21994">
        <ele>140</ele>
        <time>2019-06-09T07:37:22.000Z</time>
      </trkpt>
      <trkpt lat="43.30012" lon="2.21996">
        <ele>140</ele>
        <time>2019-06-09T07:37:23.000Z</time>
      </trkpt>
      <trkpt lat="43.3001" lon="2.21997">
        <ele>140.1</ele>
        <time>2019-06-09T07:37:24.000Z</time>
      </trkpt>
      <trkpt lat="43.30008" lon="2.21999">
        <ele>140.1</ele>
        <time>2019-06-09T07:37:25.000Z</time>
      </trkpt>
      <trkpt lat="43.30006" lon="2.22001">
        <ele>140.1</ele>
        <time>2019-06-09T07:37:26.000Z</time>
      </trkpt>
      <trkpt lat="43.30004" lon="2.22003">
        <ele>140.1</ele>
        <time>2019-06-09T07:37:27.000Z</time>
      </trkpt>
      <trkpt lat="43.30002" lon="2.22005">
        <ele>140.2</ele>
        <time>2019-06-09T07:37:28.000Z</time>
      </trkpt>
      <trkpt lat="43.3" lon="2.22006">
        <ele>140.2</ele>
        <time>2019-06-09T07:37:29.000Z</time>
      </trkpt>
      <trkpt lat="43.29998" lon="2.22008">
        <ele>140.2</ele>
        <time>2019-06-09T07:37:30.000Z</time>
      </trkpt>
      <trkpt lat="43.29996" lon="2.2201">
        <ele>140.2</ele>
        <time>2019-06-09T07:37:31.000Z</time>
      </trkpt>
      <trkpt lat="43.29994" lon="2.22012">
        <ele>140.2</ele>
        <time>2019-06-09T07:37:32.000Z</time>
      </trkpt>
      <trkpt lat="43.29991" lon="2.22014">
        <ele>140.2</ele>
        <time>2019-06-09T07:37:33.000Z</time>
      </trkpt>
      <trkpt lat="43.29989" lon="2.22016">
        <ele>140.2</ele>
        <time>2019-06-09T07:37:34.000Z</time>
      </trkpt>
      <trkpt lat="43.29987" lon="2.22018">
        <ele>140.2</ele>
        <time>2019-06-09T07:37:35.000Z</time>
      </trkpt>
      <trkpt lat="43.29984" lon="2.2202">
        <ele>140.2</ele>
        <time>2019-06-09T07:37:36.000Z</time>
      </trkpt>
      <trkpt lat="43.29982" lon="2.22022">
        <ele>140.2</ele>
        <time>2019-06-09T07:37:37.000Z</time>
      </trkpt>
      <trkpt lat="43.2998" lon="2.22024">
        <ele>140.1</ele>
        <time>2019-06-09T07:37:38.000Z</time>
      </trkpt>
      <trkpt lat="43.29977" lon="2.22025">
        <ele>140.1</ele>
        <time>2019-06-09T07:37:39.000Z</time>
      </trkpt>
      <trkpt lat="43.29975" lon="2.22027">
        <ele>140.1</ele>
        <time>2019-06-09T07:37:40.000Z</time>
      </trkpt>
      <trkpt lat="43.29973" lon="2.22029">
        <ele>140.1</ele>
        <time>2019-06-09T07:37:41.000Z</time>
      </trkpt>
      <trkpt lat="43.2997" lon="2.22031">
        <ele>140</ele>
        <time>2019-06-09T07:37:42.000Z</time>
      </trkpt>
      <trkpt lat="43.29968" lon="2.22033">
        <ele>140</ele>
        <time>2019-06-09T07:37:43.000Z</time>
      </trkpt>
      <trkpt lat="43.29966" lon="2.22035">
        <ele>139.9</ele>
        <time>2019-06-09T07:37:44.000Z</time>
      </trkpt>
      <trkpt lat="43.29964" lon="2.22037">
        <ele>139.9</ele>
        <time>2019-06-09T07:37:45.000Z</time>
      </trkpt>
      <trkpt lat="43.29962" lon="2.22039">
        <ele>139.9</ele>
        <time>2019-06-09T07:37:46.000Z</time>
      </trkpt>
      <trkpt lat="43.2996" lon="2.22041">
        <ele>139.8</ele>
        <time>2019-06-09T07:37:47.000Z</time>
      </trkpt>
      <trkpt lat="43.29958" lon="2.22043">
        <ele>139.8</ele>
        <time>2019-06-09T07:37:48.000Z</time>
      </trkpt>
      <trkpt lat="43.29957" lon="2.22045">
        <ele>139.7</ele>
        <time>2019-06-09T07:37:49.000Z</time>
      </trkpt>
      <trkpt lat="43.29955" lon="2.22047">
        <ele>139.7</ele>
        <time>2019-06-09T07:37:50.000Z</time>
      </trkpt>
      <trkpt lat="43.29953" lon="2.22049">
        <ele>139.6</ele>
        <time>2019-06-09T07:37:51.000Z</time>
      </trkpt>
      <trkpt lat="43.29951" lon="2.22051">
        <ele>139.6</ele>
        <time>2019-06-09T07:37:52.000Z</time>
      </trkpt>
      <trkpt lat="43.29949" lon="2.22053">
        <ele>139.5</ele>
        <time>2019-06-09T07:37:53.000Z</time>
      </trkpt>
      <trkpt lat="43.29947" lon="2.22055">
        <ele>139.5</ele>
        <time>2019-06-09T07:37:54.000Z</time>
      </trkpt>
      <trkpt lat="43.29945" lon="2.22057">
        <ele>139.4</ele>
        <time>2019-06-09T07:37:55.000Z</time>
      </trkpt>
      <trkpt lat="43.29943" lon="2.22059">
        <ele>139.3</ele>
        <time>2019-06-09T07:37:56.000Z</time>
      </trkpt>
      <trkpt lat="43.29941" lon="2.22061">
        <ele>139.2</ele>
        <time>2019-06-09T07:37:57.000Z</time>
      </trkpt>
      <trkpt lat="43.29939" lon="2.22063">
        <ele>139.1</ele>
        <time>2019-06-09T07:37:58.000Z</time>
      </trkpt>
      <trkpt lat="43.29937" lon="2.22065">
        <ele>139</ele>
        <time>2019-06-09T07:37:59.000Z</time>
      </trkpt>
      <trkpt lat="43.29934" lon="2.22067">
        <ele>138.9</ele>
        <time>2019-06-09T07:38:00.000Z</time>
      </trkpt>
      <trkpt lat="43.29932" lon="2.22069">
        <ele>138.8</ele>
        <time>2019-06-09T07:38:01.000Z</time>
      </trkpt>
      <trkpt lat="43.2993" lon="2.22071">
        <ele>138.7</ele>
        <time>2019-06-09T07:38:02.000Z</time>
      </trkpt>
      <trkpt lat="43.29927" lon="2.22073">
        <ele>138.6</ele>
        <time>2019-06-09T07:38:03.000Z</time>
      </trkpt>
      <trkpt lat="43.29925" lon="2.22075">
        <ele>138.5</ele>
        <time>2019-06-09T07:38:04.000Z</time>
      </trkpt>
      <trkpt lat="43.29923" lon="2.22076">
        <ele>138.4</ele>
        <time>2019-06-09T07:38:05.000Z</time>
      </trkpt>
      <trkpt lat="43.29921" lon="2.22078">
        <ele>138.2</ele>
        <time>2019-06-09T07:38:06.000Z</time>
      </trkpt>
      <trkpt lat="43.29919" lon="2.22079">
        <ele>138.1</ele>
        <time>2019-06-09T07:38:07.000Z</time>
      </trkpt>
      <trkpt lat="43.29917" lon="2.22081">
        <ele>138</ele>
        <time>2019-06-09T07:38:08.000Z</time>
      </trkpt>
      <trkpt lat="43.29915" lon="2.22082">
        <ele>138</ele>
        <time>2019-06-09T07:38:09.000Z</time>
      </trkpt>
      <trkpt lat="43.29913" lon="2.22083">
        <ele>137.9</ele>
        <time>2019-06-09T07:38:10.000Z</time>
      </trkpt>
      <trkpt lat="43.29912" lon="2.22085">
        <ele>138</ele>
        <time>2019-06-09T07:38:11.000Z</time>
      </trkpt>
      <trkpt lat="43.2991" lon="2.22086">
        <ele>138</ele>
        <time>2019-06-09T07:38:12.000Z</time>
      </trkpt>
      <trkpt lat="43.29908" lon="2.22088">
        <ele>138</ele>
        <time>2019-06-09T07:38:13.000Z</time>
      </trkpt>
      <trkpt lat="43.29906" lon="2.22089">
        <ele>138.1</ele>
        <time>2019-06-09T07:38:14.000Z</time>
      </trkpt>
      <trkpt lat="43.29904" lon="2.22091">
        <ele>138.1</ele>
        <time>2019-06-09T07:38:15.000Z</time>
      </trkpt>
      <trkpt lat="43.29902" lon="2.22093">
        <ele>138.2</ele>
        <time>2019-06-09T07:38:16.000Z</time>
      </trkpt>
      <trkpt lat="43.29899" lon="2.22095">
        <ele>138.2</ele>
        <time>2019-06-09T07:38:17.000Z</time>
      </trkpt>
      <trkpt lat="43.29896" lon="2.22097">
        <ele>138.2</ele>
        <time>2019-06-09T07:38:18.000Z</time>
      </trkpt>
      <trkpt lat="43.29893" lon="2.22099">
        <ele>138.2</ele>
        <time>2019-06-09T07:38:19.000Z</time>
      </trkpt>
      <trkpt lat="43.2989" lon="2.22101">
        <ele>138.2</ele>
        <time>2019-06-09T07:38:20.000Z</time>
      </trkpt>
      <trkpt lat="43.29887" lon="2.22104">
        <ele>138.3</ele>
        <time>2019-06-09T07:38:21.000Z</time>
      </trkpt>
      <trkpt lat="43.29884" lon="2.22106">
        <ele>138.3</ele>
        <time>2019-06-09T07:38:22.000Z</time>
      </trkpt>
      <trkpt lat="43.29881" lon="2.22108">
        <ele>138.3</ele>
        <time>2019-06-09T07:38:23.000Z</time>
      </trkpt>
      <trkpt lat="43.29878" lon="2.2211">
        <ele>138.2</ele>
        <time>2019-06-09T07:38:24.000Z</time>
      </trkpt>
      <trkpt lat="43.29876" lon="2.22112">
        <ele>138.3</ele>
        <time>2019-06-09T07:38:25.000Z</time>
      </trkpt>
      <trkpt lat="43.29873" lon="2.22115">
        <ele>138.2</ele>
        <time>2019-06-09T07:38:26.000Z</time>
      </trkpt>
      <trkpt lat="43.29871" lon="2.22117">
        <ele>138.2</ele>
        <time>2019-06-09T07:38:27.000Z</time>
      </trkpt>
      <trkpt lat="43.29869" lon="2.22119">
        <ele>138.2</ele>
        <time>2019-06-09T07:38:28.000Z</time>
      </trkpt>
      <trkpt lat="43.29866" lon="2.22121">
        <ele>138.2</ele>
        <time>2019-06-09T07:38:29.000Z</time>
      </trkpt>
      <trkpt lat="43.29864" lon="2.22123">
        <ele>138.2</ele>
        <time>2019-06-09T07:38:30.000Z</time>
      </trkpt>
      <trkpt lat="43.29862" lon="2.22125">
        <ele>138.2</ele>
        <time>2019-06-09T07:38:31.000Z</time>
      </trkpt>
      <trkpt lat="43.29859" lon="2.22127">
        <ele>138.2</ele>
        <time>2019-06-09T07:38:32.000Z</time>
      </trkpt>
      <trkpt lat="43.29857" lon="2.22129">
        <ele>138.1</ele>
        <time>2019-06-09T07:38:33.000Z</time>
      </trkpt>
      <trkpt lat="43.29855" lon="2.22132">
        <ele>138.1</ele>
        <time>2019-06-09T07:38:34.000Z</time>
      </trkpt>
      <trkpt lat="43.29852" lon="2.22134">
        <ele>138.1</ele>
        <time>2019-06-09T07:38:35.000Z</time>
      </trkpt>
      <trkpt lat="43.2985" lon="2.22136">
        <ele>138</ele>
        <time>2019-06-09T07:38:36.000Z</time>
      </trkpt>
      <trkpt lat="43.29848" lon="2.22138">
        <ele>138</ele>
        <time>2019-06-09T07:38:37.000Z</time>
      </trkpt>
      <trkpt lat="43.29845" lon="2.2214">
        <ele>137.9</ele>
        <time>2019-06-09T07:38:38.000Z</time>
      </trkpt>
      <trkpt lat="43.29843" lon="2.22142">
        <ele>137.9</ele>
        <time>2019-06-09T07:38:39.000Z</time>
      </trkpt>
      <trkpt lat="43.29841" lon="2.22144">
        <ele>137.8</ele>
        <time>2019-06-09T07:38:40.000Z</time>
      </trkpt>
      <trkpt lat="43.29838" lon="2.22146">
        <ele>137.7</ele>
        <time>2019-06-09T07:38:41.000Z</time>
      </trkpt>
      <trkpt lat="43.29836" lon="2.22148">
        <ele>137.7</ele>
        <time>2019-06-09T07:38:42.000Z</time>
      </trkpt>
      <trkpt lat="43.29834" lon="2.2215">
        <ele>137.6</ele>
        <time>2019-06-09T07:38:43.000Z</time>
      </trkpt>
      <trkpt lat="43.29831" lon="2.22152">
        <ele>137.6</ele>
        <time>2019-06-09T07:38:44.000Z</time>
      </trkpt>
      <trkpt lat="43.29829" lon="2.22154">
        <ele>137.6</ele>
        <time>2019-06-09T07:38:45.000Z</time>
      </trkpt>
      <trkpt lat="43.29827" lon="2.22156">
        <ele>137.7</ele>
        <time>2019-06-09T07:38:46.000Z</time>
      </trkpt>
      <trkpt lat="43.29824" lon="2.22158">
        <ele>137.7</ele>
        <time>2019-06-09T07:38:47.000Z</time>
      </trkpt>
      <trkpt lat="43.29822" lon="2.2216">
        <ele>137.7</ele>
        <time>2019-06-09T07:38:48.000Z</time>
      </trkpt>
      <trkpt lat="43.2982" lon="2.22162">
        <ele>137.7</ele>
        <time>2019-06-09T07:38:49.000Z</time>
      </trkpt>
      <trkpt lat="43.29818" lon="2.22164">
        <ele>137.8</ele>
        <time>2019-06-09T07:38:50.000Z</time>
      </trkpt>
      <trkpt lat="43.29815" lon="2.22166">
        <ele>137.8</ele>
        <time>2019-06-09T07:38:51.000Z</time>
      </trkpt>
      <trkpt lat="43.29813" lon="2.22168">
        <ele>137.8</ele>
        <time>2019-06-09T07:38:52.000Z</time>
      </trkpt>
      <trkpt lat="43.29811" lon="2.22169">
        <ele>137.8</ele>
        <time>2019-06-09T07:38:53.000Z</time>
      </trkpt>
      <trkpt lat="43.29809" lon="2.22171">
        <ele>137.9</ele>
        <time>2019-06-09T07:38:54.000Z</time>
      </trkpt>
      <trkpt lat="43.29806" lon="2.22173">
        <ele>138</ele>
        <time>2019-06-09T07:38:55.000Z</time>
      </trkpt>
      <trkpt lat="43.29804" lon="2.22175">
        <ele>138</ele>
        <time>2019-06-09T07:38:56.000Z</time>
      </trkpt>
      <trkpt lat="43.29802" lon="2.22177">
        <ele>138.1</ele>
        <time>2019-06-09T07:38:57.000Z</time>
      </trkpt>
      <trkpt lat="43.298" lon="2.22178">
        <ele>138.1</ele>
        <time>2019-06-09T07:38:58.000Z</time>
      </trkpt>
      <trkpt lat="43.29797" lon="2.2218">
        <ele>138.2</ele>
        <time>2019-06-09T07:38:59.000Z</time>
      </trkpt>
      <trkpt lat="43.29795" lon="2.22182">
        <ele>138.2</ele>
        <time>2019-06-09T07:39:00.000Z</time>
      </trkpt>
      <trkpt lat="43.29793" lon="2.22184">
        <ele>138.3</ele>
        <time>2019-06-09T07:39:01.000Z</time>
      </trkpt>
      <trkpt lat="43.2979" lon="2.22186">
        <ele>138.3</ele>
        <time>2019-06-09T07:39:02.000Z</time>
      </trkpt>
      <trkpt lat="43.29788" lon="2.22188">
        <ele>138.4</ele>
        <time>2019-06-09T07:39:03.000Z</time>
      </trkpt>
      <trkpt lat="43.29786" lon="2.2219">
        <ele>138.4</ele>
        <time>2019-06-09T07:39:04.000Z</time>
      </trkpt>
      <trkpt lat="43.29783" lon="2.22192">
        <ele>138.4</ele>
        <time>2019-06-09T07:39:05.000Z</time>
      </trkpt>
      <trkpt lat="43.29781" lon="2.22194">
        <ele>138.5</ele>
        <time>2019-06-09T07:39:06.000Z</time>
      </trkpt>
      <trkpt lat="43.29779" lon="2.22196">
        <ele>138.5</ele>
        <time>2019-06-09T07:39:07.000Z</time>
      </trkpt>
      <trkpt lat="43.29777" lon="2.22198">
        <ele>138.5</ele>
        <time>2019-06-09T07:39:08.000Z</time>
      </trkpt>
      <trkpt lat="43.29774" lon="2.22199">
        <ele>138.6</ele>
        <time>2019-06-09T07:39:09.000Z</time>
      </trkpt>
      <trkpt lat="43.29772" lon="2.22201">
        <ele>138.6</ele>
        <time>2019-06-09T07:39:10.000Z</time>
      </trkpt>
      <trkpt lat="43.2977" lon="2.22202">
        <ele>138.6</ele>
        <time>2019-06-09T07:39:11.000Z</time>
      </trkpt>
      <trkpt lat="43.29768" lon="2.22204">
        <ele>138.6</ele>
        <time>2019-06-09T07:39:12.000Z</time>
      </trkpt>
      <trkpt lat="43.29765" lon="2.22205">
        <ele>138.6</ele>
        <time>2019-06-09T07:39:13.000Z</time>
      </trkpt>
      <trkpt lat="43.29763" lon="2.22206">
        <ele>138.7</ele>
        <time>2019-06-09T07:39:14.000Z</time>
      </trkpt>
      <trkpt lat="43.29761" lon="2.22207">
        <ele>138.7</ele>
        <time>2019-06-09T07:39:15.000Z</time>
      </trkpt>
      <trkpt lat="43.29759" lon="2.22209">
        <ele>138.7</ele>
        <time>2019-06-09T07:39:16.000Z</time>
      </trkpt>
      <trkpt lat="43.29757" lon="2.2221">
        <ele>138.7</ele>
        <time>2019-06-09T07:39:17.000Z</time>
      </trkpt>
      <trkpt lat="43.29755" lon="2.22211">
        <ele>138.7</ele>
        <time>2019-06-09T07:39:18.000Z</time>
      </trkpt>
      <trkpt lat="43.29753" lon="2.22213">
        <ele>138.7</ele>
        <time>2019-06-09T07:39:19.000Z</time>
      </trkpt>
      <trkpt lat="43.29751" lon="2.22214">
        <ele>138.7</ele>
        <time>2019-06-09T07:39:20.000Z</time>
      </trkpt>
      <trkpt lat="43.29749" lon="2.22216">
        <ele>138.7</ele>
        <time>2019-06-09T07:39:21.000Z</time>
      </trkpt>
      <trkpt lat="43.29747" lon="2.22217">
        <ele>138.8</ele>
        <time>2019-06-09T07:39:22.000Z</time>
      </trkpt>
      <trkpt lat="43.29745" lon="2.22219">
        <ele>138.8</ele>
        <time>2019-06-09T07:39:23.000Z</time>
      </trkpt>
      <trkpt lat="43.29743" lon="2.22221">
        <ele>138.8</ele>
        <time>2019-06-09T07:39:24.000Z</time>
      </trkpt>
      <trkpt lat="43.29741" lon="2.22223">
        <ele>138.9</ele>
        <time>2019-06-09T07:39:25.000Z</time>
      </trkpt>
      <trkpt lat="43.29738" lon="2.22226">
        <ele>138.9</ele>
        <time>2019-06-09T07:39:26.000Z</time>
      </trkpt>
      <trkpt lat="43.29736" lon="2.22228">
        <ele>139</ele>
        <time>2019-06-09T07:39:27.000Z</time>
      </trkpt>
      <trkpt lat="43.29733" lon="2.2223">
        <ele>139</ele>
        <time>2019-06-09T07:39:28.000Z</time>
      </trkpt>
      <trkpt lat="43.29731" lon="2.22233">
        <ele>139</ele>
        <time>2019-06-09T07:39:29.000Z</time>
      </trkpt>
      <trkpt lat="43.29728" lon="2.22235">
        <ele>139</ele>
        <time>2019-06-09T07:39:30.000Z</time>
      </trkpt>
      <trkpt lat="43.29726" lon="2.22237">
        <ele>139.1</ele>
        <time>2019-06-09T07:39:31.000Z</time>
      </trkpt>
      <trkpt lat="43.29724" lon="2.2224">
        <ele>139.1</ele>
        <time>2019-06-09T07:39:32.000Z</time>
      </trkpt>
      <trkpt lat="43.29722" lon="2.22242">
        <ele>139.1</ele>
        <time>2019-06-09T07:39:33.000Z</time>
      </trkpt>
      <trkpt lat="43.2972" lon="2.22244">
        <ele>139.1</ele>
        <time>2019-06-09T07:39:34.000Z</time>
      </trkpt>
      <trkpt lat="43.29717" lon="2.22246">
        <ele>139.1</ele>
        <time>2019-06-09T07:39:35.000Z</time>
      </trkpt>
      <trkpt lat="43.29715" lon="2.22248">
        <ele>139.1</ele>
        <time>2019-06-09T07:39:36.000Z</time>
      </trkpt>
      <trkpt lat="43.29713" lon="2.2225">
        <ele>139.1</ele>
        <time>2019-06-09T07:39:37.000Z</time>
      </trkpt>
      <trkpt lat="43.29711" lon="2.22252">
        <ele>139.3</ele>
        <time>2019-06-09T07:39:38.000Z</time>
      </trkpt>
      <trkpt lat="43.29709" lon="2.22254">
        <ele>139.5</ele>
        <time>2019-06-09T07:39:39.000Z</time>
      </trkpt>
      <trkpt lat="43.29707" lon="2.22256">
        <ele>139.7</ele>
        <time>2019-06-09T07:39:40.000Z</time>
      </trkpt>
      <trkpt lat="43.29704" lon="2.22257">
        <ele>139.9</ele>
        <time>2019-06-09T07:39:41.000Z</time>
      </trkpt>
      <trkpt lat="43.29702" lon="2.22259">
        <ele>140.1</ele>
        <time>2019-06-09T07:39:42.000Z</time>
      </trkpt>
      <trkpt lat="43.297" lon="2.22261">
        <ele>140.3</ele>
        <time>2019-06-09T07:39:43.000Z</time>
      </trkpt>
      <trkpt lat="43.29698" lon="2.22263">
        <ele>140.4</ele>
        <time>2019-06-09T07:39:44.000Z</time>
      </trkpt>
      <trkpt lat="43.29695" lon="2.22264">
        <ele>140.6</ele>
        <time>2019-06-09T07:39:45.000Z</time>
      </trkpt>
      <trkpt lat="43.29693" lon="2.22266">
        <ele>140.7</ele>
        <time>2019-06-09T07:39:46.000Z</time>
      </trkpt>
      <trkpt lat="43.29691" lon="2.22267">
        <ele>140.8</ele>
        <time>2019-06-09T07:39:47.000Z</time>
      </trkpt>
      <trkpt lat="43.29688" lon="2.22269">
        <ele>140.9</ele>
        <time>2019-06-09T07:39:48.000Z</time>
      </trkpt>
      <trkpt lat="43.29686" lon="2.2227">
        <ele>141</ele>
        <time>2019-06-09T07:39:49.000Z</time>
      </trkpt>
      <trkpt lat="43.29684" lon="2.22271">
        <ele>141.1</ele>
        <time>2019-06-09T07:39:50.000Z</time>
      </trkpt>
      <trkpt lat="43.29681" lon="2.22273">
        <ele>141.2</ele>
        <time>2019-06-09T07:39:51.000Z</time>
      </trkpt>
      <trkpt lat="43.29679" lon="2.22274">
        <ele>141.3</ele>
        <time>2019-06-09T07:39:52.000Z</time>
      </trkpt>
      <trkpt lat="43.29677" lon="2.22275">
        <ele>141.4</ele>
        <time>2019-06-09T07:39:53.000Z</time>
      </trkpt>
      <trkpt lat="43.29674" lon="2.22276">
        <ele>141.4</ele>
        <time>2019-06-09T07:39:54.000Z</time>
      </trkpt>
      <trkpt lat="43.29672" lon="2.22277">
        <ele>141.5</ele>
        <time>2019-06-09T07:39:55.000Z</time>
      </trkpt>
      <trkpt lat="43.29669" lon="2.22278">
        <ele>141.5</ele>
        <time>2019-06-09T07:39:56.000Z</time>
      </trkpt>
      <trkpt lat="43.29667" lon="2.22279">
        <ele>141.5</ele>
        <time>2019-06-09T07:39:57.000Z</time>
      </trkpt>
      <trkpt lat="43.29664" lon="2.2228">
        <ele>141.6</ele>
        <time>2019-06-09T07:39:58.000Z</time>
      </trkpt>
      <trkpt lat="43.29662" lon="2.22281">
        <ele>141.6</ele>
        <time>2019-06-09T07:39:59.000Z</time>
      </trkpt>
      <trkpt lat="43.29659" lon="2.22282">
        <ele>141.6</ele>
        <time>2019-06-09T07:40:00.000Z</time>
      </trkpt>
      <trkpt lat="43.29657" lon="2.22283">
        <ele>141.6</ele>
        <time>2019-06-09T07:40:01.000Z</time>
      </trkpt>
      <trkpt lat="43.29654" lon="2.22284">
        <ele>141.6</ele>
        <time>2019-06-09T07:40:02.000Z</time>
      </trkpt>
      <trkpt lat="43.29652" lon="2.22285">
        <ele>141.6</ele>
        <time>2019-06-09T07:40:03.000Z</time>
      </trkpt>
      <trkpt lat="43.29649" lon="2.22286">
        <ele>141.6</ele>
        <time>2019-06-09T07:40:04.000Z</time>
      </trkpt>
      <trkpt lat="43.29647" lon="2.22287">
        <ele>141.6</ele>
        <time>2019-06-09T07:40:05.000Z</time>
      </trkpt>
      <trkpt lat="43.29644" lon="2.22287">
        <ele>141.6</ele>
        <time>2019-06-09T07:40:06.000Z</time>
      </trkpt>
      <trkpt lat="43.29642" lon="2.22288">
        <ele>141.5</ele>
        <time>2019-06-09T07:40:07.000Z</time>
      </trkpt>
      <trkpt lat="43.29639" lon="2.22289">
        <ele>141.5</ele>
        <time>2019-06-09T07:40:08.000Z</time>
      </trkpt>
      <trkpt lat="43.29637" lon="2.22289">
        <ele>141.5</ele>
        <time>2019-06-09T07:40:09.000Z</time>
      </trkpt>
      <trkpt lat="43.29634" lon="2.2229">
        <ele>141.5</ele>
        <time>2019-06-09T07:40:10.000Z</time>
      </trkpt>
      <trkpt lat="43.29632" lon="2.22291">
        <ele>141.4</ele>
        <time>2019-06-09T07:40:11.000Z</time>
      </trkpt>
      <trkpt lat="43.2963" lon="2.22291">
        <ele>141.4</ele>
        <time>2019-06-09T07:40:12.000Z</time>
      </trkpt>
      <trkpt lat="43.29628" lon="2.22291">
        <ele>141.3</ele>
        <time>2019-06-09T07:40:13.000Z</time>
      </trkpt>
      <trkpt lat="43.29626" lon="2.22291">
        <ele>141.3</ele>
        <time>2019-06-09T07:40:14.000Z</time>
      </trkpt>
      <trkpt lat="43.29625" lon="2.22291">
        <ele>141.2</ele>
        <time>2019-06-09T07:40:15.000Z</time>
      </trkpt>
      <trkpt lat="43.29624" lon="2.22292">
        <ele>141.2</ele>
        <time>2019-06-09T07:40:16.000Z</time>
      </trkpt>
      <trkpt lat="43.29624" lon="2.22292">
        <ele>141.2</ele>
        <time>2019-06-09T07:40:17.000Z</time>
      </trkpt>
      <trkpt lat="43.29624" lon="2.22292">
        <ele>141.2</ele>
        <time>2019-06-09T07:40:18.000Z</time>
      </trkpt>
      <trkpt lat="43.29623" lon="2.22292">
        <ele>141.2</ele>
        <time>2019-06-09T07:40:19.000Z</time>
      </trkpt>
      <trkpt lat="43.29621" lon="2.22293">
        <ele>141.2</ele>
        <time>2019-06-09T07:40:20.000Z</time>
      </trkpt>
      <trkpt lat="43.29619" lon="2.22294">
        <ele>141.2</ele>
        <time>2019-06-09T07:40:21.000Z</time>
      </trkpt>
      <trkpt lat="43.29618" lon="2.22294">
        <ele>141.2</ele>
        <time>2019-06-09T07:40:22.000Z</time>
      </trkpt>
      <trkpt lat="43.29616" lon="2.22295">
        <ele>141.2</ele>
        <time>2019-06-09T07:40:23.000Z</time>
      </trkpt>
      <trkpt lat="43.29615" lon="2.22296">
        <ele>141.2</ele>
        <time>2019-06-09T07:40:24.000Z</time>
      </trkpt>
      <trkpt lat="43.29613" lon="2.22297">
        <ele>141.2</ele>
        <time>2019-06-09T07:40:25.000Z</time>
      </trkpt>
      <trkpt lat="43.29612" lon="2.22297">
        <ele>141.2</ele>
        <time>2019-06-09T07:40:26.000Z</time>
      </trkpt>
      <trkpt lat="43.29611" lon="2.22298">
        <ele>141.3</ele>
        <time>2019-06-09T07:40:27.000Z</time>
      </trkpt>
      <trkpt lat="43.29609" lon="2.22299">
        <ele>141.3</ele>
        <time>2019-06-09T07:40:28.000Z</time>
      </trkpt>
      <trkpt lat="43.29608" lon="2.223">
        <ele>141.3</ele>
        <time>2019-06-09T07:40:29.000Z</time>
      </trkpt>
      <trkpt lat="43.29607" lon="2.223">
        <ele>141.3</ele>
        <time>2019-06-09T07:40:30.000Z</time>
      </trkpt>
      <trkpt lat="43.29606" lon="2.22301">
        <ele>141.3</ele>
        <time>2019-06-09T07:40:31.000Z</time>
      </trkpt>
      <trkpt lat="43.29604" lon="2.22302">
        <ele>141.4</ele>
        <time>2019-06-09T07:40:32.000Z</time>
      </trkpt>
      <trkpt lat="43.29603" lon="2.22303">
        <ele>141.4</ele>
        <time>2019-06-09T07:40:33.000Z</time>
      </trkpt>
      <trkpt lat="43.29602" lon="2.22304">
        <ele>141.4</ele>
        <time>2019-06-09T07:40:34.000Z</time>
      </trkpt>
      <trkpt lat="43.29601" lon="2.22305">
        <ele>141.4</ele>
        <time>2019-06-09T07:40:35.000Z</time>
      </trkpt>
      <trkpt lat="43.29599" lon="2.22306">
        <ele>141.5</ele>
        <time>2019-06-09T07:40:36.000Z</time>
      </trkpt>
      <trkpt lat="43.29598" lon="2.22307">
        <ele>141.5</ele>
        <time>2019-06-09T07:40:37.000Z</time>
      </trkpt>
      <trkpt lat="43.29597" lon="2.22308">
        <ele>141.6</ele>
        <time>2019-06-09T07:40:38.000Z</time>
      </trkpt>
      <trkpt lat="43.29596" lon="2.22309">
        <ele>141.6</ele>
        <time>2019-06-09T07:40:39.000Z</time>
      </trkpt>
      <trkpt lat="43.29595" lon="2.2231">
        <ele>141.6</ele>
        <time>2019-06-09T07:40:40.000Z</time>
      </trkpt>
      <trkpt lat="43.29594" lon="2.22312">
        <ele>141.7</ele>
        <time>2019-06-09T07:40:41.000Z</time>
      </trkpt>
      <trkpt lat="43.29593" lon="2.22313">
        <ele>141.8</ele>
        <time>2019-06-09T07:40:42.000Z</time>
      </trkpt>
      <trkpt lat="43.29592" lon="2.22314">
        <ele>141.8</ele>
        <time>2019-06-09T07:40:43.000Z</time>
      </trkpt>
      <trkpt lat="43.29591" lon="2.22315">
        <ele>141.9</ele>
        <time>2019-06-09T07:40:44.000Z</time>
      </trkpt>
      <trkpt lat="43.2959" lon="2.22317">
        <ele>141.9</ele>
        <time>2019-06-09T07:40:45.000Z</time>
      </trkpt>
      <trkpt lat="43.29589" lon="2.22318">
        <ele>142</ele>
        <time>2019-06-09T07:40:46.000Z</time>
      </trkpt>
      <trkpt lat="43.29588" lon="2.22319">
        <ele>142.1</ele>
        <time>2019-06-09T07:40:47.000Z</time>
      </trkpt>
      <trkpt lat="43.29587" lon="2.22321">
        <ele>142.2</ele>
        <time>2019-06-09T07:40:48.000Z</time>
      </trkpt>
      <trkpt lat="43.29586" lon="2.22323">
        <ele>142.3</ele>
        <time>2019-06-09T07:40:49.000Z</time>
      </trkpt>
      <trkpt lat="43.29585" lon="2.22325">
        <ele>142.3</ele>
        <time>2019-06-09T07:40:50.000Z</time>
      </trkpt>
      <trkpt lat="43.29584" lon="2.22326">
        <ele>142.4</ele>
        <time>2019-06-09T07:40:51.000Z</time>
      </trkpt>
      <trkpt lat="43.29583" lon="2.22328">
        <ele>142.5</ele>
        <time>2019-06-09T07:40:52.000Z</time>
      </trkpt>
      <trkpt lat="43.29582" lon="2.2233">
        <ele>142.7</ele>
        <time>2019-06-09T07:40:53.000Z</time>
      </trkpt>
      <trkpt lat="43.29581" lon="2.22331">
        <ele>142.8</ele>
        <time>2019-06-09T07:40:54.000Z</time>
      </trkpt>
      <trkpt lat="43.2958" lon="2.22333">
        <ele>142.9</ele>
        <time>2019-06-09T07:40:55.000Z</time>
      </trkpt>
      <trkpt lat="43.29579" lon="2.22334">
        <ele>143</ele>
        <time>2019-06-09T07:40:56.000Z</time>
      </trkpt>
      <trkpt lat="43.29578" lon="2.22335">
        <ele>143.1</ele>
        <time>2019-06-09T07:40:57.000Z</time>
      </trkpt>
      <trkpt lat="43.29578" lon="2.22336">
        <ele>143.1</ele>
        <time>2019-06-09T07:40:58.000Z</time>
      </trkpt>
      <trkpt lat="43.29577" lon="2.22337">
        <ele>143.2</ele>
        <time>2019-06-09T07:40:59.000Z</time>
      </trkpt>
      <trkpt lat="43.29577" lon="2.22337">
        <ele>143.3</ele>
        <time>2019-06-09T07:41:00.000Z</time>
      </trkpt>
      <trkpt lat="43.29576" lon="2.22338">
        <ele>143.3</ele>
        <time>2019-06-09T07:41:01.000Z</time>
      </trkpt>
      <trkpt lat="43.29575" lon="2.22339">
        <ele>143.4</ele>
        <time>2019-06-09T07:41:02.000Z</time>
      </trkpt>
      <trkpt lat="43.29575" lon="2.22339">
        <ele>143.5</ele>
        <time>2019-06-09T07:41:03.000Z</time>
      </trkpt>
      <trkpt lat="43.29574" lon="2.2234">
        <ele>143.6</ele>
        <time>2019-06-09T07:41:04.000Z</time>
      </trkpt>
      <trkpt lat="43.29574" lon="2.22341">
        <ele>143.6</ele>
        <time>2019-06-09T07:41:05.000Z</time>
      </trkpt>
      <trkpt lat="43.29573" lon="2.22342">
        <ele>143.7</ele>
        <time>2019-06-09T07:41:06.000Z</time>
      </trkpt>
      <trkpt lat="43.29572" lon="2.22343">
        <ele>143.9</ele>
        <time>2019-06-09T07:41:07.000Z</time>
      </trkpt>
      <trkpt lat="43.2957" lon="2.22345">
        <ele>144</ele>
        <time>2019-06-09T07:41:08.000Z</time>
      </trkpt>
      <trkpt lat="43.29569" lon="2.22346">
        <ele>144.2</ele>
        <time>2019-06-09T07:41:09.000Z</time>
      </trkpt>
      <trkpt lat="43.29567" lon="2.22348">
        <ele>144.4</ele>
        <time>2019-06-09T07:41:10.000Z</time>
      </trkpt>
      <trkpt lat="43.29565" lon="2.2235">
        <ele>144.6</ele>
        <time>2019-06-09T07:41:11.000Z</time>
      </trkpt>
      <trkpt lat="43.29564" lon="2.22352">
        <ele>144.8</ele>
        <time>2019-06-09T07:41:12.000Z</time>
      </trkpt>
      <trkpt lat="43.29562" lon="2.22354">
        <ele>145</ele>
        <time>2019-06-09T07:41:13.000Z</time>
      </trkpt>
      <trkpt lat="43.2956" lon="2.22355">
        <ele>145.3</ele>
        <time>2019-06-09T07:41:14.000Z</time>
      </trkpt>
      <trkpt lat="43.29559" lon="2.22357">
        <ele>145.5</ele>
        <time>2019-06-09T07:41:15.000Z</time>
      </trkpt>
      <trkpt lat="43.29557" lon="2.22359">
        <ele>145.8</ele>
        <time>2019-06-09T07:41:16.000Z</time>
      </trkpt>
      <trkpt lat="43.29556" lon="2.22361">
        <ele>146</ele>
        <time>2019-06-09T07:41:17.000Z</time>
      </trkpt>
      <trkpt lat="43.29554" lon="2.22363">
        <ele>146.3</ele>
        <time>2019-06-09T07:41:18.000Z</time>
      </trkpt>
      <trkpt lat="43.29553" lon="2.22365">
        <ele>146.5</ele>
        <time>2019-06-09T07:41:19.000Z</time>
      </trkpt>
      <trkpt lat="43.29552" lon="2.22367">
        <ele>146.8</ele>
        <time>2019-06-09T07:41:20.000Z</time>
      </trkpt>
      <trkpt lat="43.2955" lon="2.22369">
        <ele>147.1</ele>
        <time>2019-06-09T07:41:21.000Z</time>
      </trkpt>
      <trkpt lat="43.29549" lon="2.22371">
        <ele>147.3</ele>
        <time>2019-06-09T07:41:22.000Z</time>
      </trkpt>
      <trkpt lat="43.29548" lon="2.22373">
        <ele>147.6</ele>
        <time>2019-06-09T07:41:23.000Z</time>
      </trkpt>
      <trkpt lat="43.29547" lon="2.22375">
        <ele>147.9</ele>
        <time>2019-06-09T07:41:24.000Z</time>
      </trkpt>
      <trkpt lat="43.29546" lon="2.22378">
        <ele>148.3</ele>
        <time>2019-06-09T07:41:25.000Z</time>
      </trkpt>
      <trkpt lat="43.29545" lon="2.2238">
        <ele>148.7</ele>
        <time>2019-06-09T07:41:26.000Z</time>
      </trkpt>
      <trkpt lat="43.29545" lon="2.22383">
        <ele>149.1</ele>
        <time>2019-06-09T07:41:27.000Z</time>
      </trkpt>
      <trkpt lat="43.29544" lon="2.22386">
        <ele>149.5</ele>
        <time>2019-06-09T07:41:28.000Z</time>
      </trkpt>
      <trkpt lat="43.29543" lon="2.22389">
        <ele>150</ele>
        <time>2019-06-09T07:41:29.000Z</time>
      </trkpt>
      <trkpt lat="43.29542" lon="2.22393">
        <ele>150.5</ele>
        <time>2019-06-09T07:41:30.000Z</time>
      </trkpt>
      <trkpt lat="43.29541" lon="2.22396">
        <ele>151</ele>
        <time>2019-06-09T07:41:31.000Z</time>
      </trkpt>
      <trkpt lat="43.29541" lon="2.22399">
        <ele>151.5</ele>
        <time>2019-06-09T07:41:32.000Z</time>
      </trkpt>
      <trkpt lat="43.2954" lon="2.22402">
        <ele>152</ele>
        <time>2019-06-09T07:41:33.000Z</time>
      </trkpt>
      <trkpt lat="43.29539" lon="2.22405">
        <ele>152.4</ele>
        <time>2019-06-09T07:41:34.000Z</time>
      </trkpt>
      <trkpt lat="43.29538" lon="2.22408">
        <ele>152.9</ele>
        <time>2019-06-09T07:41:35.000Z</time>
      </trkpt>
      <trkpt lat="43.29537" lon="2.2241">
        <ele>153.3</ele>
        <time>2019-06-09T07:41:36.000Z</time>
      </trkpt>
      <trkpt lat="43.29536" lon="2.22412">
        <ele>153.6</ele>
        <time>2019-06-09T07:41:37.000Z</time>
      </trkpt>
      <trkpt lat="43.29535" lon="2.22414">
        <ele>154</ele>
        <time>2019-06-09T07:41:38.000Z</time>
      </trkpt>
      <trkpt lat="43.29534" lon="2.22416">
        <ele>154.2</ele>
        <time>2019-06-09T07:41:39.000Z</time>
      </trkpt>
      <trkpt lat="43.29533" lon="2.22417">
        <ele>154.5</ele>
        <time>2019-06-09T07:41:40.000Z</time>
      </trkpt>
      <trkpt lat="43.29532" lon="2.22418">
        <ele>154.6</ele>
        <time>2019-06-09T07:41:41.000Z</time>
      </trkpt>
      <trkpt lat="43.29531" lon="2.22418">
        <ele>154.7</ele>
        <time>2019-06-09T07:41:42.000Z</time>
      </trkpt>
      <trkpt lat="43.2953" lon="2.22418">
        <ele>154.7</ele>
        <time>2019-06-09T07:41:43.000Z</time>
      </trkpt>
      <trkpt lat="43.29529" lon="2.22418">
        <ele>154.7</ele>
        <time>2019-06-09T07:41:44.000Z</time>
      </trkpt>
      <trkpt lat="43.29528" lon="2.22417">
        <ele>154.7</ele>
        <time>2019-06-09T07:41:45.000Z</time>
      </trkpt>
      <trkpt lat="43.29527" lon="2.22417">
        <ele>154.7</ele>
        <time>2019-06-09T07:41:46.000Z</time>
      </trkpt>
      <trkpt lat="43.29527" lon="2.22416">
        <ele>154.6</ele>
        <time>2019-06-09T07:41:47.000Z</time>
      </trkpt>
      <trkpt lat="43.29526" lon="2.22415">
        <ele>154.5</ele>
        <time>2019-06-09T07:41:48.000Z</time>
      </trkpt>
      <trkpt lat="43.29525" lon="2.22414">
        <ele>154.3</ele>
        <time>2019-06-09T07:41:49.000Z</time>
      </trkpt>
      <trkpt lat="43.29524" lon="2.22413">
        <ele>154.2</ele>
        <time>2019-06-09T07:41:50.000Z</time>
      </trkpt>
      <trkpt lat="43.29524" lon="2.22412">
        <ele>154.1</ele>
        <time>2019-06-09T07:41:51.000Z</time>
      </trkpt>
      <trkpt lat="43.29523" lon="2.22411">
        <ele>153.9</ele>
        <time>2019-06-09T07:41:52.000Z</time>
      </trkpt>
      <trkpt lat="43.29522" lon="2.22409">
        <ele>153.7</ele>
        <time>2019-06-09T07:41:53.000Z</time>
      </trkpt>
      <trkpt lat="43.29521" lon="2.22408">
        <ele>153.5</ele>
        <time>2019-06-09T07:41:54.000Z</time>
      </trkpt>
      <trkpt lat="43.29521" lon="2.22406">
        <ele>153.3</ele>
        <time>2019-06-09T07:41:55.000Z</time>
      </trkpt>
      <trkpt lat="43.2952" lon="2.22404">
        <ele>153</ele>
        <time>2019-06-09T07:41:56.000Z</time>
      </trkpt>
      <trkpt lat="43.29519" lon="2.22402">
        <ele>152.7</ele>
        <time>2019-06-09T07:41:57.000Z</time>
      </trkpt>
      <trkpt lat="43.29518" lon="2.224">
        <ele>152.4</ele>
        <time>2019-06-09T07:41:58.000Z</time>
      </trkpt>
      <trkpt lat="43.29517" lon="2.22398">
        <ele>152</ele>
        <time>2019-06-09T07:41:59.000Z</time>
      </trkpt>
      <trkpt lat="43.29515" lon="2.22395">
        <ele>151.6</ele>
        <time>2019-06-09T07:42:00.000Z</time>
      </trkpt>
      <trkpt lat="43.29514" lon="2.22393">
        <ele>151.3</ele>
        <time>2019-06-09T07:42:01.000Z</time>
      </trkpt>
      <trkpt lat="43.29513" lon="2.2239">
        <ele>150.9</ele>
        <time>2019-06-09T07:42:02.000Z</time>
      </trkpt>
      <trkpt lat="43.29512" lon="2.22388">
        <ele>150.6</ele>
        <time>2019-06-09T07:42:03.000Z</time>
      </trkpt>
      <trkpt lat="43.2951" lon="2.22386">
        <ele>150.3</ele>
        <time>2019-06-09T07:42:04.000Z</time>
      </trkpt>
      <trkpt lat="43.29508" lon="2.22384">
        <ele>150</ele>
        <time>2019-06-09T07:42:05.000Z</time>
      </trkpt>
      <trkpt lat="43.29507" lon="2.22383">
        <ele>149.8</ele>
        <time>2019-06-09T07:42:06.000Z</time>
      </trkpt>
      <trkpt lat="43.29505" lon="2.22381">
        <ele>149.6</ele>
        <time>2019-06-09T07:42:07.000Z</time>
      </trkpt>
      <trkpt lat="43.29503" lon="2.2238">
        <ele>149.4</ele>
        <time>2019-06-09T07:42:08.000Z</time>
      </trkpt>
      <trkpt lat="43.29502" lon="2.2238">
        <ele>149.3</ele>
        <time>2019-06-09T07:42:09.000Z</time>
      </trkpt>
      <trkpt lat="43.295" lon="2.22379">
        <ele>149.3</ele>
        <time>2019-06-09T07:42:10.000Z</time>
      </trkpt>
      <trkpt lat="43.29499" lon="2.22379">
        <ele>149.2</ele>
        <time>2019-06-09T07:42:11.000Z</time>
      </trkpt>
      <trkpt lat="43.29497" lon="2.2238">
        <ele>149.3</ele>
        <time>2019-06-09T07:42:12.000Z</time>
      </trkpt>
      <trkpt lat="43.29496" lon="2.2238">
        <ele>149.4</ele>
        <time>2019-06-09T07:42:13.000Z</time>
      </trkpt>
      <trkpt lat="43.29494" lon="2.22381">
        <ele>149.6</ele>
        <time>2019-06-09T07:42:14.000Z</time>
      </trkpt>
      <trkpt lat="43.29493" lon="2.22382">
        <ele>149.8</ele>
        <time>2019-06-09T07:42:15.000Z</time>
      </trkpt>
      <trkpt lat="43.29492" lon="2.22384">
        <ele>150.1</ele>
        <time>2019-06-09T07:42:16.000Z</time>
      </trkpt>
      <trkpt lat="43.29491" lon="2.22386">
        <ele>150.4</ele>
        <time>2019-06-09T07:42:17.000Z</time>
      </trkpt>
      <trkpt lat="43.2949" lon="2.22388">
        <ele>150.7</ele>
        <time>2019-06-09T07:42:18.000Z</time>
      </trkpt>
      <trkpt lat="43.29489" lon="2.22389">
        <ele>151.1</ele>
        <time>2019-06-09T07:42:19.000Z</time>
      </trkpt>
      <trkpt lat="43.29487" lon="2.22391">
        <ele>151.4</ele>
        <time>2019-06-09T07:42:20.000Z</time>
      </trkpt>
      <trkpt lat="43.29486" lon="2.22393">
        <ele>151.7</ele>
        <time>2019-06-09T07:42:21.000Z</time>
      </trkpt>
      <trkpt lat="43.29485" lon="2.22395">
        <ele>152.1</ele>
        <time>2019-06-09T07:42:22.000Z</time>
      </trkpt>
      <trkpt lat="43.29484" lon="2.22397">
        <ele>152.4</ele>
        <time>2019-06-09T07:42:23.000Z</time>
      </trkpt>
      <trkpt lat="43.29484" lon="2.22399">
        <ele>152.9</ele>
        <time>2019-06-09T07:42:24.000Z</time>
      </trkpt>
      <trkpt lat="43.29484" lon="2.22402">
        <ele>153.4</ele>
        <time>2019-06-09T07:42:25.000Z</time>
      </trkpt>
      <trkpt lat="43.29484" lon="2.22405">
        <ele>153.9</ele>
        <time>2019-06-09T07:42:26.000Z</time>
      </trkpt>
      <trkpt lat="43.29484" lon="2.22407">
        <ele>154.4</ele>
        <time>2019-06-09T07:42:27.000Z</time>
      </trkpt>
      <trkpt lat="43.29484" lon="2.2241">
        <ele>155</ele>
        <time>2019-06-09T07:42:28.000Z</time>
      </trkpt>
      <trkpt lat="43.29485" lon="2.22413">
        <ele>155.5</ele>
        <time>2019-06-09T07:42:29.000Z</time>
      </trkpt>
      <trkpt lat="43.29485" lon="2.22416">
        <ele>156.1</ele>
        <time>2019-06-09T07:42:30.000Z</time>
      </trkpt>
      <trkpt lat="43.29485" lon="2.22419">
        <ele>156.5</ele>
        <time>2019-06-09T07:42:31.000Z</time>
      </trkpt>
      <trkpt lat="43.29486" lon="2.22422">
        <ele>156.9</ele>
        <time>2019-06-09T07:42:32.000Z</time>
      </trkpt>
      <trkpt lat="43.29486" lon="2.22425">
        <ele>157.3</ele>
        <time>2019-06-09T07:42:33.000Z</time>
      </trkpt>
      <trkpt lat="43.29486" lon="2.22427">
        <ele>157.7</ele>
        <time>2019-06-09T07:42:34.000Z</time>
      </trkpt>
      <trkpt lat="43.29486" lon="2.22429">
        <ele>158</ele>
        <time>2019-06-09T07:42:35.000Z</time>
      </trkpt>
      <trkpt lat="43.29486" lon="2.22432">
        <ele>158.3</ele>
        <time>2019-06-09T07:42:36.000Z</time>
      </trkpt>
      <trkpt lat="43.29486" lon="2.22434">
        <ele>158.6</ele>
        <time>2019-06-09T07:42:37.000Z</time>
      </trkpt>
      <trkpt lat="43.29486" lon="2.22436">
        <ele>158.9</ele>
        <time>2019-06-09T07:42:38.000Z</time>
      </trkpt>
      <trkpt lat="43.29486" lon="2.22438">
        <ele>159.2</ele>
        <time>2019-06-09T07:42:39.000Z</time>
      </trkpt>
      <trkpt lat="43.29486" lon="2.2244">
        <ele>159.5</ele>
        <time>2019-06-09T07:42:40.000Z</time>
      </trkpt>
      <trkpt lat="43.29486" lon="2.22442">
        <ele>159.8</ele>
        <time>2019-06-09T07:42:41.000Z</time>
      </trkpt>
      <trkpt lat="43.29486" lon="2.22444">
        <ele>160</ele>
        <time>2019-06-09T07:42:42.000Z</time>
      </trkpt>
      <trkpt lat="43.29487" lon="2.22446">
        <ele>160.3</ele>
        <time>2019-06-09T07:42:43.000Z</time>
      </trkpt>
      <trkpt lat="43.29487" lon="2.22448">
        <ele>160.6</ele>
        <time>2019-06-09T07:42:44.000Z</time>
      </trkpt>
      <trkpt lat="43.29488" lon="2.22451">
        <ele>160.8</ele>
        <time>2019-06-09T07:42:45.000Z</time>
      </trkpt>
      <trkpt lat="43.29489" lon="2.22453">
        <ele>161.1</ele>
        <time>2019-06-09T07:42:46.000Z</time>
      </trkpt>
      <trkpt lat="43.2949" lon="2.22455">
        <ele>161.3</ele>
        <time>2019-06-09T07:42:47.000Z</time>
      </trkpt>
      <trkpt lat="43.29491" lon="2.22457">
        <ele>161.5</ele>
        <time>2019-06-09T07:42:48.000Z</time>
      </trkpt>
      <trkpt lat="43.29491" lon="2.22458">
        <ele>161.7</ele>
        <time>2019-06-09T07:42:49.000Z</time>
      </trkpt>
      <trkpt lat="43.29492" lon="2.2246">
        <ele>161.9</ele>
        <time>2019-06-09T07:42:50.000Z</time>
      </trkpt>
      <trkpt lat="43.29492" lon="2.22461">
        <ele>162</ele>
        <time>2019-06-09T07:42:51.000Z</time>
      </trkpt>
      <trkpt lat="43.29492" lon="2.22462">
        <ele>162.1</ele>
        <time>2019-06-09T07:42:52.000Z</time>
      </trkpt>
      <trkpt lat="43.29493" lon="2.22463">
        <ele>162.1</ele>
        <time>2019-06-09T07:42:53.000Z</time>
      </trkpt>
      <trkpt lat="43.29493" lon="2.22463">
        <ele>162.1</ele>
        <time>2019-06-09T07:42:54.000Z</time>
      </trkpt>
      <trkpt lat="43.29494" lon="2.22463">
        <ele>162.1</ele>
        <time>2019-06-09T07:42:55.000Z</time>
      </trkpt>
      <trkpt lat="43.29495" lon="2.22463">
        <ele>162</ele>
        <time>2019-06-09T07:42:56.000Z</time>
      </trkpt>
      <trkpt lat="43.29495" lon="2.22463">
        <ele>162</ele>
        <time>2019-06-09T07:42:57.000Z</time>
      </trkpt>
      <trkpt lat="43.29496" lon="2.22464">
        <ele>162</ele>
        <time>2019-06-09T07:42:58.000Z</time>
      </trkpt>
      <trkpt lat="43.29497" lon="2.22464">
        <ele>162</ele>
        <time>2019-06-09T07:42:59.000Z</time>
      </trkpt>
      <trkpt lat="43.29498" lon="2.22465">
        <ele>162.1</ele>
        <time>2019-06-09T07:43:00.000Z</time>
      </trkpt>
      <trkpt lat="43.29498" lon="2.22467">
        <ele>162.2</ele>
        <time>2019-06-09T07:43:01.000Z</time>
      </trkpt>
      <trkpt lat="43.29499" lon="2.22468">
        <ele>162.3</ele>
        <time>2019-06-09T07:43:02.000Z</time>
      </trkpt>
      <trkpt lat="43.29499" lon="2.2247">
        <ele>162.5</ele>
        <time>2019-06-09T07:43:03.000Z</time>
      </trkpt>
      <trkpt lat="43.29499" lon="2.22472">
        <ele>162.7</ele>
        <time>2019-06-09T07:43:04.000Z</time>
      </trkpt>
      <trkpt lat="43.29499" lon="2.22473">
        <ele>162.9</ele>
        <time>2019-06-09T07:43:05.000Z</time>
      </trkpt>
      <trkpt lat="43.29499" lon="2.22475">
        <ele>163.2</ele>
        <time>2019-06-09T07:43:06.000Z</time>
      </trkpt>
      <trkpt lat="43.29499" lon="2.22478">
        <ele>163.5</ele>
        <time>2019-06-09T07:43:07.000Z</time>
      </trkpt>
      <trkpt lat="43.29498" lon="2.2248">
        <ele>163.8</ele>
        <time>2019-06-09T07:43:08.000Z</time>
      </trkpt>
      <trkpt lat="43.29498" lon="2.22482">
        <ele>164.1</ele>
        <time>2019-06-09T07:43:09.000Z</time>
      </trkpt>
      <trkpt lat="43.29498" lon="2.22484">
        <ele>164.4</ele>
        <time>2019-06-09T07:43:10.000Z</time>
      </trkpt>
      <trkpt lat="43.29497" lon="2.22487">
        <ele>164.7</ele>
        <time>2019-06-09T07:43:11.000Z</time>
      </trkpt>
      <trkpt lat="43.29497" lon="2.22489">
        <ele>165.1</ele>
        <time>2019-06-09T07:43:12.000Z</time>
      </trkpt>
      <trkpt lat="43.29496" lon="2.22492">
        <ele>165.4</ele>
        <time>2019-06-09T07:43:13.000Z</time>
      </trkpt>
      <trkpt lat="43.29496" lon="2.22494">
        <ele>165.8</ele>
        <time>2019-06-09T07:43:14.000Z</time>
      </trkpt>
      <trkpt lat="43.29495" lon="2.22496">
        <ele>166.2</ele>
        <time>2019-06-09T07:43:15.000Z</time>
      </trkpt>
      <trkpt lat="43.29495" lon="2.22499">
        <ele>166.6</ele>
        <time>2019-06-09T07:43:16.000Z</time>
      </trkpt>
      <trkpt lat="43.29494" lon="2.22501">
        <ele>166.9</ele>
        <time>2019-06-09T07:43:17.000Z</time>
      </trkpt>
      <trkpt lat="43.29494" lon="2.22504">
        <ele>167.2</ele>
        <time>2019-06-09T07:43:18.000Z</time>
      </trkpt>
      <trkpt lat="43.29493" lon="2.22506">
        <ele>167.5</ele>
        <time>2019-06-09T07:43:19.000Z</time>
      </trkpt>
      <trkpt lat="43.29492" lon="2.22508">
        <ele>167.8</ele>
        <time>2019-06-09T07:43:20.000Z</time>
      </trkpt>
      <trkpt lat="43.29492" lon="2.2251">
        <ele>168.1</ele>
        <time>2019-06-09T07:43:21.000Z</time>
      </trkpt>
      <trkpt lat="43.29491" lon="2.22512">
        <ele>168.4</ele>
        <time>2019-06-09T07:43:22.000Z</time>
      </trkpt>
      <trkpt lat="43.2949" lon="2.22514">
        <ele>168.7</ele>
        <time>2019-06-09T07:43:23.000Z</time>
      </trkpt>
      <trkpt lat="43.29489" lon="2.22516">
        <ele>169</ele>
        <time>2019-06-09T07:43:24.000Z</time>
      </trkpt>
      <trkpt lat="43.29488" lon="2.22518">
        <ele>169.4</ele>
        <time>2019-06-09T07:43:25.000Z</time>
      </trkpt>
      <trkpt lat="43.29487" lon="2.22519">
        <ele>169.7</ele>
        <time>2019-06-09T07:43:26.000Z</time>
      </trkpt>
      <trkpt lat="43.29486" lon="2.22521">
        <ele>170</ele>
        <time>2019-06-09T07:43:27.000Z</time>
      </trkpt>
      <trkpt lat="43.29485" lon="2.22522">
        <ele>170.3</ele>
        <time>2019-06-09T07:43:28.000Z</time>
      </trkpt>
      <trkpt lat="43.29485" lon="2.22524">
        <ele>170.6</ele>
        <time>2019-06-09T07:43:29.000Z</time>
      </trkpt>
      <trkpt lat="43.29484" lon="2.22525">
        <ele>170.9</ele>
        <time>2019-06-09T07:43:30.000Z</time>
      </trkpt>
      <trkpt lat="43.29483" lon="2.22527">
        <ele>171.2</ele>
        <time>2019-06-09T07:43:31.000Z</time>
      </trkpt>
      <trkpt lat="43.29482" lon="2.22528">
        <ele>171.4</ele>
        <time>2019-06-09T07:43:32.000Z</time>
      </trkpt>
      <trkpt lat="43.29482" lon="2.22529">
        <ele>171.7</ele>
        <time>2019-06-09T07:43:33.000Z</time>
      </trkpt>
      <trkpt lat="43.29481" lon="2.22531">
        <ele>171.9</ele>
        <time>2019-06-09T07:43:34.000Z</time>
      </trkpt>
      <trkpt lat="43.29481" lon="2.22532">
        <ele>172.1</ele>
        <time>2019-06-09T07:43:35.000Z</time>
      </trkpt>
      <trkpt lat="43.2948" lon="2.22533">
        <ele>172.3</ele>
        <time>2019-06-09T07:43:36.000Z</time>
      </trkpt>
      <trkpt lat="43.2948" lon="2.22534">
        <ele>172.5</ele>
        <time>2019-06-09T07:43:37.000Z</time>
      </trkpt>
      <trkpt lat="43.2948" lon="2.22536">
        <ele>172.7</ele>
        <time>2019-06-09T07:43:38.000Z</time>
      </trkpt>
      <trkpt lat="43.2948" lon="2.22537">
        <ele>172.8</ele>
        <time>2019-06-09T07:43:39.000Z</time>
      </trkpt>
      <trkpt lat="43.2948" lon="2.22538">
        <ele>173</ele>
        <time>2019-06-09T07:43:40.000Z</time>
      </trkpt>
      <trkpt lat="43.2948" lon="2.2254">
        <ele>173.1</ele>
        <time>2019-06-09T07:43:41.000Z</time>
      </trkpt>
      <trkpt lat="43.2948" lon="2.22541">
        <ele>173.2</ele>
        <time>2019-06-09T07:43:42.000Z</time>
      </trkpt>
      <trkpt lat="43.29481" lon="2.22542">
        <ele>173.3</ele>
        <time>2019-06-09T07:43:43.000Z</time>
      </trkpt>
      <trkpt lat="43.29481" lon="2.22544">
        <ele>173.4</ele>
        <time>2019-06-09T07:43:44.000Z</time>
      </trkpt>
      <trkpt lat="43.29481" lon="2.22546">
        <ele>173.5</ele>
        <time>2019-06-09T07:43:45.000Z</time>
      </trkpt>
      <trkpt lat="43.29482" lon="2.22547">
        <ele>173.5</ele>
        <time>2019-06-09T07:43:46.000Z</time>
      </trkpt>
      <trkpt lat="43.29482" lon="2.22549">
        <ele>173.6</ele>
        <time>2019-06-09T07:43:47.000Z</time>
      </trkpt>
      <trkpt lat="43.29483" lon="2.22551">
        <ele>173.7</ele>
        <time>2019-06-09T07:43:48.000Z</time>
      </trkpt>
      <trkpt lat="43.29483" lon="2.22552">
        <ele>173.8</ele>
        <time>2019-06-09T07:43:49.000Z</time>
      </trkpt>
      <trkpt lat="43.29483" lon="2.22554">
        <ele>173.9</ele>
        <time>2019-06-09T07:43:50.000Z</time>
      </trkpt>
      <trkpt lat="43.29484" lon="2.22556">
        <ele>173.9</ele>
        <time>2019-06-09T07:43:51.000Z</time>
      </trkpt>
      <trkpt lat="43.29484" lon="2.22559">
        <ele>174</ele>
        <time>2019-06-09T07:43:52.000Z</time>
      </trkpt>
      <trkpt lat="43.29485" lon="2.22561">
        <ele>174.1</ele>
        <time>2019-06-09T07:43:53.000Z</time>
      </trkpt>
      <trkpt lat="43.29485" lon="2.22563">
        <ele>174.2</ele>
        <time>2019-06-09T07:43:54.000Z</time>
      </trkpt>
      <trkpt lat="43.29486" lon="2.22565">
        <ele>174.3</ele>
        <time>2019-06-09T07:43:55.000Z</time>
      </trkpt>
      <trkpt lat="43.29486" lon="2.22567">
        <ele>174.4</ele>
        <time>2019-06-09T07:43:56.000Z</time>
      </trkpt>
      <trkpt lat="43.29486" lon="2.22568">
        <ele>174.6</ele>
        <time>2019-06-09T07:43:57.000Z</time>
      </trkpt>
      <trkpt lat="43.29486" lon="2.2257">
        <ele>174.7</ele>
        <time>2019-06-09T07:43:58.000Z</time>
      </trkpt>
      <trkpt lat="43.29486" lon="2.22571">
        <ele>174.8</ele>
        <time>2019-06-09T07:43:59.000Z</time>
      </trkpt>
      <trkpt lat="43.29486" lon="2.22572">
        <ele>174.9</ele>
        <time>2019-06-09T07:44:00.000Z</time>
      </trkpt>
      <trkpt lat="43.29486" lon="2.22573">
        <ele>175</ele>
        <time>2019-06-09T07:44:01.000Z</time>
      </trkpt>
      <trkpt lat="43.29486" lon="2.22574">
        <ele>175.1</ele>
        <time>2019-06-09T07:44:02.000Z</time>
      </trkpt>
      <trkpt lat="43.29486" lon="2.22574">
        <ele>175.2</ele>
        <time>2019-06-09T07:44:03.000Z</time>
      </trkpt>
      <trkpt lat="43.29486" lon="2.22574">
        <ele>175.3</ele>
        <time>2019-06-09T07:44:04.000Z</time>
      </trkpt>
      <trkpt lat="43.29486" lon="2.22575">
        <ele>175.3</ele>
        <time>2019-06-09T07:44:05.000Z</time>
      </trkpt>
      <trkpt lat="43.29486" lon="2.22575">
        <ele>175.3</ele>
        <time>2019-06-09T07:44:06.000Z</time>
      </trkpt>
      <trkpt lat="43.29486" lon="2.22574">
        <ele>175.3</ele>
        <time>2019-06-09T07:44:07.000Z</time>
      </trkpt>
      <trkpt lat="43.29486" lon="2.22574">
        <ele>175.2</ele>
        <time>2019-06-09T07:44:08.000Z</time>
      </trkpt>
      <trkpt lat="43.29486" lon="2.22574">
        <ele>175.1</ele>
        <time>2019-06-09T07:44:09.000Z</time>
      </trkpt>
      <trkpt lat="43.29487" lon="2.22573">
        <ele>174.9</ele>
        <time>2019-06-09T07:44:10.000Z</time>
      </trkpt>
      <trkpt lat="43.29487" lon="2.22573">
        <ele>174.7</ele>
        <time>2019-06-09T07:44:11.000Z</time>
      </trkpt>
      <trkpt lat="43.29488" lon="2.22572">
        <ele>174.5</ele>
        <time>2019-06-09T07:44:12.000Z</time>
      </trkpt>
      <trkpt lat="43.29488" lon="2.22572">
        <ele>174.3</ele>
        <time>2019-06-09T07:44:13.000Z</time>
      </trkpt>
      <trkpt lat="43.29488" lon="2.22571">
        <ele>174.2</ele>
        <time>2019-06-09T07:44:14.000Z</time>
      </trkpt>
      <trkpt lat="43.29489" lon="2.22571">
        <ele>174.2</ele>
        <time>2019-06-09T07:44:15.000Z</time>
      </trkpt>
      <trkpt lat="43.29489" lon="2.22571">
        <ele>174.1</ele>
        <time>2019-06-09T07:44:16.000Z</time>
      </trkpt>
      <trkpt lat="43.29489" lon="2.22571">
        <ele>174.2</ele>
        <time>2019-06-09T07:44:17.000Z</time>
      </trkpt>
      <trkpt lat="43.29489" lon="2.22571">
        <ele>174.2</ele>
        <time>2019-06-09T07:44:18.000Z</time>
      </trkpt>
      <trkpt lat="43.29489" lon="2.22571">
        <ele>174.2</ele>
        <time>2019-06-09T07:44:19.000Z</time>
      </trkpt>
      <trkpt lat="43.29489" lon="2.22572">
        <ele>174.2</ele>
        <time>2019-06-09T07:44:20.000Z</time>
      </trkpt>
      <trkpt lat="43.29489" lon="2.22572">
        <ele>174.1</ele>
        <time>2019-06-09T07:44:21.000Z</time>
      </trkpt>
      <trkpt lat="43.29489" lon="2.22572">
        <ele>174.1</ele>
        <time>2019-06-09T07:44:22.000Z</time>
      </trkpt>
      <trkpt lat="43.2949" lon="2.22573">
        <ele>174</ele>
        <time>2019-06-09T07:44:23.000Z</time>
      </trkpt>
      <trkpt lat="43.2949" lon="2.22573">
        <ele>173.9</ele>
        <time>2019-06-09T07:44:24.000Z</time>
      </trkpt>
      <trkpt lat="43.29491" lon="2.22574">
        <ele>173.9</ele>
        <time>2019-06-09T07:44:25.000Z</time>
      </trkpt>
      <trkpt lat="43.2949" lon="2.22575">
        <ele>174</ele>
        <time>2019-06-09T07:44:26.000Z</time>
      </trkpt>
      <trkpt lat="43.2949" lon="2.22575">
        <ele>174.1</ele>
        <time>2019-06-09T07:44:27.000Z</time>
      </trkpt>
      <trkpt lat="43.2949" lon="2.22576">
        <ele>174.3</ele>
        <time>2019-06-09T07:44:28.000Z</time>
      </trkpt>
      <trkpt lat="43.2949" lon="2.22577">
        <ele>174.4</ele>
        <time>2019-06-09T07:44:29.000Z</time>
      </trkpt>
      <trkpt lat="43.29489" lon="2.22578">
        <ele>174.5</ele>
        <time>2019-06-09T07:44:30.000Z</time>
      </trkpt>
      <trkpt lat="43.29489" lon="2.22578">
        <ele>174.6</ele>
        <time>2019-06-09T07:44:31.000Z</time>
      </trkpt>
      <trkpt lat="43.29489" lon="2.22578">
        <ele>174.7</ele>
        <time>2019-06-09T07:44:32.000Z</time>
      </trkpt>
      <trkpt lat="43.29489" lon="2.22578">
        <ele>174.7</ele>
        <time>2019-06-09T07:44:33.000Z</time>
      </trkpt>
      <trkpt lat="43.29489" lon="2.22578">
        <ele>174.7</ele>
        <time>2019-06-09T07:44:34.000Z</time>
      </trkpt>
      <trkpt lat="43.29489" lon="2.22578">
        <ele>174.7</ele>
        <time>2019-06-09T07:44:35.000Z</time>
      </trkpt>
      <trkpt lat="43.29489" lon="2.22578">
        <ele>174.7</ele>
        <time>2019-06-09T07:44:36.000Z</time>
      </trkpt>
      <trkpt lat="43.29489" lon="2.22578">
        <ele>174.6</ele>
        <time>2019-06-09T07:44:37.000Z</time>
      </trkpt>
      <trkpt lat="43.29489" lon="2.22578">
        <ele>174.6</ele>
        <time>2019-06-09T07:44:38.000Z</time>
      </trkpt>
      <trkpt lat="43.29489" lon="2.22578">
        <ele>174.6</ele>
        <time>2019-06-09T07:44:39.000Z</time>
      </trkpt>
      <trkpt lat="43.29489" lon="2.22578">
        <ele>174.6</ele>
        <time>2019-06-09T07:44:40.000Z</time>
      </trkpt>
      <trkpt lat="43.29489" lon="2.22578">
        <ele>174.6</ele>
        <time>2019-06-09T07:44:41.000Z</time>
      </trkpt>
      <trkpt lat="43.29489" lon="2.22578">
        <ele>174.6</ele>
        <time>2019-06-09T07:44:42.000Z</time>
      </trkpt>
      <trkpt lat="43.29489" lon="2.22578">
        <ele>174.7</ele>
        <time>2019-06-09T07:44:43.000Z</time>
      </trkpt>
      <trkpt lat="43.29489" lon="2.22578">
        <ele>174.7</ele>
        <time>2019-06-09T07:44:44.000Z</time>
      </trkpt>
      <trkpt lat="43.29489" lon="2.22579">
        <ele>174.8</ele>
        <time>2019-06-09T07:44:45.000Z</time>
      </trkpt>
      <trkpt lat="43.29489" lon="2.22579">
        <ele>174.8</ele>
        <time>2019-06-09T07:44:46.000Z</time>
      </trkpt>
      <trkpt lat="43.29489" lon="2.22579">
        <ele>175</ele>
        <time>2019-06-09T07:44:47.000Z</time>
      </trkpt>
      <trkpt lat="43.29488" lon="2.2258">
        <ele>175.1</ele>
        <time>2019-06-09T07:44:48.000Z</time>
      </trkpt>
      <trkpt lat="43.29488" lon="2.2258">
        <ele>175.3</ele>
        <time>2019-06-09T07:44:49.000Z</time>
      </trkpt>
      <trkpt lat="43.29487" lon="2.22581">
        <ele>175.4</ele>
        <time>2019-06-09T07:44:50.000Z</time>
      </trkpt>
      <trkpt lat="43.29487" lon="2.22581">
        <ele>175.6</ele>
        <time>2019-06-09T07:44:51.000Z</time>
      </trkpt>
      <trkpt lat="43.29486" lon="2.22581">
        <ele>175.7</ele>
        <time>2019-06-09T07:44:52.000Z</time>
      </trkpt>
      <trkpt lat="43.29486" lon="2.22581">
        <ele>175.8</ele>
        <time>2019-06-09T07:44:53.000Z</time>
      </trkpt>
      <trkpt lat="43.29486" lon="2.22582">
        <ele>175.8</ele>
        <time>2019-06-09T07:44:54.000Z</time>
      </trkpt>
      <trkpt lat="43.29486" lon="2.22582">
        <ele>175.8</ele>
        <time>2019-06-09T07:44:55.000Z</time>
      </trkpt>
      <trkpt lat="43.29486" lon="2.22581">
        <ele>175.7</ele>
        <time>2019-06-09T07:44:56.000Z</time>
      </trkpt>
      <trkpt lat="43.29487" lon="2.22581">
        <ele>175.7</ele>
        <time>2019-06-09T07:44:57.000Z</time>
      </trkpt>
      <trkpt lat="43.29487" lon="2.22581">
        <ele>175.6</ele>
        <time>2019-06-09T07:44:58.000Z</time>
      </trkpt>
      <trkpt lat="43.29487" lon="2.22581">
        <ele>175.6</ele>
        <time>2019-06-09T07:44:59.000Z</time>
      </trkpt>
      <trkpt lat="43.29487" lon="2.22581">
        <ele>175.5</ele>
        <time>2019-06-09T07:45:00.000Z</time>
      </trkpt>
      <trkpt lat="43.29487" lon="2.22581">
        <ele>175.5</ele>
        <time>2019-06-09T07:45:01.000Z</time>
      </trkpt>
      <trkpt lat="43.29487" lon="2.22581">
        <ele>175.5</ele>
        <time>2019-06-09T07:45:02.000Z</time>
      </trkpt>
      <trkpt lat="43.29487" lon="2.22581">
        <ele>175.5</ele>
        <time>2019-06-09T07:45:03.000Z</time>
      </trkpt>
      <trkpt lat="43.29487" lon="2.22581">
        <ele>175.4</ele>
        <time>2019-06-09T07:45:04.000Z</time>
      </trkpt>
      <trkpt lat="43.29488" lon="2.2258">
        <ele>175.2</ele>
        <time>2019-06-09T07:45:05.000Z</time>
      </trkpt>
      <trkpt lat="43.29488" lon="2.2258">
        <ele>175</ele>
        <time>2019-06-09T07:45:06.000Z</time>
      </trkpt>
      <trkpt lat="43.29489" lon="2.2258">
        <ele>174.8</ele>
        <time>2019-06-09T07:45:07.000Z</time>
      </trkpt>
      <trkpt lat="43.2949" lon="2.2258">
        <ele>174.7</ele>
        <time>2019-06-09T07:45:08.000Z</time>
      </trkpt>
      <trkpt lat="43.2949" lon="2.22581">
        <ele>174.6</ele>
        <time>2019-06-09T07:45:09.000Z</time>
      </trkpt>
      <trkpt lat="43.29491" lon="2.22582">
        <ele>174.6</ele>
        <time>2019-06-09T07:45:10.000Z</time>
      </trkpt>
      <trkpt lat="43.29491" lon="2.22584">
        <ele>174.6</ele>
        <time>2019-06-09T07:45:11.000Z</time>
      </trkpt>
      <trkpt lat="43.29491" lon="2.22585">
        <ele>174.6</ele>
        <time>2019-06-09T07:45:12.000Z</time>
      </trkpt>
      <trkpt lat="43.29491" lon="2.22586">
        <ele>174.6</ele>
        <time>2019-06-09T07:45:13.000Z</time>
      </trkpt>
      <trkpt lat="43.29491" lon="2.22587">
        <ele>174.6</ele>
        <time>2019-06-09T07:45:14.000Z</time>
      </trkpt>
      <trkpt lat="43.29491" lon="2.22588">
        <ele>174.6</ele>
        <time>2019-06-09T07:45:15.000Z</time>
      </trkpt>
      <trkpt lat="43.29491" lon="2.22589">
        <ele>174.5</ele>
        <time>2019-06-09T07:45:16.000Z</time>
      </trkpt>
      <trkpt lat="43.29491" lon="2.2259">
        <ele>174.5</ele>
        <time>2019-06-09T07:45:17.000Z</time>
      </trkpt>
      <trkpt lat="43.29491" lon="2.22591">
        <ele>174.5</ele>
        <time>2019-06-09T07:45:18.000Z</time>
      </trkpt>
      <trkpt lat="43.29491" lon="2.22592">
        <ele>174.5</ele>
        <time>2019-06-09T07:45:19.000Z</time>
      </trkpt>
      <trkpt lat="43.2949" lon="2.22594">
        <ele>174.5</ele>
        <time>2019-06-09T07:45:20.000Z</time>
      </trkpt>
      <trkpt lat="43.2949" lon="2.22595">
        <ele>174.5</ele>
        <time>2019-06-09T07:45:21.000Z</time>
      </trkpt>
      <trkpt lat="43.2949" lon="2.22597">
        <ele>174.6</ele>
        <time>2019-06-09T07:45:22.000Z</time>
      </trkpt>
      <trkpt lat="43.29489" lon="2.22599">
        <ele>174.6</ele>
        <time>2019-06-09T07:45:23.000Z</time>
      </trkpt>
      <trkpt lat="43.29489" lon="2.22601">
        <ele>174.7</ele>
        <time>2019-06-09T07:45:24.000Z</time>
      </trkpt>
      <trkpt lat="43.29489" lon="2.22603">
        <ele>174.8</ele>
        <time>2019-06-09T07:45:25.000Z</time>
      </trkpt>
      <trkpt lat="43.29488" lon="2.22604">
        <ele>174.9</ele>
        <time>2019-06-09T07:45:26.000Z</time>
      </trkpt>
      <trkpt lat="43.29488" lon="2.22606">
        <ele>175</ele>
        <time>2019-06-09T07:45:27.000Z</time>
      </trkpt>
      <trkpt lat="43.29487" lon="2.22608">
        <ele>175.1</ele>
        <time>2019-06-09T07:45:28.000Z</time>
      </trkpt>
      <trkpt lat="43.29486" lon="2.2261">
        <ele>175.2</ele>
        <time>2019-06-09T07:45:29.000Z</time>
      </trkpt>
      <trkpt lat="43.29486" lon="2.22612">
        <ele>175.3</ele>
        <time>2019-06-09T07:45:30.000Z</time>
      </trkpt>
      <trkpt lat="43.29485" lon="2.22614">
        <ele>175.4</ele>
        <time>2019-06-09T07:45:31.000Z</time>
      </trkpt>
      <trkpt lat="43.29485" lon="2.22615">
        <ele>175.5</ele>
        <time>2019-06-09T07:45:32.000Z</time>
      </trkpt>
      <trkpt lat="43.29484" lon="2.22617">
        <ele>175.6</ele>
        <time>2019-06-09T07:45:33.000Z</time>
      </trkpt>
      <trkpt lat="43.29483" lon="2.22619">
        <ele>175.8</ele>
        <time>2019-06-09T07:45:34.000Z</time>
      </trkpt>
      <trkpt lat="43.29483" lon="2.22621">
        <ele>175.9</ele>
        <time>2019-06-09T07:45:35.000Z</time>
      </trkpt>
      <trkpt lat="43.29482" lon="2.22623">
        <ele>176.1</ele>
        <time>2019-06-09T07:45:36.000Z</time>
      </trkpt>
      <trkpt lat="43.29481" lon="2.22624">
        <ele>176.2</ele>
        <time>2019-06-09T07:45:37.000Z</time>
      </trkpt>
      <trkpt lat="43.2948" lon="2.22626">
        <ele>176.4</ele>
        <time>2019-06-09T07:45:38.000Z</time>
      </trkpt>
      <trkpt lat="43.2948" lon="2.22628">
        <ele>176.5</ele>
        <time>2019-06-09T07:45:39.000Z</time>
      </trkpt>
      <trkpt lat="43.29479" lon="2.22629">
        <ele>176.7</ele>
        <time>2019-06-09T07:45:40.000Z</time>
      </trkpt>
      <trkpt lat="43.29478" lon="2.22631">
        <ele>176.9</ele>
        <time>2019-06-09T07:45:41.000Z</time>
      </trkpt>
      <trkpt lat="43.29477" lon="2.22633">
        <ele>177</ele>
        <time>2019-06-09T07:45:42.000Z</time>
      </trkpt>
      <trkpt lat="43.29477" lon="2.22635">
        <ele>177.2</ele>
        <time>2019-06-09T07:45:43.000Z</time>
      </trkpt>
      <trkpt lat="43.29476" lon="2.22637">
        <ele>177.3</ele>
        <time>2019-06-09T07:45:44.000Z</time>
      </trkpt>
      <trkpt lat="43.29475" lon="2.22639">
        <ele>177.4</ele>
        <time>2019-06-09T07:45:45.000Z</time>
      </trkpt>
      <trkpt lat="43.29475" lon="2.22641">
        <ele>177.5</ele>
        <time>2019-06-09T07:45:46.000Z</time>
      </trkpt>
      <trkpt lat="43.29474" lon="2.22643">
        <ele>177.6</ele>
        <time>2019-06-09T07:45:47.000Z</time>
      </trkpt>
      <trkpt lat="43.29473" lon="2.22646">
        <ele>177.7</ele>
        <time>2019-06-09T07:45:48.000Z</time>
      </trkpt>
      <trkpt lat="43.29473" lon="2.22648">
        <ele>177.8</ele>
        <time>2019-06-09T07:45:49.000Z</time>
      </trkpt>
      <trkpt lat="43.29472" lon="2.22651">
        <ele>177.8</ele>
        <time>2019-06-09T07:45:50.000Z</time>
      </trkpt>
      <trkpt lat="43.29472" lon="2.22654">
        <ele>177.8</ele>
        <time>2019-06-09T07:45:51.000Z</time>
      </trkpt>
      <trkpt lat="43.29471" lon="2.22656">
        <ele>177.9</ele>
        <time>2019-06-09T07:45:52.000Z</time>
      </trkpt>
      <trkpt lat="43.29471" lon="2.22659">
        <ele>177.9</ele>
        <time>2019-06-09T07:45:53.000Z</time>
      </trkpt>
      <trkpt lat="43.29471" lon="2.22661">
        <ele>177.9</ele>
        <time>2019-06-09T07:45:54.000Z</time>
      </trkpt>
      <trkpt lat="43.2947" lon="2.22664">
        <ele>178</ele>
        <time>2019-06-09T07:45:55.000Z</time>
      </trkpt>
      <trkpt lat="43.29469" lon="2.22666">
        <ele>178.1</ele>
        <time>2019-06-09T07:45:56.000Z</time>
      </trkpt>
      <trkpt lat="43.29468" lon="2.22669">
        <ele>178.2</ele>
        <time>2019-06-09T07:45:57.000Z</time>
      </trkpt>
      <trkpt lat="43.29467" lon="2.22672">
        <ele>178.3</ele>
        <time>2019-06-09T07:45:58.000Z</time>
      </trkpt>
      <trkpt lat="43.29466" lon="2.22674">
        <ele>178.5</ele>
        <time>2019-06-09T07:45:59.000Z</time>
      </trkpt>
      <trkpt lat="43.29464" lon="2.22676">
        <ele>178.7</ele>
        <time>2019-06-09T07:46:00.000Z</time>
      </trkpt>
      <trkpt lat="43.29463" lon="2.22679">
        <ele>178.9</ele>
        <time>2019-06-09T07:46:01.000Z</time>
      </trkpt>
      <trkpt lat="43.29461" lon="2.22681">
        <ele>179.1</ele>
        <time>2019-06-09T07:46:02.000Z</time>
      </trkpt>
      <trkpt lat="43.2946" lon="2.22683">
        <ele>179.2</ele>
        <time>2019-06-09T07:46:03.000Z</time>
      </trkpt>
      <trkpt lat="43.29459" lon="2.22685">
        <ele>179.3</ele>
        <time>2019-06-09T07:46:04.000Z</time>
      </trkpt>
      <trkpt lat="43.29458" lon="2.22687">
        <ele>179.4</ele>
        <time>2019-06-09T07:46:05.000Z</time>
      </trkpt>
      <trkpt lat="43.29457" lon="2.22689">
        <ele>179.5</ele>
        <time>2019-06-09T07:46:06.000Z</time>
      </trkpt>
      <trkpt lat="43.29456" lon="2.22691">
        <ele>179.6</ele>
        <time>2019-06-09T07:46:07.000Z</time>
      </trkpt>
      <trkpt lat="43.29455" lon="2.22693">
        <ele>179.6</ele>
        <time>2019-06-09T07:46:08.000Z</time>
      </trkpt>
      <trkpt lat="43.29454" lon="2.22695">
        <ele>179.7</ele>
        <time>2019-06-09T07:46:09.000Z</time>
      </trkpt>
      <trkpt lat="43.29453" lon="2.22697">
        <ele>179.7</ele>
        <time>2019-06-09T07:46:10.000Z</time>
      </trkpt>
      <trkpt lat="43.29452" lon="2.22699">
        <ele>179.7</ele>
        <time>2019-06-09T07:46:11.000Z</time>
      </trkpt>
      <trkpt lat="43.29451" lon="2.22701">
        <ele>179.8</ele>
        <time>2019-06-09T07:46:12.000Z</time>
      </trkpt>
      <trkpt lat="43.29449" lon="2.22704">
        <ele>179.8</ele>
        <time>2019-06-09T07:46:13.000Z</time>
      </trkpt>
      <trkpt lat="43.29448" lon="2.22706">
        <ele>179.8</ele>
        <time>2019-06-09T07:46:14.000Z</time>
      </trkpt>
      <trkpt lat="43.29447" lon="2.22708">
        <ele>179.8</ele>
        <time>2019-06-09T07:46:15.000Z</time>
      </trkpt>
      <trkpt lat="43.29446" lon="2.2271">
        <ele>179.8</ele>
        <time>2019-06-09T07:46:16.000Z</time>
      </trkpt>
      <trkpt lat="43.29445" lon="2.22713">
        <ele>179.8</ele>
        <time>2019-06-09T07:46:17.000Z</time>
      </trkpt>
      <trkpt lat="43.29444" lon="2.22715">
        <ele>179.7</ele>
        <time>2019-06-09T07:46:18.000Z</time>
      </trkpt>
      <trkpt lat="43.29443" lon="2.22717">
        <ele>179.7</ele>
        <time>2019-06-09T07:46:19.000Z</time>
      </trkpt>
      <trkpt lat="43.29442" lon="2.2272">
        <ele>179.6</ele>
        <time>2019-06-09T07:46:20.000Z</time>
      </trkpt>
      <trkpt lat="43.29441" lon="2.22722">
        <ele>179.6</ele>
        <time>2019-06-09T07:46:21.000Z</time>
      </trkpt>
      <trkpt lat="43.2944" lon="2.22724">
        <ele>179.5</ele>
        <time>2019-06-09T07:46:22.000Z</time>
      </trkpt>
      <trkpt lat="43.29439" lon="2.22726">
        <ele>179.5</ele>
        <time>2019-06-09T07:46:23.000Z</time>
      </trkpt>
      <trkpt lat="43.29438" lon="2.22729">
        <ele>179.5</ele>
        <time>2019-06-09T07:46:24.000Z</time>
      </trkpt>
      <trkpt lat="43.29436" lon="2.22731">
        <ele>179.4</ele>
        <time>2019-06-09T07:46:25.000Z</time>
      </trkpt>
      <trkpt lat="43.29435" lon="2.22733">
        <ele>179.4</ele>
        <time>2019-06-09T07:46:26.000Z</time>
      </trkpt>
      <trkpt lat="43.29434" lon="2.22735">
        <ele>179.4</ele>
        <time>2019-06-09T07:46:27.000Z</time>
      </trkpt>
      <trkpt lat="43.29432" lon="2.22737">
        <ele>179.4</ele>
        <time>2019-06-09T07:46:28.000Z</time>
      </trkpt>
      <trkpt lat="43.29431" lon="2.22738">
        <ele>179.4</ele>
        <time>2019-06-09T07:46:29.000Z</time>
      </trkpt>
      <trkpt lat="43.2943" lon="2.2274">
        <ele>179.4</ele>
        <time>2019-06-09T07:46:30.000Z</time>
      </trkpt>
      <trkpt lat="43.29428" lon="2.22742">
        <ele>179.4</ele>
        <time>2019-06-09T07:46:31.000Z</time>
      </trkpt>
      <trkpt lat="43.29427" lon="2.22743">
        <ele>179.4</ele>
        <time>2019-06-09T07:46:32.000Z</time>
      </trkpt>
      <trkpt lat="43.29425" lon="2.22745">
        <ele>179.4</ele>
        <time>2019-06-09T07:46:33.000Z</time>
      </trkpt>
      <trkpt lat="43.29424" lon="2.22746">
        <ele>179.5</ele>
        <time>2019-06-09T07:46:34.000Z</time>
      </trkpt>
      <trkpt lat="43.29422" lon="2.22748">
        <ele>179.5</ele>
        <time>2019-06-09T07:46:35.000Z</time>
      </trkpt>
      <trkpt lat="43.29421" lon="2.22749">
        <ele>179.4</ele>
        <time>2019-06-09T07:46:36.000Z</time>
      </trkpt>
      <trkpt lat="43.2942" lon="2.22751">
        <ele>179.6</ele>
        <time>2019-06-09T07:46:37.000Z</time>
      </trkpt>
      <trkpt lat="43.29418" lon="2.22752">
        <ele>179.8</ele>
        <time>2019-06-09T07:46:38.000Z</time>
      </trkpt>
      <trkpt lat="43.29417" lon="2.22754">
        <ele>179.9</ele>
        <time>2019-06-09T07:46:39.000Z</time>
      </trkpt>
      <trkpt lat="43.29416" lon="2.22755">
        <ele>180.1</ele>
        <time>2019-06-09T07:46:40.000Z</time>
      </trkpt>
      <trkpt lat="43.29415" lon="2.22756">
        <ele>180.3</ele>
        <time>2019-06-09T07:46:41.000Z</time>
      </trkpt>
      <trkpt lat="43.29414" lon="2.22758">
        <ele>180.5</ele>
        <time>2019-06-09T07:46:42.000Z</time>
      </trkpt>
      <trkpt lat="43.29413" lon="2.22759">
        <ele>180.7</ele>
        <time>2019-06-09T07:46:43.000Z</time>
      </trkpt>
      <trkpt lat="43.29411" lon="2.2276">
        <ele>180.9</ele>
        <time>2019-06-09T07:46:44.000Z</time>
      </trkpt>
      <trkpt lat="43.2941" lon="2.22761">
        <ele>181.1</ele>
        <time>2019-06-09T07:46:45.000Z</time>
      </trkpt>
      <trkpt lat="43.29409" lon="2.22762">
        <ele>181.2</ele>
        <time>2019-06-09T07:46:46.000Z</time>
      </trkpt>
      <trkpt lat="43.29408" lon="2.22764">
        <ele>181.4</ele>
        <time>2019-06-09T07:46:47.000Z</time>
      </trkpt>
      <trkpt lat="43.29407" lon="2.22765">
        <ele>181.6</ele>
        <time>2019-06-09T07:46:48.000Z</time>
      </trkpt>
      <trkpt lat="43.29406" lon="2.22766">
        <ele>181.7</ele>
        <time>2019-06-09T07:46:49.000Z</time>
      </trkpt>
      <trkpt lat="43.29405" lon="2.22767">
        <ele>181.9</ele>
        <time>2019-06-09T07:46:50.000Z</time>
      </trkpt>
      <trkpt lat="43.29404" lon="2.22768">
        <ele>182.1</ele>
        <time>2019-06-09T07:46:51.000Z</time>
      </trkpt>
      <trkpt lat="43.29403" lon="2.22769">
        <ele>182.2</ele>
        <time>2019-06-09T07:46:52.000Z</time>
      </trkpt>
      <trkpt lat="43.29401" lon="2.2277">
        <ele>182.4</ele>
        <time>2019-06-09T07:46:53.000Z</time>
      </trkpt>
      <trkpt lat="43.294" lon="2.2277">
        <ele>182.5</ele>
        <time>2019-06-09T07:46:54.000Z</time>
      </trkpt>
      <trkpt lat="43.29399" lon="2.22771">
        <ele>182.7</ele>
        <time>2019-06-09T07:46:55.000Z</time>
      </trkpt>
      <trkpt lat="43.29398" lon="2.22772">
        <ele>182.9</ele>
        <time>2019-06-09T07:46:56.000Z</time>
      </trkpt>
      <trkpt lat="43.29397" lon="2.22772">
        <ele>183</ele>
        <time>2019-06-09T07:46:57.000Z</time>
      </trkpt>
      <trkpt lat="43.29396" lon="2.22773">
        <ele>183.2</ele>
        <time>2019-06-09T07:46:58.000Z</time>
      </trkpt>
      <trkpt lat="43.29395" lon="2.22773">
        <ele>183.3</ele>
        <time>2019-06-09T07:46:59.000Z</time>
      </trkpt>
      <trkpt lat="43.29393" lon="2.22774">
        <ele>183.5</ele>
        <time>2019-06-09T07:47:00.000Z</time>
      </trkpt>
      <trkpt lat="43.29392" lon="2.22775">
        <ele>183.6</ele>
        <time>2019-06-09T07:47:01.000Z</time>
      </trkpt>
      <trkpt lat="43.29391" lon="2.22775">
        <ele>183.7</ele>
        <time>2019-06-09T07:47:02.000Z</time>
      </trkpt>
      <trkpt lat="43.2939" lon="2.22776">
        <ele>183.9</ele>
        <time>2019-06-09T07:47:03.000Z</time>
      </trkpt>
      <trkpt lat="43.29389" lon="2.22777">
        <ele>184</ele>
        <time>2019-06-09T07:47:04.000Z</time>
      </trkpt>
      <trkpt lat="43.29389" lon="2.22778">
        <ele>184.1</ele>
        <time>2019-06-09T07:47:05.000Z</time>
      </trkpt>
      <trkpt lat="43.29388" lon="2.22779">
        <ele>184.1</ele>
        <time>2019-06-09T07:47:06.000Z</time>
      </trkpt>
      <trkpt lat="43.29387" lon="2.22779">
        <ele>184.2</ele>
        <time>2019-06-09T07:47:07.000Z</time>
      </trkpt>
      <trkpt lat="43.29386" lon="2.2278">
        <ele>184.3</ele>
        <time>2019-06-09T07:47:08.000Z</time>
      </trkpt>
      <trkpt lat="43.29385" lon="2.22781">
        <ele>184.4</ele>
        <time>2019-06-09T07:47:09.000Z</time>
      </trkpt>
      <trkpt lat="43.29385" lon="2.22782">
        <ele>184.4</ele>
        <time>2019-06-09T07:47:10.000Z</time>
      </trkpt>
      <trkpt lat="43.29384" lon="2.22783">
        <ele>184.5</ele>
        <time>2019-06-09T07:47:11.000Z</time>
      </trkpt>
      <trkpt lat="43.29383" lon="2.22784">
        <ele>184.5</ele>
        <time>2019-06-09T07:47:12.000Z</time>
      </trkpt>
      <trkpt lat="43.29382" lon="2.22785">
        <ele>184.6</ele>
        <time>2019-06-09T07:47:13.000Z</time>
      </trkpt>
      <trkpt lat="43.29382" lon="2.22786">
        <ele>184.6</ele>
        <time>2019-06-09T07:47:14.000Z</time>
      </trkpt>
      <trkpt lat="43.29381" lon="2.22787">
        <ele>184.7</ele>
        <time>2019-06-09T07:47:15.000Z</time>
      </trkpt>
      <trkpt lat="43.2938" lon="2.22788">
        <ele>184.7</ele>
        <time>2019-06-09T07:47:16.000Z</time>
      </trkpt>
      <trkpt lat="43.2938" lon="2.22789">
        <ele>184.8</ele>
        <time>2019-06-09T07:47:17.000Z</time>
      </trkpt>
      <trkpt lat="43.29379" lon="2.2279">
        <ele>184.8</ele>
        <time>2019-06-09T07:47:18.000Z</time>
      </trkpt>
      <trkpt lat="43.29378" lon="2.22791">
        <ele>184.9</ele>
        <time>2019-06-09T07:47:19.000Z</time>
      </trkpt>
      <trkpt lat="43.29378" lon="2.22792">
        <ele>184.9</ele>
        <time>2019-06-09T07:47:20.000Z</time>
      </trkpt>
      <trkpt lat="43.29377" lon="2.22794">
        <ele>184.9</ele>
        <time>2019-06-09T07:47:21.000Z</time>
      </trkpt>
      <trkpt lat="43.29376" lon="2.22795">
        <ele>185</ele>
        <time>2019-06-09T07:47:22.000Z</time>
      </trkpt>
      <trkpt lat="43.29375" lon="2.22796">
        <ele>185</ele>
        <time>2019-06-09T07:47:23.000Z</time>
      </trkpt>
      <trkpt lat="43.29375" lon="2.22797">
        <ele>185</ele>
        <time>2019-06-09T07:47:24.000Z</time>
      </trkpt>
      <trkpt lat="43.29374" lon="2.22798">
        <ele>185.1</ele>
        <time>2019-06-09T07:47:25.000Z</time>
      </trkpt>
      <trkpt lat="43.29373" lon="2.22799">
        <ele>185.1</ele>
        <time>2019-06-09T07:47:26.000Z</time>
      </trkpt>
      <trkpt lat="43.29372" lon="2.228">
        <ele>185.1</ele>
        <time>2019-06-09T07:47:27.000Z</time>
      </trkpt>
      <trkpt lat="43.29371" lon="2.22801">
        <ele>185.1</ele>
        <time>2019-06-09T07:47:28.000Z</time>
      </trkpt>
      <trkpt lat="43.29371" lon="2.22803">
        <ele>185.2</ele>
        <time>2019-06-09T07:47:29.000Z</time>
      </trkpt>
      <trkpt lat="43.2937" lon="2.22804">
        <ele>185.2</ele>
        <time>2019-06-09T07:47:30.000Z</time>
      </trkpt>
      <trkpt lat="43.29369" lon="2.22805">
        <ele>185.2</ele>
        <time>2019-06-09T07:47:31.000Z</time>
      </trkpt>
      <trkpt lat="43.29368" lon="2.22807">
        <ele>185.2</ele>
        <time>2019-06-09T07:47:32.000Z</time>
      </trkpt>
      <trkpt lat="43.29367" lon="2.22808">
        <ele>185.2</ele>
        <time>2019-06-09T07:47:33.000Z</time>
      </trkpt>
      <trkpt lat="43.29367" lon="2.22809">
        <ele>185.2</ele>
        <time>2019-06-09T07:47:34.000Z</time>
      </trkpt>
      <trkpt lat="43.29366" lon="2.22811">
        <ele>185.1</ele>
        <time>2019-06-09T07:47:35.000Z</time>
      </trkpt>
      <trkpt lat="43.29365" lon="2.22812">
        <ele>185.1</ele>
        <time>2019-06-09T07:47:36.000Z</time>
      </trkpt>
      <trkpt lat="43.29365" lon="2.22813">
        <ele>185.1</ele>
        <time>2019-06-09T07:47:37.000Z</time>
      </trkpt>
      <trkpt lat="43.29364" lon="2.22814">
        <ele>185.1</ele>
        <time>2019-06-09T07:47:38.000Z</time>
      </trkpt>
      <trkpt lat="43.29364" lon="2.22815">
        <ele>185.1</ele>
        <time>2019-06-09T07:47:39.000Z</time>
      </trkpt>
      <trkpt lat="43.29363" lon="2.22816">
        <ele>185.1</ele>
        <time>2019-06-09T07:47:40.000Z</time>
      </trkpt>
      <trkpt lat="43.29363" lon="2.22816">
        <ele>185</ele>
        <time>2019-06-09T07:47:41.000Z</time>
      </trkpt>
      <trkpt lat="43.29363" lon="2.22817">
        <ele>185</ele>
        <time>2019-06-09T07:47:42.000Z</time>
      </trkpt>
      <trkpt lat="43.29362" lon="2.22818">
        <ele>185</ele>
        <time>2019-06-09T07:47:43.000Z</time>
      </trkpt>
      <trkpt lat="43.29362" lon="2.22818">
        <ele>185</ele>
        <time>2019-06-09T07:47:44.000Z</time>
      </trkpt>
      <trkpt lat="43.29362" lon="2.2282">
        <ele>184.9</ele>
        <time>2019-06-09T07:47:45.000Z</time>
      </trkpt>
      <trkpt lat="43.29361" lon="2.22821">
        <ele>184.9</ele>
        <time>2019-06-09T07:47:46.000Z</time>
      </trkpt>
      <trkpt lat="43.29361" lon="2.22823">
        <ele>184.8</ele>
        <time>2019-06-09T07:47:47.000Z</time>
      </trkpt>
      <trkpt lat="43.2936" lon="2.22824">
        <ele>184.8</ele>
        <time>2019-06-09T07:47:48.000Z</time>
      </trkpt>
      <trkpt lat="43.29359" lon="2.22825">
        <ele>184.7</ele>
        <time>2019-06-09T07:47:49.000Z</time>
      </trkpt>
      <trkpt lat="43.29359" lon="2.22827">
        <ele>184.7</ele>
        <time>2019-06-09T07:47:50.000Z</time>
      </trkpt>
      <trkpt lat="43.29358" lon="2.22828">
        <ele>184.7</ele>
        <time>2019-06-09T07:47:51.000Z</time>
      </trkpt>
      <trkpt lat="43.29357" lon="2.22829">
        <ele>184.6</ele>
        <time>2019-06-09T07:47:52.000Z</time>
      </trkpt>
      <trkpt lat="43.29356" lon="2.2283">
        <ele>184.6</ele>
        <time>2019-06-09T07:47:53.000Z</time>
      </trkpt>
      <trkpt lat="43.29356" lon="2.22831">
        <ele>184.6</ele>
        <time>2019-06-09T07:47:54.000Z</time>
      </trkpt>
      <trkpt lat="43.29355" lon="2.22832">
        <ele>184.5</ele>
        <time>2019-06-09T07:47:55.000Z</time>
      </trkpt>
      <trkpt lat="43.29355" lon="2.22833">
        <ele>184.5</ele>
        <time>2019-06-09T07:47:56.000Z</time>
      </trkpt>
      <trkpt lat="43.29355" lon="2.22835">
        <ele>184.5</ele>
        <time>2019-06-09T07:47:57.000Z</time>
      </trkpt>
      <trkpt lat="43.29354" lon="2.22836">
        <ele>184.6</ele>
        <time>2019-06-09T07:47:58.000Z</time>
      </trkpt>
      <trkpt lat="43.29354" lon="2.22837">
        <ele>184.6</ele>
        <time>2019-06-09T07:47:59.000Z</time>
      </trkpt>
      <trkpt lat="43.29354" lon="2.22839">
        <ele>184.7</ele>
        <time>2019-06-09T07:48:00.000Z</time>
      </trkpt>
      <trkpt lat="43.29353" lon="2.2284">
        <ele>184.8</ele>
        <time>2019-06-09T07:48:01.000Z</time>
      </trkpt>
      <trkpt lat="43.29353" lon="2.22842">
        <ele>184.8</ele>
        <time>2019-06-09T07:48:02.000Z</time>
      </trkpt>
      <trkpt lat="43.29352" lon="2.22843">
        <ele>184.9</ele>
        <time>2019-06-09T07:48:03.000Z</time>
      </trkpt>
      <trkpt lat="43.29351" lon="2.22845">
        <ele>185</ele>
        <time>2019-06-09T07:48:04.000Z</time>
      </trkpt>
      <trkpt lat="43.2935" lon="2.22847">
        <ele>185.1</ele>
        <time>2019-06-09T07:48:05.000Z</time>
      </trkpt>
      <trkpt lat="43.29349" lon="2.22849">
        <ele>185.2</ele>
        <time>2019-06-09T07:48:06.000Z</time>
      </trkpt>
      <trkpt lat="43.29348" lon="2.22852">
        <ele>185.3</ele>
        <time>2019-06-09T07:48:07.000Z</time>
      </trkpt>
      <trkpt lat="43.29347" lon="2.22854">
        <ele>185.4</ele>
        <time>2019-06-09T07:48:08.000Z</time>
      </trkpt>
      <trkpt lat="43.29346" lon="2.22856">
        <ele>185.5</ele>
        <time>2019-06-09T07:48:09.000Z</time>
      </trkpt>
      <trkpt lat="43.29344" lon="2.22858">
        <ele>185.6</ele>
        <time>2019-06-09T07:48:10.000Z</time>
      </trkpt>
      <trkpt lat="43.29343" lon="2.2286">
        <ele>185.7</ele>
        <time>2019-06-09T07:48:11.000Z</time>
      </trkpt>
      <trkpt lat="43.29341" lon="2.22862">
        <ele>185.7</ele>
        <time>2019-06-09T07:48:12.000Z</time>
      </trkpt>
      <trkpt lat="43.29339" lon="2.22864">
        <ele>185.8</ele>
        <time>2019-06-09T07:48:13.000Z</time>
      </trkpt>
      <trkpt lat="43.29338" lon="2.22866">
        <ele>185.9</ele>
        <time>2019-06-09T07:48:14.000Z</time>
      </trkpt>
      <trkpt lat="43.29336" lon="2.22867">
        <ele>185.9</ele>
        <time>2019-06-09T07:48:15.000Z</time>
      </trkpt>
      <trkpt lat="43.29334" lon="2.22869">
        <ele>186</ele>
        <time>2019-06-09T07:48:16.000Z</time>
      </trkpt>
      <trkpt lat="43.29332" lon="2.22871">
        <ele>186.1</ele>
        <time>2019-06-09T07:48:17.000Z</time>
      </trkpt>
      <trkpt lat="43.2933" lon="2.22873">
        <ele>186.1</ele>
        <time>2019-06-09T07:48:18.000Z</time>
      </trkpt>
      <trkpt lat="43.29327" lon="2.22875">
        <ele>186.2</ele>
        <time>2019-06-09T07:48:19.000Z</time>
      </trkpt>
      <trkpt lat="43.29325" lon="2.22877">
        <ele>186.3</ele>
        <time>2019-06-09T07:48:20.000Z</time>
      </trkpt>
      <trkpt lat="43.29323" lon="2.22878">
        <ele>186.4</ele>
        <time>2019-06-09T07:48:21.000Z</time>
      </trkpt>
      <trkpt lat="43.2932" lon="2.2288">
        <ele>186.4</ele>
        <time>2019-06-09T07:48:22.000Z</time>
      </trkpt>
      <trkpt lat="43.29318" lon="2.22882">
        <ele>186.5</ele>
        <time>2019-06-09T07:48:23.000Z</time>
      </trkpt>
      <trkpt lat="43.29316" lon="2.22884">
        <ele>186.5</ele>
        <time>2019-06-09T07:48:24.000Z</time>
      </trkpt>
      <trkpt lat="43.29314" lon="2.22886">
        <ele>186.6</ele>
        <time>2019-06-09T07:48:25.000Z</time>
      </trkpt>
      <trkpt lat="43.29312" lon="2.22888">
        <ele>186.6</ele>
        <time>2019-06-09T07:48:26.000Z</time>
      </trkpt>
      <trkpt lat="43.2931" lon="2.22889">
        <ele>186.7</ele>
        <time>2019-06-09T07:48:27.000Z</time>
      </trkpt>
      <trkpt lat="43.29308" lon="2.22891">
        <ele>186.7</ele>
        <time>2019-06-09T07:48:28.000Z</time>
      </trkpt>
      <trkpt lat="43.29306" lon="2.22893">
        <ele>186.7</ele>
        <time>2019-06-09T07:48:29.000Z</time>
      </trkpt>
      <trkpt lat="43.29305" lon="2.22894">
        <ele>186.7</ele>
        <time>2019-06-09T07:48:30.000Z</time>
      </trkpt>
      <trkpt lat="43.29303" lon="2.22896">
        <ele>186.7</ele>
        <time>2019-06-09T07:48:31.000Z</time>
      </trkpt>
      <trkpt lat="43.29302" lon="2.22898">
        <ele>186.7</ele>
        <time>2019-06-09T07:48:32.000Z</time>
      </trkpt>
      <trkpt lat="43.293" lon="2.22899">
        <ele>186.7</ele>
        <time>2019-06-09T07:48:33.000Z</time>
      </trkpt>
      <trkpt lat="43.29299" lon="2.22901">
        <ele>186.7</ele>
        <time>2019-06-09T07:48:34.000Z</time>
      </trkpt>
      <trkpt lat="43.29297" lon="2.22903">
        <ele>186.7</ele>
        <time>2019-06-09T07:48:35.000Z</time>
      </trkpt>
      <trkpt lat="43.29296" lon="2.22904">
        <ele>186.7</ele>
        <time>2019-06-09T07:48:36.000Z</time>
      </trkpt>
      <trkpt lat="43.29295" lon="2.22906">
        <ele>186.7</ele>
        <time>2019-06-09T07:48:37.000Z</time>
      </trkpt>
      <trkpt lat="43.29294" lon="2.22908">
        <ele>186.7</ele>
        <time>2019-06-09T07:48:38.000Z</time>
      </trkpt>
      <trkpt lat="43.29292" lon="2.22909">
        <ele>186.7</ele>
        <time>2019-06-09T07:48:39.000Z</time>
      </trkpt>
      <trkpt lat="43.29291" lon="2.22911">
        <ele>186.6</ele>
        <time>2019-06-09T07:48:40.000Z</time>
      </trkpt>
      <trkpt lat="43.29289" lon="2.22913">
        <ele>186.6</ele>
        <time>2019-06-09T07:48:41.000Z</time>
      </trkpt>
      <trkpt lat="43.29288" lon="2.22915">
        <ele>186.6</ele>
        <time>2019-06-09T07:48:42.000Z</time>
      </trkpt>
      <trkpt lat="43.29286" lon="2.22917">
        <ele>186.6</ele>
        <time>2019-06-09T07:48:43.000Z</time>
      </trkpt>
      <trkpt lat="43.29285" lon="2.22919">
        <ele>186.9</ele>
        <time>2019-06-09T07:48:44.000Z</time>
      </trkpt>
      <trkpt lat="43.29283" lon="2.22921">
        <ele>187.1</ele>
        <time>2019-06-09T07:48:45.000Z</time>
      </trkpt>
      <trkpt lat="43.29281" lon="2.22923">
        <ele>187.4</ele>
        <time>2019-06-09T07:48:46.000Z</time>
      </trkpt>
      <trkpt lat="43.29279" lon="2.22925">
        <ele>187.6</ele>
        <time>2019-06-09T07:48:47.000Z</time>
      </trkpt>
      <trkpt lat="43.29277" lon="2.22927">
        <ele>187.9</ele>
        <time>2019-06-09T07:48:48.000Z</time>
      </trkpt>
      <trkpt lat="43.29275" lon="2.2293">
        <ele>188.1</ele>
        <time>2019-06-09T07:48:49.000Z</time>
      </trkpt>
      <trkpt lat="43.29273" lon="2.22932">
        <ele>188.3</ele>
        <time>2019-06-09T07:48:50.000Z</time>
      </trkpt>
      <trkpt lat="43.29271" lon="2.22934">
        <ele>188.6</ele>
        <time>2019-06-09T07:48:51.000Z</time>
      </trkpt>
      <trkpt lat="43.29269" lon="2.22936">
        <ele>188.7</ele>
        <time>2019-06-09T07:48:52.000Z</time>
      </trkpt>
      <trkpt lat="43.29267" lon="2.22938">
        <ele>188.9</ele>
        <time>2019-06-09T07:48:53.000Z</time>
      </trkpt>
      <trkpt lat="43.29265" lon="2.2294">
        <ele>189.1</ele>
        <time>2019-06-09T07:48:54.000Z</time>
      </trkpt>
      <trkpt lat="43.29263" lon="2.22941">
        <ele>189.2</ele>
        <time>2019-06-09T07:48:55.000Z</time>
      </trkpt>
      <trkpt lat="43.29261" lon="2.22943">
        <ele>189.3</ele>
        <time>2019-06-09T07:48:56.000Z</time>
      </trkpt>
      <trkpt lat="43.29259" lon="2.22944">
        <ele>189.4</ele>
        <time>2019-06-09T07:48:57.000Z</time>
      </trkpt>
      <trkpt lat="43.29257" lon="2.22944">
        <ele>189.4</ele>
        <time>2019-06-09T07:48:58.000Z</time>
      </trkpt>
      <trkpt lat="43.29255" lon="2.22945">
        <ele>189.4</ele>
        <time>2019-06-09T07:48:59.000Z</time>
      </trkpt>
      <trkpt lat="43.29253" lon="2.22945">
        <ele>189.4</ele>
        <time>2019-06-09T07:49:00.000Z</time>
      </trkpt>
      <trkpt lat="43.29251" lon="2.22945">
        <ele>189.4</ele>
        <time>2019-06-09T07:49:01.000Z</time>
      </trkpt>
      <trkpt lat="43.29248" lon="2.22945">
        <ele>189.4</ele>
        <time>2019-06-09T07:49:02.000Z</time>
      </trkpt>
      <trkpt lat="43.29246" lon="2.22945">
        <ele>189.5</ele>
        <time>2019-06-09T07:49:03.000Z</time>
      </trkpt>
      <trkpt lat="43.29244" lon="2.22944">
        <ele>189.5</ele>
        <time>2019-06-09T07:49:04.000Z</time>
      </trkpt>
      <trkpt lat="43.29242" lon="2.22944">
        <ele>189.6</ele>
        <time>2019-06-09T07:49:05.000Z</time>
      </trkpt>
      <trkpt lat="43.2924" lon="2.22944">
        <ele>189.6</ele>
        <time>2019-06-09T07:49:06.000Z</time>
      </trkpt>
      <trkpt lat="43.29238" lon="2.22943">
        <ele>189.7</ele>
        <time>2019-06-09T07:49:07.000Z</time>
      </trkpt>
      <trkpt lat="43.29236" lon="2.22943">
        <ele>189.7</ele>
        <time>2019-06-09T07:49:08.000Z</time>
      </trkpt>
      <trkpt lat="43.29234" lon="2.22943">
        <ele>189.8</ele>
        <time>2019-06-09T07:49:09.000Z</time>
      </trkpt>
      <trkpt lat="43.29232" lon="2.22943">
        <ele>189.9</ele>
        <time>2019-06-09T07:49:10.000Z</time>
      </trkpt>
      <trkpt lat="43.29229" lon="2.22942">
        <ele>189.9</ele>
        <time>2019-06-09T07:49:11.000Z</time>
      </trkpt>
      <trkpt lat="43.29227" lon="2.22942">
        <ele>190</ele>
        <time>2019-06-09T07:49:12.000Z</time>
      </trkpt>
      <trkpt lat="43.29225" lon="2.22942">
        <ele>190.1</ele>
        <time>2019-06-09T07:49:13.000Z</time>
      </trkpt>
      <trkpt lat="43.29223" lon="2.22942">
        <ele>190.2</ele>
        <time>2019-06-09T07:49:14.000Z</time>
      </trkpt>
      <trkpt lat="43.2922" lon="2.22942">
        <ele>190.3</ele>
        <time>2019-06-09T07:49:15.000Z</time>
      </trkpt>
      <trkpt lat="43.29218" lon="2.22943">
        <ele>190.4</ele>
        <time>2019-06-09T07:49:16.000Z</time>
      </trkpt>
      <trkpt lat="43.29216" lon="2.22943">
        <ele>190.5</ele>
        <time>2019-06-09T07:49:17.000Z</time>
      </trkpt>
      <trkpt lat="43.29213" lon="2.22944">
        <ele>190.6</ele>
        <time>2019-06-09T07:49:18.000Z</time>
      </trkpt>
      <trkpt lat="43.29211" lon="2.22945">
        <ele>190.7</ele>
        <time>2019-06-09T07:49:19.000Z</time>
      </trkpt>
      <trkpt lat="43.29209" lon="2.22945">
        <ele>190.9</ele>
        <time>2019-06-09T07:49:20.000Z</time>
      </trkpt>
      <trkpt lat="43.29207" lon="2.22947">
        <ele>191</ele>
        <time>2019-06-09T07:49:21.000Z</time>
      </trkpt>
      <trkpt lat="43.29205" lon="2.22948">
        <ele>191.1</ele>
        <time>2019-06-09T07:49:22.000Z</time>
      </trkpt>
      <trkpt lat="43.29203" lon="2.22949">
        <ele>191.2</ele>
        <time>2019-06-09T07:49:23.000Z</time>
      </trkpt>
      <trkpt lat="43.29201" lon="2.22951">
        <ele>191.4</ele>
        <time>2019-06-09T07:49:24.000Z</time>
      </trkpt>
      <trkpt lat="43.29199" lon="2.22952">
        <ele>191.5</ele>
        <time>2019-06-09T07:49:25.000Z</time>
      </trkpt>
      <trkpt lat="43.29197" lon="2.22954">
        <ele>191.6</ele>
        <time>2019-06-09T07:49:26.000Z</time>
      </trkpt>
      <trkpt lat="43.29195" lon="2.22956">
        <ele>191.7</ele>
        <time>2019-06-09T07:49:27.000Z</time>
      </trkpt>
      <trkpt lat="43.29193" lon="2.22957">
        <ele>191.8</ele>
        <time>2019-06-09T07:49:28.000Z</time>
      </trkpt>
      <trkpt lat="43.29191" lon="2.22959">
        <ele>191.9</ele>
        <time>2019-06-09T07:49:29.000Z</time>
      </trkpt>
      <trkpt lat="43.29189" lon="2.22961">
        <ele>192</ele>
        <time>2019-06-09T07:49:30.000Z</time>
      </trkpt>
      <trkpt lat="43.29188" lon="2.22963">
        <ele>192.1</ele>
        <time>2019-06-09T07:49:31.000Z</time>
      </trkpt>
      <trkpt lat="43.29186" lon="2.22965">
        <ele>192.2</ele>
        <time>2019-06-09T07:49:32.000Z</time>
      </trkpt>
      <trkpt lat="43.29185" lon="2.22966">
        <ele>192.3</ele>
        <time>2019-06-09T07:49:33.000Z</time>
      </trkpt>
      <trkpt lat="43.29184" lon="2.22968">
        <ele>192.4</ele>
        <time>2019-06-09T07:49:34.000Z</time>
      </trkpt>
      <trkpt lat="43.29183" lon="2.2297">
        <ele>192.4</ele>
        <time>2019-06-09T07:49:35.000Z</time>
      </trkpt>
      <trkpt lat="43.29182" lon="2.22972">
        <ele>192.5</ele>
        <time>2019-06-09T07:49:36.000Z</time>
      </trkpt>
      <trkpt lat="43.29181" lon="2.22973">
        <ele>192.5</ele>
        <time>2019-06-09T07:49:37.000Z</time>
      </trkpt>
      <trkpt lat="43.2918" lon="2.22975">
        <ele>192.6</ele>
        <time>2019-06-09T07:49:38.000Z</time>
      </trkpt>
      <trkpt lat="43.29179" lon="2.22976">
        <ele>192.6</ele>
        <time>2019-06-09T07:49:39.000Z</time>
      </trkpt>
      <trkpt lat="43.29179" lon="2.22977">
        <ele>192.6</ele>
        <time>2019-06-09T07:49:40.000Z</time>
      </trkpt>
      <trkpt lat="43.29178" lon="2.22978">
        <ele>192.7</ele>
        <time>2019-06-09T07:49:41.000Z</time>
      </trkpt>
      <trkpt lat="43.29178" lon="2.22979">
        <ele>192.7</ele>
        <time>2019-06-09T07:49:42.000Z</time>
      </trkpt>
      <trkpt lat="43.29178" lon="2.2298">
        <ele>192.7</ele>
        <time>2019-06-09T07:49:43.000Z</time>
      </trkpt>
      <trkpt lat="43.29177" lon="2.2298">
        <ele>192.7</ele>
        <time>2019-06-09T07:49:44.000Z</time>
      </trkpt>
      <trkpt lat="43.29177" lon="2.22981">
        <ele>192.7</ele>
        <time>2019-06-09T07:49:45.000Z</time>
      </trkpt>
      <trkpt lat="43.29177" lon="2.22981">
        <ele>192.7</ele>
        <time>2019-06-09T07:49:46.000Z</time>
      </trkpt>
      <trkpt lat="43.29177" lon="2.22981">
        <ele>192.7</ele>
        <time>2019-06-09T07:49:47.000Z</time>
      </trkpt>
      <trkpt lat="43.29177" lon="2.22981">
        <ele>192.7</ele>
        <time>2019-06-09T07:49:48.000Z</time>
      </trkpt>
      <trkpt lat="43.29177" lon="2.22981">
        <ele>192.7</ele>
        <time>2019-06-09T07:49:49.000Z</time>
      </trkpt>
      <trkpt lat="43.29177" lon="2.22981">
        <ele>192.7</ele>
        <time>2019-06-09T07:49:50.000Z</time>
      </trkpt>
      <trkpt lat="43.29177" lon="2.2298">
        <ele>192.7</ele>
        <time>2019-06-09T07:49:51.000Z</time>
      </trkpt>
      <trkpt lat="43.29177" lon="2.2298">
        <ele>192.7</ele>
        <time>2019-06-09T07:49:52.000Z</time>
      </trkpt>
      <trkpt lat="43.29177" lon="2.2298">
        <ele>192.7</ele>
        <time>2019-06-09T07:49:53.000Z</time>
      </trkpt>
      <trkpt lat="43.29177" lon="2.2298">
        <ele>192.7</ele>
        <time>2019-06-09T07:49:54.000Z</time>
      </trkpt>
      <trkpt lat="43.29177" lon="2.2298">
        <ele>192.7</ele>
        <time>2019-06-09T07:49:55.000Z</time>
      </trkpt>
      <trkpt lat="43.29177" lon="2.22981">
        <ele>192.7</ele>
        <time>2019-06-09T07:49:56.000Z</time>
      </trkpt>
      <trkpt lat="43.29177" lon="2.22981">
        <ele>192.7</ele>
        <time>2019-06-09T07:49:57.000Z</time>
      </trkpt>
      <trkpt lat="43.29177" lon="2.22981">
        <ele>192.7</ele>
        <time>2019-06-09T07:49:58.000Z</time>
      </trkpt>
      <trkpt lat="43.29177" lon="2.2298">
        <ele>192.7</ele>
        <time>2019-06-09T07:49:59.000Z</time>
      </trkpt>
      <trkpt lat="43.29177" lon="2.2298">
        <ele>192.7</ele>
        <time>2019-06-09T07:50:00.000Z</time>
      </trkpt>
      <trkpt lat="43.29177" lon="2.2298">
        <ele>192.7</ele>
        <time>2019-06-09T07:50:01.000Z</time>
      </trkpt>
      <trkpt lat="43.29177" lon="2.2298">
        <ele>192.7</ele>
        <time>2019-06-09T07:50:02.000Z</time>
      </trkpt>
      <trkpt lat="43.29177" lon="2.2298">
        <ele>192.7</ele>
        <time>2019-06-09T07:50:03.000Z</time>
      </trkpt>
      <trkpt lat="43.29177" lon="2.22981">
        <ele>192.7</ele>
        <time>2019-06-09T07:50:04.000Z</time>
      </trkpt>
      <trkpt lat="43.29176" lon="2.22981">
        <ele>192.7</ele>
        <time>2019-06-09T07:50:05.000Z</time>
      </trkpt>
      <trkpt lat="43.29176" lon="2.22981">
        <ele>192.7</ele>
        <time>2019-06-09T07:50:06.000Z</time>
      </trkpt>
      <trkpt lat="43.29175" lon="2.22982">
        <ele>192.7</ele>
        <time>2019-06-09T07:50:07.000Z</time>
      </trkpt>
      <trkpt lat="43.29175" lon="2.22982">
        <ele>192.8</ele>
        <time>2019-06-09T07:50:08.000Z</time>
      </trkpt>
      <trkpt lat="43.29174" lon="2.22983">
        <ele>192.8</ele>
        <time>2019-06-09T07:50:09.000Z</time>
      </trkpt>
      <trkpt lat="43.29173" lon="2.22984">
        <ele>192.8</ele>
        <time>2019-06-09T07:50:10.000Z</time>
      </trkpt>
      <trkpt lat="43.29173" lon="2.22984">
        <ele>192.8</ele>
        <time>2019-06-09T07:50:11.000Z</time>
      </trkpt>
      <trkpt lat="43.29172" lon="2.22985">
        <ele>192.8</ele>
        <time>2019-06-09T07:50:12.000Z</time>
      </trkpt>
      <trkpt lat="43.29171" lon="2.22985">
        <ele>192.8</ele>
        <time>2019-06-09T07:50:13.000Z</time>
      </trkpt>
      <trkpt lat="43.29171" lon="2.22984">
        <ele>192.8</ele>
        <time>2019-06-09T07:50:14.000Z</time>
      </trkpt>
      <trkpt lat="43.2917" lon="2.22984">
        <ele>192.8</ele>
        <time>2019-06-09T07:50:15.000Z</time>
      </trkpt>
      <trkpt lat="43.2917" lon="2.22983">
        <ele>192.8</ele>
        <time>2019-06-09T07:50:16.000Z</time>
      </trkpt>
      <trkpt lat="43.29169" lon="2.22982">
        <ele>192.8</ele>
        <time>2019-06-09T07:50:17.000Z</time>
      </trkpt>
      <trkpt lat="43.29169" lon="2.22981">
        <ele>192.8</ele>
        <time>2019-06-09T07:50:18.000Z</time>
      </trkpt>
      <trkpt lat="43.29168" lon="2.22979">
        <ele>192.7</ele>
        <time>2019-06-09T07:50:19.000Z</time>
      </trkpt>
      <trkpt lat="43.29167" lon="2.22978">
        <ele>192.7</ele>
        <time>2019-06-09T07:50:20.000Z</time>
      </trkpt>
      <trkpt lat="43.29167" lon="2.22977">
        <ele>192.7</ele>
        <time>2019-06-09T07:50:21.000Z</time>
      </trkpt>
      <trkpt lat="43.29166" lon="2.22976">
        <ele>192.7</ele>
        <time>2019-06-09T07:50:22.000Z</time>
      </trkpt>
      <trkpt lat="43.29165" lon="2.22975">
        <ele>192.7</ele>
        <time>2019-06-09T07:50:23.000Z</time>
      </trkpt>
      <trkpt lat="43.29164" lon="2.22974">
        <ele>192.7</ele>
        <time>2019-06-09T07:50:24.000Z</time>
      </trkpt>
      <trkpt lat="43.29164" lon="2.22973">
        <ele>192.8</ele>
        <time>2019-06-09T07:50:25.000Z</time>
      </trkpt>
      <trkpt lat="43.29163" lon="2.22971">
        <ele>192.8</ele>
        <time>2019-06-09T07:50:26.000Z</time>
      </trkpt>
      <trkpt lat="43.29162" lon="2.2297">
        <ele>192.8</ele>
        <time>2019-06-09T07:50:27.000Z</time>
      </trkpt>
      <trkpt lat="43.29162" lon="2.22969">
        <ele>192.8</ele>
        <time>2019-06-09T07:50:28.000Z</time>
      </trkpt>
      <trkpt lat="43.29161" lon="2.22967">
        <ele>192.8</ele>
        <time>2019-06-09T07:50:29.000Z</time>
      </trkpt>
      <trkpt lat="43.29161" lon="2.22966">
        <ele>192.8</ele>
        <time>2019-06-09T07:50:30.000Z</time>
      </trkpt>
      <trkpt lat="43.29161" lon="2.22964">
        <ele>192.7</ele>
        <time>2019-06-09T07:50:31.000Z</time>
      </trkpt>
      <trkpt lat="43.29161" lon="2.22962">
        <ele>192.7</ele>
        <time>2019-06-09T07:50:32.000Z</time>
      </trkpt>
      <trkpt lat="43.29162" lon="2.2296">
        <ele>192.7</ele>
        <time>2019-06-09T07:50:33.000Z</time>
      </trkpt>
      <trkpt lat="43.29162" lon="2.22959">
        <ele>192.7</ele>
        <time>2019-06-09T07:50:34.000Z</time>
      </trkpt>
      <trkpt lat="43.29162" lon="2.22957">
        <ele>192.6</ele>
        <time>2019-06-09T07:50:35.000Z</time>
      </trkpt>
      <trkpt lat="43.29163" lon="2.22956">
        <ele>192.6</ele>
        <time>2019-06-09T07:50:36.000Z</time>
      </trkpt>
      <trkpt lat="43.29163" lon="2.22955">
        <ele>192.6</ele>
        <time>2019-06-09T07:50:37.000Z</time>
      </trkpt>
      <trkpt lat="43.29163" lon="2.22955">
        <ele>192.6</ele>
        <time>2019-06-09T07:50:38.000Z</time>
      </trkpt>
      <trkpt lat="43.29163" lon="2.22955">
        <ele>192.6</ele>
        <time>2019-06-09T07:50:39.000Z</time>
      </trkpt>
      <trkpt lat="43.29163" lon="2.22955">
        <ele>192.6</ele>
        <time>2019-06-09T07:50:40.000Z</time>
      </trkpt>
      <trkpt lat="43.29163" lon="2.22955">
        <ele>192.6</ele>
        <time>2019-06-09T07:50:41.000Z</time>
      </trkpt>
      <trkpt lat="43.29163" lon="2.22954">
        <ele>192.6</ele>
        <time>2019-06-09T07:50:42.000Z</time>
      </trkpt>
      <trkpt lat="43.29163" lon="2.22953">
        <ele>192.6</ele>
        <time>2019-06-09T07:50:43.000Z</time>
      </trkpt>
      <trkpt lat="43.29164" lon="2.22952">
        <ele>192.5</ele>
        <time>2019-06-09T07:50:44.000Z</time>
      </trkpt>
      <trkpt lat="43.29164" lon="2.22951">
        <ele>192.5</ele>
        <time>2019-06-09T07:50:45.000Z</time>
      </trkpt>
      <trkpt lat="43.29165" lon="2.2295">
        <ele>192.5</ele>
        <time>2019-06-09T07:50:46.000Z</time>
      </trkpt>
      <trkpt lat="43.29166" lon="2.22949">
        <ele>192.4</ele>
        <time>2019-06-09T07:50:47.000Z</time>
      </trkpt>
      <trkpt lat="43.29167" lon="2.22947">
        <ele>192.4</ele>
        <time>2019-06-09T07:50:48.000Z</time>
      </trkpt>
      <trkpt lat="43.29167" lon="2.22946">
        <ele>192.3</ele>
        <time>2019-06-09T07:50:49.000Z</time>
      </trkpt>
      <trkpt lat="43.29168" lon="2.22945">
        <ele>192.3</ele>
        <time>2019-06-09T07:50:50.000Z</time>
      </trkpt>
      <trkpt lat="43.2917" lon="2.22944">
        <ele>192.2</ele>
        <time>2019-06-09T07:50:51.000Z</time>
      </trkpt>
      <trkpt lat="43.29171" lon="2.22942">
        <ele>192.2</ele>
        <time>2019-06-09T07:50:52.000Z</time>
      </trkpt>
      <trkpt lat="43.29172" lon="2.22941">
        <ele>192.1</ele>
        <time>2019-06-09T07:50:53.000Z</time>
      </trkpt>
      <trkpt lat="43.29173" lon="2.2294">
        <ele>192</ele>
        <time>2019-06-09T07:50:54.000Z</time>
      </trkpt>
      <trkpt lat="43.29175" lon="2.22938">
        <ele>191.9</ele>
        <time>2019-06-09T07:50:55.000Z</time>
      </trkpt>
      <trkpt lat="43.29176" lon="2.22937">
        <ele>191.8</ele>
        <time>2019-06-09T07:50:56.000Z</time>
      </trkpt>
      <trkpt lat="43.29178" lon="2.22935">
        <ele>191.7</ele>
        <time>2019-06-09T07:50:57.000Z</time>
      </trkpt>
      <trkpt lat="43.29179" lon="2.22933">
        <ele>191.6</ele>
        <time>2019-06-09T07:50:58.000Z</time>
      </trkpt>
      <trkpt lat="43.29181" lon="2.22932">
        <ele>191.5</ele>
        <time>2019-06-09T07:50:59.000Z</time>
      </trkpt>
      <trkpt lat="43.29182" lon="2.2293">
        <ele>191.4</ele>
        <time>2019-06-09T07:51:00.000Z</time>
      </trkpt>
      <trkpt lat="43.29184" lon="2.22928">
        <ele>191.3</ele>
        <time>2019-06-09T07:51:01.000Z</time>
      </trkpt>
      <trkpt lat="43.29185" lon="2.22926">
        <ele>191.2</ele>
        <time>2019-06-09T07:51:02.000Z</time>
      </trkpt>
      <trkpt lat="43.29187" lon="2.22925">
        <ele>191</ele>
        <time>2019-06-09T07:51:03.000Z</time>
      </trkpt>
      <trkpt lat="43.29189" lon="2.22923">
        <ele>190.9</ele>
        <time>2019-06-09T07:51:04.000Z</time>
      </trkpt>
      <trkpt lat="43.2919" lon="2.22921">
        <ele>190.7</ele>
        <time>2019-06-09T07:51:05.000Z</time>
      </trkpt>
      <trkpt lat="43.29192" lon="2.22919">
        <ele>190.6</ele>
        <time>2019-06-09T07:51:06.000Z</time>
      </trkpt>
      <trkpt lat="43.29193" lon="2.22917">
        <ele>190.4</ele>
        <time>2019-06-09T07:51:07.000Z</time>
      </trkpt>
      <trkpt lat="43.29195" lon="2.22915">
        <ele>190.4</ele>
        <time>2019-06-09T07:51:08.000Z</time>
      </trkpt>
      <trkpt lat="43.29197" lon="2.22913">
        <ele>190.4</ele>
        <time>2019-06-09T07:51:09.000Z</time>
      </trkpt>
      <trkpt lat="43.29198" lon="2.22911">
        <ele>190.4</ele>
        <time>2019-06-09T07:51:10.000Z</time>
      </trkpt>
      <trkpt lat="43.292" lon="2.22909">
        <ele>190.4</ele>
        <time>2019-06-09T07:51:11.000Z</time>
      </trkpt>
      <trkpt lat="43.29202" lon="2.22907">
        <ele>190.5</ele>
        <time>2019-06-09T07:51:12.000Z</time>
      </trkpt>
      <trkpt lat="43.29203" lon="2.22905">
        <ele>190.5</ele>
        <time>2019-06-09T07:51:13.000Z</time>
      </trkpt>
      <trkpt lat="43.29205" lon="2.22903">
        <ele>190.5</ele>
        <time>2019-06-09T07:51:14.000Z</time>
      </trkpt>
      <trkpt lat="43.29206" lon="2.22901">
        <ele>190.5</ele>
        <time>2019-06-09T07:51:15.000Z</time>
      </trkpt>
      <trkpt lat="43.29208" lon="2.22899">
        <ele>190.5</ele>
        <time>2019-06-09T07:51:16.000Z</time>
      </trkpt>
      <trkpt lat="43.29209" lon="2.22898">
        <ele>190.5</ele>
        <time>2019-06-09T07:51:17.000Z</time>
      </trkpt>
      <trkpt lat="43.29211" lon="2.22896">
        <ele>190.5</ele>
        <time>2019-06-09T07:51:18.000Z</time>
      </trkpt>
      <trkpt lat="43.29213" lon="2.22895">
        <ele>190.4</ele>
        <time>2019-06-09T07:51:19.000Z</time>
      </trkpt>
      <trkpt lat="43.29215" lon="2.22894">
        <ele>190.3</ele>
        <time>2019-06-09T07:51:20.000Z</time>
      </trkpt>
      <trkpt lat="43.29217" lon="2.22893">
        <ele>190.3</ele>
        <time>2019-06-09T07:51:21.000Z</time>
      </trkpt>
      <trkpt lat="43.29219" lon="2.22892">
        <ele>190.2</ele>
        <time>2019-06-09T07:51:22.000Z</time>
      </trkpt>
      <trkpt lat="43.29221" lon="2.22891">
        <ele>190.1</ele>
        <time>2019-06-09T07:51:23.000Z</time>
      </trkpt>
      <trkpt lat="43.29223" lon="2.22889">
        <ele>190.1</ele>
        <time>2019-06-09T07:51:24.000Z</time>
      </trkpt>
      <trkpt lat="43.29225" lon="2.22888">
        <ele>190</ele>
        <time>2019-06-09T07:51:25.000Z</time>
      </trkpt>
      <trkpt lat="43.29226" lon="2.22887">
        <ele>189.9</ele>
        <time>2019-06-09T07:51:26.000Z</time>
      </trkpt>
      <trkpt lat="43.29228" lon="2.22886">
        <ele>189.9</ele>
        <time>2019-06-09T07:51:27.000Z</time>
      </trkpt>
      <trkpt lat="43.2923" lon="2.22884">
        <ele>189.9</ele>
        <time>2019-06-09T07:51:28.000Z</time>
      </trkpt>
      <trkpt lat="43.29231" lon="2.22883">
        <ele>189.8</ele>
        <time>2019-06-09T07:51:29.000Z</time>
      </trkpt>
      <trkpt lat="43.29233" lon="2.22881">
        <ele>189.8</ele>
        <time>2019-06-09T07:51:30.000Z</time>
      </trkpt>
      <trkpt lat="43.29235" lon="2.22879">
        <ele>189.8</ele>
        <time>2019-06-09T07:51:31.000Z</time>
      </trkpt>
      <trkpt lat="43.29236" lon="2.22878">
        <ele>189.8</ele>
        <time>2019-06-09T07:51:32.000Z</time>
      </trkpt>
      <trkpt lat="43.29238" lon="2.22876">
        <ele>189.7</ele>
        <time>2019-06-09T07:51:33.000Z</time>
      </trkpt>
      <trkpt lat="43.2924" lon="2.22875">
        <ele>189.7</ele>
        <time>2019-06-09T07:51:34.000Z</time>
      </trkpt>
      <trkpt lat="43.29241" lon="2.22874">
        <ele>189.6</ele>
        <time>2019-06-09T07:51:35.000Z</time>
      </trkpt>
      <trkpt lat="43.29243" lon="2.22873">
        <ele>189.6</ele>
        <time>2019-06-09T07:51:36.000Z</time>
      </trkpt>
      <trkpt lat="43.29245" lon="2.22872">
        <ele>189.5</ele>
        <time>2019-06-09T07:51:37.000Z</time>
      </trkpt>
      <trkpt lat="43.29247" lon="2.22871">
        <ele>189.4</ele>
        <time>2019-06-09T07:51:38.000Z</time>
      </trkpt>
      <trkpt lat="43.29249" lon="2.2287">
        <ele>189.3</ele>
        <time>2019-06-09T07:51:39.000Z</time>
      </trkpt>
      <trkpt lat="43.29251" lon="2.22869">
        <ele>189.3</ele>
        <time>2019-06-09T07:51:40.000Z</time>
      </trkpt>
      <trkpt lat="43.29253" lon="2.22868">
        <ele>189.2</ele>
        <time>2019-06-09T07:51:41.000Z</time>
      </trkpt>
      <trkpt lat="43.29255" lon="2.22867">
        <ele>189.2</ele>
        <time>2019-06-09T07:51:42.000Z</time>
      </trkpt>
      <trkpt lat="43.29257" lon="2.22865">
        <ele>189.2</ele>
        <time>2019-06-09T07:51:43.000Z</time>
      </trkpt>
      <trkpt lat="43.29259" lon="2.22864">
        <ele>189.2</ele>
        <time>2019-06-09T07:51:44.000Z</time>
      </trkpt>
      <trkpt lat="43.29261" lon="2.22863">
        <ele>189.1</ele>
        <time>2019-06-09T07:51:45.000Z</time>
      </trkpt>
      <trkpt lat="43.29263" lon="2.22861">
        <ele>189.1</ele>
        <time>2019-06-09T07:51:46.000Z</time>
      </trkpt>
      <trkpt lat="43.29265" lon="2.2286">
        <ele>189.1</ele>
        <time>2019-06-09T07:51:47.000Z</time>
      </trkpt>
      <trkpt lat="43.29266" lon="2.22858">
        <ele>189.1</ele>
        <time>2019-06-09T07:51:48.000Z</time>
      </trkpt>
      <trkpt lat="43.29268" lon="2.22856">
        <ele>189</ele>
        <time>2019-06-09T07:51:49.000Z</time>
      </trkpt>
      <trkpt lat="43.2927" lon="2.22855">
        <ele>189</ele>
        <time>2019-06-09T07:51:50.000Z</time>
      </trkpt>
      <trkpt lat="43.29272" lon="2.22853">
        <ele>189</ele>
        <time>2019-06-09T07:51:51.000Z</time>
      </trkpt>
      <trkpt lat="43.29274" lon="2.22851">
        <ele>189</ele>
        <time>2019-06-09T07:51:52.000Z</time>
      </trkpt>
      <trkpt lat="43.29276" lon="2.22849">
        <ele>188.9</ele>
        <time>2019-06-09T07:51:53.000Z</time>
      </trkpt>
      <trkpt lat="43.29278" lon="2.22847">
        <ele>188.9</ele>
        <time>2019-06-09T07:51:54.000Z</time>
      </trkpt>
      <trkpt lat="43.29279" lon="2.22845">
        <ele>188.9</ele>
        <time>2019-06-09T07:51:55.000Z</time>
      </trkpt>
      <trkpt lat="43.29281" lon="2.22843">
        <ele>188.8</ele>
        <time>2019-06-09T07:51:56.000Z</time>
      </trkpt>
      <trkpt lat="43.29283" lon="2.22841">
        <ele>188.8</ele>
        <time>2019-06-09T07:51:57.000Z</time>
      </trkpt>
      <trkpt lat="43.29285" lon="2.22838">
        <ele>188.8</ele>
        <time>2019-06-09T07:51:58.000Z</time>
      </trkpt>
      <trkpt lat="43.29287" lon="2.22836">
        <ele>188.7</ele>
        <time>2019-06-09T07:51:59.000Z</time>
      </trkpt>
      <trkpt lat="43.29289" lon="2.22834">
        <ele>188.6</ele>
        <time>2019-06-09T07:52:00.000Z</time>
      </trkpt>
      <trkpt lat="43.29291" lon="2.22832">
        <ele>188.7</ele>
        <time>2019-06-09T07:52:01.000Z</time>
      </trkpt>
      <trkpt lat="43.29293" lon="2.22829">
        <ele>188.8</ele>
        <time>2019-06-09T07:52:02.000Z</time>
      </trkpt>
      <trkpt lat="43.29295" lon="2.22827">
        <ele>189</ele>
        <time>2019-06-09T07:52:03.000Z</time>
      </trkpt>
      <trkpt lat="43.29297" lon="2.22824">
        <ele>189.1</ele>
        <time>2019-06-09T07:52:04.000Z</time>
      </trkpt>
      <trkpt lat="43.29299" lon="2.22822">
        <ele>189.2</ele>
        <time>2019-06-09T07:52:05.000Z</time>
      </trkpt>
      <trkpt lat="43.29301" lon="2.22819">
        <ele>189.3</ele>
        <time>2019-06-09T07:52:06.000Z</time>
      </trkpt>
      <trkpt lat="43.29303" lon="2.22817">
        <ele>189.4</ele>
        <time>2019-06-09T07:52:07.000Z</time>
      </trkpt>
      <trkpt lat="43.29305" lon="2.22815">
        <ele>189.6</ele>
        <time>2019-06-09T07:52:08.000Z</time>
      </trkpt>
      <trkpt lat="43.29306" lon="2.22813">
        <ele>189.7</ele>
        <time>2019-06-09T07:52:09.000Z</time>
      </trkpt>
      <trkpt lat="43.29308" lon="2.22811">
        <ele>189.8</ele>
        <time>2019-06-09T07:52:10.000Z</time>
      </trkpt>
      <trkpt lat="43.2931" lon="2.22809">
        <ele>189.9</ele>
        <time>2019-06-09T07:52:11.000Z</time>
      </trkpt>
      <trkpt lat="43.29312" lon="2.22807">
        <ele>190</ele>
        <time>2019-06-09T07:52:12.000Z</time>
      </trkpt>
      <trkpt lat="43.29314" lon="2.22805">
        <ele>190.1</ele>
        <time>2019-06-09T07:52:13.000Z</time>
      </trkpt>
      <trkpt lat="43.29317" lon="2.22803">
        <ele>190.1</ele>
        <time>2019-06-09T07:52:14.000Z</time>
      </trkpt>
      <trkpt lat="43.29319" lon="2.22802">
        <ele>190.1</ele>
        <time>2019-06-09T07:52:15.000Z</time>
      </trkpt>
      <trkpt lat="43.29322" lon="2.228">
        <ele>190.1</ele>
        <time>2019-06-09T07:52:16.000Z</time>
      </trkpt>
      <trkpt lat="43.29324" lon="2.22799">
        <ele>190.2</ele>
        <time>2019-06-09T07:52:17.000Z</time>
      </trkpt>
      <trkpt lat="43.29327" lon="2.22798">
        <ele>190.2</ele>
        <time>2019-06-09T07:52:18.000Z</time>
      </trkpt>
      <trkpt lat="43.29329" lon="2.22796">
        <ele>190.2</ele>
        <time>2019-06-09T07:52:19.000Z</time>
      </trkpt>
      <trkpt lat="43.29331" lon="2.22795">
        <ele>190.3</ele>
        <time>2019-06-09T07:52:20.000Z</time>
      </trkpt>
      <trkpt lat="43.29333" lon="2.22793">
        <ele>190.3</ele>
        <time>2019-06-09T07:52:21.000Z</time>
      </trkpt>
      <trkpt lat="43.29336" lon="2.22792">
        <ele>190.2</ele>
        <time>2019-06-09T07:52:22.000Z</time>
      </trkpt>
      <trkpt lat="43.29338" lon="2.2279">
        <ele>190.2</ele>
        <time>2019-06-09T07:52:23.000Z</time>
      </trkpt>
      <trkpt lat="43.29339" lon="2.22788">
        <ele>190.1</ele>
        <time>2019-06-09T07:52:24.000Z</time>
      </trkpt>
      <trkpt lat="43.29341" lon="2.22786">
        <ele>190.1</ele>
        <time>2019-06-09T07:52:25.000Z</time>
      </trkpt>
      <trkpt lat="43.29343" lon="2.22783">
        <ele>190.1</ele>
        <time>2019-06-09T07:52:26.000Z</time>
      </trkpt>
      <trkpt lat="43.29345" lon="2.22781">
        <ele>190.1</ele>
        <time>2019-06-09T07:52:27.000Z</time>
      </trkpt>
      <trkpt lat="43.29346" lon="2.22778">
        <ele>190.1</ele>
        <time>2019-06-09T07:52:28.000Z</time>
      </trkpt>
      <trkpt lat="43.29348" lon="2.22775">
        <ele>190.2</ele>
        <time>2019-06-09T07:52:29.000Z</time>
      </trkpt>
      <trkpt lat="43.29349" lon="2.22773">
        <ele>190.2</ele>
        <time>2019-06-09T07:52:30.000Z</time>
      </trkpt>
      <trkpt lat="43.2935" lon="2.2277">
        <ele>190.3</ele>
        <time>2019-06-09T07:52:31.000Z</time>
      </trkpt>
      <trkpt lat="43.29352" lon="2.22767">
        <ele>190.3</ele>
        <time>2019-06-09T07:52:32.000Z</time>
      </trkpt>
      <trkpt lat="43.29353" lon="2.22764">
        <ele>190.3</ele>
        <time>2019-06-09T07:52:33.000Z</time>
      </trkpt>
      <trkpt lat="43.29354" lon="2.22761">
        <ele>190.4</ele>
        <time>2019-06-09T07:52:34.000Z</time>
      </trkpt>
      <trkpt lat="43.29355" lon="2.22758">
        <ele>190.4</ele>
        <time>2019-06-09T07:52:35.000Z</time>
      </trkpt>
      <trkpt lat="43.29357" lon="2.22755">
        <ele>190.4</ele>
        <time>2019-06-09T07:52:36.000Z</time>
      </trkpt>
      <trkpt lat="43.29358" lon="2.22753">
        <ele>190.4</ele>
        <time>2019-06-09T07:52:37.000Z</time>
      </trkpt>
      <trkpt lat="43.29359" lon="2.2275">
        <ele>190.4</ele>
        <time>2019-06-09T07:52:38.000Z</time>
      </trkpt>
      <trkpt lat="43.2936" lon="2.22747">
        <ele>190.4</ele>
        <time>2019-06-09T07:52:39.000Z</time>
      </trkpt>
      <trkpt lat="43.29362" lon="2.22745">
        <ele>190.4</ele>
        <time>2019-06-09T07:52:40.000Z</time>
      </trkpt>
      <trkpt lat="43.29363" lon="2.22742">
        <ele>190.4</ele>
        <time>2019-06-09T07:52:41.000Z</time>
      </trkpt>
      <trkpt lat="43.29364" lon="2.22739">
        <ele>190.4</ele>
        <time>2019-06-09T07:52:42.000Z</time>
      </trkpt>
      <trkpt lat="43.29366" lon="2.22737">
        <ele>190.4</ele>
        <time>2019-06-09T07:52:43.000Z</time>
      </trkpt>
      <trkpt lat="43.29367" lon="2.22735">
        <ele>190.3</ele>
        <time>2019-06-09T07:52:44.000Z</time>
      </trkpt>
      <trkpt lat="43.29369" lon="2.22732">
        <ele>190.3</ele>
        <time>2019-06-09T07:52:45.000Z</time>
      </trkpt>
      <trkpt lat="43.29371" lon="2.2273">
        <ele>190.2</ele>
        <time>2019-06-09T07:52:46.000Z</time>
      </trkpt>
      <trkpt lat="43.29372" lon="2.22728">
        <ele>190.2</ele>
        <time>2019-06-09T07:52:47.000Z</time>
      </trkpt>
      <trkpt lat="43.29374" lon="2.22726">
        <ele>190.1</ele>
        <time>2019-06-09T07:52:48.000Z</time>
      </trkpt>
      <trkpt lat="43.29376" lon="2.22724">
        <ele>190</ele>
        <time>2019-06-09T07:52:49.000Z</time>
      </trkpt>
      <trkpt lat="43.29378" lon="2.22722">
        <ele>190</ele>
        <time>2019-06-09T07:52:50.000Z</time>
      </trkpt>
      <trkpt lat="43.29379" lon="2.2272">
        <ele>189.9</ele>
        <time>2019-06-09T07:52:51.000Z</time>
      </trkpt>
      <trkpt lat="43.29381" lon="2.22717">
        <ele>189.9</ele>
        <time>2019-06-09T07:52:52.000Z</time>
      </trkpt>
      <trkpt lat="43.29383" lon="2.22715">
        <ele>190</ele>
        <time>2019-06-09T07:52:53.000Z</time>
      </trkpt>
      <trkpt lat="43.29384" lon="2.22712">
        <ele>190</ele>
        <time>2019-06-09T07:52:54.000Z</time>
      </trkpt>
      <trkpt lat="43.29386" lon="2.22709">
        <ele>190.2</ele>
        <time>2019-06-09T07:52:55.000Z</time>
      </trkpt>
      <trkpt lat="43.29387" lon="2.22706">
        <ele>190.4</ele>
        <time>2019-06-09T07:52:56.000Z</time>
      </trkpt>
      <trkpt lat="43.29389" lon="2.22702">
        <ele>190.6</ele>
        <time>2019-06-09T07:52:57.000Z</time>
      </trkpt>
      <trkpt lat="43.2939" lon="2.22699">
        <ele>190.8</ele>
        <time>2019-06-09T07:52:58.000Z</time>
      </trkpt>
      <trkpt lat="43.29391" lon="2.22695">
        <ele>191.1</ele>
        <time>2019-06-09T07:52:59.000Z</time>
      </trkpt>
      <trkpt lat="43.29393" lon="2.22691">
        <ele>191.4</ele>
        <time>2019-06-09T07:53:00.000Z</time>
      </trkpt>
      <trkpt lat="43.29394" lon="2.22688">
        <ele>191.6</ele>
        <time>2019-06-09T07:53:01.000Z</time>
      </trkpt>
      <trkpt lat="43.29395" lon="2.22685">
        <ele>191.9</ele>
        <time>2019-06-09T07:53:02.000Z</time>
      </trkpt>
      <trkpt lat="43.29396" lon="2.22682">
        <ele>192.1</ele>
        <time>2019-06-09T07:53:03.000Z</time>
      </trkpt>
      <trkpt lat="43.29397" lon="2.22679">
        <ele>192.4</ele>
        <time>2019-06-09T07:53:04.000Z</time>
      </trkpt>
      <trkpt lat="43.29399" lon="2.22676">
        <ele>192.5</ele>
        <time>2019-06-09T07:53:05.000Z</time>
      </trkpt>
      <trkpt lat="43.294" lon="2.22674">
        <ele>192.7</ele>
        <time>2019-06-09T07:53:06.000Z</time>
      </trkpt>
      <trkpt lat="43.29401" lon="2.22672">
        <ele>192.8</ele>
        <time>2019-06-09T07:53:07.000Z</time>
      </trkpt>
      <trkpt lat="43.29402" lon="2.2267">
        <ele>192.9</ele>
        <time>2019-06-09T07:53:08.000Z</time>
      </trkpt>
      <trkpt lat="43.29404" lon="2.22669">
        <ele>193</ele>
        <time>2019-06-09T07:53:09.000Z</time>
      </trkpt>
      <trkpt lat="43.29405" lon="2.22668">
        <ele>193</ele>
        <time>2019-06-09T07:53:10.000Z</time>
      </trkpt>
      <trkpt lat="43.29407" lon="2.22667">
        <ele>193</ele>
        <time>2019-06-09T07:53:11.000Z</time>
      </trkpt>
      <trkpt lat="43.29408" lon="2.22666">
        <ele>192.9</ele>
        <time>2019-06-09T07:53:12.000Z</time>
      </trkpt>
      <trkpt lat="43.29409" lon="2.22665">
        <ele>192.8</ele>
        <time>2019-06-09T07:53:13.000Z</time>
      </trkpt>
      <trkpt lat="43.2941" lon="2.22664">
        <ele>192.7</ele>
        <time>2019-06-09T07:53:14.000Z</time>
      </trkpt>
      <trkpt lat="43.2941" lon="2.22663">
        <ele>192.8</ele>
        <time>2019-06-09T07:53:15.000Z</time>
      </trkpt>
      <trkpt lat="43.2941" lon="2.22663">
        <ele>192.8</ele>
        <time>2019-06-09T07:53:16.000Z</time>
      </trkpt>
      <trkpt lat="43.2941" lon="2.22662">
        <ele>192.8</ele>
        <time>2019-06-09T07:53:17.000Z</time>
      </trkpt>
      <trkpt lat="43.2941" lon="2.22662">
        <ele>192.9</ele>
        <time>2019-06-09T07:53:18.000Z</time>
      </trkpt>
      <trkpt lat="43.2941" lon="2.22662">
        <ele>192.9</ele>
        <time>2019-06-09T07:53:19.000Z</time>
      </trkpt>
      <trkpt lat="43.2941" lon="2.22662">
        <ele>192.9</ele>
        <time>2019-06-09T07:53:20.000Z</time>
      </trkpt>
      <trkpt lat="43.2941" lon="2.22662">
        <ele>192.9</ele>
        <time>2019-06-09T07:53:21.000Z</time>
      </trkpt>
      <trkpt lat="43.2941" lon="2.22662">
        <ele>192.9</ele>
        <time>2019-06-09T07:53:22.000Z</time>
      </trkpt>
      <trkpt lat="43.2941" lon="2.22661">
        <ele>192.9</ele>
        <time>2019-06-09T07:53:23.000Z</time>
      </trkpt>
      <trkpt lat="43.2941" lon="2.22661">
        <ele>192.9</ele>
        <time>2019-06-09T07:53:24.000Z</time>
      </trkpt>
      <trkpt lat="43.2941" lon="2.22661">
        <ele>192.9</ele>
        <time>2019-06-09T07:53:25.000Z</time>
      </trkpt>
      <trkpt lat="43.2941" lon="2.2266">
        <ele>192.9</ele>
        <time>2019-06-09T07:53:26.000Z</time>
      </trkpt>
      <trkpt lat="43.2941" lon="2.2266">
        <ele>193</ele>
        <time>2019-06-09T07:53:27.000Z</time>
      </trkpt>
      <trkpt lat="43.2941" lon="2.22659">
        <ele>193</ele>
        <time>2019-06-09T07:53:28.000Z</time>
      </trkpt>
      <trkpt lat="43.2941" lon="2.22658">
        <ele>193</ele>
        <time>2019-06-09T07:53:29.000Z</time>
      </trkpt>
      <trkpt lat="43.2941" lon="2.22658">
        <ele>193</ele>
        <time>2019-06-09T07:53:30.000Z</time>
      </trkpt>
      <trkpt lat="43.2941" lon="2.22658">
        <ele>193</ele>
        <time>2019-06-09T07:53:31.000Z</time>
      </trkpt>
      <trkpt lat="43.2941" lon="2.22658">
        <ele>193</ele>
        <time>2019-06-09T07:53:32.000Z</time>
      </trkpt>
      <trkpt lat="43.2941" lon="2.22658">
        <ele>193</ele>
        <time>2019-06-09T07:53:33.000Z</time>
      </trkpt>
      <trkpt lat="43.2941" lon="2.22658">
        <ele>193</ele>
        <time>2019-06-09T07:53:34.000Z</time>
      </trkpt>
      <trkpt lat="43.2941" lon="2.22658">
        <ele>193</ele>
        <time>2019-06-09T07:53:35.000Z</time>
      </trkpt>
      <trkpt lat="43.2941" lon="2.22658">
        <ele>193</ele>
        <time>2019-06-09T07:53:36.000Z</time>
      </trkpt>
      <trkpt lat="43.2941" lon="2.22658">
        <ele>193</ele>
        <time>2019-06-09T07:53:37.000Z</time>
      </trkpt>
      <trkpt lat="43.2941" lon="2.22658">
        <ele>193</ele>
        <time>2019-06-09T07:53:38.000Z</time>
      </trkpt>
      <trkpt lat="43.2941" lon="2.22658">
        <ele>193</ele>
        <time>2019-06-09T07:53:39.000Z</time>
      </trkpt>
      <trkpt lat="43.2941" lon="2.22658">
        <ele>193</ele>
        <time>2019-06-09T07:53:40.000Z</time>
      </trkpt>
      <trkpt lat="43.2941" lon="2.22658">
        <ele>193</ele>
        <time>2019-06-09T07:53:41.000Z</time>
      </trkpt>
      <trkpt lat="43.2941" lon="2.22658">
        <ele>193</ele>
        <time>2019-06-09T07:53:42.000Z</time>
      </trkpt>
      <trkpt lat="43.2941" lon="2.22658">
        <ele>193</ele>
        <time>2019-06-09T07:53:43.000Z</time>
      </trkpt>
      <trkpt lat="43.2941" lon="2.22658">
        <ele>193</ele>
        <time>2019-06-09T07:53:44.000Z</time>
      </trkpt>
      <trkpt lat="43.2941" lon="2.22658">
        <ele>193</ele>
        <time>2019-06-09T07:53:45.000Z</time>
      </trkpt>
      <trkpt lat="43.2941" lon="2.22658">
        <ele>193</ele>
        <time>2019-06-09T07:53:46.000Z</time>
      </trkpt>
      <trkpt lat="43.2941" lon="2.22658">
        <ele>193</ele>
        <time>2019-06-09T07:53:47.000Z</time>
      </trkpt>
      <trkpt lat="43.2941" lon="2.22658">
        <ele>193</ele>
        <time>2019-06-09T07:53:48.000Z</time>
      </trkpt>
      <trkpt lat="43.2941" lon="2.22658">
        <ele>193</ele>
        <time>2019-06-09T07:53:49.000Z</time>
      </trkpt>
      <trkpt lat="43.29409" lon="2.22658">
        <ele>193</ele>
        <time>2019-06-09T07:53:50.000Z</time>
      </trkpt>
      <trkpt lat="43.29409" lon="2.22658">
        <ele>193.1</ele>
        <time>2019-06-09T07:53:51.000Z</time>
      </trkpt>
      <trkpt lat="43.29409" lon="2.22658">
        <ele>193.1</ele>
        <time>2019-06-09T07:53:52.000Z</time>
      </trkpt>
      <trkpt lat="43.29409" lon="2.22658">
        <ele>193.1</ele>
        <time>2019-06-09T07:53:53.000Z</time>
      </trkpt>
      <trkpt lat="43.2941" lon="2.22657">
        <ele>193.1</ele>
        <time>2019-06-09T07:53:54.000Z</time>
      </trkpt>
      <trkpt lat="43.2941" lon="2.22657">
        <ele>193.1</ele>
        <time>2019-06-09T07:53:55.000Z</time>
      </trkpt>
      <trkpt lat="43.2941" lon="2.22656">
        <ele>193.1</ele>
        <time>2019-06-09T07:53:56.000Z</time>
      </trkpt>
      <trkpt lat="43.2941" lon="2.22656">
        <ele>193.1</ele>
        <time>2019-06-09T07:53:57.000Z</time>
      </trkpt>
      <trkpt lat="43.2941" lon="2.22655">
        <ele>193.1</ele>
        <time>2019-06-09T07:53:58.000Z</time>
      </trkpt>
      <trkpt lat="43.2941" lon="2.22654">
        <ele>193.2</ele>
        <time>2019-06-09T07:53:59.000Z</time>
      </trkpt>
      <trkpt lat="43.2941" lon="2.22652">
        <ele>193.2</ele>
        <time>2019-06-09T07:54:00.000Z</time>
      </trkpt>
      <trkpt lat="43.2941" lon="2.22651">
        <ele>193.3</ele>
        <time>2019-06-09T07:54:01.000Z</time>
      </trkpt>
      <trkpt lat="43.2941" lon="2.22649">
        <ele>193.4</ele>
        <time>2019-06-09T07:54:02.000Z</time>
      </trkpt>
      <trkpt lat="43.2941" lon="2.22647">
        <ele>193.5</ele>
        <time>2019-06-09T07:54:03.000Z</time>
      </trkpt>
      <trkpt lat="43.29409" lon="2.22645">
        <ele>193.6</ele>
        <time>2019-06-09T07:54:04.000Z</time>
      </trkpt>
      <trkpt lat="43.29409" lon="2.22642">
        <ele>193.7</ele>
        <time>2019-06-09T07:54:05.000Z</time>
      </trkpt>
      <trkpt lat="43.29408" lon="2.22639">
        <ele>193.9</ele>
        <time>2019-06-09T07:54:06.000Z</time>
      </trkpt>
      <trkpt lat="43.29407" lon="2.22636">
        <ele>194</ele>
        <time>2019-06-09T07:54:07.000Z</time>
      </trkpt>
      <trkpt lat="43.29406" lon="2.22633">
        <ele>194.2</ele>
        <time>2019-06-09T07:54:08.000Z</time>
      </trkpt>
      <trkpt lat="43.29405" lon="2.2263">
        <ele>194.4</ele>
        <time>2019-06-09T07:54:09.000Z</time>
      </trkpt>
      <trkpt lat="43.29403" lon="2.22627">
        <ele>194.6</ele>
        <time>2019-06-09T07:54:10.000Z</time>
      </trkpt>
      <trkpt lat="43.29402" lon="2.22624">
        <ele>194.7</ele>
        <time>2019-06-09T07:54:11.000Z</time>
      </trkpt>
      <trkpt lat="43.29402" lon="2.22621">
        <ele>194.9</ele>
        <time>2019-06-09T07:54:12.000Z</time>
      </trkpt>
      <trkpt lat="43.29401" lon="2.22618">
        <ele>195</ele>
        <time>2019-06-09T07:54:13.000Z</time>
      </trkpt>
      <trkpt lat="43.29401" lon="2.22615">
        <ele>195</ele>
        <time>2019-06-09T07:54:14.000Z</time>
      </trkpt>
      <trkpt lat="43.29402" lon="2.22612">
        <ele>195.1</ele>
        <time>2019-06-09T07:54:15.000Z</time>
      </trkpt>
      <trkpt lat="43.29402" lon="2.2261">
        <ele>195.2</ele>
        <time>2019-06-09T07:54:16.000Z</time>
      </trkpt>
      <trkpt lat="43.29402" lon="2.22608">
        <ele>195.2</ele>
        <time>2019-06-09T07:54:17.000Z</time>
      </trkpt>
      <trkpt lat="43.29402" lon="2.22607">
        <ele>195.3</ele>
        <time>2019-06-09T07:54:18.000Z</time>
      </trkpt>
      <trkpt lat="43.29402" lon="2.22605">
        <ele>195.3</ele>
        <time>2019-06-09T07:54:19.000Z</time>
      </trkpt>
      <trkpt lat="43.29402" lon="2.22603">
        <ele>195.4</ele>
        <time>2019-06-09T07:54:20.000Z</time>
      </trkpt>
      <trkpt lat="43.29402" lon="2.22602">
        <ele>195.4</ele>
        <time>2019-06-09T07:54:21.000Z</time>
      </trkpt>
      <trkpt lat="43.29402" lon="2.226">
        <ele>195.5</ele>
        <time>2019-06-09T07:54:22.000Z</time>
      </trkpt>
      <trkpt lat="43.29401" lon="2.22599">
        <ele>195.5</ele>
        <time>2019-06-09T07:54:23.000Z</time>
      </trkpt>
      <trkpt lat="43.29401" lon="2.22597">
        <ele>195.6</ele>
        <time>2019-06-09T07:54:24.000Z</time>
      </trkpt>
      <trkpt lat="43.294" lon="2.22596">
        <ele>195.6</ele>
        <time>2019-06-09T07:54:25.000Z</time>
      </trkpt>
      <trkpt lat="43.29399" lon="2.22594">
        <ele>195.7</ele>
        <time>2019-06-09T07:54:26.000Z</time>
      </trkpt>
      <trkpt lat="43.29397" lon="2.22593">
        <ele>195.8</ele>
        <time>2019-06-09T07:54:27.000Z</time>
      </trkpt>
      <trkpt lat="43.29396" lon="2.22592">
        <ele>195.8</ele>
        <time>2019-06-09T07:54:28.000Z</time>
      </trkpt>
      <trkpt lat="43.29394" lon="2.2259">
        <ele>195.9</ele>
        <time>2019-06-09T07:54:29.000Z</time>
      </trkpt>
      <trkpt lat="43.29392" lon="2.22589">
        <ele>195.9</ele>
        <time>2019-06-09T07:54:30.000Z</time>
      </trkpt>
      <trkpt lat="43.29391" lon="2.22588">
        <ele>195.9</ele>
        <time>2019-06-09T07:54:31.000Z</time>
      </trkpt>
      <trkpt lat="43.29389" lon="2.22586">
        <ele>196</ele>
        <time>2019-06-09T07:54:32.000Z</time>
      </trkpt>
      <trkpt lat="43.29387" lon="2.22585">
        <ele>196</ele>
        <time>2019-06-09T07:54:33.000Z</time>
      </trkpt>
      <trkpt lat="43.29385" lon="2.22584">
        <ele>196</ele>
        <time>2019-06-09T07:54:34.000Z</time>
      </trkpt>
      <trkpt lat="43.29383" lon="2.22584">
        <ele>196</ele>
        <time>2019-06-09T07:54:35.000Z</time>
      </trkpt>
      <trkpt lat="43.29382" lon="2.22583">
        <ele>195.9</ele>
        <time>2019-06-09T07:54:36.000Z</time>
      </trkpt>
      <trkpt lat="43.2938" lon="2.22583">
        <ele>195.9</ele>
        <time>2019-06-09T07:54:37.000Z</time>
      </trkpt>
      <trkpt lat="43.29379" lon="2.22582">
        <ele>195.8</ele>
        <time>2019-06-09T07:54:38.000Z</time>
      </trkpt>
      <trkpt lat="43.29377" lon="2.22582">
        <ele>195.7</ele>
        <time>2019-06-09T07:54:39.000Z</time>
      </trkpt>
      <trkpt lat="43.29376" lon="2.22582">
        <ele>195.7</ele>
        <time>2019-06-09T07:54:40.000Z</time>
      </trkpt>
      <trkpt lat="43.29374" lon="2.22582">
        <ele>195.7</ele>
        <time>2019-06-09T07:54:41.000Z</time>
      </trkpt>
      <trkpt lat="43.29373" lon="2.22582">
        <ele>195.7</ele>
        <time>2019-06-09T07:54:42.000Z</time>
      </trkpt>
      <trkpt lat="43.29372" lon="2.22582">
        <ele>195.8</ele>
        <time>2019-06-09T07:54:43.000Z</time>
      </trkpt>
      <trkpt lat="43.2937" lon="2.22583">
        <ele>195.8</ele>
        <time>2019-06-09T07:54:44.000Z</time>
      </trkpt>
      <trkpt lat="43.29369" lon="2.22583">
        <ele>195.9</ele>
        <time>2019-06-09T07:54:45.000Z</time>
      </trkpt>
      <trkpt lat="43.29367" lon="2.22583">
        <ele>195.9</ele>
        <time>2019-06-09T07:54:46.000Z</time>
      </trkpt>
      <trkpt lat="43.29366" lon="2.22583">
        <ele>196</ele>
        <time>2019-06-09T07:54:47.000Z</time>
      </trkpt>
      <trkpt lat="43.29364" lon="2.22584">
        <ele>196</ele>
        <time>2019-06-09T07:54:48.000Z</time>
      </trkpt>
      <trkpt lat="43.29362" lon="2.22584">
        <ele>196</ele>
        <time>2019-06-09T07:54:49.000Z</time>
      </trkpt>
      <trkpt lat="43.2936" lon="2.22584">
        <ele>196</ele>
        <time>2019-06-09T07:54:50.000Z</time>
      </trkpt>
      <trkpt lat="43.29358" lon="2.22584">
        <ele>196</ele>
        <time>2019-06-09T07:54:51.000Z</time>
      </trkpt>
      <trkpt lat="43.29356" lon="2.22585">
        <ele>196</ele>
        <time>2019-06-09T07:54:52.000Z</time>
      </trkpt>
      <trkpt lat="43.29354" lon="2.22585">
        <ele>196</ele>
        <time>2019-06-09T07:54:53.000Z</time>
      </trkpt>
      <trkpt lat="43.29352" lon="2.22585">
        <ele>196</ele>
        <time>2019-06-09T07:54:54.000Z</time>
      </trkpt>
      <trkpt lat="43.2935" lon="2.22586">
        <ele>196.1</ele>
        <time>2019-06-09T07:54:55.000Z</time>
      </trkpt>
      <trkpt lat="43.29348" lon="2.22586">
        <ele>196.1</ele>
        <time>2019-06-09T07:54:56.000Z</time>
      </trkpt>
      <trkpt lat="43.29346" lon="2.22587">
        <ele>196.1</ele>
        <time>2019-06-09T07:54:57.000Z</time>
      </trkpt>
      <trkpt lat="43.29345" lon="2.22588">
        <ele>196.1</ele>
        <time>2019-06-09T07:54:58.000Z</time>
      </trkpt>
      <trkpt lat="43.29343" lon="2.22588">
        <ele>196.2</ele>
        <time>2019-06-09T07:54:59.000Z</time>
      </trkpt>
      <trkpt lat="43.29342" lon="2.2259">
        <ele>196.2</ele>
        <time>2019-06-09T07:55:00.000Z</time>
      </trkpt>
      <trkpt lat="43.2934" lon="2.22591">
        <ele>196.3</ele>
        <time>2019-06-09T07:55:01.000Z</time>
      </trkpt>
      <trkpt lat="43.29339" lon="2.22592">
        <ele>196.4</ele>
        <time>2019-06-09T07:55:02.000Z</time>
      </trkpt>
      <trkpt lat="43.29337" lon="2.22593">
        <ele>196.4</ele>
        <time>2019-06-09T07:55:03.000Z</time>
      </trkpt>
      <trkpt lat="43.29335" lon="2.22595">
        <ele>196.5</ele>
        <time>2019-06-09T07:55:04.000Z</time>
      </trkpt>
      <trkpt lat="43.29334" lon="2.22596">
        <ele>196.6</ele>
        <time>2019-06-09T07:55:05.000Z</time>
      </trkpt>
      <trkpt lat="43.29332" lon="2.22598">
        <ele>196.7</ele>
        <time>2019-06-09T07:55:06.000Z</time>
      </trkpt>
      <trkpt lat="43.2933" lon="2.226">
        <ele>196.7</ele>
        <time>2019-06-09T07:55:07.000Z</time>
      </trkpt>
      <trkpt lat="43.29328" lon="2.22601">
        <ele>196.8</ele>
        <time>2019-06-09T07:55:08.000Z</time>
      </trkpt>
      <trkpt lat="43.29326" lon="2.22603">
        <ele>196.8</ele>
        <time>2019-06-09T07:55:09.000Z</time>
      </trkpt>
      <trkpt lat="43.29324" lon="2.22606">
        <ele>196.9</ele>
        <time>2019-06-09T07:55:10.000Z</time>
      </trkpt>
      <trkpt lat="43.29322" lon="2.22607">
        <ele>197</ele>
        <time>2019-06-09T07:55:11.000Z</time>
      </trkpt>
      <trkpt lat="43.2932" lon="2.22609">
        <ele>197.1</ele>
        <time>2019-06-09T07:55:12.000Z</time>
      </trkpt>
      <trkpt lat="43.29318" lon="2.22611">
        <ele>197.1</ele>
        <time>2019-06-09T07:55:13.000Z</time>
      </trkpt>
      <trkpt lat="43.29316" lon="2.22612">
        <ele>197.1</ele>
        <time>2019-06-09T07:55:14.000Z</time>
      </trkpt>
      <trkpt lat="43.29314" lon="2.22612">
        <ele>197.2</ele>
        <time>2019-06-09T07:55:15.000Z</time>
      </trkpt>
      <trkpt lat="43.29311" lon="2.22613">
        <ele>197.2</ele>
        <time>2019-06-09T07:55:16.000Z</time>
      </trkpt>
      <trkpt lat="43.29309" lon="2.22613">
        <ele>197.2</ele>
        <time>2019-06-09T07:55:17.000Z</time>
      </trkpt>
      <trkpt lat="43.29307" lon="2.22613">
        <ele>197.1</ele>
        <time>2019-06-09T07:55:18.000Z</time>
      </trkpt>
      <trkpt lat="43.29305" lon="2.22613">
        <ele>197.1</ele>
        <time>2019-06-09T07:55:19.000Z</time>
      </trkpt>
      <trkpt lat="43.29303" lon="2.22613">
        <ele>197.1</ele>
        <time>2019-06-09T07:55:20.000Z</time>
      </trkpt>
      <trkpt lat="43.29301" lon="2.22613">
        <ele>197.1</ele>
        <time>2019-06-09T07:55:21.000Z</time>
      </trkpt>
      <trkpt lat="43.29299" lon="2.22613">
        <ele>197.1</ele>
        <time>2019-06-09T07:55:22.000Z</time>
      </trkpt>
      <trkpt lat="43.29297" lon="2.22613">
        <ele>197</ele>
        <time>2019-06-09T07:55:23.000Z</time>
      </trkpt>
      <trkpt lat="43.29294" lon="2.22613">
        <ele>197</ele>
        <time>2019-06-09T07:55:24.000Z</time>
      </trkpt>
      <trkpt lat="43.29292" lon="2.22613">
        <ele>197</ele>
        <time>2019-06-09T07:55:25.000Z</time>
      </trkpt>
      <trkpt lat="43.29289" lon="2.22613">
        <ele>197</ele>
        <time>2019-06-09T07:55:26.000Z</time>
      </trkpt>
      <trkpt lat="43.29287" lon="2.22614">
        <ele>197</ele>
        <time>2019-06-09T07:55:27.000Z</time>
      </trkpt>
      <trkpt lat="43.29285" lon="2.22614">
        <ele>197</ele>
        <time>2019-06-09T07:55:28.000Z</time>
      </trkpt>
      <trkpt lat="43.29283" lon="2.22614">
        <ele>197</ele>
        <time>2019-06-09T07:55:29.000Z</time>
      </trkpt>
      <trkpt lat="43.29281" lon="2.22614">
        <ele>197</ele>
        <time>2019-06-09T07:55:30.000Z</time>
      </trkpt>
      <trkpt lat="43.29278" lon="2.22615">
        <ele>197</ele>
        <time>2019-06-09T07:55:31.000Z</time>
      </trkpt>
      <trkpt lat="43.29276" lon="2.22615">
        <ele>197</ele>
        <time>2019-06-09T07:55:32.000Z</time>
      </trkpt>
      <trkpt lat="43.29274" lon="2.22616">
        <ele>197.1</ele>
        <time>2019-06-09T07:55:33.000Z</time>
      </trkpt>
      <trkpt lat="43.29272" lon="2.22616">
        <ele>197.1</ele>
        <time>2019-06-09T07:55:34.000Z</time>
      </trkpt>
      <trkpt lat="43.2927" lon="2.22617">
        <ele>197.1</ele>
        <time>2019-06-09T07:55:35.000Z</time>
      </trkpt>
      <trkpt lat="43.29268" lon="2.22617">
        <ele>197.2</ele>
        <time>2019-06-09T07:55:36.000Z</time>
      </trkpt>
      <trkpt lat="43.29265" lon="2.22618">
        <ele>197.2</ele>
        <time>2019-06-09T07:55:37.000Z</time>
      </trkpt>
      <trkpt lat="43.29263" lon="2.22618">
        <ele>197.2</ele>
        <time>2019-06-09T07:55:38.000Z</time>
      </trkpt>
      <trkpt lat="43.29261" lon="2.22619">
        <ele>197.3</ele>
        <time>2019-06-09T07:55:39.000Z</time>
      </trkpt>
      <trkpt lat="43.29258" lon="2.22619">
        <ele>197.3</ele>
        <time>2019-06-09T07:55:40.000Z</time>
      </trkpt>
      <trkpt lat="43.29256" lon="2.2262">
        <ele>197.4</ele>
        <time>2019-06-09T07:55:41.000Z</time>
      </trkpt>
      <trkpt lat="43.29253" lon="2.2262">
        <ele>197.5</ele>
        <time>2019-06-09T07:55:42.000Z</time>
      </trkpt>
      <trkpt lat="43.29251" lon="2.22621">
        <ele>197.5</ele>
        <time>2019-06-09T07:55:43.000Z</time>
      </trkpt>
      <trkpt lat="43.29248" lon="2.22622">
        <ele>197.5</ele>
        <time>2019-06-09T07:55:44.000Z</time>
      </trkpt>
      <trkpt lat="43.29246" lon="2.22622">
        <ele>197.4</ele>
        <time>2019-06-09T07:55:45.000Z</time>
      </trkpt>
      <trkpt lat="43.29243" lon="2.22623">
        <ele>197.4</ele>
        <time>2019-06-09T07:55:46.000Z</time>
      </trkpt>
      <trkpt lat="43.29241" lon="2.22624">
        <ele>197.3</ele>
        <time>2019-06-09T07:55:47.000Z</time>
      </trkpt>
      <trkpt lat="43.29238" lon="2.22625">
        <ele>197.2</ele>
        <time>2019-06-09T07:55:48.000Z</time>
      </trkpt>
      <trkpt lat="43.29235" lon="2.22626">
        <ele>197.2</ele>
        <time>2019-06-09T07:55:49.000Z</time>
      </trkpt>
      <trkpt lat="43.29233" lon="2.22627">
        <ele>197.2</ele>
        <time>2019-06-09T07:55:50.000Z</time>
      </trkpt>
      <trkpt lat="43.2923" lon="2.22627">
        <ele>197.2</ele>
        <time>2019-06-09T07:55:51.000Z</time>
      </trkpt>
      <trkpt lat="43.29228" lon="2.22628">
        <ele>197.2</ele>
        <time>2019-06-09T07:55:52.000Z</time>
      </trkpt>
      <trkpt lat="43.29225" lon="2.2263">
        <ele>197.2</ele>
        <time>2019-06-09T07:55:53.000Z</time>
      </trkpt>
      <trkpt lat="43.29223" lon="2.22631">
        <ele>197.2</ele>
        <time>2019-06-09T07:55:54.000Z</time>
      </trkpt>
      <trkpt lat="43.2922" lon="2.22632">
        <ele>197.3</ele>
        <time>2019-06-09T07:55:55.000Z</time>
      </trkpt>
      <trkpt lat="43.29218" lon="2.22633">
        <ele>197.4</ele>
        <time>2019-06-09T07:55:56.000Z</time>
      </trkpt>
      <trkpt lat="43.29215" lon="2.22634">
        <ele>197.4</ele>
        <time>2019-06-09T07:55:57.000Z</time>
      </trkpt>
      <trkpt lat="43.29212" lon="2.22635">
        <ele>197.5</ele>
        <time>2019-06-09T07:55:58.000Z</time>
      </trkpt>
      <trkpt lat="43.2921" lon="2.22637">
        <ele>197.6</ele>
        <time>2019-06-09T07:55:59.000Z</time>
      </trkpt>
      <trkpt lat="43.29207" lon="2.22638">
        <ele>197.8</ele>
        <time>2019-06-09T07:56:00.000Z</time>
      </trkpt>
      <trkpt lat="43.29205" lon="2.22639">
        <ele>197.9</ele>
        <time>2019-06-09T07:56:01.000Z</time>
      </trkpt>
      <trkpt lat="43.29202" lon="2.2264">
        <ele>198</ele>
        <time>2019-06-09T07:56:02.000Z</time>
      </trkpt>
      <trkpt lat="43.292" lon="2.22642">
        <ele>198.2</ele>
        <time>2019-06-09T07:56:03.000Z</time>
      </trkpt>
      <trkpt lat="43.29197" lon="2.22643">
        <ele>198.4</ele>
        <time>2019-06-09T07:56:04.000Z</time>
      </trkpt>
      <trkpt lat="43.29194" lon="2.22644">
        <ele>198.5</ele>
        <time>2019-06-09T07:56:05.000Z</time>
      </trkpt>
      <trkpt lat="43.29192" lon="2.22646">
        <ele>198.7</ele>
        <time>2019-06-09T07:56:06.000Z</time>
      </trkpt>
      <trkpt lat="43.29189" lon="2.22647">
        <ele>198.9</ele>
        <time>2019-06-09T07:56:07.000Z</time>
      </trkpt>
      <trkpt lat="43.29187" lon="2.22648">
        <ele>199</ele>
        <time>2019-06-09T07:56:08.000Z</time>
      </trkpt>
      <trkpt lat="43.29185" lon="2.22649">
        <ele>199.2</ele>
        <time>2019-06-09T07:56:09.000Z</time>
      </trkpt>
      <trkpt lat="43.29182" lon="2.2265">
        <ele>199.4</ele>
        <time>2019-06-09T07:56:10.000Z</time>
      </trkpt>
      <trkpt lat="43.2918" lon="2.22651">
        <ele>199.6</ele>
        <time>2019-06-09T07:56:11.000Z</time>
      </trkpt>
      <trkpt lat="43.29177" lon="2.22652">
        <ele>199.8</ele>
        <time>2019-06-09T07:56:12.000Z</time>
      </trkpt>
      <trkpt lat="43.29175" lon="2.22654">
        <ele>200</ele>
        <time>2019-06-09T07:56:13.000Z</time>
      </trkpt>
      <trkpt lat="43.29173" lon="2.22655">
        <ele>200.2</ele>
        <time>2019-06-09T07:56:14.000Z</time>
      </trkpt>
      <trkpt lat="43.2917" lon="2.22656">
        <ele>200.5</ele>
        <time>2019-06-09T07:56:15.000Z</time>
      </trkpt>
      <trkpt lat="43.29169" lon="2.22657">
        <ele>200.7</ele>
        <time>2019-06-09T07:56:16.000Z</time>
      </trkpt>
      <trkpt lat="43.29167" lon="2.22658">
        <ele>201</ele>
        <time>2019-06-09T07:56:17.000Z</time>
      </trkpt>
      <trkpt lat="43.29166" lon="2.2266">
        <ele>201.3</ele>
        <time>2019-06-09T07:56:18.000Z</time>
      </trkpt>
      <trkpt lat="43.29166" lon="2.22661">
        <ele>201.5</ele>
        <time>2019-06-09T07:56:19.000Z</time>
      </trkpt>
      <trkpt lat="43.29166" lon="2.22662">
        <ele>201.8</ele>
        <time>2019-06-09T07:56:20.000Z</time>
      </trkpt>
      <trkpt lat="43.29165" lon="2.22663">
        <ele>202</ele>
        <time>2019-06-09T07:56:21.000Z</time>
      </trkpt>
      <trkpt lat="43.29164" lon="2.22664">
        <ele>202.2</ele>
        <time>2019-06-09T07:56:22.000Z</time>
      </trkpt>
      <trkpt lat="43.29164" lon="2.22664">
        <ele>202.4</ele>
        <time>2019-06-09T07:56:23.000Z</time>
      </trkpt>
      <trkpt lat="43.29163" lon="2.22665">
        <ele>202.5</ele>
        <time>2019-06-09T07:56:24.000Z</time>
      </trkpt>
      <trkpt lat="43.29162" lon="2.22665">
        <ele>202.5</ele>
        <time>2019-06-09T07:56:25.000Z</time>
      </trkpt>
      <trkpt lat="43.29161" lon="2.22665">
        <ele>202.6</ele>
        <time>2019-06-09T07:56:26.000Z</time>
      </trkpt>
      <trkpt lat="43.2916" lon="2.22666">
        <ele>202.6</ele>
        <time>2019-06-09T07:56:27.000Z</time>
      </trkpt>
      <trkpt lat="43.29159" lon="2.22666">
        <ele>202.5</ele>
        <time>2019-06-09T07:56:28.000Z</time>
      </trkpt>
      <trkpt lat="43.29157" lon="2.22666">
        <ele>202.5</ele>
        <time>2019-06-09T07:56:29.000Z</time>
      </trkpt>
      <trkpt lat="43.29155" lon="2.22666">
        <ele>202.5</ele>
        <time>2019-06-09T07:56:30.000Z</time>
      </trkpt>
      <trkpt lat="43.29153" lon="2.22666">
        <ele>202.4</ele>
        <time>2019-06-09T07:56:31.000Z</time>
      </trkpt>
      <trkpt lat="43.29151" lon="2.22666">
        <ele>202.4</ele>
        <time>2019-06-09T07:56:32.000Z</time>
      </trkpt>
      <trkpt lat="43.29149" lon="2.22666">
        <ele>202.5</ele>
        <time>2019-06-09T07:56:33.000Z</time>
      </trkpt>
      <trkpt lat="43.29146" lon="2.22667">
        <ele>202.5</ele>
        <time>2019-06-09T07:56:34.000Z</time>
      </trkpt>
      <trkpt lat="43.29144" lon="2.22668">
        <ele>202.5</ele>
        <time>2019-06-09T07:56:35.000Z</time>
      </trkpt>
      <trkpt lat="43.29142" lon="2.22668">
        <ele>202.5</ele>
        <time>2019-06-09T07:56:36.000Z</time>
      </trkpt>
      <trkpt lat="43.29139" lon="2.22669">
        <ele>202.5</ele>
        <time>2019-06-09T07:56:37.000Z</time>
      </trkpt>
      <trkpt lat="43.29137" lon="2.22669">
        <ele>202.4</ele>
        <time>2019-06-09T07:56:38.000Z</time>
      </trkpt>
      <trkpt lat="43.29134" lon="2.22669">
        <ele>202.4</ele>
        <time>2019-06-09T07:56:39.000Z</time>
      </trkpt>
      <trkpt lat="43.29131" lon="2.22669">
        <ele>202.3</ele>
        <time>2019-06-09T07:56:40.000Z</time>
      </trkpt>
      <trkpt lat="43.29129" lon="2.22669">
        <ele>202.3</ele>
        <time>2019-06-09T07:56:41.000Z</time>
      </trkpt>
      <trkpt lat="43.29126" lon="2.22669">
        <ele>202.2</ele>
        <time>2019-06-09T07:56:42.000Z</time>
      </trkpt>
      <trkpt lat="43.29124" lon="2.22668">
        <ele>202.1</ele>
        <time>2019-06-09T07:56:43.000Z</time>
      </trkpt>
      <trkpt lat="43.29122" lon="2.22668">
        <ele>202.1</ele>
        <time>2019-06-09T07:56:44.000Z</time>
      </trkpt>
      <trkpt lat="43.2912" lon="2.22668">
        <ele>202</ele>
        <time>2019-06-09T07:56:45.000Z</time>
      </trkpt>
      <trkpt lat="43.29118" lon="2.22668">
        <ele>201.9</ele>
        <time>2019-06-09T07:56:46.000Z</time>
      </trkpt>
      <trkpt lat="43.29117" lon="2.22668">
        <ele>201.9</ele>
        <time>2019-06-09T07:56:47.000Z</time>
      </trkpt>
      <trkpt lat="43.29116" lon="2.22667">
        <ele>201.9</ele>
        <time>2019-06-09T07:56:48.000Z</time>
      </trkpt>
      <trkpt lat="43.29114" lon="2.22667">
        <ele>201.8</ele>
        <time>2019-06-09T07:56:49.000Z</time>
      </trkpt>
      <trkpt lat="43.29113" lon="2.22667">
        <ele>201.8</ele>
        <time>2019-06-09T07:56:50.000Z</time>
      </trkpt>
      <trkpt lat="43.29111" lon="2.22667">
        <ele>201.7</ele>
        <time>2019-06-09T07:56:51.000Z</time>
      </trkpt>
      <trkpt lat="43.2911" lon="2.22667">
        <ele>201.7</ele>
        <time>2019-06-09T07:56:52.000Z</time>
      </trkpt>
      <trkpt lat="43.29108" lon="2.22667">
        <ele>201.6</ele>
        <time>2019-06-09T07:56:53.000Z</time>
      </trkpt>
      <trkpt lat="43.29106" lon="2.22666">
        <ele>201.4</ele>
        <time>2019-06-09T07:56:54.000Z</time>
      </trkpt>
      <trkpt lat="43.29104" lon="2.22666">
        <ele>201.3</ele>
        <time>2019-06-09T07:56:55.000Z</time>
      </trkpt>
      <trkpt lat="43.29102" lon="2.22666">
        <ele>201.2</ele>
        <time>2019-06-09T07:56:56.000Z</time>
      </trkpt>
      <trkpt lat="43.291" lon="2.22665">
        <ele>201</ele>
        <time>2019-06-09T07:56:57.000Z</time>
      </trkpt>
      <trkpt lat="43.29098" lon="2.22665">
        <ele>200.9</ele>
        <time>2019-06-09T07:56:58.000Z</time>
      </trkpt>
      <trkpt lat="43.29095" lon="2.22665">
        <ele>200.7</ele>
        <time>2019-06-09T07:56:59.000Z</time>
      </trkpt>
      <trkpt lat="43.29093" lon="2.22664">
        <ele>200.4</ele>
        <time>2019-06-09T07:57:00.000Z</time>
      </trkpt>
      <trkpt lat="43.2909" lon="2.22664">
        <ele>200.2</ele>
        <time>2019-06-09T07:57:01.000Z</time>
      </trkpt>
      <trkpt lat="43.29088" lon="2.22663">
        <ele>199.9</ele>
        <time>2019-06-09T07:57:02.000Z</time>
      </trkpt>
      <trkpt lat="43.29085" lon="2.22662">
        <ele>199.6</ele>
        <time>2019-06-09T07:57:03.000Z</time>
      </trkpt>
      <trkpt lat="43.29082" lon="2.22661">
        <ele>199.2</ele>
        <time>2019-06-09T07:57:04.000Z</time>
      </trkpt>
      <trkpt lat="43.29079" lon="2.2266">
        <ele>198.7</ele>
        <time>2019-06-09T07:57:05.000Z</time>
      </trkpt>
      <trkpt lat="43.29076" lon="2.22659">
        <ele>198.2</ele>
        <time>2019-06-09T07:57:06.000Z</time>
      </trkpt>
      <trkpt lat="43.29074" lon="2.22658">
        <ele>197.7</ele>
        <time>2019-06-09T07:57:07.000Z</time>
      </trkpt>
      <trkpt lat="43.29071" lon="2.22657">
        <ele>197</ele>
        <time>2019-06-09T07:57:08.000Z</time>
      </trkpt>
      <trkpt lat="43.29068" lon="2.22656">
        <ele>196.4</ele>
        <time>2019-06-09T07:57:09.000Z</time>
      </trkpt>
      <trkpt lat="43.29065" lon="2.22654">
        <ele>195.8</ele>
        <time>2019-06-09T07:57:10.000Z</time>
      </trkpt>
      <trkpt lat="43.29062" lon="2.22653">
        <ele>195.1</ele>
        <time>2019-06-09T07:57:11.000Z</time>
      </trkpt>
      <trkpt lat="43.29059" lon="2.22651">
        <ele>194.5</ele>
        <time>2019-06-09T07:57:12.000Z</time>
      </trkpt>
      <trkpt lat="43.29057" lon="2.2265">
        <ele>193.8</ele>
        <time>2019-06-09T07:57:13.000Z</time>
      </trkpt>
      <trkpt lat="43.29054" lon="2.22648">
        <ele>193.2</ele>
        <time>2019-06-09T07:57:14.000Z</time>
      </trkpt>
      <trkpt lat="43.29051" lon="2.22646">
        <ele>192.6</ele>
        <time>2019-06-09T07:57:15.000Z</time>
      </trkpt>
      <trkpt lat="43.29049" lon="2.22645">
        <ele>191.9</ele>
        <time>2019-06-09T07:57:16.000Z</time>
      </trkpt>
      <trkpt lat="43.29046" lon="2.22644">
        <ele>191.3</ele>
        <time>2019-06-09T07:57:17.000Z</time>
      </trkpt>
      <trkpt lat="43.29044" lon="2.22642">
        <ele>190.8</ele>
        <time>2019-06-09T07:57:18.000Z</time>
      </trkpt>
      <trkpt lat="43.29041" lon="2.22642">
        <ele>190.4</ele>
        <time>2019-06-09T07:57:19.000Z</time>
      </trkpt>
      <trkpt lat="43.29038" lon="2.22641">
        <ele>190</ele>
        <time>2019-06-09T07:57:20.000Z</time>
      </trkpt>
      <trkpt lat="43.29034" lon="2.22641">
        <ele>189.7</ele>
        <time>2019-06-09T07:57:21.000Z</time>
      </trkpt>
      <trkpt lat="43.29031" lon="2.22641">
        <ele>189.5</ele>
        <time>2019-06-09T07:57:22.000Z</time>
      </trkpt>
      <trkpt lat="43.29028" lon="2.22641">
        <ele>189.3</ele>
        <time>2019-06-09T07:57:23.000Z</time>
      </trkpt>
      <trkpt lat="43.29025" lon="2.22641">
        <ele>189.2</ele>
        <time>2019-06-09T07:57:24.000Z</time>
      </trkpt>
      <trkpt lat="43.29022" lon="2.22642">
        <ele>189.2</ele>
        <time>2019-06-09T07:57:25.000Z</time>
      </trkpt>
      <trkpt lat="43.29019" lon="2.22642">
        <ele>189.1</ele>
        <time>2019-06-09T07:57:26.000Z</time>
      </trkpt>
      <trkpt lat="43.29017" lon="2.22643">
        <ele>189.1</ele>
        <time>2019-06-09T07:57:27.000Z</time>
      </trkpt>
      <trkpt lat="43.29014" lon="2.22643">
        <ele>189.2</ele>
        <time>2019-06-09T07:57:28.000Z</time>
      </trkpt>
      <trkpt lat="43.29011" lon="2.22644">
        <ele>189.2</ele>
        <time>2019-06-09T07:57:29.000Z</time>
      </trkpt>
      <trkpt lat="43.29009" lon="2.22644">
        <ele>189.1</ele>
        <time>2019-06-09T07:57:30.000Z</time>
      </trkpt>
      <trkpt lat="43.29006" lon="2.22645">
        <ele>189.1</ele>
        <time>2019-06-09T07:57:31.000Z</time>
      </trkpt>
      <trkpt lat="43.29004" lon="2.22645">
        <ele>189</ele>
        <time>2019-06-09T07:57:32.000Z</time>
      </trkpt>
      <trkpt lat="43.29001" lon="2.22645">
        <ele>188.9</ele>
        <time>2019-06-09T07:57:33.000Z</time>
      </trkpt>
      <trkpt lat="43.28999" lon="2.22645">
        <ele>188.6</ele>
        <time>2019-06-09T07:57:34.000Z</time>
      </trkpt>
      <trkpt lat="43.28996" lon="2.22645">
        <ele>188.2</ele>
        <time>2019-06-09T07:57:35.000Z</time>
      </trkpt>
      <trkpt lat="43.28994" lon="2.22645">
        <ele>187.8</ele>
        <time>2019-06-09T07:57:36.000Z</time>
      </trkpt>
      <trkpt lat="43.28991" lon="2.22644">
        <ele>187.3</ele>
        <time>2019-06-09T07:57:37.000Z</time>
      </trkpt>
      <trkpt lat="43.28988" lon="2.22644">
        <ele>187</ele>
        <time>2019-06-09T07:57:38.000Z</time>
      </trkpt>
      <trkpt lat="43.28986" lon="2.22644">
        <ele>186.7</ele>
        <time>2019-06-09T07:57:39.000Z</time>
      </trkpt>
      <trkpt lat="43.28983" lon="2.22645">
        <ele>186.4</ele>
        <time>2019-06-09T07:57:40.000Z</time>
      </trkpt>
      <trkpt lat="43.2898" lon="2.22645">
        <ele>186.2</ele>
        <time>2019-06-09T07:57:41.000Z</time>
      </trkpt>
      <trkpt lat="43.28977" lon="2.22646">
        <ele>185.9</ele>
        <time>2019-06-09T07:57:42.000Z</time>
      </trkpt>
      <trkpt lat="43.28975" lon="2.22646">
        <ele>185.6</ele>
        <time>2019-06-09T07:57:43.000Z</time>
      </trkpt>
      <trkpt lat="43.28972" lon="2.22646">
        <ele>185.2</ele>
        <time>2019-06-09T07:57:44.000Z</time>
      </trkpt>
      <trkpt lat="43.28969" lon="2.22645">
        <ele>184.8</ele>
        <time>2019-06-09T07:57:45.000Z</time>
      </trkpt>
      <trkpt lat="43.28967" lon="2.22645">
        <ele>184.4</ele>
        <time>2019-06-09T07:57:46.000Z</time>
      </trkpt>
      <trkpt lat="43.28964" lon="2.22645">
        <ele>184</ele>
        <time>2019-06-09T07:57:47.000Z</time>
      </trkpt>
      <trkpt lat="43.28961" lon="2.22645">
        <ele>183.6</ele>
        <time>2019-06-09T07:57:48.000Z</time>
      </trkpt>
      <trkpt lat="43.28957" lon="2.22645">
        <ele>183.2</ele>
        <time>2019-06-09T07:57:49.000Z</time>
      </trkpt>
      <trkpt lat="43.28954" lon="2.22645">
        <ele>182.8</ele>
        <time>2019-06-09T07:57:50.000Z</time>
      </trkpt>
      <trkpt lat="43.28951" lon="2.22646">
        <ele>182.5</ele>
        <time>2019-06-09T07:57:51.000Z</time>
      </trkpt>
      <trkpt lat="43.28948" lon="2.22646">
        <ele>182.2</ele>
        <time>2019-06-09T07:57:52.000Z</time>
      </trkpt>
      <trkpt lat="43.28945" lon="2.22647">
        <ele>182</ele>
        <time>2019-06-09T07:57:53.000Z</time>
      </trkpt>
      <trkpt lat="43.28943" lon="2.22648">
        <ele>181.9</ele>
        <time>2019-06-09T07:57:54.000Z</time>
      </trkpt>
      <trkpt lat="43.2894" lon="2.22649">
        <ele>181.9</ele>
        <time>2019-06-09T07:57:55.000Z</time>
      </trkpt>
      <trkpt lat="43.28938" lon="2.2265">
        <ele>181.9</ele>
        <time>2019-06-09T07:57:56.000Z</time>
      </trkpt>
      <trkpt lat="43.28935" lon="2.22652">
        <ele>182</ele>
        <time>2019-06-09T07:57:57.000Z</time>
      </trkpt>
      <trkpt lat="43.28933" lon="2.22654">
        <ele>182.1</ele>
        <time>2019-06-09T07:57:58.000Z</time>
      </trkpt>
      <trkpt lat="43.28931" lon="2.22656">
        <ele>182.3</ele>
        <time>2019-06-09T07:57:59.000Z</time>
      </trkpt>
      <trkpt lat="43.28929" lon="2.22658">
        <ele>182.5</ele>
        <time>2019-06-09T07:58:00.000Z</time>
      </trkpt>
      <trkpt lat="43.28926" lon="2.2266">
        <ele>182.7</ele>
        <time>2019-06-09T07:58:01.000Z</time>
      </trkpt>
      <trkpt lat="43.28924" lon="2.22662">
        <ele>183</ele>
        <time>2019-06-09T07:58:02.000Z</time>
      </trkpt>
      <trkpt lat="43.28922" lon="2.22665">
        <ele>183.2</ele>
        <time>2019-06-09T07:58:03.000Z</time>
      </trkpt>
      <trkpt lat="43.2892" lon="2.22667">
        <ele>183.4</ele>
        <time>2019-06-09T07:58:04.000Z</time>
      </trkpt>
      <trkpt lat="43.28917" lon="2.22669">
        <ele>183.5</ele>
        <time>2019-06-09T07:58:05.000Z</time>
      </trkpt>
      <trkpt lat="43.28915" lon="2.22672">
        <ele>183.4</ele>
        <time>2019-06-09T07:58:06.000Z</time>
      </trkpt>
      <trkpt lat="43.28913" lon="2.22674">
        <ele>183.4</ele>
        <time>2019-06-09T07:58:07.000Z</time>
      </trkpt>
      <trkpt lat="43.28912" lon="2.22676">
        <ele>183.5</ele>
        <time>2019-06-09T07:58:08.000Z</time>
      </trkpt>
      <trkpt lat="43.2891" lon="2.22679">
        <ele>183.5</ele>
        <time>2019-06-09T07:58:09.000Z</time>
      </trkpt>
      <trkpt lat="43.28909" lon="2.22681">
        <ele>183.6</ele>
        <time>2019-06-09T07:58:10.000Z</time>
      </trkpt>
      <trkpt lat="43.28908" lon="2.22683">
        <ele>183.8</ele>
        <time>2019-06-09T07:58:11.000Z</time>
      </trkpt>
      <trkpt lat="43.28908" lon="2.22685">
        <ele>184</ele>
        <time>2019-06-09T07:58:12.000Z</time>
      </trkpt>
      <trkpt lat="43.28908" lon="2.22688">
        <ele>184.3</ele>
        <time>2019-06-09T07:58:13.000Z</time>
      </trkpt>
      <trkpt lat="43.28908" lon="2.2269">
        <ele>184.6</ele>
        <time>2019-06-09T07:58:14.000Z</time>
      </trkpt>
      <trkpt lat="43.28908" lon="2.22692">
        <ele>184.9</ele>
        <time>2019-06-09T07:58:15.000Z</time>
      </trkpt>
      <trkpt lat="43.28908" lon="2.22693">
        <ele>185.2</ele>
        <time>2019-06-09T07:58:16.000Z</time>
      </trkpt>
      <trkpt lat="43.28909" lon="2.22695">
        <ele>185.6</ele>
        <time>2019-06-09T07:58:17.000Z</time>
      </trkpt>
      <trkpt lat="43.2891" lon="2.22697">
        <ele>186</ele>
        <time>2019-06-09T07:58:18.000Z</time>
      </trkpt>
      <trkpt lat="43.2891" lon="2.22698">
        <ele>186.4</ele>
        <time>2019-06-09T07:58:19.000Z</time>
      </trkpt>
      <trkpt lat="43.28911" lon="2.227">
        <ele>186.8</ele>
        <time>2019-06-09T07:58:20.000Z</time>
      </trkpt>
      <trkpt lat="43.28912" lon="2.22702">
        <ele>187.2</ele>
        <time>2019-06-09T07:58:21.000Z</time>
      </trkpt>
      <trkpt lat="43.28913" lon="2.22703">
        <ele>187.6</ele>
        <time>2019-06-09T07:58:22.000Z</time>
      </trkpt>
      <trkpt lat="43.28914" lon="2.22705">
        <ele>188.1</ele>
        <time>2019-06-09T07:58:23.000Z</time>
      </trkpt>
      <trkpt lat="43.28915" lon="2.22707">
        <ele>188.5</ele>
        <time>2019-06-09T07:58:24.000Z</time>
      </trkpt>
      <trkpt lat="43.28916" lon="2.22709">
        <ele>188.8</ele>
        <time>2019-06-09T07:58:25.000Z</time>
      </trkpt>
      <trkpt lat="43.28916" lon="2.2271">
        <ele>189.2</ele>
        <time>2019-06-09T07:58:26.000Z</time>
      </trkpt>
      <trkpt lat="43.28917" lon="2.22712">
        <ele>189.4</ele>
        <time>2019-06-09T07:58:27.000Z</time>
      </trkpt>
      <trkpt lat="43.28917" lon="2.22713">
        <ele>189.6</ele>
        <time>2019-06-09T07:58:28.000Z</time>
      </trkpt>
      <trkpt lat="43.28917" lon="2.22713">
        <ele>189.8</ele>
        <time>2019-06-09T07:58:29.000Z</time>
      </trkpt>
      <trkpt lat="43.28917" lon="2.22714">
        <ele>189.9</ele>
        <time>2019-06-09T07:58:30.000Z</time>
      </trkpt>
      <trkpt lat="43.28918" lon="2.22714">
        <ele>190</ele>
        <time>2019-06-09T07:58:31.000Z</time>
      </trkpt>
      <trkpt lat="43.28918" lon="2.22715">
        <ele>190.2</ele>
        <time>2019-06-09T07:58:32.000Z</time>
      </trkpt>
      <trkpt lat="43.28919" lon="2.22716">
        <ele>190.5</ele>
        <time>2019-06-09T07:58:33.000Z</time>
      </trkpt>
      <trkpt lat="43.28919" lon="2.22717">
        <ele>190.8</ele>
        <time>2019-06-09T07:58:34.000Z</time>
      </trkpt>
      <trkpt lat="43.2892" lon="2.22719">
        <ele>191</ele>
        <time>2019-06-09T07:58:35.000Z</time>
      </trkpt>
      <trkpt lat="43.28921" lon="2.2272">
        <ele>191.4</ele>
        <time>2019-06-09T07:58:36.000Z</time>
      </trkpt>
      <trkpt lat="43.28922" lon="2.22722">
        <ele>191.7</ele>
        <time>2019-06-09T07:58:37.000Z</time>
      </trkpt>
      <trkpt lat="43.28922" lon="2.22723">
        <ele>192.1</ele>
        <time>2019-06-09T07:58:38.000Z</time>
      </trkpt>
      <trkpt lat="43.28923" lon="2.22725">
        <ele>192.4</ele>
        <time>2019-06-09T07:58:39.000Z</time>
      </trkpt>
      <trkpt lat="43.28924" lon="2.22726">
        <ele>192.8</ele>
        <time>2019-06-09T07:58:40.000Z</time>
      </trkpt>
      <trkpt lat="43.28925" lon="2.22728">
        <ele>193.2</ele>
        <time>2019-06-09T07:58:41.000Z</time>
      </trkpt>
      <trkpt lat="43.28926" lon="2.22729">
        <ele>193.5</ele>
        <time>2019-06-09T07:58:42.000Z</time>
      </trkpt>
      <trkpt lat="43.28926" lon="2.22731">
        <ele>193.9</ele>
        <time>2019-06-09T07:58:43.000Z</time>
      </trkpt>
      <trkpt lat="43.28927" lon="2.22732">
        <ele>194.2</ele>
        <time>2019-06-09T07:58:44.000Z</time>
      </trkpt>
      <trkpt lat="43.28928" lon="2.22734">
        <ele>194.6</ele>
        <time>2019-06-09T07:58:45.000Z</time>
      </trkpt>
      <trkpt lat="43.28929" lon="2.22735">
        <ele>194.9</ele>
        <time>2019-06-09T07:58:46.000Z</time>
      </trkpt>
      <trkpt lat="43.2893" lon="2.22736">
        <ele>195.3</ele>
        <time>2019-06-09T07:58:47.000Z</time>
      </trkpt>
      <trkpt lat="43.28931" lon="2.22737">
        <ele>195.6</ele>
        <time>2019-06-09T07:58:48.000Z</time>
      </trkpt>
      <trkpt lat="43.28931" lon="2.22738">
        <ele>195.9</ele>
        <time>2019-06-09T07:58:49.000Z</time>
      </trkpt>
      <trkpt lat="43.28932" lon="2.22739">
        <ele>196.1</ele>
        <time>2019-06-09T07:58:50.000Z</time>
      </trkpt>
      <trkpt lat="43.28933" lon="2.2274">
        <ele>196.4</ele>
        <time>2019-06-09T07:58:51.000Z</time>
      </trkpt>
      <trkpt lat="43.28933" lon="2.22741">
        <ele>196.7</ele>
        <time>2019-06-09T07:58:52.000Z</time>
      </trkpt>
      <trkpt lat="43.28934" lon="2.22742">
        <ele>196.9</ele>
        <time>2019-06-09T07:58:53.000Z</time>
      </trkpt>
      <trkpt lat="43.28935" lon="2.22743">
        <ele>197.2</ele>
        <time>2019-06-09T07:58:54.000Z</time>
      </trkpt>
      <trkpt lat="43.28935" lon="2.22744">
        <ele>197.4</ele>
        <time>2019-06-09T07:58:55.000Z</time>
      </trkpt>
      <trkpt lat="43.28936" lon="2.22744">
        <ele>197.5</ele>
        <time>2019-06-09T07:58:56.000Z</time>
      </trkpt>
      <trkpt lat="43.28936" lon="2.22745">
        <ele>197.7</ele>
        <time>2019-06-09T07:58:57.000Z</time>
      </trkpt>
      <trkpt lat="43.28937" lon="2.22746">
        <ele>197.9</ele>
        <time>2019-06-09T07:58:58.000Z</time>
      </trkpt>
      <trkpt lat="43.28937" lon="2.22746">
        <ele>198.1</ele>
        <time>2019-06-09T07:58:59.000Z</time>
      </trkpt>
      <trkpt lat="43.28938" lon="2.22747">
        <ele>198.3</ele>
        <time>2019-06-09T07:59:00.000Z</time>
      </trkpt>
      <trkpt lat="43.28938" lon="2.22748">
        <ele>198.5</ele>
        <time>2019-06-09T07:59:01.000Z</time>
      </trkpt>
      <trkpt lat="43.28939" lon="2.22749">
        <ele>198.7</ele>
        <time>2019-06-09T07:59:02.000Z</time>
      </trkpt>
      <trkpt lat="43.28939" lon="2.2275">
        <ele>198.9</ele>
        <time>2019-06-09T07:59:03.000Z</time>
      </trkpt>
      <trkpt lat="43.2894" lon="2.22751">
        <ele>199.2</ele>
        <time>2019-06-09T07:59:04.000Z</time>
      </trkpt>
      <trkpt lat="43.2894" lon="2.22752">
        <ele>199.4</ele>
        <time>2019-06-09T07:59:05.000Z</time>
      </trkpt>
      <trkpt lat="43.28941" lon="2.22753">
        <ele>199.6</ele>
        <time>2019-06-09T07:59:06.000Z</time>
      </trkpt>
      <trkpt lat="43.28941" lon="2.22754">
        <ele>199.8</ele>
        <time>2019-06-09T07:59:07.000Z</time>
      </trkpt>
      <trkpt lat="43.28942" lon="2.22755">
        <ele>199.9</ele>
        <time>2019-06-09T07:59:08.000Z</time>
      </trkpt>
      <trkpt lat="43.28942" lon="2.22756">
        <ele>200</ele>
        <time>2019-06-09T07:59:09.000Z</time>
      </trkpt>
      <trkpt lat="43.28942" lon="2.22757">
        <ele>200.2</ele>
        <time>2019-06-09T07:59:10.000Z</time>
      </trkpt>
      <trkpt lat="43.28942" lon="2.22757">
        <ele>200.2</ele>
        <time>2019-06-09T07:59:11.000Z</time>
      </trkpt>
      <trkpt lat="43.28942" lon="2.22758">
        <ele>200.3</ele>
        <time>2019-06-09T07:59:12.000Z</time>
      </trkpt>
      <trkpt lat="43.28942" lon="2.22758">
        <ele>200.3</ele>
        <time>2019-06-09T07:59:13.000Z</time>
      </trkpt>
      <trkpt lat="43.28941" lon="2.22759">
        <ele>200.3</ele>
        <time>2019-06-09T07:59:14.000Z</time>
      </trkpt>
      <trkpt lat="43.28941" lon="2.22759">
        <ele>200.2</ele>
        <time>2019-06-09T07:59:15.000Z</time>
      </trkpt>
      <trkpt lat="43.28941" lon="2.2276">
        <ele>200.2</ele>
        <time>2019-06-09T07:59:16.000Z</time>
      </trkpt>
      <trkpt lat="43.28941" lon="2.2276">
        <ele>200.2</ele>
        <time>2019-06-09T07:59:17.000Z</time>
      </trkpt>
      <trkpt lat="43.2894" lon="2.2276">
        <ele>200.2</ele>
        <time>2019-06-09T07:59:18.000Z</time>
      </trkpt>
      <trkpt lat="43.2894" lon="2.2276">
        <ele>200.2</ele>
        <time>2019-06-09T07:59:19.000Z</time>
      </trkpt>
      <trkpt lat="43.28941" lon="2.2276">
        <ele>200.2</ele>
        <time>2019-06-09T07:59:20.000Z</time>
      </trkpt>
      <trkpt lat="43.28941" lon="2.22759">
        <ele>200.2</ele>
        <time>2019-06-09T07:59:21.000Z</time>
      </trkpt>
      <trkpt lat="43.28941" lon="2.22759">
        <ele>200.2</ele>
        <time>2019-06-09T07:59:22.000Z</time>
      </trkpt>
      <trkpt lat="43.28941" lon="2.22759">
        <ele>200.2</ele>
        <time>2019-06-09T07:59:23.000Z</time>
      </trkpt>
      <trkpt lat="43.28941" lon="2.22758">
        <ele>200.2</ele>
        <time>2019-06-09T07:59:24.000Z</time>
      </trkpt>
      <trkpt lat="43.28941" lon="2.22758">
        <ele>200.2</ele>
        <time>2019-06-09T07:59:25.000Z</time>
      </trkpt>
      <trkpt lat="43.28942" lon="2.22758">
        <ele>200.2</ele>
        <time>2019-06-09T07:59:26.000Z</time>
      </trkpt>
      <trkpt lat="43.28942" lon="2.22758">
        <ele>200.2</ele>
        <time>2019-06-09T07:59:27.000Z</time>
      </trkpt>
      <trkpt lat="43.28942" lon="2.22759">
        <ele>200.2</ele>
        <time>2019-06-09T07:59:28.000Z</time>
      </trkpt>
      <trkpt lat="43.28941" lon="2.22759">
        <ele>200.2</ele>
        <time>2019-06-09T07:59:29.000Z</time>
      </trkpt>
      <trkpt lat="43.28941" lon="2.22759">
        <ele>200.2</ele>
        <time>2019-06-09T07:59:30.000Z</time>
      </trkpt>
      <trkpt lat="43.28941" lon="2.2276">
        <ele>200.2</ele>
        <time>2019-06-09T07:59:31.000Z</time>
      </trkpt>
      <trkpt lat="43.2894" lon="2.2276">
        <ele>200.2</ele>
        <time>2019-06-09T07:59:32.000Z</time>
      </trkpt>
      <trkpt lat="43.2894" lon="2.22761">
        <ele>200.2</ele>
        <time>2019-06-09T07:59:33.000Z</time>
      </trkpt>
      <trkpt lat="43.28939" lon="2.22761">
        <ele>200.1</ele>
        <time>2019-06-09T07:59:34.000Z</time>
      </trkpt>
      <trkpt lat="43.28939" lon="2.22762">
        <ele>200.1</ele>
        <time>2019-06-09T07:59:35.000Z</time>
      </trkpt>
      <trkpt lat="43.28938" lon="2.22763">
        <ele>200</ele>
        <time>2019-06-09T07:59:36.000Z</time>
      </trkpt>
      <trkpt lat="43.28937" lon="2.22763">
        <ele>199.9</ele>
        <time>2019-06-09T07:59:37.000Z</time>
      </trkpt>
      <trkpt lat="43.28936" lon="2.22764">
        <ele>199.9</ele>
        <time>2019-06-09T07:59:38.000Z</time>
      </trkpt>
      <trkpt lat="43.28936" lon="2.22765">
        <ele>199.8</ele>
        <time>2019-06-09T07:59:39.000Z</time>
      </trkpt>
      <trkpt lat="43.28935" lon="2.22766">
        <ele>199.8</ele>
        <time>2019-06-09T07:59:40.000Z</time>
      </trkpt>
      <trkpt lat="43.28934" lon="2.22767">
        <ele>199.7</ele>
        <time>2019-06-09T07:59:41.000Z</time>
      </trkpt>
      <trkpt lat="43.28933" lon="2.22768">
        <ele>199.7</ele>
        <time>2019-06-09T07:59:42.000Z</time>
      </trkpt>
      <trkpt lat="43.28933" lon="2.22769">
        <ele>199.7</ele>
        <time>2019-06-09T07:59:43.000Z</time>
      </trkpt>
      <trkpt lat="43.28932" lon="2.2277">
        <ele>199.6</ele>
        <time>2019-06-09T07:59:44.000Z</time>
      </trkpt>
      <trkpt lat="43.28931" lon="2.22771">
        <ele>199.6</ele>
        <time>2019-06-09T07:59:45.000Z</time>
      </trkpt>
      <trkpt lat="43.28931" lon="2.22772">
        <ele>199.6</ele>
        <time>2019-06-09T07:59:46.000Z</time>
      </trkpt>
      <trkpt lat="43.2893" lon="2.22773">
        <ele>199.6</ele>
        <time>2019-06-09T07:59:47.000Z</time>
      </trkpt>
      <trkpt lat="43.28929" lon="2.22774">
        <ele>199.6</ele>
        <time>2019-06-09T07:59:48.000Z</time>
      </trkpt>
      <trkpt lat="43.28929" lon="2.22775">
        <ele>199.6</ele>
        <time>2019-06-09T07:59:49.000Z</time>
      </trkpt>
      <trkpt lat="43.28928" lon="2.22776">
        <ele>199.6</ele>
        <time>2019-06-09T07:59:50.000Z</time>
      </trkpt>
      <trkpt lat="43.28928" lon="2.22777">
        <ele>199.6</ele>
        <time>2019-06-09T07:59:51.000Z</time>
      </trkpt>
      <trkpt lat="43.28927" lon="2.22778">
        <ele>199.7</ele>
        <time>2019-06-09T07:59:52.000Z</time>
      </trkpt>
      <trkpt lat="43.28926" lon="2.22779">
        <ele>199.7</ele>
        <time>2019-06-09T07:59:53.000Z</time>
      </trkpt>
      <trkpt lat="43.28926" lon="2.22781">
        <ele>199.7</ele>
        <time>2019-06-09T07:59:54.000Z</time>
      </trkpt>
      <trkpt lat="43.28925" lon="2.22782">
        <ele>199.8</ele>
        <time>2019-06-09T07:59:55.000Z</time>
      </trkpt>
      <trkpt lat="43.28925" lon="2.22783">
        <ele>199.8</ele>
        <time>2019-06-09T07:59:56.000Z</time>
      </trkpt>
      <trkpt lat="43.28924" lon="2.22784">
        <ele>199.9</ele>
        <time>2019-06-09T07:59:57.000Z</time>
      </trkpt>
      <trkpt lat="43.28924" lon="2.22786">
        <ele>199.9</ele>
        <time>2019-06-09T07:59:58.000Z</time>
      </trkpt>
      <trkpt lat="43.28923" lon="2.22787">
        <ele>200</ele>
        <time>2019-06-09T07:59:59.000Z</time>
      </trkpt>
      <trkpt lat="43.28923" lon="2.22788">
        <ele>200.1</ele>
        <time>2019-06-09T08:00:00.000Z</time>
      </trkpt>
      <trkpt lat="43.28923" lon="2.22789">
        <ele>200.1</ele>
        <time>2019-06-09T08:00:01.000Z</time>
      </trkpt>
      <trkpt lat="43.28922" lon="2.2279">
        <ele>200.1</ele>
        <time>2019-06-09T08:00:02.000Z</time>
      </trkpt>
      <trkpt lat="43.28922" lon="2.22791">
        <ele>200.2</ele>
        <time>2019-06-09T08:00:03.000Z</time>
      </trkpt>
      <trkpt lat="43.28922" lon="2.22791">
        <ele>200.2</ele>
        <time>2019-06-09T08:00:04.000Z</time>
      </trkpt>
      <trkpt lat="43.28922" lon="2.22792">
        <ele>200.2</ele>
        <time>2019-06-09T08:00:05.000Z</time>
      </trkpt>
      <trkpt lat="43.28921" lon="2.22792">
        <ele>200.2</ele>
        <time>2019-06-09T08:00:06.000Z</time>
      </trkpt>
      <trkpt lat="43.28921" lon="2.22792">
        <ele>200.2</ele>
        <time>2019-06-09T08:00:07.000Z</time>
      </trkpt>
      <trkpt lat="43.28921" lon="2.22792">
        <ele>200.2</ele>
        <time>2019-06-09T08:00:08.000Z</time>
      </trkpt>
      <trkpt lat="43.28921" lon="2.22792">
        <ele>200.2</ele>
        <time>2019-06-09T08:00:09.000Z</time>
      </trkpt>
      <trkpt lat="43.28922" lon="2.22792">
        <ele>200.2</ele>
        <time>2019-06-09T08:00:10.000Z</time>
      </trkpt>
      <trkpt lat="43.28922" lon="2.22792">
        <ele>200.2</ele>
        <time>2019-06-09T08:00:11.000Z</time>
      </trkpt>
      <trkpt lat="43.28922" lon="2.22792">
        <ele>200.2</ele>
        <time>2019-06-09T08:00:12.000Z</time>
      </trkpt>
      <trkpt lat="43.28922" lon="2.22792">
        <ele>200.2</ele>
        <time>2019-06-09T08:00:13.000Z</time>
      </trkpt>
      <trkpt lat="43.28922" lon="2.22792">
        <ele>200.3</ele>
        <time>2019-06-09T08:00:14.000Z</time>
      </trkpt>
      <trkpt lat="43.28921" lon="2.22793">
        <ele>200.3</ele>
        <time>2019-06-09T08:00:15.000Z</time>
      </trkpt>
      <trkpt lat="43.28921" lon="2.22794">
        <ele>200.3</ele>
        <time>2019-06-09T08:00:16.000Z</time>
      </trkpt>
      <trkpt lat="43.2892" lon="2.22795">
        <ele>200.4</ele>
        <time>2019-06-09T08:00:17.000Z</time>
      </trkpt>
      <trkpt lat="43.28919" lon="2.22797">
        <ele>200.4</ele>
        <time>2019-06-09T08:00:18.000Z</time>
      </trkpt>
      <trkpt lat="43.28917" lon="2.228">
        <ele>200.4</ele>
        <time>2019-06-09T08:00:19.000Z</time>
      </trkpt>
      <trkpt lat="43.28916" lon="2.22802">
        <ele>200.4</ele>
        <time>2019-06-09T08:00:20.000Z</time>
      </trkpt>
      <trkpt lat="43.28914" lon="2.22805">
        <ele>200.5</ele>
        <time>2019-06-09T08:00:21.000Z</time>
      </trkpt>
      <trkpt lat="43.28914" lon="2.22807">
        <ele>200.6</ele>
        <time>2019-06-09T08:00:22.000Z</time>
      </trkpt>
      <trkpt lat="43.28914" lon="2.22809">
        <ele>200.8</ele>
        <time>2019-06-09T08:00:23.000Z</time>
      </trkpt>
      <trkpt lat="43.28914" lon="2.22811">
        <ele>201.1</ele>
        <time>2019-06-09T08:00:24.000Z</time>
      </trkpt>
      <trkpt lat="43.28915" lon="2.22812">
        <ele>201.4</ele>
        <time>2019-06-09T08:00:25.000Z</time>
      </trkpt>
      <trkpt lat="43.28916" lon="2.22813">
        <ele>201.6</ele>
        <time>2019-06-09T08:00:26.000Z</time>
      </trkpt>
      <trkpt lat="43.28917" lon="2.22814">
        <ele>201.9</ele>
        <time>2019-06-09T08:00:27.000Z</time>
      </trkpt>
      <trkpt lat="43.28918" lon="2.22814">
        <ele>202.1</ele>
        <time>2019-06-09T08:00:28.000Z</time>
      </trkpt>
      <trkpt lat="43.28919" lon="2.22815">
        <ele>202.3</ele>
        <time>2019-06-09T08:00:29.000Z</time>
      </trkpt>
      <trkpt lat="43.2892" lon="2.22815">
        <ele>202.4</ele>
        <time>2019-06-09T08:00:30.000Z</time>
      </trkpt>
      <trkpt lat="43.28921" lon="2.22815">
        <ele>202.6</ele>
        <time>2019-06-09T08:00:31.000Z</time>
      </trkpt>
      <trkpt lat="43.28922" lon="2.22816">
        <ele>202.8</ele>
        <time>2019-06-09T08:00:32.000Z</time>
      </trkpt>
      <trkpt lat="43.28923" lon="2.22816">
        <ele>203</ele>
        <time>2019-06-09T08:00:33.000Z</time>
      </trkpt>
      <trkpt lat="43.28924" lon="2.22817">
        <ele>203.1</ele>
        <time>2019-06-09T08:00:34.000Z</time>
      </trkpt>
      <trkpt lat="43.28925" lon="2.22817">
        <ele>203.3</ele>
        <time>2019-06-09T08:00:35.000Z</time>
      </trkpt>
      <trkpt lat="43.28926" lon="2.22818">
        <ele>203.5</ele>
        <time>2019-06-09T08:00:36.000Z</time>
      </trkpt>
      <trkpt lat="43.28927" lon="2.22819">
        <ele>203.8</ele>
        <time>2019-06-09T08:00:37.000Z</time>
      </trkpt>
      <trkpt lat="43.28928" lon="2.2282">
        <ele>204</ele>
        <time>2019-06-09T08:00:38.000Z</time>
      </trkpt>
      <trkpt lat="43.28929" lon="2.2282">
        <ele>204.2</ele>
        <time>2019-06-09T08:00:39.000Z</time>
      </trkpt>
      <trkpt lat="43.28931" lon="2.22821">
        <ele>204.5</ele>
        <time>2019-06-09T08:00:40.000Z</time>
      </trkpt>
      <trkpt lat="43.28932" lon="2.22822">
        <ele>204.8</ele>
        <time>2019-06-09T08:00:41.000Z</time>
      </trkpt>
      <trkpt lat="43.28934" lon="2.22823">
        <ele>205</ele>
        <time>2019-06-09T08:00:42.000Z</time>
      </trkpt>
      <trkpt lat="43.28935" lon="2.22824">
        <ele>205.3</ele>
        <time>2019-06-09T08:00:43.000Z</time>
      </trkpt>
      <trkpt lat="43.28937" lon="2.22825">
        <ele>205.6</ele>
        <time>2019-06-09T08:00:44.000Z</time>
      </trkpt>
      <trkpt lat="43.28938" lon="2.22826">
        <ele>205.9</ele>
        <time>2019-06-09T08:00:45.000Z</time>
      </trkpt>
      <trkpt lat="43.2894" lon="2.22826">
        <ele>206.1</ele>
        <time>2019-06-09T08:00:46.000Z</time>
      </trkpt>
      <trkpt lat="43.28942" lon="2.22827">
        <ele>206.4</ele>
        <time>2019-06-09T08:00:47.000Z</time>
      </trkpt>
      <trkpt lat="43.28943" lon="2.22828">
        <ele>206.7</ele>
        <time>2019-06-09T08:00:48.000Z</time>
      </trkpt>
      <trkpt lat="43.28945" lon="2.22828">
        <ele>207</ele>
        <time>2019-06-09T08:00:49.000Z</time>
      </trkpt>
      <trkpt lat="43.28947" lon="2.22829">
        <ele>207.2</ele>
        <time>2019-06-09T08:00:50.000Z</time>
      </trkpt>
      <trkpt lat="43.28948" lon="2.2283">
        <ele>207.5</ele>
        <time>2019-06-09T08:00:51.000Z</time>
      </trkpt>
      <trkpt lat="43.2895" lon="2.22831">
        <ele>207.7</ele>
        <time>2019-06-09T08:00:52.000Z</time>
      </trkpt>
      <trkpt lat="43.28951" lon="2.22831">
        <ele>207.9</ele>
        <time>2019-06-09T08:00:53.000Z</time>
      </trkpt>
      <trkpt lat="43.28953" lon="2.22832">
        <ele>208.2</ele>
        <time>2019-06-09T08:00:54.000Z</time>
      </trkpt>
      <trkpt lat="43.28954" lon="2.22833">
        <ele>208.5</ele>
        <time>2019-06-09T08:00:55.000Z</time>
      </trkpt>
      <trkpt lat="43.28956" lon="2.22834">
        <ele>208.7</ele>
        <time>2019-06-09T08:00:56.000Z</time>
      </trkpt>
      <trkpt lat="43.28958" lon="2.22834">
        <ele>208.9</ele>
        <time>2019-06-09T08:00:57.000Z</time>
      </trkpt>
      <trkpt lat="43.2896" lon="2.22835">
        <ele>209.1</ele>
        <time>2019-06-09T08:00:58.000Z</time>
      </trkpt>
      <trkpt lat="43.28962" lon="2.22836">
        <ele>209.4</ele>
        <time>2019-06-09T08:00:59.000Z</time>
      </trkpt>
      <trkpt lat="43.28964" lon="2.22837">
        <ele>209.6</ele>
        <time>2019-06-09T08:01:00.000Z</time>
      </trkpt>
      <trkpt lat="43.28966" lon="2.22838">
        <ele>209.8</ele>
        <time>2019-06-09T08:01:01.000Z</time>
      </trkpt>
      <trkpt lat="43.28969" lon="2.22838">
        <ele>210.1</ele>
        <time>2019-06-09T08:01:02.000Z</time>
      </trkpt>
      <trkpt lat="43.28971" lon="2.22839">
        <ele>210.3</ele>
        <time>2019-06-09T08:01:03.000Z</time>
      </trkpt>
      <trkpt lat="43.28973" lon="2.2284">
        <ele>210.5</ele>
        <time>2019-06-09T08:01:04.000Z</time>
      </trkpt>
      <trkpt lat="43.28976" lon="2.2284">
        <ele>210.7</ele>
        <time>2019-06-09T08:01:05.000Z</time>
      </trkpt>
      <trkpt lat="43.28978" lon="2.22841">
        <ele>210.9</ele>
        <time>2019-06-09T08:01:06.000Z</time>
      </trkpt>
      <trkpt lat="43.2898" lon="2.22841">
        <ele>211.1</ele>
        <time>2019-06-09T08:01:07.000Z</time>
      </trkpt>
      <trkpt lat="43.28982" lon="2.22842">
        <ele>211.3</ele>
        <time>2019-06-09T08:01:08.000Z</time>
      </trkpt>
      <trkpt lat="43.28984" lon="2.22843">
        <ele>211.5</ele>
        <time>2019-06-09T08:01:09.000Z</time>
      </trkpt>
      <trkpt lat="43.28986" lon="2.22843">
        <ele>211.6</ele>
        <time>2019-06-09T08:01:10.000Z</time>
      </trkpt>
      <trkpt lat="43.28988" lon="2.22844">
        <ele>211.8</ele>
        <time>2019-06-09T08:01:11.000Z</time>
      </trkpt>
      <trkpt lat="43.28989" lon="2.22845">
        <ele>211.9</ele>
        <time>2019-06-09T08:01:12.000Z</time>
      </trkpt>
      <trkpt lat="43.28991" lon="2.22846">
        <ele>211.9</ele>
        <time>2019-06-09T08:01:13.000Z</time>
      </trkpt>
      <trkpt lat="43.28992" lon="2.22847">
        <ele>211.9</ele>
        <time>2019-06-09T08:01:14.000Z</time>
      </trkpt>
      <trkpt lat="43.28992" lon="2.22848">
        <ele>211.9</ele>
        <time>2019-06-09T08:01:15.000Z</time>
      </trkpt>
      <trkpt lat="43.28993" lon="2.22849">
        <ele>211.9</ele>
        <time>2019-06-09T08:01:16.000Z</time>
      </trkpt>
      <trkpt lat="43.28993" lon="2.2285">
        <ele>211.8</ele>
        <time>2019-06-09T08:01:17.000Z</time>
      </trkpt>
      <trkpt lat="43.28994" lon="2.22851">
        <ele>211.8</ele>
        <time>2019-06-09T08:01:18.000Z</time>
      </trkpt>
      <trkpt lat="43.28994" lon="2.22852">
        <ele>211.7</ele>
        <time>2019-06-09T08:01:19.000Z</time>
      </trkpt>
      <trkpt lat="43.28993" lon="2.22852">
        <ele>211.6</ele>
        <time>2019-06-09T08:01:20.000Z</time>
      </trkpt>
      <trkpt lat="43.28993" lon="2.22853">
        <ele>211.6</ele>
        <time>2019-06-09T08:01:21.000Z</time>
      </trkpt>
      <trkpt lat="43.28993" lon="2.22853">
        <ele>211.6</ele>
        <time>2019-06-09T08:01:22.000Z</time>
      </trkpt>
      <trkpt lat="43.28993" lon="2.22853">
        <ele>211.6</ele>
        <time>2019-06-09T08:01:23.000Z</time>
      </trkpt>
      <trkpt lat="43.28993" lon="2.22853">
        <ele>211.6</ele>
        <time>2019-06-09T08:01:24.000Z</time>
      </trkpt>
      <trkpt lat="43.28994" lon="2.22853">
        <ele>211.6</ele>
        <time>2019-06-09T08:01:25.000Z</time>
      </trkpt>
      <trkpt lat="43.28994" lon="2.22853">
        <ele>211.6</ele>
        <time>2019-06-09T08:01:26.000Z</time>
      </trkpt>
      <trkpt lat="43.28994" lon="2.22853">
        <ele>211.6</ele>
        <time>2019-06-09T08:01:27.000Z</time>
      </trkpt>
      <trkpt lat="43.28994" lon="2.22853">
        <ele>211.6</ele>
        <time>2019-06-09T08:01:28.000Z</time>
      </trkpt>
      <trkpt lat="43.28994" lon="2.22852">
        <ele>211.6</ele>
        <time>2019-06-09T08:01:29.000Z</time>
      </trkpt>
      <trkpt lat="43.28994" lon="2.22852">
        <ele>211.7</ele>
        <time>2019-06-09T08:01:30.000Z</time>
      </trkpt>
      <trkpt lat="43.28994" lon="2.22852">
        <ele>211.7</ele>
        <time>2019-06-09T08:01:31.000Z</time>
      </trkpt>
      <trkpt lat="43.28994" lon="2.22852">
        <ele>211.7</ele>
        <time>2019-06-09T08:01:32.000Z</time>
      </trkpt>
      <trkpt lat="43.28994" lon="2.22852">
        <ele>211.7</ele>
        <time>2019-06-09T08:01:33.000Z</time>
      </trkpt>
      <trkpt lat="43.28994" lon="2.22852">
        <ele>211.7</ele>
        <time>2019-06-09T08:01:34.000Z</time>
      </trkpt>
      <trkpt lat="43.28994" lon="2.22852">
        <ele>211.7</ele>
        <time>2019-06-09T08:01:35.000Z</time>
      </trkpt>
      <trkpt lat="43.28994" lon="2.22852">
        <ele>211.7</ele>
        <time>2019-06-09T08:01:36.000Z</time>
      </trkpt>
      <trkpt lat="43.28994" lon="2.22852">
        <ele>211.7</ele>
        <time>2019-06-09T08:01:37.000Z</time>
      </trkpt>
      <trkpt lat="43.28994" lon="2.22852">
        <ele>211.7</ele>
        <time>2019-06-09T08:01:38.000Z</time>
      </trkpt>
      <trkpt lat="43.28994" lon="2.22852">
        <ele>211.7</ele>
        <time>2019-06-09T08:01:39.000Z</time>
      </trkpt>
      <trkpt lat="43.28994" lon="2.22852">
        <ele>211.7</ele>
        <time>2019-06-09T08:01:40.000Z</time>
      </trkpt>
      <trkpt lat="43.28994" lon="2.22852">
        <ele>211.7</ele>
        <time>2019-06-09T08:01:41.000Z</time>
      </trkpt>
      <trkpt lat="43.28994" lon="2.22852">
        <ele>211.7</ele>
        <time>2019-06-09T08:01:42.000Z</time>
      </trkpt>
      <trkpt lat="43.28994" lon="2.22852">
        <ele>211.7</ele>
        <time>2019-06-09T08:01:43.000Z</time>
      </trkpt>
      <trkpt lat="43.28994" lon="2.22852">
        <ele>211.7</ele>
        <time>2019-06-09T08:01:44.000Z</time>
      </trkpt>
      <trkpt lat="43.28994" lon="2.22852">
        <ele>211.7</ele>
        <time>2019-06-09T08:01:45.000Z</time>
      </trkpt>
      <trkpt lat="43.28994" lon="2.22852">
        <ele>211.7</ele>
        <time>2019-06-09T08:01:46.000Z</time>
      </trkpt>
      <trkpt lat="43.28994" lon="2.22852">
        <ele>211.7</ele>
        <time>2019-06-09T08:01:47.000Z</time>
      </trkpt>
      <trkpt lat="43.28994" lon="2.22852">
        <ele>211.7</ele>
        <time>2019-06-09T08:01:48.000Z</time>
      </trkpt>
      <trkpt lat="43.28994" lon="2.22852">
        <ele>211.7</ele>
        <time>2019-06-09T08:01:49.000Z</time>
      </trkpt>
      <trkpt lat="43.28994" lon="2.22852">
        <ele>211.7</ele>
        <time>2019-06-09T08:01:50.000Z</time>
      </trkpt>
      <trkpt lat="43.28994" lon="2.22852">
        <ele>211.7</ele>
        <time>2019-06-09T08:01:51.000Z</time>
      </trkpt>
      <trkpt lat="43.28994" lon="2.22852">
        <ele>211.7</ele>
        <time>2019-06-09T08:01:52.000Z</time>
      </trkpt>
      <trkpt lat="43.28994" lon="2.22852">
        <ele>211.7</ele>
        <time>2019-06-09T08:01:53.000Z</time>
      </trkpt>
      <trkpt lat="43.28994" lon="2.22852">
        <ele>211.7</ele>
        <time>2019-06-09T08:01:54.000Z</time>
      </trkpt>
      <trkpt lat="43.28994" lon="2.22852">
        <ele>211.7</ele>
        <time>2019-06-09T08:01:55.000Z</time>
      </trkpt>
      <trkpt lat="43.28994" lon="2.22852">
        <ele>211.7</ele>
        <time>2019-06-09T08:01:56.000Z</time>
      </trkpt>
      <trkpt lat="43.28994" lon="2.22852">
        <ele>211.7</ele>
        <time>2019-06-09T08:01:57.000Z</time>
      </trkpt>
      <trkpt lat="43.28994" lon="2.22852">
        <ele>211.7</ele>
        <time>2019-06-09T08:01:58.000Z</time>
      </trkpt>
      <trkpt lat="43.28994" lon="2.22852">
        <ele>211.7</ele>
        <time>2019-06-09T08:01:59.000Z</time>
      </trkpt>
      <trkpt lat="43.28994" lon="2.22852">
        <ele>211.7</ele>
        <time>2019-06-09T08:02:00.000Z</time>
      </trkpt>
      <trkpt lat="43.28994" lon="2.22852">
        <ele>211.7</ele>
        <time>2019-06-09T08:02:01.000Z</time>
      </trkpt>
      <trkpt lat="43.28994" lon="2.22852">
        <ele>211.7</ele>
        <time>2019-06-09T08:02:02.000Z</time>
      </trkpt>
      <trkpt lat="43.28994" lon="2.22852">
        <ele>211.7</ele>
        <time>2019-06-09T08:02:03.000Z</time>
      </trkpt>
      <trkpt lat="43.28994" lon="2.22851">
        <ele>211.8</ele>
        <time>2019-06-09T08:02:04.000Z</time>
      </trkpt>
      <trkpt lat="43.28994" lon="2.22851">
        <ele>211.8</ele>
        <time>2019-06-09T08:02:05.000Z</time>
      </trkpt>
      <trkpt lat="43.28994" lon="2.22851">
        <ele>211.8</ele>
        <time>2019-06-09T08:02:06.000Z</time>
      </trkpt>
      <trkpt lat="43.28994" lon="2.22851">
        <ele>211.8</ele>
        <time>2019-06-09T08:02:07.000Z</time>
      </trkpt>
      <trkpt lat="43.28994" lon="2.22851">
        <ele>211.8</ele>
        <time>2019-06-09T08:02:08.000Z</time>
      </trkpt>
      <trkpt lat="43.28994" lon="2.22851">
        <ele>211.8</ele>
        <time>2019-06-09T08:02:09.000Z</time>
      </trkpt>
      <trkpt lat="43.28994" lon="2.22851">
        <ele>211.8</ele>
        <time>2019-06-09T08:02:10.000Z</time>
      </trkpt>
      <trkpt lat="43.28994" lon="2.22851">
        <ele>211.8</ele>
        <time>2019-06-09T08:02:11.000Z</time>
      </trkpt>
      <trkpt lat="43.28994" lon="2.22851">
        <ele>211.8</ele>
        <time>2019-06-09T08:02:12.000Z</time>
      </trkpt>
      <trkpt lat="43.28994" lon="2.22851">
        <ele>211.8</ele>
        <time>2019-06-09T08:02:13.000Z</time>
      </trkpt>
      <trkpt lat="43.28994" lon="2.22851">
        <ele>211.8</ele>
        <time>2019-06-09T08:02:14.000Z</time>
      </trkpt>
      <trkpt lat="43.28994" lon="2.22851">
        <ele>211.8</ele>
        <time>2019-06-09T08:02:15.000Z</time>
      </trkpt>
      <trkpt lat="43.28994" lon="2.22851">
        <ele>211.8</ele>
        <time>2019-06-09T08:02:16.000Z</time>
      </trkpt>
      <trkpt lat="43.28994" lon="2.22851">
        <ele>211.8</ele>
        <time>2019-06-09T08:02:17.000Z</time>
      </trkpt>
      <trkpt lat="43.28994" lon="2.22851">
        <ele>211.8</ele>
        <time>2019-06-09T08:02:18.000Z</time>
      </trkpt>
      <trkpt lat="43.28994" lon="2.22851">
        <ele>211.8</ele>
        <time>2019-06-09T08:02:19.000Z</time>
      </trkpt>
      <trkpt lat="43.28994" lon="2.22851">
        <ele>211.8</ele>
        <time>2019-06-09T08:02:20.000Z</time>
      </trkpt>
      <trkpt lat="43.28994" lon="2.22851">
        <ele>211.8</ele>
        <time>2019-06-09T08:02:21.000Z</time>
      </trkpt>
      <trkpt lat="43.28994" lon="2.22851">
        <ele>211.8</ele>
        <time>2019-06-09T08:02:22.000Z</time>
      </trkpt>
      <trkpt lat="43.28994" lon="2.22851">
        <ele>211.8</ele>
        <time>2019-06-09T08:02:23.000Z</time>
      </trkpt>
      <trkpt lat="43.28994" lon="2.22851">
        <ele>211.8</ele>
        <time>2019-06-09T08:02:24.000Z</time>
      </trkpt>
      <trkpt lat="43.28994" lon="2.22852">
        <ele>211.8</ele>
        <time>2019-06-09T08:02:25.000Z</time>
      </trkpt>
      <trkpt lat="43.28994" lon="2.22852">
        <ele>211.7</ele>
        <time>2019-06-09T08:02:26.000Z</time>
      </trkpt>
      <trkpt lat="43.28994" lon="2.22854">
        <ele>211.6</ele>
        <time>2019-06-09T08:02:27.000Z</time>
      </trkpt>
      <trkpt lat="43.28993" lon="2.22855">
        <ele>211.4</ele>
        <time>2019-06-09T08:02:28.000Z</time>
      </trkpt>
      <trkpt lat="43.28993" lon="2.22856">
        <ele>211.3</ele>
        <time>2019-06-09T08:02:29.000Z</time>
      </trkpt>
      <trkpt lat="43.28992" lon="2.22858">
        <ele>211.1</ele>
        <time>2019-06-09T08:02:30.000Z</time>
      </trkpt>
      <trkpt lat="43.28991" lon="2.22859">
        <ele>210.9</ele>
        <time>2019-06-09T08:02:31.000Z</time>
      </trkpt>
      <trkpt lat="43.2899" lon="2.22861">
        <ele>210.7</ele>
        <time>2019-06-09T08:02:32.000Z</time>
      </trkpt>
      <trkpt lat="43.28989" lon="2.22863">
        <ele>210.5</ele>
        <time>2019-06-09T08:02:33.000Z</time>
      </trkpt>
      <trkpt lat="43.28988" lon="2.22864">
        <ele>210.3</ele>
        <time>2019-06-09T08:02:34.000Z</time>
      </trkpt>
      <trkpt lat="43.28986" lon="2.22866">
        <ele>210.1</ele>
        <time>2019-06-09T08:02:35.000Z</time>
      </trkpt>
      <trkpt lat="43.28985" lon="2.22868">
        <ele>209.9</ele>
        <time>2019-06-09T08:02:36.000Z</time>
      </trkpt>
      <trkpt lat="43.28984" lon="2.2287">
        <ele>209.8</ele>
        <time>2019-06-09T08:02:37.000Z</time>
      </trkpt>
      <trkpt lat="43.28983" lon="2.22871">
        <ele>209.6</ele>
        <time>2019-06-09T08:02:38.000Z</time>
      </trkpt>
      <trkpt lat="43.28982" lon="2.22873">
        <ele>209.4</ele>
        <time>2019-06-09T08:02:39.000Z</time>
      </trkpt>
      <trkpt lat="43.2898" lon="2.22875">
        <ele>209.3</ele>
        <time>2019-06-09T08:02:40.000Z</time>
      </trkpt>
      <trkpt lat="43.28979" lon="2.22877">
        <ele>209.1</ele>
        <time>2019-06-09T08:02:41.000Z</time>
      </trkpt>
      <trkpt lat="43.28978" lon="2.22879">
        <ele>209</ele>
        <time>2019-06-09T08:02:42.000Z</time>
      </trkpt>
      <trkpt lat="43.28977" lon="2.22881">
        <ele>208.9</ele>
        <time>2019-06-09T08:02:43.000Z</time>
      </trkpt>
      <trkpt lat="43.28976" lon="2.22883">
        <ele>208.7</ele>
        <time>2019-06-09T08:02:44.000Z</time>
      </trkpt>
      <trkpt lat="43.28974" lon="2.22886">
        <ele>208.6</ele>
        <time>2019-06-09T08:02:45.000Z</time>
      </trkpt>
      <trkpt lat="43.28973" lon="2.22888">
        <ele>208.5</ele>
        <time>2019-06-09T08:02:46.000Z</time>
      </trkpt>
      <trkpt lat="43.28972" lon="2.2289">
        <ele>208.4</ele>
        <time>2019-06-09T08:02:47.000Z</time>
      </trkpt>
      <trkpt lat="43.2897" lon="2.22892">
        <ele>208.3</ele>
        <time>2019-06-09T08:02:48.000Z</time>
      </trkpt>
      <trkpt lat="43.28969" lon="2.22894">
        <ele>208.2</ele>
        <time>2019-06-09T08:02:49.000Z</time>
      </trkpt>
      <trkpt lat="43.28967" lon="2.22896">
        <ele>208.2</ele>
        <time>2019-06-09T08:02:50.000Z</time>
      </trkpt>
      <trkpt lat="43.28966" lon="2.22897">
        <ele>208.2</ele>
        <time>2019-06-09T08:02:51.000Z</time>
      </trkpt>
      <trkpt lat="43.28965" lon="2.22899">
        <ele>208.1</ele>
        <time>2019-06-09T08:02:52.000Z</time>
      </trkpt>
      <trkpt lat="43.28964" lon="2.229">
        <ele>208.1</ele>
        <time>2019-06-09T08:02:53.000Z</time>
      </trkpt>
      <trkpt lat="43.28963" lon="2.229">
        <ele>208.1</ele>
        <time>2019-06-09T08:02:54.000Z</time>
      </trkpt>
      <trkpt lat="43.28962" lon="2.22901">
        <ele>208.1</ele>
        <time>2019-06-09T08:02:55.000Z</time>
      </trkpt>
      <trkpt lat="43.2896" lon="2.22901">
        <ele>208.2</ele>
        <time>2019-06-09T08:02:56.000Z</time>
      </trkpt>
      <trkpt lat="43.28958" lon="2.22901">
        <ele>208.2</ele>
        <time>2019-06-09T08:02:57.000Z</time>
      </trkpt>
      <trkpt lat="43.28956" lon="2.22901">
        <ele>208.2</ele>
        <time>2019-06-09T08:02:58.000Z</time>
      </trkpt>
      <trkpt lat="43.28953" lon="2.22901">
        <ele>208.3</ele>
        <time>2019-06-09T08:02:59.000Z</time>
      </trkpt>
      <trkpt lat="43.28951" lon="2.22902">
        <ele>208.3</ele>
        <time>2019-06-09T08:03:00.000Z</time>
      </trkpt>
      <trkpt lat="43.28949" lon="2.22904">
        <ele>208.4</ele>
        <time>2019-06-09T08:03:01.000Z</time>
      </trkpt>
      <trkpt lat="43.28947" lon="2.22905">
        <ele>208.4</ele>
        <time>2019-06-09T08:03:02.000Z</time>
      </trkpt>
      <trkpt lat="43.28945" lon="2.22907">
        <ele>208.5</ele>
        <time>2019-06-09T08:03:03.000Z</time>
      </trkpt>
      <trkpt lat="43.28943" lon="2.2291">
        <ele>208.6</ele>
        <time>2019-06-09T08:03:04.000Z</time>
      </trkpt>
      <trkpt lat="43.28942" lon="2.22912">
        <ele>208.7</ele>
        <time>2019-06-09T08:03:05.000Z</time>
      </trkpt>
      <trkpt lat="43.28939" lon="2.22914">
        <ele>208.8</ele>
        <time>2019-06-09T08:03:06.000Z</time>
      </trkpt>
      <trkpt lat="43.28937" lon="2.22917">
        <ele>209</ele>
        <time>2019-06-09T08:03:07.000Z</time>
      </trkpt>
      <trkpt lat="43.28935" lon="2.22919">
        <ele>209</ele>
        <time>2019-06-09T08:03:08.000Z</time>
      </trkpt>
      <trkpt lat="43.28932" lon="2.22921">
        <ele>208.9</ele>
        <time>2019-06-09T08:03:09.000Z</time>
      </trkpt>
      <trkpt lat="43.2893" lon="2.22923">
        <ele>208.9</ele>
        <time>2019-06-09T08:03:10.000Z</time>
      </trkpt>
      <trkpt lat="43.28927" lon="2.22924">
        <ele>208.9</ele>
        <time>2019-06-09T08:03:11.000Z</time>
      </trkpt>
      <trkpt lat="43.28924" lon="2.22926">
        <ele>208.9</ele>
        <time>2019-06-09T08:03:12.000Z</time>
      </trkpt>
      <trkpt lat="43.28922" lon="2.22928">
        <ele>208.9</ele>
        <time>2019-06-09T08:03:13.000Z</time>
      </trkpt>
      <trkpt lat="43.28919" lon="2.2293">
        <ele>208.9</ele>
        <time>2019-06-09T08:03:14.000Z</time>
      </trkpt>
      <trkpt lat="43.28917" lon="2.22932">
        <ele>208.9</ele>
        <time>2019-06-09T08:03:15.000Z</time>
      </trkpt>
      <trkpt lat="43.28915" lon="2.22934">
        <ele>208.6</ele>
        <time>2019-06-09T08:03:16.000Z</time>
      </trkpt>
      <trkpt lat="43.28914" lon="2.22936">
        <ele>208.3</ele>
        <time>2019-06-09T08:03:17.000Z</time>
      </trkpt>
      <trkpt lat="43.28912" lon="2.22938">
        <ele>208</ele>
        <time>2019-06-09T08:03:18.000Z</time>
      </trkpt>
      <trkpt lat="43.28909" lon="2.2294">
        <ele>207.7</ele>
        <time>2019-06-09T08:03:19.000Z</time>
      </trkpt>
      <trkpt lat="43.28907" lon="2.22943">
        <ele>207.4</ele>
        <time>2019-06-09T08:03:20.000Z</time>
      </trkpt>
      <trkpt lat="43.28905" lon="2.22945">
        <ele>207.1</ele>
        <time>2019-06-09T08:03:21.000Z</time>
      </trkpt>
      <trkpt lat="43.28903" lon="2.22948">
        <ele>206.8</ele>
        <time>2019-06-09T08:03:22.000Z</time>
      </trkpt>
      <trkpt lat="43.28901" lon="2.22951">
        <ele>206.6</ele>
        <time>2019-06-09T08:03:23.000Z</time>
      </trkpt>
      <trkpt lat="43.28899" lon="2.22954">
        <ele>206.3</ele>
        <time>2019-06-09T08:03:24.000Z</time>
      </trkpt>
      <trkpt lat="43.28897" lon="2.22956">
        <ele>206.1</ele>
        <time>2019-06-09T08:03:25.000Z</time>
      </trkpt>
      <trkpt lat="43.28895" lon="2.22959">
        <ele>205.9</ele>
        <time>2019-06-09T08:03:26.000Z</time>
      </trkpt>
      <trkpt lat="43.28893" lon="2.22961">
        <ele>205.8</ele>
        <time>2019-06-09T08:03:27.000Z</time>
      </trkpt>
      <trkpt lat="43.28892" lon="2.22962">
        <ele>205.7</ele>
        <time>2019-06-09T08:03:28.000Z</time>
      </trkpt>
      <trkpt lat="43.2889" lon="2.22964">
        <ele>205.6</ele>
        <time>2019-06-09T08:03:29.000Z</time>
      </trkpt>
      <trkpt lat="43.28888" lon="2.22966">
        <ele>205.5</ele>
        <time>2019-06-09T08:03:30.000Z</time>
      </trkpt>
      <trkpt lat="43.28887" lon="2.22968">
        <ele>205.4</ele>
        <time>2019-06-09T08:03:31.000Z</time>
      </trkpt>
      <trkpt lat="43.28885" lon="2.22969">
        <ele>205.3</ele>
        <time>2019-06-09T08:03:32.000Z</time>
      </trkpt>
      <trkpt lat="43.28883" lon="2.22971">
        <ele>205.2</ele>
        <time>2019-06-09T08:03:33.000Z</time>
      </trkpt>
      <trkpt lat="43.28881" lon="2.22973">
        <ele>205.1</ele>
        <time>2019-06-09T08:03:34.000Z</time>
      </trkpt>
      <trkpt lat="43.28879" lon="2.22975">
        <ele>205.1</ele>
        <time>2019-06-09T08:03:35.000Z</time>
      </trkpt>
      <trkpt lat="43.28877" lon="2.22977">
        <ele>205</ele>
        <time>2019-06-09T08:03:36.000Z</time>
      </trkpt>
      <trkpt lat="43.28875" lon="2.2298">
        <ele>205</ele>
        <time>2019-06-09T08:03:37.000Z</time>
      </trkpt>
      <trkpt lat="43.28873" lon="2.22982">
        <ele>205</ele>
        <time>2019-06-09T08:03:38.000Z</time>
      </trkpt>
      <trkpt lat="43.28871" lon="2.22984">
        <ele>205</ele>
        <time>2019-06-09T08:03:39.000Z</time>
      </trkpt>
      <trkpt lat="43.28869" lon="2.22986">
        <ele>205</ele>
        <time>2019-06-09T08:03:40.000Z</time>
      </trkpt>
      <trkpt lat="43.28867" lon="2.22988">
        <ele>205</ele>
        <time>2019-06-09T08:03:41.000Z</time>
      </trkpt>
      <trkpt lat="43.28864" lon="2.2299">
        <ele>205.1</ele>
        <time>2019-06-09T08:03:42.000Z</time>
      </trkpt>
      <trkpt lat="43.28862" lon="2.22992">
        <ele>205.1</ele>
        <time>2019-06-09T08:03:43.000Z</time>
      </trkpt>
      <trkpt lat="43.28859" lon="2.22994">
        <ele>205.2</ele>
        <time>2019-06-09T08:03:44.000Z</time>
      </trkpt>
      <trkpt lat="43.28857" lon="2.22995">
        <ele>205.3</ele>
        <time>2019-06-09T08:03:45.000Z</time>
      </trkpt>
      <trkpt lat="43.28854" lon="2.22997">
        <ele>205.4</ele>
        <time>2019-06-09T08:03:46.000Z</time>
      </trkpt>
      <trkpt lat="43.28852" lon="2.22999">
        <ele>205.5</ele>
        <time>2019-06-09T08:03:47.000Z</time>
      </trkpt>
      <trkpt lat="43.28849" lon="2.23001">
        <ele>205.6</ele>
        <time>2019-06-09T08:03:48.000Z</time>
      </trkpt>
      <trkpt lat="43.28847" lon="2.23003">
        <ele>205.6</ele>
        <time>2019-06-09T08:03:49.000Z</time>
      </trkpt>
      <trkpt lat="43.28844" lon="2.23005">
        <ele>205.7</ele>
        <time>2019-06-09T08:03:50.000Z</time>
      </trkpt>
      <trkpt lat="43.28842" lon="2.23007">
        <ele>205.7</ele>
        <time>2019-06-09T08:03:51.000Z</time>
      </trkpt>
      <trkpt lat="43.28839" lon="2.23009">
        <ele>205.8</ele>
        <time>2019-06-09T08:03:52.000Z</time>
      </trkpt>
      <trkpt lat="43.28837" lon="2.23011">
        <ele>205.9</ele>
        <time>2019-06-09T08:03:53.000Z</time>
      </trkpt>
      <trkpt lat="43.28834" lon="2.23013">
        <ele>206</ele>
        <time>2019-06-09T08:03:54.000Z</time>
      </trkpt>
      <trkpt lat="43.28832" lon="2.23015">
        <ele>205.9</ele>
        <time>2019-06-09T08:03:55.000Z</time>
      </trkpt>
      <trkpt lat="43.28829" lon="2.23017">
        <ele>205.6</ele>
        <time>2019-06-09T08:03:56.000Z</time>
      </trkpt>
      <trkpt lat="43.28827" lon="2.23018">
        <ele>205.4</ele>
        <time>2019-06-09T08:03:57.000Z</time>
      </trkpt>
      <trkpt lat="43.28824" lon="2.2302">
        <ele>205.1</ele>
        <time>2019-06-09T08:03:58.000Z</time>
      </trkpt>
      <trkpt lat="43.28822" lon="2.23022">
        <ele>204.9</ele>
        <time>2019-06-09T08:03:59.000Z</time>
      </trkpt>
      <trkpt lat="43.28819" lon="2.23024">
        <ele>204.7</ele>
        <time>2019-06-09T08:04:00.000Z</time>
      </trkpt>
      <trkpt lat="43.28817" lon="2.23026">
        <ele>204.5</ele>
        <time>2019-06-09T08:04:01.000Z</time>
      </trkpt>
      <trkpt lat="43.28814" lon="2.23027">
        <ele>204.3</ele>
        <time>2019-06-09T08:04:02.000Z</time>
      </trkpt>
      <trkpt lat="43.28811" lon="2.23029">
        <ele>204.1</ele>
        <time>2019-06-09T08:04:03.000Z</time>
      </trkpt>
      <trkpt lat="43.28808" lon="2.2303">
        <ele>203.9</ele>
        <time>2019-06-09T08:04:04.000Z</time>
      </trkpt>
      <trkpt lat="43.28806" lon="2.23032">
        <ele>203.7</ele>
        <time>2019-06-09T08:04:05.000Z</time>
      </trkpt>
      <trkpt lat="43.28803" lon="2.23033">
        <ele>203.5</ele>
        <time>2019-06-09T08:04:06.000Z</time>
      </trkpt>
      <trkpt lat="43.288" lon="2.23035">
        <ele>203.3</ele>
        <time>2019-06-09T08:04:07.000Z</time>
      </trkpt>
      <trkpt lat="43.28797" lon="2.23036">
        <ele>203.1</ele>
        <time>2019-06-09T08:04:08.000Z</time>
      </trkpt>
      <trkpt lat="43.28794" lon="2.23037">
        <ele>203</ele>
        <time>2019-06-09T08:04:09.000Z</time>
      </trkpt>
      <trkpt lat="43.28791" lon="2.23039">
        <ele>202.8</ele>
        <time>2019-06-09T08:04:10.000Z</time>
      </trkpt>
      <trkpt lat="43.28788" lon="2.2304">
        <ele>202.7</ele>
        <time>2019-06-09T08:04:11.000Z</time>
      </trkpt>
      <trkpt lat="43.28785" lon="2.23042">
        <ele>202.6</ele>
        <time>2019-06-09T08:04:12.000Z</time>
      </trkpt>
      <trkpt lat="43.28783" lon="2.23045">
        <ele>202.6</ele>
        <time>2019-06-09T08:04:13.000Z</time>
      </trkpt>
      <trkpt lat="43.2878" lon="2.23048">
        <ele>202.6</ele>
        <time>2019-06-09T08:04:14.000Z</time>
      </trkpt>
      <trkpt lat="43.28778" lon="2.23051">
        <ele>202.6</ele>
        <time>2019-06-09T08:04:15.000Z</time>
      </trkpt>
      <trkpt lat="43.28776" lon="2.23054">
        <ele>202.7</ele>
        <time>2019-06-09T08:04:16.000Z</time>
      </trkpt>
      <trkpt lat="43.28774" lon="2.23057">
        <ele>202.7</ele>
        <time>2019-06-09T08:04:17.000Z</time>
      </trkpt>
      <trkpt lat="43.28771" lon="2.23059">
        <ele>202.8</ele>
        <time>2019-06-09T08:04:18.000Z</time>
      </trkpt>
      <trkpt lat="43.28769" lon="2.23062">
        <ele>202.9</ele>
        <time>2019-06-09T08:04:19.000Z</time>
      </trkpt>
      <trkpt lat="43.28767" lon="2.23065">
        <ele>203</ele>
        <time>2019-06-09T08:04:20.000Z</time>
      </trkpt>
      <trkpt lat="43.28765" lon="2.23067">
        <ele>203</ele>
        <time>2019-06-09T08:04:21.000Z</time>
      </trkpt>
      <trkpt lat="43.28762" lon="2.23069">
        <ele>203.1</ele>
        <time>2019-06-09T08:04:22.000Z</time>
      </trkpt>
      <trkpt lat="43.2876" lon="2.23071">
        <ele>203.2</ele>
        <time>2019-06-09T08:04:23.000Z</time>
      </trkpt>
      <trkpt lat="43.28758" lon="2.23073">
        <ele>203.3</ele>
        <time>2019-06-09T08:04:24.000Z</time>
      </trkpt>
      <trkpt lat="43.28755" lon="2.23075">
        <ele>203.3</ele>
        <time>2019-06-09T08:04:25.000Z</time>
      </trkpt>
      <trkpt lat="43.28753" lon="2.23076">
        <ele>203.4</ele>
        <time>2019-06-09T08:04:26.000Z</time>
      </trkpt>
      <trkpt lat="43.2875" lon="2.23078">
        <ele>203.5</ele>
        <time>2019-06-09T08:04:27.000Z</time>
      </trkpt>
      <trkpt lat="43.28748" lon="2.23079">
        <ele>203.6</ele>
        <time>2019-06-09T08:04:28.000Z</time>
      </trkpt>
      <trkpt lat="43.28745" lon="2.2308">
        <ele>203.8</ele>
        <time>2019-06-09T08:04:29.000Z</time>
      </trkpt>
      <trkpt lat="43.28743" lon="2.23082">
        <ele>204</ele>
        <time>2019-06-09T08:04:30.000Z</time>
      </trkpt>
      <trkpt lat="43.2874" lon="2.23083">
        <ele>204.2</ele>
        <time>2019-06-09T08:04:31.000Z</time>
      </trkpt>
      <trkpt lat="43.28737" lon="2.23084">
        <ele>204.3</ele>
        <time>2019-06-09T08:04:32.000Z</time>
      </trkpt>
      <trkpt lat="43.28735" lon="2.23085">
        <ele>204.4</ele>
        <time>2019-06-09T08:04:33.000Z</time>
      </trkpt>
      <trkpt lat="43.28732" lon="2.23086">
        <ele>204.4</ele>
        <time>2019-06-09T08:04:34.000Z</time>
      </trkpt>
      <trkpt lat="43.2873" lon="2.23087">
        <ele>204.5</ele>
        <time>2019-06-09T08:04:35.000Z</time>
      </trkpt>
      <trkpt lat="43.28727" lon="2.23088">
        <ele>204.5</ele>
        <time>2019-06-09T08:04:36.000Z</time>
      </trkpt>
      <trkpt lat="43.28724" lon="2.23089">
        <ele>204.6</ele>
        <time>2019-06-09T08:04:37.000Z</time>
      </trkpt>
      <trkpt lat="43.28722" lon="2.2309">
        <ele>204.7</ele>
        <time>2019-06-09T08:04:38.000Z</time>
      </trkpt>
      <trkpt lat="43.28719" lon="2.2309">
        <ele>204.7</ele>
        <time>2019-06-09T08:04:39.000Z</time>
      </trkpt>
      <trkpt lat="43.28716" lon="2.23091">
        <ele>204.8</ele>
        <time>2019-06-09T08:04:40.000Z</time>
      </trkpt>
      <trkpt lat="43.28714" lon="2.23091">
        <ele>204.9</ele>
        <time>2019-06-09T08:04:41.000Z</time>
      </trkpt>
      <trkpt lat="43.28711" lon="2.23091">
        <ele>204.9</ele>
        <time>2019-06-09T08:04:42.000Z</time>
      </trkpt>
      <trkpt lat="43.28708" lon="2.23091">
        <ele>205</ele>
        <time>2019-06-09T08:04:43.000Z</time>
      </trkpt>
      <trkpt lat="43.28706" lon="2.23091">
        <ele>205.1</ele>
        <time>2019-06-09T08:04:44.000Z</time>
      </trkpt>
      <trkpt lat="43.28703" lon="2.23091">
        <ele>205.1</ele>
        <time>2019-06-09T08:04:45.000Z</time>
      </trkpt>
      <trkpt lat="43.287" lon="2.23091">
        <ele>205.2</ele>
        <time>2019-06-09T08:04:46.000Z</time>
      </trkpt>
      <trkpt lat="43.28697" lon="2.2309">
        <ele>205.3</ele>
        <time>2019-06-09T08:04:47.000Z</time>
      </trkpt>
      <trkpt lat="43.28695" lon="2.23089">
        <ele>205.4</ele>
        <time>2019-06-09T08:04:48.000Z</time>
      </trkpt>
      <trkpt lat="43.28692" lon="2.23088">
        <ele>205.4</ele>
        <time>2019-06-09T08:04:49.000Z</time>
      </trkpt>
      <trkpt lat="43.28689" lon="2.23087">
        <ele>205.5</ele>
        <time>2019-06-09T08:04:50.000Z</time>
      </trkpt>
      <trkpt lat="43.28686" lon="2.23086">
        <ele>205.5</ele>
        <time>2019-06-09T08:04:51.000Z</time>
      </trkpt>
      <trkpt lat="43.28683" lon="2.23084">
        <ele>205.6</ele>
        <time>2019-06-09T08:04:52.000Z</time>
      </trkpt>
      <trkpt lat="43.28681" lon="2.23083">
        <ele>205.6</ele>
        <time>2019-06-09T08:04:53.000Z</time>
      </trkpt>
      <trkpt lat="43.28678" lon="2.23081">
        <ele>205.6</ele>
        <time>2019-06-09T08:04:54.000Z</time>
      </trkpt>
      <trkpt lat="43.28675" lon="2.23079">
        <ele>205.6</ele>
        <time>2019-06-09T08:04:55.000Z</time>
      </trkpt>
      <trkpt lat="43.28673" lon="2.23078">
        <ele>205.6</ele>
        <time>2019-06-09T08:04:56.000Z</time>
      </trkpt>
      <trkpt lat="43.2867" lon="2.23076">
        <ele>205.6</ele>
        <time>2019-06-09T08:04:57.000Z</time>
      </trkpt>
      <trkpt lat="43.28668" lon="2.23074">
        <ele>205.6</ele>
        <time>2019-06-09T08:04:58.000Z</time>
      </trkpt>
      <trkpt lat="43.28666" lon="2.23073">
        <ele>205.7</ele>
        <time>2019-06-09T08:04:59.000Z</time>
      </trkpt>
      <trkpt lat="43.28664" lon="2.23072">
        <ele>205.7</ele>
        <time>2019-06-09T08:05:00.000Z</time>
      </trkpt>
      <trkpt lat="43.28662" lon="2.23071">
        <ele>205.8</ele>
        <time>2019-06-09T08:05:01.000Z</time>
      </trkpt>
      <trkpt lat="43.2866" lon="2.23071">
        <ele>205.8</ele>
        <time>2019-06-09T08:05:02.000Z</time>
      </trkpt>
      <trkpt lat="43.28658" lon="2.23071">
        <ele>205.9</ele>
        <time>2019-06-09T08:05:03.000Z</time>
      </trkpt>
      <trkpt lat="43.28656" lon="2.23071">
        <ele>206</ele>
        <time>2019-06-09T08:05:04.000Z</time>
      </trkpt>
      <trkpt lat="43.28654" lon="2.23072">
        <ele>206.1</ele>
        <time>2019-06-09T08:05:05.000Z</time>
      </trkpt>
      <trkpt lat="43.28652" lon="2.23072">
        <ele>206.2</ele>
        <time>2019-06-09T08:05:06.000Z</time>
      </trkpt>
      <trkpt lat="43.2865" lon="2.23072">
        <ele>206.3</ele>
        <time>2019-06-09T08:05:07.000Z</time>
      </trkpt>
      <trkpt lat="43.28648" lon="2.23073">
        <ele>206.4</ele>
        <time>2019-06-09T08:05:08.000Z</time>
      </trkpt>
      <trkpt lat="43.28646" lon="2.23073">
        <ele>206.5</ele>
        <time>2019-06-09T08:05:09.000Z</time>
      </trkpt>
      <trkpt lat="43.28643" lon="2.23073">
        <ele>206.6</ele>
        <time>2019-06-09T08:05:10.000Z</time>
      </trkpt>
      <trkpt lat="43.28641" lon="2.23073">
        <ele>206.7</ele>
        <time>2019-06-09T08:05:11.000Z</time>
      </trkpt>
      <trkpt lat="43.28638" lon="2.23072">
        <ele>206.8</ele>
        <time>2019-06-09T08:05:12.000Z</time>
      </trkpt>
      <trkpt lat="43.28635" lon="2.23072">
        <ele>206.9</ele>
        <time>2019-06-09T08:05:13.000Z</time>
      </trkpt>
      <trkpt lat="43.28632" lon="2.23071">
        <ele>207</ele>
        <time>2019-06-09T08:05:14.000Z</time>
      </trkpt>
      <trkpt lat="43.28629" lon="2.23071">
        <ele>207.1</ele>
        <time>2019-06-09T08:05:15.000Z</time>
      </trkpt>
      <trkpt lat="43.28626" lon="2.2307">
        <ele>207.2</ele>
        <time>2019-06-09T08:05:16.000Z</time>
      </trkpt>
      <trkpt lat="43.28623" lon="2.23069">
        <ele>207.3</ele>
        <time>2019-06-09T08:05:17.000Z</time>
      </trkpt>
      <trkpt lat="43.2862" lon="2.23069">
        <ele>207.5</ele>
        <time>2019-06-09T08:05:18.000Z</time>
      </trkpt>
      <trkpt lat="43.28617" lon="2.23068">
        <ele>207.6</ele>
        <time>2019-06-09T08:05:19.000Z</time>
      </trkpt>
      <trkpt lat="43.28614" lon="2.23068">
        <ele>207.7</ele>
        <time>2019-06-09T08:05:20.000Z</time>
      </trkpt>
      <trkpt lat="43.28612" lon="2.23067">
        <ele>207.8</ele>
        <time>2019-06-09T08:05:21.000Z</time>
      </trkpt>
      <trkpt lat="43.28609" lon="2.23067">
        <ele>207.9</ele>
        <time>2019-06-09T08:05:22.000Z</time>
      </trkpt>
      <trkpt lat="43.28606" lon="2.23066">
        <ele>208</ele>
        <time>2019-06-09T08:05:23.000Z</time>
      </trkpt>
      <trkpt lat="43.28604" lon="2.23065">
        <ele>208.1</ele>
        <time>2019-06-09T08:05:24.000Z</time>
      </trkpt>
      <trkpt lat="43.28602" lon="2.23064">
        <ele>208.2</ele>
        <time>2019-06-09T08:05:25.000Z</time>
      </trkpt>
      <trkpt lat="43.28599" lon="2.23063">
        <ele>208.3</ele>
        <time>2019-06-09T08:05:26.000Z</time>
      </trkpt>
      <trkpt lat="43.28597" lon="2.23062">
        <ele>208.4</ele>
        <time>2019-06-09T08:05:27.000Z</time>
      </trkpt>
      <trkpt lat="43.28595" lon="2.23061">
        <ele>208.5</ele>
        <time>2019-06-09T08:05:28.000Z</time>
      </trkpt>
      <trkpt lat="43.28593" lon="2.23059">
        <ele>208.6</ele>
        <time>2019-06-09T08:05:29.000Z</time>
      </trkpt>
      <trkpt lat="43.28591" lon="2.23058">
        <ele>208.7</ele>
        <time>2019-06-09T08:05:30.000Z</time>
      </trkpt>
      <trkpt lat="43.28589" lon="2.23058">
        <ele>208.8</ele>
        <time>2019-06-09T08:05:31.000Z</time>
      </trkpt>
      <trkpt lat="43.28586" lon="2.23058">
        <ele>208.9</ele>
        <time>2019-06-09T08:05:32.000Z</time>
      </trkpt>
      <trkpt lat="43.28584" lon="2.23058">
        <ele>209</ele>
        <time>2019-06-09T08:05:33.000Z</time>
      </trkpt>
      <trkpt lat="43.28582" lon="2.23058">
        <ele>209</ele>
        <time>2019-06-09T08:05:34.000Z</time>
      </trkpt>
      <trkpt lat="43.2858" lon="2.23059">
        <ele>208.9</ele>
        <time>2019-06-09T08:05:35.000Z</time>
      </trkpt>
      <trkpt lat="43.28579" lon="2.23059">
        <ele>208.9</ele>
        <time>2019-06-09T08:05:36.000Z</time>
      </trkpt>
      <trkpt lat="43.28578" lon="2.2306">
        <ele>208.9</ele>
        <time>2019-06-09T08:05:37.000Z</time>
      </trkpt>
      <trkpt lat="43.28577" lon="2.2306">
        <ele>208.8</ele>
        <time>2019-06-09T08:05:38.000Z</time>
      </trkpt>
      <trkpt lat="43.28576" lon="2.23061">
        <ele>208.8</ele>
        <time>2019-06-09T08:05:39.000Z</time>
      </trkpt>
      <trkpt lat="43.28576" lon="2.23061">
        <ele>208.8</ele>
        <time>2019-06-09T08:05:40.000Z</time>
      </trkpt>
      <trkpt lat="43.28575" lon="2.23061">
        <ele>208.8</ele>
        <time>2019-06-09T08:05:41.000Z</time>
      </trkpt>
      <trkpt lat="43.28575" lon="2.23061">
        <ele>208.8</ele>
        <time>2019-06-09T08:05:42.000Z</time>
      </trkpt>
      <trkpt lat="43.28575" lon="2.23061">
        <ele>208.8</ele>
        <time>2019-06-09T08:05:43.000Z</time>
      </trkpt>
      <trkpt lat="43.28575" lon="2.23061">
        <ele>208.8</ele>
        <time>2019-06-09T08:05:44.000Z</time>
      </trkpt>
      <trkpt lat="43.28575" lon="2.23061">
        <ele>208.8</ele>
        <time>2019-06-09T08:05:45.000Z</time>
      </trkpt>
      <trkpt lat="43.28575" lon="2.23061">
        <ele>208.8</ele>
        <time>2019-06-09T08:05:46.000Z</time>
      </trkpt>
      <trkpt lat="43.28575" lon="2.23062">
        <ele>208.8</ele>
        <time>2019-06-09T08:05:47.000Z</time>
      </trkpt>
      <trkpt lat="43.28574" lon="2.23062">
        <ele>208.8</ele>
        <time>2019-06-09T08:05:48.000Z</time>
      </trkpt>
      <trkpt lat="43.28573" lon="2.23063">
        <ele>208.8</ele>
        <time>2019-06-09T08:05:49.000Z</time>
      </trkpt>
      <trkpt lat="43.28572" lon="2.23064">
        <ele>208.7</ele>
        <time>2019-06-09T08:05:50.000Z</time>
      </trkpt>
      <trkpt lat="43.2857" lon="2.23064">
        <ele>208.7</ele>
        <time>2019-06-09T08:05:51.000Z</time>
      </trkpt>
      <trkpt lat="43.28569" lon="2.23065">
        <ele>208.7</ele>
        <time>2019-06-09T08:05:52.000Z</time>
      </trkpt>
      <trkpt lat="43.28567" lon="2.23065">
        <ele>208.6</ele>
        <time>2019-06-09T08:05:53.000Z</time>
      </trkpt>
      <trkpt lat="43.28565" lon="2.23064">
        <ele>208.6</ele>
        <time>2019-06-09T08:05:54.000Z</time>
      </trkpt>
      <trkpt lat="43.28563" lon="2.23064">
        <ele>208.5</ele>
        <time>2019-06-09T08:05:55.000Z</time>
      </trkpt>
      <trkpt lat="43.28562" lon="2.23063">
        <ele>208.5</ele>
        <time>2019-06-09T08:05:56.000Z</time>
      </trkpt>
      <trkpt lat="43.28559" lon="2.23063">
        <ele>208.4</ele>
        <time>2019-06-09T08:05:57.000Z</time>
      </trkpt>
      <trkpt lat="43.28557" lon="2.23063">
        <ele>208.4</ele>
        <time>2019-06-09T08:05:58.000Z</time>
      </trkpt>
      <trkpt lat="43.28555" lon="2.23063">
        <ele>208.3</ele>
        <time>2019-06-09T08:05:59.000Z</time>
      </trkpt>
      <trkpt lat="43.28553" lon="2.23064">
        <ele>208.3</ele>
        <time>2019-06-09T08:06:00.000Z</time>
      </trkpt>
      <trkpt lat="43.28551" lon="2.23064">
        <ele>208.2</ele>
        <time>2019-06-09T08:06:01.000Z</time>
      </trkpt>
      <trkpt lat="43.28548" lon="2.23064">
        <ele>208.2</ele>
        <time>2019-06-09T08:06:02.000Z</time>
      </trkpt>
      <trkpt lat="43.28546" lon="2.23064">
        <ele>208.1</ele>
        <time>2019-06-09T08:06:03.000Z</time>
      </trkpt>
      <trkpt lat="43.28543" lon="2.23064">
        <ele>208</ele>
        <time>2019-06-09T08:06:04.000Z</time>
      </trkpt>
      <trkpt lat="43.28541" lon="2.23063">
        <ele>208</ele>
        <time>2019-06-09T08:06:05.000Z</time>
      </trkpt>
      <trkpt lat="43.28538" lon="2.23063">
        <ele>207.9</ele>
        <time>2019-06-09T08:06:06.000Z</time>
      </trkpt>
      <trkpt lat="43.28535" lon="2.23062">
        <ele>207.8</ele>
        <time>2019-06-09T08:06:07.000Z</time>
      </trkpt>
      <trkpt lat="43.28532" lon="2.23063">
        <ele>207.8</ele>
        <time>2019-06-09T08:06:08.000Z</time>
      </trkpt>
      <trkpt lat="43.28529" lon="2.23063">
        <ele>207.7</ele>
        <time>2019-06-09T08:06:09.000Z</time>
      </trkpt>
      <trkpt lat="43.28526" lon="2.23064">
        <ele>207.6</ele>
        <time>2019-06-09T08:06:10.000Z</time>
      </trkpt>
      <trkpt lat="43.28523" lon="2.23064">
        <ele>207.6</ele>
        <time>2019-06-09T08:06:11.000Z</time>
      </trkpt>
      <trkpt lat="43.28521" lon="2.23064">
        <ele>207.5</ele>
        <time>2019-06-09T08:06:12.000Z</time>
      </trkpt>
      <trkpt lat="43.28518" lon="2.23064">
        <ele>207.4</ele>
        <time>2019-06-09T08:06:13.000Z</time>
      </trkpt>
      <trkpt lat="43.28516" lon="2.23064">
        <ele>207.4</ele>
        <time>2019-06-09T08:06:14.000Z</time>
      </trkpt>
      <trkpt lat="43.28514" lon="2.23064">
        <ele>207.3</ele>
        <time>2019-06-09T08:06:15.000Z</time>
      </trkpt>
      <trkpt lat="43.28512" lon="2.23064">
        <ele>207.3</ele>
        <time>2019-06-09T08:06:16.000Z</time>
      </trkpt>
      <trkpt lat="43.28511" lon="2.23063">
        <ele>207.3</ele>
        <time>2019-06-09T08:06:17.000Z</time>
      </trkpt>
      <trkpt lat="43.2851" lon="2.23063">
        <ele>207.2</ele>
        <time>2019-06-09T08:06:18.000Z</time>
      </trkpt>
      <trkpt lat="43.28509" lon="2.23063">
        <ele>207.2</ele>
        <time>2019-06-09T08:06:19.000Z</time>
      </trkpt>
      <trkpt lat="43.28509" lon="2.23063">
        <ele>207.2</ele>
        <time>2019-06-09T08:06:20.000Z</time>
      </trkpt>
      <trkpt lat="43.28508" lon="2.23063">
        <ele>207.2</ele>
        <time>2019-06-09T08:06:21.000Z</time>
      </trkpt>
      <trkpt lat="43.28508" lon="2.23063">
        <ele>207.2</ele>
        <time>2019-06-09T08:06:22.000Z</time>
      </trkpt>
      <trkpt lat="43.28508" lon="2.23063">
        <ele>207.2</ele>
        <time>2019-06-09T08:06:23.000Z</time>
      </trkpt>
      <trkpt lat="43.28508" lon="2.23063">
        <ele>207.2</ele>
        <time>2019-06-09T08:06:24.000Z</time>
      </trkpt>
      <trkpt lat="43.28508" lon="2.23063">
        <ele>207.2</ele>
        <time>2019-06-09T08:06:25.000Z</time>
      </trkpt>
      <trkpt lat="43.28508" lon="2.23063">
        <ele>207.2</ele>
        <time>2019-06-09T08:06:26.000Z</time>
      </trkpt>
      <trkpt lat="43.28508" lon="2.23062">
        <ele>207.2</ele>
        <time>2019-06-09T08:06:27.000Z</time>
      </trkpt>
      <trkpt lat="43.28507" lon="2.23061">
        <ele>207.2</ele>
        <time>2019-06-09T08:06:28.000Z</time>
      </trkpt>
      <trkpt lat="43.28507" lon="2.2306">
        <ele>207.2</ele>
        <time>2019-06-09T08:06:29.000Z</time>
      </trkpt>
      <trkpt lat="43.28506" lon="2.23059">
        <ele>207.1</ele>
        <time>2019-06-09T08:06:30.000Z</time>
      </trkpt>
      <trkpt lat="43.28505" lon="2.23058">
        <ele>207.1</ele>
        <time>2019-06-09T08:06:31.000Z</time>
      </trkpt>
      <trkpt lat="43.28505" lon="2.23057">
        <ele>207.1</ele>
        <time>2019-06-09T08:06:32.000Z</time>
      </trkpt>
      <trkpt lat="43.28504" lon="2.23056">
        <ele>207.1</ele>
        <time>2019-06-09T08:06:33.000Z</time>
      </trkpt>
      <trkpt lat="43.28503" lon="2.23055">
        <ele>207.1</ele>
        <time>2019-06-09T08:06:34.000Z</time>
      </trkpt>
      <trkpt lat="43.28503" lon="2.23053">
        <ele>207.1</ele>
        <time>2019-06-09T08:06:35.000Z</time>
      </trkpt>
      <trkpt lat="43.28502" lon="2.23052">
        <ele>207.1</ele>
        <time>2019-06-09T08:06:36.000Z</time>
      </trkpt>
      <trkpt lat="43.28502" lon="2.23051">
        <ele>207</ele>
        <time>2019-06-09T08:06:37.000Z</time>
      </trkpt>
      <trkpt lat="43.28501" lon="2.2305">
        <ele>207</ele>
        <time>2019-06-09T08:06:38.000Z</time>
      </trkpt>
      <trkpt lat="43.285" lon="2.23048">
        <ele>207</ele>
        <time>2019-06-09T08:06:39.000Z</time>
      </trkpt>
      <trkpt lat="43.285" lon="2.23047">
        <ele>207</ele>
        <time>2019-06-09T08:06:40.000Z</time>
      </trkpt>
      <trkpt lat="43.28499" lon="2.23045">
        <ele>206.9</ele>
        <time>2019-06-09T08:06:41.000Z</time>
      </trkpt>
      <trkpt lat="43.28498" lon="2.23044">
        <ele>206.9</ele>
        <time>2019-06-09T08:06:42.000Z</time>
      </trkpt>
      <trkpt lat="43.28497" lon="2.23042">
        <ele>206.8</ele>
        <time>2019-06-09T08:06:43.000Z</time>
      </trkpt>
      <trkpt lat="43.28496" lon="2.2304">
        <ele>206.8</ele>
        <time>2019-06-09T08:06:44.000Z</time>
      </trkpt>
      <trkpt lat="43.28495" lon="2.23038">
        <ele>206.7</ele>
        <time>2019-06-09T08:06:45.000Z</time>
      </trkpt>
      <trkpt lat="43.28494" lon="2.23036">
        <ele>206.6</ele>
        <time>2019-06-09T08:06:46.000Z</time>
      </trkpt>
      <trkpt lat="43.28492" lon="2.23034">
        <ele>206.5</ele>
        <time>2019-06-09T08:06:47.000Z</time>
      </trkpt>
      <trkpt lat="43.28491" lon="2.23032">
        <ele>206.4</ele>
        <time>2019-06-09T08:06:48.000Z</time>
      </trkpt>
      <trkpt lat="43.28489" lon="2.23029">
        <ele>206.3</ele>
        <time>2019-06-09T08:06:49.000Z</time>
      </trkpt>
      <trkpt lat="43.28488" lon="2.23027">
        <ele>206.2</ele>
        <time>2019-06-09T08:06:50.000Z</time>
      </trkpt>
      <trkpt lat="43.28487" lon="2.23024">
        <ele>206.1</ele>
        <time>2019-06-09T08:06:51.000Z</time>
      </trkpt>
      <trkpt lat="43.28486" lon="2.23021">
        <ele>206</ele>
        <time>2019-06-09T08:06:52.000Z</time>
      </trkpt>
      <trkpt lat="43.28486" lon="2.23018">
        <ele>205.9</ele>
        <time>2019-06-09T08:06:53.000Z</time>
      </trkpt>
      <trkpt lat="43.28485" lon="2.23015">
        <ele>205.9</ele>
        <time>2019-06-09T08:06:54.000Z</time>
      </trkpt>
      <trkpt lat="43.28485" lon="2.23011">
        <ele>205.8</ele>
        <time>2019-06-09T08:06:55.000Z</time>
      </trkpt>
      <trkpt lat="43.28485" lon="2.23008">
        <ele>205.8</ele>
        <time>2019-06-09T08:06:56.000Z</time>
      </trkpt>
      <trkpt lat="43.28485" lon="2.23004">
        <ele>205.7</ele>
        <time>2019-06-09T08:06:57.000Z</time>
      </trkpt>
      <trkpt lat="43.28485" lon="2.23001">
        <ele>205.7</ele>
        <time>2019-06-09T08:06:58.000Z</time>
      </trkpt>
      <trkpt lat="43.28485" lon="2.22997">
        <ele>205.7</ele>
        <time>2019-06-09T08:06:59.000Z</time>
      </trkpt>
      <trkpt lat="43.28486" lon="2.22994">
        <ele>205.7</ele>
        <time>2019-06-09T08:07:00.000Z</time>
      </trkpt>
      <trkpt lat="43.28487" lon="2.2299">
        <ele>205.6</ele>
        <time>2019-06-09T08:07:01.000Z</time>
      </trkpt>
      <trkpt lat="43.28487" lon="2.22987">
        <ele>205.6</ele>
        <time>2019-06-09T08:07:02.000Z</time>
      </trkpt>
      <trkpt lat="43.28488" lon="2.22983">
        <ele>205.6</ele>
        <time>2019-06-09T08:07:03.000Z</time>
      </trkpt>
      <trkpt lat="43.28489" lon="2.22979">
        <ele>205.6</ele>
        <time>2019-06-09T08:07:04.000Z</time>
      </trkpt>
      <trkpt lat="43.2849" lon="2.22976">
        <ele>205.6</ele>
        <time>2019-06-09T08:07:05.000Z</time>
      </trkpt>
      <trkpt lat="43.28491" lon="2.22973">
        <ele>205.6</ele>
        <time>2019-06-09T08:07:06.000Z</time>
      </trkpt>
      <trkpt lat="43.28492" lon="2.22969">
        <ele>205.6</ele>
        <time>2019-06-09T08:07:07.000Z</time>
      </trkpt>
      <trkpt lat="43.28493" lon="2.22966">
        <ele>205.6</ele>
        <time>2019-06-09T08:07:08.000Z</time>
      </trkpt>
      <trkpt lat="43.28494" lon="2.22963">
        <ele>205.6</ele>
        <time>2019-06-09T08:07:09.000Z</time>
      </trkpt>
      <trkpt lat="43.28495" lon="2.2296">
        <ele>205.6</ele>
        <time>2019-06-09T08:07:10.000Z</time>
      </trkpt>
      <trkpt lat="43.28496" lon="2.22956">
        <ele>205.6</ele>
        <time>2019-06-09T08:07:11.000Z</time>
      </trkpt>
      <trkpt lat="43.28497" lon="2.22953">
        <ele>205.6</ele>
        <time>2019-06-09T08:07:12.000Z</time>
      </trkpt>
      <trkpt lat="43.28498" lon="2.2295">
        <ele>205.6</ele>
        <time>2019-06-09T08:07:13.000Z</time>
      </trkpt>
      <trkpt lat="43.28499" lon="2.22947">
        <ele>205.6</ele>
        <time>2019-06-09T08:07:14.000Z</time>
      </trkpt>
      <trkpt lat="43.285" lon="2.22944">
        <ele>205.6</ele>
        <time>2019-06-09T08:07:15.000Z</time>
      </trkpt>
      <trkpt lat="43.28501" lon="2.22941">
        <ele>205.6</ele>
        <time>2019-06-09T08:07:16.000Z</time>
      </trkpt>
      <trkpt lat="43.28502" lon="2.22937">
        <ele>205.5</ele>
        <time>2019-06-09T08:07:17.000Z</time>
      </trkpt>
      <trkpt lat="43.28503" lon="2.22934">
        <ele>205.5</ele>
        <time>2019-06-09T08:07:18.000Z</time>
      </trkpt>
      <trkpt lat="43.28504" lon="2.22931">
        <ele>205.5</ele>
        <time>2019-06-09T08:07:19.000Z</time>
      </trkpt>
      <trkpt lat="43.28505" lon="2.22928">
        <ele>205.4</ele>
        <time>2019-06-09T08:07:20.000Z</time>
      </trkpt>
      <trkpt lat="43.28506" lon="2.22924">
        <ele>205.4</ele>
        <time>2019-06-09T08:07:21.000Z</time>
      </trkpt>
      <trkpt lat="43.28506" lon="2.22921">
        <ele>205.3</ele>
        <time>2019-06-09T08:07:22.000Z</time>
      </trkpt>
      <trkpt lat="43.28507" lon="2.22918">
        <ele>205.3</ele>
        <time>2019-06-09T08:07:23.000Z</time>
      </trkpt>
      <trkpt lat="43.28508" lon="2.22914">
        <ele>205.2</ele>
        <time>2019-06-09T08:07:24.000Z</time>
      </trkpt>
      <trkpt lat="43.28509" lon="2.22911">
        <ele>205</ele>
        <time>2019-06-09T08:07:25.000Z</time>
      </trkpt>
      <trkpt lat="43.28509" lon="2.22908">
        <ele>204.9</ele>
        <time>2019-06-09T08:07:26.000Z</time>
      </trkpt>
      <trkpt lat="43.28509" lon="2.22904">
        <ele>204.7</ele>
        <time>2019-06-09T08:07:27.000Z</time>
      </trkpt>
      <trkpt lat="43.28509" lon="2.22901">
        <ele>204.6</ele>
        <time>2019-06-09T08:07:28.000Z</time>
      </trkpt>
      <trkpt lat="43.28509" lon="2.22898">
        <ele>204.4</ele>
        <time>2019-06-09T08:07:29.000Z</time>
      </trkpt>
      <trkpt lat="43.28508" lon="2.22895">
        <ele>204.2</ele>
        <time>2019-06-09T08:07:30.000Z</time>
      </trkpt>
      <trkpt lat="43.28508" lon="2.22892">
        <ele>204.1</ele>
        <time>2019-06-09T08:07:31.000Z</time>
      </trkpt>
      <trkpt lat="43.28507" lon="2.22889">
        <ele>203.9</ele>
        <time>2019-06-09T08:07:32.000Z</time>
      </trkpt>
      <trkpt lat="43.28505" lon="2.22886">
        <ele>203.7</ele>
        <time>2019-06-09T08:07:33.000Z</time>
      </trkpt>
      <trkpt lat="43.28504" lon="2.22884">
        <ele>203.6</ele>
        <time>2019-06-09T08:07:34.000Z</time>
      </trkpt>
      <trkpt lat="43.28503" lon="2.22881">
        <ele>203.4</ele>
        <time>2019-06-09T08:07:35.000Z</time>
      </trkpt>
      <trkpt lat="43.28501" lon="2.22879">
        <ele>203.2</ele>
        <time>2019-06-09T08:07:36.000Z</time>
      </trkpt>
      <trkpt lat="43.28499" lon="2.22877">
        <ele>203</ele>
        <time>2019-06-09T08:07:37.000Z</time>
      </trkpt>
      <trkpt lat="43.28497" lon="2.22875">
        <ele>202.8</ele>
        <time>2019-06-09T08:07:38.000Z</time>
      </trkpt>
      <trkpt lat="43.28495" lon="2.22873">
        <ele>202.5</ele>
        <time>2019-06-09T08:07:39.000Z</time>
      </trkpt>
      <trkpt lat="43.28493" lon="2.22871">
        <ele>202.3</ele>
        <time>2019-06-09T08:07:40.000Z</time>
      </trkpt>
      <trkpt lat="43.28491" lon="2.22869">
        <ele>202</ele>
        <time>2019-06-09T08:07:41.000Z</time>
      </trkpt>
      <trkpt lat="43.28488" lon="2.22868">
        <ele>201.7</ele>
        <time>2019-06-09T08:07:42.000Z</time>
      </trkpt>
      <trkpt lat="43.28486" lon="2.22867">
        <ele>201.5</ele>
        <time>2019-06-09T08:07:43.000Z</time>
      </trkpt>
      <trkpt lat="43.28483" lon="2.22866">
        <ele>201.2</ele>
        <time>2019-06-09T08:07:44.000Z</time>
      </trkpt>
      <trkpt lat="43.28481" lon="2.22865">
        <ele>201</ele>
        <time>2019-06-09T08:07:45.000Z</time>
      </trkpt>
      <trkpt lat="43.28478" lon="2.22864">
        <ele>200.7</ele>
        <time>2019-06-09T08:07:46.000Z</time>
      </trkpt>
      <trkpt lat="43.28475" lon="2.22864">
        <ele>200.5</ele>
        <time>2019-06-09T08:07:47.000Z</time>
      </trkpt>
      <trkpt lat="43.28472" lon="2.22864">
        <ele>200.2</ele>
        <time>2019-06-09T08:07:48.000Z</time>
      </trkpt>
      <trkpt lat="43.28469" lon="2.22863">
        <ele>200</ele>
        <time>2019-06-09T08:07:49.000Z</time>
      </trkpt>
      <trkpt lat="43.28466" lon="2.22864">
        <ele>199.7</ele>
        <time>2019-06-09T08:07:50.000Z</time>
      </trkpt>
      <trkpt lat="43.28463" lon="2.22864">
        <ele>199.5</ele>
        <time>2019-06-09T08:07:51.000Z</time>
      </trkpt>
      <trkpt lat="43.2846" lon="2.22864">
        <ele>199.3</ele>
        <time>2019-06-09T08:07:52.000Z</time>
      </trkpt>
      <trkpt lat="43.28457" lon="2.22865">
        <ele>199.1</ele>
        <time>2019-06-09T08:07:53.000Z</time>
      </trkpt>
      <trkpt lat="43.28454" lon="2.22865">
        <ele>198.8</ele>
        <time>2019-06-09T08:07:54.000Z</time>
      </trkpt>
      <trkpt lat="43.28451" lon="2.22864">
        <ele>198.6</ele>
        <time>2019-06-09T08:07:55.000Z</time>
      </trkpt>
      <trkpt lat="43.28448" lon="2.22864">
        <ele>198.3</ele>
        <time>2019-06-09T08:07:56.000Z</time>
      </trkpt>
      <trkpt lat="43.28445" lon="2.22863">
        <ele>198.1</ele>
        <time>2019-06-09T08:07:57.000Z</time>
      </trkpt>
      <trkpt lat="43.28442" lon="2.22863">
        <ele>197.8</ele>
        <time>2019-06-09T08:07:58.000Z</time>
      </trkpt>
      <trkpt lat="43.28439" lon="2.22862">
        <ele>197.5</ele>
        <time>2019-06-09T08:07:59.000Z</time>
      </trkpt>
      <trkpt lat="43.28437" lon="2.22862">
        <ele>197.3</ele>
        <time>2019-06-09T08:08:00.000Z</time>
      </trkpt>
      <trkpt lat="43.28434" lon="2.22861">
        <ele>197</ele>
        <time>2019-06-09T08:08:01.000Z</time>
      </trkpt>
      <trkpt lat="43.28431" lon="2.22861">
        <ele>196.8</ele>
        <time>2019-06-09T08:08:02.000Z</time>
      </trkpt>
      <trkpt lat="43.28428" lon="2.22861">
        <ele>196.5</ele>
        <time>2019-06-09T08:08:03.000Z</time>
      </trkpt>
      <trkpt lat="43.28425" lon="2.22861">
        <ele>196.3</ele>
        <time>2019-06-09T08:08:04.000Z</time>
      </trkpt>
      <trkpt lat="43.28422" lon="2.22861">
        <ele>196.1</ele>
        <time>2019-06-09T08:08:05.000Z</time>
      </trkpt>
      <trkpt lat="43.28419" lon="2.22861">
        <ele>195.8</ele>
        <time>2019-06-09T08:08:06.000Z</time>
      </trkpt>
      <trkpt lat="43.28416" lon="2.22861">
        <ele>195.6</ele>
        <time>2019-06-09T08:08:07.000Z</time>
      </trkpt>
      <trkpt lat="43.28413" lon="2.22861">
        <ele>195.5</ele>
        <time>2019-06-09T08:08:08.000Z</time>
      </trkpt>
      <trkpt lat="43.28411" lon="2.22862">
        <ele>195.3</ele>
        <time>2019-06-09T08:08:09.000Z</time>
      </trkpt>
      <trkpt lat="43.28408" lon="2.22862">
        <ele>195.2</ele>
        <time>2019-06-09T08:08:10.000Z</time>
      </trkpt>
      <trkpt lat="43.28405" lon="2.22863">
        <ele>195.1</ele>
        <time>2019-06-09T08:08:11.000Z</time>
      </trkpt>
      <trkpt lat="43.28402" lon="2.22864">
        <ele>194.9</ele>
        <time>2019-06-09T08:08:12.000Z</time>
      </trkpt>
      <trkpt lat="43.284" lon="2.22865">
        <ele>194.8</ele>
        <time>2019-06-09T08:08:13.000Z</time>
      </trkpt>
      <trkpt lat="43.28397" lon="2.22865">
        <ele>194.7</ele>
        <time>2019-06-09T08:08:14.000Z</time>
      </trkpt>
      <trkpt lat="43.28394" lon="2.22866">
        <ele>194.6</ele>
        <time>2019-06-09T08:08:15.000Z</time>
      </trkpt>
      <trkpt lat="43.28392" lon="2.22867">
        <ele>194.5</ele>
        <time>2019-06-09T08:08:16.000Z</time>
      </trkpt>
      <trkpt lat="43.28389" lon="2.22868">
        <ele>194.3</ele>
        <time>2019-06-09T08:08:17.000Z</time>
      </trkpt>
      <trkpt lat="43.28386" lon="2.2287">
        <ele>194.2</ele>
        <time>2019-06-09T08:08:18.000Z</time>
      </trkpt>
      <trkpt lat="43.28384" lon="2.22871">
        <ele>194.1</ele>
        <time>2019-06-09T08:08:19.000Z</time>
      </trkpt>
      <trkpt lat="43.28381" lon="2.22872">
        <ele>194</ele>
        <time>2019-06-09T08:08:20.000Z</time>
      </trkpt>
      <trkpt lat="43.28378" lon="2.22873">
        <ele>193.9</ele>
        <time>2019-06-09T08:08:21.000Z</time>
      </trkpt>
      <trkpt lat="43.28376" lon="2.22874">
        <ele>193.8</ele>
        <time>2019-06-09T08:08:22.000Z</time>
      </trkpt>
      <trkpt lat="43.28373" lon="2.22876">
        <ele>193.6</ele>
        <time>2019-06-09T08:08:23.000Z</time>
      </trkpt>
      <trkpt lat="43.2837" lon="2.22877">
        <ele>193.5</ele>
        <time>2019-06-09T08:08:24.000Z</time>
      </trkpt>
      <trkpt lat="43.28368" lon="2.22878">
        <ele>193.4</ele>
        <time>2019-06-09T08:08:25.000Z</time>
      </trkpt>
      <trkpt lat="43.28365" lon="2.22879">
        <ele>193.3</ele>
        <time>2019-06-09T08:08:26.000Z</time>
      </trkpt>
      <trkpt lat="43.28363" lon="2.22881">
        <ele>193.1</ele>
        <time>2019-06-09T08:08:27.000Z</time>
      </trkpt>
      <trkpt lat="43.2836" lon="2.22882">
        <ele>193</ele>
        <time>2019-06-09T08:08:28.000Z</time>
      </trkpt>
      <trkpt lat="43.28358" lon="2.22883">
        <ele>192.9</ele>
        <time>2019-06-09T08:08:29.000Z</time>
      </trkpt>
      <trkpt lat="43.28355" lon="2.22884">
        <ele>192.7</ele>
        <time>2019-06-09T08:08:30.000Z</time>
      </trkpt>
      <trkpt lat="43.28353" lon="2.22885">
        <ele>192.6</ele>
        <time>2019-06-09T08:08:31.000Z</time>
      </trkpt>
      <trkpt lat="43.2835" lon="2.22886">
        <ele>192.4</ele>
        <time>2019-06-09T08:08:32.000Z</time>
      </trkpt>
      <trkpt lat="43.28347" lon="2.22887">
        <ele>192.3</ele>
        <time>2019-06-09T08:08:33.000Z</time>
      </trkpt>
      <trkpt lat="43.28345" lon="2.22888">
        <ele>192.1</ele>
        <time>2019-06-09T08:08:34.000Z</time>
      </trkpt>
      <trkpt lat="43.28342" lon="2.22889">
        <ele>192</ele>
        <time>2019-06-09T08:08:35.000Z</time>
      </trkpt>
      <trkpt lat="43.2834" lon="2.2289">
        <ele>191.8</ele>
        <time>2019-06-09T08:08:36.000Z</time>
      </trkpt>
      <trkpt lat="43.28337" lon="2.2289">
        <ele>191.6</ele>
        <time>2019-06-09T08:08:37.000Z</time>
      </trkpt>
      <trkpt lat="43.28334" lon="2.22891">
        <ele>191.4</ele>
        <time>2019-06-09T08:08:38.000Z</time>
      </trkpt>
      <trkpt lat="43.28331" lon="2.22891">
        <ele>191.2</ele>
        <time>2019-06-09T08:08:39.000Z</time>
      </trkpt>
      <trkpt lat="43.28329" lon="2.22892">
        <ele>191</ele>
        <time>2019-06-09T08:08:40.000Z</time>
      </trkpt>
      <trkpt lat="43.28326" lon="2.22892">
        <ele>190.8</ele>
        <time>2019-06-09T08:08:41.000Z</time>
      </trkpt>
      <trkpt lat="43.28323" lon="2.22892">
        <ele>190.6</ele>
        <time>2019-06-09T08:08:42.000Z</time>
      </trkpt>
      <trkpt lat="43.2832" lon="2.22892">
        <ele>190.4</ele>
        <time>2019-06-09T08:08:43.000Z</time>
      </trkpt>
      <trkpt lat="43.28317" lon="2.22892">
        <ele>190.2</ele>
        <time>2019-06-09T08:08:44.000Z</time>
      </trkpt>
      <trkpt lat="43.28314" lon="2.22892">
        <ele>190</ele>
        <time>2019-06-09T08:08:45.000Z</time>
      </trkpt>
      <trkpt lat="43.28311" lon="2.22892">
        <ele>189.8</ele>
        <time>2019-06-09T08:08:46.000Z</time>
      </trkpt>
      <trkpt lat="43.28308" lon="2.22892">
        <ele>189.6</ele>
        <time>2019-06-09T08:08:47.000Z</time>
      </trkpt>
      <trkpt lat="43.28306" lon="2.22892">
        <ele>189.4</ele>
        <time>2019-06-09T08:08:48.000Z</time>
      </trkpt>
      <trkpt lat="43.28303" lon="2.22892">
        <ele>189.1</ele>
        <time>2019-06-09T08:08:49.000Z</time>
      </trkpt>
      <trkpt lat="43.283" lon="2.22891">
        <ele>188.9</ele>
        <time>2019-06-09T08:08:50.000Z</time>
      </trkpt>
      <trkpt lat="43.28297" lon="2.22891">
        <ele>188.7</ele>
        <time>2019-06-09T08:08:51.000Z</time>
      </trkpt>
      <trkpt lat="43.28294" lon="2.2289">
        <ele>188.5</ele>
        <time>2019-06-09T08:08:52.000Z</time>
      </trkpt>
      <trkpt lat="43.28291" lon="2.22889">
        <ele>188.3</ele>
        <time>2019-06-09T08:08:53.000Z</time>
      </trkpt>
      <trkpt lat="43.28288" lon="2.22889">
        <ele>188.1</ele>
        <time>2019-06-09T08:08:54.000Z</time>
      </trkpt>
      <trkpt lat="43.28285" lon="2.22888">
        <ele>187.9</ele>
        <time>2019-06-09T08:08:55.000Z</time>
      </trkpt>
      <trkpt lat="43.28282" lon="2.22887">
        <ele>187.7</ele>
        <time>2019-06-09T08:08:56.000Z</time>
      </trkpt>
      <trkpt lat="43.2828" lon="2.22886">
        <ele>187.5</ele>
        <time>2019-06-09T08:08:57.000Z</time>
      </trkpt>
      <trkpt lat="43.28277" lon="2.22884">
        <ele>187.3</ele>
        <time>2019-06-09T08:08:58.000Z</time>
      </trkpt>
      <trkpt lat="43.28274" lon="2.22883">
        <ele>187.1</ele>
        <time>2019-06-09T08:08:59.000Z</time>
      </trkpt>
      <trkpt lat="43.28271" lon="2.22882">
        <ele>186.9</ele>
        <time>2019-06-09T08:09:00.000Z</time>
      </trkpt>
      <trkpt lat="43.28268" lon="2.2288">
        <ele>186.7</ele>
        <time>2019-06-09T08:09:01.000Z</time>
      </trkpt>
      <trkpt lat="43.28265" lon="2.22879">
        <ele>186.5</ele>
        <time>2019-06-09T08:09:02.000Z</time>
      </trkpt>
      <trkpt lat="43.28263" lon="2.22877">
        <ele>186.3</ele>
        <time>2019-06-09T08:09:03.000Z</time>
      </trkpt>
      <trkpt lat="43.2826" lon="2.22876">
        <ele>186.1</ele>
        <time>2019-06-09T08:09:04.000Z</time>
      </trkpt>
      <trkpt lat="43.28257" lon="2.22875">
        <ele>186</ele>
        <time>2019-06-09T08:09:05.000Z</time>
      </trkpt>
      <trkpt lat="43.28254" lon="2.22874">
        <ele>185.8</ele>
        <time>2019-06-09T08:09:06.000Z</time>
      </trkpt>
      <trkpt lat="43.28252" lon="2.22873">
        <ele>185.6</ele>
        <time>2019-06-09T08:09:07.000Z</time>
      </trkpt>
      <trkpt lat="43.28249" lon="2.22873">
        <ele>185.4</ele>
        <time>2019-06-09T08:09:08.000Z</time>
      </trkpt>
      <trkpt lat="43.28246" lon="2.22872">
        <ele>185.2</ele>
        <time>2019-06-09T08:09:09.000Z</time>
      </trkpt>
      <trkpt lat="43.28243" lon="2.22872">
        <ele>184.9</ele>
        <time>2019-06-09T08:09:10.000Z</time>
      </trkpt>
      <trkpt lat="43.28241" lon="2.22872">
        <ele>184.7</ele>
        <time>2019-06-09T08:09:11.000Z</time>
      </trkpt>
      <trkpt lat="43.28238" lon="2.22871">
        <ele>184.4</ele>
        <time>2019-06-09T08:09:12.000Z</time>
      </trkpt>
      <trkpt lat="43.28236" lon="2.22871">
        <ele>184.2</ele>
        <time>2019-06-09T08:09:13.000Z</time>
      </trkpt>
      <trkpt lat="43.28235" lon="2.22871">
        <ele>184.1</ele>
        <time>2019-06-09T08:09:14.000Z</time>
      </trkpt>
      <trkpt lat="43.28234" lon="2.22871">
        <ele>184.1</ele>
        <time>2019-06-09T08:09:15.000Z</time>
      </trkpt>
      <trkpt lat="43.28235" lon="2.22871">
        <ele>184.1</ele>
        <time>2019-06-09T08:09:16.000Z</time>
      </trkpt>
      <trkpt lat="43.28235" lon="2.22871">
        <ele>184.2</ele>
        <time>2019-06-09T08:09:17.000Z</time>
      </trkpt>
      <trkpt lat="43.28237" lon="2.22871">
        <ele>184.3</ele>
        <time>2019-06-09T08:09:18.000Z</time>
      </trkpt>
      <trkpt lat="43.28238" lon="2.22872">
        <ele>184.4</ele>
        <time>2019-06-09T08:09:19.000Z</time>
      </trkpt>
      <trkpt lat="43.28239" lon="2.22872">
        <ele>184.5</ele>
        <time>2019-06-09T08:09:20.000Z</time>
      </trkpt>
      <trkpt lat="43.2824" lon="2.22873">
        <ele>184.6</ele>
        <time>2019-06-09T08:09:21.000Z</time>
      </trkpt>
      <trkpt lat="43.28241" lon="2.22874">
        <ele>184.7</ele>
        <time>2019-06-09T08:09:22.000Z</time>
      </trkpt>
      <trkpt lat="43.28241" lon="2.22874">
        <ele>184.7</ele>
        <time>2019-06-09T08:09:23.000Z</time>
      </trkpt>
      <trkpt lat="43.28241" lon="2.22874">
        <ele>184.7</ele>
        <time>2019-06-09T08:09:24.000Z</time>
      </trkpt>
      <trkpt lat="43.28242" lon="2.22874">
        <ele>184.8</ele>
        <time>2019-06-09T08:09:25.000Z</time>
      </trkpt>
      <trkpt lat="43.28242" lon="2.22874">
        <ele>184.8</ele>
        <time>2019-06-09T08:09:26.000Z</time>
      </trkpt>
      <trkpt lat="43.28242" lon="2.22874">
        <ele>184.8</ele>
        <time>2019-06-09T08:09:27.000Z</time>
      </trkpt>
      <trkpt lat="43.28242" lon="2.22874">
        <ele>184.8</ele>
        <time>2019-06-09T08:09:28.000Z</time>
      </trkpt>
      <trkpt lat="43.28242" lon="2.22874">
        <ele>184.8</ele>
        <time>2019-06-09T08:09:29.000Z</time>
      </trkpt>
      <trkpt lat="43.28242" lon="2.22874">
        <ele>184.8</ele>
        <time>2019-06-09T08:09:30.000Z</time>
      </trkpt>
      <trkpt lat="43.28242" lon="2.22874">
        <ele>184.8</ele>
        <time>2019-06-09T08:09:31.000Z</time>
      </trkpt>
      <trkpt lat="43.28242" lon="2.22874">
        <ele>184.8</ele>
        <time>2019-06-09T08:09:32.000Z</time>
      </trkpt>
      <trkpt lat="43.28242" lon="2.22874">
        <ele>184.8</ele>
        <time>2019-06-09T08:09:33.000Z</time>
      </trkpt>
      <trkpt lat="43.28242" lon="2.22874">
        <ele>184.8</ele>
        <time>2019-06-09T08:09:34.000Z</time>
      </trkpt>
      <trkpt lat="43.28242" lon="2.22874">
        <ele>184.8</ele>
        <time>2019-06-09T08:09:35.000Z</time>
      </trkpt>
      <trkpt lat="43.28242" lon="2.22874">
        <ele>184.8</ele>
        <time>2019-06-09T08:09:36.000Z</time>
      </trkpt>
      <trkpt lat="43.28242" lon="2.22875">
        <ele>184.8</ele>
        <time>2019-06-09T08:09:37.000Z</time>
      </trkpt>
      <trkpt lat="43.28242" lon="2.22875">
        <ele>184.8</ele>
        <time>2019-06-09T08:09:38.000Z</time>
      </trkpt>
      <trkpt lat="43.28242" lon="2.22875">
        <ele>184.8</ele>
        <time>2019-06-09T08:09:39.000Z</time>
      </trkpt>
      <trkpt lat="43.28242" lon="2.22876">
        <ele>184.8</ele>
        <time>2019-06-09T08:09:40.000Z</time>
      </trkpt>
      <trkpt lat="43.28243" lon="2.22876">
        <ele>184.8</ele>
        <time>2019-06-09T08:09:41.000Z</time>
      </trkpt>
      <trkpt lat="43.28243" lon="2.22877">
        <ele>184.8</ele>
        <time>2019-06-09T08:09:42.000Z</time>
      </trkpt>
      <trkpt lat="43.28243" lon="2.22878">
        <ele>184.9</ele>
        <time>2019-06-09T08:09:43.000Z</time>
      </trkpt>
      <trkpt lat="43.28244" lon="2.22879">
        <ele>184.9</ele>
        <time>2019-06-09T08:09:44.000Z</time>
      </trkpt>
      <trkpt lat="43.28244" lon="2.22881">
        <ele>184.9</ele>
        <time>2019-06-09T08:09:45.000Z</time>
      </trkpt>
      <trkpt lat="43.28245" lon="2.22882">
        <ele>185</ele>
        <time>2019-06-09T08:09:46.000Z</time>
      </trkpt>
      <trkpt lat="43.28245" lon="2.22884">
        <ele>185</ele>
        <time>2019-06-09T08:09:47.000Z</time>
      </trkpt>
      <trkpt lat="43.28246" lon="2.22885">
        <ele>185</ele>
        <time>2019-06-09T08:09:48.000Z</time>
      </trkpt>
      <trkpt lat="43.28247" lon="2.22886">
        <ele>185.1</ele>
        <time>2019-06-09T08:09:49.000Z</time>
      </trkpt>
      <trkpt lat="43.28247" lon="2.22887">
        <ele>185.1</ele>
        <time>2019-06-09T08:09:50.000Z</time>
      </trkpt>
      <trkpt lat="43.28248" lon="2.22888">
        <ele>185.2</ele>
        <time>2019-06-09T08:09:51.000Z</time>
      </trkpt>
      <trkpt lat="43.28249" lon="2.22889">
        <ele>185.2</ele>
        <time>2019-06-09T08:09:52.000Z</time>
      </trkpt>
      <trkpt lat="43.28249" lon="2.2289">
        <ele>185.3</ele>
        <time>2019-06-09T08:09:53.000Z</time>
      </trkpt>
      <trkpt lat="43.2825" lon="2.22892">
        <ele>185.3</ele>
        <time>2019-06-09T08:09:54.000Z</time>
      </trkpt>
      <trkpt lat="43.28251" lon="2.22893">
        <ele>185.4</ele>
        <time>2019-06-09T08:09:55.000Z</time>
      </trkpt>
      <trkpt lat="43.28252" lon="2.22894">
        <ele>185.4</ele>
        <time>2019-06-09T08:09:56.000Z</time>
      </trkpt>
      <trkpt lat="43.28252" lon="2.22895">
        <ele>185.4</ele>
        <time>2019-06-09T08:09:57.000Z</time>
      </trkpt>
      <trkpt lat="43.28252" lon="2.22896">
        <ele>185.4</ele>
        <time>2019-06-09T08:09:58.000Z</time>
      </trkpt>
      <trkpt lat="43.28252" lon="2.22897">
        <ele>185.4</ele>
        <time>2019-06-09T08:09:59.000Z</time>
      </trkpt>
      <trkpt lat="43.28251" lon="2.22897">
        <ele>185.3</ele>
        <time>2019-06-09T08:10:00.000Z</time>
      </trkpt>
      <trkpt lat="43.2825" lon="2.22896">
        <ele>185.3</ele>
        <time>2019-06-09T08:10:01.000Z</time>
      </trkpt>
      <trkpt lat="43.2825" lon="2.22895">
        <ele>185.2</ele>
        <time>2019-06-09T08:10:02.000Z</time>
      </trkpt>
      <trkpt lat="43.28249" lon="2.22894">
        <ele>185.2</ele>
        <time>2019-06-09T08:10:03.000Z</time>
      </trkpt>
      <trkpt lat="43.28248" lon="2.22892">
        <ele>185.2</ele>
        <time>2019-06-09T08:10:04.000Z</time>
      </trkpt>
      <trkpt lat="43.28248" lon="2.22891">
        <ele>185.1</ele>
        <time>2019-06-09T08:10:05.000Z</time>
      </trkpt>
      <trkpt lat="43.28248" lon="2.2289">
        <ele>185.1</ele>
        <time>2019-06-09T08:10:06.000Z</time>
      </trkpt>
      <trkpt lat="43.28247" lon="2.22889">
        <ele>185.1</ele>
        <time>2019-06-09T08:10:07.000Z</time>
      </trkpt>
      <trkpt lat="43.28247" lon="2.22888">
        <ele>185.1</ele>
        <time>2019-06-09T08:10:08.000Z</time>
      </trkpt>
      <trkpt lat="43.28246" lon="2.22886">
        <ele>185</ele>
        <time>2019-06-09T08:10:09.000Z</time>
      </trkpt>
      <trkpt lat="43.28245" lon="2.22885">
        <ele>184.9</ele>
        <time>2019-06-09T08:10:10.000Z</time>
      </trkpt>
      <trkpt lat="43.28243" lon="2.22883">
        <ele>184.8</ele>
        <time>2019-06-09T08:10:11.000Z</time>
      </trkpt>
      <trkpt lat="43.28242" lon="2.22881">
        <ele>184.7</ele>
        <time>2019-06-09T08:10:12.000Z</time>
      </trkpt>
      <trkpt lat="43.2824" lon="2.2288">
        <ele>184.6</ele>
        <time>2019-06-09T08:10:13.000Z</time>
      </trkpt>
      <trkpt lat="43.28238" lon="2.22878">
        <ele>184.4</ele>
        <time>2019-06-09T08:10:14.000Z</time>
      </trkpt>
      <trkpt lat="43.28237" lon="2.22877">
        <ele>184.3</ele>
        <time>2019-06-09T08:10:15.000Z</time>
      </trkpt>
      <trkpt lat="43.28235" lon="2.22876">
        <ele>184.1</ele>
        <time>2019-06-09T08:10:16.000Z</time>
      </trkpt>
      <trkpt lat="43.28233" lon="2.22876">
        <ele>183.9</ele>
        <time>2019-06-09T08:10:17.000Z</time>
      </trkpt>
      <trkpt lat="43.2823" lon="2.22875">
        <ele>183.7</ele>
        <time>2019-06-09T08:10:18.000Z</time>
      </trkpt>
      <trkpt lat="43.28228" lon="2.22875">
        <ele>183.5</ele>
        <time>2019-06-09T08:10:19.000Z</time>
      </trkpt>
      <trkpt lat="43.28226" lon="2.22875">
        <ele>183.3</ele>
        <time>2019-06-09T08:10:20.000Z</time>
      </trkpt>
      <trkpt lat="43.28223" lon="2.22875">
        <ele>183.1</ele>
        <time>2019-06-09T08:10:21.000Z</time>
      </trkpt>
      <trkpt lat="43.28221" lon="2.22875">
        <ele>182.9</ele>
        <time>2019-06-09T08:10:22.000Z</time>
      </trkpt>
      <trkpt lat="43.28218" lon="2.22875">
        <ele>182.6</ele>
        <time>2019-06-09T08:10:23.000Z</time>
      </trkpt>
      <trkpt lat="43.28215" lon="2.22875">
        <ele>182.4</ele>
        <time>2019-06-09T08:10:24.000Z</time>
      </trkpt>
      <trkpt lat="43.28213" lon="2.22875">
        <ele>182.1</ele>
        <time>2019-06-09T08:10:25.000Z</time>
      </trkpt>
      <trkpt lat="43.2821" lon="2.22875">
        <ele>181.9</ele>
        <time>2019-06-09T08:10:26.000Z</time>
      </trkpt>
      <trkpt lat="43.28207" lon="2.22875">
        <ele>181.6</ele>
        <time>2019-06-09T08:10:27.000Z</time>
      </trkpt>
      <trkpt lat="43.28204" lon="2.22875">
        <ele>181.4</ele>
        <time>2019-06-09T08:10:28.000Z</time>
      </trkpt>
      <trkpt lat="43.28202" lon="2.22875">
        <ele>181.1</ele>
        <time>2019-06-09T08:10:29.000Z</time>
      </trkpt>
      <trkpt lat="43.28199" lon="2.22875">
        <ele>180.9</ele>
        <time>2019-06-09T08:10:30.000Z</time>
      </trkpt>
      <trkpt lat="43.28196" lon="2.22875">
        <ele>180.7</ele>
        <time>2019-06-09T08:10:31.000Z</time>
      </trkpt>
      <trkpt lat="43.28194" lon="2.22875">
        <ele>180.4</ele>
        <time>2019-06-09T08:10:32.000Z</time>
      </trkpt>
      <trkpt lat="43.28191" lon="2.22875">
        <ele>180.2</ele>
        <time>2019-06-09T08:10:33.000Z</time>
      </trkpt>
      <trkpt lat="43.28189" lon="2.22875">
        <ele>180</ele>
        <time>2019-06-09T08:10:34.000Z</time>
      </trkpt>
      <trkpt lat="43.28186" lon="2.22875">
        <ele>179.8</ele>
        <time>2019-06-09T08:10:35.000Z</time>
      </trkpt>
      <trkpt lat="43.28184" lon="2.22875">
        <ele>179.6</ele>
        <time>2019-06-09T08:10:36.000Z</time>
      </trkpt>
      <trkpt lat="43.28182" lon="2.22875">
        <ele>179.3</ele>
        <time>2019-06-09T08:10:37.000Z</time>
      </trkpt>
      <trkpt lat="43.28179" lon="2.22875">
        <ele>179.1</ele>
        <time>2019-06-09T08:10:38.000Z</time>
      </trkpt>
      <trkpt lat="43.28177" lon="2.22874">
        <ele>178.9</ele>
        <time>2019-06-09T08:10:39.000Z</time>
      </trkpt>
      <trkpt lat="43.28174" lon="2.22874">
        <ele>178.6</ele>
        <time>2019-06-09T08:10:40.000Z</time>
      </trkpt>
      <trkpt lat="43.28172" lon="2.22874">
        <ele>178.4</ele>
        <time>2019-06-09T08:10:41.000Z</time>
      </trkpt>
      <trkpt lat="43.28169" lon="2.22874">
        <ele>178.2</ele>
        <time>2019-06-09T08:10:42.000Z</time>
      </trkpt>
      <trkpt lat="43.28167" lon="2.22874">
        <ele>177.9</ele>
        <time>2019-06-09T08:10:43.000Z</time>
      </trkpt>
      <trkpt lat="43.28164" lon="2.22874">
        <ele>177.7</ele>
        <time>2019-06-09T08:10:44.000Z</time>
      </trkpt>
      <trkpt lat="43.28162" lon="2.22874">
        <ele>177.4</ele>
        <time>2019-06-09T08:10:45.000Z</time>
      </trkpt>
      <trkpt lat="43.28159" lon="2.22875">
        <ele>177.2</ele>
        <time>2019-06-09T08:10:46.000Z</time>
      </trkpt>
      <trkpt lat="43.28156" lon="2.22876">
        <ele>177</ele>
        <time>2019-06-09T08:10:47.000Z</time>
      </trkpt>
      <trkpt lat="43.28154" lon="2.22877">
        <ele>176.8</ele>
        <time>2019-06-09T08:10:48.000Z</time>
      </trkpt>
      <trkpt lat="43.28151" lon="2.22878">
        <ele>176.5</ele>
        <time>2019-06-09T08:10:49.000Z</time>
      </trkpt>
      <trkpt lat="43.28149" lon="2.22879">
        <ele>176.3</ele>
        <time>2019-06-09T08:10:50.000Z</time>
      </trkpt>
      <trkpt lat="43.28146" lon="2.2288">
        <ele>176.1</ele>
        <time>2019-06-09T08:10:51.000Z</time>
      </trkpt>
      <trkpt lat="43.28143" lon="2.22881">
        <ele>175.9</ele>
        <time>2019-06-09T08:10:52.000Z</time>
      </trkpt>
      <trkpt lat="43.28141" lon="2.22882">
        <ele>175.7</ele>
        <time>2019-06-09T08:10:53.000Z</time>
      </trkpt>
      <trkpt lat="43.28138" lon="2.22883">
        <ele>175.4</ele>
        <time>2019-06-09T08:10:54.000Z</time>
      </trkpt>
      <trkpt lat="43.28136" lon="2.22883">
        <ele>175.2</ele>
        <time>2019-06-09T08:10:55.000Z</time>
      </trkpt>
      <trkpt lat="43.28133" lon="2.22884">
        <ele>175</ele>
        <time>2019-06-09T08:10:56.000Z</time>
      </trkpt>
      <trkpt lat="43.28131" lon="2.22885">
        <ele>174.8</ele>
        <time>2019-06-09T08:10:57.000Z</time>
      </trkpt>
      <trkpt lat="43.28128" lon="2.22887">
        <ele>174.6</ele>
        <time>2019-06-09T08:10:58.000Z</time>
      </trkpt>
      <trkpt lat="43.28126" lon="2.22889">
        <ele>174.4</ele>
        <time>2019-06-09T08:10:59.000Z</time>
      </trkpt>
      <trkpt lat="43.28124" lon="2.22892">
        <ele>174.3</ele>
        <time>2019-06-09T08:11:00.000Z</time>
      </trkpt>
      <trkpt lat="43.28122" lon="2.22894">
        <ele>174.2</ele>
        <time>2019-06-09T08:11:01.000Z</time>
      </trkpt>
      <trkpt lat="43.2812" lon="2.22898">
        <ele>174.2</ele>
        <time>2019-06-09T08:11:02.000Z</time>
      </trkpt>
      <trkpt lat="43.28118" lon="2.22901">
        <ele>174.1</ele>
        <time>2019-06-09T08:11:03.000Z</time>
      </trkpt>
      <trkpt lat="43.28117" lon="2.22904">
        <ele>174.1</ele>
        <time>2019-06-09T08:11:04.000Z</time>
      </trkpt>
      <trkpt lat="43.28116" lon="2.22908">
        <ele>174.1</ele>
        <time>2019-06-09T08:11:05.000Z</time>
      </trkpt>
      <trkpt lat="43.28114" lon="2.22911">
        <ele>174.1</ele>
        <time>2019-06-09T08:11:06.000Z</time>
      </trkpt>
      <trkpt lat="43.28113" lon="2.22914">
        <ele>174</ele>
        <time>2019-06-09T08:11:07.000Z</time>
      </trkpt>
      <trkpt lat="43.28111" lon="2.22917">
        <ele>174</ele>
        <time>2019-06-09T08:11:08.000Z</time>
      </trkpt>
      <trkpt lat="43.28109" lon="2.22919">
        <ele>173.8</ele>
        <time>2019-06-09T08:11:09.000Z</time>
      </trkpt>
      <trkpt lat="43.28107" lon="2.22922">
        <ele>173.7</ele>
        <time>2019-06-09T08:11:10.000Z</time>
      </trkpt>
      <trkpt lat="43.28105" lon="2.22924">
        <ele>173.5</ele>
        <time>2019-06-09T08:11:11.000Z</time>
      </trkpt>
      <trkpt lat="43.28102" lon="2.22927">
        <ele>173.3</ele>
        <time>2019-06-09T08:11:12.000Z</time>
      </trkpt>
      <trkpt lat="43.281" lon="2.22929">
        <ele>173.2</ele>
        <time>2019-06-09T08:11:13.000Z</time>
      </trkpt>
      <trkpt lat="43.28097" lon="2.22931">
        <ele>173</ele>
        <time>2019-06-09T08:11:14.000Z</time>
      </trkpt>
      <trkpt lat="43.28095" lon="2.22934">
        <ele>172.8</ele>
        <time>2019-06-09T08:11:15.000Z</time>
      </trkpt>
      <trkpt lat="43.28092" lon="2.22936">
        <ele>172.6</ele>
        <time>2019-06-09T08:11:16.000Z</time>
      </trkpt>
      <trkpt lat="43.2809" lon="2.22939">
        <ele>172.5</ele>
        <time>2019-06-09T08:11:17.000Z</time>
      </trkpt>
      <trkpt lat="43.28088" lon="2.22942">
        <ele>172.4</ele>
        <time>2019-06-09T08:11:18.000Z</time>
      </trkpt>
      <trkpt lat="43.28086" lon="2.22945">
        <ele>172.3</ele>
        <time>2019-06-09T08:11:19.000Z</time>
      </trkpt>
      <trkpt lat="43.28084" lon="2.22948">
        <ele>172.2</ele>
        <time>2019-06-09T08:11:20.000Z</time>
      </trkpt>
      <trkpt lat="43.28082" lon="2.22951">
        <ele>172.2</ele>
        <time>2019-06-09T08:11:21.000Z</time>
      </trkpt>
      <trkpt lat="43.2808" lon="2.22953">
        <ele>172.3</ele>
        <time>2019-06-09T08:11:22.000Z</time>
      </trkpt>
      <trkpt lat="43.28078" lon="2.22956">
        <ele>172.4</ele>
        <time>2019-06-09T08:11:23.000Z</time>
      </trkpt>
      <trkpt lat="43.28076" lon="2.22959">
        <ele>172.5</ele>
        <time>2019-06-09T08:11:24.000Z</time>
      </trkpt>
      <trkpt lat="43.28074" lon="2.22961">
        <ele>172.6</ele>
        <time>2019-06-09T08:11:25.000Z</time>
      </trkpt>
      <trkpt lat="43.28073" lon="2.22963">
        <ele>172.7</ele>
        <time>2019-06-09T08:11:26.000Z</time>
      </trkpt>
      <trkpt lat="43.28071" lon="2.22965">
        <ele>172.7</ele>
        <time>2019-06-09T08:11:27.000Z</time>
      </trkpt>
      <trkpt lat="43.28068" lon="2.22967">
        <ele>172.8</ele>
        <time>2019-06-09T08:11:28.000Z</time>
      </trkpt>
      <trkpt lat="43.28066" lon="2.22969">
        <ele>172.9</ele>
        <time>2019-06-09T08:11:29.000Z</time>
      </trkpt>
      <trkpt lat="43.28064" lon="2.22971">
        <ele>172.9</ele>
        <time>2019-06-09T08:11:30.000Z</time>
      </trkpt>
      <trkpt lat="43.28062" lon="2.22972">
        <ele>173</ele>
        <time>2019-06-09T08:11:31.000Z</time>
      </trkpt>
      <trkpt lat="43.2806" lon="2.22974">
        <ele>173.1</ele>
        <time>2019-06-09T08:11:32.000Z</time>
      </trkpt>
      <trkpt lat="43.28058" lon="2.22976">
        <ele>173.1</ele>
        <time>2019-06-09T08:11:33.000Z</time>
      </trkpt>
      <trkpt lat="43.28055" lon="2.22977">
        <ele>173.2</ele>
        <time>2019-06-09T08:11:34.000Z</time>
      </trkpt>
      <trkpt lat="43.28053" lon="2.22979">
        <ele>173.2</ele>
        <time>2019-06-09T08:11:35.000Z</time>
      </trkpt>
      <trkpt lat="43.2805" lon="2.22981">
        <ele>173.3</ele>
        <time>2019-06-09T08:11:36.000Z</time>
      </trkpt>
      <trkpt lat="43.28048" lon="2.22983">
        <ele>173.4</ele>
        <time>2019-06-09T08:11:37.000Z</time>
      </trkpt>
      <trkpt lat="43.28045" lon="2.22984">
        <ele>173.4</ele>
        <time>2019-06-09T08:11:38.000Z</time>
      </trkpt>
      <trkpt lat="43.28043" lon="2.22986">
        <ele>173.5</ele>
        <time>2019-06-09T08:11:39.000Z</time>
      </trkpt>
      <trkpt lat="43.2804" lon="2.22988">
        <ele>173.6</ele>
        <time>2019-06-09T08:11:40.000Z</time>
      </trkpt>
      <trkpt lat="43.28037" lon="2.2299">
        <ele>173.7</ele>
        <time>2019-06-09T08:11:41.000Z</time>
      </trkpt>
      <trkpt lat="43.28034" lon="2.22992">
        <ele>173.7</ele>
        <time>2019-06-09T08:11:42.000Z</time>
      </trkpt>
      <trkpt lat="43.28032" lon="2.22994">
        <ele>173.8</ele>
        <time>2019-06-09T08:11:43.000Z</time>
      </trkpt>
      <trkpt lat="43.28029" lon="2.22996">
        <ele>173.9</ele>
        <time>2019-06-09T08:11:44.000Z</time>
      </trkpt>
      <trkpt lat="43.28027" lon="2.22998">
        <ele>173.9</ele>
        <time>2019-06-09T08:11:45.000Z</time>
      </trkpt>
      <trkpt lat="43.28024" lon="2.23">
        <ele>174</ele>
        <time>2019-06-09T08:11:46.000Z</time>
      </trkpt>
      <trkpt lat="43.28022" lon="2.23002">
        <ele>174</ele>
        <time>2019-06-09T08:11:47.000Z</time>
      </trkpt>
      <trkpt lat="43.28019" lon="2.23003">
        <ele>174</ele>
        <time>2019-06-09T08:11:48.000Z</time>
      </trkpt>
      <trkpt lat="43.28017" lon="2.23005">
        <ele>174.1</ele>
        <time>2019-06-09T08:11:49.000Z</time>
      </trkpt>
      <trkpt lat="43.28015" lon="2.23006">
        <ele>174.1</ele>
        <time>2019-06-09T08:11:50.000Z</time>
      </trkpt>
      <trkpt lat="43.28012" lon="2.23008">
        <ele>174.1</ele>
        <time>2019-06-09T08:11:51.000Z</time>
      </trkpt>
      <trkpt lat="43.2801" lon="2.23009">
        <ele>174.1</ele>
        <time>2019-06-09T08:11:52.000Z</time>
      </trkpt>
      <trkpt lat="43.28007" lon="2.23011">
        <ele>174.1</ele>
        <time>2019-06-09T08:11:53.000Z</time>
      </trkpt>
      <trkpt lat="43.28005" lon="2.23013">
        <ele>174.2</ele>
        <time>2019-06-09T08:11:54.000Z</time>
      </trkpt>
      <trkpt lat="43.28002" lon="2.23015">
        <ele>174.2</ele>
        <time>2019-06-09T08:11:55.000Z</time>
      </trkpt>
      <trkpt lat="43.28" lon="2.23016">
        <ele>174.2</ele>
        <time>2019-06-09T08:11:56.000Z</time>
      </trkpt>
      <trkpt lat="43.27997" lon="2.23018">
        <ele>174</ele>
        <time>2019-06-09T08:11:57.000Z</time>
      </trkpt>
      <trkpt lat="43.27994" lon="2.2302">
        <ele>173.9</ele>
        <time>2019-06-09T08:11:58.000Z</time>
      </trkpt>
      <trkpt lat="43.27992" lon="2.23022">
        <ele>173.8</ele>
        <time>2019-06-09T08:11:59.000Z</time>
      </trkpt>
      <trkpt lat="43.27989" lon="2.23024">
        <ele>173.6</ele>
        <time>2019-06-09T08:12:00.000Z</time>
      </trkpt>
      <trkpt lat="43.27987" lon="2.23026">
        <ele>173.5</ele>
        <time>2019-06-09T08:12:01.000Z</time>
      </trkpt>
      <trkpt lat="43.27984" lon="2.23028">
        <ele>173.4</ele>
        <time>2019-06-09T08:12:02.000Z</time>
      </trkpt>
      <trkpt lat="43.27982" lon="2.23031">
        <ele>173.3</ele>
        <time>2019-06-09T08:12:03.000Z</time>
      </trkpt>
      <trkpt lat="43.2798" lon="2.23033">
        <ele>173.2</ele>
        <time>2019-06-09T08:12:04.000Z</time>
      </trkpt>
      <trkpt lat="43.27978" lon="2.23036">
        <ele>173.1</ele>
        <time>2019-06-09T08:12:05.000Z</time>
      </trkpt>
      <trkpt lat="43.27975" lon="2.23039">
        <ele>173</ele>
        <time>2019-06-09T08:12:06.000Z</time>
      </trkpt>
      <trkpt lat="43.27974" lon="2.23041">
        <ele>172.9</ele>
        <time>2019-06-09T08:12:07.000Z</time>
      </trkpt>
      <trkpt lat="43.27972" lon="2.23045">
        <ele>172.8</ele>
        <time>2019-06-09T08:12:08.000Z</time>
      </trkpt>
      <trkpt lat="43.2797" lon="2.23048">
        <ele>172.8</ele>
        <time>2019-06-09T08:12:09.000Z</time>
      </trkpt>
      <trkpt lat="43.27969" lon="2.23051">
        <ele>172.7</ele>
        <time>2019-06-09T08:12:10.000Z</time>
      </trkpt>
      <trkpt lat="43.27967" lon="2.23055">
        <ele>172.7</ele>
        <time>2019-06-09T08:12:11.000Z</time>
      </trkpt>
      <trkpt lat="43.27966" lon="2.23059">
        <ele>172.7</ele>
        <time>2019-06-09T08:12:12.000Z</time>
      </trkpt>
      <trkpt lat="43.27965" lon="2.23062">
        <ele>172.6</ele>
        <time>2019-06-09T08:12:13.000Z</time>
      </trkpt>
      <trkpt lat="43.27964" lon="2.23066">
        <ele>172.6</ele>
        <time>2019-06-09T08:12:14.000Z</time>
      </trkpt>
      <trkpt lat="43.27962" lon="2.2307">
        <ele>172.6</ele>
        <time>2019-06-09T08:12:15.000Z</time>
      </trkpt>
      <trkpt lat="43.27961" lon="2.23073">
        <ele>172.5</ele>
        <time>2019-06-09T08:12:16.000Z</time>
      </trkpt>
      <trkpt lat="43.27959" lon="2.23077">
        <ele>172.5</ele>
        <time>2019-06-09T08:12:17.000Z</time>
      </trkpt>
      <trkpt lat="43.27958" lon="2.2308">
        <ele>172.4</ele>
        <time>2019-06-09T08:12:18.000Z</time>
      </trkpt>
      <trkpt lat="43.27956" lon="2.23083">
        <ele>172.3</ele>
        <time>2019-06-09T08:12:19.000Z</time>
      </trkpt>
      <trkpt lat="43.27954" lon="2.23086">
        <ele>172.2</ele>
        <time>2019-06-09T08:12:20.000Z</time>
      </trkpt>
      <trkpt lat="43.27951" lon="2.23088">
        <ele>172</ele>
        <time>2019-06-09T08:12:21.000Z</time>
      </trkpt>
      <trkpt lat="43.27949" lon="2.23091">
        <ele>171.9</ele>
        <time>2019-06-09T08:12:22.000Z</time>
      </trkpt>
      <trkpt lat="43.27947" lon="2.23093">
        <ele>171.7</ele>
        <time>2019-06-09T08:12:23.000Z</time>
      </trkpt>
      <trkpt lat="43.27944" lon="2.23096">
        <ele>171.5</ele>
        <time>2019-06-09T08:12:24.000Z</time>
      </trkpt>
      <trkpt lat="43.27942" lon="2.23098">
        <ele>171.3</ele>
        <time>2019-06-09T08:12:25.000Z</time>
      </trkpt>
      <trkpt lat="43.2794" lon="2.231">
        <ele>171.1</ele>
        <time>2019-06-09T08:12:26.000Z</time>
      </trkpt>
      <trkpt lat="43.27937" lon="2.23102">
        <ele>170.9</ele>
        <time>2019-06-09T08:12:27.000Z</time>
      </trkpt>
      <trkpt lat="43.27935" lon="2.23104">
        <ele>170.7</ele>
        <time>2019-06-09T08:12:28.000Z</time>
      </trkpt>
      <trkpt lat="43.27932" lon="2.23106">
        <ele>170.5</ele>
        <time>2019-06-09T08:12:29.000Z</time>
      </trkpt>
      <trkpt lat="43.2793" lon="2.23108">
        <ele>170.3</ele>
        <time>2019-06-09T08:12:30.000Z</time>
      </trkpt>
      <trkpt lat="43.27928" lon="2.2311">
        <ele>170.2</ele>
        <time>2019-06-09T08:12:31.000Z</time>
      </trkpt>
      <trkpt lat="43.27926" lon="2.23112">
        <ele>170</ele>
        <time>2019-06-09T08:12:32.000Z</time>
      </trkpt>
      <trkpt lat="43.27924" lon="2.23114">
        <ele>169.8</ele>
        <time>2019-06-09T08:12:33.000Z</time>
      </trkpt>
      <trkpt lat="43.27922" lon="2.23116">
        <ele>169.6</ele>
        <time>2019-06-09T08:12:34.000Z</time>
      </trkpt>
      <trkpt lat="43.2792" lon="2.23119">
        <ele>169.4</ele>
        <time>2019-06-09T08:12:35.000Z</time>
      </trkpt>
      <trkpt lat="43.27919" lon="2.23121">
        <ele>169.3</ele>
        <time>2019-06-09T08:12:36.000Z</time>
      </trkpt>
      <trkpt lat="43.27918" lon="2.23123">
        <ele>169.1</ele>
        <time>2019-06-09T08:12:37.000Z</time>
      </trkpt>
      <trkpt lat="43.27917" lon="2.23125">
        <ele>169</ele>
        <time>2019-06-09T08:12:38.000Z</time>
      </trkpt>
      <trkpt lat="43.27916" lon="2.23128">
        <ele>168.9</ele>
        <time>2019-06-09T08:12:39.000Z</time>
      </trkpt>
    </trkseg>
  </trk>
</gpx>